<?xml version='1.0' encoding='UTF-8'?><gpx version="1.1" creator="JPX - https://github.com/jenetics/jpx" xmlns="http://www.topografix.com/GPX/1/1"><trk><trkseg><trkpt lat="45.4889254" lon="9.2386149"><ele>124.00000000000001</ele><time>2026-04-03T05:48:13.878Z</time></trkpt><trkpt lat="45.4888483" lon="9.2385739"><ele>124.0</ele><time>2026-04-03T05:48:28.878Z</time></trkpt><trkpt lat="45.4887819" lon="9.2385751"><ele>124.0</ele><time>2026-04-03T05:48:31.878Z</time></trkpt><trkpt lat="45.4887293" lon="9.2384942"><ele>124.0</ele><time>2026-04-03T05:48:59.878Z</time></trkpt><trkpt lat="45.488827" lon="9.2384552"><ele>124.00000000000001</ele><time>2026-04-03T05:49:04.877Z</time></trkpt><trkpt lat="45.4889098" lon="9.2384533"><ele>124.0</ele><time>2026-04-03T05:49:06.877Z</time></trkpt><trkpt lat="45.4890026" lon="9.2384519"><ele>124.0</ele><time>2026-04-03T05:49:08.878Z</time></trkpt><trkpt lat="45.4890668" lon="9.2384519"><ele>124.0</ele><time>2026-04-03T05:49:09.878Z</time></trkpt><trkpt lat="45.4891807" lon="9.2384431"><ele>124.0</ele><time>2026-04-03T05:49:11.878Z</time></trkpt><trkpt lat="45.4892805" lon="9.2384385"><ele>124.0</ele><time>2026-04-03T05:49:13.878Z</time></trkpt><trkpt lat="45.4893554" lon="9.2383639"><ele>124.0</ele><time>2026-04-03T05:49:15.878Z</time></trkpt><trkpt lat="45.4893704" lon="9.2381815"><ele>124.50000000000001</ele><time>2026-04-03T05:49:17.877Z</time></trkpt><trkpt lat="45.4893673" lon="9.2380788"><ele>125.0</ele><time>2026-04-03T05:49:18.877Z</time></trkpt><trkpt lat="45.4893638" lon="9.2379666"><ele>125.5</ele><time>2026-04-03T05:49:19.878Z</time></trkpt><trkpt lat="45.4893613" lon="9.2378544"><ele>126.0</ele><time>2026-04-03T05:49:20.878Z</time></trkpt><trkpt lat="45.4893557" lon="9.2377435"><ele>126.50000000000001</ele><time>2026-04-03T05:49:21.878Z</time></trkpt><trkpt lat="45.4893523" lon="9.2376341"><ele>127.0</ele><time>2026-04-03T05:49:22.878Z</time></trkpt><trkpt lat="45.489349" lon="9.2375301"><ele>127.00000000000001</ele><time>2026-04-03T05:49:23.878Z</time></trkpt><trkpt lat="45.4893438" lon="9.2374337"><ele>127.0</ele><time>2026-04-03T05:49:24.878Z</time></trkpt><trkpt lat="45.4893375" lon="9.2372842"><ele>127.0</ele><time>2026-04-03T05:49:26.878Z</time></trkpt><trkpt lat="45.489334" lon="9.2371907"><ele>127.0</ele><time>2026-04-03T05:49:30.877Z</time></trkpt><trkpt lat="45.4892646" lon="9.2371056"><ele>127.00000000000001</ele><time>2026-04-03T05:49:35.878Z</time></trkpt><trkpt lat="45.4891561" lon="9.2371157"><ele>127.0</ele><time>2026-04-03T05:49:37.877Z</time></trkpt><trkpt lat="45.4890892" lon="9.23712"><ele>127.00000000000001</ele><time>2026-04-03T05:49:38.878Z</time></trkpt><trkpt lat="45.489015" lon="9.2371276"><ele>127.0</ele><time>2026-04-03T05:49:39.878Z</time></trkpt><trkpt lat="45.4889375" lon="9.2371314"><ele>127.0</ele><time>2026-04-03T05:49:40.878Z</time></trkpt><trkpt lat="45.4888548" lon="9.2371311"><ele>127.0</ele><time>2026-04-03T05:49:41.878Z</time></trkpt><trkpt lat="45.4887719" lon="9.2371326"><ele>127.00000000000001</ele><time>2026-04-03T05:49:42.877Z</time></trkpt><trkpt lat="45.4886877" lon="9.2371362"><ele>127.0</ele><time>2026-04-03T05:49:43.877Z</time></trkpt><trkpt lat="45.4886026" lon="9.237142"><ele>126.33333333333334</ele><time>2026-04-03T05:49:44.877Z</time></trkpt><trkpt lat="45.488518" lon="9.2371446"><ele>125.66666666666667</ele><time>2026-04-03T05:49:45.877Z</time></trkpt><trkpt lat="45.4884302" lon="9.2371498"><ele>125.0</ele><time>2026-04-03T05:49:46.878Z</time></trkpt><trkpt lat="45.4883413" lon="9.2371529"><ele>124.33333333333334</ele><time>2026-04-03T05:49:47.876Z</time></trkpt><trkpt lat="45.4882518" lon="9.2371562"><ele>123.66666666666667</ele><time>2026-04-03T05:49:48.878Z</time></trkpt><trkpt lat="45.488166" lon="9.2371608"><ele>123.0</ele><time>2026-04-03T05:49:49.878Z</time></trkpt><trkpt lat="45.4880794" lon="9.2371664"><ele>123.0</ele><time>2026-04-03T05:49:50.878Z</time></trkpt><trkpt lat="45.4879938" lon="9.2371712"><ele>123.0</ele><time>2026-04-03T05:49:51.877Z</time></trkpt><trkpt lat="45.4879107" lon="9.2371774"><ele>123.0</ele><time>2026-04-03T05:49:52.877Z</time></trkpt><trkpt lat="45.4878296" lon="9.2371819"><ele>123.0</ele><time>2026-04-03T05:49:53.878Z</time></trkpt><trkpt lat="45.4877495" lon="9.237184"><ele>123.0</ele><time>2026-04-03T05:49:54.877Z</time></trkpt><trkpt lat="45.4876727" lon="9.2371875"><ele>123.0</ele><time>2026-04-03T05:49:55.877Z</time></trkpt><trkpt lat="45.4875987" lon="9.2371927"><ele>123.0</ele><time>2026-04-03T05:49:56.877Z</time></trkpt><trkpt lat="45.4875302" lon="9.2371942"><ele>123.0</ele><time>2026-04-03T05:49:57.877Z</time></trkpt><trkpt lat="45.4874322" lon="9.2371976"><ele>123.0</ele><time>2026-04-03T05:49:59.878Z</time></trkpt><trkpt lat="45.4873594" lon="9.2372036"><ele>123.0</ele><time>2026-04-03T05:50:03.878Z</time></trkpt><trkpt lat="45.4872956" lon="9.2372063"><ele>123.0</ele><time>2026-04-03T05:50:12.878Z</time></trkpt><trkpt lat="45.4872099" lon="9.2372145"><ele>123.0</ele><time>2026-04-03T05:50:14.878Z</time></trkpt><trkpt lat="45.4871072" lon="9.237217"><ele>123.0</ele><time>2026-04-03T05:50:16.878Z</time></trkpt><trkpt lat="45.486984" lon="9.2372238"><ele>123.0</ele><time>2026-04-03T05:50:18.877Z</time></trkpt><trkpt lat="45.4868588" lon="9.2372179"><ele>123.0</ele><time>2026-04-03T05:50:20.878Z</time></trkpt><trkpt lat="45.4867403" lon="9.237237"><ele>123.0</ele><time>2026-04-03T05:50:22.878Z</time></trkpt><trkpt lat="45.4866477" lon="9.237241"><ele>123.0</ele><time>2026-04-03T05:50:24.878Z</time></trkpt><trkpt lat="45.4865833" lon="9.2372383"><ele>123.0</ele><time>2026-04-03T05:50:26.877Z</time></trkpt><trkpt lat="45.486504" lon="9.2372168"><ele>123.0</ele><time>2026-04-03T05:51:25.878Z</time></trkpt><trkpt lat="45.4863794" lon="9.2372323"><ele>123.0</ele><time>2026-04-03T05:51:27.877Z</time></trkpt><trkpt lat="45.4863107" lon="9.237264"><ele>123.0</ele><time>2026-04-03T05:51:28.877Z</time></trkpt><trkpt lat="45.4862379" lon="9.2373166"><ele>123.0</ele><time>2026-04-03T05:51:29.877Z</time></trkpt><trkpt lat="45.4861725" lon="9.2374006"><ele>123.4</ele><time>2026-04-03T05:51:30.878Z</time></trkpt><trkpt lat="45.486115" lon="9.2375118"><ele>123.80000000000001</ele><time>2026-04-03T05:51:31.877Z</time></trkpt><trkpt lat="45.4860636" lon="9.2376458"><ele>124.2</ele><time>2026-04-03T05:51:32.877Z</time></trkpt><trkpt lat="45.4860312" lon="9.2378001"><ele>124.6</ele><time>2026-04-03T05:51:33.877Z</time></trkpt><trkpt lat="45.4860072" lon="9.2379532"><ele>125.0</ele><time>2026-04-03T05:51:34.877Z</time></trkpt><trkpt lat="45.4859939" lon="9.2380866"><ele>124.49999999999999</ele><time>2026-04-03T05:51:35.877Z</time></trkpt><trkpt lat="45.4859879" lon="9.2381902"><ele>124.0</ele><time>2026-04-03T05:51:36.878Z</time></trkpt><trkpt lat="45.4859835" lon="9.238305"><ele>123.5</ele><time>2026-04-03T05:51:38.877Z</time></trkpt><trkpt lat="45.485971" lon="9.238401"><ele>123.0</ele><time>2026-04-03T05:51:59.878Z</time></trkpt><trkpt lat="45.4859683" lon="9.2385524"><ele>122.49999999999999</ele><time>2026-04-03T05:52:01.877Z</time></trkpt><trkpt lat="45.4859719" lon="9.2386645"><ele>122.0</ele><time>2026-04-03T05:52:02.877Z</time></trkpt><trkpt lat="45.485982" lon="9.2388001"><ele>122.0</ele><time>2026-04-03T05:52:03.877Z</time></trkpt><trkpt lat="45.4859918" lon="9.2389394"><ele>121.99999999999999</ele><time>2026-04-03T05:52:04.878Z</time></trkpt><trkpt lat="45.4860009" lon="9.2390916"><ele>121.99999999999999</ele><time>2026-04-03T05:52:05.878Z</time></trkpt><trkpt lat="45.4860103" lon="9.2392514"><ele>122.0</ele><time>2026-04-03T05:52:06.877Z</time></trkpt><trkpt lat="45.4860186" lon="9.2394128"><ele>122.0</ele><time>2026-04-03T05:52:07.877Z</time></trkpt><trkpt lat="45.486013" lon="9.2395657"><ele>122.19999999999999</ele><time>2026-04-03T05:52:08.852Z</time></trkpt><trkpt lat="45.48602" lon="9.2397189"><ele>122.39999999999999</ele><time>2026-04-03T05:52:09.851Z</time></trkpt><trkpt lat="45.4860288" lon="9.2398657"><ele>122.60000000000001</ele><time>2026-04-03T05:52:10.851Z</time></trkpt><trkpt lat="45.4860381" lon="9.2400014"><ele>122.80000000000001</ele><time>2026-04-03T05:52:11.85Z</time></trkpt><trkpt lat="45.4860456" lon="9.240127"><ele>123.0</ele><time>2026-04-03T05:52:12.85Z</time></trkpt><trkpt lat="45.4860517" lon="9.240232"><ele>123.0</ele><time>2026-04-03T05:52:13.85Z</time></trkpt><trkpt lat="45.48606" lon="9.2403666"><ele>123.00000000000001</ele><time>2026-04-03T05:52:15.85Z</time></trkpt><trkpt lat="45.486069" lon="9.2405096"><ele>123.00000000000001</ele><time>2026-04-03T05:52:20.851Z</time></trkpt><trkpt lat="45.4860789" lon="9.2406023"><ele>123.0</ele><time>2026-04-03T05:52:21.851Z</time></trkpt><trkpt lat="45.4860961" lon="9.2407251"><ele>123.0</ele><time>2026-04-03T05:52:22.851Z</time></trkpt><trkpt lat="45.4861171" lon="9.2408841"><ele>123.25</ele><time>2026-04-03T05:52:23.851Z</time></trkpt><trkpt lat="45.4861399" lon="9.2410752"><ele>123.5</ele><time>2026-04-03T05:52:24.851Z</time></trkpt><trkpt lat="45.4861591" lon="9.2412628"><ele>123.75</ele><time>2026-04-03T05:52:25.851Z</time></trkpt><trkpt lat="45.4861767" lon="9.2414465"><ele>124.0</ele><time>2026-04-03T05:52:26.851Z</time></trkpt><trkpt lat="45.4861924" lon="9.2416203"><ele>124.0</ele><time>2026-04-03T05:52:27.851Z</time></trkpt><trkpt lat="45.4862081" lon="9.2417821"><ele>124.0</ele><time>2026-04-03T05:52:28.85Z</time></trkpt><trkpt lat="45.4862226" lon="9.2419275"><ele>124.0</ele><time>2026-04-03T05:52:29.851Z</time></trkpt><trkpt lat="45.4862356" lon="9.2420537"><ele>124.0</ele><time>2026-04-03T05:52:30.85Z</time></trkpt><trkpt lat="45.4862455" lon="9.2421696"><ele>124.0</ele><time>2026-04-03T05:52:31.851Z</time></trkpt><trkpt lat="45.4862502" lon="9.2422735"><ele>123.6</ele><time>2026-04-03T05:52:32.851Z</time></trkpt><trkpt lat="45.4862544" lon="9.2424131"><ele>123.2</ele><time>2026-04-03T05:52:34.851Z</time></trkpt><trkpt lat="45.4862614" lon="9.2425175"><ele>122.79999999999998</ele><time>2026-04-03T05:52:58.85Z</time></trkpt><trkpt lat="45.4862798" lon="9.2426802"><ele>122.39999999999999</ele><time>2026-04-03T05:53:00.851Z</time></trkpt><trkpt lat="45.4862938" lon="9.2427981"><ele>122.0</ele><time>2026-04-03T05:53:01.851Z</time></trkpt><trkpt lat="45.4863119" lon="9.2429379"><ele>123.25</ele><time>2026-04-03T05:53:02.851Z</time></trkpt><trkpt lat="45.4863393" lon="9.2431121"><ele>124.5</ele><time>2026-04-03T05:53:03.851Z</time></trkpt><trkpt lat="45.4863721" lon="9.243324"><ele>125.75</ele><time>2026-04-03T05:53:04.851Z</time></trkpt><trkpt lat="45.4864015" lon="9.243549"><ele>127.0</ele><time>2026-04-03T05:53:05.85Z</time></trkpt><trkpt lat="45.4864236" lon="9.2437866"><ele>126.0</ele><time>2026-04-03T05:53:06.851Z</time></trkpt><trkpt lat="45.4864454" lon="9.2440255"><ele>125.0</ele><time>2026-04-03T05:53:07.851Z</time></trkpt><trkpt lat="45.4864665" lon="9.2442611"><ele>124.0</ele><time>2026-04-03T05:53:08.851Z</time></trkpt><trkpt lat="45.4864877" lon="9.2444869"><ele>124.0</ele><time>2026-04-03T05:53:09.851Z</time></trkpt><trkpt lat="45.4865093" lon="9.244709"><ele>124.0</ele><time>2026-04-03T05:53:10.851Z</time></trkpt><trkpt lat="45.4865298" lon="9.2449224"><ele>124.0</ele><time>2026-04-03T05:53:11.851Z</time></trkpt><trkpt lat="45.4865524" lon="9.2451469"><ele>124.0</ele><time>2026-04-03T05:53:12.851Z</time></trkpt><trkpt lat="45.486572" lon="9.2453556"><ele>124.0</ele><time>2026-04-03T05:53:13.851Z</time></trkpt><trkpt lat="45.4865889" lon="9.245553"><ele>124.0</ele><time>2026-04-03T05:53:14.851Z</time></trkpt><trkpt lat="45.4866049" lon="9.2457452"><ele>124.0</ele><time>2026-04-03T05:53:15.85Z</time></trkpt><trkpt lat="45.4866209" lon="9.2459292"><ele>123.83333333333334</ele><time>2026-04-03T05:53:16.851Z</time></trkpt><trkpt lat="45.4866343" lon="9.2460914"><ele>123.66666666666667</ele><time>2026-04-03T05:53:17.851Z</time></trkpt><trkpt lat="45.4866447" lon="9.2462185"><ele>123.5</ele><time>2026-04-03T05:53:18.85Z</time></trkpt><trkpt lat="45.4866562" lon="9.2463238"><ele>123.33333333333334</ele><time>2026-04-03T05:53:19.851Z</time></trkpt><trkpt lat="45.4866661" lon="9.2464332"><ele>123.16666666666667</ele><time>2026-04-03T05:53:20.85Z</time></trkpt><trkpt lat="45.4866761" lon="9.2465399"><ele>123.0</ele><time>2026-04-03T05:53:21.85Z</time></trkpt><trkpt lat="45.4866867" lon="9.2466474"><ele>122.80000000000001</ele><time>2026-04-03T05:53:22.851Z</time></trkpt><trkpt lat="45.4866967" lon="9.2467576"><ele>122.60000000000001</ele><time>2026-04-03T05:53:23.851Z</time></trkpt><trkpt lat="45.4867072" lon="9.24687"><ele>122.39999999999999</ele><time>2026-04-03T05:53:24.851Z</time></trkpt><trkpt lat="45.4867191" lon="9.2469945"><ele>122.19999999999999</ele><time>2026-04-03T05:53:25.851Z</time></trkpt><trkpt lat="45.4867329" lon="9.2471557"><ele>122.0</ele><time>2026-04-03T05:53:26.85Z</time></trkpt><trkpt lat="45.4867415" lon="9.2473678"><ele>121.33333333333333</ele><time>2026-04-03T05:53:27.85Z</time></trkpt><trkpt lat="45.4867459" lon="9.2476262"><ele>120.66666666666666</ele><time>2026-04-03T05:53:28.85Z</time></trkpt><trkpt lat="45.4867615" lon="9.2479049"><ele>120.0</ele><time>2026-04-03T05:53:29.851Z</time></trkpt><trkpt lat="45.4867894" lon="9.2482"><ele>119.66666666666666</ele><time>2026-04-03T05:53:30.85Z</time></trkpt><trkpt lat="45.4868171" lon="9.2484784"><ele>119.33333333333333</ele><time>2026-04-03T05:53:31.851Z</time></trkpt><trkpt lat="45.4868444" lon="9.2487381"><ele>119.0</ele><time>2026-04-03T05:53:32.85Z</time></trkpt><trkpt lat="45.4868674" lon="9.2489891"><ele>118.33333333333333</ele><time>2026-04-03T05:53:33.851Z</time></trkpt><trkpt lat="45.4868872" lon="9.2492375"><ele>117.66666666666666</ele><time>2026-04-03T05:53:34.851Z</time></trkpt><trkpt lat="45.4869025" lon="9.2494724"><ele>117.0</ele><time>2026-04-03T05:53:35.851Z</time></trkpt><trkpt lat="45.4869177" lon="9.2497138"><ele>117.0</ele><time>2026-04-03T05:53:36.85Z</time></trkpt><trkpt lat="45.4869308" lon="9.2499413"><ele>117.0</ele><time>2026-04-03T05:53:37.85Z</time></trkpt><trkpt lat="45.4869333" lon="9.2501619"><ele>117.0</ele><time>2026-04-03T05:53:38.851Z</time></trkpt><trkpt lat="45.4869108" lon="9.2503706"><ele>117.0</ele><time>2026-04-03T05:53:39.851Z</time></trkpt><trkpt lat="45.4868592" lon="9.2505616"><ele>117.0</ele><time>2026-04-03T05:53:40.851Z</time></trkpt><trkpt lat="45.4867804" lon="9.2507193"><ele>117.0</ele><time>2026-04-03T05:53:41.85Z</time></trkpt><trkpt lat="45.4866828" lon="9.2508435"><ele>117.0</ele><time>2026-04-03T05:53:42.851Z</time></trkpt><trkpt lat="45.4865631" lon="9.2509335"><ele>116.66666666666666</ele><time>2026-04-03T05:53:43.851Z</time></trkpt><trkpt lat="45.4864242" lon="9.2509816"><ele>116.33333333333333</ele><time>2026-04-03T05:53:44.851Z</time></trkpt><trkpt lat="45.4862772" lon="9.2509901"><ele>116.0</ele><time>2026-04-03T05:53:45.85Z</time></trkpt><trkpt lat="45.4861156" lon="9.2509639"><ele>116.66666666666666</ele><time>2026-04-03T05:53:46.85Z</time></trkpt><trkpt lat="45.4859521" lon="9.2509271"><ele>117.33333333333334</ele><time>2026-04-03T05:53:47.851Z</time></trkpt><trkpt lat="45.4857751" lon="9.250918"><ele>118.0</ele><time>2026-04-03T05:53:48.851Z</time></trkpt><trkpt lat="45.4856131" lon="9.250891"><ele>118.0</ele><time>2026-04-03T05:53:49.85Z</time></trkpt><trkpt lat="45.4854617" lon="9.2508691"><ele>118.0</ele><time>2026-04-03T05:53:50.85Z</time></trkpt><trkpt lat="45.4853097" lon="9.2508502"><ele>118.0</ele><time>2026-04-03T05:53:51.85Z</time></trkpt><trkpt lat="45.4851586" lon="9.2508323"><ele>118.0</ele><time>2026-04-03T05:53:52.851Z</time></trkpt><trkpt lat="45.4850145" lon="9.2508167"><ele>118.0</ele><time>2026-04-03T05:53:53.85Z</time></trkpt><trkpt lat="45.4848798" lon="9.2508034"><ele>118.0</ele><time>2026-04-03T05:53:54.851Z</time></trkpt><trkpt lat="45.4847382" lon="9.2507906"><ele>118.0</ele><time>2026-04-03T05:53:55.851Z</time></trkpt><trkpt lat="45.4846002" lon="9.2507798"><ele>118.5</ele><time>2026-04-03T05:53:56.851Z</time></trkpt><trkpt lat="45.4844625" lon="9.2507724"><ele>119.0</ele><time>2026-04-03T05:53:57.851Z</time></trkpt><trkpt lat="45.4843216" lon="9.2507723"><ele>119.5</ele><time>2026-04-03T05:53:58.851Z</time></trkpt><trkpt lat="45.4841817" lon="9.2507869"><ele>120.0</ele><time>2026-04-03T05:53:59.85Z</time></trkpt><trkpt lat="45.4840402" lon="9.2508162"><ele>120.0</ele><time>2026-04-03T05:54:00.85Z</time></trkpt><trkpt lat="45.4839135" lon="9.2508457"><ele>120.0</ele><time>2026-04-03T05:54:01.851Z</time></trkpt><trkpt lat="45.4837955" lon="9.2508698"><ele>120.0</ele><time>2026-04-03T05:54:02.851Z</time></trkpt><trkpt lat="45.4836852" lon="9.2508884"><ele>120.0</ele><time>2026-04-03T05:54:03.851Z</time></trkpt><trkpt lat="45.4835795" lon="9.250904"><ele>119.5</ele><time>2026-04-03T05:54:04.851Z</time></trkpt><trkpt lat="45.4834769" lon="9.2509209"><ele>119.0</ele><time>2026-04-03T05:54:05.85Z</time></trkpt><trkpt lat="45.483374" lon="9.2509417"><ele>118.5</ele><time>2026-04-03T05:54:06.851Z</time></trkpt><trkpt lat="45.4832621" lon="9.2509716"><ele>118.0</ele><time>2026-04-03T05:54:07.851Z</time></trkpt><trkpt lat="45.4831359" lon="9.2510135"><ele>118.0</ele><time>2026-04-03T05:54:08.851Z</time></trkpt><trkpt lat="45.4830007" lon="9.2510623"><ele>118.0</ele><time>2026-04-03T05:54:09.85Z</time></trkpt><trkpt lat="45.4828591" lon="9.2511173"><ele>118.0</ele><time>2026-04-03T05:54:10.851Z</time></trkpt><trkpt lat="45.4826976" lon="9.251181"><ele>118.66666666666667</ele><time>2026-04-03T05:54:11.851Z</time></trkpt><trkpt lat="45.4825266" lon="9.251255"><ele>119.33333333333334</ele><time>2026-04-03T05:54:12.851Z</time></trkpt><trkpt lat="45.4823383" lon="9.2513437"><ele>120.0</ele><time>2026-04-03T05:54:13.85Z</time></trkpt><trkpt lat="45.4821435" lon="9.2514351"><ele>120.33333333333334</ele><time>2026-04-03T05:54:14.851Z</time></trkpt><trkpt lat="45.4819343" lon="9.2515253"><ele>120.66666666666667</ele><time>2026-04-03T05:54:15.85Z</time></trkpt><trkpt lat="45.4817152" lon="9.2516146"><ele>121.0</ele><time>2026-04-03T05:54:16.851Z</time></trkpt><trkpt lat="45.4815052" lon="9.2517024"><ele>121.0</ele><time>2026-04-03T05:54:17.85Z</time></trkpt><trkpt lat="45.4813" lon="9.2517947"><ele>121.0</ele><time>2026-04-03T05:54:18.85Z</time></trkpt><trkpt lat="45.4810868" lon="9.2518945"><ele>121.0</ele><time>2026-04-03T05:54:19.85Z</time></trkpt><trkpt lat="45.4808864" lon="9.2519885"><ele>121.0</ele><time>2026-04-03T05:54:20.851Z</time></trkpt><trkpt lat="45.4806934" lon="9.2520781"><ele>121.0</ele><time>2026-04-03T05:54:21.851Z</time></trkpt><trkpt lat="45.4805086" lon="9.2521631"><ele>121.0</ele><time>2026-04-03T05:54:22.851Z</time></trkpt><trkpt lat="45.4803321" lon="9.2522437"><ele>119.66666666666667</ele><time>2026-04-03T05:54:23.851Z</time></trkpt><trkpt lat="45.4801504" lon="9.2523274"><ele>118.33333333333334</ele><time>2026-04-03T05:54:24.85Z</time></trkpt><trkpt lat="45.4799732" lon="9.2524102"><ele>117.0</ele><time>2026-04-03T05:54:25.851Z</time></trkpt><trkpt lat="45.4797998" lon="9.2524915"><ele>117.0</ele><time>2026-04-03T05:54:26.85Z</time></trkpt><trkpt lat="45.4796131" lon="9.2525779"><ele>117.0</ele><time>2026-04-03T05:54:27.851Z</time></trkpt><trkpt lat="45.479427" lon="9.2526643"><ele>117.0</ele><time>2026-04-03T05:54:28.85Z</time></trkpt><trkpt lat="45.4792345" lon="9.2527527"><ele>116.66666666666666</ele><time>2026-04-03T05:54:29.851Z</time></trkpt><trkpt lat="45.4790466" lon="9.2528374"><ele>116.33333333333333</ele><time>2026-04-03T05:54:30.851Z</time></trkpt><trkpt lat="45.4788537" lon="9.2529233"><ele>116.0</ele><time>2026-04-03T05:54:31.851Z</time></trkpt><trkpt lat="45.4786553" lon="9.2530096"><ele>116.0</ele><time>2026-04-03T05:54:32.851Z</time></trkpt><trkpt lat="45.4784679" lon="9.2530909"><ele>116.0</ele><time>2026-04-03T05:54:33.85Z</time></trkpt><trkpt lat="45.4782882" lon="9.2531712"><ele>116.0</ele><time>2026-04-03T05:54:34.851Z</time></trkpt><trkpt lat="45.4781009" lon="9.2532536"><ele>115.33333333333333</ele><time>2026-04-03T05:54:35.851Z</time></trkpt><trkpt lat="45.4779206" lon="9.2533271"><ele>114.66666666666666</ele><time>2026-04-03T05:54:36.851Z</time></trkpt><trkpt lat="45.4777362" lon="9.2533939"><ele>114.0</ele><time>2026-04-03T05:54:37.85Z</time></trkpt><trkpt lat="45.4775528" lon="9.2534501"><ele>114.0</ele><time>2026-04-03T05:54:38.851Z</time></trkpt><trkpt lat="45.4773699" lon="9.2534944"><ele>114.0</ele><time>2026-04-03T05:54:39.851Z</time></trkpt><trkpt lat="45.4771742" lon="9.2535326"><ele>114.0</ele><time>2026-04-03T05:54:40.851Z</time></trkpt><trkpt lat="45.4769835" lon="9.2535608"><ele>115.0</ele><time>2026-04-03T05:54:41.851Z</time></trkpt><trkpt lat="45.4767934" lon="9.25358"><ele>116.0</ele><time>2026-04-03T05:54:42.851Z</time></trkpt><trkpt lat="45.4765914" lon="9.2535909"><ele>117.0</ele><time>2026-04-03T05:54:43.851Z</time></trkpt><trkpt lat="45.4763944" lon="9.2535911"><ele>117.0</ele><time>2026-04-03T05:54:44.851Z</time></trkpt><trkpt lat="45.4761982" lon="9.2535818"><ele>117.0</ele><time>2026-04-03T05:54:45.85Z</time></trkpt><trkpt lat="45.4760088" lon="9.2535624"><ele>117.0</ele><time>2026-04-03T05:54:46.85Z</time></trkpt><trkpt lat="45.4758127" lon="9.2535309"><ele>117.0</ele><time>2026-04-03T05:54:47.851Z</time></trkpt><trkpt lat="45.4756097" lon="9.2534871"><ele>117.0</ele><time>2026-04-03T05:54:48.85Z</time></trkpt><trkpt lat="45.4754146" lon="9.2534359"><ele>117.0</ele><time>2026-04-03T05:54:49.851Z</time></trkpt><trkpt lat="45.4752287" lon="9.2533822"><ele>118.0</ele><time>2026-04-03T05:54:50.85Z</time></trkpt><trkpt lat="45.4750349" lon="9.2533205"><ele>119.0</ele><time>2026-04-03T05:54:51.851Z</time></trkpt><trkpt lat="45.4748502" lon="9.2532594"><ele>120.0</ele><time>2026-04-03T05:54:52.851Z</time></trkpt><trkpt lat="45.4746686" lon="9.2531983"><ele>120.0</ele><time>2026-04-03T05:54:53.851Z</time></trkpt><trkpt lat="45.4744929" lon="9.2531388"><ele>120.0</ele><time>2026-04-03T05:54:54.851Z</time></trkpt><trkpt lat="45.4743116" lon="9.2530789"><ele>120.0</ele><time>2026-04-03T05:54:55.85Z</time></trkpt><trkpt lat="45.4741254" lon="9.2530176"><ele>119.66666666666666</ele><time>2026-04-03T05:54:56.85Z</time></trkpt><trkpt lat="45.4739455" lon="9.2529594"><ele>119.33333333333333</ele><time>2026-04-03T05:54:57.851Z</time></trkpt><trkpt lat="45.4737737" lon="9.2529013"><ele>119.0</ele><time>2026-04-03T05:54:58.851Z</time></trkpt><trkpt lat="45.473592" lon="9.2528408"><ele>119.0</ele><time>2026-04-03T05:54:59.851Z</time></trkpt><trkpt lat="45.4734157" lon="9.2527804"><ele>119.0</ele><time>2026-04-03T05:55:00.851Z</time></trkpt><trkpt lat="45.4732397" lon="9.2527209"><ele>119.0</ele><time>2026-04-03T05:55:01.851Z</time></trkpt><trkpt lat="45.4730689" lon="9.2526622"><ele>119.66666666666666</ele><time>2026-04-03T05:55:02.851Z</time></trkpt><trkpt lat="45.472889" lon="9.2526022"><ele>120.33333333333334</ele><time>2026-04-03T05:55:03.85Z</time></trkpt><trkpt lat="45.4727001" lon="9.2525427"><ele>121.0</ele><time>2026-04-03T05:55:04.85Z</time></trkpt><trkpt lat="45.4725121" lon="9.2524894"><ele>121.0</ele><time>2026-04-03T05:55:05.85Z</time></trkpt><trkpt lat="45.4723275" lon="9.252442"><ele>121.0</ele><time>2026-04-03T05:55:06.851Z</time></trkpt><trkpt lat="45.4721279" lon="9.252393"><ele>121.0</ele><time>2026-04-03T05:55:07.85Z</time></trkpt><trkpt lat="45.4719312" lon="9.2523466"><ele>119.66666666666667</ele><time>2026-04-03T05:55:08.851Z</time></trkpt><trkpt lat="45.4717334" lon="9.252304"><ele>118.33333333333334</ele><time>2026-04-03T05:55:09.85Z</time></trkpt><trkpt lat="45.4715421" lon="9.2522652"><ele>117.0</ele><time>2026-04-03T05:55:10.851Z</time></trkpt><trkpt lat="45.471351" lon="9.2522231"><ele>115.66666666666666</ele><time>2026-04-03T05:55:11.851Z</time></trkpt><trkpt lat="45.4711474" lon="9.2521702"><ele>114.33333333333333</ele><time>2026-04-03T05:55:12.85Z</time></trkpt><trkpt lat="45.4709351" lon="9.2521233"><ele>113.0</ele><time>2026-04-03T05:55:13.851Z</time></trkpt><trkpt lat="45.4707197" lon="9.2520908"><ele>113.0</ele><time>2026-04-03T05:55:14.851Z</time></trkpt><trkpt lat="45.470488" lon="9.2520665"><ele>113.0</ele><time>2026-04-03T05:55:15.851Z</time></trkpt><trkpt lat="45.4702657" lon="9.252048"><ele>113.33333333333333</ele><time>2026-04-03T05:55:16.851Z</time></trkpt><trkpt lat="45.4700486" lon="9.2520351"><ele>113.66666666666666</ele><time>2026-04-03T05:55:17.851Z</time></trkpt><trkpt lat="45.4698441" lon="9.2520246"><ele>114.0</ele><time>2026-04-03T05:55:18.851Z</time></trkpt><trkpt lat="45.4696413" lon="9.2520143"><ele>113.33333333333334</ele><time>2026-04-03T05:55:19.85Z</time></trkpt><trkpt lat="45.4694403" lon="9.2520078"><ele>112.66666666666667</ele><time>2026-04-03T05:55:20.85Z</time></trkpt><trkpt lat="45.4692558" lon="9.2520068"><ele>112.0</ele><time>2026-04-03T05:55:21.85Z</time></trkpt><trkpt lat="45.4690919" lon="9.252006"><ele>112.0</ele><time>2026-04-03T05:55:22.85Z</time></trkpt><trkpt lat="45.4689405" lon="9.2520024"><ele>112.0</ele><time>2026-04-03T05:55:23.851Z</time></trkpt><trkpt lat="45.468814" lon="9.2519999"><ele>112.0</ele><time>2026-04-03T05:55:24.85Z</time></trkpt><trkpt lat="45.4687003" lon="9.2520007"><ele>112.0</ele><time>2026-04-03T05:55:25.85Z</time></trkpt><trkpt lat="45.4685877" lon="9.2520043"><ele>112.75</ele><time>2026-04-03T05:55:26.85Z</time></trkpt><trkpt lat="45.4684648" lon="9.2520102"><ele>113.5</ele><time>2026-04-03T05:55:27.85Z</time></trkpt><trkpt lat="45.468334" lon="9.2520173"><ele>114.25</ele><time>2026-04-03T05:55:28.85Z</time></trkpt><trkpt lat="45.4682022" lon="9.252017"><ele>115.0</ele><time>2026-04-03T05:55:29.851Z</time></trkpt><trkpt lat="45.4680701" lon="9.2520165"><ele>115.0</ele><time>2026-04-03T05:55:30.851Z</time></trkpt><trkpt lat="45.4679207" lon="9.2520203"><ele>115.0</ele><time>2026-04-03T05:55:31.85Z</time></trkpt><trkpt lat="45.4677652" lon="9.2520248"><ele>115.0</ele><time>2026-04-03T05:55:32.85Z</time></trkpt><trkpt lat="45.4676024" lon="9.2520248"><ele>115.0</ele><time>2026-04-03T05:55:33.851Z</time></trkpt><trkpt lat="45.4674321" lon="9.2520172"><ele>115.0</ele><time>2026-04-03T05:55:34.851Z</time></trkpt><trkpt lat="45.4672273" lon="9.2519986"><ele>115.0</ele><time>2026-04-03T05:55:35.851Z</time></trkpt><trkpt lat="45.4670028" lon="9.2519693"><ele>115.0</ele><time>2026-04-03T05:55:36.851Z</time></trkpt><trkpt lat="45.4667791" lon="9.2519293"><ele>115.0</ele><time>2026-04-03T05:55:37.851Z</time></trkpt><trkpt lat="45.466564" lon="9.2518829"><ele>115.0</ele><time>2026-04-03T05:55:38.851Z</time></trkpt><trkpt lat="45.4663426" lon="9.2518305"><ele>114.66666666666667</ele><time>2026-04-03T05:55:39.85Z</time></trkpt><trkpt lat="45.4661381" lon="9.2517794"><ele>114.33333333333334</ele><time>2026-04-03T05:55:40.85Z</time></trkpt><trkpt lat="45.4659395" lon="9.2517201"><ele>114.0</ele><time>2026-04-03T05:55:41.851Z</time></trkpt><trkpt lat="45.4657592" lon="9.2516512"><ele>114.0</ele><time>2026-04-03T05:55:42.85Z</time></trkpt><trkpt lat="45.465586" lon="9.2515761"><ele>114.0</ele><time>2026-04-03T05:55:43.85Z</time></trkpt><trkpt lat="45.4654208" lon="9.2514996"><ele>114.0</ele><time>2026-04-03T05:55:44.85Z</time></trkpt><trkpt lat="45.4652651" lon="9.2514254"><ele>113.66666666666666</ele><time>2026-04-03T05:55:45.85Z</time></trkpt><trkpt lat="45.4651152" lon="9.2513562"><ele>113.33333333333333</ele><time>2026-04-03T05:55:46.851Z</time></trkpt><trkpt lat="45.46495" lon="9.2512898"><ele>113.0</ele><time>2026-04-03T05:55:47.851Z</time></trkpt><trkpt lat="45.4647853" lon="9.2512351"><ele>113.0</ele><time>2026-04-03T05:55:48.85Z</time></trkpt><trkpt lat="45.4646168" lon="9.2511876"><ele>113.0</ele><time>2026-04-03T05:55:49.85Z</time></trkpt><trkpt lat="45.4644519" lon="9.2511485"><ele>113.0</ele><time>2026-04-03T05:55:50.851Z</time></trkpt><trkpt lat="45.4642806" lon="9.2511132"><ele>113.66666666666666</ele><time>2026-04-03T05:55:51.851Z</time></trkpt><trkpt lat="45.4641072" lon="9.2510826"><ele>114.33333333333334</ele><time>2026-04-03T05:55:52.851Z</time></trkpt><trkpt lat="45.4639465" lon="9.2510591"><ele>115.0</ele><time>2026-04-03T05:55:53.851Z</time></trkpt><trkpt lat="45.4637982" lon="9.2510409"><ele>115.0</ele><time>2026-04-03T05:55:54.85Z</time></trkpt><trkpt lat="45.4636535" lon="9.2510261"><ele>115.0</ele><time>2026-04-03T05:55:55.851Z</time></trkpt><trkpt lat="45.4635259" lon="9.2510138"><ele>115.0</ele><time>2026-04-03T05:55:56.851Z</time></trkpt><trkpt lat="45.4634086" lon="9.2510087"><ele>115.0</ele><time>2026-04-03T05:55:57.851Z</time></trkpt><trkpt lat="45.463305" lon="9.2510088"><ele>115.0</ele><time>2026-04-03T05:55:58.85Z</time></trkpt><trkpt lat="45.4632049" lon="9.2510121"><ele>115.0</ele><time>2026-04-03T05:55:59.85Z</time></trkpt><trkpt lat="45.4631047" lon="9.2510171"><ele>115.0</ele><time>2026-04-03T05:56:00.85Z</time></trkpt><trkpt lat="45.4630064" lon="9.2510241"><ele>115.0</ele><time>2026-04-03T05:56:01.851Z</time></trkpt><trkpt lat="45.4629098" lon="9.2510312"><ele>115.0</ele><time>2026-04-03T05:56:02.851Z</time></trkpt><trkpt lat="45.4628049" lon="9.251039"><ele>113.6</ele><time>2026-04-03T05:56:03.85Z</time></trkpt><trkpt lat="45.4627021" lon="9.2510446"><ele>112.2</ele><time>2026-04-03T05:56:04.85Z</time></trkpt><trkpt lat="45.4625974" lon="9.2510482"><ele>110.80000000000001</ele><time>2026-04-03T05:56:05.851Z</time></trkpt><trkpt lat="45.4624919" lon="9.2510522"><ele>109.4</ele><time>2026-04-03T05:56:06.85Z</time></trkpt><trkpt lat="45.4623769" lon="9.2510577"><ele>108.0</ele><time>2026-04-03T05:56:07.85Z</time></trkpt><trkpt lat="45.4622497" lon="9.2510659"><ele>108.0</ele><time>2026-04-03T05:56:08.85Z</time></trkpt><trkpt lat="45.4621201" lon="9.2510762"><ele>108.0</ele><time>2026-04-03T05:56:09.851Z</time></trkpt><trkpt lat="45.4619878" lon="9.2510898"><ele>108.0</ele><time>2026-04-03T05:56:10.851Z</time></trkpt><trkpt lat="45.4618416" lon="9.2511075"><ele>108.0</ele><time>2026-04-03T05:56:11.85Z</time></trkpt><trkpt lat="45.4616963" lon="9.2511184"><ele>110.66666666666666</ele><time>2026-04-03T05:56:12.85Z</time></trkpt><trkpt lat="45.4615464" lon="9.2511333"><ele>113.33333333333333</ele><time>2026-04-03T05:56:13.851Z</time></trkpt><trkpt lat="45.4613998" lon="9.2511443"><ele>116.0</ele><time>2026-04-03T05:56:14.85Z</time></trkpt><trkpt lat="45.4612471" lon="9.2511564"><ele>116.33333333333333</ele><time>2026-04-03T05:56:15.851Z</time></trkpt><trkpt lat="45.4610881" lon="9.2511699"><ele>116.66666666666666</ele><time>2026-04-03T05:56:16.851Z</time></trkpt><trkpt lat="45.460933" lon="9.2511834"><ele>117.0</ele><time>2026-04-03T05:56:17.85Z</time></trkpt><trkpt lat="45.4607814" lon="9.2511951"><ele>117.0</ele><time>2026-04-03T05:56:18.85Z</time></trkpt><trkpt lat="45.4606182" lon="9.251208"><ele>117.0</ele><time>2026-04-03T05:56:19.851Z</time></trkpt><trkpt lat="45.4604598" lon="9.2512198"><ele>117.0</ele><time>2026-04-03T05:56:20.851Z</time></trkpt><trkpt lat="45.4603052" lon="9.2512334"><ele>116.0</ele><time>2026-04-03T05:56:21.851Z</time></trkpt><trkpt lat="45.4601598" lon="9.251249"><ele>115.0</ele><time>2026-04-03T05:56:22.851Z</time></trkpt><trkpt lat="45.4600115" lon="9.251267"><ele>114.0</ele><time>2026-04-03T05:56:23.85Z</time></trkpt><trkpt lat="45.4598577" lon="9.2512864"><ele>113.0</ele><time>2026-04-03T05:56:24.851Z</time></trkpt><trkpt lat="45.4597083" lon="9.2513079"><ele>112.66666666666666</ele><time>2026-04-03T05:56:25.851Z</time></trkpt><trkpt lat="45.4595631" lon="9.2513325"><ele>112.33333333333334</ele><time>2026-04-03T05:56:26.851Z</time></trkpt><trkpt lat="45.4594081" lon="9.2513651"><ele>112.0</ele><time>2026-04-03T05:56:27.851Z</time></trkpt><trkpt lat="45.4592598" lon="9.2514013"><ele>112.0</ele><time>2026-04-03T05:56:28.851Z</time></trkpt><trkpt lat="45.4591135" lon="9.2514407"><ele>112.0</ele><time>2026-04-03T05:56:29.851Z</time></trkpt><trkpt lat="45.4589766" lon="9.2514795"><ele>112.0</ele><time>2026-04-03T05:56:30.85Z</time></trkpt><trkpt lat="45.4588396" lon="9.251519"><ele>112.0</ele><time>2026-04-03T05:56:31.851Z</time></trkpt><trkpt lat="45.4587026" lon="9.2515619"><ele>112.5</ele><time>2026-04-03T05:56:32.85Z</time></trkpt><trkpt lat="45.4585702" lon="9.251605"><ele>113.0</ele><time>2026-04-03T05:56:33.851Z</time></trkpt><trkpt lat="45.4584362" lon="9.2516495"><ele>113.5</ele><time>2026-04-03T05:56:34.851Z</time></trkpt><trkpt lat="45.4582847" lon="9.2517063"><ele>114.0</ele><time>2026-04-03T05:56:35.851Z</time></trkpt><trkpt lat="45.4581292" lon="9.2517771"><ele>114.0</ele><time>2026-04-03T05:56:36.851Z</time></trkpt><trkpt lat="45.4579696" lon="9.2518572"><ele>114.0</ele><time>2026-04-03T05:56:37.85Z</time></trkpt><trkpt lat="45.4578136" lon="9.2519329"><ele>114.0</ele><time>2026-04-03T05:56:38.851Z</time></trkpt><trkpt lat="45.4576522" lon="9.2520073"><ele>113.0</ele><time>2026-04-03T05:56:39.851Z</time></trkpt><trkpt lat="45.4574938" lon="9.2520876"><ele>112.0</ele><time>2026-04-03T05:56:40.851Z</time></trkpt><trkpt lat="45.457352" lon="9.2521668"><ele>111.0</ele><time>2026-04-03T05:56:41.85Z</time></trkpt><trkpt lat="45.4572248" lon="9.2522393"><ele>111.25</ele><time>2026-04-03T05:56:42.851Z</time></trkpt><trkpt lat="45.4570942" lon="9.2523121"><ele>111.5</ele><time>2026-04-03T05:56:43.851Z</time></trkpt><trkpt lat="45.4569716" lon="9.2523859"><ele>111.75</ele><time>2026-04-03T05:56:44.851Z</time></trkpt><trkpt lat="45.4568499" lon="9.2524744"><ele>112.0</ele><time>2026-04-03T05:56:45.85Z</time></trkpt><trkpt lat="45.4567259" lon="9.2525673"><ele>112.0</ele><time>2026-04-03T05:56:46.851Z</time></trkpt><trkpt lat="45.4565995" lon="9.2526549"><ele>112.0</ele><time>2026-04-03T05:56:47.851Z</time></trkpt><trkpt lat="45.4564758" lon="9.2527478"><ele>112.0</ele><time>2026-04-03T05:56:48.851Z</time></trkpt><trkpt lat="45.4563711" lon="9.2528331"><ele>112.0</ele><time>2026-04-03T05:56:49.851Z</time></trkpt><trkpt lat="45.4562812" lon="9.2529051"><ele>111.8</ele><time>2026-04-03T05:56:50.851Z</time></trkpt><trkpt lat="45.4561965" lon="9.2529715"><ele>111.6</ele><time>2026-04-03T05:56:51.85Z</time></trkpt><trkpt lat="45.456121" lon="9.25303"><ele>111.39999999999999</ele><time>2026-04-03T05:56:52.851Z</time></trkpt><trkpt lat="45.4560412" lon="9.2530882"><ele>111.19999999999999</ele><time>2026-04-03T05:56:53.85Z</time></trkpt><trkpt lat="45.4559567" lon="9.253152"><ele>111.0</ele><time>2026-04-03T05:56:54.851Z</time></trkpt><trkpt lat="45.4558603" lon="9.253231"><ele>111.0</ele><time>2026-04-03T05:56:55.851Z</time></trkpt><trkpt lat="45.4557489" lon="9.2533265"><ele>111.0</ele><time>2026-04-03T05:56:56.85Z</time></trkpt><trkpt lat="45.4556343" lon="9.2534255"><ele>111.0</ele><time>2026-04-03T05:56:57.851Z</time></trkpt><trkpt lat="45.4555168" lon="9.2535234"><ele>111.0</ele><time>2026-04-03T05:56:58.85Z</time></trkpt><trkpt lat="45.4553884" lon="9.2536271"><ele>110.75</ele><time>2026-04-03T05:56:59.851Z</time></trkpt><trkpt lat="45.4552623" lon="9.2537313"><ele>110.5</ele><time>2026-04-03T05:57:00.85Z</time></trkpt><trkpt lat="45.4551395" lon="9.2538372"><ele>110.25</ele><time>2026-04-03T05:57:01.851Z</time></trkpt><trkpt lat="45.455022" lon="9.2539363"><ele>110.0</ele><time>2026-04-03T05:57:02.851Z</time></trkpt><trkpt lat="45.4549032" lon="9.2540361"><ele>109.75</ele><time>2026-04-03T05:57:03.85Z</time></trkpt><trkpt lat="45.4547825" lon="9.2541361"><ele>109.5</ele><time>2026-04-03T05:57:04.851Z</time></trkpt><trkpt lat="45.4546668" lon="9.2542295"><ele>109.25</ele><time>2026-04-03T05:57:05.851Z</time></trkpt><trkpt lat="45.4545554" lon="9.2543176"><ele>109.0</ele><time>2026-04-03T05:57:06.85Z</time></trkpt><trkpt lat="45.4544366" lon="9.2544128"><ele>109.0</ele><time>2026-04-03T05:57:07.851Z</time></trkpt><trkpt lat="45.4543199" lon="9.2545081"><ele>109.0</ele><time>2026-04-03T05:57:08.851Z</time></trkpt><trkpt lat="45.4542055" lon="9.2546045"><ele>109.0</ele><time>2026-04-03T05:57:09.851Z</time></trkpt><trkpt lat="45.4540989" lon="9.2546982"><ele>109.0</ele><time>2026-04-03T05:57:10.851Z</time></trkpt><trkpt lat="45.453991" lon="9.2547958"><ele>109.25</ele><time>2026-04-03T05:57:11.85Z</time></trkpt><trkpt lat="45.4538766" lon="9.2548978"><ele>109.5</ele><time>2026-04-03T05:57:12.851Z</time></trkpt><trkpt lat="45.4537591" lon="9.2549997"><ele>109.75</ele><time>2026-04-03T05:57:13.85Z</time></trkpt><trkpt lat="45.4536411" lon="9.2551005"><ele>110.0</ele><time>2026-04-03T05:57:14.851Z</time></trkpt><trkpt lat="45.4535107" lon="9.2552117"><ele>110.0</ele><time>2026-04-03T05:57:15.851Z</time></trkpt><trkpt lat="45.4533825" lon="9.2553229"><ele>110.0</ele><time>2026-04-03T05:57:16.851Z</time></trkpt><trkpt lat="45.4532521" lon="9.2554337"><ele>110.0</ele><time>2026-04-03T05:57:17.851Z</time></trkpt><trkpt lat="45.4531204" lon="9.2555433"><ele>110.0</ele><time>2026-04-03T05:57:18.85Z</time></trkpt><trkpt lat="45.4529815" lon="9.2556581"><ele>110.0</ele><time>2026-04-03T05:57:19.851Z</time></trkpt><trkpt lat="45.452834" lon="9.2557807"><ele>110.0</ele><time>2026-04-03T05:57:20.851Z</time></trkpt><trkpt lat="45.4526852" lon="9.2559033"><ele>110.0</ele><time>2026-04-03T05:57:21.85Z</time></trkpt><trkpt lat="45.4525344" lon="9.2560249"><ele>110.0</ele><time>2026-04-03T05:57:22.85Z</time></trkpt><trkpt lat="45.4523715" lon="9.2561582"><ele>110.0</ele><time>2026-04-03T05:57:23.85Z</time></trkpt><trkpt lat="45.4522101" lon="9.2562908"><ele>110.0</ele><time>2026-04-03T05:57:24.851Z</time></trkpt><trkpt lat="45.4520458" lon="9.2564271"><ele>110.0</ele><time>2026-04-03T05:57:25.851Z</time></trkpt><trkpt lat="45.4518856" lon="9.2565612"><ele>110.0</ele><time>2026-04-03T05:57:26.851Z</time></trkpt><trkpt lat="45.451719" lon="9.2567005"><ele>110.33333333333333</ele><time>2026-04-03T05:57:27.851Z</time></trkpt><trkpt lat="45.4515457" lon="9.2568459"><ele>110.66666666666666</ele><time>2026-04-03T05:57:28.851Z</time></trkpt><trkpt lat="45.4513777" lon="9.2569854"><ele>111.0</ele><time>2026-04-03T05:57:29.851Z</time></trkpt><trkpt lat="45.4512114" lon="9.2571234"><ele>111.33333333333334</ele><time>2026-04-03T05:57:30.851Z</time></trkpt><trkpt lat="45.4510273" lon="9.2572779"><ele>111.66666666666667</ele><time>2026-04-03T05:57:31.851Z</time></trkpt><trkpt lat="45.4508404" lon="9.2574331"><ele>112.0</ele><time>2026-04-03T05:57:32.851Z</time></trkpt><trkpt lat="45.4506481" lon="9.2575906"><ele>112.33333333333334</ele><time>2026-04-03T05:57:33.851Z</time></trkpt><trkpt lat="45.4504576" lon="9.2577399"><ele>112.66666666666666</ele><time>2026-04-03T05:57:34.85Z</time></trkpt><trkpt lat="45.4502555" lon="9.2578869"><ele>113.0</ele><time>2026-04-03T05:57:35.851Z</time></trkpt><trkpt lat="45.4500412" lon="9.2580271"><ele>112.5</ele><time>2026-04-03T05:57:36.85Z</time></trkpt><trkpt lat="45.4498281" lon="9.258151"><ele>112.0</ele><time>2026-04-03T05:57:37.851Z</time></trkpt><trkpt lat="45.4496164" lon="9.2582621"><ele>110.5</ele><time>2026-04-03T05:57:38.85Z</time></trkpt><trkpt lat="45.4493853" lon="9.2583733"><ele>109.0</ele><time>2026-04-03T05:57:39.851Z</time></trkpt><trkpt lat="45.44915" lon="9.2584732"><ele>109.0</ele><time>2026-04-03T05:57:40.851Z</time></trkpt><trkpt lat="45.4489068" lon="9.2585618"><ele>109.0</ele><time>2026-04-03T05:57:41.851Z</time></trkpt><trkpt lat="45.4486614" lon="9.2586355"><ele>108.0</ele><time>2026-04-03T05:57:42.851Z</time></trkpt><trkpt lat="45.4484017" lon="9.2586971"><ele>107.0</ele><time>2026-04-03T05:57:43.85Z</time></trkpt><trkpt lat="45.4481347" lon="9.2587421"><ele>105.5</ele><time>2026-04-03T05:57:44.851Z</time></trkpt><trkpt lat="45.4478795" lon="9.2587675"><ele>104.0</ele><time>2026-04-03T05:57:45.851Z</time></trkpt><trkpt lat="45.4476346" lon="9.2587757"><ele>104.0</ele><time>2026-04-03T05:57:46.85Z</time></trkpt><trkpt lat="45.4473792" lon="9.2587702"><ele>104.0</ele><time>2026-04-03T05:57:47.851Z</time></trkpt><trkpt lat="45.4471377" lon="9.2587538"><ele>107.5</ele><time>2026-04-03T05:57:48.85Z</time></trkpt><trkpt lat="45.4469041" lon="9.2587276"><ele>111.0</ele><time>2026-04-03T05:57:49.85Z</time></trkpt><trkpt lat="45.4466627" lon="9.2586887"><ele>111.0</ele><time>2026-04-03T05:57:50.851Z</time></trkpt><trkpt lat="45.4464207" lon="9.2586362"><ele>111.0</ele><time>2026-04-03T05:57:51.851Z</time></trkpt><trkpt lat="45.4461719" lon="9.2585714"><ele>106.0</ele><time>2026-04-03T05:57:52.851Z</time></trkpt><trkpt lat="45.4459377" lon="9.2585072"><ele>101.0</ele><time>2026-04-03T05:57:53.85Z</time></trkpt><trkpt lat="45.4457013" lon="9.2584458"><ele>96.0</ele><time>2026-04-03T05:57:54.851Z</time></trkpt><trkpt lat="45.4454534" lon="9.25838"><ele>91.0</ele><time>2026-04-03T05:57:55.851Z</time></trkpt><trkpt lat="45.4452091" lon="9.2583105"><ele>91.0</ele><time>2026-04-03T05:57:56.85Z</time></trkpt><trkpt lat="45.4449559" lon="9.2582349"><ele>91.0</ele><time>2026-04-03T05:57:57.85Z</time></trkpt><trkpt lat="45.4447021" lon="9.2581596"><ele>92.5</ele><time>2026-04-03T05:57:58.851Z</time></trkpt><trkpt lat="45.4444421" lon="9.2580848"><ele>94.0</ele><time>2026-04-03T05:57:59.851Z</time></trkpt><trkpt lat="45.4441737" lon="9.2580078"><ele>94.0</ele><time>2026-04-03T05:58:00.851Z</time></trkpt><trkpt lat="45.4439197" lon="9.2579339"><ele>94.0</ele><time>2026-04-03T05:58:01.851Z</time></trkpt><trkpt lat="45.4436776" lon="9.2578638"><ele>95.5</ele><time>2026-04-03T05:58:02.851Z</time></trkpt><trkpt lat="45.443418" lon="9.25779"><ele>97.0</ele><time>2026-04-03T05:58:03.851Z</time></trkpt><trkpt lat="45.4431728" lon="9.2577208"><ele>100.5</ele><time>2026-04-03T05:58:04.851Z</time></trkpt><trkpt lat="45.4429269" lon="9.2576513"><ele>104.0</ele><time>2026-04-03T05:58:05.851Z</time></trkpt><trkpt lat="45.4426866" lon="9.2575842"><ele>104.0</ele><time>2026-04-03T05:58:06.85Z</time></trkpt><trkpt lat="45.4424413" lon="9.2575166"><ele>104.0</ele><time>2026-04-03T05:58:07.851Z</time></trkpt><trkpt lat="45.4421935" lon="9.2574489"><ele>101.0</ele><time>2026-04-03T05:58:08.851Z</time></trkpt><trkpt lat="45.4419564" lon="9.2573823"><ele>98.0</ele><time>2026-04-03T05:58:09.851Z</time></trkpt><trkpt lat="45.441731" lon="9.2573181"><ele>101.0</ele><time>2026-04-03T05:58:10.851Z</time></trkpt><trkpt lat="45.44149" lon="9.2572516"><ele>104.0</ele><time>2026-04-03T05:58:11.851Z</time></trkpt><trkpt lat="45.4412631" lon="9.2571875"><ele>104.0</ele><time>2026-04-03T05:58:12.851Z</time></trkpt><trkpt lat="45.4410457" lon="9.2571258"><ele>104.0</ele><time>2026-04-03T05:58:13.851Z</time></trkpt><trkpt lat="45.4408366" lon="9.2570656"><ele>104.0</ele><time>2026-04-03T05:58:14.851Z</time></trkpt><trkpt lat="45.4406228" lon="9.2570022"><ele>104.33333333333333</ele><time>2026-04-03T05:58:15.85Z</time></trkpt><trkpt lat="45.4403974" lon="9.2569356"><ele>104.66666666666666</ele><time>2026-04-03T05:58:16.851Z</time></trkpt><trkpt lat="45.4401861" lon="9.256875"><ele>105.0</ele><time>2026-04-03T05:58:17.851Z</time></trkpt><trkpt lat="45.4399681" lon="9.2568128"><ele>105.0</ele><time>2026-04-03T05:58:18.851Z</time></trkpt><trkpt lat="45.4397435" lon="9.2567484"><ele>105.0</ele><time>2026-04-03T05:58:19.851Z</time></trkpt><trkpt lat="45.4395343" lon="9.2566876"><ele>105.0</ele><time>2026-04-03T05:58:20.85Z</time></trkpt><trkpt lat="45.4393425" lon="9.2566312"><ele>104.66666666666666</ele><time>2026-04-03T05:58:21.851Z</time></trkpt><trkpt lat="45.4391516" lon="9.2565751"><ele>104.33333333333333</ele><time>2026-04-03T05:58:22.851Z</time></trkpt><trkpt lat="45.4389618" lon="9.2565208"><ele>104.0</ele><time>2026-04-03T05:58:23.851Z</time></trkpt><trkpt lat="45.438764" lon="9.2564656"><ele>104.33333333333333</ele><time>2026-04-03T05:58:24.851Z</time></trkpt><trkpt lat="45.4385787" lon="9.2564135"><ele>104.66666666666666</ele><time>2026-04-03T05:58:25.851Z</time></trkpt><trkpt lat="45.4383844" lon="9.256358"><ele>105.0</ele><time>2026-04-03T05:58:26.851Z</time></trkpt><trkpt lat="45.4381815" lon="9.256299"><ele>105.0</ele><time>2026-04-03T05:58:27.851Z</time></trkpt><trkpt lat="45.4379769" lon="9.2562399"><ele>105.0</ele><time>2026-04-03T05:58:28.851Z</time></trkpt><trkpt lat="45.4377669" lon="9.2561806"><ele>105.0</ele><time>2026-04-03T05:58:29.85Z</time></trkpt><trkpt lat="45.4375534" lon="9.2561211"><ele>105.5</ele><time>2026-04-03T05:58:30.851Z</time></trkpt><trkpt lat="45.4373318" lon="9.2560589"><ele>106.0</ele><time>2026-04-03T05:58:31.851Z</time></trkpt><trkpt lat="45.437097" lon="9.2559897"><ele>106.0</ele><time>2026-04-03T05:58:32.851Z</time></trkpt><trkpt lat="45.4368687" lon="9.2559162"><ele>106.0</ele><time>2026-04-03T05:58:33.851Z</time></trkpt><trkpt lat="45.4366455" lon="9.2558407"><ele>106.0</ele><time>2026-04-03T05:58:34.851Z</time></trkpt><trkpt lat="45.4364038" lon="9.2557516"><ele>106.0</ele><time>2026-04-03T05:58:35.851Z</time></trkpt><trkpt lat="45.4361702" lon="9.2556555"><ele>104.5</ele><time>2026-04-03T05:58:36.85Z</time></trkpt><trkpt lat="45.435928" lon="9.2555462"><ele>103.0</ele><time>2026-04-03T05:58:37.851Z</time></trkpt><trkpt lat="45.4356898" lon="9.2554318"><ele>104.5</ele><time>2026-04-03T05:58:38.851Z</time></trkpt><trkpt lat="45.435439" lon="9.2553037"><ele>106.0</ele><time>2026-04-03T05:58:39.851Z</time></trkpt><trkpt lat="45.4351882" lon="9.2551651"><ele>106.0</ele><time>2026-04-03T05:58:40.851Z</time></trkpt><trkpt lat="45.4349426" lon="9.2550194"><ele>106.0</ele><time>2026-04-03T05:58:41.851Z</time></trkpt><trkpt lat="45.434705" lon="9.2548705"><ele>106.5</ele><time>2026-04-03T05:58:42.851Z</time></trkpt><trkpt lat="45.4344554" lon="9.2547053"><ele>107.0</ele><time>2026-04-03T05:58:43.85Z</time></trkpt><trkpt lat="45.4342143" lon="9.2545352"><ele>107.0</ele><time>2026-04-03T05:58:44.851Z</time></trkpt><trkpt lat="45.4339812" lon="9.2543619"><ele>107.0</ele><time>2026-04-03T05:58:45.85Z</time></trkpt><trkpt lat="45.4337425" lon="9.2541743"><ele>107.0</ele><time>2026-04-03T05:58:46.851Z</time></trkpt><trkpt lat="45.4335047" lon="9.253979"><ele>107.0</ele><time>2026-04-03T05:58:47.85Z</time></trkpt><trkpt lat="45.4332612" lon="9.2537668"><ele>107.0</ele><time>2026-04-03T05:58:48.85Z</time></trkpt><trkpt lat="45.4330358" lon="9.25356"><ele>107.0</ele><time>2026-04-03T05:58:49.851Z</time></trkpt><trkpt lat="45.4328075" lon="9.2533384"><ele>104.5</ele><time>2026-04-03T05:58:50.851Z</time></trkpt><trkpt lat="45.4325766" lon="9.2531032"><ele>102.0</ele><time>2026-04-03T05:58:51.85Z</time></trkpt><trkpt lat="45.4323591" lon="9.2528689"><ele>102.0</ele><time>2026-04-03T05:58:52.851Z</time></trkpt><trkpt lat="45.4321534" lon="9.2526354"><ele>102.0</ele><time>2026-04-03T05:58:53.851Z</time></trkpt><trkpt lat="45.4319456" lon="9.2523868"><ele>103.5</ele><time>2026-04-03T05:58:54.851Z</time></trkpt><trkpt lat="45.4317418" lon="9.2521315"><ele>105.0</ele><time>2026-04-03T05:58:55.85Z</time></trkpt><trkpt lat="45.4315362" lon="9.2518616"><ele>105.0</ele><time>2026-04-03T05:58:56.851Z</time></trkpt><trkpt lat="45.4313471" lon="9.2516025"><ele>105.0</ele><time>2026-04-03T05:58:57.851Z</time></trkpt><trkpt lat="45.4311555" lon="9.2513301"><ele>105.5</ele><time>2026-04-03T05:58:58.85Z</time></trkpt><trkpt lat="45.4309605" lon="9.2510452"><ele>106.0</ele><time>2026-04-03T05:58:59.85Z</time></trkpt><trkpt lat="45.4307735" lon="9.2507674"><ele>106.5</ele><time>2026-04-03T05:59:00.851Z</time></trkpt><trkpt lat="45.430592" lon="9.2504974"><ele>107.0</ele><time>2026-04-03T05:59:01.851Z</time></trkpt><trkpt lat="45.4304048" lon="9.2502203"><ele>107.0</ele><time>2026-04-03T05:59:02.85Z</time></trkpt><trkpt lat="45.4302189" lon="9.2499438"><ele>107.0</ele><time>2026-04-03T05:59:03.851Z</time></trkpt><trkpt lat="45.4300298" lon="9.2496566"><ele>107.0</ele><time>2026-04-03T05:59:04.851Z</time></trkpt><trkpt lat="45.429854" lon="9.2493804"><ele>107.0</ele><time>2026-04-03T05:59:05.851Z</time></trkpt><trkpt lat="45.4296756" lon="9.2490917"><ele>108.5</ele><time>2026-04-03T05:59:06.85Z</time></trkpt><trkpt lat="45.4294975" lon="9.2487976"><ele>110.0</ele><time>2026-04-03T05:59:07.851Z</time></trkpt><trkpt lat="45.4293312" lon="9.2485249"><ele>110.0</ele><time>2026-04-03T05:59:08.851Z</time></trkpt><trkpt lat="45.4291759" lon="9.2482744"><ele>110.0</ele><time>2026-04-03T05:59:09.851Z</time></trkpt><trkpt lat="45.4290209" lon="9.2480302"><ele>110.33333333333333</ele><time>2026-04-03T05:59:10.851Z</time></trkpt><trkpt lat="45.4288709" lon="9.2477972"><ele>110.66666666666666</ele><time>2026-04-03T05:59:11.85Z</time></trkpt><trkpt lat="45.4287187" lon="9.2475648"><ele>111.0</ele><time>2026-04-03T05:59:12.85Z</time></trkpt><trkpt lat="45.4285732" lon="9.2473554"><ele>111.33333333333334</ele><time>2026-04-03T05:59:13.851Z</time></trkpt><trkpt lat="45.4284167" lon="9.2471515"><ele>111.66666666666667</ele><time>2026-04-03T05:59:14.851Z</time></trkpt><trkpt lat="45.4282472" lon="9.2469564"><ele>112.0</ele><time>2026-04-03T05:59:15.851Z</time></trkpt><trkpt lat="45.4280776" lon="9.2467792"><ele>110.0</ele><time>2026-04-03T05:59:16.851Z</time></trkpt><trkpt lat="45.4279111" lon="9.2466174"><ele>108.0</ele><time>2026-04-03T05:59:17.851Z</time></trkpt><trkpt lat="45.4277358" lon="9.2464593"><ele>106.0</ele><time>2026-04-03T05:59:18.851Z</time></trkpt><trkpt lat="45.427558" lon="9.2463084"><ele>105.33333333333334</ele><time>2026-04-03T05:59:19.851Z</time></trkpt><trkpt lat="45.4273701" lon="9.2461607"><ele>104.66666666666666</ele><time>2026-04-03T05:59:20.851Z</time></trkpt><trkpt lat="45.4271896" lon="9.2460346"><ele>104.0</ele><time>2026-04-03T05:59:21.85Z</time></trkpt><trkpt lat="45.4269976" lon="9.2459186"><ele>103.0</ele><time>2026-04-03T05:59:22.85Z</time></trkpt><trkpt lat="45.4267936" lon="9.2458146"><ele>102.0</ele><time>2026-04-03T05:59:23.851Z</time></trkpt><trkpt lat="45.426588" lon="9.245725"><ele>101.0</ele><time>2026-04-03T05:59:24.851Z</time></trkpt><trkpt lat="45.4263833" lon="9.2456484"><ele>103.0</ele><time>2026-04-03T05:59:25.85Z</time></trkpt><trkpt lat="45.4261652" lon="9.2455804"><ele>105.0</ele><time>2026-04-03T05:59:26.851Z</time></trkpt><trkpt lat="45.4259422" lon="9.2455231"><ele>105.0</ele><time>2026-04-03T05:59:27.851Z</time></trkpt><trkpt lat="45.4257076" lon="9.2454819"><ele>105.0</ele><time>2026-04-03T05:59:28.851Z</time></trkpt><trkpt lat="45.4254832" lon="9.2454607"><ele>104.5</ele><time>2026-04-03T05:59:29.851Z</time></trkpt><trkpt lat="45.425247" lon="9.2454557"><ele>104.0</ele><time>2026-04-03T05:59:30.851Z</time></trkpt><trkpt lat="45.4250042" lon="9.2454657"><ele>104.0</ele><time>2026-04-03T05:59:31.851Z</time></trkpt><trkpt lat="45.4247644" lon="9.2454867"><ele>104.0</ele><time>2026-04-03T05:59:32.85Z</time></trkpt><trkpt lat="45.4245306" lon="9.2455075"><ele>104.0</ele><time>2026-04-03T05:59:33.85Z</time></trkpt><trkpt lat="45.4242863" lon="9.2455278"><ele>104.0</ele><time>2026-04-03T05:59:34.85Z</time></trkpt><trkpt lat="45.4240397" lon="9.2455493"><ele>104.5</ele><time>2026-04-03T05:59:35.851Z</time></trkpt><trkpt lat="45.4237847" lon="9.2455775"><ele>105.0</ele><time>2026-04-03T05:59:36.851Z</time></trkpt><trkpt lat="45.423545" lon="9.245608"><ele>104.0</ele><time>2026-04-03T05:59:37.851Z</time></trkpt><trkpt lat="45.4232987" lon="9.2456401"><ele>103.0</ele><time>2026-04-03T05:59:38.851Z</time></trkpt><trkpt lat="45.4230495" lon="9.24567"><ele>104.0</ele><time>2026-04-03T05:59:39.85Z</time></trkpt><trkpt lat="45.4228138" lon="9.2456959"><ele>105.0</ele><time>2026-04-03T05:59:40.851Z</time></trkpt><trkpt lat="45.4225846" lon="9.2457215"><ele>105.0</ele><time>2026-04-03T05:59:41.85Z</time></trkpt><trkpt lat="45.4223473" lon="9.245749"><ele>105.0</ele><time>2026-04-03T05:59:42.851Z</time></trkpt><trkpt lat="45.4221084" lon="9.2457782"><ele>106.0</ele><time>2026-04-03T05:59:43.851Z</time></trkpt><trkpt lat="45.4218552" lon="9.2458096"><ele>107.0</ele><time>2026-04-03T05:59:44.851Z</time></trkpt><trkpt lat="45.4216126" lon="9.2458394"><ele>107.0</ele><time>2026-04-03T05:59:45.851Z</time></trkpt><trkpt lat="45.421357" lon="9.2458712"><ele>107.0</ele><time>2026-04-03T05:59:46.85Z</time></trkpt><trkpt lat="45.4210896" lon="9.2459054"><ele>107.0</ele><time>2026-04-03T05:59:47.851Z</time></trkpt><trkpt lat="45.4208266" lon="9.2459433"><ele>107.0</ele><time>2026-04-03T05:59:48.851Z</time></trkpt><trkpt lat="45.4205707" lon="9.2459874"><ele>106.0</ele><time>2026-04-03T05:59:49.851Z</time></trkpt><trkpt lat="45.4203059" lon="9.2460433"><ele>105.0</ele><time>2026-04-03T05:59:50.851Z</time></trkpt><trkpt lat="45.4200417" lon="9.2461087"><ele>105.0</ele><time>2026-04-03T05:59:51.85Z</time></trkpt><trkpt lat="45.4197693" lon="9.2461897"><ele>105.0</ele><time>2026-04-03T05:59:52.851Z</time></trkpt><trkpt lat="45.4195164" lon="9.2462834"><ele>105.0</ele><time>2026-04-03T05:59:53.851Z</time></trkpt><trkpt lat="45.4192597" lon="9.2464018"><ele>105.0</ele><time>2026-04-03T05:59:54.85Z</time></trkpt><trkpt lat="45.4190007" lon="9.2465476"><ele>103.0</ele><time>2026-04-03T05:59:55.851Z</time></trkpt><trkpt lat="45.4187571" lon="9.2467064"><ele>101.0</ele><time>2026-04-03T05:59:56.851Z</time></trkpt><trkpt lat="45.4185291" lon="9.246876"><ele>101.0</ele><time>2026-04-03T05:59:57.851Z</time></trkpt><trkpt lat="45.4183026" lon="9.2470653"><ele>101.0</ele><time>2026-04-03T05:59:58.85Z</time></trkpt><trkpt lat="45.4180847" lon="9.247267"><ele>100.5</ele><time>2026-04-03T05:59:59.85Z</time></trkpt><trkpt lat="45.417868" lon="9.2474874"><ele>100.0</ele><time>2026-04-03T06:00:00.851Z</time></trkpt><trkpt lat="45.4176745" lon="9.2477029"><ele>100.0</ele><time>2026-04-03T06:00:01.85Z</time></trkpt><trkpt lat="45.4174832" lon="9.2479382"><ele>100.0</ele><time>2026-04-03T06:00:02.851Z</time></trkpt><trkpt lat="45.4172955" lon="9.2481915"><ele>101.0</ele><time>2026-04-03T06:00:03.851Z</time></trkpt><trkpt lat="45.417119" lon="9.2484445"><ele>102.0</ele><time>2026-04-03T06:00:04.851Z</time></trkpt><trkpt lat="45.4169512" lon="9.2486915"><ele>102.0</ele><time>2026-04-03T06:00:05.85Z</time></trkpt><trkpt lat="45.4167792" lon="9.248949"><ele>102.0</ele><time>2026-04-03T06:00:06.85Z</time></trkpt><trkpt lat="45.4166084" lon="9.2492066"><ele>102.0</ele><time>2026-04-03T06:00:07.851Z</time></trkpt><trkpt lat="45.4164318" lon="9.2494722"><ele>102.0</ele><time>2026-04-03T06:00:08.851Z</time></trkpt><trkpt lat="45.4162648" lon="9.2497251"><ele>102.5</ele><time>2026-04-03T06:00:09.851Z</time></trkpt><trkpt lat="45.4160889" lon="9.2499936"><ele>103.0</ele><time>2026-04-03T06:00:10.851Z</time></trkpt><trkpt lat="45.4159025" lon="9.2502865"><ele>103.0</ele><time>2026-04-03T06:00:11.85Z</time></trkpt><trkpt lat="45.4157183" lon="9.2505812"><ele>103.0</ele><time>2026-04-03T06:00:12.851Z</time></trkpt><trkpt lat="45.4155345" lon="9.2508709"><ele>101.0</ele><time>2026-04-03T06:00:13.85Z</time></trkpt><trkpt lat="45.4153396" lon="9.2511694"><ele>99.0</ele><time>2026-04-03T06:00:14.851Z</time></trkpt><trkpt lat="45.4151426" lon="9.2514655"><ele>99.0</ele><time>2026-04-03T06:00:15.851Z</time></trkpt><trkpt lat="45.4149408" lon="9.2517668"><ele>99.0</ele><time>2026-04-03T06:00:16.851Z</time></trkpt><trkpt lat="45.4147525" lon="9.2520456"><ele>102.5</ele><time>2026-04-03T06:00:17.851Z</time></trkpt><trkpt lat="45.4145587" lon="9.2523291"><ele>106.0</ele><time>2026-04-03T06:00:18.85Z</time></trkpt><trkpt lat="45.4143581" lon="9.2526146"><ele>106.0</ele><time>2026-04-03T06:00:19.851Z</time></trkpt><trkpt lat="45.4141651" lon="9.252889"><ele>106.0</ele><time>2026-04-03T06:00:20.85Z</time></trkpt><trkpt lat="45.4139799" lon="9.2531483"><ele>104.5</ele><time>2026-04-03T06:00:21.85Z</time></trkpt><trkpt lat="45.4137891" lon="9.2534121"><ele>103.0</ele><time>2026-04-03T06:00:22.851Z</time></trkpt><trkpt lat="45.4135986" lon="9.2536708"><ele>103.0</ele><time>2026-04-03T06:00:23.85Z</time></trkpt><trkpt lat="45.4134032" lon="9.2539342"><ele>103.0</ele><time>2026-04-03T06:00:24.851Z</time></trkpt><trkpt lat="45.4132184" lon="9.2541805"><ele>102.0</ele><time>2026-04-03T06:00:25.851Z</time></trkpt><trkpt lat="45.4130254" lon="9.254433"><ele>101.0</ele><time>2026-04-03T06:00:26.85Z</time></trkpt><trkpt lat="45.4128251" lon="9.2546936"><ele>100.5</ele><time>2026-04-03T06:00:27.85Z</time></trkpt><trkpt lat="45.4126296" lon="9.2549457"><ele>100.0</ele><time>2026-04-03T06:00:28.85Z</time></trkpt><trkpt lat="45.4124395" lon="9.2551887"><ele>100.0</ele><time>2026-04-03T06:00:29.851Z</time></trkpt><trkpt lat="45.4122429" lon="9.2554406"><ele>100.0</ele><time>2026-04-03T06:00:30.851Z</time></trkpt><trkpt lat="45.4120456" lon="9.255693"><ele>100.0</ele><time>2026-04-03T06:00:31.851Z</time></trkpt><trkpt lat="45.4118418" lon="9.2559543"><ele>100.0</ele><time>2026-04-03T06:00:32.851Z</time></trkpt><trkpt lat="45.4116499" lon="9.2561982"><ele>100.0</ele><time>2026-04-03T06:00:33.85Z</time></trkpt><trkpt lat="45.411451" lon="9.2564495"><ele>100.0</ele><time>2026-04-03T06:00:34.851Z</time></trkpt><trkpt lat="45.4112449" lon="9.2567083"><ele>99.5</ele><time>2026-04-03T06:00:35.85Z</time></trkpt><trkpt lat="45.411046" lon="9.2569576"><ele>99.0</ele><time>2026-04-03T06:00:36.85Z</time></trkpt><trkpt lat="45.410856" lon="9.2571965"><ele>99.5</ele><time>2026-04-03T06:00:37.85Z</time></trkpt><trkpt lat="45.4106632" lon="9.2574386"><ele>100.0</ele><time>2026-04-03T06:00:38.85Z</time></trkpt><trkpt lat="45.4104747" lon="9.2576752"><ele>100.0</ele><time>2026-04-03T06:00:39.851Z</time></trkpt><trkpt lat="45.4102824" lon="9.2579164"><ele>100.0</ele><time>2026-04-03T06:00:40.851Z</time></trkpt><trkpt lat="45.4101022" lon="9.2581373"><ele>101.0</ele><time>2026-04-03T06:00:41.851Z</time></trkpt><trkpt lat="45.4099167" lon="9.258358"><ele>102.0</ele><time>2026-04-03T06:00:42.851Z</time></trkpt><trkpt lat="45.4097269" lon="9.2585838"><ele>100.0</ele><time>2026-04-03T06:00:43.85Z</time></trkpt><trkpt lat="45.4095438" lon="9.2588065"><ele>98.0</ele><time>2026-04-03T06:00:44.85Z</time></trkpt><trkpt lat="45.4093646" lon="9.2590309"><ele>98.0</ele><time>2026-04-03T06:00:45.85Z</time></trkpt><trkpt lat="45.4091767" lon="9.2592692"><ele>98.0</ele><time>2026-04-03T06:00:46.85Z</time></trkpt><trkpt lat="45.4089876" lon="9.2595068"><ele>98.0</ele><time>2026-04-03T06:00:47.851Z</time></trkpt><trkpt lat="45.4087909" lon="9.2597468"><ele>98.0</ele><time>2026-04-03T06:00:48.85Z</time></trkpt><trkpt lat="45.4086038" lon="9.2599621"><ele>98.0</ele><time>2026-04-03T06:00:49.851Z</time></trkpt><trkpt lat="45.4084044" lon="9.2601707"><ele>98.0</ele><time>2026-04-03T06:00:50.851Z</time></trkpt><trkpt lat="45.4081929" lon="9.2603691"><ele>98.0</ele><time>2026-04-03T06:00:51.851Z</time></trkpt><trkpt lat="45.4079816" lon="9.2605444"><ele>98.0</ele><time>2026-04-03T06:00:52.851Z</time></trkpt><trkpt lat="45.4077705" lon="9.2606979"><ele>98.0</ele><time>2026-04-03T06:00:53.851Z</time></trkpt><trkpt lat="45.4075455" lon="9.2608411"><ele>98.0</ele><time>2026-04-03T06:00:54.85Z</time></trkpt><trkpt lat="45.4073137" lon="9.2609663"><ele>98.5</ele><time>2026-04-03T06:00:55.851Z</time></trkpt><trkpt lat="45.4070668" lon="9.2610772"><ele>99.0</ele><time>2026-04-03T06:00:56.85Z</time></trkpt><trkpt lat="45.4068284" lon="9.2611641"><ele>99.0</ele><time>2026-04-03T06:00:57.85Z</time></trkpt><trkpt lat="45.4065768" lon="9.2612353"><ele>99.0</ele><time>2026-04-03T06:00:58.851Z</time></trkpt><trkpt lat="45.4063132" lon="9.2612863"><ele>99.5</ele><time>2026-04-03T06:00:59.851Z</time></trkpt><trkpt lat="45.4060567" lon="9.2613141"><ele>100.0</ele><time>2026-04-03T06:01:00.85Z</time></trkpt><trkpt lat="45.4058081" lon="9.2613219"><ele>100.0</ele><time>2026-04-03T06:01:01.85Z</time></trkpt><trkpt lat="45.4055514" lon="9.2613164"><ele>100.0</ele><time>2026-04-03T06:01:02.85Z</time></trkpt><trkpt lat="45.4052949" lon="9.2613034"><ele>99.0</ele><time>2026-04-03T06:01:03.851Z</time></trkpt><trkpt lat="45.4050281" lon="9.2612864"><ele>98.0</ele><time>2026-04-03T06:01:04.851Z</time></trkpt><trkpt lat="45.4047768" lon="9.2612687"><ele>98.5</ele><time>2026-04-03T06:01:05.85Z</time></trkpt><trkpt lat="45.4045157" lon="9.2612471"><ele>99.0</ele><time>2026-04-03T06:01:06.851Z</time></trkpt><trkpt lat="45.4042455" lon="9.261219"><ele>99.0</ele><time>2026-04-03T06:01:07.851Z</time></trkpt><trkpt lat="45.403983" lon="9.2611893"><ele>99.0</ele><time>2026-04-03T06:01:08.851Z</time></trkpt><trkpt lat="45.4037279" lon="9.2611593"><ele>99.5</ele><time>2026-04-03T06:01:09.851Z</time></trkpt><trkpt lat="45.4034628" lon="9.2611281"><ele>100.0</ele><time>2026-04-03T06:01:10.851Z</time></trkpt><trkpt lat="45.4031956" lon="9.2610974"><ele>99.5</ele><time>2026-04-03T06:01:11.85Z</time></trkpt><trkpt lat="45.4029176" lon="9.2610661"><ele>99.0</ele><time>2026-04-03T06:01:12.851Z</time></trkpt><trkpt lat="45.4026555" lon="9.2610367"><ele>99.0</ele><time>2026-04-03T06:01:13.851Z</time></trkpt><trkpt lat="45.4023843" lon="9.2610061"><ele>99.0</ele><time>2026-04-03T06:01:14.85Z</time></trkpt><trkpt lat="45.4021043" lon="9.2609748"><ele>99.0</ele><time>2026-04-03T06:01:15.851Z</time></trkpt><trkpt lat="45.4018359" lon="9.260945"><ele>99.0</ele><time>2026-04-03T06:01:16.85Z</time></trkpt><trkpt lat="45.401581" lon="9.2609169"><ele>98.5</ele><time>2026-04-03T06:01:17.851Z</time></trkpt><trkpt lat="45.4013231" lon="9.2608911"><ele>98.0</ele><time>2026-04-03T06:01:18.85Z</time></trkpt><trkpt lat="45.4010695" lon="9.2608664"><ele>98.0</ele><time>2026-04-03T06:01:19.85Z</time></trkpt><trkpt lat="45.4008094" lon="9.2608398"><ele>98.0</ele><time>2026-04-03T06:01:20.851Z</time></trkpt><trkpt lat="45.4005644" lon="9.2608143"><ele>98.0</ele><time>2026-04-03T06:01:21.851Z</time></trkpt><trkpt lat="45.4003081" lon="9.2607861"><ele>98.0</ele><time>2026-04-03T06:01:22.851Z</time></trkpt><trkpt lat="45.4000398" lon="9.2607562"><ele>98.0</ele><time>2026-04-03T06:01:23.851Z</time></trkpt><trkpt lat="45.3997777" lon="9.2607263"><ele>98.0</ele><time>2026-04-03T06:01:24.851Z</time></trkpt><trkpt lat="45.3995216" lon="9.2606967"><ele>99.5</ele><time>2026-04-03T06:01:25.85Z</time></trkpt><trkpt lat="45.399255" lon="9.2606655"><ele>101.0</ele><time>2026-04-03T06:01:26.851Z</time></trkpt><trkpt lat="45.3989873" lon="9.2606344"><ele>101.0</ele><time>2026-04-03T06:01:27.85Z</time></trkpt><trkpt lat="45.3987106" lon="9.2606031"><ele>101.0</ele><time>2026-04-03T06:01:28.85Z</time></trkpt><trkpt lat="45.398451" lon="9.2605743"><ele>101.0</ele><time>2026-04-03T06:01:29.851Z</time></trkpt><trkpt lat="45.3981823" lon="9.2605448"><ele>101.0</ele><time>2026-04-03T06:01:30.85Z</time></trkpt><trkpt lat="45.3979062" lon="9.2605128"><ele>101.0</ele><time>2026-04-03T06:01:31.851Z</time></trkpt><trkpt lat="45.3976297" lon="9.2604762"><ele>101.0</ele><time>2026-04-03T06:01:32.85Z</time></trkpt><trkpt lat="45.3973473" lon="9.2604363"><ele>100.5</ele><time>2026-04-03T06:01:33.851Z</time></trkpt><trkpt lat="45.3970355" lon="9.2603926"><ele>100.0</ele><time>2026-04-03T06:01:34.85Z</time></trkpt><trkpt lat="45.3967026" lon="9.2603534"><ele>100.0</ele><time>2026-04-03T06:01:35.851Z</time></trkpt><trkpt lat="45.3963578" lon="9.2603081"><ele>100.0</ele><time>2026-04-03T06:01:36.851Z</time></trkpt><trkpt lat="45.396048" lon="9.2602819"><ele>100.0</ele><time>2026-04-03T06:01:37.851Z</time></trkpt><trkpt lat="45.3957426" lon="9.2602665"><ele>100.0</ele><time>2026-04-03T06:01:38.851Z</time></trkpt><trkpt lat="45.3954423" lon="9.2602627"><ele>100.0</ele><time>2026-04-03T06:01:39.85Z</time></trkpt><trkpt lat="45.3951674" lon="9.2602696"><ele>100.0</ele><time>2026-04-03T06:01:40.85Z</time></trkpt><trkpt lat="45.3949126" lon="9.2602838"><ele>101.0</ele><time>2026-04-03T06:01:41.85Z</time></trkpt><trkpt lat="45.3946565" lon="9.2603055"><ele>102.0</ele><time>2026-04-03T06:01:42.851Z</time></trkpt><trkpt lat="45.3944027" lon="9.2603339"><ele>102.0</ele><time>2026-04-03T06:01:43.851Z</time></trkpt><trkpt lat="45.3941428" lon="9.2603715"><ele>102.0</ele><time>2026-04-03T06:01:44.851Z</time></trkpt><trkpt lat="45.3938965" lon="9.2604145"><ele>101.5</ele><time>2026-04-03T06:01:45.851Z</time></trkpt><trkpt lat="45.3936482" lon="9.2604666"><ele>101.0</ele><time>2026-04-03T06:01:46.851Z</time></trkpt><trkpt lat="45.3933915" lon="9.2605298"><ele>101.0</ele><time>2026-04-03T06:01:47.851Z</time></trkpt><trkpt lat="45.3931457" lon="9.2605987"><ele>101.0</ele><time>2026-04-03T06:01:48.85Z</time></trkpt><trkpt lat="45.3929172" lon="9.260671"><ele>101.0</ele><time>2026-04-03T06:01:49.851Z</time></trkpt><trkpt lat="45.39269" lon="9.2607493"><ele>101.0</ele><time>2026-04-03T06:01:50.85Z</time></trkpt><trkpt lat="45.392476" lon="9.2608299"><ele>101.0</ele><time>2026-04-03T06:01:51.85Z</time></trkpt><trkpt lat="45.3922544" lon="9.2609232"><ele>101.0</ele><time>2026-04-03T06:01:52.85Z</time></trkpt><trkpt lat="45.3920439" lon="9.2610199"><ele>99.5</ele><time>2026-04-03T06:01:53.85Z</time></trkpt><trkpt lat="45.3918256" lon="9.2611274"><ele>98.0</ele><time>2026-04-03T06:01:54.851Z</time></trkpt><trkpt lat="45.3915983" lon="9.261244"><ele>98.0</ele><time>2026-04-03T06:01:55.851Z</time></trkpt><trkpt lat="45.3913779" lon="9.2613653"><ele>98.0</ele><time>2026-04-03T06:01:56.85Z</time></trkpt><trkpt lat="45.3911573" lon="9.2614947"><ele>98.5</ele><time>2026-04-03T06:01:57.851Z</time></trkpt><trkpt lat="45.3909238" lon="9.2616409"><ele>99.0</ele><time>2026-04-03T06:01:58.85Z</time></trkpt><trkpt lat="45.3906993" lon="9.2617894"><ele>99.0</ele><time>2026-04-03T06:01:59.85Z</time></trkpt><trkpt lat="45.3904543" lon="9.2619606"><ele>99.0</ele><time>2026-04-03T06:02:00.851Z</time></trkpt><trkpt lat="45.3902285" lon="9.2621306"><ele>97.5</ele><time>2026-04-03T06:02:01.85Z</time></trkpt><trkpt lat="45.3899943" lon="9.2623178"><ele>96.0</ele><time>2026-04-03T06:02:02.851Z</time></trkpt><trkpt lat="45.3897583" lon="9.2625148"><ele>96.5</ele><time>2026-04-03T06:02:03.85Z</time></trkpt><trkpt lat="45.3895195" lon="9.2627206"><ele>97.0</ele><time>2026-04-03T06:02:04.851Z</time></trkpt><trkpt lat="45.3892949" lon="9.2629196"><ele>96.5</ele><time>2026-04-03T06:02:05.85Z</time></trkpt><trkpt lat="45.3890675" lon="9.2631287"><ele>96.0</ele><time>2026-04-03T06:02:06.851Z</time></trkpt><trkpt lat="45.3888525" lon="9.2633366"><ele>97.0</ele><time>2026-04-03T06:02:07.85Z</time></trkpt><trkpt lat="45.3886301" lon="9.2635623"><ele>98.0</ele><time>2026-04-03T06:02:08.851Z</time></trkpt><trkpt lat="45.3884359" lon="9.2637673"><ele>96.5</ele><time>2026-04-03T06:02:09.851Z</time></trkpt><trkpt lat="45.3882433" lon="9.263977"><ele>95.0</ele><time>2026-04-03T06:02:10.851Z</time></trkpt><trkpt lat="45.3880516" lon="9.2641915"><ele>96.0</ele><time>2026-04-03T06:02:11.851Z</time></trkpt><trkpt lat="45.3878752" lon="9.2643914"><ele>97.0</ele><time>2026-04-03T06:02:12.851Z</time></trkpt><trkpt lat="45.3877018" lon="9.2645908"><ele>98.0</ele><time>2026-04-03T06:02:13.851Z</time></trkpt><trkpt lat="45.3875293" lon="9.2647917"><ele>98.0</ele><time>2026-04-03T06:02:14.85Z</time></trkpt><trkpt lat="45.3873578" lon="9.2649894"><ele>98.0</ele><time>2026-04-03T06:02:15.85Z</time></trkpt><trkpt lat="45.3871858" lon="9.265185"><ele>98.0</ele><time>2026-04-03T06:02:16.851Z</time></trkpt><trkpt lat="45.3870192" lon="9.2653784"><ele>97.66666666666666</ele><time>2026-04-03T06:02:17.851Z</time></trkpt><trkpt lat="45.3868529" lon="9.2655786"><ele>97.33333333333334</ele><time>2026-04-03T06:02:18.85Z</time></trkpt><trkpt lat="45.3866828" lon="9.2657865"><ele>97.0</ele><time>2026-04-03T06:02:19.851Z</time></trkpt><trkpt lat="45.386519" lon="9.2659868"><ele>97.0</ele><time>2026-04-03T06:02:20.851Z</time></trkpt><trkpt lat="45.3863595" lon="9.2661801"><ele>97.0</ele><time>2026-04-03T06:02:21.851Z</time></trkpt><trkpt lat="45.386199" lon="9.2663731"><ele>97.0</ele><time>2026-04-03T06:02:22.851Z</time></trkpt><trkpt lat="45.3860367" lon="9.2665647"><ele>97.0</ele><time>2026-04-03T06:02:23.851Z</time></trkpt><trkpt lat="45.3858684" lon="9.2667606"><ele>97.0</ele><time>2026-04-03T06:02:24.85Z</time></trkpt><trkpt lat="45.385708" lon="9.2669355"><ele>97.0</ele><time>2026-04-03T06:02:25.851Z</time></trkpt><trkpt lat="45.3855374" lon="9.267103"><ele>97.0</ele><time>2026-04-03T06:02:26.851Z</time></trkpt><trkpt lat="45.3853544" lon="9.2672504"><ele>97.0</ele><time>2026-04-03T06:02:27.851Z</time></trkpt><trkpt lat="45.3851695" lon="9.2673708"><ele>97.0</ele><time>2026-04-03T06:02:28.85Z</time></trkpt><trkpt lat="45.3849845" lon="9.2674659"><ele>97.0</ele><time>2026-04-03T06:02:29.851Z</time></trkpt><trkpt lat="45.3847884" lon="9.2675374"><ele>97.0</ele><time>2026-04-03T06:02:30.851Z</time></trkpt><trkpt lat="45.3845891" lon="9.2675754"><ele>97.0</ele><time>2026-04-03T06:02:31.85Z</time></trkpt><trkpt lat="45.3843821" lon="9.2675787"><ele>97.66666666666667</ele><time>2026-04-03T06:02:32.851Z</time></trkpt><trkpt lat="45.3841892" lon="9.2675489"><ele>98.33333333333334</ele><time>2026-04-03T06:02:33.851Z</time></trkpt><trkpt lat="45.3839994" lon="9.2674891"><ele>99.0</ele><time>2026-04-03T06:02:34.85Z</time></trkpt><trkpt lat="45.383816" lon="9.267396"><ele>99.66666666666666</ele><time>2026-04-03T06:02:35.851Z</time></trkpt><trkpt lat="45.3836504" lon="9.267273"><ele>100.33333333333333</ele><time>2026-04-03T06:02:36.851Z</time></trkpt><trkpt lat="45.3835047" lon="9.2671246"><ele>101.0</ele><time>2026-04-03T06:02:37.85Z</time></trkpt><trkpt lat="45.3833681" lon="9.2669471"><ele>101.0</ele><time>2026-04-03T06:02:38.851Z</time></trkpt><trkpt lat="45.3832418" lon="9.2667539"><ele>101.0</ele><time>2026-04-03T06:02:39.851Z</time></trkpt><trkpt lat="45.3831165" lon="9.2665496"><ele>101.0</ele><time>2026-04-03T06:02:40.851Z</time></trkpt><trkpt lat="45.3830019" lon="9.2663625"><ele>102.0</ele><time>2026-04-03T06:02:41.85Z</time></trkpt><trkpt lat="45.3828817" lon="9.2661688"><ele>103.0</ele><time>2026-04-03T06:02:42.851Z</time></trkpt><trkpt lat="45.3827661" lon="9.2659727"><ele>104.0</ele><time>2026-04-03T06:02:43.851Z</time></trkpt><trkpt lat="45.382661" lon="9.2657663"><ele>102.66666666666666</ele><time>2026-04-03T06:02:44.851Z</time></trkpt><trkpt lat="45.3825704" lon="9.265546"><ele>101.33333333333334</ele><time>2026-04-03T06:02:45.85Z</time></trkpt><trkpt lat="45.3824936" lon="9.265311"><ele>100.0</ele><time>2026-04-03T06:02:46.851Z</time></trkpt><trkpt lat="45.3824332" lon="9.2650726"><ele>100.0</ele><time>2026-04-03T06:02:47.851Z</time></trkpt><trkpt lat="45.3823844" lon="9.2648092"><ele>100.0</ele><time>2026-04-03T06:02:48.851Z</time></trkpt><trkpt lat="45.3823529" lon="9.2645481"><ele>100.0</ele><time>2026-04-03T06:02:49.85Z</time></trkpt><trkpt lat="45.3823393" lon="9.2642856"><ele>99.0</ele><time>2026-04-03T06:02:50.85Z</time></trkpt><trkpt lat="45.3823428" lon="9.264028"><ele>98.0</ele><time>2026-04-03T06:02:51.851Z</time></trkpt><trkpt lat="45.3823551" lon="9.263778"><ele>97.0</ele><time>2026-04-03T06:02:52.851Z</time></trkpt><trkpt lat="45.3823688" lon="9.2635281"><ele>97.0</ele><time>2026-04-03T06:02:53.851Z</time></trkpt><trkpt lat="45.3823832" lon="9.2632758"><ele>97.0</ele><time>2026-04-03T06:02:54.85Z</time></trkpt><trkpt lat="45.3823985" lon="9.2630271"><ele>97.0</ele><time>2026-04-03T06:02:55.85Z</time></trkpt><trkpt lat="45.3824152" lon="9.2627546"><ele>97.33333333333334</ele><time>2026-04-03T06:02:56.851Z</time></trkpt><trkpt lat="45.3824306" lon="9.2624841"><ele>97.66666666666666</ele><time>2026-04-03T06:02:57.851Z</time></trkpt><trkpt lat="45.3824457" lon="9.2622068"><ele>98.0</ele><time>2026-04-03T06:02:58.851Z</time></trkpt><trkpt lat="45.3824603" lon="9.2619246"><ele>98.33333333333333</ele><time>2026-04-03T06:02:59.85Z</time></trkpt><trkpt lat="45.3824766" lon="9.2616359"><ele>98.66666666666666</ele><time>2026-04-03T06:03:00.851Z</time></trkpt><trkpt lat="45.3824933" lon="9.2613424"><ele>99.0</ele><time>2026-04-03T06:03:01.851Z</time></trkpt><trkpt lat="45.3825086" lon="9.2610399"><ele>98.33333333333334</ele><time>2026-04-03T06:03:02.85Z</time></trkpt><trkpt lat="45.3825182" lon="9.2607418"><ele>97.66666666666667</ele><time>2026-04-03T06:03:03.851Z</time></trkpt><trkpt lat="45.3825264" lon="9.2604246"><ele>97.0</ele><time>2026-04-03T06:03:04.851Z</time></trkpt><trkpt lat="45.3825366" lon="9.2601254"><ele>97.0</ele><time>2026-04-03T06:03:05.85Z</time></trkpt><trkpt lat="45.3825512" lon="9.2598376"><ele>97.0</ele><time>2026-04-03T06:03:06.851Z</time></trkpt><trkpt lat="45.3825671" lon="9.2595524"><ele>97.0</ele><time>2026-04-03T06:03:07.85Z</time></trkpt><trkpt lat="45.3825844" lon="9.2592694"><ele>97.33333333333334</ele><time>2026-04-03T06:03:08.851Z</time></trkpt><trkpt lat="45.3826008" lon="9.2589842"><ele>97.66666666666666</ele><time>2026-04-03T06:03:09.85Z</time></trkpt><trkpt lat="45.3826176" lon="9.2586966"><ele>98.0</ele><time>2026-04-03T06:03:10.851Z</time></trkpt><trkpt lat="45.3826305" lon="9.258409"><ele>98.0</ele><time>2026-04-03T06:03:11.851Z</time></trkpt><trkpt lat="45.3826409" lon="9.2580736"><ele>98.0</ele><time>2026-04-03T06:03:12.85Z</time></trkpt><trkpt lat="45.3826534" lon="9.2577112"><ele>98.0</ele><time>2026-04-03T06:03:13.851Z</time></trkpt><trkpt lat="45.3826706" lon="9.2573228"><ele>98.0</ele><time>2026-04-03T06:03:14.851Z</time></trkpt><trkpt lat="45.3826908" lon="9.2569409"><ele>97.5</ele><time>2026-04-03T06:03:15.851Z</time></trkpt><trkpt lat="45.3827132" lon="9.25656"><ele>97.0</ele><time>2026-04-03T06:03:16.851Z</time></trkpt><trkpt lat="45.3827365" lon="9.256179"><ele>97.0</ele><time>2026-04-03T06:03:17.85Z</time></trkpt><trkpt lat="45.3827598" lon="9.2557977"><ele>97.0</ele><time>2026-04-03T06:03:18.85Z</time></trkpt><trkpt lat="45.3827818" lon="9.2554265"><ele>97.5</ele><time>2026-04-03T06:03:19.85Z</time></trkpt><trkpt lat="45.3828044" lon="9.2550295"><ele>98.0</ele><time>2026-04-03T06:03:20.85Z</time></trkpt><trkpt lat="45.3828266" lon="9.2546456"><ele>98.0</ele><time>2026-04-03T06:03:21.851Z</time></trkpt><trkpt lat="45.3828496" lon="9.2542629"><ele>98.0</ele><time>2026-04-03T06:03:22.85Z</time></trkpt><trkpt lat="45.3828726" lon="9.2538831"><ele>98.0</ele><time>2026-04-03T06:03:23.85Z</time></trkpt><trkpt lat="45.3828952" lon="9.2535072"><ele>98.0</ele><time>2026-04-03T06:03:24.85Z</time></trkpt><trkpt lat="45.3829169" lon="9.2531361"><ele>99.0</ele><time>2026-04-03T06:03:25.851Z</time></trkpt><trkpt lat="45.3829384" lon="9.252768"><ele>100.0</ele><time>2026-04-03T06:03:26.851Z</time></trkpt><trkpt lat="45.3829591" lon="9.2524157"><ele>100.0</ele><time>2026-04-03T06:03:27.85Z</time></trkpt><trkpt lat="45.3829807" lon="9.2520424"><ele>100.0</ele><time>2026-04-03T06:03:28.851Z</time></trkpt><trkpt lat="45.3830018" lon="9.2516801"><ele>100.0</ele><time>2026-04-03T06:03:29.85Z</time></trkpt><trkpt lat="45.3830235" lon="9.2513186"><ele>100.0</ele><time>2026-04-03T06:03:30.85Z</time></trkpt><trkpt lat="45.3830454" lon="9.2509578"><ele>99.5</ele><time>2026-04-03T06:03:31.85Z</time></trkpt><trkpt lat="45.3830673" lon="9.2505995"><ele>99.0</ele><time>2026-04-03T06:03:32.85Z</time></trkpt><trkpt lat="45.3830881" lon="9.250243"><ele>99.0</ele><time>2026-04-03T06:03:33.85Z</time></trkpt><trkpt lat="45.3831084" lon="9.2498872"><ele>99.0</ele><time>2026-04-03T06:03:34.85Z</time></trkpt><trkpt lat="45.3831278" lon="9.2495454"><ele>98.5</ele><time>2026-04-03T06:03:35.851Z</time></trkpt><trkpt lat="45.3831495" lon="9.2491815"><ele>98.0</ele><time>2026-04-03T06:03:36.85Z</time></trkpt><trkpt lat="45.3831707" lon="9.2488253"><ele>98.0</ele><time>2026-04-03T06:03:37.851Z</time></trkpt><trkpt lat="45.3831923" lon="9.2484618"><ele>98.0</ele><time>2026-04-03T06:03:38.851Z</time></trkpt><trkpt lat="45.3832137" lon="9.2480953"><ele>98.5</ele><time>2026-04-03T06:03:39.851Z</time></trkpt><trkpt lat="45.3832355" lon="9.2477293"><ele>99.0</ele><time>2026-04-03T06:03:40.85Z</time></trkpt><trkpt lat="45.3832586" lon="9.2473638"><ele>98.5</ele><time>2026-04-03T06:03:41.851Z</time></trkpt><trkpt lat="45.3832801" lon="9.2469997"><ele>98.0</ele><time>2026-04-03T06:03:42.851Z</time></trkpt><trkpt lat="45.383301" lon="9.2466458"><ele>98.0</ele><time>2026-04-03T06:03:43.85Z</time></trkpt><trkpt lat="45.3833233" lon="9.2462654"><ele>98.0</ele><time>2026-04-03T06:03:44.851Z</time></trkpt><trkpt lat="45.3833455" lon="9.2458951"><ele>99.0</ele><time>2026-04-03T06:03:45.85Z</time></trkpt><trkpt lat="45.3833685" lon="9.2455257"><ele>100.0</ele><time>2026-04-03T06:03:46.851Z</time></trkpt><trkpt lat="45.3833914" lon="9.2451574"><ele>99.0</ele><time>2026-04-03T06:03:47.85Z</time></trkpt><trkpt lat="45.383416" lon="9.2447925"><ele>98.0</ele><time>2026-04-03T06:03:48.851Z</time></trkpt><trkpt lat="45.3834425" lon="9.2444317"><ele>98.0</ele><time>2026-04-03T06:03:49.85Z</time></trkpt><trkpt lat="45.3834723" lon="9.2440735"><ele>98.0</ele><time>2026-04-03T06:03:50.85Z</time></trkpt><trkpt lat="45.3835035" lon="9.2437285"><ele>98.0</ele><time>2026-04-03T06:03:51.851Z</time></trkpt><trkpt lat="45.3835387" lon="9.2433614"><ele>98.0</ele><time>2026-04-03T06:03:52.851Z</time></trkpt><trkpt lat="45.3835752" lon="9.2430068"><ele>97.5</ele><time>2026-04-03T06:03:53.851Z</time></trkpt><trkpt lat="45.3836141" lon="9.2426535"><ele>97.0</ele><time>2026-04-03T06:03:54.85Z</time></trkpt><trkpt lat="45.3836556" lon="9.2423006"><ele>97.5</ele><time>2026-04-03T06:03:55.851Z</time></trkpt><trkpt lat="45.3836997" lon="9.241946"><ele>98.0</ele><time>2026-04-03T06:03:56.851Z</time></trkpt><trkpt lat="45.3837462" lon="9.2415891"><ele>99.5</ele><time>2026-04-03T06:03:57.851Z</time></trkpt><trkpt lat="45.3837956" lon="9.2412314"><ele>101.0</ele><time>2026-04-03T06:03:58.851Z</time></trkpt><trkpt lat="45.3838456" lon="9.2408864"><ele>100.5</ele><time>2026-04-03T06:03:59.85Z</time></trkpt><trkpt lat="45.3839004" lon="9.2405193"><ele>100.0</ele><time>2026-04-03T06:04:00.851Z</time></trkpt><trkpt lat="45.383956" lon="9.2401632"><ele>100.0</ele><time>2026-04-03T06:04:01.851Z</time></trkpt><trkpt lat="45.3840145" lon="9.239809"><ele>100.0</ele><time>2026-04-03T06:04:02.85Z</time></trkpt><trkpt lat="45.3840754" lon="9.2394578"><ele>100.0</ele><time>2026-04-03T06:04:03.851Z</time></trkpt><trkpt lat="45.3841383" lon="9.2391099"><ele>100.0</ele><time>2026-04-03T06:04:04.851Z</time></trkpt><trkpt lat="45.3842031" lon="9.2387613"><ele>100.0</ele><time>2026-04-03T06:04:05.851Z</time></trkpt><trkpt lat="45.3842699" lon="9.2384149"><ele>100.0</ele><time>2026-04-03T06:04:06.851Z</time></trkpt><trkpt lat="45.3843371" lon="9.2380789"><ele>99.5</ele><time>2026-04-03T06:04:07.851Z</time></trkpt><trkpt lat="45.3844108" lon="9.2377234"><ele>99.0</ele><time>2026-04-03T06:04:08.851Z</time></trkpt><trkpt lat="45.3844844" lon="9.2373796"><ele>99.0</ele><time>2026-04-03T06:04:09.85Z</time></trkpt><trkpt lat="45.3845598" lon="9.2370396"><ele>99.0</ele><time>2026-04-03T06:04:10.851Z</time></trkpt><trkpt lat="45.3846378" lon="9.236701"><ele>100.0</ele><time>2026-04-03T06:04:11.851Z</time></trkpt><trkpt lat="45.3847184" lon="9.2363633"><ele>101.0</ele><time>2026-04-03T06:04:12.851Z</time></trkpt><trkpt lat="45.3848011" lon="9.2360268"><ele>101.0</ele><time>2026-04-03T06:04:13.851Z</time></trkpt><trkpt lat="45.3848844" lon="9.2356896"><ele>101.0</ele><time>2026-04-03T06:04:14.851Z</time></trkpt><trkpt lat="45.3849641" lon="9.2353632"><ele>100.5</ele><time>2026-04-03T06:04:15.85Z</time></trkpt><trkpt lat="45.3850494" lon="9.2350139"><ele>100.0</ele><time>2026-04-03T06:04:16.85Z</time></trkpt><trkpt lat="45.3851327" lon="9.2346752"><ele>100.0</ele><time>2026-04-03T06:04:17.851Z</time></trkpt><trkpt lat="45.3852167" lon="9.2343348"><ele>100.0</ele><time>2026-04-03T06:04:18.85Z</time></trkpt><trkpt lat="45.3853007" lon="9.2339935"><ele>101.0</ele><time>2026-04-03T06:04:19.851Z</time></trkpt><trkpt lat="45.3853858" lon="9.2336449"><ele>102.0</ele><time>2026-04-03T06:04:20.851Z</time></trkpt><trkpt lat="45.3854739" lon="9.2332855"><ele>101.5</ele><time>2026-04-03T06:04:21.851Z</time></trkpt><trkpt lat="45.3855642" lon="9.2329164"><ele>101.0</ele><time>2026-04-03T06:04:22.85Z</time></trkpt><trkpt lat="45.385653" lon="9.2325525"><ele>102.0</ele><time>2026-04-03T06:04:23.851Z</time></trkpt><trkpt lat="45.3857505" lon="9.232158"><ele>103.0</ele><time>2026-04-03T06:04:24.851Z</time></trkpt><trkpt lat="45.3858472" lon="9.2317706"><ele>104.0</ele><time>2026-04-03T06:04:25.85Z</time></trkpt><trkpt lat="45.3859444" lon="9.2313803"><ele>105.0</ele><time>2026-04-03T06:04:26.851Z</time></trkpt><trkpt lat="45.3860392" lon="9.2309937"><ele>103.5</ele><time>2026-04-03T06:04:27.85Z</time></trkpt><trkpt lat="45.3861334" lon="9.2306134"><ele>102.0</ele><time>2026-04-03T06:04:28.851Z</time></trkpt><trkpt lat="45.3862253" lon="9.2302411"><ele>102.0</ele><time>2026-04-03T06:04:29.851Z</time></trkpt><trkpt lat="45.3863165" lon="9.229876"><ele>102.0</ele><time>2026-04-03T06:04:30.851Z</time></trkpt><trkpt lat="45.3864036" lon="9.229525"><ele>101.5</ele><time>2026-04-03T06:04:31.851Z</time></trkpt><trkpt lat="45.3864955" lon="9.2291529"><ele>101.0</ele><time>2026-04-03T06:04:32.851Z</time></trkpt><trkpt lat="45.3865843" lon="9.2287947"><ele>101.0</ele><time>2026-04-03T06:04:33.851Z</time></trkpt><trkpt lat="45.3866729" lon="9.2284376"><ele>101.0</ele><time>2026-04-03T06:04:34.851Z</time></trkpt><trkpt lat="45.386761" lon="9.2280838"><ele>100.0</ele><time>2026-04-03T06:04:35.851Z</time></trkpt><trkpt lat="45.3868486" lon="9.2277317"><ele>99.0</ele><time>2026-04-03T06:04:36.85Z</time></trkpt><trkpt lat="45.3869348" lon="9.2273807"><ele>99.0</ele><time>2026-04-03T06:04:37.851Z</time></trkpt><trkpt lat="45.3870206" lon="9.2270283"><ele>99.0</ele><time>2026-04-03T06:04:38.851Z</time></trkpt><trkpt lat="45.3871037" lon="9.2266876"><ele>100.0</ele><time>2026-04-03T06:04:39.851Z</time></trkpt><trkpt lat="45.3871917" lon="9.2263282"><ele>101.0</ele><time>2026-04-03T06:04:40.85Z</time></trkpt><trkpt lat="45.3872767" lon="9.2259857"><ele>101.0</ele><time>2026-04-03T06:04:41.851Z</time></trkpt><trkpt lat="45.3873611" lon="9.2256479"><ele>101.0</ele><time>2026-04-03T06:04:42.851Z</time></trkpt><trkpt lat="45.3874442" lon="9.2253123"><ele>101.5</ele><time>2026-04-03T06:04:43.851Z</time></trkpt><trkpt lat="45.3875268" lon="9.2249788"><ele>102.0</ele><time>2026-04-03T06:04:44.851Z</time></trkpt><trkpt lat="45.3876089" lon="9.2246463"><ele>100.5</ele><time>2026-04-03T06:04:45.851Z</time></trkpt><trkpt lat="45.3876904" lon="9.2243148"><ele>99.0</ele><time>2026-04-03T06:04:46.851Z</time></trkpt><trkpt lat="45.3877698" lon="9.2239927"><ele>99.0</ele><time>2026-04-03T06:04:47.851Z</time></trkpt><trkpt lat="45.3878561" lon="9.2236439"><ele>99.0</ele><time>2026-04-03T06:04:48.85Z</time></trkpt><trkpt lat="45.3879414" lon="9.2232972"><ele>100.0</ele><time>2026-04-03T06:04:49.851Z</time></trkpt><trkpt lat="45.3880293" lon="9.2229392"><ele>101.0</ele><time>2026-04-03T06:04:50.851Z</time></trkpt><trkpt lat="45.3881193" lon="9.2225718"><ele>100.5</ele><time>2026-04-03T06:04:51.851Z</time></trkpt><trkpt lat="45.3882127" lon="9.2221997"><ele>100.0</ele><time>2026-04-03T06:04:52.85Z</time></trkpt><trkpt lat="45.3883067" lon="9.2218231"><ele>100.5</ele><time>2026-04-03T06:04:53.85Z</time></trkpt><trkpt lat="45.3884002" lon="9.2214433"><ele>101.0</ele><time>2026-04-03T06:04:54.851Z</time></trkpt><trkpt lat="45.3884896" lon="9.2210765"><ele>101.0</ele><time>2026-04-03T06:04:55.851Z</time></trkpt><trkpt lat="45.3885845" lon="9.2206875"><ele>101.0</ele><time>2026-04-03T06:04:56.851Z</time></trkpt><trkpt lat="45.3886765" lon="9.2203123"><ele>100.5</ele><time>2026-04-03T06:04:57.85Z</time></trkpt><trkpt lat="45.3887688" lon="9.2199413"><ele>100.0</ele><time>2026-04-03T06:04:58.85Z</time></trkpt><trkpt lat="45.3888609" lon="9.219571"><ele>101.0</ele><time>2026-04-03T06:04:59.85Z</time></trkpt><trkpt lat="45.3889517" lon="9.219205"><ele>102.0</ele><time>2026-04-03T06:05:00.851Z</time></trkpt><trkpt lat="45.389041" lon="9.2188394"><ele>102.0</ele><time>2026-04-03T06:05:01.85Z</time></trkpt><trkpt lat="45.38913" lon="9.2184749"><ele>102.0</ele><time>2026-04-03T06:05:02.851Z</time></trkpt><trkpt lat="45.3892149" lon="9.2181219"><ele>102.0</ele><time>2026-04-03T06:05:03.851Z</time></trkpt><trkpt lat="45.3893055" lon="9.2177429"><ele>102.0</ele><time>2026-04-03T06:05:04.851Z</time></trkpt><trkpt lat="45.3893934" lon="9.2173707"><ele>100.5</ele><time>2026-04-03T06:05:05.851Z</time></trkpt><trkpt lat="45.38948" lon="9.2169971"><ele>99.0</ele><time>2026-04-03T06:05:06.85Z</time></trkpt><trkpt lat="45.3895652" lon="9.2166194"><ele>99.0</ele><time>2026-04-03T06:05:07.85Z</time></trkpt><trkpt lat="45.3896481" lon="9.2162374"><ele>99.0</ele><time>2026-04-03T06:05:08.851Z</time></trkpt><trkpt lat="45.3897279" lon="9.21585"><ele>101.0</ele><time>2026-04-03T06:05:09.851Z</time></trkpt><trkpt lat="45.3898081" lon="9.21546"><ele>103.0</ele><time>2026-04-03T06:05:10.851Z</time></trkpt><trkpt lat="45.3898859" lon="9.2150811"><ele>104.5</ele><time>2026-04-03T06:05:11.851Z</time></trkpt><trkpt lat="45.3899672" lon="9.2146763"><ele>106.0</ele><time>2026-04-03T06:05:12.851Z</time></trkpt><trkpt lat="45.390044" lon="9.2142827"><ele>105.5</ele><time>2026-04-03T06:05:13.851Z</time></trkpt><trkpt lat="45.3901183" lon="9.2138859"><ele>105.0</ele><time>2026-04-03T06:05:14.85Z</time></trkpt><trkpt lat="45.3901905" lon="9.2134885"><ele>105.0</ele><time>2026-04-03T06:05:15.85Z</time></trkpt><trkpt lat="45.3902616" lon="9.2130887"><ele>105.0</ele><time>2026-04-03T06:05:16.85Z</time></trkpt><trkpt lat="45.390331" lon="9.2126877"><ele>104.5</ele><time>2026-04-03T06:05:17.85Z</time></trkpt><trkpt lat="45.3903996" lon="9.212285"><ele>104.0</ele><time>2026-04-03T06:05:18.851Z</time></trkpt><trkpt lat="45.3904643" lon="9.2119003"><ele>104.0</ele><time>2026-04-03T06:05:19.851Z</time></trkpt><trkpt lat="45.3905299" lon="9.2114996"><ele>104.0</ele><time>2026-04-03T06:05:20.851Z</time></trkpt><trkpt lat="45.3905885" lon="9.2111196"><ele>104.0</ele><time>2026-04-03T06:05:21.851Z</time></trkpt><trkpt lat="45.3906432" lon="9.2107461"><ele>104.0</ele><time>2026-04-03T06:05:22.85Z</time></trkpt><trkpt lat="45.390696" lon="9.2103766"><ele>104.0</ele><time>2026-04-03T06:05:23.85Z</time></trkpt><trkpt lat="45.3907476" lon="9.2100076"><ele>104.0</ele><time>2026-04-03T06:05:24.851Z</time></trkpt><trkpt lat="45.3907971" lon="9.2096386"><ele>104.0</ele><time>2026-04-03T06:05:25.85Z</time></trkpt><trkpt lat="45.390845" lon="9.2092735"><ele>104.0</ele><time>2026-04-03T06:05:26.851Z</time></trkpt><trkpt lat="45.3908896" lon="9.2089276"><ele>102.0</ele><time>2026-04-03T06:05:27.851Z</time></trkpt><trkpt lat="45.3909348" lon="9.208565"><ele>100.0</ele><time>2026-04-03T06:05:28.851Z</time></trkpt><trkpt lat="45.3909758" lon="9.2082179"><ele>99.5</ele><time>2026-04-03T06:05:29.851Z</time></trkpt><trkpt lat="45.3910145" lon="9.2078769"><ele>99.0</ele><time>2026-04-03T06:05:30.851Z</time></trkpt><trkpt lat="45.3910514" lon="9.2075468"><ele>101.0</ele><time>2026-04-03T06:05:31.85Z</time></trkpt><trkpt lat="45.3910863" lon="9.2072256"><ele>103.0</ele><time>2026-04-03T06:05:32.85Z</time></trkpt><trkpt lat="45.3911193" lon="9.2069092"><ele>103.0</ele><time>2026-04-03T06:05:33.851Z</time></trkpt><trkpt lat="45.3911503" lon="9.2065961"><ele>103.0</ele><time>2026-04-03T06:05:34.851Z</time></trkpt><trkpt lat="45.3911782" lon="9.2063005"><ele>103.0</ele><time>2026-04-03T06:05:35.851Z</time></trkpt><trkpt lat="45.3912061" lon="9.2059928"><ele>103.0</ele><time>2026-04-03T06:05:36.85Z</time></trkpt><trkpt lat="45.3912322" lon="9.205698"><ele>103.0</ele><time>2026-04-03T06:05:37.851Z</time></trkpt><trkpt lat="45.3912582" lon="9.2054052"><ele>103.0</ele><time>2026-04-03T06:05:38.85Z</time></trkpt><trkpt lat="45.3912839" lon="9.2051146"><ele>102.66666666666667</ele><time>2026-04-03T06:05:39.851Z</time></trkpt><trkpt lat="45.3913088" lon="9.2048231"><ele>102.33333333333334</ele><time>2026-04-03T06:05:40.851Z</time></trkpt><trkpt lat="45.3913303" lon="9.2045339"><ele>102.0</ele><time>2026-04-03T06:05:41.851Z</time></trkpt><trkpt lat="45.3913491" lon="9.2042475"><ele>101.66666666666666</ele><time>2026-04-03T06:05:42.85Z</time></trkpt><trkpt lat="45.3913663" lon="9.2039684"><ele>101.33333333333333</ele><time>2026-04-03T06:05:43.851Z</time></trkpt><trkpt lat="45.3913856" lon="9.2036691"><ele>101.0</ele><time>2026-04-03T06:05:44.851Z</time></trkpt><trkpt lat="45.3914043" lon="9.2033701"><ele>100.66666666666666</ele><time>2026-04-03T06:05:45.851Z</time></trkpt><trkpt lat="45.3914214" lon="9.2030745"><ele>100.33333333333334</ele><time>2026-04-03T06:05:46.851Z</time></trkpt><trkpt lat="45.3914373" lon="9.2027722"><ele>100.0</ele><time>2026-04-03T06:05:47.851Z</time></trkpt><trkpt lat="45.3914509" lon="9.2024667"><ele>100.66666666666667</ele><time>2026-04-03T06:05:48.85Z</time></trkpt><trkpt lat="45.3914635" lon="9.2021573"><ele>101.33333333333334</ele><time>2026-04-03T06:05:49.851Z</time></trkpt><trkpt lat="45.3914751" lon="9.2018439"><ele>102.0</ele><time>2026-04-03T06:05:50.851Z</time></trkpt><trkpt lat="45.3914855" lon="9.2015358"><ele>103.0</ele><time>2026-04-03T06:05:51.85Z</time></trkpt><trkpt lat="45.3914962" lon="9.2012011"><ele>104.0</ele><time>2026-04-03T06:05:52.85Z</time></trkpt><trkpt lat="45.3915056" lon="9.2008707"><ele>102.5</ele><time>2026-04-03T06:05:53.851Z</time></trkpt><trkpt lat="45.3915169" lon="9.2005365"><ele>101.0</ele><time>2026-04-03T06:05:54.851Z</time></trkpt><trkpt lat="45.3915243" lon="9.2001973"><ele>101.0</ele><time>2026-04-03T06:05:55.851Z</time></trkpt><trkpt lat="45.3915332" lon="9.1998559"><ele>101.0</ele><time>2026-04-03T06:05:56.851Z</time></trkpt><trkpt lat="45.3915413" lon="9.1995129"><ele>101.0</ele><time>2026-04-03T06:05:57.851Z</time></trkpt><trkpt lat="45.3915464" lon="9.1991802"><ele>101.0</ele><time>2026-04-03T06:05:58.851Z</time></trkpt><trkpt lat="45.3915514" lon="9.1988563"><ele>103.0</ele><time>2026-04-03T06:05:59.85Z</time></trkpt><trkpt lat="45.3915543" lon="9.1985197"><ele>105.0</ele><time>2026-04-03T06:06:00.851Z</time></trkpt><trkpt lat="45.3915552" lon="9.1981951"><ele>104.33333333333334</ele><time>2026-04-03T06:06:01.851Z</time></trkpt><trkpt lat="45.3915542" lon="9.1978785"><ele>103.66666666666667</ele><time>2026-04-03T06:06:02.851Z</time></trkpt><trkpt lat="45.3915508" lon="9.1975563"><ele>103.0</ele><time>2026-04-03T06:06:03.851Z</time></trkpt><trkpt lat="45.3915453" lon="9.1972312"><ele>101.5</ele><time>2026-04-03T06:06:04.851Z</time></trkpt><trkpt lat="45.3915377" lon="9.1969005"><ele>100.0</ele><time>2026-04-03T06:06:05.851Z</time></trkpt><trkpt lat="45.3915283" lon="9.1965795"><ele>100.0</ele><time>2026-04-03T06:06:06.85Z</time></trkpt><trkpt lat="45.391518" lon="9.1962487"><ele>100.0</ele><time>2026-04-03T06:06:07.851Z</time></trkpt><trkpt lat="45.3915029" lon="9.1958992"><ele>100.0</ele><time>2026-04-03T06:06:08.851Z</time></trkpt><trkpt lat="45.3914868" lon="9.1955522"><ele>100.0</ele><time>2026-04-03T06:06:09.851Z</time></trkpt><trkpt lat="45.3914698" lon="9.1952172"><ele>100.0</ele><time>2026-04-03T06:06:10.85Z</time></trkpt><trkpt lat="45.3914502" lon="9.1948618"><ele>100.0</ele><time>2026-04-03T06:06:11.851Z</time></trkpt><trkpt lat="45.3914298" lon="9.1945157"><ele>100.5</ele><time>2026-04-03T06:06:12.85Z</time></trkpt><trkpt lat="45.3914066" lon="9.1941698"><ele>101.0</ele><time>2026-04-03T06:06:13.851Z</time></trkpt><trkpt lat="45.3913808" lon="9.1938262"><ele>101.0</ele><time>2026-04-03T06:06:14.85Z</time></trkpt><trkpt lat="45.3913544" lon="9.1934944"><ele>101.0</ele><time>2026-04-03T06:06:15.85Z</time></trkpt><trkpt lat="45.3913224" lon="9.193136"><ele>100.5</ele><time>2026-04-03T06:06:16.851Z</time></trkpt><trkpt lat="45.3912889" lon="9.1927843"><ele>100.0</ele><time>2026-04-03T06:06:17.85Z</time></trkpt><trkpt lat="45.3912545" lon="9.1924373"><ele>99.5</ele><time>2026-04-03T06:06:18.85Z</time></trkpt><trkpt lat="45.3912167" lon="9.1920726"><ele>99.0</ele><time>2026-04-03T06:06:19.851Z</time></trkpt><trkpt lat="45.3911787" lon="9.1917184"><ele>99.5</ele><time>2026-04-03T06:06:20.85Z</time></trkpt><trkpt lat="45.3911373" lon="9.1913615"><ele>100.0</ele><time>2026-04-03T06:06:21.851Z</time></trkpt><trkpt lat="45.391093" lon="9.1910062"><ele>100.0</ele><time>2026-04-03T06:06:22.85Z</time></trkpt><trkpt lat="45.3910473" lon="9.1906629"><ele>100.0</ele><time>2026-04-03T06:06:23.85Z</time></trkpt><trkpt lat="45.390997" lon="9.1902967"><ele>100.0</ele><time>2026-04-03T06:06:24.851Z</time></trkpt><trkpt lat="45.3909477" lon="9.1899397"><ele>100.0</ele><time>2026-04-03T06:06:25.851Z</time></trkpt><trkpt lat="45.3908966" lon="9.1895819"><ele>101.5</ele><time>2026-04-03T06:06:26.851Z</time></trkpt><trkpt lat="45.3908432" lon="9.1892241"><ele>103.0</ele><time>2026-04-03T06:06:27.851Z</time></trkpt><trkpt lat="45.3907872" lon="9.188867"><ele>103.0</ele><time>2026-04-03T06:06:28.851Z</time></trkpt><trkpt lat="45.3907288" lon="9.1885105"><ele>103.0</ele><time>2026-04-03T06:06:29.85Z</time></trkpt><trkpt lat="45.3906679" lon="9.1881546"><ele>102.0</ele><time>2026-04-03T06:06:30.85Z</time></trkpt><trkpt lat="45.3906056" lon="9.1878059"><ele>101.0</ele><time>2026-04-03T06:06:31.85Z</time></trkpt><trkpt lat="45.3905366" lon="9.1874383"><ele>100.0</ele><time>2026-04-03T06:06:32.851Z</time></trkpt><trkpt lat="45.3904652" lon="9.1870778"><ele>99.0</ele><time>2026-04-03T06:06:33.851Z</time></trkpt><trkpt lat="45.3903913" lon="9.1867249"><ele>100.0</ele><time>2026-04-03T06:06:34.851Z</time></trkpt><trkpt lat="45.390311" lon="9.1863522"><ele>101.0</ele><time>2026-04-03T06:06:35.85Z</time></trkpt><trkpt lat="45.3902337" lon="9.1859975"><ele>100.5</ele><time>2026-04-03T06:06:36.851Z</time></trkpt><trkpt lat="45.390157" lon="9.1856461"><ele>100.0</ele><time>2026-04-03T06:06:37.851Z</time></trkpt><trkpt lat="45.3900822" lon="9.1853092"><ele>100.0</ele><time>2026-04-03T06:06:38.851Z</time></trkpt><trkpt lat="45.390005" lon="9.1849708"><ele>100.0</ele><time>2026-04-03T06:06:39.851Z</time></trkpt><trkpt lat="45.3899256" lon="9.1846341"><ele>100.5</ele><time>2026-04-03T06:06:40.851Z</time></trkpt><trkpt lat="45.3898472" lon="9.1843141"><ele>101.0</ele><time>2026-04-03T06:06:41.851Z</time></trkpt><trkpt lat="45.3897678" lon="9.1840056"><ele>101.5</ele><time>2026-04-03T06:06:42.85Z</time></trkpt><trkpt lat="45.3896838" lon="9.1836875"><ele>102.0</ele><time>2026-04-03T06:06:43.85Z</time></trkpt><trkpt lat="45.3896005" lon="9.1833732"><ele>102.5</ele><time>2026-04-03T06:06:44.85Z</time></trkpt><trkpt lat="45.3895165" lon="9.1830675"><ele>103.0</ele><time>2026-04-03T06:06:45.851Z</time></trkpt><trkpt lat="45.3894319" lon="9.1827673"><ele>103.0</ele><time>2026-04-03T06:06:46.851Z</time></trkpt><trkpt lat="45.3893441" lon="9.1824593"><ele>103.0</ele><time>2026-04-03T06:06:47.851Z</time></trkpt><trkpt lat="45.3892539" lon="9.1821411"><ele>103.5</ele><time>2026-04-03T06:06:48.851Z</time></trkpt><trkpt lat="45.3891592" lon="9.1818263"><ele>104.0</ele><time>2026-04-03T06:06:49.851Z</time></trkpt><trkpt lat="45.3890644" lon="9.1815175"><ele>103.5</ele><time>2026-04-03T06:06:50.85Z</time></trkpt><trkpt lat="45.3889617" lon="9.1811915"><ele>103.0</ele><time>2026-04-03T06:06:51.85Z</time></trkpt><trkpt lat="45.3888596" lon="9.1808777"><ele>102.0</ele><time>2026-04-03T06:06:52.85Z</time></trkpt><trkpt lat="45.3887543" lon="9.1805582"><ele>101.0</ele><time>2026-04-03T06:06:53.85Z</time></trkpt><trkpt lat="45.3886519" lon="9.1802524"><ele>101.0</ele><time>2026-04-03T06:06:54.851Z</time></trkpt><trkpt lat="45.388545" lon="9.1799371"><ele>101.0</ele><time>2026-04-03T06:06:55.851Z</time></trkpt><trkpt lat="45.3884333" lon="9.1796168"><ele>101.5</ele><time>2026-04-03T06:06:56.851Z</time></trkpt><trkpt lat="45.3883213" lon="9.1793039"><ele>102.0</ele><time>2026-04-03T06:06:57.85Z</time></trkpt><trkpt lat="45.388213" lon="9.1790064"><ele>102.5</ele><time>2026-04-03T06:06:58.851Z</time></trkpt><trkpt lat="45.3880959" lon="9.1786927"><ele>103.0</ele><time>2026-04-03T06:06:59.851Z</time></trkpt><trkpt lat="45.3879811" lon="9.1783924"><ele>103.0</ele><time>2026-04-03T06:07:00.851Z</time></trkpt><trkpt lat="45.3878628" lon="9.1780878"><ele>103.0</ele><time>2026-04-03T06:07:01.851Z</time></trkpt><trkpt lat="45.3877492" lon="9.1777972"><ele>103.0</ele><time>2026-04-03T06:07:02.85Z</time></trkpt><trkpt lat="45.3876309" lon="9.1774954"><ele>103.0</ele><time>2026-04-03T06:07:03.851Z</time></trkpt><trkpt lat="45.3875098" lon="9.1771849"><ele>103.5</ele><time>2026-04-03T06:07:04.851Z</time></trkpt><trkpt lat="45.3873939" lon="9.1768834"><ele>104.0</ele><time>2026-04-03T06:07:05.851Z</time></trkpt><trkpt lat="45.387282" lon="9.176589"><ele>102.5</ele><time>2026-04-03T06:07:06.851Z</time></trkpt><trkpt lat="45.3871641" lon="9.1762705"><ele>101.0</ele><time>2026-04-03T06:07:07.851Z</time></trkpt><trkpt lat="45.3870537" lon="9.1759576"><ele>100.5</ele><time>2026-04-03T06:07:08.851Z</time></trkpt><trkpt lat="45.3869506" lon="9.1756378"><ele>100.0</ele><time>2026-04-03T06:07:09.851Z</time></trkpt><trkpt lat="45.3868584" lon="9.1753233"><ele>100.0</ele><time>2026-04-03T06:07:10.851Z</time></trkpt><trkpt lat="45.386771" lon="9.174996"><ele>100.0</ele><time>2026-04-03T06:07:11.851Z</time></trkpt><trkpt lat="45.3866874" lon="9.1746577"><ele>100.5</ele><time>2026-04-03T06:07:12.851Z</time></trkpt><trkpt lat="45.3866125" lon="9.1743327"><ele>101.0</ele><time>2026-04-03T06:07:13.85Z</time></trkpt><trkpt lat="45.386547" lon="9.174023"><ele>101.0</ele><time>2026-04-03T06:07:14.85Z</time></trkpt><trkpt lat="45.3864836" lon="9.1736888"><ele>101.0</ele><time>2026-04-03T06:07:15.851Z</time></trkpt><trkpt lat="45.3864289" lon="9.1733654"><ele>101.0</ele><time>2026-04-03T06:07:16.85Z</time></trkpt><trkpt lat="45.3863794" lon="9.1730404"><ele>101.0</ele><time>2026-04-03T06:07:17.85Z</time></trkpt><trkpt lat="45.3863371" lon="9.17272"><ele>101.0</ele><time>2026-04-03T06:07:18.851Z</time></trkpt><trkpt lat="45.3863014" lon="9.1724048"><ele>101.0</ele><time>2026-04-03T06:07:19.851Z</time></trkpt><trkpt lat="45.38627" lon="9.1720739"><ele>101.0</ele><time>2026-04-03T06:07:20.85Z</time></trkpt><trkpt lat="45.3862459" lon="9.1717581"><ele>101.0</ele><time>2026-04-03T06:07:21.851Z</time></trkpt><trkpt lat="45.386228" lon="9.1714388"><ele>101.0</ele><time>2026-04-03T06:07:22.85Z</time></trkpt><trkpt lat="45.386215" lon="9.1711173"><ele>102.0</ele><time>2026-04-03T06:07:23.851Z</time></trkpt><trkpt lat="45.3862069" lon="9.1707978"><ele>103.0</ele><time>2026-04-03T06:07:24.851Z</time></trkpt><trkpt lat="45.3862054" lon="9.1704794"><ele>104.0</ele><time>2026-04-03T06:07:25.85Z</time></trkpt><trkpt lat="45.3862103" lon="9.1701631"><ele>104.0</ele><time>2026-04-03T06:07:26.85Z</time></trkpt><trkpt lat="45.3862207" lon="9.1698348"><ele>104.0</ele><time>2026-04-03T06:07:27.851Z</time></trkpt><trkpt lat="45.3862373" lon="9.1694879"><ele>104.0</ele><time>2026-04-03T06:07:28.851Z</time></trkpt><trkpt lat="45.3862608" lon="9.1691487"><ele>104.0</ele><time>2026-04-03T06:07:29.85Z</time></trkpt><trkpt lat="45.3862909" lon="9.1688081"><ele>102.5</ele><time>2026-04-03T06:07:30.85Z</time></trkpt><trkpt lat="45.3863308" lon="9.168448"><ele>101.0</ele><time>2026-04-03T06:07:31.851Z</time></trkpt><trkpt lat="45.3863758" lon="9.1680994"><ele>99.5</ele><time>2026-04-03T06:07:32.85Z</time></trkpt><trkpt lat="45.3864269" lon="9.1677552"><ele>98.0</ele><time>2026-04-03T06:07:33.851Z</time></trkpt><trkpt lat="45.386485" lon="9.1674138"><ele>98.0</ele><time>2026-04-03T06:07:34.851Z</time></trkpt><trkpt lat="45.3865512" lon="9.1670648"><ele>98.0</ele><time>2026-04-03T06:07:35.851Z</time></trkpt><trkpt lat="45.386627" lon="9.1667093"><ele>98.5</ele><time>2026-04-03T06:07:36.85Z</time></trkpt><trkpt lat="45.3867061" lon="9.1663737"><ele>99.0</ele><time>2026-04-03T06:07:37.851Z</time></trkpt><trkpt lat="45.3867876" lon="9.1660574"><ele>99.0</ele><time>2026-04-03T06:07:38.85Z</time></trkpt><trkpt lat="45.3868806" lon="9.1657273"><ele>99.0</ele><time>2026-04-03T06:07:39.851Z</time></trkpt><trkpt lat="45.3869765" lon="9.16541"><ele>100.0</ele><time>2026-04-03T06:07:40.851Z</time></trkpt><trkpt lat="45.3870777" lon="9.1650907"><ele>101.0</ele><time>2026-04-03T06:07:41.851Z</time></trkpt><trkpt lat="45.3871799" lon="9.1647777"><ele>101.5</ele><time>2026-04-03T06:07:42.851Z</time></trkpt><trkpt lat="45.3872905" lon="9.1644505"><ele>102.0</ele><time>2026-04-03T06:07:43.85Z</time></trkpt><trkpt lat="45.3874103" lon="9.1641105"><ele>101.5</ele><time>2026-04-03T06:07:44.851Z</time></trkpt><trkpt lat="45.387531" lon="9.1637777"><ele>101.0</ele><time>2026-04-03T06:07:45.851Z</time></trkpt><trkpt lat="45.3876506" lon="9.1634501"><ele>101.5</ele><time>2026-04-03T06:07:46.851Z</time></trkpt><trkpt lat="45.3877772" lon="9.1630949"><ele>102.0</ele><time>2026-04-03T06:07:47.85Z</time></trkpt><trkpt lat="45.3878994" lon="9.1627472"><ele>102.0</ele><time>2026-04-03T06:07:48.851Z</time></trkpt><trkpt lat="45.3880212" lon="9.1623943"><ele>102.0</ele><time>2026-04-03T06:07:49.851Z</time></trkpt><trkpt lat="45.3881389" lon="9.162052"><ele>101.5</ele><time>2026-04-03T06:07:50.851Z</time></trkpt><trkpt lat="45.3882625" lon="9.1616968"><ele>101.0</ele><time>2026-04-03T06:07:51.851Z</time></trkpt><trkpt lat="45.388395" lon="9.1613306"><ele>101.0</ele><time>2026-04-03T06:07:52.851Z</time></trkpt><trkpt lat="45.388536" lon="9.1609683"><ele>101.0</ele><time>2026-04-03T06:07:53.85Z</time></trkpt><trkpt lat="45.3886851" lon="9.1606047"><ele>101.5</ele><time>2026-04-03T06:07:54.85Z</time></trkpt><trkpt lat="45.3888476" lon="9.1602125"><ele>102.0</ele><time>2026-04-03T06:07:55.851Z</time></trkpt><trkpt lat="45.3889963" lon="9.1598377"><ele>102.0</ele><time>2026-04-03T06:07:56.851Z</time></trkpt><trkpt lat="45.3891331" lon="9.1594707"><ele>102.0</ele><time>2026-04-03T06:07:57.851Z</time></trkpt><trkpt lat="45.3892565" lon="9.1591238"><ele>103.0</ele><time>2026-04-03T06:07:58.851Z</time></trkpt><trkpt lat="45.3893759" lon="9.1587833"><ele>104.0</ele><time>2026-04-03T06:07:59.85Z</time></trkpt><trkpt lat="45.3894941" lon="9.1584455"><ele>104.0</ele><time>2026-04-03T06:08:00.85Z</time></trkpt><trkpt lat="45.3896042" lon="9.1581331"><ele>104.0</ele><time>2026-04-03T06:08:01.85Z</time></trkpt><trkpt lat="45.3897062" lon="9.1578456"><ele>104.0</ele><time>2026-04-03T06:08:02.851Z</time></trkpt><trkpt lat="45.3898101" lon="9.1575519"><ele>104.0</ele><time>2026-04-03T06:08:03.85Z</time></trkpt><trkpt lat="45.3899066" lon="9.1572794"><ele>104.0</ele><time>2026-04-03T06:08:04.851Z</time></trkpt><trkpt lat="45.3900005" lon="9.1570144"><ele>104.0</ele><time>2026-04-03T06:08:05.85Z</time></trkpt><trkpt lat="45.3900914" lon="9.1567584"><ele>104.0</ele><time>2026-04-03T06:08:06.851Z</time></trkpt><trkpt lat="45.3901883" lon="9.1564954"><ele>104.0</ele><time>2026-04-03T06:08:07.85Z</time></trkpt><trkpt lat="45.3902951" lon="9.156222"><ele>104.0</ele><time>2026-04-03T06:08:08.85Z</time></trkpt><trkpt lat="45.390402" lon="9.1559568"><ele>104.0</ele><time>2026-04-03T06:08:09.85Z</time></trkpt><trkpt lat="45.3905056" lon="9.1556985"><ele>104.0</ele><time>2026-04-03T06:08:10.85Z</time></trkpt><trkpt lat="45.3906142" lon="9.1554217"><ele>104.66666666666666</ele><time>2026-04-03T06:08:11.85Z</time></trkpt><trkpt lat="45.3907165" lon="9.155152"><ele>105.33333333333334</ele><time>2026-04-03T06:08:12.851Z</time></trkpt><trkpt lat="45.3908151" lon="9.1548851"><ele>106.0</ele><time>2026-04-03T06:08:13.851Z</time></trkpt><trkpt lat="45.3909071" lon="9.1546362"><ele>105.66666666666667</ele><time>2026-04-03T06:08:14.851Z</time></trkpt><trkpt lat="45.3909999" lon="9.1543889"><ele>105.33333333333334</ele><time>2026-04-03T06:08:15.85Z</time></trkpt><trkpt lat="45.3910986" lon="9.1541432"><ele>105.0</ele><time>2026-04-03T06:08:16.851Z</time></trkpt><trkpt lat="45.3912028" lon="9.1539183"><ele>105.0</ele><time>2026-04-03T06:08:17.851Z</time></trkpt><trkpt lat="45.3913188" lon="9.1537214"><ele>105.0</ele><time>2026-04-03T06:08:18.85Z</time></trkpt><trkpt lat="45.3914624" lon="9.153545"><ele>105.0</ele><time>2026-04-03T06:08:19.851Z</time></trkpt><trkpt lat="45.3916154" lon="9.1534015"><ele>105.33333333333334</ele><time>2026-04-03T06:08:20.85Z</time></trkpt><trkpt lat="45.3917705" lon="9.153271"><ele>105.66666666666667</ele><time>2026-04-03T06:08:21.85Z</time></trkpt><trkpt lat="45.3919142" lon="9.1531394"><ele>106.0</ele><time>2026-04-03T06:08:22.85Z</time></trkpt><trkpt lat="45.3920464" lon="9.1529862"><ele>106.0</ele><time>2026-04-03T06:08:23.851Z</time></trkpt><trkpt lat="45.3921592" lon="9.1528004"><ele>106.0</ele><time>2026-04-03T06:08:24.85Z</time></trkpt><trkpt lat="45.3922435" lon="9.1525947"><ele>106.0</ele><time>2026-04-03T06:08:25.85Z</time></trkpt><trkpt lat="45.3923354" lon="9.1523135"><ele>105.66666666666667</ele><time>2026-04-03T06:08:27.207Z</time></trkpt><trkpt lat="45.3924143" lon="9.1519376"><ele>105.33333333333334</ele><time>2026-04-03T06:08:28.87Z</time></trkpt><trkpt lat="45.3924673" lon="9.1517182"><ele>105.0</ele><time>2026-04-03T06:08:29.87Z</time></trkpt><trkpt lat="45.392526" lon="9.1515099"><ele>105.75</ele><time>2026-04-03T06:08:30.87Z</time></trkpt><trkpt lat="45.3925891" lon="9.1513119"><ele>106.5</ele><time>2026-04-03T06:08:31.869Z</time></trkpt><trkpt lat="45.3926656" lon="9.151139"><ele>107.25</ele><time>2026-04-03T06:08:32.87Z</time></trkpt><trkpt lat="45.3927597" lon="9.1509982"><ele>108.0</ele><time>2026-04-03T06:08:33.87Z</time></trkpt><trkpt lat="45.3928513" lon="9.1509074"><ele>108.0</ele><time>2026-04-03T06:08:34.869Z</time></trkpt><trkpt lat="45.3929323" lon="9.1508612"><ele>108.0</ele><time>2026-04-03T06:08:35.87Z</time></trkpt><trkpt lat="45.3930064" lon="9.1508545"><ele>108.0</ele><time>2026-04-03T06:08:36.869Z</time></trkpt><trkpt lat="45.3930933" lon="9.1508653"><ele>108.0</ele><time>2026-04-03T06:08:37.87Z</time></trkpt><trkpt lat="45.3931845" lon="9.1508912"><ele>108.0</ele><time>2026-04-03T06:08:38.87Z</time></trkpt><trkpt lat="45.3932834" lon="9.1509273"><ele>108.0</ele><time>2026-04-03T06:08:39.87Z</time></trkpt><trkpt lat="45.3933884" lon="9.1509691"><ele>107.5</ele><time>2026-04-03T06:08:40.869Z</time></trkpt><trkpt lat="45.3935032" lon="9.1510176"><ele>107.0</ele><time>2026-04-03T06:08:41.869Z</time></trkpt><trkpt lat="45.3936277" lon="9.1510718"><ele>106.5</ele><time>2026-04-03T06:08:42.869Z</time></trkpt><trkpt lat="45.3937543" lon="9.1511285"><ele>106.0</ele><time>2026-04-03T06:08:43.869Z</time></trkpt><trkpt lat="45.3938766" lon="9.1511833"><ele>105.75</ele><time>2026-04-03T06:08:44.869Z</time></trkpt><trkpt lat="45.3939919" lon="9.1512372"><ele>105.5</ele><time>2026-04-03T06:08:45.87Z</time></trkpt><trkpt lat="45.3941041" lon="9.1512925"><ele>105.25</ele><time>2026-04-03T06:08:46.87Z</time></trkpt><trkpt lat="45.3942144" lon="9.1513503"><ele>105.0</ele><time>2026-04-03T06:08:47.869Z</time></trkpt><trkpt lat="45.3943219" lon="9.1514116"><ele>105.0</ele><time>2026-04-03T06:08:48.869Z</time></trkpt><trkpt lat="45.3944261" lon="9.1514772"><ele>105.0</ele><time>2026-04-03T06:08:49.87Z</time></trkpt><trkpt lat="45.3945269" lon="9.1515434"><ele>105.0</ele><time>2026-04-03T06:08:50.869Z</time></trkpt><trkpt lat="45.3946165" lon="9.1516028"><ele>105.0</ele><time>2026-04-03T06:08:51.869Z</time></trkpt><trkpt lat="45.3946909" lon="9.1516557"><ele>105.0</ele><time>2026-04-03T06:08:52.87Z</time></trkpt><trkpt lat="45.394751" lon="9.1516946"><ele>105.0</ele><time>2026-04-03T06:08:53.869Z</time></trkpt><trkpt lat="45.3948212" lon="9.1517389"><ele>105.0</ele><time>2026-04-03T06:08:55.87Z</time></trkpt><trkpt lat="45.3948914" lon="9.1517737"><ele>105.0</ele><time>2026-04-03T06:08:59.869Z</time></trkpt><trkpt lat="45.394952" lon="9.1518166"><ele>105.0</ele><time>2026-04-03T06:09:01.869Z</time></trkpt><trkpt lat="45.3950234" lon="9.1518603"><ele>105.0</ele><time>2026-04-03T06:09:05.87Z</time></trkpt><trkpt lat="45.3951174" lon="9.1519182"><ele>105.0</ele><time>2026-04-03T06:09:07.87Z</time></trkpt><trkpt lat="45.3952066" lon="9.1520245"><ele>105.0</ele><time>2026-04-03T06:09:09.87Z</time></trkpt><trkpt lat="45.3952785" lon="9.152172"><ele>105.0</ele><time>2026-04-03T06:09:11.87Z</time></trkpt><trkpt lat="45.3953277" lon="9.1522348"><ele>105.0</ele><time>2026-04-03T06:09:12.87Z</time></trkpt><trkpt lat="45.3953956" lon="9.1522713"><ele>105.0</ele><time>2026-04-03T06:09:13.87Z</time></trkpt><trkpt lat="45.3954629" lon="9.1522739"><ele>105.0</ele><time>2026-04-03T06:09:14.87Z</time></trkpt><trkpt lat="45.3955283" lon="9.1522428"><ele>105.0</ele><time>2026-04-03T06:09:15.869Z</time></trkpt><trkpt lat="45.3955805" lon="9.1521813"><ele>105.0</ele><time>2026-04-03T06:09:16.87Z</time></trkpt><trkpt lat="45.3956113" lon="9.1520996"><ele>105.0</ele><time>2026-04-03T06:09:17.87Z</time></trkpt><trkpt lat="45.3956221" lon="9.1520087"><ele>105.0</ele><time>2026-04-03T06:09:18.87Z</time></trkpt><trkpt lat="45.395615" lon="9.151918"><ele>105.0</ele><time>2026-04-03T06:09:19.87Z</time></trkpt><trkpt lat="45.3955815" lon="9.1518362"><ele>105.0</ele><time>2026-04-03T06:09:20.87Z</time></trkpt><trkpt lat="45.3955218" lon="9.1517714"><ele>105.0</ele><time>2026-04-03T06:09:21.87Z</time></trkpt><trkpt lat="45.3954411" lon="9.1517385"><ele>105.0</ele><time>2026-04-03T06:09:22.87Z</time></trkpt><trkpt lat="45.3953471" lon="9.1517362"><ele>105.0</ele><time>2026-04-03T06:09:23.87Z</time></trkpt><trkpt lat="45.3952455" lon="9.1517312"><ele>105.0</ele><time>2026-04-03T06:09:24.87Z</time></trkpt><trkpt lat="45.3951397" lon="9.1517119"><ele>105.0</ele><time>2026-04-03T06:09:25.87Z</time></trkpt><trkpt lat="45.3950341" lon="9.1516716"><ele>105.0</ele><time>2026-04-03T06:09:26.869Z</time></trkpt><trkpt lat="45.3949229" lon="9.1516156"><ele>105.0</ele><time>2026-04-03T06:09:27.87Z</time></trkpt><trkpt lat="45.3948084" lon="9.1515546"><ele>105.0</ele><time>2026-04-03T06:09:28.869Z</time></trkpt><trkpt lat="45.394688" lon="9.1514921"><ele>105.0</ele><time>2026-04-03T06:09:29.87Z</time></trkpt><trkpt lat="45.3945645" lon="9.1514258"><ele>105.0</ele><time>2026-04-03T06:09:30.87Z</time></trkpt><trkpt lat="45.3944366" lon="9.1513578"><ele>105.0</ele><time>2026-04-03T06:09:31.87Z</time></trkpt><trkpt lat="45.3943153" lon="9.1512933"><ele>105.0</ele><time>2026-04-03T06:09:32.87Z</time></trkpt><trkpt lat="45.3941926" lon="9.1512264"><ele>105.0</ele><time>2026-04-03T06:09:33.87Z</time></trkpt><trkpt lat="45.3940691" lon="9.1511586"><ele>105.0</ele><time>2026-04-03T06:09:34.87Z</time></trkpt><trkpt lat="45.3939444" lon="9.151087"><ele>105.0</ele><time>2026-04-03T06:09:35.87Z</time></trkpt><trkpt lat="45.3938211" lon="9.1510138"><ele>105.25</ele><time>2026-04-03T06:09:36.87Z</time></trkpt><trkpt lat="45.3936967" lon="9.1509422"><ele>105.5</ele><time>2026-04-03T06:09:37.87Z</time></trkpt><trkpt lat="45.3935706" lon="9.1508694"><ele>105.75</ele><time>2026-04-03T06:09:38.87Z</time></trkpt><trkpt lat="45.393444" lon="9.1507949"><ele>106.0</ele><time>2026-04-03T06:09:39.87Z</time></trkpt><trkpt lat="45.3933155" lon="9.1507203"><ele>106.25</ele><time>2026-04-03T06:09:40.87Z</time></trkpt><trkpt lat="45.3931863" lon="9.150646"><ele>106.5</ele><time>2026-04-03T06:09:41.87Z</time></trkpt><trkpt lat="45.3930567" lon="9.1505728"><ele>106.75</ele><time>2026-04-03T06:09:42.87Z</time></trkpt><trkpt lat="45.3929243" lon="9.1504972"><ele>107.0</ele><time>2026-04-03T06:09:43.87Z</time></trkpt><trkpt lat="45.3927902" lon="9.1504152"><ele>107.0</ele><time>2026-04-03T06:09:44.87Z</time></trkpt><trkpt lat="45.3926531" lon="9.1503318"><ele>107.0</ele><time>2026-04-03T06:09:45.87Z</time></trkpt><trkpt lat="45.3925136" lon="9.1502469"><ele>107.0</ele><time>2026-04-03T06:09:46.869Z</time></trkpt><trkpt lat="45.3923755" lon="9.1501689"><ele>107.0</ele><time>2026-04-03T06:09:47.869Z</time></trkpt><trkpt lat="45.3922358" lon="9.1500906"><ele>107.0</ele><time>2026-04-03T06:09:48.869Z</time></trkpt><trkpt lat="45.3920909" lon="9.1499995"><ele>107.0</ele><time>2026-04-03T06:09:49.87Z</time></trkpt><trkpt lat="45.3919504" lon="9.1499138"><ele>107.0</ele><time>2026-04-03T06:09:50.87Z</time></trkpt><trkpt lat="45.3918136" lon="9.1498271"><ele>106.66666666666666</ele><time>2026-04-03T06:09:51.869Z</time></trkpt><trkpt lat="45.3916684" lon="9.14974"><ele>106.33333333333334</ele><time>2026-04-03T06:09:52.87Z</time></trkpt><trkpt lat="45.3915272" lon="9.1496549"><ele>106.0</ele><time>2026-04-03T06:09:53.87Z</time></trkpt><trkpt lat="45.3913859" lon="9.149572"><ele>106.33333333333334</ele><time>2026-04-03T06:09:54.869Z</time></trkpt><trkpt lat="45.3912447" lon="9.1494885"><ele>106.66666666666666</ele><time>2026-04-03T06:09:55.87Z</time></trkpt><trkpt lat="45.3911061" lon="9.1494047"><ele>107.0</ele><time>2026-04-03T06:09:56.87Z</time></trkpt><trkpt lat="45.3909659" lon="9.1493233"><ele>107.0</ele><time>2026-04-03T06:09:57.87Z</time></trkpt><trkpt lat="45.3908297" lon="9.1492452"><ele>107.0</ele><time>2026-04-03T06:09:58.87Z</time></trkpt><trkpt lat="45.3906934" lon="9.1491644"><ele>107.0</ele><time>2026-04-03T06:09:59.87Z</time></trkpt><trkpt lat="45.3905605" lon="9.1490871"><ele>107.0</ele><time>2026-04-03T06:10:00.87Z</time></trkpt><trkpt lat="45.3904274" lon="9.1490091"><ele>106.25</ele><time>2026-04-03T06:10:01.87Z</time></trkpt><trkpt lat="45.3902959" lon="9.1489323"><ele>105.5</ele><time>2026-04-03T06:10:02.87Z</time></trkpt><trkpt lat="45.390171" lon="9.1488588"><ele>104.75</ele><time>2026-04-03T06:10:03.87Z</time></trkpt><trkpt lat="45.3900509" lon="9.1487889"><ele>104.0</ele><time>2026-04-03T06:10:04.87Z</time></trkpt><trkpt lat="45.3899392" lon="9.1487242"><ele>104.0</ele><time>2026-04-03T06:10:05.87Z</time></trkpt><trkpt lat="45.3898393" lon="9.1486663"><ele>104.0</ele><time>2026-04-03T06:10:06.87Z</time></trkpt><trkpt lat="45.3897571" lon="9.1486167"><ele>104.0</ele><time>2026-04-03T06:10:07.869Z</time></trkpt><trkpt lat="45.3896902" lon="9.1485754"><ele>104.0</ele><time>2026-04-03T06:10:08.87Z</time></trkpt><trkpt lat="45.3895893" lon="9.1485022"><ele>104.0</ele><time>2026-04-03T06:10:10.87Z</time></trkpt><trkpt lat="45.3895115" lon="9.1484134"><ele>103.83333333333333</ele><time>2026-04-03T06:10:12.87Z</time></trkpt><trkpt lat="45.3894156" lon="9.1482946"><ele>103.66666666666666</ele><time>2026-04-03T06:10:14.87Z</time></trkpt><trkpt lat="45.3893508" lon="9.1482372"><ele>103.5</ele><time>2026-04-03T06:10:15.87Z</time></trkpt><trkpt lat="45.3892779" lon="9.1482023"><ele>103.33333333333334</ele><time>2026-04-03T06:10:16.87Z</time></trkpt><trkpt lat="45.3892013" lon="9.1481914"><ele>103.16666666666667</ele><time>2026-04-03T06:10:17.869Z</time></trkpt><trkpt lat="45.3891264" lon="9.14819"><ele>103.0</ele><time>2026-04-03T06:10:18.869Z</time></trkpt><trkpt lat="45.3890518" lon="9.1481853"><ele>102.83333333333334</ele><time>2026-04-03T06:10:19.87Z</time></trkpt><trkpt lat="45.3889745" lon="9.1481706"><ele>102.66666666666667</ele><time>2026-04-03T06:10:20.87Z</time></trkpt><trkpt lat="45.3888965" lon="9.1481417"><ele>102.5</ele><time>2026-04-03T06:10:21.87Z</time></trkpt><trkpt lat="45.3888133" lon="9.1481075"><ele>102.33333333333334</ele><time>2026-04-03T06:10:22.87Z</time></trkpt><trkpt lat="45.3887281" lon="9.148058"><ele>102.16666666666667</ele><time>2026-04-03T06:10:23.869Z</time></trkpt><trkpt lat="45.3886398" lon="9.1480004"><ele>102.0</ele><time>2026-04-03T06:10:24.869Z</time></trkpt><trkpt lat="45.388549" lon="9.1479441"><ele>102.6</ele><time>2026-04-03T06:10:25.87Z</time></trkpt><trkpt lat="45.3884574" lon="9.147888"><ele>103.19999999999999</ele><time>2026-04-03T06:10:26.87Z</time></trkpt><trkpt lat="45.3883628" lon="9.1478335"><ele>103.8</ele><time>2026-04-03T06:10:27.87Z</time></trkpt><trkpt lat="45.3882649" lon="9.1477743"><ele>104.4</ele><time>2026-04-03T06:10:28.87Z</time></trkpt><trkpt lat="45.3881685" lon="9.1477168"><ele>105.0</ele><time>2026-04-03T06:10:29.869Z</time></trkpt><trkpt lat="45.3880675" lon="9.1476585"><ele>105.2</ele><time>2026-04-03T06:10:30.87Z</time></trkpt><trkpt lat="45.3879687" lon="9.1476005"><ele>105.4</ele><time>2026-04-03T06:10:31.87Z</time></trkpt><trkpt lat="45.3878679" lon="9.1475402"><ele>105.6</ele><time>2026-04-03T06:10:32.87Z</time></trkpt><trkpt lat="45.3877677" lon="9.1474786"><ele>105.8</ele><time>2026-04-03T06:10:33.87Z</time></trkpt><trkpt lat="45.3876674" lon="9.1474168"><ele>106.0</ele><time>2026-04-03T06:10:34.87Z</time></trkpt><trkpt lat="45.3875707" lon="9.147353"><ele>106.0</ele><time>2026-04-03T06:10:35.869Z</time></trkpt><trkpt lat="45.3874721" lon="9.1472887"><ele>106.0</ele><time>2026-04-03T06:10:36.87Z</time></trkpt><trkpt lat="45.3873812" lon="9.1472276"><ele>106.0</ele><time>2026-04-03T06:10:37.87Z</time></trkpt><trkpt lat="45.3872923" lon="9.1471768"><ele>106.0</ele><time>2026-04-03T06:10:38.87Z</time></trkpt><trkpt lat="45.3872079" lon="9.1471328"><ele>106.0</ele><time>2026-04-03T06:10:39.87Z</time></trkpt><trkpt lat="45.3871272" lon="9.1470901"><ele>106.0</ele><time>2026-04-03T06:10:40.87Z</time></trkpt><trkpt lat="45.387053" lon="9.1470429"><ele>106.0</ele><time>2026-04-03T06:10:41.87Z</time></trkpt><trkpt lat="45.3869855" lon="9.1469939"><ele>106.0</ele><time>2026-04-03T06:10:42.87Z</time></trkpt><trkpt lat="45.3869262" lon="9.1469321"><ele>106.0</ele><time>2026-04-03T06:10:43.869Z</time></trkpt><trkpt lat="45.3868766" lon="9.1468536"><ele>106.0</ele><time>2026-04-03T06:10:44.869Z</time></trkpt><trkpt lat="45.3868314" lon="9.1467736"><ele>106.0</ele><time>2026-04-03T06:10:45.869Z</time></trkpt><trkpt lat="45.3867774" lon="9.146707"><ele>106.0</ele><time>2026-04-03T06:10:46.87Z</time></trkpt><trkpt lat="45.3867114" lon="9.1466676"><ele>106.00000000000001</ele><time>2026-04-03T06:10:47.87Z</time></trkpt><trkpt lat="45.3866377" lon="9.1466499"><ele>106.0</ele><time>2026-04-03T06:10:48.869Z</time></trkpt><trkpt lat="45.3865611" lon="9.1466443"><ele>106.0</ele><time>2026-04-03T06:10:49.87Z</time></trkpt><trkpt lat="45.386479" lon="9.1466396"><ele>106.0</ele><time>2026-04-03T06:10:50.87Z</time></trkpt><trkpt lat="45.3863972" lon="9.1466293"><ele>106.00000000000001</ele><time>2026-04-03T06:10:51.87Z</time></trkpt><trkpt lat="45.3863116" lon="9.1466074"><ele>106.0</ele><time>2026-04-03T06:10:52.869Z</time></trkpt><trkpt lat="45.3862236" lon="9.1465754"><ele>105.6</ele><time>2026-04-03T06:10:53.87Z</time></trkpt><trkpt lat="45.3861365" lon="9.1465378"><ele>105.19999999999999</ele><time>2026-04-03T06:10:54.87Z</time></trkpt><trkpt lat="45.3860485" lon="9.1464925"><ele>104.80000000000001</ele><time>2026-04-03T06:10:55.87Z</time></trkpt><trkpt lat="45.3859564" lon="9.1464398"><ele>104.4</ele><time>2026-04-03T06:10:56.87Z</time></trkpt><trkpt lat="45.3858594" lon="9.1463834"><ele>104.0</ele><time>2026-04-03T06:10:57.869Z</time></trkpt><trkpt lat="45.3857606" lon="9.1463256"><ele>104.0</ele><time>2026-04-03T06:10:58.87Z</time></trkpt><trkpt lat="45.3856584" lon="9.1462665"><ele>104.0</ele><time>2026-04-03T06:10:59.87Z</time></trkpt><trkpt lat="45.3855537" lon="9.1462059"><ele>104.0</ele><time>2026-04-03T06:11:00.87Z</time></trkpt><trkpt lat="45.3854448" lon="9.1461442"><ele>104.0</ele><time>2026-04-03T06:11:01.87Z</time></trkpt><trkpt lat="45.3853319" lon="9.1460798"><ele>103.75</ele><time>2026-04-03T06:11:02.87Z</time></trkpt><trkpt lat="45.3852163" lon="9.146012"><ele>103.5</ele><time>2026-04-03T06:11:03.869Z</time></trkpt><trkpt lat="45.3850936" lon="9.1459416"><ele>103.25</ele><time>2026-04-03T06:11:04.87Z</time></trkpt><trkpt lat="45.3849688" lon="9.1458673"><ele>103.0</ele><time>2026-04-03T06:11:05.869Z</time></trkpt><trkpt lat="45.3848429" lon="9.1457951"><ele>103.0</ele><time>2026-04-03T06:11:06.869Z</time></trkpt><trkpt lat="45.3847159" lon="9.1457221"><ele>103.0</ele><time>2026-04-03T06:11:07.87Z</time></trkpt><trkpt lat="45.3845878" lon="9.1456474"><ele>103.0</ele><time>2026-04-03T06:11:08.87Z</time></trkpt><trkpt lat="45.3844589" lon="9.1455738"><ele>103.0</ele><time>2026-04-03T06:11:09.87Z</time></trkpt><trkpt lat="45.3843314" lon="9.1455015"><ele>102.75</ele><time>2026-04-03T06:11:10.87Z</time></trkpt><trkpt lat="45.3842058" lon="9.1454281"><ele>102.5</ele><time>2026-04-03T06:11:11.87Z</time></trkpt><trkpt lat="45.384082" lon="9.1453538"><ele>102.25</ele><time>2026-04-03T06:11:12.869Z</time></trkpt><trkpt lat="45.3839585" lon="9.1452807"><ele>102.0</ele><time>2026-04-03T06:11:13.87Z</time></trkpt><trkpt lat="45.3838355" lon="9.1452088"><ele>102.0</ele><time>2026-04-03T06:11:14.87Z</time></trkpt><trkpt lat="45.3837137" lon="9.1451361"><ele>102.0</ele><time>2026-04-03T06:11:15.87Z</time></trkpt><trkpt lat="45.3835901" lon="9.1450645"><ele>102.0</ele><time>2026-04-03T06:11:16.87Z</time></trkpt><trkpt lat="45.383466" lon="9.144994"><ele>102.0</ele><time>2026-04-03T06:11:17.87Z</time></trkpt><trkpt lat="45.383342" lon="9.1449203"><ele>102.0</ele><time>2026-04-03T06:11:18.869Z</time></trkpt><trkpt lat="45.3832169" lon="9.1448476"><ele>102.0</ele><time>2026-04-03T06:11:19.869Z</time></trkpt><trkpt lat="45.3830897" lon="9.1447763"><ele>102.0</ele><time>2026-04-03T06:11:20.87Z</time></trkpt><trkpt lat="45.382963" lon="9.1447035"><ele>102.0</ele><time>2026-04-03T06:11:21.869Z</time></trkpt><trkpt lat="45.3828338" lon="9.1446289"><ele>102.0</ele><time>2026-04-03T06:11:22.87Z</time></trkpt><trkpt lat="45.3827053" lon="9.1445522"><ele>102.0</ele><time>2026-04-03T06:11:23.87Z</time></trkpt><trkpt lat="45.3825787" lon="9.1444776"><ele>102.0</ele><time>2026-04-03T06:11:24.869Z</time></trkpt><trkpt lat="45.3824545" lon="9.1444084"><ele>102.0</ele><time>2026-04-03T06:11:25.87Z</time></trkpt><trkpt lat="45.3823331" lon="9.1443396"><ele>102.0</ele><time>2026-04-03T06:11:26.869Z</time></trkpt><trkpt lat="45.3822118" lon="9.1442714"><ele>102.0</ele><time>2026-04-03T06:11:27.87Z</time></trkpt><trkpt lat="45.3820934" lon="9.1442045"><ele>102.0</ele><time>2026-04-03T06:11:28.869Z</time></trkpt><trkpt lat="45.3819758" lon="9.1441336"><ele>102.0</ele><time>2026-04-03T06:11:29.87Z</time></trkpt><trkpt lat="45.3818579" lon="9.1440601"><ele>102.75</ele><time>2026-04-03T06:11:30.869Z</time></trkpt><trkpt lat="45.3817399" lon="9.1439891"><ele>103.5</ele><time>2026-04-03T06:11:31.87Z</time></trkpt><trkpt lat="45.3816227" lon="9.1439222"><ele>104.25</ele><time>2026-04-03T06:11:32.87Z</time></trkpt><trkpt lat="45.3815032" lon="9.143854"><ele>105.0</ele><time>2026-04-03T06:11:33.87Z</time></trkpt><trkpt lat="45.3813823" lon="9.1437876"><ele>104.5</ele><time>2026-04-03T06:11:34.87Z</time></trkpt><trkpt lat="45.3812612" lon="9.1437186"><ele>104.0</ele><time>2026-04-03T06:11:35.87Z</time></trkpt><trkpt lat="45.3811432" lon="9.1436509"><ele>103.5</ele><time>2026-04-03T06:11:36.87Z</time></trkpt><trkpt lat="45.3810307" lon="9.1435886"><ele>103.0</ele><time>2026-04-03T06:11:37.87Z</time></trkpt><trkpt lat="45.3809154" lon="9.1435195"><ele>103.0</ele><time>2026-04-03T06:11:38.87Z</time></trkpt><trkpt lat="45.3808034" lon="9.143457"><ele>103.0</ele><time>2026-04-03T06:11:39.87Z</time></trkpt><trkpt lat="45.3806925" lon="9.1433916"><ele>103.0</ele><time>2026-04-03T06:11:40.87Z</time></trkpt><trkpt lat="45.3805857" lon="9.1433284"><ele>103.0</ele><time>2026-04-03T06:11:41.87Z</time></trkpt><trkpt lat="45.3804847" lon="9.1432725"><ele>102.80000000000001</ele><time>2026-04-03T06:11:42.869Z</time></trkpt><trkpt lat="45.3803872" lon="9.1432197"><ele>102.6</ele><time>2026-04-03T06:11:43.869Z</time></trkpt><trkpt lat="45.3802942" lon="9.1431614"><ele>102.4</ele><time>2026-04-03T06:11:44.87Z</time></trkpt><trkpt lat="45.3802074" lon="9.1431118"><ele>102.19999999999999</ele><time>2026-04-03T06:11:45.87Z</time></trkpt><trkpt lat="45.3801313" lon="9.1430745"><ele>102.0</ele><time>2026-04-03T06:11:46.87Z</time></trkpt><trkpt lat="45.3800606" lon="9.1430463"><ele>102.33333333333333</ele><time>2026-04-03T06:11:47.87Z</time></trkpt><trkpt lat="45.3799942" lon="9.1430244"><ele>102.66666666666666</ele><time>2026-04-03T06:11:48.87Z</time></trkpt><trkpt lat="45.3799324" lon="9.1430056"><ele>103.0</ele><time>2026-04-03T06:11:49.87Z</time></trkpt><trkpt lat="45.3798167" lon="9.1429464"><ele>103.33333333333333</ele><time>2026-04-03T06:11:51.869Z</time></trkpt><trkpt lat="45.3797484" lon="9.1428969"><ele>103.66666666666666</ele><time>2026-04-03T06:11:52.869Z</time></trkpt><trkpt lat="45.3796734" lon="9.142854"><ele>104.0</ele><time>2026-04-03T06:11:53.87Z</time></trkpt><trkpt lat="45.3795929" lon="9.1428217"><ele>104.0</ele><time>2026-04-03T06:11:54.869Z</time></trkpt><trkpt lat="45.3795024" lon="9.1427989"><ele>104.0</ele><time>2026-04-03T06:11:55.87Z</time></trkpt><trkpt lat="45.3794113" lon="9.1427765"><ele>104.0</ele><time>2026-04-03T06:11:56.87Z</time></trkpt><trkpt lat="45.3793199" lon="9.1427421"><ele>104.0</ele><time>2026-04-03T06:11:57.869Z</time></trkpt><trkpt lat="45.3792289" lon="9.1426845"><ele>104.0</ele><time>2026-04-03T06:11:58.87Z</time></trkpt><trkpt lat="45.3791401" lon="9.1426098"><ele>104.0</ele><time>2026-04-03T06:11:59.87Z</time></trkpt><trkpt lat="45.3790511" lon="9.1425214"><ele>104.0</ele><time>2026-04-03T06:12:00.87Z</time></trkpt><trkpt lat="45.3789564" lon="9.1424351"><ele>104.0</ele><time>2026-04-03T06:12:01.87Z</time></trkpt><trkpt lat="45.3788576" lon="9.1423512"><ele>104.0</ele><time>2026-04-03T06:12:02.87Z</time></trkpt><trkpt lat="45.3787544" lon="9.1422759"><ele>102.75</ele><time>2026-04-03T06:12:03.869Z</time></trkpt><trkpt lat="45.3786471" lon="9.1422035"><ele>101.5</ele><time>2026-04-03T06:12:04.87Z</time></trkpt><trkpt lat="45.3785372" lon="9.1421344"><ele>100.25</ele><time>2026-04-03T06:12:05.87Z</time></trkpt><trkpt lat="45.3784236" lon="9.1420679"><ele>99.0</ele><time>2026-04-03T06:12:06.87Z</time></trkpt><trkpt lat="45.3783105" lon="9.1420064"><ele>99.0</ele><time>2026-04-03T06:12:07.869Z</time></trkpt><trkpt lat="45.3781968" lon="9.1419415"><ele>99.0</ele><time>2026-04-03T06:12:08.87Z</time></trkpt><trkpt lat="45.3780811" lon="9.1418769"><ele>99.0</ele><time>2026-04-03T06:12:09.869Z</time></trkpt><trkpt lat="45.3779639" lon="9.1418103"><ele>99.0</ele><time>2026-04-03T06:12:10.87Z</time></trkpt><trkpt lat="45.3778443" lon="9.1417412"><ele>99.0</ele><time>2026-04-03T06:12:11.869Z</time></trkpt><trkpt lat="45.3777284" lon="9.1416804"><ele>99.0</ele><time>2026-04-03T06:12:12.87Z</time></trkpt><trkpt lat="45.377609" lon="9.1416138"><ele>99.0</ele><time>2026-04-03T06:12:13.87Z</time></trkpt><trkpt lat="45.3774904" lon="9.1415472"><ele>99.0</ele><time>2026-04-03T06:12:14.87Z</time></trkpt><trkpt lat="45.3773749" lon="9.1414793"><ele>99.0</ele><time>2026-04-03T06:12:15.87Z</time></trkpt><trkpt lat="45.3772595" lon="9.1414109"><ele>99.0</ele><time>2026-04-03T06:12:16.87Z</time></trkpt><trkpt lat="45.3771455" lon="9.1413405"><ele>99.0</ele><time>2026-04-03T06:12:17.87Z</time></trkpt><trkpt lat="45.3770298" lon="9.1412733"><ele>99.0</ele><time>2026-04-03T06:12:18.869Z</time></trkpt><trkpt lat="45.3769134" lon="9.1412036"><ele>99.25</ele><time>2026-04-03T06:12:19.87Z</time></trkpt><trkpt lat="45.3767973" lon="9.1411374"><ele>99.5</ele><time>2026-04-03T06:12:20.87Z</time></trkpt><trkpt lat="45.3766773" lon="9.1410671"><ele>99.75</ele><time>2026-04-03T06:12:21.87Z</time></trkpt><trkpt lat="45.3765568" lon="9.1409968"><ele>100.0</ele><time>2026-04-03T06:12:22.869Z</time></trkpt><trkpt lat="45.3764337" lon="9.140926"><ele>100.25</ele><time>2026-04-03T06:12:23.87Z</time></trkpt><trkpt lat="45.3763099" lon="9.1408567"><ele>100.5</ele><time>2026-04-03T06:12:24.869Z</time></trkpt><trkpt lat="45.3761857" lon="9.1407837"><ele>100.75</ele><time>2026-04-03T06:12:25.87Z</time></trkpt><trkpt lat="45.3760608" lon="9.1407138"><ele>101.0</ele><time>2026-04-03T06:12:26.87Z</time></trkpt><trkpt lat="45.3759385" lon="9.1406466"><ele>101.0</ele><time>2026-04-03T06:12:27.87Z</time></trkpt><trkpt lat="45.3758195" lon="9.1405815"><ele>101.0</ele><time>2026-04-03T06:12:28.869Z</time></trkpt><trkpt lat="45.3757058" lon="9.1405203"><ele>101.0</ele><time>2026-04-03T06:12:29.87Z</time></trkpt><trkpt lat="45.3755991" lon="9.1404589"><ele>101.0</ele><time>2026-04-03T06:12:30.87Z</time></trkpt><trkpt lat="45.3754973" lon="9.1403959"><ele>100.99999999999999</ele><time>2026-04-03T06:12:31.87Z</time></trkpt><trkpt lat="45.3754005" lon="9.1403418"><ele>101.0</ele><time>2026-04-03T06:12:32.87Z</time></trkpt><trkpt lat="45.3753139" lon="9.1402954"><ele>101.0</ele><time>2026-04-03T06:12:33.869Z</time></trkpt><trkpt lat="45.3752314" lon="9.1402492"><ele>101.0</ele><time>2026-04-03T06:12:34.869Z</time></trkpt><trkpt lat="45.3751573" lon="9.1402087"><ele>100.99999999999999</ele><time>2026-04-03T06:12:35.87Z</time></trkpt><trkpt lat="45.3750947" lon="9.1401741"><ele>101.0</ele><time>2026-04-03T06:12:36.87Z</time></trkpt><trkpt lat="45.3750115" lon="9.1401294"><ele>100.99999999999999</ele><time>2026-04-03T06:12:38.87Z</time></trkpt><trkpt lat="45.3749462" lon="9.1400902"><ele>101.0</ele><time>2026-04-03T06:12:45.87Z</time></trkpt><trkpt lat="45.3748624" lon="9.1400321"><ele>101.0</ele><time>2026-04-03T06:12:47.869Z</time></trkpt><trkpt lat="45.3747724" lon="9.1399777"><ele>101.0</ele><time>2026-04-03T06:12:49.87Z</time></trkpt><trkpt lat="45.3746761" lon="9.1399182"><ele>100.99999999999999</ele><time>2026-04-03T06:12:51.87Z</time></trkpt><trkpt lat="45.3746158" lon="9.1398844"><ele>101.0</ele><time>2026-04-03T06:12:52.87Z</time></trkpt><trkpt lat="45.3745509" lon="9.1398452"><ele>100.83333333333333</ele><time>2026-04-03T06:12:53.87Z</time></trkpt><trkpt lat="45.3744805" lon="9.1398009"><ele>100.66666666666666</ele><time>2026-04-03T06:12:54.87Z</time></trkpt><trkpt lat="45.3743999" lon="9.1397491"><ele>100.5</ele><time>2026-04-03T06:12:55.87Z</time></trkpt><trkpt lat="45.3743132" lon="9.1397004"><ele>100.33333333333334</ele><time>2026-04-03T06:12:56.87Z</time></trkpt><trkpt lat="45.3742288" lon="9.1396514"><ele>100.16666666666667</ele><time>2026-04-03T06:12:57.869Z</time></trkpt><trkpt lat="45.3741445" lon="9.1396048"><ele>100.0</ele><time>2026-04-03T06:12:58.87Z</time></trkpt><trkpt lat="45.3740635" lon="9.1395582"><ele>100.0</ele><time>2026-04-03T06:12:59.87Z</time></trkpt><trkpt lat="45.3739808" lon="9.1395114"><ele>100.0</ele><time>2026-04-03T06:13:00.87Z</time></trkpt><trkpt lat="45.3738953" lon="9.1394619"><ele>100.0</ele><time>2026-04-03T06:13:01.87Z</time></trkpt><trkpt lat="45.3738073" lon="9.1394148"><ele>100.0</ele><time>2026-04-03T06:13:02.87Z</time></trkpt><trkpt lat="45.3737166" lon="9.1393649"><ele>100.0</ele><time>2026-04-03T06:13:03.87Z</time></trkpt><trkpt lat="45.3736209" lon="9.1393161"><ele>100.4</ele><time>2026-04-03T06:13:04.87Z</time></trkpt><trkpt lat="45.3735235" lon="9.1392634"><ele>100.8</ele><time>2026-04-03T06:13:05.87Z</time></trkpt><trkpt lat="45.3734209" lon="9.1392069"><ele>101.19999999999999</ele><time>2026-04-03T06:13:06.87Z</time></trkpt><trkpt lat="45.3733148" lon="9.139147"><ele>101.6</ele><time>2026-04-03T06:13:07.87Z</time></trkpt><trkpt lat="45.3732081" lon="9.1390808"><ele>102.0</ele><time>2026-04-03T06:13:08.869Z</time></trkpt><trkpt lat="45.3730993" lon="9.1390175"><ele>101.5</ele><time>2026-04-03T06:13:09.87Z</time></trkpt><trkpt lat="45.372988" lon="9.1389527"><ele>101.0</ele><time>2026-04-03T06:13:10.869Z</time></trkpt><trkpt lat="45.3728767" lon="9.138887"><ele>100.5</ele><time>2026-04-03T06:13:11.87Z</time></trkpt><trkpt lat="45.3727617" lon="9.1388231"><ele>100.0</ele><time>2026-04-03T06:13:12.87Z</time></trkpt><trkpt lat="45.3726505" lon="9.1387592"><ele>100.00000000000001</ele><time>2026-04-03T06:13:13.87Z</time></trkpt><trkpt lat="45.3725449" lon="9.1387004"><ele>100.0</ele><time>2026-04-03T06:13:14.87Z</time></trkpt><trkpt lat="45.3724525" lon="9.1386505"><ele>100.0</ele><time>2026-04-03T06:13:15.869Z</time></trkpt><trkpt lat="45.3723776" lon="9.1386074"><ele>100.0</ele><time>2026-04-03T06:13:16.869Z</time></trkpt><trkpt lat="45.3723095" lon="9.1385662"><ele>100.00000000000001</ele><time>2026-04-03T06:13:17.869Z</time></trkpt><trkpt lat="45.3722464" lon="9.1385268"><ele>100.0</ele><time>2026-04-03T06:13:18.87Z</time></trkpt><trkpt lat="45.3721801" lon="9.1384754"><ele>99.6</ele><time>2026-04-03T06:13:19.87Z</time></trkpt><trkpt lat="45.3721076" lon="9.1384243"><ele>99.2</ele><time>2026-04-03T06:13:20.869Z</time></trkpt><trkpt lat="45.372026" lon="9.1383675"><ele>98.80000000000001</ele><time>2026-04-03T06:13:21.869Z</time></trkpt><trkpt lat="45.3719389" lon="9.1383138"><ele>98.4</ele><time>2026-04-03T06:13:22.87Z</time></trkpt><trkpt lat="45.3718498" lon="9.1382636"><ele>98.0</ele><time>2026-04-03T06:13:23.869Z</time></trkpt><trkpt lat="45.3717582" lon="9.1382141"><ele>98.0</ele><time>2026-04-03T06:13:24.87Z</time></trkpt><trkpt lat="45.3716691" lon="9.1381648"><ele>98.0</ele><time>2026-04-03T06:13:25.869Z</time></trkpt><trkpt lat="45.3715761" lon="9.1381112"><ele>98.0</ele><time>2026-04-03T06:13:26.869Z</time></trkpt><trkpt lat="45.3714797" lon="9.1380564"><ele>98.0</ele><time>2026-04-03T06:13:27.87Z</time></trkpt><trkpt lat="45.3713782" lon="9.1379978"><ele>98.0</ele><time>2026-04-03T06:13:28.87Z</time></trkpt><trkpt lat="45.3712745" lon="9.1379348"><ele>98.0</ele><time>2026-04-03T06:13:29.869Z</time></trkpt><trkpt lat="45.3711672" lon="9.1378712"><ele>98.0</ele><time>2026-04-03T06:13:30.87Z</time></trkpt><trkpt lat="45.371058" lon="9.1378064"><ele>98.0</ele><time>2026-04-03T06:13:31.87Z</time></trkpt><trkpt lat="45.3709525" lon="9.1377448"><ele>98.0</ele><time>2026-04-03T06:13:32.87Z</time></trkpt><trkpt lat="45.370846" lon="9.1376788"><ele>98.0</ele><time>2026-04-03T06:13:33.87Z</time></trkpt><trkpt lat="45.3707374" lon="9.1376152"><ele>98.0</ele><time>2026-04-03T06:13:34.87Z</time></trkpt><trkpt lat="45.3706292" lon="9.1375542"><ele>98.0</ele><time>2026-04-03T06:13:35.87Z</time></trkpt><trkpt lat="45.37052" lon="9.1374918"><ele>98.0</ele><time>2026-04-03T06:13:36.869Z</time></trkpt><trkpt lat="45.3704112" lon="9.1374302"><ele>98.75</ele><time>2026-04-03T06:13:37.87Z</time></trkpt><trkpt lat="45.3703016" lon="9.1373659"><ele>99.5</ele><time>2026-04-03T06:13:38.869Z</time></trkpt><trkpt lat="45.3701906" lon="9.137304"><ele>100.25</ele><time>2026-04-03T06:13:39.87Z</time></trkpt><trkpt lat="45.3700794" lon="9.1372399"><ele>101.0</ele><time>2026-04-03T06:13:40.87Z</time></trkpt><trkpt lat="45.3699678" lon="9.1371749"><ele>101.0</ele><time>2026-04-03T06:13:41.87Z</time></trkpt><trkpt lat="45.3698564" lon="9.1371105"><ele>101.0</ele><time>2026-04-03T06:13:42.869Z</time></trkpt><trkpt lat="45.3697468" lon="9.1370506"><ele>101.0</ele><time>2026-04-03T06:13:43.87Z</time></trkpt><trkpt lat="45.3696314" lon="9.1369854"><ele>101.0</ele><time>2026-04-03T06:13:44.869Z</time></trkpt><trkpt lat="45.3695163" lon="9.136917"><ele>101.0</ele><time>2026-04-03T06:13:45.869Z</time></trkpt><trkpt lat="45.3694027" lon="9.136852"><ele>101.0</ele><time>2026-04-03T06:13:46.87Z</time></trkpt><trkpt lat="45.3692911" lon="9.1367878"><ele>101.0</ele><time>2026-04-03T06:13:47.87Z</time></trkpt><trkpt lat="45.3691779" lon="9.1367197"><ele>101.0</ele><time>2026-04-03T06:13:48.87Z</time></trkpt><trkpt lat="45.3690652" lon="9.1366541"><ele>101.0</ele><time>2026-04-03T06:13:49.87Z</time></trkpt><trkpt lat="45.3689538" lon="9.1365883"><ele>101.0</ele><time>2026-04-03T06:13:50.87Z</time></trkpt><trkpt lat="45.3688407" lon="9.1365231"><ele>101.0</ele><time>2026-04-03T06:13:51.869Z</time></trkpt><trkpt lat="45.3687245" lon="9.1364521"><ele>101.0</ele><time>2026-04-03T06:13:52.87Z</time></trkpt><trkpt lat="45.3686037" lon="9.1363837"><ele>100.5</ele><time>2026-04-03T06:13:53.87Z</time></trkpt><trkpt lat="45.368486" lon="9.1363157"><ele>100.0</ele><time>2026-04-03T06:13:54.87Z</time></trkpt><trkpt lat="45.3683654" lon="9.1362411"><ele>99.5</ele><time>2026-04-03T06:13:55.87Z</time></trkpt><trkpt lat="45.3682433" lon="9.1361692"><ele>99.0</ele><time>2026-04-03T06:13:56.87Z</time></trkpt><trkpt lat="45.3681216" lon="9.1360974"><ele>98.75</ele><time>2026-04-03T06:13:57.87Z</time></trkpt><trkpt lat="45.3679969" lon="9.1360267"><ele>98.5</ele><time>2026-04-03T06:13:58.87Z</time></trkpt><trkpt lat="45.367872" lon="9.1359547"><ele>98.25</ele><time>2026-04-03T06:13:59.87Z</time></trkpt><trkpt lat="45.3677453" lon="9.135886"><ele>98.0</ele><time>2026-04-03T06:14:00.87Z</time></trkpt><trkpt lat="45.3676183" lon="9.1358107"><ele>98.0</ele><time>2026-04-03T06:14:01.87Z</time></trkpt><trkpt lat="45.3674901" lon="9.1357362"><ele>98.0</ele><time>2026-04-03T06:14:02.869Z</time></trkpt><trkpt lat="45.3673621" lon="9.1356607"><ele>98.0</ele><time>2026-04-03T06:14:03.869Z</time></trkpt><trkpt lat="45.3672339" lon="9.1355883"><ele>98.0</ele><time>2026-04-03T06:14:04.87Z</time></trkpt><trkpt lat="45.3671053" lon="9.1355159"><ele>97.75</ele><time>2026-04-03T06:14:05.869Z</time></trkpt><trkpt lat="45.3669794" lon="9.1354436"><ele>97.5</ele><time>2026-04-03T06:14:06.869Z</time></trkpt><trkpt lat="45.3668589" lon="9.1353787"><ele>97.25</ele><time>2026-04-03T06:14:07.869Z</time></trkpt><trkpt lat="45.36674" lon="9.1353152"><ele>97.0</ele><time>2026-04-03T06:14:08.869Z</time></trkpt><trkpt lat="45.3666221" lon="9.1352547"><ele>97.0</ele><time>2026-04-03T06:14:09.869Z</time></trkpt><trkpt lat="45.3665098" lon="9.135204"><ele>97.0</ele><time>2026-04-03T06:14:10.87Z</time></trkpt><trkpt lat="45.3664021" lon="9.1351661"><ele>97.0</ele><time>2026-04-03T06:14:11.87Z</time></trkpt><trkpt lat="45.3663045" lon="9.1351336"><ele>97.0</ele><time>2026-04-03T06:14:12.87Z</time></trkpt><trkpt lat="45.3662172" lon="9.1351056"><ele>97.0</ele><time>2026-04-03T06:14:13.87Z</time></trkpt><trkpt lat="45.3661405" lon="9.1350797"><ele>97.0</ele><time>2026-04-03T06:14:14.869Z</time></trkpt><trkpt lat="45.3660721" lon="9.1350526"><ele>97.0</ele><time>2026-04-03T06:14:15.869Z</time></trkpt><trkpt lat="45.3660097" lon="9.1350122"><ele>97.0</ele><time>2026-04-03T06:14:16.87Z</time></trkpt><trkpt lat="45.3659509" lon="9.1349758"><ele>97.0</ele><time>2026-04-03T06:14:17.87Z</time></trkpt><trkpt lat="45.3658884" lon="9.1349275"><ele>97.0</ele><time>2026-04-03T06:14:18.87Z</time></trkpt><trkpt lat="45.3658213" lon="9.1348686"><ele>97.0</ele><time>2026-04-03T06:14:19.87Z</time></trkpt><trkpt lat="45.3657515" lon="9.1348115"><ele>97.0</ele><time>2026-04-03T06:14:20.869Z</time></trkpt><trkpt lat="45.3656745" lon="9.134767"><ele>97.0</ele><time>2026-04-03T06:14:21.87Z</time></trkpt><trkpt lat="45.3655897" lon="9.1347451"><ele>97.0</ele><time>2026-04-03T06:14:22.869Z</time></trkpt><trkpt lat="45.3655016" lon="9.134729"><ele>97.0</ele><time>2026-04-03T06:14:23.87Z</time></trkpt><trkpt lat="45.3654116" lon="9.1347082"><ele>97.0</ele><time>2026-04-03T06:14:24.869Z</time></trkpt><trkpt lat="45.3653198" lon="9.134672"><ele>97.0</ele><time>2026-04-03T06:14:25.87Z</time></trkpt><trkpt lat="45.3652253" lon="9.1346183"><ele>97.5</ele><time>2026-04-03T06:14:26.87Z</time></trkpt><trkpt lat="45.3651254" lon="9.1345539"><ele>98.0</ele><time>2026-04-03T06:14:27.87Z</time></trkpt><trkpt lat="45.3650214" lon="9.1344849"><ele>98.5</ele><time>2026-04-03T06:14:28.869Z</time></trkpt><trkpt lat="45.3649126" lon="9.1344157"><ele>99.0</ele><time>2026-04-03T06:14:29.87Z</time></trkpt><trkpt lat="45.3648026" lon="9.1343465"><ele>99.25</ele><time>2026-04-03T06:14:30.869Z</time></trkpt><trkpt lat="45.3646898" lon="9.1342769"><ele>99.5</ele><time>2026-04-03T06:14:31.869Z</time></trkpt><trkpt lat="45.3645789" lon="9.1342083"><ele>99.75</ele><time>2026-04-03T06:14:32.869Z</time></trkpt><trkpt lat="45.3644673" lon="9.1341384"><ele>100.0</ele><time>2026-04-03T06:14:33.87Z</time></trkpt><trkpt lat="45.3643547" lon="9.134066"><ele>99.25</ele><time>2026-04-03T06:14:34.869Z</time></trkpt><trkpt lat="45.364239" lon="9.1339901"><ele>98.5</ele><time>2026-04-03T06:14:35.87Z</time></trkpt><trkpt lat="45.3641218" lon="9.1339159"><ele>97.75</ele><time>2026-04-03T06:14:36.87Z</time></trkpt><trkpt lat="45.3640045" lon="9.1338472"><ele>97.0</ele><time>2026-04-03T06:14:37.87Z</time></trkpt><trkpt lat="45.3638889" lon="9.1337862"><ele>97.0</ele><time>2026-04-03T06:14:38.87Z</time></trkpt><trkpt lat="45.3637744" lon="9.1337386"><ele>97.0</ele><time>2026-04-03T06:14:39.87Z</time></trkpt><trkpt lat="45.3636651" lon="9.1337043"><ele>97.0</ele><time>2026-04-03T06:14:40.869Z</time></trkpt><trkpt lat="45.3635712" lon="9.1336792"><ele>97.0</ele><time>2026-04-03T06:14:41.87Z</time></trkpt><trkpt lat="45.3634885" lon="9.1336633"><ele>97.0</ele><time>2026-04-03T06:14:42.87Z</time></trkpt><trkpt lat="45.3634213" lon="9.1336481"><ele>97.0</ele><time>2026-04-03T06:14:43.869Z</time></trkpt><trkpt lat="45.3633098" lon="9.1336105"><ele>97.0</ele><time>2026-04-03T06:14:45.87Z</time></trkpt><trkpt lat="45.3631948" lon="9.133526"><ele>97.0</ele><time>2026-04-03T06:14:47.87Z</time></trkpt><trkpt lat="45.3631286" lon="9.1334758"><ele>97.0</ele><time>2026-04-03T06:14:48.87Z</time></trkpt><trkpt lat="45.3630522" lon="9.1334206"><ele>97.0</ele><time>2026-04-03T06:14:49.87Z</time></trkpt><trkpt lat="45.3629653" lon="9.1333707"><ele>97.0</ele><time>2026-04-03T06:14:50.87Z</time></trkpt><trkpt lat="45.3628726" lon="9.1333261"><ele>97.0</ele><time>2026-04-03T06:14:51.87Z</time></trkpt><trkpt lat="45.3627801" lon="9.1332649"><ele>97.0</ele><time>2026-04-03T06:14:52.87Z</time></trkpt><trkpt lat="45.3626906" lon="9.1331846"><ele>97.0</ele><time>2026-04-03T06:14:53.87Z</time></trkpt><trkpt lat="45.3626087" lon="9.1331022"><ele>97.0</ele><time>2026-04-03T06:14:54.87Z</time></trkpt><trkpt lat="45.3625281" lon="9.1330137"><ele>97.0</ele><time>2026-04-03T06:14:55.87Z</time></trkpt><trkpt lat="45.3624449" lon="9.1329263"><ele>97.0</ele><time>2026-04-03T06:14:56.87Z</time></trkpt><trkpt lat="45.3623553" lon="9.1328452"><ele>97.0</ele><time>2026-04-03T06:14:57.869Z</time></trkpt><trkpt lat="45.3622557" lon="9.132766"><ele>97.0</ele><time>2026-04-03T06:14:58.87Z</time></trkpt><trkpt lat="45.3621373" lon="9.1326881"><ele>97.5</ele><time>2026-04-03T06:14:59.87Z</time></trkpt><trkpt lat="45.362018" lon="9.1326164"><ele>98.0</ele><time>2026-04-03T06:15:00.869Z</time></trkpt><trkpt lat="45.3619004" lon="9.1325472"><ele>98.5</ele><time>2026-04-03T06:15:01.87Z</time></trkpt><trkpt lat="45.3617859" lon="9.1324817"><ele>99.0</ele><time>2026-04-03T06:15:02.869Z</time></trkpt><trkpt lat="45.3616736" lon="9.1324157"><ele>98.75</ele><time>2026-04-03T06:15:03.87Z</time></trkpt><trkpt lat="45.3615624" lon="9.1323511"><ele>98.5</ele><time>2026-04-03T06:15:04.87Z</time></trkpt><trkpt lat="45.3614491" lon="9.1322837"><ele>98.25</ele><time>2026-04-03T06:15:05.869Z</time></trkpt><trkpt lat="45.3613342" lon="9.1322164"><ele>98.0</ele><time>2026-04-03T06:15:06.869Z</time></trkpt><trkpt lat="45.3612185" lon="9.1321493"><ele>98.0</ele><time>2026-04-03T06:15:07.87Z</time></trkpt><trkpt lat="45.3611003" lon="9.1320814"><ele>98.0</ele><time>2026-04-03T06:15:08.87Z</time></trkpt><trkpt lat="45.3609807" lon="9.1320122"><ele>98.0</ele><time>2026-04-03T06:15:09.869Z</time></trkpt><trkpt lat="45.3608582" lon="9.1319433"><ele>98.0</ele><time>2026-04-03T06:15:10.87Z</time></trkpt><trkpt lat="45.3607342" lon="9.1318694"><ele>98.0</ele><time>2026-04-03T06:15:11.87Z</time></trkpt><trkpt lat="45.3606066" lon="9.1317955"><ele>98.0</ele><time>2026-04-03T06:15:12.869Z</time></trkpt><trkpt lat="45.3604769" lon="9.1317209"><ele>98.0</ele><time>2026-04-03T06:15:13.869Z</time></trkpt><trkpt lat="45.3603446" lon="9.1316474"><ele>98.0</ele><time>2026-04-03T06:15:14.87Z</time></trkpt><trkpt lat="45.3602128" lon="9.1315712"><ele>97.75</ele><time>2026-04-03T06:15:15.87Z</time></trkpt><trkpt lat="45.360082" lon="9.1314969"><ele>97.5</ele><time>2026-04-03T06:15:16.869Z</time></trkpt><trkpt lat="45.3599493" lon="9.1314217"><ele>97.25</ele><time>2026-04-03T06:15:17.87Z</time></trkpt><trkpt lat="45.3598184" lon="9.131343"><ele>97.0</ele><time>2026-04-03T06:15:18.87Z</time></trkpt><trkpt lat="45.3596873" lon="9.1312663"><ele>97.0</ele><time>2026-04-03T06:15:19.869Z</time></trkpt><trkpt lat="45.3595543" lon="9.1311863"><ele>97.0</ele><time>2026-04-03T06:15:20.87Z</time></trkpt><trkpt lat="45.3594229" lon="9.1311096"><ele>97.0</ele><time>2026-04-03T06:15:21.869Z</time></trkpt><trkpt lat="45.359294" lon="9.1310341"><ele>97.0</ele><time>2026-04-03T06:15:22.87Z</time></trkpt><trkpt lat="45.3591657" lon="9.1309619"><ele>97.0</ele><time>2026-04-03T06:15:23.869Z</time></trkpt><trkpt lat="45.359041" lon="9.1308921"><ele>97.0</ele><time>2026-04-03T06:15:24.87Z</time></trkpt><trkpt lat="45.3589161" lon="9.1308165"><ele>97.0</ele><time>2026-04-03T06:15:25.87Z</time></trkpt><trkpt lat="45.3587923" lon="9.1307424"><ele>97.0</ele><time>2026-04-03T06:15:26.87Z</time></trkpt><trkpt lat="45.3586728" lon="9.1306773"><ele>97.19999999999999</ele><time>2026-04-03T06:15:27.869Z</time></trkpt><trkpt lat="45.3585644" lon="9.1306152"><ele>97.4</ele><time>2026-04-03T06:15:28.87Z</time></trkpt><trkpt lat="45.358475" lon="9.1305621"><ele>97.6</ele><time>2026-04-03T06:15:29.87Z</time></trkpt><trkpt lat="45.3583975" lon="9.1305076"><ele>97.80000000000001</ele><time>2026-04-03T06:15:30.87Z</time></trkpt><trkpt lat="45.3583246" lon="9.130465"><ele>98.0</ele><time>2026-04-03T06:15:31.87Z</time></trkpt><trkpt lat="45.3582495" lon="9.1304196"><ele>98.0</ele><time>2026-04-03T06:15:32.87Z</time></trkpt><trkpt lat="45.3581683" lon="9.1303719"><ele>98.0</ele><time>2026-04-03T06:15:33.869Z</time></trkpt><trkpt lat="45.3580792" lon="9.1303224"><ele>98.0</ele><time>2026-04-03T06:15:34.87Z</time></trkpt><trkpt lat="45.3579835" lon="9.1302703"><ele>98.0</ele><time>2026-04-03T06:15:35.869Z</time></trkpt><trkpt lat="45.3578914" lon="9.1302159"><ele>98.0</ele><time>2026-04-03T06:15:36.87Z</time></trkpt><trkpt lat="45.3578002" lon="9.1301626"><ele>98.5</ele><time>2026-04-03T06:15:37.87Z</time></trkpt><trkpt lat="45.3577088" lon="9.1301137"><ele>99.0</ele><time>2026-04-03T06:15:38.869Z</time></trkpt><trkpt lat="45.3576061" lon="9.1300524"><ele>99.5</ele><time>2026-04-03T06:15:39.87Z</time></trkpt><trkpt lat="45.3574954" lon="9.1299877"><ele>100.0</ele><time>2026-04-03T06:15:40.87Z</time></trkpt><trkpt lat="45.3573787" lon="9.1299191"><ele>100.0</ele><time>2026-04-03T06:15:41.869Z</time></trkpt><trkpt lat="45.3572554" lon="9.1298461"><ele>100.0</ele><time>2026-04-03T06:15:42.869Z</time></trkpt><trkpt lat="45.3571271" lon="9.1297761"><ele>100.0</ele><time>2026-04-03T06:15:43.869Z</time></trkpt><trkpt lat="45.3569904" lon="9.1297021"><ele>100.0</ele><time>2026-04-03T06:15:44.87Z</time></trkpt><trkpt lat="45.3568494" lon="9.1296222"><ele>100.0</ele><time>2026-04-03T06:15:45.869Z</time></trkpt><trkpt lat="45.3567098" lon="9.1295478"><ele>100.0</ele><time>2026-04-03T06:15:46.87Z</time></trkpt><trkpt lat="45.3565684" lon="9.1294705"><ele>100.0</ele><time>2026-04-03T06:15:47.869Z</time></trkpt><trkpt lat="45.3564272" lon="9.1293864"><ele>99.33333333333334</ele><time>2026-04-03T06:15:48.869Z</time></trkpt><trkpt lat="45.3562817" lon="9.1292991"><ele>98.66666666666666</ele><time>2026-04-03T06:15:49.87Z</time></trkpt><trkpt lat="45.3561335" lon="9.1292101"><ele>98.0</ele><time>2026-04-03T06:15:50.869Z</time></trkpt><trkpt lat="45.3559858" lon="9.129122"><ele>98.0</ele><time>2026-04-03T06:15:51.87Z</time></trkpt><trkpt lat="45.3558373" lon="9.1290334"><ele>98.0</ele><time>2026-04-03T06:15:52.869Z</time></trkpt><trkpt lat="45.3556902" lon="9.1289466"><ele>98.0</ele><time>2026-04-03T06:15:53.87Z</time></trkpt><trkpt lat="45.3555414" lon="9.1288588"><ele>97.66666666666666</ele><time>2026-04-03T06:15:54.87Z</time></trkpt><trkpt lat="45.3553916" lon="9.1287696"><ele>97.33333333333334</ele><time>2026-04-03T06:15:55.869Z</time></trkpt><trkpt lat="45.3552442" lon="9.1286791"><ele>97.0</ele><time>2026-04-03T06:15:56.869Z</time></trkpt><trkpt lat="45.3550994" lon="9.128583"><ele>97.0</ele><time>2026-04-03T06:15:57.87Z</time></trkpt><trkpt lat="45.3549582" lon="9.1284774"><ele>97.0</ele><time>2026-04-03T06:15:58.87Z</time></trkpt><trkpt lat="45.3548215" lon="9.1283586"><ele>97.0</ele><time>2026-04-03T06:15:59.869Z</time></trkpt><trkpt lat="45.3546917" lon="9.1282272"><ele>97.0</ele><time>2026-04-03T06:16:00.869Z</time></trkpt><trkpt lat="45.3545671" lon="9.1280863"><ele>97.0</ele><time>2026-04-03T06:16:01.87Z</time></trkpt><trkpt lat="45.3544483" lon="9.1279456"><ele>97.0</ele><time>2026-04-03T06:16:02.87Z</time></trkpt><trkpt lat="45.3543311" lon="9.1278043"><ele>97.0</ele><time>2026-04-03T06:16:03.869Z</time></trkpt><trkpt lat="45.3542176" lon="9.1276701"><ele>97.0</ele><time>2026-04-03T06:16:04.87Z</time></trkpt><trkpt lat="45.3541065" lon="9.1275423"><ele>97.0</ele><time>2026-04-03T06:16:05.87Z</time></trkpt><trkpt lat="45.3540047" lon="9.1274197"><ele>97.0</ele><time>2026-04-03T06:16:06.869Z</time></trkpt><trkpt lat="45.3539121" lon="9.1273103"><ele>97.16666666666667</ele><time>2026-04-03T06:16:07.87Z</time></trkpt><trkpt lat="45.3538379" lon="9.1272264"><ele>97.33333333333334</ele><time>2026-04-03T06:16:08.87Z</time></trkpt><trkpt lat="45.3537728" lon="9.1271511"><ele>97.5</ele><time>2026-04-03T06:16:09.869Z</time></trkpt><trkpt lat="45.3537097" lon="9.1270788"><ele>97.66666666666666</ele><time>2026-04-03T06:16:10.87Z</time></trkpt><trkpt lat="45.3536471" lon="9.1270093"><ele>97.83333333333333</ele><time>2026-04-03T06:16:11.87Z</time></trkpt><trkpt lat="45.3535856" lon="9.1269392"><ele>98.0</ele><time>2026-04-03T06:16:12.87Z</time></trkpt><trkpt lat="45.3535175" lon="9.1268591"><ele>98.0</ele><time>2026-04-03T06:16:13.87Z</time></trkpt><trkpt lat="45.3534439" lon="9.1267725"><ele>98.0</ele><time>2026-04-03T06:16:14.869Z</time></trkpt><trkpt lat="45.3533668" lon="9.1266799"><ele>98.0</ele><time>2026-04-03T06:16:15.87Z</time></trkpt><trkpt lat="45.3532832" lon="9.126585"><ele>98.0</ele><time>2026-04-03T06:16:16.87Z</time></trkpt><trkpt lat="45.3531953" lon="9.1264842"><ele>98.0</ele><time>2026-04-03T06:16:17.869Z</time></trkpt><trkpt lat="45.3531048" lon="9.1263829"><ele>98.5</ele><time>2026-04-03T06:16:18.87Z</time></trkpt><trkpt lat="45.3530092" lon="9.1262781"><ele>99.0</ele><time>2026-04-03T06:16:19.87Z</time></trkpt><trkpt lat="45.3529126" lon="9.1261715"><ele>99.5</ele><time>2026-04-03T06:16:20.87Z</time></trkpt><trkpt lat="45.3528155" lon="9.1260613"><ele>100.0</ele><time>2026-04-03T06:16:21.869Z</time></trkpt><trkpt lat="45.3527153" lon="9.1259465"><ele>100.0</ele><time>2026-04-03T06:16:22.87Z</time></trkpt><trkpt lat="45.3526128" lon="9.1258324"><ele>100.0</ele><time>2026-04-03T06:16:23.87Z</time></trkpt><trkpt lat="45.3525093" lon="9.1257168"><ele>100.0</ele><time>2026-04-03T06:16:24.87Z</time></trkpt><trkpt lat="45.352405" lon="9.1255982"><ele>100.0</ele><time>2026-04-03T06:16:25.869Z</time></trkpt><trkpt lat="45.3522996" lon="9.1254789"><ele>99.75</ele><time>2026-04-03T06:16:26.87Z</time></trkpt><trkpt lat="45.3521924" lon="9.1253577"><ele>99.5</ele><time>2026-04-03T06:16:27.87Z</time></trkpt><trkpt lat="45.3520833" lon="9.1252341"><ele>99.25</ele><time>2026-04-03T06:16:28.869Z</time></trkpt><trkpt lat="45.3519736" lon="9.1251087"><ele>99.0</ele><time>2026-04-03T06:16:29.87Z</time></trkpt><trkpt lat="45.3518638" lon="9.1249814"><ele>99.0</ele><time>2026-04-03T06:16:30.869Z</time></trkpt><trkpt lat="45.351752" lon="9.1248517"><ele>99.0</ele><time>2026-04-03T06:16:31.87Z</time></trkpt><trkpt lat="45.3516377" lon="9.1247222"><ele>99.0</ele><time>2026-04-03T06:16:32.87Z</time></trkpt><trkpt lat="45.3515229" lon="9.12459"><ele>99.0</ele><time>2026-04-03T06:16:33.87Z</time></trkpt><trkpt lat="45.3514075" lon="9.12446"><ele>99.0</ele><time>2026-04-03T06:16:34.87Z</time></trkpt><trkpt lat="45.3512908" lon="9.1243274"><ele>99.0</ele><time>2026-04-03T06:16:35.87Z</time></trkpt><trkpt lat="45.351174" lon="9.1241917"><ele>99.0</ele><time>2026-04-03T06:16:36.87Z</time></trkpt><trkpt lat="45.3510567" lon="9.1240583"><ele>98.33333333333334</ele><time>2026-04-03T06:16:37.87Z</time></trkpt><trkpt lat="45.3509359" lon="9.1239221"><ele>97.66666666666667</ele><time>2026-04-03T06:16:38.869Z</time></trkpt><trkpt lat="45.3508126" lon="9.1237837"><ele>97.0</ele><time>2026-04-03T06:16:39.87Z</time></trkpt><trkpt lat="45.3506889" lon="9.1236414"><ele>97.0</ele><time>2026-04-03T06:16:40.87Z</time></trkpt><trkpt lat="45.3505657" lon="9.1235006"><ele>97.0</ele><time>2026-04-03T06:16:41.869Z</time></trkpt><trkpt lat="45.3504404" lon="9.1233595"><ele>97.0</ele><time>2026-04-03T06:16:42.869Z</time></trkpt><trkpt lat="45.3503154" lon="9.1232169"><ele>97.0</ele><time>2026-04-03T06:16:43.87Z</time></trkpt><trkpt lat="45.3501878" lon="9.1230714"><ele>97.0</ele><time>2026-04-03T06:16:44.87Z</time></trkpt><trkpt lat="45.3500592" lon="9.1229244"><ele>97.0</ele><time>2026-04-03T06:16:45.87Z</time></trkpt><trkpt lat="45.3499284" lon="9.1227777"><ele>97.0</ele><time>2026-04-03T06:16:46.87Z</time></trkpt><trkpt lat="45.3497964" lon="9.1226302"><ele>97.0</ele><time>2026-04-03T06:16:47.87Z</time></trkpt><trkpt lat="45.3496652" lon="9.1224804"><ele>97.0</ele><time>2026-04-03T06:16:48.87Z</time></trkpt><trkpt lat="45.3495332" lon="9.1223333"><ele>97.33333333333334</ele><time>2026-04-03T06:16:49.87Z</time></trkpt><trkpt lat="45.3494017" lon="9.1221834"><ele>97.66666666666666</ele><time>2026-04-03T06:16:50.87Z</time></trkpt><trkpt lat="45.3492717" lon="9.122037"><ele>98.0</ele><time>2026-04-03T06:16:51.87Z</time></trkpt><trkpt lat="45.3491397" lon="9.1218898"><ele>98.0</ele><time>2026-04-03T06:16:52.869Z</time></trkpt><trkpt lat="45.3490097" lon="9.1217426"><ele>98.0</ele><time>2026-04-03T06:16:53.869Z</time></trkpt><trkpt lat="45.3488814" lon="9.1215915"><ele>98.0</ele><time>2026-04-03T06:16:54.87Z</time></trkpt><trkpt lat="45.3487503" lon="9.1214418"><ele>97.66666666666666</ele><time>2026-04-03T06:16:55.87Z</time></trkpt><trkpt lat="45.3486212" lon="9.1212957"><ele>97.33333333333334</ele><time>2026-04-03T06:16:56.87Z</time></trkpt><trkpt lat="45.3484922" lon="9.1211508"><ele>97.0</ele><time>2026-04-03T06:16:57.87Z</time></trkpt><trkpt lat="45.3483646" lon="9.1210056"><ele>97.0</ele><time>2026-04-03T06:16:58.87Z</time></trkpt><trkpt lat="45.3482367" lon="9.1208604"><ele>97.0</ele><time>2026-04-03T06:16:59.87Z</time></trkpt><trkpt lat="45.3481097" lon="9.1207104"><ele>97.0</ele><time>2026-04-03T06:17:00.87Z</time></trkpt><trkpt lat="45.3479797" lon="9.1205624"><ele>97.33333333333334</ele><time>2026-04-03T06:17:01.869Z</time></trkpt><trkpt lat="45.3478487" lon="9.1204159"><ele>97.66666666666666</ele><time>2026-04-03T06:17:02.87Z</time></trkpt><trkpt lat="45.3477185" lon="9.1202662"><ele>98.0</ele><time>2026-04-03T06:17:03.869Z</time></trkpt><trkpt lat="45.3475873" lon="9.1201201"><ele>98.0</ele><time>2026-04-03T06:17:04.87Z</time></trkpt><trkpt lat="45.3474579" lon="9.1199742"><ele>98.0</ele><time>2026-04-03T06:17:05.87Z</time></trkpt><trkpt lat="45.3473275" lon="9.1198267"><ele>98.0</ele><time>2026-04-03T06:17:06.87Z</time></trkpt><trkpt lat="45.3471959" lon="9.1196745"><ele>97.66666666666666</ele><time>2026-04-03T06:17:07.869Z</time></trkpt><trkpt lat="45.3470607" lon="9.1195201"><ele>97.33333333333334</ele><time>2026-04-03T06:17:08.87Z</time></trkpt><trkpt lat="45.346921" lon="9.1193665"><ele>97.0</ele><time>2026-04-03T06:17:09.87Z</time></trkpt><trkpt lat="45.3467793" lon="9.1192079"><ele>96.66666666666667</ele><time>2026-04-03T06:17:10.869Z</time></trkpt><trkpt lat="45.3466367" lon="9.1190468"><ele>96.33333333333334</ele><time>2026-04-03T06:17:11.87Z</time></trkpt><trkpt lat="45.346491" lon="9.1188793"><ele>96.0</ele><time>2026-04-03T06:17:12.869Z</time></trkpt><trkpt lat="45.3463417" lon="9.1187121"><ele>95.66666666666667</ele><time>2026-04-03T06:17:13.869Z</time></trkpt><trkpt lat="45.3461869" lon="9.1185362"><ele>95.33333333333334</ele><time>2026-04-03T06:17:14.87Z</time></trkpt><trkpt lat="45.3460247" lon="9.1183558"><ele>95.0</ele><time>2026-04-03T06:17:15.869Z</time></trkpt><trkpt lat="45.3458573" lon="9.1181666"><ele>95.66666666666667</ele><time>2026-04-03T06:17:16.87Z</time></trkpt><trkpt lat="45.3456884" lon="9.1179791"><ele>96.33333333333334</ele><time>2026-04-03T06:17:17.87Z</time></trkpt><trkpt lat="45.3455187" lon="9.1177841"><ele>97.0</ele><time>2026-04-03T06:17:18.87Z</time></trkpt><trkpt lat="45.3453492" lon="9.1175944"><ele>97.0</ele><time>2026-04-03T06:17:19.87Z</time></trkpt><trkpt lat="45.345184" lon="9.1174057"><ele>97.0</ele><time>2026-04-03T06:17:20.87Z</time></trkpt><trkpt lat="45.3450248" lon="9.1172261"><ele>97.0</ele><time>2026-04-03T06:17:21.87Z</time></trkpt><trkpt lat="45.3448718" lon="9.1170554"><ele>97.0</ele><time>2026-04-03T06:17:22.87Z</time></trkpt><trkpt lat="45.3447266" lon="9.1168898"><ele>97.0</ele><time>2026-04-03T06:17:23.87Z</time></trkpt><trkpt lat="45.3445842" lon="9.1167261"><ele>97.0</ele><time>2026-04-03T06:17:24.87Z</time></trkpt><trkpt lat="45.3444467" lon="9.1165698"><ele>97.0</ele><time>2026-04-03T06:17:25.87Z</time></trkpt><trkpt lat="45.3443103" lon="9.1164143"><ele>97.0</ele><time>2026-04-03T06:17:26.87Z</time></trkpt><trkpt lat="45.3441754" lon="9.1162632"><ele>97.0</ele><time>2026-04-03T06:17:27.87Z</time></trkpt><trkpt lat="45.3440406" lon="9.1161103"><ele>97.0</ele><time>2026-04-03T06:17:28.87Z</time></trkpt><trkpt lat="45.3439079" lon="9.1159576"><ele>97.0</ele><time>2026-04-03T06:17:29.87Z</time></trkpt><trkpt lat="45.343776" lon="9.115808"><ele>97.0</ele><time>2026-04-03T06:17:30.869Z</time></trkpt><trkpt lat="45.3436427" lon="9.1156562"><ele>97.0</ele><time>2026-04-03T06:17:31.869Z</time></trkpt><trkpt lat="45.3435098" lon="9.1155038"><ele>97.0</ele><time>2026-04-03T06:17:32.87Z</time></trkpt><trkpt lat="45.3433749" lon="9.1153502"><ele>97.0</ele><time>2026-04-03T06:17:33.87Z</time></trkpt><trkpt lat="45.3432409" lon="9.1151988"><ele>97.0</ele><time>2026-04-03T06:17:34.869Z</time></trkpt><trkpt lat="45.3431054" lon="9.1150471"><ele>97.0</ele><time>2026-04-03T06:17:35.869Z</time></trkpt><trkpt lat="45.3429687" lon="9.1148947"><ele>97.0</ele><time>2026-04-03T06:17:36.87Z</time></trkpt><trkpt lat="45.3428315" lon="9.1147386"><ele>97.0</ele><time>2026-04-03T06:17:37.87Z</time></trkpt><trkpt lat="45.342694" lon="9.114584"><ele>97.0</ele><time>2026-04-03T06:17:38.87Z</time></trkpt><trkpt lat="45.342556" lon="9.1144292"><ele>97.0</ele><time>2026-04-03T06:17:39.87Z</time></trkpt><trkpt lat="45.3424162" lon="9.1142735"><ele>97.0</ele><time>2026-04-03T06:17:40.87Z</time></trkpt><trkpt lat="45.3422776" lon="9.1141129"><ele>97.0</ele><time>2026-04-03T06:17:41.87Z</time></trkpt><trkpt lat="45.342138" lon="9.1139549"><ele>97.0</ele><time>2026-04-03T06:17:42.87Z</time></trkpt><trkpt lat="45.3419965" lon="9.1137966"><ele>97.33333333333334</ele><time>2026-04-03T06:17:43.87Z</time></trkpt><trkpt lat="45.3418558" lon="9.1136377"><ele>97.66666666666666</ele><time>2026-04-03T06:17:44.87Z</time></trkpt><trkpt lat="45.3417179" lon="9.1134816"><ele>98.0</ele><time>2026-04-03T06:17:45.87Z</time></trkpt><trkpt lat="45.3415798" lon="9.1133274"><ele>97.66666666666666</ele><time>2026-04-03T06:17:46.87Z</time></trkpt><trkpt lat="45.3414442" lon="9.1131728"><ele>97.33333333333334</ele><time>2026-04-03T06:17:47.87Z</time></trkpt><trkpt lat="45.3413114" lon="9.1130186"><ele>97.0</ele><time>2026-04-03T06:17:48.87Z</time></trkpt><trkpt lat="45.3411796" lon="9.1128646"><ele>97.0</ele><time>2026-04-03T06:17:49.869Z</time></trkpt><trkpt lat="45.3410467" lon="9.1127149"><ele>97.0</ele><time>2026-04-03T06:17:50.869Z</time></trkpt><trkpt lat="45.3409127" lon="9.1125663"><ele>97.0</ele><time>2026-04-03T06:17:51.87Z</time></trkpt><trkpt lat="45.34078" lon="9.1124171"><ele>97.0</ele><time>2026-04-03T06:17:52.87Z</time></trkpt><trkpt lat="45.340649" lon="9.1122709"><ele>97.0</ele><time>2026-04-03T06:17:53.87Z</time></trkpt><trkpt lat="45.3405199" lon="9.1121219"><ele>97.0</ele><time>2026-04-03T06:17:54.87Z</time></trkpt><trkpt lat="45.340393" lon="9.1119756"><ele>96.66666666666667</ele><time>2026-04-03T06:17:55.87Z</time></trkpt><trkpt lat="45.3402668" lon="9.1118323"><ele>96.33333333333334</ele><time>2026-04-03T06:17:56.87Z</time></trkpt><trkpt lat="45.3401417" lon="9.1116841"><ele>96.0</ele><time>2026-04-03T06:17:57.87Z</time></trkpt><trkpt lat="45.340016" lon="9.1115421"><ele>96.0</ele><time>2026-04-03T06:17:58.87Z</time></trkpt><trkpt lat="45.3398921" lon="9.1114029"><ele>96.0</ele><time>2026-04-03T06:17:59.869Z</time></trkpt><trkpt lat="45.3397682" lon="9.1112643"><ele>96.0</ele><time>2026-04-03T06:18:00.87Z</time></trkpt><trkpt lat="45.3396421" lon="9.1111214"><ele>96.0</ele><time>2026-04-03T06:18:01.87Z</time></trkpt><trkpt lat="45.3395151" lon="9.1109807"><ele>96.0</ele><time>2026-04-03T06:18:02.87Z</time></trkpt><trkpt lat="45.3393895" lon="9.1108384"><ele>96.0</ele><time>2026-04-03T06:18:03.87Z</time></trkpt><trkpt lat="45.339263" lon="9.110697"><ele>96.0</ele><time>2026-04-03T06:18:04.87Z</time></trkpt><trkpt lat="45.339135" lon="9.1105552"><ele>96.0</ele><time>2026-04-03T06:18:05.869Z</time></trkpt><trkpt lat="45.3390088" lon="9.1104128"><ele>96.0</ele><time>2026-04-03T06:18:06.869Z</time></trkpt><trkpt lat="45.338883" lon="9.1102687"><ele>96.0</ele><time>2026-04-03T06:18:07.87Z</time></trkpt><trkpt lat="45.3387574" lon="9.1101256"><ele>96.0</ele><time>2026-04-03T06:18:08.87Z</time></trkpt><trkpt lat="45.3386338" lon="9.1099855"><ele>96.0</ele><time>2026-04-03T06:18:09.869Z</time></trkpt><trkpt lat="45.3385112" lon="9.1098438"><ele>96.0</ele><time>2026-04-03T06:18:10.87Z</time></trkpt><trkpt lat="45.3383902" lon="9.1097056"><ele>96.0</ele><time>2026-04-03T06:18:11.87Z</time></trkpt><trkpt lat="45.3382796" lon="9.1095769"><ele>96.0</ele><time>2026-04-03T06:18:12.87Z</time></trkpt><trkpt lat="45.3381758" lon="9.1094536"><ele>96.0</ele><time>2026-04-03T06:18:13.87Z</time></trkpt><trkpt lat="45.3380771" lon="9.1093308"><ele>96.5</ele><time>2026-04-03T06:18:14.87Z</time></trkpt><trkpt lat="45.3379735" lon="9.1092073"><ele>97.0</ele><time>2026-04-03T06:18:15.87Z</time></trkpt><trkpt lat="45.3378682" lon="9.1090826"><ele>97.5</ele><time>2026-04-03T06:18:16.87Z</time></trkpt><trkpt lat="45.3377613" lon="9.1089623"><ele>98.0</ele><time>2026-04-03T06:18:17.869Z</time></trkpt><trkpt lat="45.3376581" lon="9.1088443"><ele>98.25</ele><time>2026-04-03T06:18:18.869Z</time></trkpt><trkpt lat="45.3375514" lon="9.1087321"><ele>98.5</ele><time>2026-04-03T06:18:19.87Z</time></trkpt><trkpt lat="45.3374471" lon="9.1086226"><ele>98.75</ele><time>2026-04-03T06:18:20.87Z</time></trkpt><trkpt lat="45.3373459" lon="9.1085164"><ele>99.0</ele><time>2026-04-03T06:18:21.87Z</time></trkpt><trkpt lat="45.3372422" lon="9.1084044"><ele>99.25</ele><time>2026-04-03T06:18:22.87Z</time></trkpt><trkpt lat="45.337138" lon="9.1082893"><ele>99.5</ele><time>2026-04-03T06:18:23.87Z</time></trkpt><trkpt lat="45.3370352" lon="9.1081702"><ele>99.75</ele><time>2026-04-03T06:18:24.869Z</time></trkpt><trkpt lat="45.3369324" lon="9.1080478"><ele>100.0</ele><time>2026-04-03T06:18:25.869Z</time></trkpt><trkpt lat="45.3368285" lon="9.1079299"><ele>100.0</ele><time>2026-04-03T06:18:26.869Z</time></trkpt><trkpt lat="45.3367239" lon="9.1078078"><ele>100.0</ele><time>2026-04-03T06:18:27.87Z</time></trkpt><trkpt lat="45.3366194" lon="9.1076891"><ele>100.0</ele><time>2026-04-03T06:18:28.87Z</time></trkpt><trkpt lat="45.3365144" lon="9.1075685"><ele>100.0</ele><time>2026-04-03T06:18:29.869Z</time></trkpt><trkpt lat="45.3364177" lon="9.1074503"><ele>100.0</ele><time>2026-04-03T06:18:30.87Z</time></trkpt><trkpt lat="45.3363241" lon="9.1073318"><ele>100.0</ele><time>2026-04-03T06:18:31.869Z</time></trkpt><trkpt lat="45.3362436" lon="9.1072143"><ele>100.0</ele><time>2026-04-03T06:18:32.87Z</time></trkpt><trkpt lat="45.3361748" lon="9.1070992"><ele>100.0</ele><time>2026-04-03T06:18:33.87Z</time></trkpt><trkpt lat="45.3361247" lon="9.1070082"><ele>100.0</ele><time>2026-04-03T06:18:34.87Z</time></trkpt><trkpt lat="45.336081" lon="9.1069262"><ele>100.0</ele><time>2026-04-03T06:18:36.87Z</time></trkpt><trkpt lat="45.3359991" lon="9.1068083"><ele>100.0</ele><time>2026-04-03T06:19:11.869Z</time></trkpt><trkpt lat="45.3359167" lon="9.1066947"><ele>100.0</ele><time>2026-04-03T06:19:13.869Z</time></trkpt><trkpt lat="45.3358574" lon="9.106542"><ele>100.0</ele><time>2026-04-03T06:19:15.87Z</time></trkpt><trkpt lat="45.3358438" lon="9.1064421"><ele>100.0</ele><time>2026-04-03T06:19:16.87Z</time></trkpt><trkpt lat="45.3358406" lon="9.106324"><ele>100.00000000000001</ele><time>2026-04-03T06:19:17.87Z</time></trkpt><trkpt lat="45.3358472" lon="9.1062019"><ele>100.0</ele><time>2026-04-03T06:19:18.869Z</time></trkpt><trkpt lat="45.3358565" lon="9.1060815"><ele>100.0</ele><time>2026-04-03T06:19:19.87Z</time></trkpt><trkpt lat="45.3358659" lon="9.1059656"><ele>100.0</ele><time>2026-04-03T06:19:20.869Z</time></trkpt><trkpt lat="45.3358784" lon="9.1058508"><ele>100.00000000000001</ele><time>2026-04-03T06:19:21.869Z</time></trkpt><trkpt lat="45.335895" lon="9.1057375"><ele>100.0</ele><time>2026-04-03T06:19:22.87Z</time></trkpt><trkpt lat="45.335917" lon="9.1056343"><ele>99.8</ele><time>2026-04-03T06:19:23.869Z</time></trkpt><trkpt lat="45.3359397" lon="9.1055413"><ele>99.6</ele><time>2026-04-03T06:19:24.869Z</time></trkpt><trkpt lat="45.3359791" lon="9.1053901"><ele>99.4</ele><time>2026-04-03T06:19:26.87Z</time></trkpt><trkpt lat="45.3360348" lon="9.1052119"><ele>99.2</ele><time>2026-04-03T06:19:28.87Z</time></trkpt><trkpt lat="45.3360716" lon="9.1050955"><ele>99.0</ele><time>2026-04-03T06:19:29.87Z</time></trkpt><trkpt lat="45.3361127" lon="9.1049682"><ele>99.25</ele><time>2026-04-03T06:19:30.87Z</time></trkpt><trkpt lat="45.336155" lon="9.1048264"><ele>99.5</ele><time>2026-04-03T06:19:31.87Z</time></trkpt><trkpt lat="45.3361983" lon="9.1046743"><ele>99.75</ele><time>2026-04-03T06:19:32.87Z</time></trkpt><trkpt lat="45.3362425" lon="9.1045133"><ele>100.0</ele><time>2026-04-03T06:19:33.87Z</time></trkpt><trkpt lat="45.3362879" lon="9.1043469"><ele>100.0</ele><time>2026-04-03T06:19:34.869Z</time></trkpt><trkpt lat="45.3363354" lon="9.1041767"><ele>100.0</ele><time>2026-04-03T06:19:35.87Z</time></trkpt><trkpt lat="45.3363829" lon="9.1040086"><ele>100.0</ele><time>2026-04-03T06:19:36.87Z</time></trkpt><trkpt lat="45.3364309" lon="9.103838"><ele>100.0</ele><time>2026-04-03T06:19:37.869Z</time></trkpt><trkpt lat="45.3364807" lon="9.1036638"><ele>100.0</ele><time>2026-04-03T06:19:38.87Z</time></trkpt><trkpt lat="45.3365293" lon="9.1034809"><ele>100.0</ele><time>2026-04-03T06:19:39.87Z</time></trkpt><trkpt lat="45.3365794" lon="9.1032969"><ele>100.0</ele><time>2026-04-03T06:19:40.87Z</time></trkpt><trkpt lat="45.3366303" lon="9.1031127"><ele>100.0</ele><time>2026-04-03T06:19:41.869Z</time></trkpt><trkpt lat="45.3366794" lon="9.1029286"><ele>100.0</ele><time>2026-04-03T06:19:42.87Z</time></trkpt><trkpt lat="45.336729" lon="9.1027464"><ele>100.0</ele><time>2026-04-03T06:19:43.869Z</time></trkpt><trkpt lat="45.3367797" lon="9.1025614"><ele>100.0</ele><time>2026-04-03T06:19:44.869Z</time></trkpt><trkpt lat="45.3368315" lon="9.1023823"><ele>100.0</ele><time>2026-04-03T06:19:45.869Z</time></trkpt><trkpt lat="45.3368799" lon="9.1022152"><ele>99.8</ele><time>2026-04-03T06:19:46.87Z</time></trkpt><trkpt lat="45.3369243" lon="9.1020574"><ele>99.6</ele><time>2026-04-03T06:19:47.87Z</time></trkpt><trkpt lat="45.3369631" lon="9.1019231"><ele>99.4</ele><time>2026-04-03T06:19:48.87Z</time></trkpt><trkpt lat="45.3369974" lon="9.1018097"><ele>99.2</ele><time>2026-04-03T06:19:49.87Z</time></trkpt><trkpt lat="45.3370243" lon="9.1017267"><ele>99.0</ele><time>2026-04-03T06:19:50.869Z</time></trkpt><trkpt lat="45.3370742" lon="9.1016016"><ele>99.0</ele><time>2026-04-03T06:19:52.869Z</time></trkpt><trkpt lat="45.3371144" lon="9.101532"><ele>99.0</ele><time>2026-04-03T06:19:53.87Z</time></trkpt><trkpt lat="45.33716" lon="9.1014474"><ele>99.0</ele><time>2026-04-03T06:19:54.869Z</time></trkpt><trkpt lat="45.3371867" lon="9.1013283"><ele>99.0</ele><time>2026-04-03T06:19:55.87Z</time></trkpt><trkpt lat="45.3371971" lon="9.1012098"><ele>99.0</ele><time>2026-04-03T06:19:56.87Z</time></trkpt><trkpt lat="45.3372026" lon="9.1010956"><ele>99.0</ele><time>2026-04-03T06:19:57.87Z</time></trkpt><trkpt lat="45.3372176" lon="9.10098"><ele>98.80000000000001</ele><time>2026-04-03T06:19:58.869Z</time></trkpt><trkpt lat="45.337244" lon="9.1008638"><ele>98.60000000000001</ele><time>2026-04-03T06:19:59.87Z</time></trkpt><trkpt lat="45.3372781" lon="9.10074"><ele>98.4</ele><time>2026-04-03T06:20:00.87Z</time></trkpt><trkpt lat="45.337319" lon="9.1006001"><ele>98.2</ele><time>2026-04-03T06:20:01.87Z</time></trkpt><trkpt lat="45.3373622" lon="9.1004564"><ele>98.0</ele><time>2026-04-03T06:20:02.87Z</time></trkpt><trkpt lat="45.3374099" lon="9.100303"><ele>98.0</ele><time>2026-04-03T06:20:03.869Z</time></trkpt><trkpt lat="45.3374647" lon="9.1001409"><ele>98.0</ele><time>2026-04-03T06:20:04.87Z</time></trkpt><trkpt lat="45.3375213" lon="9.0999705"><ele>98.0</ele><time>2026-04-03T06:20:05.87Z</time></trkpt><trkpt lat="45.3375786" lon="9.0997981"><ele>98.0</ele><time>2026-04-03T06:20:06.87Z</time></trkpt><trkpt lat="45.33764" lon="9.0996199"><ele>98.0</ele><time>2026-04-03T06:20:07.87Z</time></trkpt><trkpt lat="45.3377046" lon="9.0994437"><ele>98.0</ele><time>2026-04-03T06:20:08.87Z</time></trkpt><trkpt lat="45.3377767" lon="9.0992674"><ele>98.0</ele><time>2026-04-03T06:20:09.869Z</time></trkpt><trkpt lat="45.3378535" lon="9.0990909"><ele>98.0</ele><time>2026-04-03T06:20:10.87Z</time></trkpt><trkpt lat="45.3379318" lon="9.0989115"><ele>98.33333333333333</ele><time>2026-04-03T06:20:11.869Z</time></trkpt><trkpt lat="45.3380058" lon="9.0987254"><ele>98.66666666666666</ele><time>2026-04-03T06:20:12.87Z</time></trkpt><trkpt lat="45.3380779" lon="9.0985318"><ele>99.0</ele><time>2026-04-03T06:20:13.87Z</time></trkpt><trkpt lat="45.338145" lon="9.0983306"><ele>99.0</ele><time>2026-04-03T06:20:14.869Z</time></trkpt><trkpt lat="45.3382075" lon="9.0981312"><ele>99.0</ele><time>2026-04-03T06:20:15.87Z</time></trkpt><trkpt lat="45.3382681" lon="9.0979286"><ele>99.0</ele><time>2026-04-03T06:20:16.87Z</time></trkpt><trkpt lat="45.3383265" lon="9.0977298"><ele>99.0</ele><time>2026-04-03T06:20:17.87Z</time></trkpt><trkpt lat="45.3383828" lon="9.0975283"><ele>99.0</ele><time>2026-04-03T06:20:18.87Z</time></trkpt><trkpt lat="45.3384407" lon="9.0973272"><ele>99.0</ele><time>2026-04-03T06:20:19.869Z</time></trkpt><trkpt lat="45.3384989" lon="9.0971247"><ele>99.33333333333334</ele><time>2026-04-03T06:20:20.87Z</time></trkpt><trkpt lat="45.3385548" lon="9.0969214"><ele>99.66666666666667</ele><time>2026-04-03T06:20:21.87Z</time></trkpt><trkpt lat="45.3386097" lon="9.0967201"><ele>100.0</ele><time>2026-04-03T06:20:22.87Z</time></trkpt><trkpt lat="45.338661" lon="9.0965127"><ele>99.33333333333334</ele><time>2026-04-03T06:20:23.87Z</time></trkpt><trkpt lat="45.3387106" lon="9.0963017"><ele>98.66666666666666</ele><time>2026-04-03T06:20:24.869Z</time></trkpt><trkpt lat="45.3387577" lon="9.0960908"><ele>98.0</ele><time>2026-04-03T06:20:25.87Z</time></trkpt><trkpt lat="45.3388029" lon="9.095882"><ele>98.0</ele><time>2026-04-03T06:20:26.869Z</time></trkpt><trkpt lat="45.338848" lon="9.0956725"><ele>98.0</ele><time>2026-04-03T06:20:27.869Z</time></trkpt><trkpt lat="45.3388939" lon="9.0954634"><ele>98.0</ele><time>2026-04-03T06:20:28.869Z</time></trkpt><trkpt lat="45.3389396" lon="9.0952506"><ele>98.66666666666666</ele><time>2026-04-03T06:20:29.869Z</time></trkpt><trkpt lat="45.3389862" lon="9.0950389"><ele>99.33333333333334</ele><time>2026-04-03T06:20:30.87Z</time></trkpt><trkpt lat="45.3390323" lon="9.0948274"><ele>100.0</ele><time>2026-04-03T06:20:31.87Z</time></trkpt><trkpt lat="45.3390788" lon="9.0946152"><ele>100.0</ele><time>2026-04-03T06:20:32.869Z</time></trkpt><trkpt lat="45.3391246" lon="9.0944086"><ele>100.0</ele><time>2026-04-03T06:20:33.869Z</time></trkpt><trkpt lat="45.3391706" lon="9.094206"><ele>100.0</ele><time>2026-04-03T06:20:34.87Z</time></trkpt><trkpt lat="45.3392168" lon="9.0940083"><ele>100.0</ele><time>2026-04-03T06:20:35.87Z</time></trkpt><trkpt lat="45.3392616" lon="9.0938086"><ele>99.75</ele><time>2026-04-03T06:20:36.87Z</time></trkpt><trkpt lat="45.3393058" lon="9.0936107"><ele>99.5</ele><time>2026-04-03T06:20:37.87Z</time></trkpt><trkpt lat="45.3393467" lon="9.0934157"><ele>99.25</ele><time>2026-04-03T06:20:38.87Z</time></trkpt><trkpt lat="45.3393844" lon="9.0932312"><ele>99.0</ele><time>2026-04-03T06:20:39.869Z</time></trkpt><trkpt lat="45.3394129" lon="9.0930506"><ele>99.0</ele><time>2026-04-03T06:20:40.87Z</time></trkpt><trkpt lat="45.3394339" lon="9.0928798"><ele>99.0</ele><time>2026-04-03T06:20:41.87Z</time></trkpt><trkpt lat="45.3394499" lon="9.092724"><ele>99.0</ele><time>2026-04-03T06:20:42.869Z</time></trkpt><trkpt lat="45.339472" lon="9.0925743"><ele>99.0</ele><time>2026-04-03T06:20:43.87Z</time></trkpt><trkpt lat="45.3395132" lon="9.0924329"><ele>99.0</ele><time>2026-04-03T06:20:44.869Z</time></trkpt><trkpt lat="45.3395581" lon="9.0922963"><ele>99.0</ele><time>2026-04-03T06:20:45.869Z</time></trkpt><trkpt lat="45.3395719" lon="9.0921517"><ele>99.0</ele><time>2026-04-03T06:20:46.87Z</time></trkpt><trkpt lat="45.3395511" lon="9.0920072"><ele>99.0</ele><time>2026-04-03T06:20:47.87Z</time></trkpt><trkpt lat="45.3395075" lon="9.0918698"><ele>99.0</ele><time>2026-04-03T06:20:48.87Z</time></trkpt><trkpt lat="45.3394616" lon="9.0917271"><ele>99.0</ele><time>2026-04-03T06:20:49.87Z</time></trkpt><trkpt lat="45.3394232" lon="9.0915745"><ele>99.0</ele><time>2026-04-03T06:20:50.869Z</time></trkpt><trkpt lat="45.3393914" lon="9.0914153"><ele>99.0</ele><time>2026-04-03T06:20:51.87Z</time></trkpt><trkpt lat="45.3393583" lon="9.0912499"><ele>99.0</ele><time>2026-04-03T06:20:52.87Z</time></trkpt><trkpt lat="45.3393201" lon="9.091085"><ele>99.0</ele><time>2026-04-03T06:20:53.87Z</time></trkpt><trkpt lat="45.3392758" lon="9.0909226"><ele>99.0</ele><time>2026-04-03T06:20:54.869Z</time></trkpt><trkpt lat="45.3392252" lon="9.0907618"><ele>99.0</ele><time>2026-04-03T06:20:55.87Z</time></trkpt><trkpt lat="45.3391728" lon="9.0906044"><ele>99.0</ele><time>2026-04-03T06:20:56.87Z</time></trkpt><trkpt lat="45.3391177" lon="9.0904479"><ele>99.0</ele><time>2026-04-03T06:20:57.869Z</time></trkpt><trkpt lat="45.3390582" lon="9.0902916"><ele>98.75</ele><time>2026-04-03T06:20:58.87Z</time></trkpt><trkpt lat="45.3389972" lon="9.0901349"><ele>98.5</ele><time>2026-04-03T06:20:59.869Z</time></trkpt><trkpt lat="45.3389366" lon="9.0899754"><ele>98.25</ele><time>2026-04-03T06:21:00.869Z</time></trkpt><trkpt lat="45.3388766" lon="9.0898149"><ele>98.0</ele><time>2026-04-03T06:21:01.87Z</time></trkpt><trkpt lat="45.3388169" lon="9.0896527"><ele>98.0</ele><time>2026-04-03T06:21:02.87Z</time></trkpt><trkpt lat="45.3387561" lon="9.0894888"><ele>98.0</ele><time>2026-04-03T06:21:03.869Z</time></trkpt><trkpt lat="45.3386942" lon="9.089327"><ele>98.0</ele><time>2026-04-03T06:21:04.869Z</time></trkpt><trkpt lat="45.3386315" lon="9.0891646"><ele>98.0</ele><time>2026-04-03T06:21:05.87Z</time></trkpt><trkpt lat="45.3385702" lon="9.0890055"><ele>98.5</ele><time>2026-04-03T06:21:06.869Z</time></trkpt><trkpt lat="45.3385095" lon="9.0888439"><ele>99.0</ele><time>2026-04-03T06:21:07.87Z</time></trkpt><trkpt lat="45.3384526" lon="9.0886818"><ele>99.5</ele><time>2026-04-03T06:21:08.869Z</time></trkpt><trkpt lat="45.3383952" lon="9.0885186"><ele>100.0</ele><time>2026-04-03T06:21:09.87Z</time></trkpt><trkpt lat="45.3383342" lon="9.0883531"><ele>100.25</ele><time>2026-04-03T06:21:10.869Z</time></trkpt><trkpt lat="45.3382688" lon="9.0881828"><ele>100.5</ele><time>2026-04-03T06:21:11.87Z</time></trkpt><trkpt lat="45.3382029" lon="9.0880117"><ele>100.75</ele><time>2026-04-03T06:21:12.87Z</time></trkpt><trkpt lat="45.3381363" lon="9.0878379"><ele>101.0</ele><time>2026-04-03T06:21:13.869Z</time></trkpt><trkpt lat="45.3380673" lon="9.0876573"><ele>100.25</ele><time>2026-04-03T06:21:14.869Z</time></trkpt><trkpt lat="45.3379999" lon="9.0874749"><ele>99.5</ele><time>2026-04-03T06:21:15.87Z</time></trkpt><trkpt lat="45.3379329" lon="9.0872929"><ele>98.75</ele><time>2026-04-03T06:21:16.87Z</time></trkpt><trkpt lat="45.3378651" lon="9.087109"><ele>98.0</ele><time>2026-04-03T06:21:17.87Z</time></trkpt><trkpt lat="45.3378007" lon="9.0869316"><ele>98.0</ele><time>2026-04-03T06:21:18.87Z</time></trkpt><trkpt lat="45.3377333" lon="9.0867589"><ele>98.0</ele><time>2026-04-03T06:21:19.869Z</time></trkpt><trkpt lat="45.3376645" lon="9.086587"><ele>98.0</ele><time>2026-04-03T06:21:20.869Z</time></trkpt><trkpt lat="45.3375955" lon="9.0864162"><ele>98.0</ele><time>2026-04-03T06:21:21.87Z</time></trkpt><trkpt lat="45.3375266" lon="9.0862438"><ele>98.25</ele><time>2026-04-03T06:21:22.869Z</time></trkpt><trkpt lat="45.3374637" lon="9.0860795"><ele>98.5</ele><time>2026-04-03T06:21:23.869Z</time></trkpt><trkpt lat="45.3374062" lon="9.0859162"><ele>98.75</ele><time>2026-04-03T06:21:24.87Z</time></trkpt><trkpt lat="45.3373485" lon="9.0857487"><ele>99.0</ele><time>2026-04-03T06:21:25.87Z</time></trkpt><trkpt lat="45.3372878" lon="9.0855834"><ele>99.0</ele><time>2026-04-03T06:21:26.869Z</time></trkpt><trkpt lat="45.3372282" lon="9.0854191"><ele>99.0</ele><time>2026-04-03T06:21:27.87Z</time></trkpt><trkpt lat="45.3371699" lon="9.0852584"><ele>99.0</ele><time>2026-04-03T06:21:28.87Z</time></trkpt><trkpt lat="45.3371104" lon="9.0851015"><ele>99.0</ele><time>2026-04-03T06:21:29.869Z</time></trkpt><trkpt lat="45.3370565" lon="9.0849546"><ele>98.4</ele><time>2026-04-03T06:21:30.869Z</time></trkpt><trkpt lat="45.3370052" lon="9.0848158"><ele>97.80000000000001</ele><time>2026-04-03T06:21:31.87Z</time></trkpt><trkpt lat="45.3369578" lon="9.0846846"><ele>97.19999999999999</ele><time>2026-04-03T06:21:32.87Z</time></trkpt><trkpt lat="45.3369157" lon="9.0845585"><ele>96.6</ele><time>2026-04-03T06:21:33.87Z</time></trkpt><trkpt lat="45.3368795" lon="9.0844393"><ele>96.0</ele><time>2026-04-03T06:21:34.87Z</time></trkpt><trkpt lat="45.3368566" lon="9.084321"><ele>96.0</ele><time>2026-04-03T06:21:35.869Z</time></trkpt><trkpt lat="45.3368499" lon="9.0841961"><ele>96.0</ele><time>2026-04-03T06:21:36.87Z</time></trkpt><trkpt lat="45.3368497" lon="9.0840742"><ele>96.0</ele><time>2026-04-03T06:21:37.87Z</time></trkpt><trkpt lat="45.3368232" lon="9.0839658"><ele>96.0</ele><time>2026-04-03T06:21:38.869Z</time></trkpt><trkpt lat="45.336771" lon="9.0838747"><ele>96.0</ele><time>2026-04-03T06:21:39.87Z</time></trkpt><trkpt lat="45.3367072" lon="9.0837925"><ele>96.0</ele><time>2026-04-03T06:21:40.87Z</time></trkpt><trkpt lat="45.3366377" lon="9.0837087"><ele>96.0</ele><time>2026-04-03T06:21:41.87Z</time></trkpt><trkpt lat="45.3365712" lon="9.0836098"><ele>96.0</ele><time>2026-04-03T06:21:42.87Z</time></trkpt><trkpt lat="45.3365087" lon="9.0834856"><ele>96.0</ele><time>2026-04-03T06:21:43.87Z</time></trkpt><trkpt lat="45.3364486" lon="9.083345"><ele>96.0</ele><time>2026-04-03T06:21:44.869Z</time></trkpt><trkpt lat="45.33639" lon="9.0831929"><ele>96.0</ele><time>2026-04-03T06:21:45.869Z</time></trkpt><trkpt lat="45.3363333" lon="9.0830421"><ele>96.0</ele><time>2026-04-03T06:21:46.869Z</time></trkpt><trkpt lat="45.3362753" lon="9.0828892"><ele>96.0</ele><time>2026-04-03T06:21:47.87Z</time></trkpt><trkpt lat="45.3362164" lon="9.0827364"><ele>96.0</ele><time>2026-04-03T06:21:48.869Z</time></trkpt><trkpt lat="45.3361575" lon="9.0825838"><ele>96.0</ele><time>2026-04-03T06:21:49.869Z</time></trkpt><trkpt lat="45.3360995" lon="9.0824288"><ele>96.0</ele><time>2026-04-03T06:21:50.87Z</time></trkpt><trkpt lat="45.3360411" lon="9.0822736"><ele>96.0</ele><time>2026-04-03T06:21:51.869Z</time></trkpt><trkpt lat="45.3359831" lon="9.0821143"><ele>96.0</ele><time>2026-04-03T06:21:52.869Z</time></trkpt><trkpt lat="45.3359217" lon="9.0819504"><ele>96.0</ele><time>2026-04-03T06:21:53.869Z</time></trkpt><trkpt lat="45.3358597" lon="9.0817863"><ele>96.0</ele><time>2026-04-03T06:21:54.87Z</time></trkpt><trkpt lat="45.3357966" lon="9.0816169"><ele>96.0</ele><time>2026-04-03T06:21:55.87Z</time></trkpt><trkpt lat="45.3357293" lon="9.0814446"><ele>96.0</ele><time>2026-04-03T06:21:56.87Z</time></trkpt><trkpt lat="45.3356634" lon="9.0812696"><ele>96.0</ele><time>2026-04-03T06:21:57.869Z</time></trkpt><trkpt lat="45.3355974" lon="9.0810945"><ele>95.75</ele><time>2026-04-03T06:21:58.87Z</time></trkpt><trkpt lat="45.3355321" lon="9.0809155"><ele>95.5</ele><time>2026-04-03T06:21:59.87Z</time></trkpt><trkpt lat="45.3354654" lon="9.0807367"><ele>95.25</ele><time>2026-04-03T06:22:00.87Z</time></trkpt><trkpt lat="45.3353969" lon="9.0805577"><ele>95.0</ele><time>2026-04-03T06:22:01.87Z</time></trkpt><trkpt lat="45.3353262" lon="9.0803793"><ele>95.75</ele><time>2026-04-03T06:22:02.87Z</time></trkpt><trkpt lat="45.335256" lon="9.0802006"><ele>96.5</ele><time>2026-04-03T06:22:03.87Z</time></trkpt><trkpt lat="45.3351871" lon="9.08002"><ele>97.25</ele><time>2026-04-03T06:22:04.87Z</time></trkpt><trkpt lat="45.3351196" lon="9.0798365"><ele>98.0</ele><time>2026-04-03T06:22:05.87Z</time></trkpt><trkpt lat="45.335051" lon="9.079656"><ele>98.25</ele><time>2026-04-03T06:22:06.87Z</time></trkpt><trkpt lat="45.3349812" lon="9.0794727"><ele>98.5</ele><time>2026-04-03T06:22:07.87Z</time></trkpt><trkpt lat="45.3349109" lon="9.0792859"><ele>98.75</ele><time>2026-04-03T06:22:08.87Z</time></trkpt><trkpt lat="45.3348424" lon="9.0791003"><ele>99.0</ele><time>2026-04-03T06:22:09.869Z</time></trkpt><trkpt lat="45.3347737" lon="9.0789204"><ele>99.0</ele><time>2026-04-03T06:22:10.869Z</time></trkpt><trkpt lat="45.3347089" lon="9.0787489"><ele>99.0</ele><time>2026-04-03T06:22:11.869Z</time></trkpt><trkpt lat="45.334647" lon="9.0785804"><ele>99.0</ele><time>2026-04-03T06:22:12.87Z</time></trkpt><trkpt lat="45.334586" lon="9.0784137"><ele>99.0</ele><time>2026-04-03T06:22:13.869Z</time></trkpt><trkpt lat="45.3345245" lon="9.0782507"><ele>99.0</ele><time>2026-04-03T06:22:14.87Z</time></trkpt><trkpt lat="45.3344636" lon="9.0780847"><ele>99.0</ele><time>2026-04-03T06:22:15.87Z</time></trkpt><trkpt lat="45.334403" lon="9.0779194"><ele>99.0</ele><time>2026-04-03T06:22:16.869Z</time></trkpt><trkpt lat="45.3343411" lon="9.0777513"><ele>99.0</ele><time>2026-04-03T06:22:17.87Z</time></trkpt><trkpt lat="45.3342779" lon="9.0775781"><ele>98.75</ele><time>2026-04-03T06:22:18.87Z</time></trkpt><trkpt lat="45.3342134" lon="9.0774057"><ele>98.5</ele><time>2026-04-03T06:22:19.87Z</time></trkpt><trkpt lat="45.3341484" lon="9.0772337"><ele>98.25</ele><time>2026-04-03T06:22:20.87Z</time></trkpt><trkpt lat="45.3340851" lon="9.0770537"><ele>98.0</ele><time>2026-04-03T06:22:21.87Z</time></trkpt><trkpt lat="45.3340222" lon="9.0768649"><ele>98.0</ele><time>2026-04-03T06:22:22.87Z</time></trkpt><trkpt lat="45.3339615" lon="9.0766722"><ele>98.0</ele><time>2026-04-03T06:22:23.87Z</time></trkpt><trkpt lat="45.3339051" lon="9.0764754"><ele>98.0</ele><time>2026-04-03T06:22:24.869Z</time></trkpt><trkpt lat="45.3338581" lon="9.0762707"><ele>98.0</ele><time>2026-04-03T06:22:25.87Z</time></trkpt><trkpt lat="45.3338235" lon="9.0760615"><ele>98.5</ele><time>2026-04-03T06:22:26.87Z</time></trkpt><trkpt lat="45.3337991" lon="9.0758505"><ele>99.0</ele><time>2026-04-03T06:22:27.87Z</time></trkpt><trkpt lat="45.3337773" lon="9.0756398"><ele>99.5</ele><time>2026-04-03T06:22:28.87Z</time></trkpt><trkpt lat="45.3337592" lon="9.0754298"><ele>100.0</ele><time>2026-04-03T06:22:29.869Z</time></trkpt><trkpt lat="45.3337417" lon="9.0752262"><ele>100.0</ele><time>2026-04-03T06:22:30.869Z</time></trkpt><trkpt lat="45.3337255" lon="9.0750352"><ele>100.0</ele><time>2026-04-03T06:22:31.869Z</time></trkpt><trkpt lat="45.3337064" lon="9.074849"><ele>100.0</ele><time>2026-04-03T06:22:32.87Z</time></trkpt><trkpt lat="45.3336901" lon="9.0746622"><ele>100.0</ele><time>2026-04-03T06:22:33.87Z</time></trkpt><trkpt lat="45.3336735" lon="9.074473"><ele>100.5</ele><time>2026-04-03T06:22:34.87Z</time></trkpt><trkpt lat="45.3336581" lon="9.0742808"><ele>101.0</ele><time>2026-04-03T06:22:35.869Z</time></trkpt><trkpt lat="45.3336396" lon="9.0740837"><ele>101.5</ele><time>2026-04-03T06:22:36.87Z</time></trkpt><trkpt lat="45.3336207" lon="9.0738845"><ele>102.0</ele><time>2026-04-03T06:22:37.87Z</time></trkpt><trkpt lat="45.3336014" lon="9.0736849"><ele>102.0</ele><time>2026-04-03T06:22:38.869Z</time></trkpt><trkpt lat="45.333582" lon="9.0734871"><ele>102.0</ele><time>2026-04-03T06:22:39.87Z</time></trkpt><trkpt lat="45.333563" lon="9.0732878"><ele>102.0</ele><time>2026-04-03T06:22:40.87Z</time></trkpt><trkpt lat="45.3335443" lon="9.0730895"><ele>102.0</ele><time>2026-04-03T06:22:41.869Z</time></trkpt><trkpt lat="45.3335243" lon="9.0728894"><ele>101.25</ele><time>2026-04-03T06:22:42.87Z</time></trkpt><trkpt lat="45.3335041" lon="9.0726872"><ele>100.5</ele><time>2026-04-03T06:22:43.87Z</time></trkpt><trkpt lat="45.3334848" lon="9.0724869"><ele>99.75</ele><time>2026-04-03T06:22:44.87Z</time></trkpt><trkpt lat="45.3334633" lon="9.0722832"><ele>99.0</ele><time>2026-04-03T06:22:45.87Z</time></trkpt><trkpt lat="45.333443" lon="9.072084"><ele>99.0</ele><time>2026-04-03T06:22:46.87Z</time></trkpt><trkpt lat="45.3334227" lon="9.0718867"><ele>99.0</ele><time>2026-04-03T06:22:47.87Z</time></trkpt><trkpt lat="45.3334053" lon="9.0716915"><ele>99.0</ele><time>2026-04-03T06:22:48.869Z</time></trkpt><trkpt lat="45.3333867" lon="9.071502"><ele>99.0</ele><time>2026-04-03T06:22:49.87Z</time></trkpt><trkpt lat="45.3333695" lon="9.0713179"><ele>98.75</ele><time>2026-04-03T06:22:50.87Z</time></trkpt><trkpt lat="45.3333521" lon="9.0711312"><ele>98.5</ele><time>2026-04-03T06:22:51.869Z</time></trkpt><trkpt lat="45.333333" lon="9.0709469"><ele>98.25</ele><time>2026-04-03T06:22:52.87Z</time></trkpt><trkpt lat="45.3333138" lon="9.0707672"><ele>98.0</ele><time>2026-04-03T06:22:53.87Z</time></trkpt><trkpt lat="45.3332954" lon="9.0705834"><ele>98.0</ele><time>2026-04-03T06:22:54.87Z</time></trkpt><trkpt lat="45.3332751" lon="9.0703975"><ele>98.0</ele><time>2026-04-03T06:22:55.87Z</time></trkpt><trkpt lat="45.3332592" lon="9.070209"><ele>98.0</ele><time>2026-04-03T06:22:56.869Z</time></trkpt><trkpt lat="45.3332432" lon="9.070023"><ele>98.0</ele><time>2026-04-03T06:22:57.87Z</time></trkpt><trkpt lat="45.333223" lon="9.0698383"><ele>98.0</ele><time>2026-04-03T06:22:58.87Z</time></trkpt><trkpt lat="45.3332016" lon="9.0696536"><ele>98.0</ele><time>2026-04-03T06:22:59.87Z</time></trkpt><trkpt lat="45.3331805" lon="9.0694708"><ele>98.0</ele><time>2026-04-03T06:23:00.87Z</time></trkpt><trkpt lat="45.3331624" lon="9.0692882"><ele>98.0</ele><time>2026-04-03T06:23:01.869Z</time></trkpt><trkpt lat="45.3331465" lon="9.0690986"><ele>97.75</ele><time>2026-04-03T06:23:02.869Z</time></trkpt><trkpt lat="45.3331294" lon="9.0689138"><ele>97.5</ele><time>2026-04-03T06:23:03.87Z</time></trkpt><trkpt lat="45.3331154" lon="9.0687172"><ele>97.25</ele><time>2026-04-03T06:23:04.87Z</time></trkpt><trkpt lat="45.3331051" lon="9.0685143"><ele>97.0</ele><time>2026-04-03T06:23:05.87Z</time></trkpt><trkpt lat="45.3330965" lon="9.0683099"><ele>97.0</ele><time>2026-04-03T06:23:06.87Z</time></trkpt><trkpt lat="45.3330903" lon="9.0681045"><ele>97.0</ele><time>2026-04-03T06:23:07.87Z</time></trkpt><trkpt lat="45.3330869" lon="9.0678933"><ele>97.0</ele><time>2026-04-03T06:23:08.87Z</time></trkpt><trkpt lat="45.3330835" lon="9.0676801"><ele>97.0</ele><time>2026-04-03T06:23:09.87Z</time></trkpt><trkpt lat="45.3330834" lon="9.0674702"><ele>97.25</ele><time>2026-04-03T06:23:10.869Z</time></trkpt><trkpt lat="45.3330802" lon="9.067263"><ele>97.5</ele><time>2026-04-03T06:23:11.87Z</time></trkpt><trkpt lat="45.3330784" lon="9.0670608"><ele>97.75</ele><time>2026-04-03T06:23:12.869Z</time></trkpt><trkpt lat="45.3330759" lon="9.0668674"><ele>98.0</ele><time>2026-04-03T06:23:13.87Z</time></trkpt><trkpt lat="45.333078" lon="9.0666736"><ele>98.25</ele><time>2026-04-03T06:23:14.869Z</time></trkpt><trkpt lat="45.3330753" lon="9.0664806"><ele>98.5</ele><time>2026-04-03T06:23:15.87Z</time></trkpt><trkpt lat="45.3330737" lon="9.0662872"><ele>98.75</ele><time>2026-04-03T06:23:16.869Z</time></trkpt><trkpt lat="45.3330676" lon="9.0660908"><ele>99.0</ele><time>2026-04-03T06:23:17.87Z</time></trkpt><trkpt lat="45.3330633" lon="9.0658906"><ele>99.25</ele><time>2026-04-03T06:23:18.87Z</time></trkpt><trkpt lat="45.3330609" lon="9.0656877"><ele>99.5</ele><time>2026-04-03T06:23:19.87Z</time></trkpt><trkpt lat="45.3330579" lon="9.0654926"><ele>99.75</ele><time>2026-04-03T06:23:20.87Z</time></trkpt><trkpt lat="45.3330553" lon="9.0652879"><ele>100.0</ele><time>2026-04-03T06:23:21.869Z</time></trkpt><trkpt lat="45.3330512" lon="9.0650862"><ele>100.33333333333334</ele><time>2026-04-03T06:23:22.87Z</time></trkpt><trkpt lat="45.3330483" lon="9.0648732"><ele>100.66666666666666</ele><time>2026-04-03T06:23:23.87Z</time></trkpt><trkpt lat="45.333047" lon="9.0646562"><ele>101.0</ele><time>2026-04-03T06:23:24.87Z</time></trkpt><trkpt lat="45.3330465" lon="9.0644382"><ele>101.0</ele><time>2026-04-03T06:23:25.869Z</time></trkpt><trkpt lat="45.3330444" lon="9.0642232"><ele>101.0</ele><time>2026-04-03T06:23:26.869Z</time></trkpt><trkpt lat="45.3330414" lon="9.0640137"><ele>101.0</ele><time>2026-04-03T06:23:27.869Z</time></trkpt><trkpt lat="45.3330355" lon="9.0638017"><ele>101.0</ele><time>2026-04-03T06:23:28.869Z</time></trkpt><trkpt lat="45.3330333" lon="9.0635905"><ele>101.0</ele><time>2026-04-03T06:23:29.87Z</time></trkpt><trkpt lat="45.3330298" lon="9.0633763"><ele>101.0</ele><time>2026-04-03T06:23:30.87Z</time></trkpt><trkpt lat="45.3330238" lon="9.0631611"><ele>101.0</ele><time>2026-04-03T06:23:31.87Z</time></trkpt><trkpt lat="45.3330134" lon="9.062949"><ele>101.0</ele><time>2026-04-03T06:23:32.87Z</time></trkpt><trkpt lat="45.332989" lon="9.0627351"><ele>101.0</ele><time>2026-04-03T06:23:33.87Z</time></trkpt><trkpt lat="45.3329518" lon="9.0625153"><ele>101.0</ele><time>2026-04-03T06:23:34.87Z</time></trkpt><trkpt lat="45.3329094" lon="9.0622937"><ele>100.66666666666666</ele><time>2026-04-03T06:23:35.869Z</time></trkpt><trkpt lat="45.332869" lon="9.0620767"><ele>100.33333333333334</ele><time>2026-04-03T06:23:36.87Z</time></trkpt><trkpt lat="45.3328304" lon="9.061863"><ele>100.0</ele><time>2026-04-03T06:23:37.87Z</time></trkpt><trkpt lat="45.332793" lon="9.0616477"><ele>99.66666666666667</ele><time>2026-04-03T06:23:38.87Z</time></trkpt><trkpt lat="45.332755" lon="9.0614353"><ele>99.33333333333334</ele><time>2026-04-03T06:23:39.869Z</time></trkpt><trkpt lat="45.3327185" lon="9.0612237"><ele>99.0</ele><time>2026-04-03T06:23:40.87Z</time></trkpt><trkpt lat="45.3326837" lon="9.0610103"><ele>99.0</ele><time>2026-04-03T06:23:41.87Z</time></trkpt><trkpt lat="45.3326468" lon="9.0607972"><ele>99.0</ele><time>2026-04-03T06:23:42.87Z</time></trkpt><trkpt lat="45.3326119" lon="9.0605814"><ele>99.0</ele><time>2026-04-03T06:23:43.87Z</time></trkpt><trkpt lat="45.3325787" lon="9.0603619"><ele>99.0</ele><time>2026-04-03T06:23:44.869Z</time></trkpt><trkpt lat="45.3325484" lon="9.0601428"><ele>99.0</ele><time>2026-04-03T06:23:45.87Z</time></trkpt><trkpt lat="45.3325191" lon="9.0599254"><ele>99.0</ele><time>2026-04-03T06:23:46.87Z</time></trkpt><trkpt lat="45.3324878" lon="9.0597089"><ele>99.0</ele><time>2026-04-03T06:23:47.87Z</time></trkpt><trkpt lat="45.3324579" lon="9.0594928"><ele>99.0</ele><time>2026-04-03T06:23:48.87Z</time></trkpt><trkpt lat="45.3324292" lon="9.0592806"><ele>99.0</ele><time>2026-04-03T06:23:49.87Z</time></trkpt><trkpt lat="45.3324008" lon="9.0590683"><ele>98.66666666666666</ele><time>2026-04-03T06:23:50.869Z</time></trkpt><trkpt lat="45.3323719" lon="9.0588576"><ele>98.33333333333333</ele><time>2026-04-03T06:23:51.869Z</time></trkpt><trkpt lat="45.3323422" lon="9.058648"><ele>98.0</ele><time>2026-04-03T06:23:52.87Z</time></trkpt><trkpt lat="45.3323083" lon="9.0584411"><ele>98.0</ele><time>2026-04-03T06:23:53.87Z</time></trkpt><trkpt lat="45.3322646" lon="9.0582436"><ele>98.0</ele><time>2026-04-03T06:23:54.869Z</time></trkpt><trkpt lat="45.3322012" lon="9.0580573"><ele>98.0</ele><time>2026-04-03T06:23:55.87Z</time></trkpt><trkpt lat="45.3321271" lon="9.0578803"><ele>98.0</ele><time>2026-04-03T06:23:56.869Z</time></trkpt><trkpt lat="45.3320534" lon="9.057715"><ele>98.0</ele><time>2026-04-03T06:23:57.869Z</time></trkpt><trkpt lat="45.3319861" lon="9.0575497"><ele>98.0</ele><time>2026-04-03T06:23:58.869Z</time></trkpt><trkpt lat="45.3319289" lon="9.0573748"><ele>98.0</ele><time>2026-04-03T06:23:59.87Z</time></trkpt><trkpt lat="45.3318944" lon="9.0571893"><ele>98.0</ele><time>2026-04-03T06:24:00.87Z</time></trkpt><trkpt lat="45.3318765" lon="9.0569966"><ele>98.5</ele><time>2026-04-03T06:24:01.87Z</time></trkpt><trkpt lat="45.3318685" lon="9.0568052"><ele>99.0</ele><time>2026-04-03T06:24:02.869Z</time></trkpt><trkpt lat="45.3318639" lon="9.0566129"><ele>99.5</ele><time>2026-04-03T06:24:03.869Z</time></trkpt><trkpt lat="45.3318583" lon="9.056423"><ele>100.0</ele><time>2026-04-03T06:24:04.87Z</time></trkpt><trkpt lat="45.3318526" lon="9.0562313"><ele>101.0</ele><time>2026-04-03T06:24:05.869Z</time></trkpt><trkpt lat="45.3318481" lon="9.0560322"><ele>102.0</ele><time>2026-04-03T06:24:06.869Z</time></trkpt><trkpt lat="45.3318435" lon="9.0558299"><ele>103.0</ele><time>2026-04-03T06:24:07.87Z</time></trkpt><trkpt lat="45.3318372" lon="9.0556261"><ele>104.0</ele><time>2026-04-03T06:24:08.869Z</time></trkpt><trkpt lat="45.3318293" lon="9.055426"><ele>104.0</ele><time>2026-04-03T06:24:09.87Z</time></trkpt><trkpt lat="45.3318257" lon="9.0552176"><ele>104.0</ele><time>2026-04-03T06:24:10.87Z</time></trkpt><trkpt lat="45.3318247" lon="9.055007"><ele>104.0</ele><time>2026-04-03T06:24:11.87Z</time></trkpt><trkpt lat="45.3318224" lon="9.0547955"><ele>104.0</ele><time>2026-04-03T06:24:12.869Z</time></trkpt><trkpt lat="45.3318107" lon="9.0545837"><ele>103.25</ele><time>2026-04-03T06:24:13.869Z</time></trkpt><trkpt lat="45.3317848" lon="9.0543771"><ele>102.5</ele><time>2026-04-03T06:24:14.869Z</time></trkpt><trkpt lat="45.3317363" lon="9.0541755"><ele>101.75</ele><time>2026-04-03T06:24:15.87Z</time></trkpt><trkpt lat="45.3316728" lon="9.0539814"><ele>101.0</ele><time>2026-04-03T06:24:16.87Z</time></trkpt><trkpt lat="45.3316088" lon="9.0537861"><ele>101.0</ele><time>2026-04-03T06:24:17.87Z</time></trkpt><trkpt lat="45.331546" lon="9.0535952"><ele>101.0</ele><time>2026-04-03T06:24:18.87Z</time></trkpt><trkpt lat="45.3314892" lon="9.0534122"><ele>101.0</ele><time>2026-04-03T06:24:19.87Z</time></trkpt><trkpt lat="45.3314354" lon="9.0532394"><ele>101.0</ele><time>2026-04-03T06:24:20.87Z</time></trkpt><trkpt lat="45.3313835" lon="9.0530759"><ele>101.0</ele><time>2026-04-03T06:24:21.869Z</time></trkpt><trkpt lat="45.3313311" lon="9.0529239"><ele>101.0</ele><time>2026-04-03T06:24:22.87Z</time></trkpt><trkpt lat="45.3312859" lon="9.0527774"><ele>101.0</ele><time>2026-04-03T06:24:23.87Z</time></trkpt><trkpt lat="45.3312515" lon="9.0526388"><ele>101.0</ele><time>2026-04-03T06:24:24.87Z</time></trkpt><trkpt lat="45.331227" lon="9.0525023"><ele>101.0</ele><time>2026-04-03T06:24:25.869Z</time></trkpt><trkpt lat="45.3312164" lon="9.0523702"><ele>101.16666666666666</ele><time>2026-04-03T06:24:26.87Z</time></trkpt><trkpt lat="45.3312196" lon="9.0522361"><ele>101.33333333333333</ele><time>2026-04-03T06:24:27.87Z</time></trkpt><trkpt lat="45.3312267" lon="9.0521057"><ele>101.5</ele><time>2026-04-03T06:24:28.87Z</time></trkpt><trkpt lat="45.3312222" lon="9.0519864"><ele>101.66666666666666</ele><time>2026-04-03T06:24:29.869Z</time></trkpt><trkpt lat="45.3311921" lon="9.0518836"><ele>101.83333333333333</ele><time>2026-04-03T06:24:30.869Z</time></trkpt><trkpt lat="45.3311339" lon="9.0518116"><ele>102.0</ele><time>2026-04-03T06:24:31.87Z</time></trkpt><trkpt lat="45.3310535" lon="9.051768"><ele>102.0</ele><time>2026-04-03T06:24:32.869Z</time></trkpt><trkpt lat="45.3309638" lon="9.0517382"><ele>102.0</ele><time>2026-04-03T06:24:33.87Z</time></trkpt><trkpt lat="45.3308738" lon="9.0516823"><ele>102.0</ele><time>2026-04-03T06:24:34.87Z</time></trkpt><trkpt lat="45.3307943" lon="9.0515994"><ele>102.0</ele><time>2026-04-03T06:24:35.87Z</time></trkpt><trkpt lat="45.3307217" lon="9.051489"><ele>102.0</ele><time>2026-04-03T06:24:36.87Z</time></trkpt><trkpt lat="45.3306517" lon="9.0513644"><ele>102.0</ele><time>2026-04-03T06:24:37.869Z</time></trkpt><trkpt lat="45.3305792" lon="9.0512404"><ele>102.0</ele><time>2026-04-03T06:24:38.87Z</time></trkpt><trkpt lat="45.330505" lon="9.0511178"><ele>102.0</ele><time>2026-04-03T06:24:39.869Z</time></trkpt><trkpt lat="45.330424" lon="9.0509901"><ele>102.0</ele><time>2026-04-03T06:24:40.869Z</time></trkpt><trkpt lat="45.3303287" lon="9.0508451"><ele>102.0</ele><time>2026-04-03T06:24:41.869Z</time></trkpt><trkpt lat="45.3302331" lon="9.0506816"><ele>102.0</ele><time>2026-04-03T06:24:42.87Z</time></trkpt><trkpt lat="45.3301436" lon="9.0505219"><ele>102.0</ele><time>2026-04-03T06:24:43.87Z</time></trkpt><trkpt lat="45.3300533" lon="9.0503673"><ele>102.0</ele><time>2026-04-03T06:24:44.869Z</time></trkpt><trkpt lat="45.3299613" lon="9.0502181"><ele>102.0</ele><time>2026-04-03T06:24:45.87Z</time></trkpt><trkpt lat="45.3298727" lon="9.05007"><ele>102.0</ele><time>2026-04-03T06:24:46.869Z</time></trkpt><trkpt lat="45.329784" lon="9.0499241"><ele>102.0</ele><time>2026-04-03T06:24:47.87Z</time></trkpt><trkpt lat="45.3296953" lon="9.0497775"><ele>102.0</ele><time>2026-04-03T06:24:48.869Z</time></trkpt><trkpt lat="45.329609" lon="9.0496377"><ele>101.75</ele><time>2026-04-03T06:24:49.87Z</time></trkpt><trkpt lat="45.32952" lon="9.0494923"><ele>101.5</ele><time>2026-04-03T06:24:50.869Z</time></trkpt><trkpt lat="45.3294329" lon="9.0493478"><ele>101.25</ele><time>2026-04-03T06:24:51.869Z</time></trkpt><trkpt lat="45.329345" lon="9.0492057"><ele>101.0</ele><time>2026-04-03T06:24:52.869Z</time></trkpt><trkpt lat="45.3292596" lon="9.0490582"><ele>100.5</ele><time>2026-04-03T06:24:53.87Z</time></trkpt><trkpt lat="45.3291735" lon="9.0489135"><ele>100.0</ele><time>2026-04-03T06:24:54.87Z</time></trkpt><trkpt lat="45.329085" lon="9.0487629"><ele>99.5</ele><time>2026-04-03T06:24:55.87Z</time></trkpt><trkpt lat="45.3289962" lon="9.0486142"><ele>99.0</ele><time>2026-04-03T06:24:56.87Z</time></trkpt><trkpt lat="45.3289079" lon="9.048464"><ele>99.25</ele><time>2026-04-03T06:24:57.87Z</time></trkpt><trkpt lat="45.3288162" lon="9.0483142"><ele>99.5</ele><time>2026-04-03T06:24:58.869Z</time></trkpt><trkpt lat="45.3287225" lon="9.0481565"><ele>99.75</ele><time>2026-04-03T06:24:59.87Z</time></trkpt><trkpt lat="45.3286224" lon="9.0479921"><ele>100.0</ele><time>2026-04-03T06:25:00.87Z</time></trkpt><trkpt lat="45.3285212" lon="9.047824"><ele>100.0</ele><time>2026-04-03T06:25:01.87Z</time></trkpt><trkpt lat="45.3284128" lon="9.0476501"><ele>100.0</ele><time>2026-04-03T06:25:02.87Z</time></trkpt><trkpt lat="45.3283065" lon="9.0474732"><ele>100.0</ele><time>2026-04-03T06:25:03.87Z</time></trkpt><trkpt lat="45.3281987" lon="9.0472955"><ele>100.0</ele><time>2026-04-03T06:25:04.87Z</time></trkpt><trkpt lat="45.3280916" lon="9.0471197"><ele>100.0</ele><time>2026-04-03T06:25:05.87Z</time></trkpt><trkpt lat="45.3279842" lon="9.0469416"><ele>100.0</ele><time>2026-04-03T06:25:06.869Z</time></trkpt><trkpt lat="45.3278774" lon="9.0467599"><ele>100.0</ele><time>2026-04-03T06:25:07.87Z</time></trkpt><trkpt lat="45.3277684" lon="9.0465803"><ele>100.0</ele><time>2026-04-03T06:25:08.87Z</time></trkpt><trkpt lat="45.3276583" lon="9.0463986"><ele>100.0</ele><time>2026-04-03T06:25:09.87Z</time></trkpt><trkpt lat="45.327548" lon="9.0462139"><ele>100.0</ele><time>2026-04-03T06:25:10.87Z</time></trkpt><trkpt lat="45.3274373" lon="9.0460309"><ele>100.0</ele><time>2026-04-03T06:25:11.869Z</time></trkpt><trkpt lat="45.3273273" lon="9.0458496"><ele>100.0</ele><time>2026-04-03T06:25:12.869Z</time></trkpt><trkpt lat="45.3272189" lon="9.0456697"><ele>100.0</ele><time>2026-04-03T06:25:13.87Z</time></trkpt><trkpt lat="45.3271076" lon="9.0454867"><ele>100.0</ele><time>2026-04-03T06:25:14.87Z</time></trkpt><trkpt lat="45.3269953" lon="9.0453011"><ele>100.0</ele><time>2026-04-03T06:25:15.87Z</time></trkpt><trkpt lat="45.3268831" lon="9.0451145"><ele>99.33333333333334</ele><time>2026-04-03T06:25:16.87Z</time></trkpt><trkpt lat="45.3267724" lon="9.0449331"><ele>98.66666666666666</ele><time>2026-04-03T06:25:17.87Z</time></trkpt><trkpt lat="45.3266587" lon="9.0447463"><ele>98.0</ele><time>2026-04-03T06:25:18.869Z</time></trkpt><trkpt lat="45.3265439" lon="9.0445562"><ele>98.0</ele><time>2026-04-03T06:25:19.87Z</time></trkpt><trkpt lat="45.3264284" lon="9.044364"><ele>98.0</ele><time>2026-04-03T06:25:20.87Z</time></trkpt><trkpt lat="45.3263109" lon="9.0441702"><ele>98.0</ele><time>2026-04-03T06:25:21.87Z</time></trkpt><trkpt lat="45.3261941" lon="9.0439783"><ele>99.0</ele><time>2026-04-03T06:25:22.87Z</time></trkpt><trkpt lat="45.3260776" lon="9.0437859"><ele>100.0</ele><time>2026-04-03T06:25:23.869Z</time></trkpt><trkpt lat="45.3259622" lon="9.0435944"><ele>101.0</ele><time>2026-04-03T06:25:24.87Z</time></trkpt><trkpt lat="45.3258441" lon="9.043399"><ele>100.66666666666666</ele><time>2026-04-03T06:25:25.869Z</time></trkpt><trkpt lat="45.3257253" lon="9.0432031"><ele>100.33333333333334</ele><time>2026-04-03T06:25:26.87Z</time></trkpt><trkpt lat="45.3256066" lon="9.0430095"><ele>100.0</ele><time>2026-04-03T06:25:27.87Z</time></trkpt><trkpt lat="45.3254898" lon="9.0428191"><ele>100.0</ele><time>2026-04-03T06:25:28.87Z</time></trkpt><trkpt lat="45.3253728" lon="9.0426298"><ele>100.0</ele><time>2026-04-03T06:25:29.87Z</time></trkpt><trkpt lat="45.3252537" lon="9.0424357"><ele>100.0</ele><time>2026-04-03T06:25:30.87Z</time></trkpt><trkpt lat="45.3251375" lon="9.0422408"><ele>100.0</ele><time>2026-04-03T06:25:31.869Z</time></trkpt><trkpt lat="45.3250204" lon="9.042045"><ele>100.0</ele><time>2026-04-03T06:25:32.87Z</time></trkpt><trkpt lat="45.324902" lon="9.0418497"><ele>100.0</ele><time>2026-04-03T06:25:33.87Z</time></trkpt><trkpt lat="45.3247837" lon="9.0416582"><ele>99.66666666666667</ele><time>2026-04-03T06:25:34.87Z</time></trkpt><trkpt lat="45.3246677" lon="9.0414641"><ele>99.33333333333334</ele><time>2026-04-03T06:25:35.87Z</time></trkpt><trkpt lat="45.3245509" lon="9.0412702"><ele>99.0</ele><time>2026-04-03T06:25:36.87Z</time></trkpt><trkpt lat="45.3244332" lon="9.041077"><ele>99.0</ele><time>2026-04-03T06:25:37.87Z</time></trkpt><trkpt lat="45.3243161" lon="9.0408849"><ele>99.0</ele><time>2026-04-03T06:25:38.869Z</time></trkpt><trkpt lat="45.3241985" lon="9.0406915"><ele>99.0</ele><time>2026-04-03T06:25:39.87Z</time></trkpt><trkpt lat="45.3240827" lon="9.0404955"><ele>99.0</ele><time>2026-04-03T06:25:40.87Z</time></trkpt><trkpt lat="45.3239648" lon="9.0403001"><ele>99.0</ele><time>2026-04-03T06:25:41.87Z</time></trkpt><trkpt lat="45.3238472" lon="9.0401028"><ele>99.0</ele><time>2026-04-03T06:25:42.87Z</time></trkpt><trkpt lat="45.3237291" lon="9.0399109"><ele>98.66666666666666</ele><time>2026-04-03T06:25:43.869Z</time></trkpt><trkpt lat="45.3236103" lon="9.0397155"><ele>98.33333333333333</ele><time>2026-04-03T06:25:44.87Z</time></trkpt><trkpt lat="45.3234933" lon="9.0395213"><ele>98.0</ele><time>2026-04-03T06:25:45.87Z</time></trkpt><trkpt lat="45.3233757" lon="9.0393255"><ele>98.0</ele><time>2026-04-03T06:25:46.869Z</time></trkpt><trkpt lat="45.3232575" lon="9.0391326"><ele>98.0</ele><time>2026-04-03T06:25:47.87Z</time></trkpt><trkpt lat="45.3231393" lon="9.0389378"><ele>98.0</ele><time>2026-04-03T06:25:48.87Z</time></trkpt><trkpt lat="45.3230212" lon="9.0387425"><ele>97.66666666666666</ele><time>2026-04-03T06:25:49.87Z</time></trkpt><trkpt lat="45.322903" lon="9.0385485"><ele>97.33333333333334</ele><time>2026-04-03T06:25:50.869Z</time></trkpt><trkpt lat="45.3227856" lon="9.0383553"><ele>97.0</ele><time>2026-04-03T06:25:51.87Z</time></trkpt><trkpt lat="45.3226669" lon="9.0381581"><ele>97.66666666666667</ele><time>2026-04-03T06:25:52.87Z</time></trkpt><trkpt lat="45.3225497" lon="9.0379649"><ele>98.33333333333334</ele><time>2026-04-03T06:25:53.87Z</time></trkpt><trkpt lat="45.3224394" lon="9.0377788"><ele>99.0</ele><time>2026-04-03T06:25:54.87Z</time></trkpt><trkpt lat="45.322335" lon="9.0376074"><ele>99.0</ele><time>2026-04-03T06:25:55.869Z</time></trkpt><trkpt lat="45.3222392" lon="9.0374463"><ele>99.0</ele><time>2026-04-03T06:25:56.87Z</time></trkpt><trkpt lat="45.3221426" lon="9.0372882"><ele>99.0</ele><time>2026-04-03T06:25:57.869Z</time></trkpt><trkpt lat="45.3220441" lon="9.0371307"><ele>99.0</ele><time>2026-04-03T06:25:58.87Z</time></trkpt><trkpt lat="45.3219491" lon="9.0369806"><ele>99.5</ele><time>2026-04-03T06:25:59.869Z</time></trkpt><trkpt lat="45.3218576" lon="9.0368266"><ele>100.0</ele><time>2026-04-03T06:26:00.869Z</time></trkpt><trkpt lat="45.3217655" lon="9.036674"><ele>100.5</ele><time>2026-04-03T06:26:01.869Z</time></trkpt><trkpt lat="45.3216708" lon="9.036517"><ele>101.0</ele><time>2026-04-03T06:26:02.869Z</time></trkpt><trkpt lat="45.3215763" lon="9.0363613"><ele>101.0</ele><time>2026-04-03T06:26:03.869Z</time></trkpt><trkpt lat="45.3214826" lon="9.0362057"><ele>101.0</ele><time>2026-04-03T06:26:04.87Z</time></trkpt><trkpt lat="45.3213887" lon="9.0360509"><ele>101.0</ele><time>2026-04-03T06:26:05.87Z</time></trkpt><trkpt lat="45.3212952" lon="9.0358936"><ele>101.0</ele><time>2026-04-03T06:26:06.87Z</time></trkpt><trkpt lat="45.3212018" lon="9.035739"><ele>101.0</ele><time>2026-04-03T06:26:07.869Z</time></trkpt><trkpt lat="45.3211087" lon="9.0355878"><ele>101.0</ele><time>2026-04-03T06:26:08.87Z</time></trkpt><trkpt lat="45.3210198" lon="9.0354389"><ele>101.0</ele><time>2026-04-03T06:26:09.87Z</time></trkpt><trkpt lat="45.3209304" lon="9.035283"><ele>101.0</ele><time>2026-04-03T06:26:10.87Z</time></trkpt><trkpt lat="45.3208398" lon="9.0351279"><ele>101.0</ele><time>2026-04-03T06:26:11.87Z</time></trkpt><trkpt lat="45.3207457" lon="9.0349745"><ele>101.0</ele><time>2026-04-03T06:26:12.87Z</time></trkpt><trkpt lat="45.320652" lon="9.0348196"><ele>101.0</ele><time>2026-04-03T06:26:13.869Z</time></trkpt><trkpt lat="45.3205586" lon="9.0346627"><ele>101.0</ele><time>2026-04-03T06:26:14.869Z</time></trkpt><trkpt lat="45.3204648" lon="9.0345087"><ele>100.75</ele><time>2026-04-03T06:26:15.87Z</time></trkpt><trkpt lat="45.3203699" lon="9.0343534"><ele>100.5</ele><time>2026-04-03T06:26:16.869Z</time></trkpt><trkpt lat="45.320275" lon="9.0341973"><ele>100.25</ele><time>2026-04-03T06:26:17.869Z</time></trkpt><trkpt lat="45.32018" lon="9.0340405"><ele>100.0</ele><time>2026-04-03T06:26:18.87Z</time></trkpt><trkpt lat="45.3200853" lon="9.0338845"><ele>100.0</ele><time>2026-04-03T06:26:19.869Z</time></trkpt><trkpt lat="45.3199924" lon="9.0337305"><ele>100.0</ele><time>2026-04-03T06:26:20.869Z</time></trkpt><trkpt lat="45.3198986" lon="9.0335824"><ele>100.0</ele><time>2026-04-03T06:26:21.87Z</time></trkpt><trkpt lat="45.319808" lon="9.0334322"><ele>100.0</ele><time>2026-04-03T06:26:22.87Z</time></trkpt><trkpt lat="45.319724" lon="9.033284"><ele>99.5</ele><time>2026-04-03T06:26:23.87Z</time></trkpt><trkpt lat="45.3196469" lon="9.0331297"><ele>99.0</ele><time>2026-04-03T06:26:24.87Z</time></trkpt><trkpt lat="45.3195763" lon="9.0329726"><ele>98.5</ele><time>2026-04-03T06:26:25.87Z</time></trkpt><trkpt lat="45.3195103" lon="9.032812"><ele>98.0</ele><time>2026-04-03T06:26:26.87Z</time></trkpt><trkpt lat="45.3194478" lon="9.032645"><ele>98.0</ele><time>2026-04-03T06:26:27.869Z</time></trkpt><trkpt lat="45.3193867" lon="9.0324794"><ele>98.0</ele><time>2026-04-03T06:26:28.87Z</time></trkpt><trkpt lat="45.3193295" lon="9.0323113"><ele>98.0</ele><time>2026-04-03T06:26:29.87Z</time></trkpt><trkpt lat="45.3192749" lon="9.0321414"><ele>98.0</ele><time>2026-04-03T06:26:30.87Z</time></trkpt><trkpt lat="45.3192225" lon="9.03197"><ele>98.80000000000001</ele><time>2026-04-03T06:26:31.869Z</time></trkpt><trkpt lat="45.3191782" lon="9.031806"><ele>99.6</ele><time>2026-04-03T06:26:32.87Z</time></trkpt><trkpt lat="45.3191403" lon="9.0316489"><ele>100.4</ele><time>2026-04-03T06:26:33.87Z</time></trkpt><trkpt lat="45.3191054" lon="9.0315102"><ele>101.19999999999999</ele><time>2026-04-03T06:26:34.87Z</time></trkpt><trkpt lat="45.3190663" lon="9.031392"><ele>102.0</ele><time>2026-04-03T06:26:35.87Z</time></trkpt><trkpt lat="45.3190092" lon="9.0313063"><ele>102.19999999999999</ele><time>2026-04-03T06:26:36.87Z</time></trkpt><trkpt lat="45.318935" lon="9.0312697"><ele>102.4</ele><time>2026-04-03T06:26:37.869Z</time></trkpt><trkpt lat="45.3188523" lon="9.0312849"><ele>102.6</ele><time>2026-04-03T06:26:38.87Z</time></trkpt><trkpt lat="45.3187584" lon="9.0313253"><ele>102.80000000000001</ele><time>2026-04-03T06:26:39.869Z</time></trkpt><trkpt lat="45.3186573" lon="9.0313386"><ele>103.0</ele><time>2026-04-03T06:26:40.87Z</time></trkpt><trkpt lat="45.3185659" lon="9.0313075"><ele>103.25</ele><time>2026-04-03T06:26:41.87Z</time></trkpt><trkpt lat="45.3184823" lon="9.0312339"><ele>103.5</ele><time>2026-04-03T06:26:42.87Z</time></trkpt><trkpt lat="45.3184077" lon="9.0311315"><ele>103.75</ele><time>2026-04-03T06:26:43.869Z</time></trkpt><trkpt lat="45.3183299" lon="9.0309988"><ele>104.0</ele><time>2026-04-03T06:26:44.869Z</time></trkpt><trkpt lat="45.3182457" lon="9.0308563"><ele>103.5</ele><time>2026-04-03T06:26:45.869Z</time></trkpt><trkpt lat="45.3181577" lon="9.0307082"><ele>103.0</ele><time>2026-04-03T06:26:46.87Z</time></trkpt><trkpt lat="45.3180665" lon="9.0305554"><ele>102.5</ele><time>2026-04-03T06:26:47.869Z</time></trkpt><trkpt lat="45.3179705" lon="9.0303967"><ele>102.0</ele><time>2026-04-03T06:26:48.869Z</time></trkpt><trkpt lat="45.3178726" lon="9.0302338"><ele>101.75</ele><time>2026-04-03T06:26:49.869Z</time></trkpt><trkpt lat="45.3177747" lon="9.0300732"><ele>101.5</ele><time>2026-04-03T06:26:50.87Z</time></trkpt><trkpt lat="45.317677" lon="9.0299109"><ele>101.25</ele><time>2026-04-03T06:26:51.869Z</time></trkpt><trkpt lat="45.3175801" lon="9.0297487"><ele>101.0</ele><time>2026-04-03T06:26:52.869Z</time></trkpt><trkpt lat="45.3174867" lon="9.0295921"><ele>100.75</ele><time>2026-04-03T06:26:53.87Z</time></trkpt><trkpt lat="45.3173922" lon="9.0294372"><ele>100.5</ele><time>2026-04-03T06:26:54.869Z</time></trkpt><trkpt lat="45.3172969" lon="9.0292847"><ele>100.25</ele><time>2026-04-03T06:26:55.87Z</time></trkpt><trkpt lat="45.3172009" lon="9.0291309"><ele>100.0</ele><time>2026-04-03T06:26:56.869Z</time></trkpt><trkpt lat="45.317106" lon="9.0289761"><ele>100.0</ele><time>2026-04-03T06:26:57.87Z</time></trkpt><trkpt lat="45.3170105" lon="9.0288203"><ele>100.0</ele><time>2026-04-03T06:26:58.869Z</time></trkpt><trkpt lat="45.3169154" lon="9.028667"><ele>100.0</ele><time>2026-04-03T06:26:59.869Z</time></trkpt><trkpt lat="45.3168229" lon="9.0285135"><ele>100.0</ele><time>2026-04-03T06:27:00.87Z</time></trkpt><trkpt lat="45.3167291" lon="9.0283654"><ele>100.0</ele><time>2026-04-03T06:27:01.87Z</time></trkpt><trkpt lat="45.3166375" lon="9.0282204"><ele>100.0</ele><time>2026-04-03T06:27:02.869Z</time></trkpt><trkpt lat="45.3165485" lon="9.0280832"><ele>100.0</ele><time>2026-04-03T06:27:03.87Z</time></trkpt><trkpt lat="45.3164626" lon="9.0279512"><ele>100.0</ele><time>2026-04-03T06:27:04.87Z</time></trkpt><trkpt lat="45.3163831" lon="9.0278301"><ele>100.4</ele><time>2026-04-03T06:27:05.87Z</time></trkpt><trkpt lat="45.3163065" lon="9.0277121"><ele>100.8</ele><time>2026-04-03T06:27:06.87Z</time></trkpt><trkpt lat="45.3162337" lon="9.0275995"><ele>101.19999999999999</ele><time>2026-04-03T06:27:07.87Z</time></trkpt><trkpt lat="45.3161643" lon="9.0274932"><ele>101.6</ele><time>2026-04-03T06:27:08.87Z</time></trkpt><trkpt lat="45.3160972" lon="9.027388"><ele>102.0</ele><time>2026-04-03T06:27:09.869Z</time></trkpt><trkpt lat="45.3160292" lon="9.0272874"><ele>102.0</ele><time>2026-04-03T06:27:10.87Z</time></trkpt><trkpt lat="45.3159622" lon="9.0271819"><ele>102.0</ele><time>2026-04-03T06:27:11.87Z</time></trkpt><trkpt lat="45.315895" lon="9.0270767"><ele>102.0</ele><time>2026-04-03T06:27:12.87Z</time></trkpt><trkpt lat="45.315829" lon="9.0269743"><ele>102.0</ele><time>2026-04-03T06:27:13.87Z</time></trkpt><trkpt lat="45.3157691" lon="9.0268815"><ele>102.0</ele><time>2026-04-03T06:27:14.869Z</time></trkpt><trkpt lat="45.3157145" lon="9.0267898"><ele>102.0</ele><time>2026-04-03T06:27:15.869Z</time></trkpt><trkpt lat="45.3156595" lon="9.0266971"><ele>102.0</ele><time>2026-04-03T06:27:16.87Z</time></trkpt><trkpt lat="45.3156037" lon="9.026608"><ele>102.0</ele><time>2026-04-03T06:27:17.869Z</time></trkpt><trkpt lat="45.3155477" lon="9.026529"><ele>102.0</ele><time>2026-04-03T06:27:18.87Z</time></trkpt><trkpt lat="45.315496" lon="9.0264515"><ele>102.0</ele><time>2026-04-03T06:27:19.869Z</time></trkpt><trkpt lat="45.3154488" lon="9.0263854"><ele>102.0</ele><time>2026-04-03T06:27:20.87Z</time></trkpt><trkpt lat="45.3153977" lon="9.0263144"><ele>101.83333333333333</ele><time>2026-04-03T06:27:21.869Z</time></trkpt><trkpt lat="45.3153488" lon="9.0262374"><ele>101.66666666666666</ele><time>2026-04-03T06:27:22.87Z</time></trkpt><trkpt lat="45.3152991" lon="9.0261592"><ele>101.5</ele><time>2026-04-03T06:27:23.87Z</time></trkpt><trkpt lat="45.315247" lon="9.0260878"><ele>101.33333333333333</ele><time>2026-04-03T06:27:24.87Z</time></trkpt><trkpt lat="45.315196" lon="9.026009"><ele>101.16666666666666</ele><time>2026-04-03T06:27:25.869Z</time></trkpt><trkpt lat="45.3151402" lon="9.0259256"><ele>101.0</ele><time>2026-04-03T06:27:26.87Z</time></trkpt><trkpt lat="45.315085" lon="9.0258373"><ele>100.99999999999999</ele><time>2026-04-03T06:27:27.87Z</time></trkpt><trkpt lat="45.3150254" lon="9.0257471"><ele>101.0</ele><time>2026-04-03T06:27:28.87Z</time></trkpt><trkpt lat="45.3149689" lon="9.0256603"><ele>101.0</ele><time>2026-04-03T06:27:29.87Z</time></trkpt><trkpt lat="45.3149106" lon="9.0255678"><ele>101.0</ele><time>2026-04-03T06:27:30.87Z</time></trkpt><trkpt lat="45.3148515" lon="9.0254746"><ele>100.99999999999999</ele><time>2026-04-03T06:27:31.869Z</time></trkpt><trkpt lat="45.3147961" lon="9.0253895"><ele>101.0</ele><time>2026-04-03T06:27:32.87Z</time></trkpt><trkpt lat="45.3147412" lon="9.0253017"><ele>100.99999999999999</ele><time>2026-04-03T06:27:33.869Z</time></trkpt><trkpt lat="45.3146878" lon="9.0252167"><ele>101.0</ele><time>2026-04-03T06:27:34.87Z</time></trkpt><trkpt lat="45.3146354" lon="9.0251349"><ele>101.0</ele><time>2026-04-03T06:27:35.87Z</time></trkpt><trkpt lat="45.3145832" lon="9.0250502"><ele>101.0</ele><time>2026-04-03T06:27:36.87Z</time></trkpt><trkpt lat="45.3145262" lon="9.0249593"><ele>100.99999999999999</ele><time>2026-04-03T06:27:37.87Z</time></trkpt><trkpt lat="45.3144658" lon="9.0248665"><ele>101.0</ele><time>2026-04-03T06:27:38.87Z</time></trkpt><trkpt lat="45.3144038" lon="9.0247725"><ele>101.0</ele><time>2026-04-03T06:27:39.87Z</time></trkpt><trkpt lat="45.3143381" lon="9.0246725"><ele>101.0</ele><time>2026-04-03T06:27:40.869Z</time></trkpt><trkpt lat="45.3142673" lon="9.0245658"><ele>101.0</ele><time>2026-04-03T06:27:41.869Z</time></trkpt><trkpt lat="45.314194" lon="9.0244554"><ele>101.0</ele><time>2026-04-03T06:27:42.87Z</time></trkpt><trkpt lat="45.3141216" lon="9.0243439"><ele>101.0</ele><time>2026-04-03T06:27:43.869Z</time></trkpt><trkpt lat="45.314053" lon="9.0242359"><ele>100.8</ele><time>2026-04-03T06:27:44.87Z</time></trkpt><trkpt lat="45.3139861" lon="9.0241353"><ele>100.6</ele><time>2026-04-03T06:27:45.869Z</time></trkpt><trkpt lat="45.3139211" lon="9.0240339"><ele>100.4</ele><time>2026-04-03T06:27:46.87Z</time></trkpt><trkpt lat="45.3138574" lon="9.0239308"><ele>100.2</ele><time>2026-04-03T06:27:47.87Z</time></trkpt><trkpt lat="45.3137926" lon="9.0238274"><ele>100.0</ele><time>2026-04-03T06:27:48.87Z</time></trkpt><trkpt lat="45.3137251" lon="9.023719"><ele>100.0</ele><time>2026-04-03T06:27:49.87Z</time></trkpt><trkpt lat="45.3136538" lon="9.0236149"><ele>100.0</ele><time>2026-04-03T06:27:50.869Z</time></trkpt><trkpt lat="45.3135836" lon="9.0235093"><ele>100.0</ele><time>2026-04-03T06:27:51.869Z</time></trkpt><trkpt lat="45.3135121" lon="9.0233991"><ele>100.0</ele><time>2026-04-03T06:27:52.869Z</time></trkpt><trkpt lat="45.3134414" lon="9.0232831"><ele>100.0</ele><time>2026-04-03T06:27:53.87Z</time></trkpt><trkpt lat="45.3133694" lon="9.0231654"><ele>100.0</ele><time>2026-04-03T06:27:54.87Z</time></trkpt><trkpt lat="45.3132973" lon="9.0230517"><ele>100.0</ele><time>2026-04-03T06:27:55.87Z</time></trkpt><trkpt lat="45.3132224" lon="9.0229395"><ele>100.0</ele><time>2026-04-03T06:27:56.87Z</time></trkpt><trkpt lat="45.3131512" lon="9.0228262"><ele>100.0</ele><time>2026-04-03T06:27:57.87Z</time></trkpt><trkpt lat="45.3130849" lon="9.0227098"><ele>100.0</ele><time>2026-04-03T06:27:58.87Z</time></trkpt><trkpt lat="45.3130305" lon="9.0225809"><ele>100.0</ele><time>2026-04-03T06:27:59.869Z</time></trkpt><trkpt lat="45.312995" lon="9.0224415"><ele>100.0</ele><time>2026-04-03T06:28:00.87Z</time></trkpt><trkpt lat="45.312977" lon="9.0222924"><ele>100.0</ele><time>2026-04-03T06:28:01.869Z</time></trkpt><trkpt lat="45.3129725" lon="9.0221449"><ele>100.0</ele><time>2026-04-03T06:28:02.87Z</time></trkpt><trkpt lat="45.3129681" lon="9.0219934"><ele>100.0</ele><time>2026-04-03T06:28:03.87Z</time></trkpt><trkpt lat="45.3129636" lon="9.0218455"><ele>100.00000000000001</ele><time>2026-04-03T06:28:04.87Z</time></trkpt><trkpt lat="45.3129482" lon="9.0216968"><ele>100.0</ele><time>2026-04-03T06:28:05.87Z</time></trkpt><trkpt lat="45.3129177" lon="9.0215663"><ele>100.0</ele><time>2026-04-03T06:28:06.87Z</time></trkpt><trkpt lat="45.3128773" lon="9.02145"><ele>100.0</ele><time>2026-04-03T06:28:07.87Z</time></trkpt><trkpt lat="45.3128348" lon="9.0213538"><ele>100.00000000000001</ele><time>2026-04-03T06:28:08.869Z</time></trkpt><trkpt lat="45.3127968" lon="9.0212767"><ele>100.0</ele><time>2026-04-03T06:28:09.869Z</time></trkpt><trkpt lat="45.312758" lon="9.0212009"><ele>100.2</ele><time>2026-04-03T06:28:10.87Z</time></trkpt><trkpt lat="45.3126932" lon="9.0210673"><ele>100.4</ele><time>2026-04-03T06:28:12.869Z</time></trkpt><trkpt lat="45.3126368" lon="9.0209448"><ele>100.6</ele><time>2026-04-03T06:28:14.87Z</time></trkpt><trkpt lat="45.3126701" lon="9.0208433"><ele>100.8</ele><time>2026-04-03T06:28:16.87Z</time></trkpt><trkpt lat="45.3127572" lon="9.0207574"><ele>101.0</ele><time>2026-04-03T06:28:18.87Z</time></trkpt><trkpt lat="45.3128436" lon="9.0206637"><ele>100.99999999999999</ele><time>2026-04-03T06:28:20.87Z</time></trkpt><trkpt lat="45.3128896" lon="9.020601"><ele>101.0</ele><time>2026-04-03T06:28:22.87Z</time></trkpt><trkpt lat="45.3129041" lon="9.0204751"><ele>101.0</ele><time>2026-04-03T06:28:24.869Z</time></trkpt><trkpt lat="45.3129" lon="9.020298"><ele>101.0</ele><time>2026-04-03T06:28:26.869Z</time></trkpt><trkpt lat="45.3128917" lon="9.020202"><ele>100.99999999999999</ele><time>2026-04-03T06:28:27.87Z</time></trkpt><trkpt lat="45.3128817" lon="9.0201078"><ele>101.0</ele><time>2026-04-03T06:28:28.869Z</time></trkpt><trkpt lat="45.3128551" lon="9.0200146"><ele>100.83333333333333</ele><time>2026-04-03T06:28:29.87Z</time></trkpt><trkpt lat="45.3128144" lon="9.0199314"><ele>100.66666666666666</ele><time>2026-04-03T06:28:30.87Z</time></trkpt><trkpt lat="45.3127716" lon="9.0198565"><ele>100.5</ele><time>2026-04-03T06:28:31.869Z</time></trkpt><trkpt lat="45.3127247" lon="9.0197625"><ele>100.33333333333334</ele><time>2026-04-03T06:28:33.869Z</time></trkpt><trkpt lat="45.3126906" lon="9.0196738"><ele>100.16666666666667</ele><time>2026-04-03T06:28:35.869Z</time></trkpt><trkpt lat="45.3126423" lon="9.0195371"><ele>100.0</ele><time>2026-04-03T06:28:37.869Z</time></trkpt><trkpt lat="45.312606" lon="9.0194617"><ele>100.00000000000001</ele><time>2026-04-03T06:28:38.869Z</time></trkpt><trkpt lat="45.3125698" lon="9.0193877"><ele>100.0</ele><time>2026-04-03T06:28:39.87Z</time></trkpt><trkpt lat="45.3125118" lon="9.0192902"><ele>100.0</ele><time>2026-04-03T06:28:41.869Z</time></trkpt><trkpt lat="45.3124654" lon="9.019188"><ele>100.0</ele><time>2026-04-03T06:28:44.87Z</time></trkpt><trkpt lat="45.3123783" lon="9.019087"><ele>100.00000000000001</ele><time>2026-04-03T06:28:46.87Z</time></trkpt><trkpt lat="45.3123176" lon="9.0190454"><ele>100.0</ele><time>2026-04-03T06:28:47.87Z</time></trkpt><trkpt lat="45.3122569" lon="9.0190067"><ele>100.00000000000001</ele><time>2026-04-03T06:28:48.87Z</time></trkpt><trkpt lat="45.3121876" lon="9.0189972"><ele>100.0</ele><time>2026-04-03T06:28:49.87Z</time></trkpt><trkpt lat="45.3121174" lon="9.0190198"><ele>100.0</ele><time>2026-04-03T06:28:50.87Z</time></trkpt><trkpt lat="45.3120496" lon="9.0190507"><ele>100.0</ele><time>2026-04-03T06:28:51.87Z</time></trkpt><trkpt lat="45.3119847" lon="9.0190947"><ele>100.0</ele><time>2026-04-03T06:28:52.87Z</time></trkpt><trkpt lat="45.3119221" lon="9.0191406"><ele>100.00000000000001</ele><time>2026-04-03T06:28:53.87Z</time></trkpt><trkpt lat="45.3118664" lon="9.0191836"><ele>100.0</ele><time>2026-04-03T06:28:54.87Z</time></trkpt><trkpt lat="45.3118069" lon="9.019246"><ele>100.00000000000001</ele><time>2026-04-03T06:28:56.87Z</time></trkpt><trkpt lat="45.3117207" lon="9.0192115"><ele>100.0</ele><time>2026-04-03T06:28:59.87Z</time></trkpt><trkpt lat="45.3116512" lon="9.0190868"><ele>100.0</ele><time>2026-04-03T06:29:01.87Z</time></trkpt><trkpt lat="45.311604" lon="9.0190113"><ele>100.0</ele><time>2026-04-03T06:29:02.87Z</time></trkpt><trkpt lat="45.3115507" lon="9.0189341"><ele>100.00000000000001</ele><time>2026-04-03T06:29:03.869Z</time></trkpt><trkpt lat="45.3114955" lon="9.0188622"><ele>100.0</ele><time>2026-04-03T06:29:04.87Z</time></trkpt><trkpt lat="45.3114368" lon="9.018795"><ele>100.00000000000001</ele><time>2026-04-03T06:29:05.87Z</time></trkpt><trkpt lat="45.3113809" lon="9.0187319"><ele>100.0</ele><time>2026-04-03T06:29:06.869Z</time></trkpt><trkpt lat="45.3113253" lon="9.0186683"><ele>100.0</ele><time>2026-04-03T06:29:07.869Z</time></trkpt><trkpt lat="45.3112736" lon="9.0186144"><ele>100.0</ele><time>2026-04-03T06:29:08.87Z</time></trkpt><trkpt lat="45.3112179" lon="9.0185614"><ele>100.0</ele><time>2026-04-03T06:29:09.869Z</time></trkpt><trkpt lat="45.3111651" lon="9.0185016"><ele>100.00000000000001</ele><time>2026-04-03T06:29:10.87Z</time></trkpt><trkpt lat="45.311079" lon="9.0184092"><ele>100.0</ele><time>2026-04-03T06:29:12.869Z</time></trkpt><trkpt lat="45.3110227" lon="9.0183351"><ele>100.00000000000001</ele><time>2026-04-03T06:29:14.869Z</time></trkpt><trkpt lat="45.3109754" lon="9.01826"><ele>100.0</ele><time>2026-04-03T06:29:48.869Z</time></trkpt><trkpt lat="45.310906" lon="9.0181468"><ele>100.0</ele><time>2026-04-03T06:29:50.87Z</time></trkpt><trkpt lat="45.3108621" lon="9.0180774"><ele>100.0</ele><time>2026-04-03T06:29:51.87Z</time></trkpt><trkpt lat="45.310816" lon="9.0180077"><ele>100.00000000000001</ele><time>2026-04-03T06:29:52.869Z</time></trkpt><trkpt lat="45.3107605" lon="9.0179274"><ele>100.0</ele><time>2026-04-03T06:29:53.87Z</time></trkpt><trkpt lat="45.3106979" lon="9.0178411"><ele>100.00000000000001</ele><time>2026-04-03T06:29:54.869Z</time></trkpt><trkpt lat="45.3106316" lon="9.0177484"><ele>100.0</ele><time>2026-04-03T06:29:55.869Z</time></trkpt><trkpt lat="45.3105643" lon="9.0176636"><ele>100.0</ele><time>2026-04-03T06:29:56.87Z</time></trkpt><trkpt lat="45.3104935" lon="9.0175865"><ele>100.0</ele><time>2026-04-03T06:29:57.87Z</time></trkpt><trkpt lat="45.3104224" lon="9.0175198"><ele>100.00000000000001</ele><time>2026-04-03T06:29:58.87Z</time></trkpt><trkpt lat="45.3103509" lon="9.017452"><ele>100.0</ele><time>2026-04-03T06:29:59.87Z</time></trkpt><trkpt lat="45.3102743" lon="9.0173834"><ele>100.00000000000001</ele><time>2026-04-03T06:30:00.869Z</time></trkpt><trkpt lat="45.310196" lon="9.0173185"><ele>100.0</ele><time>2026-04-03T06:30:01.87Z</time></trkpt><trkpt lat="45.3101208" lon="9.0172582"><ele>100.0</ele><time>2026-04-03T06:30:02.869Z</time></trkpt><trkpt lat="45.3100443" lon="9.0172054"><ele>100.0</ele><time>2026-04-03T06:30:03.87Z</time></trkpt><trkpt lat="45.3099704" lon="9.0171531"><ele>100.00000000000001</ele><time>2026-04-03T06:30:04.869Z</time></trkpt><trkpt lat="45.3098998" lon="9.0171036"><ele>100.0</ele><time>2026-04-03T06:30:05.87Z</time></trkpt><trkpt lat="45.3098243" lon="9.0170565"><ele>100.00000000000001</ele><time>2026-04-03T06:30:06.869Z</time></trkpt><trkpt lat="45.3097496" lon="9.0169988"><ele>100.0</ele><time>2026-04-03T06:30:07.87Z</time></trkpt><trkpt lat="45.3096771" lon="9.0169389"><ele>100.0</ele><time>2026-04-03T06:30:08.87Z</time></trkpt><trkpt lat="45.3096062" lon="9.016876"><ele>100.0</ele><time>2026-04-03T06:30:09.87Z</time></trkpt><trkpt lat="45.3095377" lon="9.0168127"><ele>100.00000000000001</ele><time>2026-04-03T06:30:10.87Z</time></trkpt><trkpt lat="45.3094706" lon="9.016757"><ele>100.0</ele><time>2026-04-03T06:30:11.87Z</time></trkpt><trkpt lat="45.3094096" lon="9.0167039"><ele>100.16666666666667</ele><time>2026-04-03T06:30:12.87Z</time></trkpt><trkpt lat="45.3093494" lon="9.0166464"><ele>100.33333333333334</ele><time>2026-04-03T06:30:13.87Z</time></trkpt><trkpt lat="45.3092869" lon="9.0165932"><ele>100.5</ele><time>2026-04-03T06:30:14.87Z</time></trkpt><trkpt lat="45.3092224" lon="9.0165367"><ele>100.66666666666666</ele><time>2026-04-03T06:30:15.87Z</time></trkpt><trkpt lat="45.3091549" lon="9.0164812"><ele>100.83333333333333</ele><time>2026-04-03T06:30:16.87Z</time></trkpt><trkpt lat="45.309088" lon="9.0164155"><ele>101.0</ele><time>2026-04-03T06:30:17.87Z</time></trkpt><trkpt lat="45.3090235" lon="9.0163503"><ele>100.99999999999999</ele><time>2026-04-03T06:30:18.869Z</time></trkpt><trkpt lat="45.3089628" lon="9.0162725"><ele>101.0</ele><time>2026-04-03T06:30:19.87Z</time></trkpt><trkpt lat="45.308908" lon="9.0161889"><ele>101.0</ele><time>2026-04-03T06:30:20.869Z</time></trkpt><trkpt lat="45.3088657" lon="9.0161007"><ele>101.0</ele><time>2026-04-03T06:30:21.869Z</time></trkpt><trkpt lat="45.308832" lon="9.016014"><ele>100.99999999999999</ele><time>2026-04-03T06:30:22.87Z</time></trkpt><trkpt lat="45.3088049" lon="9.0159309"><ele>101.0</ele><time>2026-04-03T06:30:23.87Z</time></trkpt><trkpt lat="45.3087687" lon="9.0157672"><ele>100.71428571428571</ele><time>2026-04-03T06:30:25.87Z</time></trkpt><trkpt lat="45.3087567" lon="9.0156396"><ele>100.42857142857142</ele><time>2026-04-03T06:30:27.869Z</time></trkpt><trkpt lat="45.3087532" lon="9.0155501"><ele>100.14285714285714</ele><time>2026-04-03T06:30:29.87Z</time></trkpt><trkpt lat="45.3087778" lon="9.0154216"><ele>99.85714285714286</ele><time>2026-04-03T06:30:31.87Z</time></trkpt><trkpt lat="45.3087944" lon="9.0153342"><ele>99.57142857142857</ele><time>2026-04-03T06:30:32.87Z</time></trkpt><trkpt lat="45.3088111" lon="9.015241"><ele>99.28571428571429</ele><time>2026-04-03T06:30:33.87Z</time></trkpt><trkpt lat="45.3088347" lon="9.0151495"><ele>99.0</ele><time>2026-04-03T06:30:34.87Z</time></trkpt><trkpt lat="45.3088652" lon="9.0150672"><ele>99.0</ele><time>2026-04-03T06:30:35.869Z</time></trkpt><trkpt lat="45.3089101" lon="9.014955"><ele>99.0</ele><time>2026-04-03T06:30:37.869Z</time></trkpt><trkpt lat="45.3088939" lon="9.0148527"><ele>99.0</ele><time>2026-04-03T06:30:39.87Z</time></trkpt><trkpt lat="45.3088139" lon="9.0148008"><ele>99.0</ele><time>2026-04-03T06:30:41.869Z</time></trkpt><trkpt lat="45.3087422" lon="9.0147983"><ele>99.0</ele><time>2026-04-03T06:30:43.87Z</time></trkpt><trkpt lat="45.308758" lon="9.0149018"><ele>99.0</ele><time>2026-04-03T06:30:47.869Z</time></trkpt><trkpt lat="45.3088215" lon="9.0149985"><ele>99.0</ele><time>2026-04-03T06:31:07.87Z</time></trkpt><trkpt lat="45.3087794" lon="9.0151542"><ele>99.0</ele><time>2026-04-03T06:31:09.87Z</time></trkpt><trkpt lat="45.3087513" lon="9.01524"><ele>99.0</ele><time>2026-04-03T06:31:10.87Z</time></trkpt><trkpt lat="45.3087198" lon="9.0153401"><ele>99.0</ele><time>2026-04-03T06:31:11.87Z</time></trkpt><trkpt lat="45.3086799" lon="9.0154422"><ele>99.0</ele><time>2026-04-03T06:31:12.87Z</time></trkpt><trkpt lat="45.3086377" lon="9.0155372"><ele>99.0</ele><time>2026-04-03T06:31:13.87Z</time></trkpt><trkpt lat="45.3085975" lon="9.0156318"><ele>99.0</ele><time>2026-04-03T06:31:14.869Z</time></trkpt><trkpt lat="45.308558" lon="9.0157226"><ele>99.0</ele><time>2026-04-03T06:31:15.869Z</time></trkpt><trkpt lat="45.3085179" lon="9.015814"><ele>99.0</ele><time>2026-04-03T06:31:16.87Z</time></trkpt><trkpt lat="45.3084802" lon="9.0159039"><ele>99.0</ele><time>2026-04-03T06:31:17.869Z</time></trkpt><trkpt lat="45.308442" lon="9.0159934"><ele>99.0</ele><time>2026-04-03T06:31:18.87Z</time></trkpt><trkpt lat="45.3084026" lon="9.0160798"><ele>99.0</ele><time>2026-04-03T06:31:19.87Z</time></trkpt><trkpt lat="45.3083607" lon="9.016162"><ele>99.0</ele><time>2026-04-03T06:31:20.869Z</time></trkpt><trkpt lat="45.3083199" lon="9.0162475"><ele>99.0</ele><time>2026-04-03T06:31:21.87Z</time></trkpt><trkpt lat="45.3082772" lon="9.016329"><ele>99.0</ele><time>2026-04-03T06:31:22.87Z</time></trkpt><trkpt lat="45.3082347" lon="9.0164115"><ele>99.0</ele><time>2026-04-03T06:31:23.869Z</time></trkpt><trkpt lat="45.3081909" lon="9.016498"><ele>99.0</ele><time>2026-04-03T06:31:24.87Z</time></trkpt><trkpt lat="45.3081488" lon="9.0165789"><ele>99.0</ele><time>2026-04-03T06:31:25.87Z</time></trkpt><trkpt lat="45.3080782" lon="9.0167083"><ele>99.0</ele><time>2026-04-03T06:31:27.87Z</time></trkpt><trkpt lat="45.3080432" lon="9.016791"><ele>99.0</ele><time>2026-04-03T06:31:29.869Z</time></trkpt><trkpt lat="45.3079894" lon="9.016895"><ele>99.0</ele><time>2026-04-03T06:31:59.869Z</time></trkpt><trkpt lat="45.3079119" lon="9.0170224"><ele>99.0</ele><time>2026-04-03T06:32:01.87Z</time></trkpt><trkpt lat="45.3078313" lon="9.0171485"><ele>99.0</ele><time>2026-04-03T06:32:03.869Z</time></trkpt><trkpt lat="45.3077596" lon="9.0172974"><ele>99.0</ele><time>2026-04-03T06:32:05.87Z</time></trkpt><trkpt lat="45.3076871" lon="9.0174347"><ele>99.0</ele><time>2026-04-03T06:32:07.87Z</time></trkpt><trkpt lat="45.3076442" lon="9.0175011"><ele>99.0</ele><time>2026-04-03T06:32:08.849Z</time></trkpt><trkpt lat="45.3075711" lon="9.0176491"><ele>99.0</ele><time>2026-04-03T06:32:10.847Z</time></trkpt><trkpt lat="45.3075315" lon="9.0177331"><ele>99.0</ele><time>2026-04-03T06:32:11.848Z</time></trkpt><trkpt lat="45.3074934" lon="9.0178192"><ele>99.0</ele><time>2026-04-03T06:32:12.848Z</time></trkpt><trkpt lat="45.307455" lon="9.0179103"><ele>99.0</ele><time>2026-04-03T06:32:13.848Z</time></trkpt><trkpt lat="45.3074161" lon="9.0179983"><ele>99.0</ele><time>2026-04-03T06:32:14.849Z</time></trkpt><trkpt lat="45.3073775" lon="9.0180909"><ele>99.0</ele><time>2026-04-03T06:32:15.849Z</time></trkpt><trkpt lat="45.3073403" lon="9.0181846"><ele>99.0</ele><time>2026-04-03T06:32:16.849Z</time></trkpt><trkpt lat="45.3073003" lon="9.0182802"><ele>99.0</ele><time>2026-04-03T06:32:17.849Z</time></trkpt><trkpt lat="45.3072632" lon="9.0183718"><ele>99.16666666666667</ele><time>2026-04-03T06:32:18.849Z</time></trkpt><trkpt lat="45.3072235" lon="9.0184699"><ele>99.33333333333334</ele><time>2026-04-03T06:32:19.849Z</time></trkpt><trkpt lat="45.3071859" lon="9.0185603"><ele>99.5</ele><time>2026-04-03T06:32:20.849Z</time></trkpt><trkpt lat="45.307147" lon="9.0186525"><ele>99.66666666666667</ele><time>2026-04-03T06:32:21.849Z</time></trkpt><trkpt lat="45.3071087" lon="9.0187436"><ele>99.83333333333334</ele><time>2026-04-03T06:32:22.849Z</time></trkpt><trkpt lat="45.3070704" lon="9.0188344"><ele>100.0</ele><time>2026-04-03T06:32:23.849Z</time></trkpt><trkpt lat="45.3070321" lon="9.0189236"><ele>100.00000000000001</ele><time>2026-04-03T06:32:24.848Z</time></trkpt><trkpt lat="45.3069971" lon="9.0190104"><ele>100.0</ele><time>2026-04-03T06:32:25.848Z</time></trkpt><trkpt lat="45.3069621" lon="9.0190983"><ele>100.0</ele><time>2026-04-03T06:32:26.848Z</time></trkpt><trkpt lat="45.3069225" lon="9.0191867"><ele>100.0</ele><time>2026-04-03T06:32:27.849Z</time></trkpt><trkpt lat="45.3068821" lon="9.0192753"><ele>100.0</ele><time>2026-04-03T06:32:28.849Z</time></trkpt><trkpt lat="45.3068416" lon="9.0193636"><ele>100.00000000000001</ele><time>2026-04-03T06:32:29.849Z</time></trkpt><trkpt lat="45.3068063" lon="9.0194479"><ele>100.0</ele><time>2026-04-03T06:32:30.848Z</time></trkpt><trkpt lat="45.3067752" lon="9.0195275"><ele>100.0</ele><time>2026-04-03T06:32:31.849Z</time></trkpt><trkpt lat="45.3067132" lon="9.019673"><ele>100.0</ele><time>2026-04-03T06:32:33.848Z</time></trkpt><trkpt lat="45.3066443" lon="9.0198342"><ele>100.0</ele><time>2026-04-03T06:32:35.849Z</time></trkpt><trkpt lat="45.3066066" lon="9.0199219"><ele>100.0</ele><time>2026-04-03T06:32:36.849Z</time></trkpt><trkpt lat="45.3065673" lon="9.0200177"><ele>100.0</ele><time>2026-04-03T06:32:37.849Z</time></trkpt><trkpt lat="45.3065259" lon="9.0201168"><ele>100.00000000000001</ele><time>2026-04-03T06:32:38.848Z</time></trkpt><trkpt lat="45.3064826" lon="9.0202214"><ele>100.0</ele><time>2026-04-03T06:32:39.849Z</time></trkpt><trkpt lat="45.3064391" lon="9.0203271"><ele>100.0</ele><time>2026-04-03T06:32:40.848Z</time></trkpt><trkpt lat="45.3063957" lon="9.020437"><ele>100.0</ele><time>2026-04-03T06:32:41.848Z</time></trkpt><trkpt lat="45.306354" lon="9.0205393"><ele>100.00000000000001</ele><time>2026-04-03T06:32:42.849Z</time></trkpt><trkpt lat="45.3063106" lon="9.0206481"><ele>100.0</ele><time>2026-04-03T06:32:43.848Z</time></trkpt><trkpt lat="45.3062723" lon="9.020746"><ele>99.83333333333334</ele><time>2026-04-03T06:32:44.849Z</time></trkpt><trkpt lat="45.3062342" lon="9.0208435"><ele>99.66666666666667</ele><time>2026-04-03T06:32:45.849Z</time></trkpt><trkpt lat="45.3061984" lon="9.0209337"><ele>99.5</ele><time>2026-04-03T06:32:46.848Z</time></trkpt><trkpt lat="45.3061403" lon="9.0210771"><ele>99.33333333333334</ele><time>2026-04-03T06:32:48.849Z</time></trkpt><trkpt lat="45.3061012" lon="9.0211773"><ele>99.16666666666667</ele><time>2026-04-03T06:32:50.849Z</time></trkpt><trkpt lat="45.3060676" lon="9.0212563"><ele>99.0</ele><time>2026-04-03T06:32:56.849Z</time></trkpt><trkpt lat="45.3060329" lon="9.021342"><ele>99.0</ele><time>2026-04-03T06:32:59.848Z</time></trkpt><trkpt lat="45.3059819" lon="9.0214613"><ele>99.0</ele><time>2026-04-03T06:33:02.849Z</time></trkpt><trkpt lat="45.3059045" lon="9.0215023"><ele>99.0</ele><time>2026-04-03T06:33:04.848Z</time></trkpt><trkpt lat="45.3058081" lon="9.021454"><ele>99.0</ele><time>2026-04-03T06:33:06.849Z</time></trkpt><trkpt lat="45.3056975" lon="9.0213889"><ele>99.0</ele><time>2026-04-03T06:33:08.849Z</time></trkpt><trkpt lat="45.3056334" lon="9.0213534"><ele>99.33333333333333</ele><time>2026-04-03T06:33:09.848Z</time></trkpt><trkpt lat="45.3055628" lon="9.0213111"><ele>99.66666666666666</ele><time>2026-04-03T06:33:10.848Z</time></trkpt><trkpt lat="45.305487" lon="9.0212644"><ele>100.0</ele><time>2026-04-03T06:33:11.848Z</time></trkpt><trkpt lat="45.3054088" lon="9.0212166"><ele>100.33333333333333</ele><time>2026-04-03T06:33:12.849Z</time></trkpt><trkpt lat="45.305329" lon="9.021169"><ele>100.66666666666666</ele><time>2026-04-03T06:33:13.848Z</time></trkpt><trkpt lat="45.3052495" lon="9.0211228"><ele>101.0</ele><time>2026-04-03T06:33:14.849Z</time></trkpt><trkpt lat="45.3051678" lon="9.0210755"><ele>100.99999999999999</ele><time>2026-04-03T06:33:15.848Z</time></trkpt><trkpt lat="45.3050909" lon="9.0210329"><ele>101.0</ele><time>2026-04-03T06:33:16.848Z</time></trkpt><trkpt lat="45.3050099" lon="9.0209971"><ele>101.0</ele><time>2026-04-03T06:33:17.848Z</time></trkpt><trkpt lat="45.3049263" lon="9.0209705"><ele>101.0</ele><time>2026-04-03T06:33:18.848Z</time></trkpt><trkpt lat="45.3048424" lon="9.0209445"><ele>100.99999999999999</ele><time>2026-04-03T06:33:19.848Z</time></trkpt><trkpt lat="45.3047524" lon="9.0209143"><ele>101.0</ele><time>2026-04-03T06:33:20.849Z</time></trkpt><trkpt lat="45.3046589" lon="9.0208801"><ele>100.6</ele><time>2026-04-03T06:33:21.849Z</time></trkpt><trkpt lat="45.3045628" lon="9.0208378"><ele>100.19999999999999</ele><time>2026-04-03T06:33:22.848Z</time></trkpt><trkpt lat="45.3044659" lon="9.0207862"><ele>99.80000000000001</ele><time>2026-04-03T06:33:23.849Z</time></trkpt><trkpt lat="45.3043843" lon="9.0207362"><ele>99.4</ele><time>2026-04-03T06:33:24.848Z</time></trkpt><trkpt lat="45.3043137" lon="9.0206873"><ele>99.0</ele><time>2026-04-03T06:33:25.849Z</time></trkpt><trkpt lat="45.3042201" lon="9.0206165"><ele>99.0</ele><time>2026-04-03T06:33:27.849Z</time></trkpt><trkpt lat="45.304146" lon="9.0206422"><ele>99.0</ele><time>2026-04-03T06:33:30.849Z</time></trkpt><trkpt lat="45.3042222" lon="9.0206765"><ele>99.0</ele><time>2026-04-03T06:33:35.848Z</time></trkpt><trkpt lat="45.3043073" lon="9.0207218"><ele>99.0</ele><time>2026-04-03T06:33:37.848Z</time></trkpt><trkpt lat="45.3044247" lon="9.0208054"><ele>99.0</ele><time>2026-04-03T06:33:39.849Z</time></trkpt><trkpt lat="45.3044908" lon="9.0208421"><ele>99.0</ele><time>2026-04-03T06:33:40.849Z</time></trkpt><trkpt lat="45.3045659" lon="9.0208756"><ele>99.0</ele><time>2026-04-03T06:33:41.848Z</time></trkpt><trkpt lat="45.3046442" lon="9.0209079"><ele>99.0</ele><time>2026-04-03T06:33:42.848Z</time></trkpt><trkpt lat="45.3047227" lon="9.0209368"><ele>99.0</ele><time>2026-04-03T06:33:43.849Z</time></trkpt><trkpt lat="45.3047937" lon="9.0209623"><ele>99.0</ele><time>2026-04-03T06:33:44.848Z</time></trkpt><trkpt lat="45.3048882" lon="9.0209957"><ele>99.0</ele><time>2026-04-03T06:33:46.848Z</time></trkpt><trkpt lat="45.3049547" lon="9.0210325"><ele>99.0</ele><time>2026-04-03T06:33:50.849Z</time></trkpt><trkpt lat="45.3049558" lon="9.0211275"><ele>99.0</ele><time>2026-04-03T06:33:55.849Z</time></trkpt><trkpt lat="45.3048837" lon="9.0212021"><ele>99.0</ele><time>2026-04-03T06:33:57.849Z</time></trkpt><trkpt lat="45.3048307" lon="9.0212547"><ele>99.0</ele><time>2026-04-03T06:33:58.848Z</time></trkpt><trkpt lat="45.304769" lon="9.0213135"><ele>99.0</ele><time>2026-04-03T06:33:59.849Z</time></trkpt><trkpt lat="45.3047045" lon="9.0213772"><ele>99.0</ele><time>2026-04-03T06:34:00.849Z</time></trkpt><trkpt lat="45.3046399" lon="9.0214433"><ele>99.0</ele><time>2026-04-03T06:34:01.849Z</time></trkpt><trkpt lat="45.3045748" lon="9.0215114"><ele>99.0</ele><time>2026-04-03T06:34:02.849Z</time></trkpt><trkpt lat="45.3045105" lon="9.0215805"><ele>99.0</ele><time>2026-04-03T06:34:03.848Z</time></trkpt><trkpt lat="45.3044535" lon="9.0216457"><ele>99.0</ele><time>2026-04-03T06:34:04.849Z</time></trkpt><trkpt lat="45.3044016" lon="9.0217079"><ele>99.0</ele><time>2026-04-03T06:34:05.849Z</time></trkpt><trkpt lat="45.3043522" lon="9.0217732"><ele>99.0</ele><time>2026-04-03T06:34:06.849Z</time></trkpt><trkpt lat="45.3043015" lon="9.0218414"><ele>99.0</ele><time>2026-04-03T06:34:07.849Z</time></trkpt><trkpt lat="45.3042546" lon="9.0219083"><ele>99.0</ele><time>2026-04-03T06:34:08.848Z</time></trkpt><trkpt lat="45.3042057" lon="9.0219795"><ele>99.16666666666667</ele><time>2026-04-03T06:34:09.849Z</time></trkpt><trkpt lat="45.3041583" lon="9.0220442"><ele>99.33333333333334</ele><time>2026-04-03T06:34:10.849Z</time></trkpt><trkpt lat="45.3041102" lon="9.0221119"><ele>99.5</ele><time>2026-04-03T06:34:11.849Z</time></trkpt><trkpt lat="45.3040233" lon="9.022245"><ele>99.66666666666667</ele><time>2026-04-03T06:34:13.849Z</time></trkpt><trkpt lat="45.3039796" lon="9.0223136"><ele>99.83333333333334</ele><time>2026-04-03T06:34:14.849Z</time></trkpt><trkpt lat="45.3039353" lon="9.0223844"><ele>100.0</ele><time>2026-04-03T06:34:15.849Z</time></trkpt><trkpt lat="45.3038899" lon="9.0224538"><ele>99.66666666666667</ele><time>2026-04-03T06:34:16.849Z</time></trkpt><trkpt lat="45.3038438" lon="9.0225208"><ele>99.33333333333334</ele><time>2026-04-03T06:34:17.849Z</time></trkpt><trkpt lat="45.3037973" lon="9.0225813"><ele>99.0</ele><time>2026-04-03T06:34:18.849Z</time></trkpt><trkpt lat="45.3037468" lon="9.0226359"><ele>98.66666666666666</ele><time>2026-04-03T06:34:19.849Z</time></trkpt><trkpt lat="45.3036345" lon="9.0226962"><ele>98.33333333333333</ele><time>2026-04-03T06:34:21.849Z</time></trkpt><trkpt lat="45.3035689" lon="9.0227008"><ele>98.0</ele><time>2026-04-03T06:34:22.848Z</time></trkpt><trkpt lat="45.303494" lon="9.0226937"><ele>98.0</ele><time>2026-04-03T06:34:23.849Z</time></trkpt><trkpt lat="45.3034077" lon="9.0226817"><ele>98.0</ele><time>2026-04-03T06:34:24.849Z</time></trkpt><trkpt lat="45.3033137" lon="9.0226656"><ele>98.0</ele><time>2026-04-03T06:34:25.849Z</time></trkpt><trkpt lat="45.3032109" lon="9.0226482"><ele>98.0</ele><time>2026-04-03T06:34:26.848Z</time></trkpt><trkpt lat="45.303095" lon="9.0226286"><ele>98.0</ele><time>2026-04-03T06:34:27.848Z</time></trkpt><trkpt lat="45.3029777" lon="9.022604"><ele>97.75</ele><time>2026-04-03T06:34:28.849Z</time></trkpt><trkpt lat="45.3028625" lon="9.0225764"><ele>97.5</ele><time>2026-04-03T06:34:29.848Z</time></trkpt><trkpt lat="45.3027473" lon="9.0225463"><ele>97.25</ele><time>2026-04-03T06:34:30.849Z</time></trkpt><trkpt lat="45.3026347" lon="9.0225138"><ele>97.0</ele><time>2026-04-03T06:34:31.848Z</time></trkpt><trkpt lat="45.302527" lon="9.0224791"><ele>97.0</ele><time>2026-04-03T06:34:32.848Z</time></trkpt><trkpt lat="45.3024231" lon="9.0224438"><ele>97.0</ele><time>2026-04-03T06:34:33.849Z</time></trkpt><trkpt lat="45.3023187" lon="9.0224091"><ele>97.0</ele><time>2026-04-03T06:34:34.849Z</time></trkpt><trkpt lat="45.3022121" lon="9.0223727"><ele>97.0</ele><time>2026-04-03T06:34:35.849Z</time></trkpt><trkpt lat="45.3021122" lon="9.0223374"><ele>97.0</ele><time>2026-04-03T06:34:36.849Z</time></trkpt><trkpt lat="45.3020067" lon="9.0223018"><ele>97.0</ele><time>2026-04-03T06:34:37.848Z</time></trkpt><trkpt lat="45.3018998" lon="9.022268"><ele>97.0</ele><time>2026-04-03T06:34:38.849Z</time></trkpt><trkpt lat="45.3017936" lon="9.0222366"><ele>97.0</ele><time>2026-04-03T06:34:39.848Z</time></trkpt><trkpt lat="45.3016852" lon="9.0222029"><ele>97.0</ele><time>2026-04-03T06:34:40.849Z</time></trkpt><trkpt lat="45.3015779" lon="9.0221675"><ele>97.0</ele><time>2026-04-03T06:34:41.849Z</time></trkpt><trkpt lat="45.3014726" lon="9.0221365"><ele>97.0</ele><time>2026-04-03T06:34:42.849Z</time></trkpt><trkpt lat="45.3013593" lon="9.0221056"><ele>97.0</ele><time>2026-04-03T06:34:43.849Z</time></trkpt><trkpt lat="45.3012551" lon="9.0220744"><ele>97.0</ele><time>2026-04-03T06:34:44.849Z</time></trkpt><trkpt lat="45.3011477" lon="9.0220399"><ele>97.0</ele><time>2026-04-03T06:34:45.849Z</time></trkpt><trkpt lat="45.3010398" lon="9.0220041"><ele>97.0</ele><time>2026-04-03T06:34:46.849Z</time></trkpt><trkpt lat="45.3009325" lon="9.0219665"><ele>97.0</ele><time>2026-04-03T06:34:47.849Z</time></trkpt><trkpt lat="45.3008268" lon="9.0219276"><ele>97.0</ele><time>2026-04-03T06:34:48.849Z</time></trkpt><trkpt lat="45.3007228" lon="9.0218897"><ele>97.0</ele><time>2026-04-03T06:34:49.849Z</time></trkpt><trkpt lat="45.3006206" lon="9.0218502"><ele>97.0</ele><time>2026-04-03T06:34:50.848Z</time></trkpt><trkpt lat="45.3005156" lon="9.0218095"><ele>97.0</ele><time>2026-04-03T06:34:51.849Z</time></trkpt><trkpt lat="45.3004149" lon="9.0217708"><ele>97.19999999999999</ele><time>2026-04-03T06:34:52.849Z</time></trkpt><trkpt lat="45.3003133" lon="9.0217324"><ele>97.4</ele><time>2026-04-03T06:34:53.848Z</time></trkpt><trkpt lat="45.300212" lon="9.0216981"><ele>97.6</ele><time>2026-04-03T06:34:54.848Z</time></trkpt><trkpt lat="45.3001093" lon="9.0216686"><ele>97.80000000000001</ele><time>2026-04-03T06:34:55.848Z</time></trkpt><trkpt lat="45.3000083" lon="9.0216477"><ele>98.0</ele><time>2026-04-03T06:34:56.849Z</time></trkpt><trkpt lat="45.2999109" lon="9.0216411"><ele>98.0</ele><time>2026-04-03T06:34:57.848Z</time></trkpt><trkpt lat="45.2998172" lon="9.0216527"><ele>98.0</ele><time>2026-04-03T06:34:58.849Z</time></trkpt><trkpt lat="45.2997258" lon="9.0216773"><ele>98.0</ele><time>2026-04-03T06:34:59.849Z</time></trkpt><trkpt lat="45.2996411" lon="9.0217045"><ele>98.0</ele><time>2026-04-03T06:35:00.849Z</time></trkpt><trkpt lat="45.2995533" lon="9.0217284"><ele>98.0</ele><time>2026-04-03T06:35:01.848Z</time></trkpt><trkpt lat="45.2994651" lon="9.0217447"><ele>97.83333333333333</ele><time>2026-04-03T06:35:02.849Z</time></trkpt><trkpt lat="45.2993762" lon="9.0217543"><ele>97.66666666666666</ele><time>2026-04-03T06:35:03.848Z</time></trkpt><trkpt lat="45.299288" lon="9.0217585"><ele>97.5</ele><time>2026-04-03T06:35:04.849Z</time></trkpt><trkpt lat="45.2992019" lon="9.0217581"><ele>97.33333333333334</ele><time>2026-04-03T06:35:05.849Z</time></trkpt><trkpt lat="45.2991158" lon="9.0217505"><ele>97.16666666666667</ele><time>2026-04-03T06:35:06.849Z</time></trkpt><trkpt lat="45.2990284" lon="9.0217354"><ele>97.0</ele><time>2026-04-03T06:35:07.849Z</time></trkpt><trkpt lat="45.2989475" lon="9.0217168"><ele>96.83333333333334</ele><time>2026-04-03T06:35:08.849Z</time></trkpt><trkpt lat="45.2988628" lon="9.0216982"><ele>96.66666666666667</ele><time>2026-04-03T06:35:09.848Z</time></trkpt><trkpt lat="45.2987765" lon="9.0216822"><ele>96.5</ele><time>2026-04-03T06:35:10.849Z</time></trkpt><trkpt lat="45.2986901" lon="9.0216694"><ele>96.33333333333334</ele><time>2026-04-03T06:35:11.848Z</time></trkpt><trkpt lat="45.2986038" lon="9.0216599"><ele>96.16666666666667</ele><time>2026-04-03T06:35:12.848Z</time></trkpt><trkpt lat="45.2985167" lon="9.0216557"><ele>96.0</ele><time>2026-04-03T06:35:13.848Z</time></trkpt><trkpt lat="45.2984293" lon="9.0216632"><ele>96.0</ele><time>2026-04-03T06:35:14.849Z</time></trkpt><trkpt lat="45.2983399" lon="9.0216797"><ele>96.0</ele><time>2026-04-03T06:35:15.849Z</time></trkpt><trkpt lat="45.2982605" lon="9.0216985"><ele>96.0</ele><time>2026-04-03T06:35:16.849Z</time></trkpt><trkpt lat="45.2981862" lon="9.021722"><ele>96.0</ele><time>2026-04-03T06:35:17.849Z</time></trkpt><trkpt lat="45.298118" lon="9.0217577"><ele>96.0</ele><time>2026-04-03T06:35:18.849Z</time></trkpt><trkpt lat="45.2980501" lon="9.0218087"><ele>96.0</ele><time>2026-04-03T06:35:19.848Z</time></trkpt><trkpt lat="45.2979796" lon="9.0218749"><ele>96.16666666666667</ele><time>2026-04-03T06:35:20.848Z</time></trkpt><trkpt lat="45.297908" lon="9.0219495"><ele>96.33333333333334</ele><time>2026-04-03T06:35:21.849Z</time></trkpt><trkpt lat="45.2978366" lon="9.0220249"><ele>96.5</ele><time>2026-04-03T06:35:22.848Z</time></trkpt><trkpt lat="45.2977668" lon="9.0220959"><ele>96.66666666666667</ele><time>2026-04-03T06:35:23.849Z</time></trkpt><trkpt lat="45.2977016" lon="9.0221597"><ele>96.83333333333334</ele><time>2026-04-03T06:35:24.848Z</time></trkpt><trkpt lat="45.2976294" lon="9.0222223"><ele>97.0</ele><time>2026-04-03T06:35:25.848Z</time></trkpt><trkpt lat="45.2975489" lon="9.0222806"><ele>97.0</ele><time>2026-04-03T06:35:26.849Z</time></trkpt><trkpt lat="45.2974615" lon="9.0223398"><ele>97.0</ele><time>2026-04-03T06:35:27.848Z</time></trkpt><trkpt lat="45.2973683" lon="9.0224094"><ele>97.0</ele><time>2026-04-03T06:35:28.848Z</time></trkpt><trkpt lat="45.2972688" lon="9.0224905"><ele>97.0</ele><time>2026-04-03T06:35:29.849Z</time></trkpt><trkpt lat="45.2971679" lon="9.0225767"><ele>97.0</ele><time>2026-04-03T06:35:30.849Z</time></trkpt><trkpt lat="45.2970636" lon="9.0226641"><ele>97.0</ele><time>2026-04-03T06:35:31.849Z</time></trkpt><trkpt lat="45.2969662" lon="9.0227465"><ele>97.0</ele><time>2026-04-03T06:35:32.849Z</time></trkpt><trkpt lat="45.2968633" lon="9.0228349"><ele>97.0</ele><time>2026-04-03T06:35:33.849Z</time></trkpt><trkpt lat="45.2967575" lon="9.0229277"><ele>97.0</ele><time>2026-04-03T06:35:34.849Z</time></trkpt><trkpt lat="45.2966548" lon="9.0230202"><ele>97.0</ele><time>2026-04-03T06:35:35.849Z</time></trkpt><trkpt lat="45.2965539" lon="9.02311"><ele>97.0</ele><time>2026-04-03T06:35:36.849Z</time></trkpt><trkpt lat="45.296457" lon="9.0231942"><ele>97.0</ele><time>2026-04-03T06:35:37.849Z</time></trkpt><trkpt lat="45.2963613" lon="9.0232685"><ele>97.0</ele><time>2026-04-03T06:35:38.848Z</time></trkpt><trkpt lat="45.2962607" lon="9.0233216"><ele>97.0</ele><time>2026-04-03T06:35:39.848Z</time></trkpt><trkpt lat="45.2961582" lon="9.0233571"><ele>97.0</ele><time>2026-04-03T06:35:40.848Z</time></trkpt><trkpt lat="45.2960459" lon="9.0233952"><ele>97.0</ele><time>2026-04-03T06:35:41.848Z</time></trkpt><trkpt lat="45.2959278" lon="9.0234385"><ele>97.0</ele><time>2026-04-03T06:35:42.848Z</time></trkpt><trkpt lat="45.2958068" lon="9.0234859"><ele>97.0</ele><time>2026-04-03T06:35:43.849Z</time></trkpt><trkpt lat="45.2956913" lon="9.0235328"><ele>97.19999999999999</ele><time>2026-04-03T06:35:44.849Z</time></trkpt><trkpt lat="45.2955844" lon="9.0235808"><ele>97.4</ele><time>2026-04-03T06:35:45.848Z</time></trkpt><trkpt lat="45.2954838" lon="9.0236293"><ele>97.6</ele><time>2026-04-03T06:35:46.848Z</time></trkpt><trkpt lat="45.2953786" lon="9.0236834"><ele>97.80000000000001</ele><time>2026-04-03T06:35:47.848Z</time></trkpt><trkpt lat="45.2952787" lon="9.0237385"><ele>98.0</ele><time>2026-04-03T06:35:48.849Z</time></trkpt><trkpt lat="45.2951799" lon="9.0237985"><ele>98.0</ele><time>2026-04-03T06:35:49.849Z</time></trkpt><trkpt lat="45.2950835" lon="9.0238581"><ele>98.0</ele><time>2026-04-03T06:35:50.849Z</time></trkpt><trkpt lat="45.2949868" lon="9.0239117"><ele>98.0</ele><time>2026-04-03T06:35:51.849Z</time></trkpt><trkpt lat="45.294887" lon="9.0239607"><ele>98.0</ele><time>2026-04-03T06:35:52.848Z</time></trkpt><trkpt lat="45.2947894" lon="9.0239985"><ele>98.0</ele><time>2026-04-03T06:35:53.849Z</time></trkpt><trkpt lat="45.2946948" lon="9.024019"><ele>97.80000000000001</ele><time>2026-04-03T06:35:54.849Z</time></trkpt><trkpt lat="45.2945908" lon="9.0240317"><ele>97.6</ele><time>2026-04-03T06:35:55.848Z</time></trkpt><trkpt lat="45.2944849" lon="9.0240496"><ele>97.4</ele><time>2026-04-03T06:35:56.849Z</time></trkpt><trkpt lat="45.2943745" lon="9.0240739"><ele>97.19999999999999</ele><time>2026-04-03T06:35:57.848Z</time></trkpt><trkpt lat="45.2942606" lon="9.0240955"><ele>97.0</ele><time>2026-04-03T06:35:58.849Z</time></trkpt><trkpt lat="45.2941474" lon="9.0241069"><ele>97.0</ele><time>2026-04-03T06:35:59.849Z</time></trkpt><trkpt lat="45.2940338" lon="9.0241093"><ele>97.0</ele><time>2026-04-03T06:36:00.849Z</time></trkpt><trkpt lat="45.2939207" lon="9.024108"><ele>97.0</ele><time>2026-04-03T06:36:01.849Z</time></trkpt><trkpt lat="45.2938069" lon="9.0241091"><ele>97.0</ele><time>2026-04-03T06:36:02.848Z</time></trkpt><trkpt lat="45.2936926" lon="9.0241103"><ele>97.0</ele><time>2026-04-03T06:36:03.849Z</time></trkpt><trkpt lat="45.2935927" lon="9.0241115"><ele>97.0</ele><time>2026-04-03T06:36:04.849Z</time></trkpt><trkpt lat="45.2934964" lon="9.0241167"><ele>97.0</ele><time>2026-04-03T06:36:05.849Z</time></trkpt><trkpt lat="45.2934004" lon="9.0241227"><ele>97.0</ele><time>2026-04-03T06:36:06.849Z</time></trkpt><trkpt lat="45.2933057" lon="9.0241261"><ele>97.0</ele><time>2026-04-03T06:36:07.849Z</time></trkpt><trkpt lat="45.293209" lon="9.0241313"><ele>97.0</ele><time>2026-04-03T06:36:08.849Z</time></trkpt><trkpt lat="45.2931069" lon="9.024142"><ele>97.0</ele><time>2026-04-03T06:36:09.849Z</time></trkpt><trkpt lat="45.2929994" lon="9.0241604"><ele>97.0</ele><time>2026-04-03T06:36:10.848Z</time></trkpt><trkpt lat="45.2928839" lon="9.0241825"><ele>97.0</ele><time>2026-04-03T06:36:11.849Z</time></trkpt><trkpt lat="45.292773" lon="9.024202"><ele>97.0</ele><time>2026-04-03T06:36:12.848Z</time></trkpt><trkpt lat="45.2926548" lon="9.0242211"><ele>96.5</ele><time>2026-04-03T06:36:13.849Z</time></trkpt><trkpt lat="45.2925367" lon="9.0242393"><ele>96.0</ele><time>2026-04-03T06:36:14.849Z</time></trkpt><trkpt lat="45.2924202" lon="9.0242605"><ele>95.5</ele><time>2026-04-03T06:36:15.849Z</time></trkpt><trkpt lat="45.2923085" lon="9.0242846"><ele>95.0</ele><time>2026-04-03T06:36:16.848Z</time></trkpt><trkpt lat="45.2921987" lon="9.0243064"><ele>95.0</ele><time>2026-04-03T06:36:17.849Z</time></trkpt><trkpt lat="45.2920883" lon="9.0243213"><ele>95.0</ele><time>2026-04-03T06:36:18.849Z</time></trkpt><trkpt lat="45.2919801" lon="9.0243283"><ele>95.0</ele><time>2026-04-03T06:36:19.848Z</time></trkpt><trkpt lat="45.2918877" lon="9.024334"><ele>95.0</ele><time>2026-04-03T06:36:20.849Z</time></trkpt><trkpt lat="45.2917994" lon="9.0243457"><ele>95.0</ele><time>2026-04-03T06:36:21.848Z</time></trkpt><trkpt lat="45.2917132" lon="9.0243517"><ele>95.0</ele><time>2026-04-03T06:36:22.849Z</time></trkpt><trkpt lat="45.2916273" lon="9.0243414"><ele>95.0</ele><time>2026-04-03T06:36:23.849Z</time></trkpt><trkpt lat="45.2915365" lon="9.0243165"><ele>95.0</ele><time>2026-04-03T06:36:24.849Z</time></trkpt><trkpt lat="45.2914413" lon="9.0242864"><ele>95.0</ele><time>2026-04-03T06:36:25.849Z</time></trkpt><trkpt lat="45.2913442" lon="9.024257"><ele>95.0</ele><time>2026-04-03T06:36:26.848Z</time></trkpt><trkpt lat="45.2912494" lon="9.0242291"><ele>95.16666666666667</ele><time>2026-04-03T06:36:27.849Z</time></trkpt><trkpt lat="45.2911678" lon="9.0242039"><ele>95.33333333333334</ele><time>2026-04-03T06:36:28.849Z</time></trkpt><trkpt lat="45.2910918" lon="9.0241774"><ele>95.5</ele><time>2026-04-03T06:36:29.848Z</time></trkpt><trkpt lat="45.2910219" lon="9.024151"><ele>95.66666666666667</ele><time>2026-04-03T06:36:30.848Z</time></trkpt><trkpt lat="45.2909593" lon="9.0241232"><ele>95.83333333333333</ele><time>2026-04-03T06:36:31.849Z</time></trkpt><trkpt lat="45.2908608" lon="9.0240693"><ele>96.0</ele><time>2026-04-03T06:36:33.848Z</time></trkpt><trkpt lat="45.290796" lon="9.0240248"><ele>96.0</ele><time>2026-04-03T06:36:35.848Z</time></trkpt><trkpt lat="45.2907081" lon="9.0240579"><ele>96.0</ele><time>2026-04-03T06:36:38.848Z</time></trkpt><trkpt lat="45.2906129" lon="9.0241345"><ele>96.0</ele><time>2026-04-03T06:36:40.849Z</time></trkpt><trkpt lat="45.2905539" lon="9.0241823"><ele>96.0</ele><time>2026-04-03T06:36:41.849Z</time></trkpt><trkpt lat="45.2904889" lon="9.0242336"><ele>96.0</ele><time>2026-04-03T06:36:42.848Z</time></trkpt><trkpt lat="45.2904187" lon="9.0242921"><ele>96.0</ele><time>2026-04-03T06:36:43.849Z</time></trkpt><trkpt lat="45.2903519" lon="9.0243481"><ele>95.83333333333333</ele><time>2026-04-03T06:36:44.849Z</time></trkpt><trkpt lat="45.2902825" lon="9.0244118"><ele>95.66666666666667</ele><time>2026-04-03T06:36:45.848Z</time></trkpt><trkpt lat="45.290213" lon="9.0244811"><ele>95.5</ele><time>2026-04-03T06:36:46.848Z</time></trkpt><trkpt lat="45.2901451" lon="9.0245559"><ele>95.33333333333334</ele><time>2026-04-03T06:36:47.848Z</time></trkpt><trkpt lat="45.2900797" lon="9.0246374"><ele>95.16666666666667</ele><time>2026-04-03T06:36:48.849Z</time></trkpt><trkpt lat="45.2900193" lon="9.0247187"><ele>95.0</ele><time>2026-04-03T06:36:49.849Z</time></trkpt><trkpt lat="45.2899611" lon="9.0247978"><ele>95.0</ele><time>2026-04-03T06:36:50.849Z</time></trkpt><trkpt lat="45.2899002" lon="9.0248787"><ele>95.0</ele><time>2026-04-03T06:36:51.849Z</time></trkpt><trkpt lat="45.2898404" lon="9.0249563"><ele>95.0</ele><time>2026-04-03T06:36:52.848Z</time></trkpt><trkpt lat="45.2897763" lon="9.0250373"><ele>95.0</ele><time>2026-04-03T06:36:53.848Z</time></trkpt><trkpt lat="45.2897117" lon="9.025117"><ele>95.0</ele><time>2026-04-03T06:36:54.849Z</time></trkpt><trkpt lat="45.2896456" lon="9.0251974"><ele>95.0</ele><time>2026-04-03T06:36:55.849Z</time></trkpt><trkpt lat="45.2895809" lon="9.0252771"><ele>95.0</ele><time>2026-04-03T06:36:56.849Z</time></trkpt><trkpt lat="45.2895178" lon="9.0253594"><ele>95.0</ele><time>2026-04-03T06:36:57.849Z</time></trkpt><trkpt lat="45.289458" lon="9.025447"><ele>95.0</ele><time>2026-04-03T06:36:58.849Z</time></trkpt><trkpt lat="45.2894005" lon="9.0255437"><ele>95.0</ele><time>2026-04-03T06:36:59.849Z</time></trkpt><trkpt lat="45.2893495" lon="9.0256365"><ele>95.0</ele><time>2026-04-03T06:37:00.849Z</time></trkpt><trkpt lat="45.2892992" lon="9.0257341"><ele>95.0</ele><time>2026-04-03T06:37:01.849Z</time></trkpt><trkpt lat="45.2892459" lon="9.0258336"><ele>95.0</ele><time>2026-04-03T06:37:02.849Z</time></trkpt><trkpt lat="45.289183" lon="9.0259333"><ele>95.0</ele><time>2026-04-03T06:37:03.849Z</time></trkpt><trkpt lat="45.2891115" lon="9.0260406"><ele>95.0</ele><time>2026-04-03T06:37:04.848Z</time></trkpt><trkpt lat="45.2890348" lon="9.0261575"><ele>95.0</ele><time>2026-04-03T06:37:05.849Z</time></trkpt><trkpt lat="45.2889425" lon="9.0262936"><ele>95.0</ele><time>2026-04-03T06:37:06.849Z</time></trkpt><trkpt lat="45.2888429" lon="9.026436"><ele>95.0</ele><time>2026-04-03T06:37:07.849Z</time></trkpt><trkpt lat="45.2887455" lon="9.0265748"><ele>95.0</ele><time>2026-04-03T06:37:08.849Z</time></trkpt><trkpt lat="45.288642" lon="9.0267212"><ele>95.0</ele><time>2026-04-03T06:37:09.848Z</time></trkpt><trkpt lat="45.2885325" lon="9.0268783"><ele>95.0</ele><time>2026-04-03T06:37:10.849Z</time></trkpt><trkpt lat="45.2884267" lon="9.02703"><ele>95.0</ele><time>2026-04-03T06:37:11.849Z</time></trkpt><trkpt lat="45.2883241" lon="9.0271789"><ele>95.0</ele><time>2026-04-03T06:37:12.849Z</time></trkpt><trkpt lat="45.2882272" lon="9.0273221"><ele>95.0</ele><time>2026-04-03T06:37:13.848Z</time></trkpt><trkpt lat="45.2881374" lon="9.0274551"><ele>95.0</ele><time>2026-04-03T06:37:14.849Z</time></trkpt><trkpt lat="45.2880513" lon="9.0275807"><ele>94.83333333333334</ele><time>2026-04-03T06:37:15.848Z</time></trkpt><trkpt lat="45.28798" lon="9.0276829"><ele>94.66666666666667</ele><time>2026-04-03T06:37:16.849Z</time></trkpt><trkpt lat="45.2879155" lon="9.0277745"><ele>94.5</ele><time>2026-04-03T06:37:17.849Z</time></trkpt><trkpt lat="45.287858" lon="9.0278571"><ele>94.33333333333333</ele><time>2026-04-03T06:37:18.848Z</time></trkpt><trkpt lat="45.2878062" lon="9.0279297"><ele>94.16666666666666</ele><time>2026-04-03T06:37:19.849Z</time></trkpt><trkpt lat="45.2877598" lon="9.0279966"><ele>94.0</ele><time>2026-04-03T06:37:20.849Z</time></trkpt><trkpt lat="45.2876955" lon="9.0281169"><ele>94.0</ele><time>2026-04-03T06:37:22.849Z</time></trkpt><trkpt lat="45.287685" lon="9.0282367"><ele>94.0</ele><time>2026-04-03T06:37:24.849Z</time></trkpt><trkpt lat="45.2877166" lon="9.0283411"><ele>94.0</ele><time>2026-04-03T06:37:26.849Z</time></trkpt><trkpt lat="45.2877594" lon="9.0284616"><ele>94.0</ele><time>2026-04-03T06:37:28.848Z</time></trkpt><trkpt lat="45.2877531" lon="9.0285743"><ele>94.0</ele><time>2026-04-03T06:37:30.849Z</time></trkpt><trkpt lat="45.2876859" lon="9.0286352"><ele>94.0</ele><time>2026-04-03T06:37:32.849Z</time></trkpt><trkpt lat="45.2875652" lon="9.028687"><ele>94.4</ele><time>2026-04-03T06:37:34.849Z</time></trkpt><trkpt lat="45.2874872" lon="9.0287151"><ele>94.80000000000001</ele><time>2026-04-03T06:37:35.849Z</time></trkpt><trkpt lat="45.2874001" lon="9.0287445"><ele>95.19999999999999</ele><time>2026-04-03T06:37:36.849Z</time></trkpt><trkpt lat="45.2873079" lon="9.0287719"><ele>95.6</ele><time>2026-04-03T06:37:37.848Z</time></trkpt><trkpt lat="45.287215" lon="9.0287992"><ele>96.0</ele><time>2026-04-03T06:37:38.848Z</time></trkpt><trkpt lat="45.2871203" lon="9.0288313"><ele>96.0</ele><time>2026-04-03T06:37:39.849Z</time></trkpt><trkpt lat="45.2870286" lon="9.0288762"><ele>96.0</ele><time>2026-04-03T06:37:40.848Z</time></trkpt><trkpt lat="45.2869327" lon="9.0289332"><ele>96.0</ele><time>2026-04-03T06:37:41.849Z</time></trkpt><trkpt lat="45.2868308" lon="9.0289977"><ele>96.0</ele><time>2026-04-03T06:37:42.849Z</time></trkpt><trkpt lat="45.2867209" lon="9.0290596"><ele>96.0</ele><time>2026-04-03T06:37:43.848Z</time></trkpt><trkpt lat="45.2866001" lon="9.0291146"><ele>96.0</ele><time>2026-04-03T06:37:44.848Z</time></trkpt><trkpt lat="45.2864713" lon="9.0291668"><ele>96.0</ele><time>2026-04-03T06:37:45.848Z</time></trkpt><trkpt lat="45.2863392" lon="9.0292201"><ele>96.0</ele><time>2026-04-03T06:37:46.849Z</time></trkpt><trkpt lat="45.2862076" lon="9.0292749"><ele>96.0</ele><time>2026-04-03T06:37:47.849Z</time></trkpt><trkpt lat="45.2860904" lon="9.0293249"><ele>96.25</ele><time>2026-04-03T06:37:48.848Z</time></trkpt><trkpt lat="45.2859739" lon="9.02938"><ele>96.5</ele><time>2026-04-03T06:37:49.849Z</time></trkpt><trkpt lat="45.2858605" lon="9.0294323"><ele>96.75</ele><time>2026-04-03T06:37:50.849Z</time></trkpt><trkpt lat="45.2857516" lon="9.0294774"><ele>97.0</ele><time>2026-04-03T06:37:51.849Z</time></trkpt><trkpt lat="45.2856492" lon="9.0295159"><ele>96.83333333333334</ele><time>2026-04-03T06:37:52.849Z</time></trkpt><trkpt lat="45.2855535" lon="9.0295479"><ele>96.66666666666667</ele><time>2026-04-03T06:37:53.849Z</time></trkpt><trkpt lat="45.2854678" lon="9.0295747"><ele>96.5</ele><time>2026-04-03T06:37:54.849Z</time></trkpt><trkpt lat="45.2853946" lon="9.0295961"><ele>96.33333333333334</ele><time>2026-04-03T06:37:55.849Z</time></trkpt><trkpt lat="45.2852998" lon="9.0296141"><ele>96.16666666666667</ele><time>2026-04-03T06:37:57.848Z</time></trkpt><trkpt lat="45.2852239" lon="9.0296286"><ele>96.0</ele><time>2026-04-03T06:38:00.848Z</time></trkpt><trkpt lat="45.2851683" lon="9.0297045"><ele>96.0</ele><time>2026-04-03T06:38:05.849Z</time></trkpt><trkpt lat="45.285163" lon="9.029813"><ele>96.0</ele><time>2026-04-03T06:38:09.849Z</time></trkpt><trkpt lat="45.2851395" lon="9.0298975"><ele>96.0</ele><time>2026-04-03T06:38:14.849Z</time></trkpt><trkpt lat="45.2851018" lon="9.0299792"><ele>96.0</ele><time>2026-04-03T06:38:18.849Z</time></trkpt><trkpt lat="45.2850364" lon="9.030064"><ele>96.0</ele><time>2026-04-03T06:38:21.849Z</time></trkpt><trkpt lat="45.2849651" lon="9.0301468"><ele>96.0</ele><time>2026-04-03T06:38:24.849Z</time></trkpt><trkpt lat="45.2848924" lon="9.0302339"><ele>95.99999999999999</ele><time>2026-04-03T06:38:27.849Z</time></trkpt><trkpt lat="45.2848426" lon="9.0302895"><ele>96.0</ele><time>2026-04-03T06:38:29.848Z</time></trkpt><trkpt lat="45.2847921" lon="9.030344"><ele>96.0</ele><time>2026-04-03T06:38:31.848Z</time></trkpt><trkpt lat="45.2847408" lon="9.0304017"><ele>96.0</ele><time>2026-04-03T06:38:33.848Z</time></trkpt><trkpt lat="45.2846876" lon="9.0304638"><ele>96.0</ele><time>2026-04-03T06:38:35.848Z</time></trkpt><trkpt lat="45.2846391" lon="9.0305243"><ele>95.99999999999999</ele><time>2026-04-03T06:38:37.849Z</time></trkpt><trkpt lat="45.2845902" lon="9.0305931"><ele>96.0</ele><time>2026-04-03T06:38:39.849Z</time></trkpt><trkpt lat="45.2845382" lon="9.0306628"><ele>95.66666666666667</ele><time>2026-04-03T06:38:41.848Z</time></trkpt><trkpt lat="45.2844832" lon="9.0307323"><ele>95.33333333333333</ele><time>2026-04-03T06:38:43.849Z</time></trkpt><trkpt lat="45.284431" lon="9.0308017"><ele>95.0</ele><time>2026-04-03T06:38:45.848Z</time></trkpt><trkpt lat="45.2843783" lon="9.0308754"><ele>94.66666666666666</ele><time>2026-04-03T06:38:47.849Z</time></trkpt><trkpt lat="45.2843253" lon="9.0309491"><ele>94.33333333333333</ele><time>2026-04-03T06:38:49.849Z</time></trkpt><trkpt lat="45.2842632" lon="9.0310175"><ele>94.0</ele><time>2026-04-03T06:38:51.849Z</time></trkpt><trkpt lat="45.2841937" lon="9.0310809"><ele>94.0</ele><time>2026-04-03T06:38:53.848Z</time></trkpt><trkpt lat="45.2841148" lon="9.0311485"><ele>94.0</ele><time>2026-04-03T06:38:55.849Z</time></trkpt><trkpt lat="45.2840311" lon="9.0312083"><ele>94.0</ele><time>2026-04-03T06:38:57.849Z</time></trkpt><trkpt lat="45.2839461" lon="9.0312711"><ele>94.0</ele><time>2026-04-03T06:38:59.848Z</time></trkpt><trkpt lat="45.2838698" lon="9.0313234"><ele>94.0</ele><time>2026-04-03T06:39:01.849Z</time></trkpt><trkpt lat="45.2837951" lon="9.031373"><ele>94.0</ele><time>2026-04-03T06:39:03.848Z</time></trkpt><trkpt lat="45.2837194" lon="9.0314229"><ele>94.0</ele><time>2026-04-03T06:39:05.849Z</time></trkpt><trkpt lat="45.2836436" lon="9.031473"><ele>94.0</ele><time>2026-04-03T06:39:07.849Z</time></trkpt><trkpt lat="45.2835661" lon="9.0315291"><ele>94.0</ele><time>2026-04-03T06:39:09.849Z</time></trkpt><trkpt lat="45.2834879" lon="9.0315859"><ele>94.0</ele><time>2026-04-03T06:39:11.849Z</time></trkpt><trkpt lat="45.2834125" lon="9.0316407"><ele>94.0</ele><time>2026-04-03T06:39:13.848Z</time></trkpt><trkpt lat="45.2833367" lon="9.0316987"><ele>94.0</ele><time>2026-04-03T06:39:15.848Z</time></trkpt><trkpt lat="45.2832652" lon="9.0317519"><ele>94.0</ele><time>2026-04-03T06:39:17.849Z</time></trkpt><trkpt lat="45.2831956" lon="9.0318047"><ele>94.0</ele><time>2026-04-03T06:39:19.848Z</time></trkpt><trkpt lat="45.2831255" lon="9.0318557"><ele>94.0</ele><time>2026-04-03T06:39:21.848Z</time></trkpt><trkpt lat="45.2830572" lon="9.0319082"><ele>94.0</ele><time>2026-04-03T06:39:23.848Z</time></trkpt><trkpt lat="45.2829898" lon="9.0319543"><ele>94.0</ele><time>2026-04-03T06:39:25.849Z</time></trkpt><trkpt lat="45.2829216" lon="9.0319996"><ele>94.0</ele><time>2026-04-03T06:39:27.849Z</time></trkpt><trkpt lat="45.2828552" lon="9.0320478"><ele>94.16666666666666</ele><time>2026-04-03T06:39:29.848Z</time></trkpt><trkpt lat="45.282787" lon="9.0320968"><ele>94.33333333333333</ele><time>2026-04-03T06:39:31.848Z</time></trkpt><trkpt lat="45.2827155" lon="9.0321529"><ele>94.5</ele><time>2026-04-03T06:39:33.848Z</time></trkpt><trkpt lat="45.2826415" lon="9.0322068"><ele>94.66666666666667</ele><time>2026-04-03T06:39:35.848Z</time></trkpt><trkpt lat="45.2825772" lon="9.032256"><ele>94.83333333333334</ele><time>2026-04-03T06:39:37.848Z</time></trkpt><trkpt lat="45.2825179" lon="9.0323023"><ele>95.0</ele><time>2026-04-03T06:39:39.849Z</time></trkpt><trkpt lat="45.2824573" lon="9.032346"><ele>95.0</ele><time>2026-04-03T06:39:41.849Z</time></trkpt><trkpt lat="45.2823945" lon="9.0323888"><ele>95.0</ele><time>2026-04-03T06:39:43.849Z</time></trkpt><trkpt lat="45.2823137" lon="9.0324411"><ele>95.0</ele><time>2026-04-03T06:39:46.849Z</time></trkpt><trkpt lat="45.2822583" lon="9.0324849"><ele>95.0</ele><time>2026-04-03T06:39:49.848Z</time></trkpt><trkpt lat="45.2821893" lon="9.0325296"><ele>95.0</ele><time>2026-04-03T06:39:53.849Z</time></trkpt><trkpt lat="45.2821127" lon="9.0324884"><ele>95.0</ele><time>2026-04-03T06:39:57.849Z</time></trkpt><trkpt lat="45.2820677" lon="9.0324061"><ele>94.85714285714286</ele><time>2026-04-03T06:40:00.849Z</time></trkpt><trkpt lat="45.2820167" lon="9.0323007"><ele>94.71428571428572</ele><time>2026-04-03T06:40:03.848Z</time></trkpt><trkpt lat="45.2819805" lon="9.0322218"><ele>94.57142857142857</ele><time>2026-04-03T06:40:05.849Z</time></trkpt><trkpt lat="45.2819485" lon="9.0321347"><ele>94.42857142857143</ele><time>2026-04-03T06:40:07.849Z</time></trkpt><trkpt lat="45.2819128" lon="9.0320477"><ele>94.28571428571428</ele><time>2026-04-03T06:40:09.848Z</time></trkpt><trkpt lat="45.2818763" lon="9.0319613"><ele>94.14285714285714</ele><time>2026-04-03T06:40:11.849Z</time></trkpt><trkpt lat="45.2818433" lon="9.0318743"><ele>94.0</ele><time>2026-04-03T06:40:13.849Z</time></trkpt><trkpt lat="45.2818125" lon="9.0317836"><ele>94.0</ele><time>2026-04-03T06:40:15.849Z</time></trkpt><trkpt lat="45.2817824" lon="9.0316924"><ele>94.0</ele><time>2026-04-03T06:40:17.848Z</time></trkpt><trkpt lat="45.28175" lon="9.0315988"><ele>94.0</ele><time>2026-04-03T06:40:19.848Z</time></trkpt><trkpt lat="45.2817209" lon="9.0315037"><ele>94.0</ele><time>2026-04-03T06:40:21.849Z</time></trkpt><trkpt lat="45.2816912" lon="9.0314079"><ele>94.0</ele><time>2026-04-03T06:40:23.849Z</time></trkpt><trkpt lat="45.2816565" lon="9.0313149"><ele>94.0</ele><time>2026-04-03T06:40:25.848Z</time></trkpt><trkpt lat="45.2816239" lon="9.0312173"><ele>94.0</ele><time>2026-04-03T06:40:27.849Z</time></trkpt><trkpt lat="45.2815895" lon="9.0311231"><ele>94.0</ele><time>2026-04-03T06:40:29.848Z</time></trkpt><trkpt lat="45.2815549" lon="9.0310256"><ele>94.0</ele><time>2026-04-03T06:40:31.848Z</time></trkpt><trkpt lat="45.2815179" lon="9.0309309"><ele>94.0</ele><time>2026-04-03T06:40:33.849Z</time></trkpt><trkpt lat="45.2814895" lon="9.0308325"><ele>94.0</ele><time>2026-04-03T06:40:35.849Z</time></trkpt><trkpt lat="45.2814737" lon="9.0307356"><ele>94.0</ele><time>2026-04-03T06:40:37.848Z</time></trkpt><trkpt lat="45.2814682" lon="9.0306349"><ele>94.0</ele><time>2026-04-03T06:40:39.848Z</time></trkpt><trkpt lat="45.2814847" lon="9.0305347"><ele>94.0</ele><time>2026-04-03T06:40:41.849Z</time></trkpt><trkpt lat="45.2815143" lon="9.0304388"><ele>94.0</ele><time>2026-04-03T06:40:43.848Z</time></trkpt><trkpt lat="45.2815542" lon="9.0303371"><ele>94.0</ele><time>2026-04-03T06:40:45.848Z</time></trkpt><trkpt lat="45.2816097" lon="9.0302625"><ele>94.0</ele><time>2026-04-03T06:40:47.849Z</time></trkpt><trkpt lat="45.281661" lon="9.0301811"><ele>94.0</ele><time>2026-04-03T06:40:49.849Z</time></trkpt><trkpt lat="45.2817059" lon="9.0300926"><ele>94.0</ele><time>2026-04-03T06:40:51.848Z</time></trkpt><trkpt lat="45.2817556" lon="9.0300055"><ele>94.0</ele><time>2026-04-03T06:40:53.852Z</time></trkpt><trkpt lat="45.2817946" lon="9.0299098"><ele>94.16666666666666</ele><time>2026-04-03T06:40:55.849Z</time></trkpt><trkpt lat="45.2818339" lon="9.029805"><ele>94.33333333333333</ele><time>2026-04-03T06:40:57.849Z</time></trkpt><trkpt lat="45.2818677" lon="9.0296909"><ele>94.5</ele><time>2026-04-03T06:40:59.849Z</time></trkpt><trkpt lat="45.2819002" lon="9.0295738"><ele>94.66666666666667</ele><time>2026-04-03T06:41:01.849Z</time></trkpt><trkpt lat="45.2819158" lon="9.029445"><ele>94.83333333333334</ele><time>2026-04-03T06:41:03.848Z</time></trkpt><trkpt lat="45.2819139" lon="9.0293308"><ele>95.0</ele><time>2026-04-03T06:41:05.849Z</time></trkpt><trkpt lat="45.2818949" lon="9.0291987"><ele>95.0</ele><time>2026-04-03T06:41:07.849Z</time></trkpt><trkpt lat="45.28186" lon="9.0290933"><ele>95.0</ele><time>2026-04-03T06:41:09.849Z</time></trkpt><trkpt lat="45.2818134" lon="9.029007"><ele>95.0</ele><time>2026-04-03T06:41:11.848Z</time></trkpt><trkpt lat="45.2817688" lon="9.028927"><ele>95.0</ele><time>2026-04-03T06:41:13.849Z</time></trkpt><trkpt lat="45.2817193" lon="9.0288464"><ele>95.0</ele><time>2026-04-03T06:41:15.849Z</time></trkpt><trkpt lat="45.2816649" lon="9.0287666"><ele>95.0</ele><time>2026-04-03T06:41:17.849Z</time></trkpt><trkpt lat="45.281612" lon="9.028675"><ele>95.0</ele><time>2026-04-03T06:41:19.849Z</time></trkpt><trkpt lat="45.2815558" lon="9.028583"><ele>95.0</ele><time>2026-04-03T06:41:21.849Z</time></trkpt><trkpt lat="45.2814986" lon="9.0284973"><ele>95.0</ele><time>2026-04-03T06:41:23.849Z</time></trkpt><trkpt lat="45.2814416" lon="9.0284112"><ele>95.0</ele><time>2026-04-03T06:41:25.849Z</time></trkpt><trkpt lat="45.2813847" lon="9.0283212"><ele>95.0</ele><time>2026-04-03T06:41:27.848Z</time></trkpt><trkpt lat="45.2813274" lon="9.0282314"><ele>95.0</ele><time>2026-04-03T06:41:29.848Z</time></trkpt><trkpt lat="45.2812684" lon="9.0281405"><ele>94.83333333333334</ele><time>2026-04-03T06:41:31.848Z</time></trkpt><trkpt lat="45.2812192" lon="9.0280544"><ele>94.66666666666667</ele><time>2026-04-03T06:41:33.778Z</time></trkpt><trkpt lat="45.281165" lon="9.0279681"><ele>94.5</ele><time>2026-04-03T06:41:35.879Z</time></trkpt><trkpt lat="45.281112" lon="9.0278903"><ele>94.33333333333333</ele><time>2026-04-03T06:41:37.849Z</time></trkpt><trkpt lat="45.2810592" lon="9.027806"><ele>94.16666666666666</ele><time>2026-04-03T06:41:39.849Z</time></trkpt><trkpt lat="45.2810039" lon="9.0277201"><ele>94.0</ele><time>2026-04-03T06:41:41.85Z</time></trkpt><trkpt lat="45.2809417" lon="9.0276235"><ele>94.0</ele><time>2026-04-03T06:41:43.849Z</time></trkpt><trkpt lat="45.2808754" lon="9.0275227"><ele>94.0</ele><time>2026-04-03T06:41:45.848Z</time></trkpt><trkpt lat="45.2808134" lon="9.0274205"><ele>94.0</ele><time>2026-04-03T06:41:47.849Z</time></trkpt><trkpt lat="45.2807576" lon="9.0273317"><ele>94.0</ele><time>2026-04-03T06:41:49.848Z</time></trkpt><trkpt lat="45.2807006" lon="9.0272411"><ele>94.0</ele><time>2026-04-03T06:41:51.848Z</time></trkpt><trkpt lat="45.280647" lon="9.0271478"><ele>94.0</ele><time>2026-04-03T06:41:53.849Z</time></trkpt><trkpt lat="45.2805952" lon="9.0270554"><ele>94.14285714285714</ele><time>2026-04-03T06:41:55.849Z</time></trkpt><trkpt lat="45.2805465" lon="9.026971"><ele>94.28571428571428</ele><time>2026-04-03T06:41:57.849Z</time></trkpt><trkpt lat="45.2805073" lon="9.0268938"><ele>94.42857142857143</ele><time>2026-04-03T06:41:59.848Z</time></trkpt><trkpt lat="45.2804592" lon="9.0267933"><ele>94.57142857142857</ele><time>2026-04-03T06:42:02.848Z</time></trkpt><trkpt lat="45.2804072" lon="9.0267016"><ele>94.71428571428572</ele><time>2026-04-03T06:42:05.849Z</time></trkpt><trkpt lat="45.2803624" lon="9.0266228"><ele>94.85714285714286</ele><time>2026-04-03T06:42:08.849Z</time></trkpt><trkpt lat="45.2803176" lon="9.026556"><ele>95.0</ele><time>2026-04-03T06:42:13.848Z</time></trkpt><trkpt lat="45.2802768" lon="9.0264596"><ele>95.0</ele><time>2026-04-03T06:42:17.849Z</time></trkpt><trkpt lat="45.2802351" lon="9.0263858"><ele>95.0</ele><time>2026-04-03T06:42:20.849Z</time></trkpt><trkpt lat="45.2801733" lon="9.0263002"><ele>95.0</ele><time>2026-04-03T06:42:24.848Z</time></trkpt><trkpt lat="45.2801083" lon="9.0262213"><ele>95.0</ele><time>2026-04-03T06:42:27.849Z</time></trkpt><trkpt lat="45.2800542" lon="9.0261507"><ele>95.0</ele><time>2026-04-03T06:42:30.849Z</time></trkpt><trkpt lat="45.2800067" lon="9.0260912"><ele>95.0</ele><time>2026-04-03T06:42:33.849Z</time></trkpt><trkpt lat="45.2799598" lon="9.0260089"><ele>95.0</ele><time>2026-04-03T06:42:36.849Z</time></trkpt><trkpt lat="45.2799189" lon="9.0259297"><ele>95.0</ele><time>2026-04-03T06:42:39.848Z</time></trkpt><trkpt lat="45.279871" lon="9.0258378"><ele>95.0</ele><time>2026-04-03T06:42:43.849Z</time></trkpt><trkpt lat="45.2798201" lon="9.0257383"><ele>95.0</ele><time>2026-04-03T06:42:47.849Z</time></trkpt><trkpt lat="45.2797747" lon="9.0256616"><ele>95.0</ele><time>2026-04-03T06:42:50.849Z</time></trkpt><trkpt lat="45.2797378" lon="9.0255869"><ele>95.0</ele><time>2026-04-03T06:42:53.849Z</time></trkpt><trkpt lat="45.2796831" lon="9.0254967"><ele>95.0</ele><time>2026-04-03T06:42:56.849Z</time></trkpt><trkpt lat="45.2796328" lon="9.0254003"><ele>95.0</ele><time>2026-04-03T06:42:59.849Z</time></trkpt><trkpt lat="45.2795844" lon="9.0253074"><ele>95.0</ele><time>2026-04-03T06:43:02.849Z</time></trkpt><trkpt lat="45.2795364" lon="9.0252175"><ele>95.0</ele><time>2026-04-03T06:43:06.849Z</time></trkpt><trkpt lat="45.2794949" lon="9.0251262"><ele>95.0</ele><time>2026-04-03T06:43:10.849Z</time></trkpt><trkpt lat="45.2794574" lon="9.0250497"><ele>95.0</ele><time>2026-04-03T06:43:12.848Z</time></trkpt><trkpt lat="45.2794092" lon="9.0249474"><ele>95.0</ele><time>2026-04-03T06:43:14.849Z</time></trkpt><trkpt lat="45.2793555" lon="9.0248105"><ele>95.0</ele><time>2026-04-03T06:43:16.849Z</time></trkpt><trkpt lat="45.2792978" lon="9.0246447"><ele>95.0</ele><time>2026-04-03T06:43:18.848Z</time></trkpt><trkpt lat="45.2792636" lon="9.0245495"><ele>95.0</ele><time>2026-04-03T06:43:19.849Z</time></trkpt><trkpt lat="45.2792295" lon="9.024452"><ele>95.0</ele><time>2026-04-03T06:43:20.848Z</time></trkpt><trkpt lat="45.2792002" lon="9.0243465"><ele>95.0</ele><time>2026-04-03T06:43:21.849Z</time></trkpt><trkpt lat="45.2791725" lon="9.0242395"><ele>95.0</ele><time>2026-04-03T06:43:22.849Z</time></trkpt><trkpt lat="45.2791435" lon="9.0241299"><ele>95.0</ele><time>2026-04-03T06:43:23.848Z</time></trkpt><trkpt lat="45.2791159" lon="9.024032"><ele>95.0</ele><time>2026-04-03T06:43:24.848Z</time></trkpt><trkpt lat="45.2790852" lon="9.0239352"><ele>95.0</ele><time>2026-04-03T06:43:25.848Z</time></trkpt><trkpt lat="45.279047" lon="9.0238361"><ele>95.0</ele><time>2026-04-03T06:43:26.849Z</time></trkpt><trkpt lat="45.2789994" lon="9.0237358"><ele>94.6</ele><time>2026-04-03T06:43:27.848Z</time></trkpt><trkpt lat="45.2789434" lon="9.0236404"><ele>94.2</ele><time>2026-04-03T06:43:28.849Z</time></trkpt><trkpt lat="45.2788799" lon="9.0235503"><ele>93.80000000000001</ele><time>2026-04-03T06:43:29.849Z</time></trkpt><trkpt lat="45.2788129" lon="9.0234645"><ele>93.4</ele><time>2026-04-03T06:43:30.848Z</time></trkpt><trkpt lat="45.2787346" lon="9.0233796"><ele>93.0</ele><time>2026-04-03T06:43:31.849Z</time></trkpt><trkpt lat="45.278653" lon="9.0232985"><ele>93.0</ele><time>2026-04-03T06:43:32.848Z</time></trkpt><trkpt lat="45.2785644" lon="9.0232149"><ele>93.0</ele><time>2026-04-03T06:43:33.849Z</time></trkpt><trkpt lat="45.2784786" lon="9.0231398"><ele>93.0</ele><time>2026-04-03T06:43:34.848Z</time></trkpt><trkpt lat="45.2783939" lon="9.0230634"><ele>93.0</ele><time>2026-04-03T06:43:35.849Z</time></trkpt><trkpt lat="45.2783157" lon="9.022988"><ele>93.0</ele><time>2026-04-03T06:43:36.849Z</time></trkpt><trkpt lat="45.278235" lon="9.0229089"><ele>93.0</ele><time>2026-04-03T06:43:37.848Z</time></trkpt><trkpt lat="45.2781531" lon="9.0228326"><ele>93.0</ele><time>2026-04-03T06:43:38.849Z</time></trkpt><trkpt lat="45.2780699" lon="9.022761"><ele>93.0</ele><time>2026-04-03T06:43:39.849Z</time></trkpt><trkpt lat="45.2779943" lon="9.0226984"><ele>93.0</ele><time>2026-04-03T06:43:40.849Z</time></trkpt><trkpt lat="45.277915" lon="9.022631"><ele>93.0</ele><time>2026-04-03T06:43:41.849Z</time></trkpt><trkpt lat="45.2778332" lon="9.0225693"><ele>93.0</ele><time>2026-04-03T06:43:42.849Z</time></trkpt><trkpt lat="45.2777477" lon="9.0225073"><ele>93.0</ele><time>2026-04-03T06:43:43.848Z</time></trkpt><trkpt lat="45.2776651" lon="9.022459"><ele>93.0</ele><time>2026-04-03T06:43:44.849Z</time></trkpt><trkpt lat="45.277581" lon="9.0224193"><ele>93.0</ele><time>2026-04-03T06:43:45.849Z</time></trkpt><trkpt lat="45.2774952" lon="9.0223836"><ele>93.0</ele><time>2026-04-03T06:43:46.848Z</time></trkpt><trkpt lat="45.2774024" lon="9.022337"><ele>93.33333333333333</ele><time>2026-04-03T06:43:47.848Z</time></trkpt><trkpt lat="45.2773238" lon="9.0222825"><ele>93.66666666666667</ele><time>2026-04-03T06:43:48.849Z</time></trkpt><trkpt lat="45.277249" lon="9.022221"><ele>94.0</ele><time>2026-04-03T06:43:49.848Z</time></trkpt><trkpt lat="45.2771815" lon="9.022167"><ele>94.33333333333334</ele><time>2026-04-03T06:43:50.848Z</time></trkpt><trkpt lat="45.2771102" lon="9.0221101"><ele>94.66666666666667</ele><time>2026-04-03T06:43:51.849Z</time></trkpt><trkpt lat="45.2770413" lon="9.022053"><ele>95.0</ele><time>2026-04-03T06:43:52.849Z</time></trkpt><trkpt lat="45.2769727" lon="9.0219901"><ele>95.0</ele><time>2026-04-03T06:43:53.849Z</time></trkpt><trkpt lat="45.2769064" lon="9.0219252"><ele>95.0</ele><time>2026-04-03T06:43:54.849Z</time></trkpt><trkpt lat="45.2768369" lon="9.0218612"><ele>95.0</ele><time>2026-04-03T06:43:55.849Z</time></trkpt><trkpt lat="45.2767315" lon="9.0217793"><ele>95.0</ele><time>2026-04-03T06:43:57.869Z</time></trkpt><trkpt lat="45.2766641" lon="9.0217167"><ele>95.0</ele><time>2026-04-03T06:43:58.87Z</time></trkpt><trkpt lat="45.2765957" lon="9.021644"><ele>95.0</ele><time>2026-04-03T06:43:59.87Z</time></trkpt><trkpt lat="45.276524" lon="9.0215644"><ele>95.0</ele><time>2026-04-03T06:44:00.87Z</time></trkpt><trkpt lat="45.2764555" lon="9.0214939"><ele>95.0</ele><time>2026-04-03T06:44:01.87Z</time></trkpt><trkpt lat="45.2763794" lon="9.0214267"><ele>95.0</ele><time>2026-04-03T06:44:02.87Z</time></trkpt><trkpt lat="45.2762977" lon="9.0213543"><ele>95.0</ele><time>2026-04-03T06:44:03.87Z</time></trkpt><trkpt lat="45.276216" lon="9.0212781"><ele>95.0</ele><time>2026-04-03T06:44:04.869Z</time></trkpt><trkpt lat="45.2761317" lon="9.0212065"><ele>95.0</ele><time>2026-04-03T06:44:05.87Z</time></trkpt><trkpt lat="45.2760456" lon="9.0211241"><ele>95.0</ele><time>2026-04-03T06:44:06.869Z</time></trkpt><trkpt lat="45.2759612" lon="9.0210455"><ele>95.0</ele><time>2026-04-03T06:44:07.87Z</time></trkpt><trkpt lat="45.2758792" lon="9.0209804"><ele>95.0</ele><time>2026-04-03T06:44:08.87Z</time></trkpt><trkpt lat="45.2758023" lon="9.0209293"><ele>95.0</ele><time>2026-04-03T06:44:09.869Z</time></trkpt><trkpt lat="45.2757257" lon="9.0208766"><ele>94.83333333333334</ele><time>2026-04-03T06:44:10.87Z</time></trkpt><trkpt lat="45.2756503" lon="9.0208147"><ele>94.66666666666667</ele><time>2026-04-03T06:44:11.87Z</time></trkpt><trkpt lat="45.2755708" lon="9.0207491"><ele>94.5</ele><time>2026-04-03T06:44:12.87Z</time></trkpt><trkpt lat="45.2754992" lon="9.0206893"><ele>94.33333333333333</ele><time>2026-04-03T06:44:13.87Z</time></trkpt><trkpt lat="45.275442" lon="9.0206405"><ele>94.16666666666666</ele><time>2026-04-03T06:44:14.87Z</time></trkpt><trkpt lat="45.2753468" lon="9.0205614"><ele>94.0</ele><time>2026-04-03T06:44:16.869Z</time></trkpt><trkpt lat="45.2752726" lon="9.0204895"><ele>94.0</ele><time>2026-04-03T06:44:18.869Z</time></trkpt><trkpt lat="45.2751905" lon="9.0204483"><ele>94.0</ele><time>2026-04-03T06:44:21.87Z</time></trkpt><trkpt lat="45.2751275" lon="9.0204696"><ele>94.0</ele><time>2026-04-03T06:44:23.869Z</time></trkpt><trkpt lat="45.2750769" lon="9.020529"><ele>94.0</ele><time>2026-04-03T06:44:25.87Z</time></trkpt><trkpt lat="45.2750415" lon="9.0206478"><ele>94.0</ele><time>2026-04-03T06:44:27.87Z</time></trkpt><trkpt lat="45.2749974" lon="9.0208167"><ele>94.0</ele><time>2026-04-03T06:44:29.869Z</time></trkpt><trkpt lat="45.2749649" lon="9.0209815"><ele>94.0</ele><time>2026-04-03T06:44:31.87Z</time></trkpt><trkpt lat="45.274946" lon="9.0211096"><ele>94.0</ele><time>2026-04-03T06:44:33.87Z</time></trkpt><trkpt lat="45.2749341" lon="9.0212257"><ele>94.0</ele><time>2026-04-03T06:44:36.87Z</time></trkpt><trkpt lat="45.2749249" lon="9.0213534"><ele>94.0</ele><time>2026-04-03T06:46:54.869Z</time></trkpt><trkpt lat="45.2749299" lon="9.0215151"><ele>94.0</ele><time>2026-04-03T06:46:56.87Z</time></trkpt><trkpt lat="45.2749295" lon="9.0216983"><ele>94.16666666666666</ele><time>2026-04-03T06:46:58.869Z</time></trkpt><trkpt lat="45.2749269" lon="9.0218035"><ele>94.33333333333333</ele><time>2026-04-03T06:46:59.87Z</time></trkpt><trkpt lat="45.2749163" lon="9.021914"><ele>94.5</ele><time>2026-04-03T06:47:00.87Z</time></trkpt><trkpt lat="45.2748988" lon="9.0220383"><ele>94.66666666666667</ele><time>2026-04-03T06:47:01.869Z</time></trkpt><trkpt lat="45.2748775" lon="9.0221647"><ele>94.83333333333334</ele><time>2026-04-03T06:47:02.869Z</time></trkpt><trkpt lat="45.2748546" lon="9.0222941"><ele>95.0</ele><time>2026-04-03T06:47:03.87Z</time></trkpt><trkpt lat="45.2748285" lon="9.0224193"><ele>94.8</ele><time>2026-04-03T06:47:04.87Z</time></trkpt><trkpt lat="45.2748001" lon="9.0225453"><ele>94.6</ele><time>2026-04-03T06:47:05.87Z</time></trkpt><trkpt lat="45.2747749" lon="9.0226751"><ele>94.4</ele><time>2026-04-03T06:47:06.87Z</time></trkpt><trkpt lat="45.2747466" lon="9.022807"><ele>94.2</ele><time>2026-04-03T06:47:07.87Z</time></trkpt><trkpt lat="45.2747165" lon="9.0229411"><ele>94.0</ele><time>2026-04-03T06:47:08.869Z</time></trkpt><trkpt lat="45.2746847" lon="9.0230698"><ele>93.83333333333333</ele><time>2026-04-03T06:47:09.869Z</time></trkpt><trkpt lat="45.274654" lon="9.0231949"><ele>93.66666666666666</ele><time>2026-04-03T06:47:10.869Z</time></trkpt><trkpt lat="45.2746233" lon="9.0233166"><ele>93.5</ele><time>2026-04-03T06:47:11.87Z</time></trkpt><trkpt lat="45.2745921" lon="9.0234328"><ele>93.33333333333333</ele><time>2026-04-03T06:47:12.869Z</time></trkpt><trkpt lat="45.2745598" lon="9.0235468"><ele>93.16666666666667</ele><time>2026-04-03T06:47:13.87Z</time></trkpt><trkpt lat="45.2745277" lon="9.0236553"><ele>93.0</ele><time>2026-04-03T06:47:14.87Z</time></trkpt><trkpt lat="45.2744965" lon="9.0237536"><ele>93.0</ele><time>2026-04-03T06:47:15.87Z</time></trkpt><trkpt lat="45.2744688" lon="9.0238451"><ele>93.0</ele><time>2026-04-03T06:47:16.87Z</time></trkpt><trkpt lat="45.2744417" lon="9.0239279"><ele>93.0</ele><time>2026-04-03T06:47:17.869Z</time></trkpt><trkpt lat="45.2743939" lon="9.0240751"><ele>93.0</ele><time>2026-04-03T06:47:19.869Z</time></trkpt><trkpt lat="45.2743493" lon="9.0241877"><ele>93.0</ele><time>2026-04-03T06:47:21.87Z</time></trkpt><trkpt lat="45.2742917" lon="9.0242438"><ele>93.0</ele><time>2026-04-03T06:47:23.87Z</time></trkpt><trkpt lat="45.2742241" lon="9.0242204"><ele>93.0</ele><time>2026-04-03T06:47:25.87Z</time></trkpt><trkpt lat="45.274133" lon="9.0241279"><ele>93.0</ele><time>2026-04-03T06:47:27.87Z</time></trkpt><trkpt lat="45.2740624" lon="9.0240585"><ele>93.0</ele><time>2026-04-03T06:47:29.87Z</time></trkpt><trkpt lat="45.2740025" lon="9.024"><ele>93.0</ele><time>2026-04-03T06:47:31.87Z</time></trkpt><trkpt lat="45.2739426" lon="9.0239408"><ele>93.0</ele><time>2026-04-03T06:47:33.869Z</time></trkpt><trkpt lat="45.2738718" lon="9.0238744"><ele>93.0</ele><time>2026-04-03T06:47:35.869Z</time></trkpt><trkpt lat="45.2737828" lon="9.0237968"><ele>93.0</ele><time>2026-04-03T06:47:37.87Z</time></trkpt><trkpt lat="45.2737278" lon="9.0237472"><ele>93.0</ele><time>2026-04-03T06:47:38.869Z</time></trkpt><trkpt lat="45.2736619" lon="9.0236884"><ele>93.0</ele><time>2026-04-03T06:47:39.87Z</time></trkpt><trkpt lat="45.2735793" lon="9.0236128"><ele>93.0</ele><time>2026-04-03T06:47:40.87Z</time></trkpt><trkpt lat="45.2734945" lon="9.0235346"><ele>93.0</ele><time>2026-04-03T06:47:41.869Z</time></trkpt><trkpt lat="45.2734079" lon="9.0234526"><ele>93.0</ele><time>2026-04-03T06:47:42.869Z</time></trkpt><trkpt lat="45.2733261" lon="9.023371"><ele>93.0</ele><time>2026-04-03T06:47:43.87Z</time></trkpt><trkpt lat="45.2732445" lon="9.0232921"><ele>93.0</ele><time>2026-04-03T06:47:44.87Z</time></trkpt><trkpt lat="45.2731611" lon="9.0232128"><ele>93.0</ele><time>2026-04-03T06:47:45.869Z</time></trkpt><trkpt lat="45.2730786" lon="9.0231344"><ele>93.0</ele><time>2026-04-03T06:47:46.87Z</time></trkpt><trkpt lat="45.2730025" lon="9.0230538"><ele>93.0</ele><time>2026-04-03T06:47:47.87Z</time></trkpt><trkpt lat="45.2729303" lon="9.0229686"><ele>93.0</ele><time>2026-04-03T06:47:48.87Z</time></trkpt><trkpt lat="45.2728558" lon="9.022885"><ele>93.0</ele><time>2026-04-03T06:47:49.87Z</time></trkpt><trkpt lat="45.2727811" lon="9.0228042"><ele>93.0</ele><time>2026-04-03T06:47:50.87Z</time></trkpt><trkpt lat="45.2727063" lon="9.0227293"><ele>93.0</ele><time>2026-04-03T06:47:51.869Z</time></trkpt><trkpt lat="45.2726296" lon="9.0226527"><ele>93.0</ele><time>2026-04-03T06:47:52.869Z</time></trkpt><trkpt lat="45.2725523" lon="9.0225805"><ele>93.0</ele><time>2026-04-03T06:47:53.87Z</time></trkpt><trkpt lat="45.272473" lon="9.0225071"><ele>93.0</ele><time>2026-04-03T06:47:54.869Z</time></trkpt><trkpt lat="45.2723939" lon="9.022435"><ele>93.0</ele><time>2026-04-03T06:47:55.87Z</time></trkpt><trkpt lat="45.2723168" lon="9.0223644"><ele>93.0</ele><time>2026-04-03T06:47:56.87Z</time></trkpt><trkpt lat="45.27224" lon="9.0222941"><ele>93.0</ele><time>2026-04-03T06:47:57.87Z</time></trkpt><trkpt lat="45.2721621" lon="9.0222228"><ele>93.16666666666667</ele><time>2026-04-03T06:47:58.869Z</time></trkpt><trkpt lat="45.2720884" lon="9.0221563"><ele>93.33333333333333</ele><time>2026-04-03T06:47:59.87Z</time></trkpt><trkpt lat="45.2720205" lon="9.0220939"><ele>93.5</ele><time>2026-04-03T06:48:00.87Z</time></trkpt><trkpt lat="45.2719567" lon="9.0220351"><ele>93.66666666666666</ele><time>2026-04-03T06:48:01.87Z</time></trkpt><trkpt lat="45.271897" lon="9.0219811"><ele>93.83333333333333</ele><time>2026-04-03T06:48:02.869Z</time></trkpt><trkpt lat="45.2718424" lon="9.0219332"><ele>94.0</ele><time>2026-04-03T06:48:03.87Z</time></trkpt><trkpt lat="45.2717498" lon="9.0218524"><ele>94.0</ele><time>2026-04-03T06:48:05.869Z</time></trkpt><trkpt lat="45.27166" lon="9.0218184"><ele>94.0</ele><time>2026-04-03T06:48:07.87Z</time></trkpt><trkpt lat="45.2715901" lon="9.0218629"><ele>94.0</ele><time>2026-04-03T06:48:09.87Z</time></trkpt><trkpt lat="45.2715334" lon="9.0219703"><ele>94.0</ele><time>2026-04-03T06:48:11.869Z</time></trkpt><trkpt lat="45.2714956" lon="9.0220551"><ele>94.0</ele><time>2026-04-03T06:48:12.87Z</time></trkpt><trkpt lat="45.2714558" lon="9.0221484"><ele>94.0</ele><time>2026-04-03T06:48:13.87Z</time></trkpt><trkpt lat="45.2714189" lon="9.0222369"><ele>94.16666666666666</ele><time>2026-04-03T06:48:14.87Z</time></trkpt><trkpt lat="45.2713597" lon="9.0223712"><ele>94.33333333333333</ele><time>2026-04-03T06:48:16.87Z</time></trkpt><trkpt lat="45.2712824" lon="9.0224308"><ele>94.5</ele><time>2026-04-03T06:48:18.87Z</time></trkpt><trkpt lat="45.2712008" lon="9.0223809"><ele>94.66666666666667</ele><time>2026-04-03T06:48:20.869Z</time></trkpt><trkpt lat="45.2711525" lon="9.0223107"><ele>94.83333333333334</ele><time>2026-04-03T06:48:21.869Z</time></trkpt><trkpt lat="45.2710946" lon="9.0222175"><ele>95.0</ele><time>2026-04-03T06:48:22.87Z</time></trkpt><trkpt lat="45.2710281" lon="9.0221141"><ele>95.0</ele><time>2026-04-03T06:48:23.87Z</time></trkpt><trkpt lat="45.2709501" lon="9.0219884"><ele>95.0</ele><time>2026-04-03T06:48:24.87Z</time></trkpt><trkpt lat="45.2708645" lon="9.0218532"><ele>95.0</ele><time>2026-04-03T06:48:25.869Z</time></trkpt><trkpt lat="45.2707817" lon="9.0217221"><ele>95.0</ele><time>2026-04-03T06:48:26.87Z</time></trkpt><trkpt lat="45.2707012" lon="9.0215919"><ele>94.8</ele><time>2026-04-03T06:48:27.87Z</time></trkpt><trkpt lat="45.2706249" lon="9.0214675"><ele>94.6</ele><time>2026-04-03T06:48:28.869Z</time></trkpt><trkpt lat="45.2705518" lon="9.021354"><ele>94.4</ele><time>2026-04-03T06:48:29.87Z</time></trkpt><trkpt lat="45.2704844" lon="9.0212475"><ele>94.2</ele><time>2026-04-03T06:48:30.869Z</time></trkpt><trkpt lat="45.2704204" lon="9.0211456"><ele>94.0</ele><time>2026-04-03T06:48:31.869Z</time></trkpt><trkpt lat="45.2703606" lon="9.0210487"><ele>93.83333333333333</ele><time>2026-04-03T06:48:32.869Z</time></trkpt><trkpt lat="45.2703059" lon="9.0209604"><ele>93.66666666666666</ele><time>2026-04-03T06:48:33.869Z</time></trkpt><trkpt lat="45.2702551" lon="9.0208823"><ele>93.5</ele><time>2026-04-03T06:48:34.87Z</time></trkpt><trkpt lat="45.2702125" lon="9.0208124"><ele>93.33333333333333</ele><time>2026-04-03T06:48:35.87Z</time></trkpt><trkpt lat="45.2701392" lon="9.0206798"><ele>93.16666666666667</ele><time>2026-04-03T06:48:37.869Z</time></trkpt><trkpt lat="45.2700807" lon="9.0205737"><ele>93.0</ele><time>2026-04-03T06:48:39.87Z</time></trkpt><trkpt lat="45.2700139" lon="9.0205458"><ele>93.0</ele><time>2026-04-03T06:48:41.869Z</time></trkpt><trkpt lat="45.2699577" lon="9.0206222"><ele>93.0</ele><time>2026-04-03T06:48:44.87Z</time></trkpt><trkpt lat="45.2699246" lon="9.0207069"><ele>93.0</ele><time>2026-04-03T06:48:46.87Z</time></trkpt><trkpt lat="45.2698832" lon="9.0208088"><ele>93.0</ele><time>2026-04-03T06:48:48.869Z</time></trkpt><trkpt lat="45.26985" lon="9.0208923"><ele>93.0</ele><time>2026-04-03T06:48:50.869Z</time></trkpt><trkpt lat="45.2698006" lon="9.0210112"><ele>93.0</ele><time>2026-04-03T06:48:53.87Z</time></trkpt><trkpt lat="45.2697573" lon="9.0211102"><ele>93.2</ele><time>2026-04-03T06:48:55.87Z</time></trkpt><trkpt lat="45.2697097" lon="9.0212001"><ele>93.4</ele><time>2026-04-03T06:49:02.869Z</time></trkpt><trkpt lat="45.2696645" lon="9.0213114"><ele>93.60000000000001</ele><time>2026-04-03T06:49:04.87Z</time></trkpt><trkpt lat="45.269602" lon="9.0214495"><ele>93.80000000000001</ele><time>2026-04-03T06:49:06.869Z</time></trkpt><trkpt lat="45.269547" lon="9.0215929"><ele>94.0</ele><time>2026-04-03T06:49:08.869Z</time></trkpt><trkpt lat="45.2695104" lon="9.0217236"><ele>94.16666666666666</ele><time>2026-04-03T06:49:10.87Z</time></trkpt><trkpt lat="45.2694732" lon="9.0218194"><ele>94.33333333333333</ele><time>2026-04-03T06:49:12.869Z</time></trkpt><trkpt lat="45.2694332" lon="9.021892"><ele>94.5</ele><time>2026-04-03T06:49:14.87Z</time></trkpt><trkpt lat="45.2693752" lon="9.0219542"><ele>94.66666666666667</ele><time>2026-04-03T06:49:16.87Z</time></trkpt><trkpt lat="45.2693054" lon="9.0220146"><ele>94.83333333333334</ele><time>2026-04-03T06:49:18.87Z</time></trkpt><trkpt lat="45.2692407" lon="9.0220613"><ele>95.0</ele><time>2026-04-03T06:49:20.87Z</time></trkpt><trkpt lat="45.2691608" lon="9.022024"><ele>95.0</ele><time>2026-04-03T06:49:22.87Z</time></trkpt><trkpt lat="45.2690797" lon="9.0219621"><ele>95.0</ele><time>2026-04-03T06:49:24.87Z</time></trkpt><trkpt lat="45.2690096" lon="9.0219462"><ele>95.0</ele><time>2026-04-03T06:49:26.87Z</time></trkpt><trkpt lat="45.268928" lon="9.021923"><ele>95.0</ele><time>2026-04-03T06:49:30.87Z</time></trkpt><trkpt lat="45.2688791" lon="9.0218091"><ele>95.0</ele><time>2026-04-03T06:49:32.869Z</time></trkpt><trkpt lat="45.2687903" lon="9.0217179"><ele>94.83333333333334</ele><time>2026-04-03T06:49:34.87Z</time></trkpt><trkpt lat="45.268712" lon="9.0216913"><ele>94.66666666666667</ele><time>2026-04-03T06:49:36.87Z</time></trkpt><trkpt lat="45.268641" lon="9.0217359"><ele>94.5</ele><time>2026-04-03T06:49:38.87Z</time></trkpt><trkpt lat="45.2685803" lon="9.0218656"><ele>94.33333333333333</ele><time>2026-04-03T06:49:40.87Z</time></trkpt><trkpt lat="45.2685422" lon="9.0219513"><ele>94.16666666666666</ele><time>2026-04-03T06:49:41.87Z</time></trkpt><trkpt lat="45.2685037" lon="9.022052"><ele>94.0</ele><time>2026-04-03T06:49:42.869Z</time></trkpt><trkpt lat="45.2684596" lon="9.0221662"><ele>94.0</ele><time>2026-04-03T06:49:43.87Z</time></trkpt><trkpt lat="45.2684158" lon="9.0222946"><ele>94.0</ele><time>2026-04-03T06:49:44.87Z</time></trkpt><trkpt lat="45.2683673" lon="9.0224254"><ele>94.0</ele><time>2026-04-03T06:49:45.87Z</time></trkpt><trkpt lat="45.2683159" lon="9.0225664"><ele>94.0</ele><time>2026-04-03T06:49:46.87Z</time></trkpt><trkpt lat="45.2682641" lon="9.0227131"><ele>94.0</ele><time>2026-04-03T06:49:47.87Z</time></trkpt><trkpt lat="45.2682102" lon="9.0228641"><ele>94.25</ele><time>2026-04-03T06:49:48.87Z</time></trkpt><trkpt lat="45.2681544" lon="9.0230183"><ele>94.5</ele><time>2026-04-03T06:49:49.869Z</time></trkpt><trkpt lat="45.268098" lon="9.0231753"><ele>94.75</ele><time>2026-04-03T06:49:50.87Z</time></trkpt><trkpt lat="45.2680393" lon="9.0233357"><ele>95.0</ele><time>2026-04-03T06:49:51.869Z</time></trkpt><trkpt lat="45.2679779" lon="9.0235054"><ele>94.66666666666667</ele><time>2026-04-03T06:49:52.87Z</time></trkpt><trkpt lat="45.2679037" lon="9.0237119"><ele>94.33333333333333</ele><time>2026-04-03T06:49:53.87Z</time></trkpt><trkpt lat="45.2678169" lon="9.0239545"><ele>94.0</ele><time>2026-04-03T06:49:54.869Z</time></trkpt><trkpt lat="45.2677212" lon="9.0242143"><ele>94.0</ele><time>2026-04-03T06:49:55.87Z</time></trkpt><trkpt lat="45.2676201" lon="9.0244898"><ele>94.0</ele><time>2026-04-03T06:49:56.869Z</time></trkpt><trkpt lat="45.2675172" lon="9.0247703"><ele>94.0</ele><time>2026-04-03T06:49:57.869Z</time></trkpt><trkpt lat="45.2674162" lon="9.0250481"><ele>94.0</ele><time>2026-04-03T06:49:58.87Z</time></trkpt><trkpt lat="45.2673111" lon="9.0253346"><ele>94.0</ele><time>2026-04-03T06:49:59.87Z</time></trkpt><trkpt lat="45.2672052" lon="9.0256208"><ele>94.0</ele><time>2026-04-03T06:50:00.869Z</time></trkpt><trkpt lat="45.2671013" lon="9.0258991"><ele>94.0</ele><time>2026-04-03T06:50:01.87Z</time></trkpt><trkpt lat="45.266999" lon="9.0261719"><ele>94.0</ele><time>2026-04-03T06:50:02.87Z</time></trkpt><trkpt lat="45.2668957" lon="9.0264497"><ele>93.66666666666666</ele><time>2026-04-03T06:50:03.87Z</time></trkpt><trkpt lat="45.2667948" lon="9.0267256"><ele>93.33333333333333</ele><time>2026-04-03T06:50:04.87Z</time></trkpt><trkpt lat="45.2666962" lon="9.0269935"><ele>93.0</ele><time>2026-04-03T06:50:05.87Z</time></trkpt><trkpt lat="45.2666029" lon="9.0272478"><ele>93.33333333333333</ele><time>2026-04-03T06:50:06.869Z</time></trkpt><trkpt lat="45.2665126" lon="9.0274906"><ele>93.66666666666666</ele><time>2026-04-03T06:50:07.87Z</time></trkpt><trkpt lat="45.2664298" lon="9.0277189"><ele>94.0</ele><time>2026-04-03T06:50:08.869Z</time></trkpt><trkpt lat="45.2663513" lon="9.0279332"><ele>94.0</ele><time>2026-04-03T06:50:09.87Z</time></trkpt><trkpt lat="45.266277" lon="9.0281307"><ele>94.0</ele><time>2026-04-03T06:50:10.87Z</time></trkpt><trkpt lat="45.2662093" lon="9.028315"><ele>94.0</ele><time>2026-04-03T06:50:11.87Z</time></trkpt><trkpt lat="45.2661459" lon="9.0284929"><ele>94.0</ele><time>2026-04-03T06:50:12.87Z</time></trkpt><trkpt lat="45.2660832" lon="9.0286672"><ele>94.0</ele><time>2026-04-03T06:50:13.87Z</time></trkpt><trkpt lat="45.2660195" lon="9.0288385"><ele>94.0</ele><time>2026-04-03T06:50:14.87Z</time></trkpt><trkpt lat="45.2659576" lon="9.029001"><ele>94.0</ele><time>2026-04-03T06:50:15.87Z</time></trkpt><trkpt lat="45.265901" lon="9.0291518"><ele>94.0</ele><time>2026-04-03T06:50:16.87Z</time></trkpt><trkpt lat="45.2658489" lon="9.0292952"><ele>94.0</ele><time>2026-04-03T06:50:17.87Z</time></trkpt><trkpt lat="45.265801" lon="9.0294292"><ele>94.0</ele><time>2026-04-03T06:50:18.87Z</time></trkpt><trkpt lat="45.2657566" lon="9.0295527"><ele>94.0</ele><time>2026-04-03T06:50:19.87Z</time></trkpt><trkpt lat="45.265714" lon="9.0296675"><ele>94.0</ele><time>2026-04-03T06:50:20.869Z</time></trkpt><trkpt lat="45.2656743" lon="9.0297728"><ele>94.0</ele><time>2026-04-03T06:50:21.87Z</time></trkpt><trkpt lat="45.2656361" lon="9.0298719"><ele>93.83333333333333</ele><time>2026-04-03T06:50:22.87Z</time></trkpt><trkpt lat="45.2655997" lon="9.029966"><ele>93.66666666666666</ele><time>2026-04-03T06:50:23.869Z</time></trkpt><trkpt lat="45.2655688" lon="9.0300474"><ele>93.5</ele><time>2026-04-03T06:50:24.869Z</time></trkpt><trkpt lat="45.2655255" lon="9.0301624"><ele>93.33333333333333</ele><time>2026-04-03T06:50:26.87Z</time></trkpt><trkpt lat="45.265485" lon="9.0302587"><ele>93.16666666666667</ele><time>2026-04-03T06:50:29.87Z</time></trkpt><trkpt lat="45.2653824" lon="9.0302816"><ele>93.0</ele><time>2026-04-03T06:50:32.87Z</time></trkpt><trkpt lat="45.2653206" lon="9.0302642"><ele>93.0</ele><time>2026-04-03T06:50:33.87Z</time></trkpt><trkpt lat="45.2652433" lon="9.0302376"><ele>93.0</ele><time>2026-04-03T06:50:34.87Z</time></trkpt><trkpt lat="45.2651561" lon="9.0302081"><ele>93.0</ele><time>2026-04-03T06:50:35.869Z</time></trkpt><trkpt lat="45.2650626" lon="9.0301751"><ele>93.0</ele><time>2026-04-03T06:50:36.87Z</time></trkpt><trkpt lat="45.2649598" lon="9.0301341"><ele>93.0</ele><time>2026-04-03T06:50:37.869Z</time></trkpt><trkpt lat="45.2648544" lon="9.0300879"><ele>93.0</ele><time>2026-04-03T06:50:38.869Z</time></trkpt><trkpt lat="45.2647463" lon="9.0300428"><ele>93.0</ele><time>2026-04-03T06:50:39.87Z</time></trkpt><trkpt lat="45.2646332" lon="9.0299968"><ele>93.0</ele><time>2026-04-03T06:50:40.87Z</time></trkpt><trkpt lat="45.2645141" lon="9.029951"><ele>93.0</ele><time>2026-04-03T06:50:41.87Z</time></trkpt><trkpt lat="45.2643909" lon="9.0299055"><ele>93.0</ele><time>2026-04-03T06:50:42.869Z</time></trkpt><trkpt lat="45.2642654" lon="9.0298603"><ele>93.0</ele><time>2026-04-03T06:50:43.869Z</time></trkpt><trkpt lat="45.2641373" lon="9.0298152"><ele>93.0</ele><time>2026-04-03T06:50:44.87Z</time></trkpt><trkpt lat="45.2640082" lon="9.0297695"><ele>93.0</ele><time>2026-04-03T06:50:45.87Z</time></trkpt><trkpt lat="45.2638782" lon="9.0297247"><ele>93.0</ele><time>2026-04-03T06:50:46.869Z</time></trkpt><trkpt lat="45.2637478" lon="9.0296813"><ele>93.0</ele><time>2026-04-03T06:50:47.87Z</time></trkpt><trkpt lat="45.2636168" lon="9.0296362"><ele>93.0</ele><time>2026-04-03T06:50:48.869Z</time></trkpt><trkpt lat="45.2634869" lon="9.0295889"><ele>93.0</ele><time>2026-04-03T06:50:49.869Z</time></trkpt><trkpt lat="45.2633571" lon="9.0295391"><ele>93.0</ele><time>2026-04-03T06:50:50.869Z</time></trkpt><trkpt lat="45.2632275" lon="9.0294895"><ele>93.0</ele><time>2026-04-03T06:50:51.87Z</time></trkpt><trkpt lat="45.2630991" lon="9.0294395"><ele>93.0</ele><time>2026-04-03T06:50:52.87Z</time></trkpt><trkpt lat="45.2629716" lon="9.0293882"><ele>93.0</ele><time>2026-04-03T06:50:53.869Z</time></trkpt><trkpt lat="45.2628438" lon="9.0293397"><ele>93.0</ele><time>2026-04-03T06:50:54.87Z</time></trkpt><trkpt lat="45.2627173" lon="9.0292918"><ele>93.0</ele><time>2026-04-03T06:50:55.87Z</time></trkpt><trkpt lat="45.2625925" lon="9.029246"><ele>93.0</ele><time>2026-04-03T06:50:56.87Z</time></trkpt><trkpt lat="45.2624693" lon="9.0292011"><ele>93.0</ele><time>2026-04-03T06:50:57.869Z</time></trkpt><trkpt lat="45.2623467" lon="9.0291568"><ele>93.0</ele><time>2026-04-03T06:50:58.869Z</time></trkpt><trkpt lat="45.2622249" lon="9.0291136"><ele>93.0</ele><time>2026-04-03T06:50:59.87Z</time></trkpt><trkpt lat="45.2621034" lon="9.0290731"><ele>93.0</ele><time>2026-04-03T06:51:00.869Z</time></trkpt><trkpt lat="45.2619827" lon="9.0290358"><ele>93.0</ele><time>2026-04-03T06:51:01.869Z</time></trkpt><trkpt lat="45.2618619" lon="9.0290035"><ele>93.0</ele><time>2026-04-03T06:51:02.87Z</time></trkpt><trkpt lat="45.2617397" lon="9.0289745"><ele>93.0</ele><time>2026-04-03T06:51:03.87Z</time></trkpt><trkpt lat="45.2616168" lon="9.028946"><ele>93.0</ele><time>2026-04-03T06:51:04.87Z</time></trkpt><trkpt lat="45.2614927" lon="9.0289166"><ele>93.0</ele><time>2026-04-03T06:51:05.869Z</time></trkpt><trkpt lat="45.2613679" lon="9.0288874"><ele>93.25</ele><time>2026-04-03T06:51:06.87Z</time></trkpt><trkpt lat="45.2612434" lon="9.0288598"><ele>93.5</ele><time>2026-04-03T06:51:07.87Z</time></trkpt><trkpt lat="45.2611244" lon="9.0288289"><ele>93.75</ele><time>2026-04-03T06:51:08.869Z</time></trkpt><trkpt lat="45.2610057" lon="9.028792"><ele>94.0</ele><time>2026-04-03T06:51:09.87Z</time></trkpt><trkpt lat="45.2608889" lon="9.02875"><ele>94.0</ele><time>2026-04-03T06:51:10.87Z</time></trkpt><trkpt lat="45.2607809" lon="9.0287032"><ele>94.0</ele><time>2026-04-03T06:51:11.87Z</time></trkpt><trkpt lat="45.260681" lon="9.0286549"><ele>94.0</ele><time>2026-04-03T06:51:12.869Z</time></trkpt><trkpt lat="45.2605886" lon="9.0286069"><ele>94.0</ele><time>2026-04-03T06:51:13.869Z</time></trkpt><trkpt lat="45.2605007" lon="9.0285618"><ele>94.0</ele><time>2026-04-03T06:51:14.869Z</time></trkpt><trkpt lat="45.2604144" lon="9.0285201"><ele>94.2</ele><time>2026-04-03T06:51:15.869Z</time></trkpt><trkpt lat="45.2603274" lon="9.0284823"><ele>94.4</ele><time>2026-04-03T06:51:16.87Z</time></trkpt><trkpt lat="45.2602384" lon="9.0284467"><ele>94.6</ele><time>2026-04-03T06:51:17.87Z</time></trkpt><trkpt lat="45.2601488" lon="9.0284143"><ele>94.8</ele><time>2026-04-03T06:51:18.87Z</time></trkpt><trkpt lat="45.2600597" lon="9.0283852"><ele>95.0</ele><time>2026-04-03T06:51:19.87Z</time></trkpt><trkpt lat="45.2599751" lon="9.0283518"><ele>95.0</ele><time>2026-04-03T06:51:20.87Z</time></trkpt><trkpt lat="45.2598905" lon="9.0283191"><ele>95.0</ele><time>2026-04-03T06:51:21.869Z</time></trkpt><trkpt lat="45.2598037" lon="9.0282869"><ele>95.0</ele><time>2026-04-03T06:51:22.87Z</time></trkpt><trkpt lat="45.2597186" lon="9.0282575"><ele>95.0</ele><time>2026-04-03T06:51:23.869Z</time></trkpt><trkpt lat="45.2596342" lon="9.0282296"><ele>95.0</ele><time>2026-04-03T06:51:24.869Z</time></trkpt><trkpt lat="45.2595504" lon="9.0282031"><ele>95.0</ele><time>2026-04-03T06:51:25.869Z</time></trkpt><trkpt lat="45.259467" lon="9.0281778"><ele>95.0</ele><time>2026-04-03T06:51:26.87Z</time></trkpt><trkpt lat="45.2593843" lon="9.0281537"><ele>95.0</ele><time>2026-04-03T06:51:27.87Z</time></trkpt><trkpt lat="45.2593014" lon="9.0281285"><ele>95.0</ele><time>2026-04-03T06:51:28.869Z</time></trkpt><trkpt lat="45.2592188" lon="9.028102"><ele>95.0</ele><time>2026-04-03T06:51:29.87Z</time></trkpt><trkpt lat="45.2591355" lon="9.0280739"><ele>95.0</ele><time>2026-04-03T06:51:30.869Z</time></trkpt><trkpt lat="45.2590543" lon="9.0280426"><ele>95.0</ele><time>2026-04-03T06:51:31.87Z</time></trkpt><trkpt lat="45.2589769" lon="9.0280111"><ele>95.0</ele><time>2026-04-03T06:51:32.869Z</time></trkpt><trkpt lat="45.2589035" lon="9.0279844"><ele>95.0</ele><time>2026-04-03T06:51:33.87Z</time></trkpt><trkpt lat="45.2588329" lon="9.0279721"><ele>95.0</ele><time>2026-04-03T06:51:34.87Z</time></trkpt><trkpt lat="45.2587639" lon="9.0279841"><ele>95.0</ele><time>2026-04-03T06:51:35.87Z</time></trkpt><trkpt lat="45.2587001" lon="9.0280254"><ele>95.0</ele><time>2026-04-03T06:51:36.87Z</time></trkpt><trkpt lat="45.2586485" lon="9.0280914"><ele>95.0</ele><time>2026-04-03T06:51:37.87Z</time></trkpt><trkpt lat="45.258601" lon="9.0281566"><ele>95.0</ele><time>2026-04-03T06:51:38.869Z</time></trkpt><trkpt lat="45.2585255" lon="9.0282537"><ele>95.0</ele><time>2026-04-03T06:51:40.87Z</time></trkpt><trkpt lat="45.2584458" lon="9.0282601"><ele>95.0</ele><time>2026-04-03T06:51:42.869Z</time></trkpt><trkpt lat="45.2583759" lon="9.0282004"><ele>95.0</ele><time>2026-04-03T06:51:44.869Z</time></trkpt><trkpt lat="45.2583081" lon="9.0281106"><ele>95.0</ele><time>2026-04-03T06:51:46.87Z</time></trkpt><trkpt lat="45.2582558" lon="9.0280359"><ele>95.0</ele><time>2026-04-03T06:51:48.87Z</time></trkpt><trkpt lat="45.2582037" lon="9.0279107"><ele>95.0</ele><time>2026-04-03T06:51:50.87Z</time></trkpt><trkpt lat="45.2581876" lon="9.0278138"><ele>95.0</ele><time>2026-04-03T06:51:51.869Z</time></trkpt><trkpt lat="45.2581836" lon="9.027691"><ele>95.0</ele><time>2026-04-03T06:51:52.869Z</time></trkpt><trkpt lat="45.2581915" lon="9.0275545"><ele>95.0</ele><time>2026-04-03T06:51:53.87Z</time></trkpt><trkpt lat="45.2582067" lon="9.0274253"><ele>95.0</ele><time>2026-04-03T06:51:54.87Z</time></trkpt><trkpt lat="45.2582279" lon="9.0273111"><ele>95.0</ele><time>2026-04-03T06:51:55.87Z</time></trkpt><trkpt lat="45.2582512" lon="9.0272221"><ele>95.0</ele><time>2026-04-03T06:51:56.869Z</time></trkpt><trkpt lat="45.2582954" lon="9.0271021"><ele>95.0</ele><time>2026-04-03T06:51:58.869Z</time></trkpt><trkpt lat="45.258332" lon="9.0270036"><ele>95.0</ele><time>2026-04-03T06:52:00.87Z</time></trkpt><trkpt lat="45.2583825" lon="9.0268885"><ele>95.0</ele><time>2026-04-03T06:52:02.87Z</time></trkpt><trkpt lat="45.258416" lon="9.0268122"><ele>95.0</ele><time>2026-04-03T06:52:03.87Z</time></trkpt><trkpt lat="45.2584594" lon="9.0267164"><ele>95.0</ele><time>2026-04-03T06:52:05.87Z</time></trkpt><trkpt lat="45.2583897" lon="9.0267193"><ele>95.0</ele><time>2026-04-03T06:52:09.869Z</time></trkpt><trkpt lat="45.2583103" lon="9.0268907"><ele>95.0</ele><time>2026-04-03T06:52:11.869Z</time></trkpt><trkpt lat="45.2582626" lon="9.0270006"><ele>95.0</ele><time>2026-04-03T06:52:12.87Z</time></trkpt><trkpt lat="45.2582163" lon="9.027097"><ele>95.0</ele><time>2026-04-03T06:52:13.87Z</time></trkpt><trkpt lat="45.2581582" lon="9.0271867"><ele>95.0</ele><time>2026-04-03T06:52:14.87Z</time></trkpt><trkpt lat="45.2580904" lon="9.0272612"><ele>95.0</ele><time>2026-04-03T06:52:15.87Z</time></trkpt><trkpt lat="45.2580227" lon="9.0273192"><ele>95.0</ele><time>2026-04-03T06:52:16.87Z</time></trkpt><trkpt lat="45.2579581" lon="9.0273654"><ele>95.2</ele><time>2026-04-03T06:52:17.87Z</time></trkpt><trkpt lat="45.2578962" lon="9.0274012"><ele>95.4</ele><time>2026-04-03T06:52:18.869Z</time></trkpt><trkpt lat="45.2577793" lon="9.0274405"><ele>95.6</ele><time>2026-04-03T06:52:20.87Z</time></trkpt><trkpt lat="45.2576776" lon="9.0274158"><ele>95.8</ele><time>2026-04-03T06:52:22.87Z</time></trkpt><trkpt lat="45.2576006" lon="9.0273455"><ele>96.0</ele><time>2026-04-03T06:52:24.87Z</time></trkpt><trkpt lat="45.2575249" lon="9.0272714"><ele>95.99999999999999</ele><time>2026-04-03T06:52:26.87Z</time></trkpt><trkpt lat="45.2574736" lon="9.0272098"><ele>96.0</ele><time>2026-04-03T06:52:27.87Z</time></trkpt><trkpt lat="45.2574104" lon="9.0271397"><ele>96.0</ele><time>2026-04-03T06:52:28.869Z</time></trkpt><trkpt lat="45.2573481" lon="9.0270696"><ele>96.0</ele><time>2026-04-03T06:52:29.87Z</time></trkpt><trkpt lat="45.2572862" lon="9.0270048"><ele>96.0</ele><time>2026-04-03T06:52:30.869Z</time></trkpt><trkpt lat="45.2572266" lon="9.0269496"><ele>95.99999999999999</ele><time>2026-04-03T06:52:31.87Z</time></trkpt><trkpt lat="45.2571702" lon="9.0268957"><ele>96.0</ele><time>2026-04-03T06:52:32.87Z</time></trkpt><trkpt lat="45.2570698" lon="9.0268025"><ele>95.4</ele><time>2026-04-03T06:52:34.87Z</time></trkpt><trkpt lat="45.2569773" lon="9.0267189"><ele>94.8</ele><time>2026-04-03T06:52:36.869Z</time></trkpt><trkpt lat="45.2568881" lon="9.0266439"><ele>94.2</ele><time>2026-04-03T06:52:38.87Z</time></trkpt><trkpt lat="45.2568013" lon="9.0265766"><ele>93.60000000000001</ele><time>2026-04-03T06:52:40.869Z</time></trkpt><trkpt lat="45.2567157" lon="9.0264872"><ele>93.0</ele><time>2026-04-03T06:52:42.869Z</time></trkpt><trkpt lat="45.2566315" lon="9.0263796"><ele>92.83333333333333</ele><time>2026-04-03T06:52:44.869Z</time></trkpt><trkpt lat="45.2565412" lon="9.0262634"><ele>92.66666666666667</ele><time>2026-04-03T06:52:46.87Z</time></trkpt><trkpt lat="45.2564919" lon="9.0261999"><ele>92.5</ele><time>2026-04-03T06:52:47.87Z</time></trkpt><trkpt lat="45.2564418" lon="9.026139"><ele>92.33333333333334</ele><time>2026-04-03T06:52:48.869Z</time></trkpt><trkpt lat="45.25639" lon="9.0260734"><ele>92.16666666666667</ele><time>2026-04-03T06:52:49.869Z</time></trkpt><trkpt lat="45.2563364" lon="9.0260069"><ele>92.0</ele><time>2026-04-03T06:52:50.87Z</time></trkpt><trkpt lat="45.2562823" lon="9.0259412"><ele>92.0</ele><time>2026-04-03T06:52:51.87Z</time></trkpt><trkpt lat="45.2562298" lon="9.0258735"><ele>92.0</ele><time>2026-04-03T06:52:52.869Z</time></trkpt><trkpt lat="45.2561741" lon="9.02581"><ele>92.0</ele><time>2026-04-03T06:52:53.869Z</time></trkpt><trkpt lat="45.2561148" lon="9.0257493"><ele>92.0</ele><time>2026-04-03T06:52:54.869Z</time></trkpt><trkpt lat="45.2560598" lon="9.0256912"><ele>92.0</ele><time>2026-04-03T06:52:55.87Z</time></trkpt><trkpt lat="45.2560011" lon="9.0256421"><ele>92.0</ele><time>2026-04-03T06:52:56.87Z</time></trkpt><trkpt lat="45.2559348" lon="9.0255984"><ele>92.0</ele><time>2026-04-03T06:52:57.87Z</time></trkpt><trkpt lat="45.2558669" lon="9.0255635"><ele>92.16666666666667</ele><time>2026-04-03T06:52:58.87Z</time></trkpt><trkpt lat="45.2557937" lon="9.0255321"><ele>92.33333333333334</ele><time>2026-04-03T06:52:59.87Z</time></trkpt><trkpt lat="45.2557225" lon="9.0255023"><ele>92.5</ele><time>2026-04-03T06:53:00.869Z</time></trkpt><trkpt lat="45.255651" lon="9.0254676"><ele>92.66666666666667</ele><time>2026-04-03T06:53:01.87Z</time></trkpt><trkpt lat="45.2555799" lon="9.0254259"><ele>92.83333333333333</ele><time>2026-04-03T06:53:02.869Z</time></trkpt><trkpt lat="45.2555097" lon="9.0253803"><ele>93.0</ele><time>2026-04-03T06:53:03.869Z</time></trkpt><trkpt lat="45.255442" lon="9.0253312"><ele>93.16666666666667</ele><time>2026-04-03T06:53:04.87Z</time></trkpt><trkpt lat="45.2553742" lon="9.0252852"><ele>93.33333333333333</ele><time>2026-04-03T06:53:05.869Z</time></trkpt><trkpt lat="45.2553057" lon="9.0252317"><ele>93.5</ele><time>2026-04-03T06:53:06.87Z</time></trkpt><trkpt lat="45.2552383" lon="9.0251749"><ele>93.66666666666666</ele><time>2026-04-03T06:53:07.869Z</time></trkpt><trkpt lat="45.2551702" lon="9.0251211"><ele>93.83333333333333</ele><time>2026-04-03T06:53:08.87Z</time></trkpt><trkpt lat="45.255102" lon="9.0250583"><ele>94.0</ele><time>2026-04-03T06:53:09.87Z</time></trkpt><trkpt lat="45.2550275" lon="9.0249911"><ele>93.80000000000001</ele><time>2026-04-03T06:53:10.87Z</time></trkpt><trkpt lat="45.2549503" lon="9.0249225"><ele>93.60000000000001</ele><time>2026-04-03T06:53:11.869Z</time></trkpt><trkpt lat="45.2548655" lon="9.0248458"><ele>93.4</ele><time>2026-04-03T06:53:12.87Z</time></trkpt><trkpt lat="45.2547763" lon="9.0247653"><ele>93.2</ele><time>2026-04-03T06:53:13.869Z</time></trkpt><trkpt lat="45.2546812" lon="9.0246759"><ele>93.0</ele><time>2026-04-03T06:53:14.87Z</time></trkpt><trkpt lat="45.25458" lon="9.024583"><ele>92.5</ele><time>2026-04-03T06:53:15.869Z</time></trkpt><trkpt lat="45.2544787" lon="9.0244844"><ele>92.0</ele><time>2026-04-03T06:53:16.869Z</time></trkpt><trkpt lat="45.2543744" lon="9.0243864"><ele>91.5</ele><time>2026-04-03T06:53:17.869Z</time></trkpt><trkpt lat="45.2542673" lon="9.0242872"><ele>91.0</ele><time>2026-04-03T06:53:18.869Z</time></trkpt><trkpt lat="45.2541634" lon="9.0241866"><ele>91.0</ele><time>2026-04-03T06:53:19.869Z</time></trkpt><trkpt lat="45.2540579" lon="9.0240882"><ele>91.0</ele><time>2026-04-03T06:53:20.869Z</time></trkpt><trkpt lat="45.2539559" lon="9.0239932"><ele>91.0</ele><time>2026-04-03T06:53:21.87Z</time></trkpt><trkpt lat="45.2538607" lon="9.0239015"><ele>91.0</ele><time>2026-04-03T06:53:22.87Z</time></trkpt><trkpt lat="45.2537668" lon="9.0238142"><ele>91.0</ele><time>2026-04-03T06:53:23.87Z</time></trkpt><trkpt lat="45.2536775" lon="9.0237304"><ele>91.0</ele><time>2026-04-03T06:53:24.87Z</time></trkpt><trkpt lat="45.2535891" lon="9.0236506"><ele>91.0</ele><time>2026-04-03T06:53:25.87Z</time></trkpt><trkpt lat="45.2535014" lon="9.023572"><ele>91.0</ele><time>2026-04-03T06:53:26.87Z</time></trkpt><trkpt lat="45.2534148" lon="9.0234965"><ele>91.0</ele><time>2026-04-03T06:53:27.87Z</time></trkpt><trkpt lat="45.2533284" lon="9.023434"><ele>91.0</ele><time>2026-04-03T06:53:28.869Z</time></trkpt><trkpt lat="45.2532407" lon="9.0233907"><ele>91.0</ele><time>2026-04-03T06:53:29.869Z</time></trkpt><trkpt lat="45.2531413" lon="9.0233614"><ele>91.0</ele><time>2026-04-03T06:53:30.87Z</time></trkpt><trkpt lat="45.2530306" lon="9.0233424"><ele>91.0</ele><time>2026-04-03T06:53:31.87Z</time></trkpt><trkpt lat="45.2529106" lon="9.0233279"><ele>91.0</ele><time>2026-04-03T06:53:32.87Z</time></trkpt><trkpt lat="45.2527814" lon="9.0233181"><ele>90.25</ele><time>2026-04-03T06:53:33.87Z</time></trkpt><trkpt lat="45.252647" lon="9.0233074"><ele>89.5</ele><time>2026-04-03T06:53:34.87Z</time></trkpt><trkpt lat="45.252499" lon="9.0233006"><ele>88.75</ele><time>2026-04-03T06:53:35.87Z</time></trkpt><trkpt lat="45.2523442" lon="9.0232934"><ele>88.0</ele><time>2026-04-03T06:53:36.87Z</time></trkpt><trkpt lat="45.2521829" lon="9.0232838"><ele>88.0</ele><time>2026-04-03T06:53:37.87Z</time></trkpt><trkpt lat="45.2520132" lon="9.0232721"><ele>88.0</ele><time>2026-04-03T06:53:38.87Z</time></trkpt><trkpt lat="45.2518439" lon="9.0232607"><ele>88.0</ele><time>2026-04-03T06:53:39.869Z</time></trkpt><trkpt lat="45.251674" lon="9.0232461"><ele>88.0</ele><time>2026-04-03T06:53:40.87Z</time></trkpt><trkpt lat="45.2515033" lon="9.0232314"><ele>88.0</ele><time>2026-04-03T06:53:41.87Z</time></trkpt><trkpt lat="45.2513327" lon="9.0232187"><ele>88.0</ele><time>2026-04-03T06:53:42.869Z</time></trkpt><trkpt lat="45.2511618" lon="9.0232035"><ele>87.66666666666666</ele><time>2026-04-03T06:53:43.87Z</time></trkpt><trkpt lat="45.2509923" lon="9.0231911"><ele>87.33333333333333</ele><time>2026-04-03T06:53:44.87Z</time></trkpt><trkpt lat="45.2508218" lon="9.0231814"><ele>87.0</ele><time>2026-04-03T06:53:45.87Z</time></trkpt><trkpt lat="45.2506494" lon="9.0231708"><ele>87.66666666666667</ele><time>2026-04-03T06:53:46.87Z</time></trkpt><trkpt lat="45.2504784" lon="9.0231566"><ele>88.33333333333334</ele><time>2026-04-03T06:53:47.869Z</time></trkpt><trkpt lat="45.2503073" lon="9.0231441"><ele>89.0</ele><time>2026-04-03T06:53:48.87Z</time></trkpt><trkpt lat="45.2501373" lon="9.0231324"><ele>89.0</ele><time>2026-04-03T06:53:49.87Z</time></trkpt><trkpt lat="45.2499665" lon="9.0231214"><ele>89.0</ele><time>2026-04-03T06:53:50.869Z</time></trkpt><trkpt lat="45.2497985" lon="9.0231117"><ele>89.0</ele><time>2026-04-03T06:53:51.87Z</time></trkpt><trkpt lat="45.2496338" lon="9.0230991"><ele>89.66666666666667</ele><time>2026-04-03T06:53:52.87Z</time></trkpt><trkpt lat="45.2494724" lon="9.0230878"><ele>90.33333333333333</ele><time>2026-04-03T06:53:53.87Z</time></trkpt><trkpt lat="45.2493103" lon="9.0230802"><ele>91.0</ele><time>2026-04-03T06:53:54.87Z</time></trkpt><trkpt lat="45.2491485" lon="9.0230744"><ele>91.0</ele><time>2026-04-03T06:53:55.87Z</time></trkpt><trkpt lat="45.2489916" lon="9.0230578"><ele>91.0</ele><time>2026-04-03T06:53:56.87Z</time></trkpt><trkpt lat="45.2488346" lon="9.0230398"><ele>91.0</ele><time>2026-04-03T06:53:57.87Z</time></trkpt><trkpt lat="45.24868" lon="9.0230214"><ele>91.0</ele><time>2026-04-03T06:53:58.87Z</time></trkpt><trkpt lat="45.248527" lon="9.0230048"><ele>91.0</ele><time>2026-04-03T06:53:59.869Z</time></trkpt><trkpt lat="45.248377" lon="9.0229892"><ele>91.0</ele><time>2026-04-03T06:54:00.87Z</time></trkpt><trkpt lat="45.2482267" lon="9.0229758"><ele>90.75</ele><time>2026-04-03T06:54:01.87Z</time></trkpt><trkpt lat="45.2480781" lon="9.0229656"><ele>90.5</ele><time>2026-04-03T06:54:02.869Z</time></trkpt><trkpt lat="45.2479284" lon="9.0229561"><ele>90.25</ele><time>2026-04-03T06:54:03.87Z</time></trkpt><trkpt lat="45.2477812" lon="9.0229425"><ele>90.0</ele><time>2026-04-03T06:54:04.87Z</time></trkpt><trkpt lat="45.2476343" lon="9.0229283"><ele>90.0</ele><time>2026-04-03T06:54:05.869Z</time></trkpt><trkpt lat="45.2474843" lon="9.022918"><ele>90.0</ele><time>2026-04-03T06:54:06.87Z</time></trkpt><trkpt lat="45.2473347" lon="9.0229068"><ele>90.0</ele><time>2026-04-03T06:54:07.87Z</time></trkpt><trkpt lat="45.2471858" lon="9.022899"><ele>90.0</ele><time>2026-04-03T06:54:08.869Z</time></trkpt><trkpt lat="45.2470356" lon="9.0228883"><ele>88.0</ele><time>2026-04-03T06:54:09.87Z</time></trkpt><trkpt lat="45.2468872" lon="9.0228792"><ele>86.0</ele><time>2026-04-03T06:54:10.87Z</time></trkpt><trkpt lat="45.2467356" lon="9.0228713"><ele>84.0</ele><time>2026-04-03T06:54:11.869Z</time></trkpt><trkpt lat="45.2465843" lon="9.022862"><ele>83.5</ele><time>2026-04-03T06:54:12.87Z</time></trkpt><trkpt lat="45.2464356" lon="9.022852"><ele>83.0</ele><time>2026-04-03T06:54:13.87Z</time></trkpt><trkpt lat="45.2462868" lon="9.0228418"><ele>82.5</ele><time>2026-04-03T06:54:14.87Z</time></trkpt><trkpt lat="45.2461401" lon="9.0228293"><ele>82.0</ele><time>2026-04-03T06:54:15.87Z</time></trkpt><trkpt lat="45.2459996" lon="9.0228163"><ele>82.0</ele><time>2026-04-03T06:54:16.87Z</time></trkpt><trkpt lat="45.2458578" lon="9.0228079"><ele>82.0</ele><time>2026-04-03T06:54:17.87Z</time></trkpt><trkpt lat="45.2457169" lon="9.022796"><ele>82.0</ele><time>2026-04-03T06:54:18.87Z</time></trkpt><trkpt lat="45.2455758" lon="9.0227867"><ele>82.0</ele><time>2026-04-03T06:54:19.869Z</time></trkpt><trkpt lat="45.2454355" lon="9.0227775"><ele>82.25</ele><time>2026-04-03T06:54:20.869Z</time></trkpt><trkpt lat="45.2452945" lon="9.0227699"><ele>82.5</ele><time>2026-04-03T06:54:21.869Z</time></trkpt><trkpt lat="45.2451521" lon="9.0227656"><ele>82.75</ele><time>2026-04-03T06:54:22.87Z</time></trkpt><trkpt lat="45.245008" lon="9.0227596"><ele>83.0</ele><time>2026-04-03T06:54:23.87Z</time></trkpt><trkpt lat="45.2448665" lon="9.0227523"><ele>82.5</ele><time>2026-04-03T06:54:24.87Z</time></trkpt><trkpt lat="45.2447276" lon="9.0227433"><ele>82.0</ele><time>2026-04-03T06:54:25.869Z</time></trkpt><trkpt lat="45.2445855" lon="9.0227346"><ele>81.5</ele><time>2026-04-03T06:54:26.87Z</time></trkpt><trkpt lat="45.2444469" lon="9.0227244"><ele>81.0</ele><time>2026-04-03T06:54:27.87Z</time></trkpt><trkpt lat="45.2443077" lon="9.0227178"><ele>81.0</ele><time>2026-04-03T06:54:28.869Z</time></trkpt><trkpt lat="45.244171" lon="9.0227093"><ele>81.0</ele><time>2026-04-03T06:54:29.869Z</time></trkpt><trkpt lat="45.2440362" lon="9.022699"><ele>81.0</ele><time>2026-04-03T06:54:30.87Z</time></trkpt><trkpt lat="45.2439015" lon="9.0226895"><ele>81.0</ele><time>2026-04-03T06:54:31.87Z</time></trkpt><trkpt lat="45.2437671" lon="9.022682"><ele>81.0</ele><time>2026-04-03T06:54:32.87Z</time></trkpt><trkpt lat="45.2436319" lon="9.0226736"><ele>81.0</ele><time>2026-04-03T06:54:33.869Z</time></trkpt><trkpt lat="45.2434996" lon="9.0226654"><ele>81.0</ele><time>2026-04-03T06:54:34.87Z</time></trkpt><trkpt lat="45.2433686" lon="9.0226493"><ele>81.0</ele><time>2026-04-03T06:54:35.869Z</time></trkpt><trkpt lat="45.2432394" lon="9.0226234"><ele>79.75</ele><time>2026-04-03T06:54:36.869Z</time></trkpt><trkpt lat="45.2431138" lon="9.0225729"><ele>78.5</ele><time>2026-04-03T06:54:37.87Z</time></trkpt><trkpt lat="45.2429963" lon="9.022492"><ele>77.25</ele><time>2026-04-03T06:54:38.87Z</time></trkpt><trkpt lat="45.2428952" lon="9.0223802"><ele>76.0</ele><time>2026-04-03T06:54:39.87Z</time></trkpt><trkpt lat="45.2428024" lon="9.0222464"><ele>76.0</ele><time>2026-04-03T06:54:40.869Z</time></trkpt><trkpt lat="45.2427121" lon="9.0221016"><ele>76.0</ele><time>2026-04-03T06:54:41.87Z</time></trkpt><trkpt lat="45.2426242" lon="9.0219437"><ele>76.0</ele><time>2026-04-03T06:54:42.87Z</time></trkpt><trkpt lat="45.2425408" lon="9.0217811"><ele>76.0</ele><time>2026-04-03T06:54:43.869Z</time></trkpt><trkpt lat="45.2424652" lon="9.0216128"><ele>76.5</ele><time>2026-04-03T06:54:44.87Z</time></trkpt><trkpt lat="45.2423913" lon="9.0214428"><ele>77.0</ele><time>2026-04-03T06:54:45.87Z</time></trkpt><trkpt lat="45.2423201" lon="9.0212707"><ele>77.5</ele><time>2026-04-03T06:54:46.87Z</time></trkpt><trkpt lat="45.2422395" lon="9.0210988"><ele>78.0</ele><time>2026-04-03T06:54:47.87Z</time></trkpt><trkpt lat="45.2421508" lon="9.0209386"><ele>76.25</ele><time>2026-04-03T06:54:48.869Z</time></trkpt><trkpt lat="45.2420519" lon="9.020792"><ele>74.5</ele><time>2026-04-03T06:54:49.87Z</time></trkpt><trkpt lat="45.2419498" lon="9.0206627"><ele>72.75</ele><time>2026-04-03T06:54:50.87Z</time></trkpt><trkpt lat="45.2418593" lon="9.0205373"><ele>71.0</ele><time>2026-04-03T06:54:51.87Z</time></trkpt><trkpt lat="45.2418058" lon="9.0203953"><ele>71.0</ele><time>2026-04-03T06:54:52.87Z</time></trkpt><trkpt lat="45.241777" lon="9.0202383"><ele>71.0</ele><time>2026-04-03T06:54:53.87Z</time></trkpt><trkpt lat="45.2417709" lon="9.0200693"><ele>71.0</ele><time>2026-04-03T06:54:54.869Z</time></trkpt><trkpt lat="45.2417784" lon="9.0198909"><ele>71.0</ele><time>2026-04-03T06:54:55.869Z</time></trkpt><trkpt lat="45.2417869" lon="9.0197055"><ele>71.25</ele><time>2026-04-03T06:54:56.87Z</time></trkpt><trkpt lat="45.2417861" lon="9.0195109"><ele>71.5</ele><time>2026-04-03T06:54:57.869Z</time></trkpt><trkpt lat="45.2417671" lon="9.0193183"><ele>71.75</ele><time>2026-04-03T06:54:58.87Z</time></trkpt><trkpt lat="45.2417264" lon="9.0191336"><ele>72.0</ele><time>2026-04-03T06:54:59.87Z</time></trkpt><trkpt lat="45.2416737" lon="9.0189588"><ele>72.0</ele><time>2026-04-03T06:55:00.87Z</time></trkpt><trkpt lat="45.2416145" lon="9.0187874"><ele>72.0</ele><time>2026-04-03T06:55:01.87Z</time></trkpt><trkpt lat="45.2415543" lon="9.0186212"><ele>72.0</ele><time>2026-04-03T06:55:02.87Z</time></trkpt><trkpt lat="45.2414839" lon="9.0184658"><ele>72.0</ele><time>2026-04-03T06:55:03.87Z</time></trkpt><trkpt lat="45.2413992" lon="9.018331"><ele>71.0</ele><time>2026-04-03T06:55:04.87Z</time></trkpt><trkpt lat="45.2412971" lon="9.0182257"><ele>70.0</ele><time>2026-04-03T06:55:05.869Z</time></trkpt><trkpt lat="45.2411767" lon="9.0181574"><ele>69.0</ele><time>2026-04-03T06:55:06.869Z</time></trkpt><trkpt lat="45.2410515" lon="9.0181114"><ele>68.0</ele><time>2026-04-03T06:55:07.87Z</time></trkpt><trkpt lat="45.2409262" lon="9.0180635"><ele>68.0</ele><time>2026-04-03T06:55:08.869Z</time></trkpt><trkpt lat="45.2407979" lon="9.0180217"><ele>68.0</ele><time>2026-04-03T06:55:09.87Z</time></trkpt><trkpt lat="45.2406696" lon="9.0179815"><ele>68.0</ele><time>2026-04-03T06:55:10.869Z</time></trkpt><trkpt lat="45.2405418" lon="9.0179354"><ele>68.0</ele><time>2026-04-03T06:55:11.87Z</time></trkpt><trkpt lat="45.2404139" lon="9.0178749"><ele>68.0</ele><time>2026-04-03T06:55:12.87Z</time></trkpt><trkpt lat="45.2402911" lon="9.0177942"><ele>68.0</ele><time>2026-04-03T06:55:13.869Z</time></trkpt><trkpt lat="45.2401709" lon="9.0176925"><ele>68.0</ele><time>2026-04-03T06:55:14.869Z</time></trkpt><trkpt lat="45.2400511" lon="9.0175853"><ele>68.0</ele><time>2026-04-03T06:55:15.87Z</time></trkpt><trkpt lat="45.2399302" lon="9.0174722"><ele>70.33333333333334</ele><time>2026-04-03T06:55:16.87Z</time></trkpt><trkpt lat="45.2397959" lon="9.0173493"><ele>72.66666666666667</ele><time>2026-04-03T06:55:17.87Z</time></trkpt><trkpt lat="45.239643" lon="9.0172079"><ele>75.0</ele><time>2026-04-03T06:55:18.87Z</time></trkpt><trkpt lat="45.2394851" lon="9.0170588"><ele>75.0</ele><time>2026-04-03T06:55:19.87Z</time></trkpt><trkpt lat="45.2393233" lon="9.0169114"><ele>75.0</ele><time>2026-04-03T06:55:20.87Z</time></trkpt><trkpt lat="45.2391638" lon="9.0167643"><ele>75.0</ele><time>2026-04-03T06:55:21.87Z</time></trkpt><trkpt lat="45.2390062" lon="9.0166202"><ele>75.66666666666667</ele><time>2026-04-03T06:55:22.869Z</time></trkpt><trkpt lat="45.2388515" lon="9.0164702"><ele>76.33333333333334</ele><time>2026-04-03T06:55:23.869Z</time></trkpt><trkpt lat="45.2387" lon="9.0163275"><ele>77.0</ele><time>2026-04-03T06:55:24.87Z</time></trkpt><trkpt lat="45.2385517" lon="9.0161877"><ele>77.0</ele><time>2026-04-03T06:55:25.869Z</time></trkpt><trkpt lat="45.238406" lon="9.0160488"><ele>77.0</ele><time>2026-04-03T06:55:26.87Z</time></trkpt><trkpt lat="45.2382615" lon="9.0159163"><ele>77.0</ele><time>2026-04-03T06:55:27.87Z</time></trkpt><trkpt lat="45.2381277" lon="9.0157836"><ele>77.0</ele><time>2026-04-03T06:55:28.869Z</time></trkpt><trkpt lat="45.2379984" lon="9.0156508"><ele>77.0</ele><time>2026-04-03T06:55:29.869Z</time></trkpt><trkpt lat="45.2378773" lon="9.015508"><ele>77.0</ele><time>2026-04-03T06:55:30.87Z</time></trkpt><trkpt lat="45.2377751" lon="9.0153389"><ele>77.0</ele><time>2026-04-03T06:55:31.87Z</time></trkpt><trkpt lat="45.237688" lon="9.0151552"><ele>77.0</ele><time>2026-04-03T06:55:32.87Z</time></trkpt><trkpt lat="45.2376037" lon="9.0149721"><ele>77.0</ele><time>2026-04-03T06:55:33.869Z</time></trkpt><trkpt lat="45.2375167" lon="9.0147923"><ele>76.33333333333334</ele><time>2026-04-03T06:55:34.869Z</time></trkpt><trkpt lat="45.2374304" lon="9.0146089"><ele>75.66666666666667</ele><time>2026-04-03T06:55:35.87Z</time></trkpt><trkpt lat="45.2373485" lon="9.014421"><ele>75.0</ele><time>2026-04-03T06:55:36.869Z</time></trkpt><trkpt lat="45.2372682" lon="9.0142404"><ele>73.0</ele><time>2026-04-03T06:55:37.869Z</time></trkpt><trkpt lat="45.2371887" lon="9.0140533"><ele>71.0</ele><time>2026-04-03T06:55:38.869Z</time></trkpt><trkpt lat="45.2371071" lon="9.0138723"><ele>69.0</ele><time>2026-04-03T06:55:39.87Z</time></trkpt><trkpt lat="45.2370266" lon="9.013696"><ele>69.0</ele><time>2026-04-03T06:55:40.869Z</time></trkpt><trkpt lat="45.236942" lon="9.0135277"><ele>69.0</ele><time>2026-04-03T06:55:41.87Z</time></trkpt><trkpt lat="45.2368482" lon="9.0133766"><ele>69.0</ele><time>2026-04-03T06:55:42.87Z</time></trkpt><trkpt lat="45.2367482" lon="9.0132354"><ele>69.0</ele><time>2026-04-03T06:55:43.869Z</time></trkpt><trkpt lat="45.2366483" lon="9.0131008"><ele>69.0</ele><time>2026-04-03T06:55:44.869Z</time></trkpt><trkpt lat="45.2365516" lon="9.0129611"><ele>69.0</ele><time>2026-04-03T06:55:45.87Z</time></trkpt><trkpt lat="45.2364597" lon="9.0128221"><ele>69.0</ele><time>2026-04-03T06:55:46.87Z</time></trkpt><trkpt lat="45.2363725" lon="9.0126885"><ele>69.0</ele><time>2026-04-03T06:55:47.87Z</time></trkpt><trkpt lat="45.2362925" lon="9.0125499"><ele>68.75</ele><time>2026-04-03T06:55:48.87Z</time></trkpt><trkpt lat="45.2362216" lon="9.0123995"><ele>68.5</ele><time>2026-04-03T06:55:49.869Z</time></trkpt><trkpt lat="45.2361622" lon="9.0122404"><ele>68.25</ele><time>2026-04-03T06:55:50.869Z</time></trkpt><trkpt lat="45.2361181" lon="9.0120686"><ele>68.0</ele><time>2026-04-03T06:55:51.87Z</time></trkpt><trkpt lat="45.2360939" lon="9.0118896"><ele>68.0</ele><time>2026-04-03T06:55:52.869Z</time></trkpt><trkpt lat="45.2360874" lon="9.0117096"><ele>68.0</ele><time>2026-04-03T06:55:53.869Z</time></trkpt><trkpt lat="45.2360833" lon="9.0115281"><ele>68.0</ele><time>2026-04-03T06:55:54.87Z</time></trkpt><trkpt lat="45.2360824" lon="9.0113426"><ele>68.0</ele><time>2026-04-03T06:55:55.87Z</time></trkpt><trkpt lat="45.2360805" lon="9.0111516"><ele>68.0</ele><time>2026-04-03T06:55:56.87Z</time></trkpt><trkpt lat="45.2360764" lon="9.0109628"><ele>68.0</ele><time>2026-04-03T06:55:57.87Z</time></trkpt><trkpt lat="45.23607" lon="9.0107752"><ele>68.0</ele><time>2026-04-03T06:55:58.87Z</time></trkpt><trkpt lat="45.236065" lon="9.0105916"><ele>68.0</ele><time>2026-04-03T06:55:59.87Z</time></trkpt><trkpt lat="45.2360745" lon="9.0104181"><ele>68.0</ele><time>2026-04-03T06:56:00.87Z</time></trkpt><trkpt lat="45.2360997" lon="9.0102446"><ele>68.0</ele><time>2026-04-03T06:56:01.869Z</time></trkpt><trkpt lat="45.2361294" lon="9.0100813"><ele>68.0</ele><time>2026-04-03T06:56:02.869Z</time></trkpt><trkpt lat="45.2361611" lon="9.009931"><ele>68.0</ele><time>2026-04-03T06:56:03.87Z</time></trkpt><trkpt lat="45.2361837" lon="9.009806"><ele>68.0</ele><time>2026-04-03T06:56:04.87Z</time></trkpt><trkpt lat="45.2362013" lon="9.0097106"><ele>67.83333333333334</ele><time>2026-04-03T06:56:05.87Z</time></trkpt><trkpt lat="45.2362173" lon="9.009576"><ele>67.66666666666667</ele><time>2026-04-03T06:56:07.869Z</time></trkpt><trkpt lat="45.2362276" lon="9.0094603"><ele>67.5</ele><time>2026-04-03T06:56:10.87Z</time></trkpt><trkpt lat="45.2361663" lon="9.0094872"><ele>67.33333333333333</ele><time>2026-04-03T06:58:57.875Z</time></trkpt><trkpt lat="45.2361641" lon="9.0095995"><ele>67.16666666666666</ele><time>2026-04-03T06:59:00.875Z</time></trkpt><trkpt lat="45.2361724" lon="9.0097469"><ele>67.0</ele><time>2026-04-03T06:59:02.875Z</time></trkpt><trkpt lat="45.236134" lon="9.0099388"><ele>67.2</ele><time>2026-04-03T06:59:04.875Z</time></trkpt><trkpt lat="45.2361043" lon="9.0100676"><ele>67.4</ele><time>2026-04-03T06:59:05.874Z</time></trkpt><trkpt lat="45.2360764" lon="9.0102065"><ele>67.6</ele><time>2026-04-03T06:59:06.874Z</time></trkpt><trkpt lat="45.2360538" lon="9.0103582"><ele>67.8</ele><time>2026-04-03T06:59:07.875Z</time></trkpt><trkpt lat="45.2360442" lon="9.0105202"><ele>68.0</ele><time>2026-04-03T06:59:08.875Z</time></trkpt><trkpt lat="45.2360434" lon="9.01069"><ele>68.0</ele><time>2026-04-03T06:59:09.875Z</time></trkpt><trkpt lat="45.2360467" lon="9.010872"><ele>68.0</ele><time>2026-04-03T06:59:10.874Z</time></trkpt><trkpt lat="45.2360498" lon="9.0110613"><ele>68.0</ele><time>2026-04-03T06:59:11.874Z</time></trkpt><trkpt lat="45.236055" lon="9.0112535"><ele>68.0</ele><time>2026-04-03T06:59:12.875Z</time></trkpt><trkpt lat="45.2360566" lon="9.0114513"><ele>68.0</ele><time>2026-04-03T06:59:13.875Z</time></trkpt><trkpt lat="45.2360609" lon="9.0116437"><ele>68.0</ele><time>2026-04-03T06:59:14.875Z</time></trkpt><trkpt lat="45.2360673" lon="9.0118298"><ele>68.0</ele><time>2026-04-03T06:59:15.874Z</time></trkpt><trkpt lat="45.2360851" lon="9.0120134"><ele>68.0</ele><time>2026-04-03T06:59:16.874Z</time></trkpt><trkpt lat="45.236124" lon="9.0121956"><ele>68.0</ele><time>2026-04-03T06:59:17.874Z</time></trkpt><trkpt lat="45.2361822" lon="9.0123666"><ele>68.0</ele><time>2026-04-03T06:59:18.874Z</time></trkpt><trkpt lat="45.2362588" lon="9.0125326"><ele>68.0</ele><time>2026-04-03T06:59:19.875Z</time></trkpt><trkpt lat="45.2363482" lon="9.0126875"><ele>68.0</ele><time>2026-04-03T06:59:20.875Z</time></trkpt><trkpt lat="45.2364459" lon="9.0128435"><ele>68.66666666666667</ele><time>2026-04-03T06:59:21.875Z</time></trkpt><trkpt lat="45.2365509" lon="9.0129986"><ele>69.33333333333333</ele><time>2026-04-03T06:59:22.875Z</time></trkpt><trkpt lat="45.2366598" lon="9.0131514"><ele>70.0</ele><time>2026-04-03T06:59:23.875Z</time></trkpt><trkpt lat="45.2367672" lon="9.0132983"><ele>69.66666666666666</ele><time>2026-04-03T06:59:24.875Z</time></trkpt><trkpt lat="45.2368701" lon="9.0134478"><ele>69.33333333333333</ele><time>2026-04-03T06:59:25.875Z</time></trkpt><trkpt lat="45.2369675" lon="9.013619"><ele>69.0</ele><time>2026-04-03T06:59:26.875Z</time></trkpt><trkpt lat="45.2370591" lon="9.0138079"><ele>69.0</ele><time>2026-04-03T06:59:27.874Z</time></trkpt><trkpt lat="45.2371463" lon="9.0140084"><ele>69.0</ele><time>2026-04-03T06:59:28.875Z</time></trkpt><trkpt lat="45.2372367" lon="9.0142123"><ele>69.0</ele><time>2026-04-03T06:59:29.875Z</time></trkpt><trkpt lat="45.2373272" lon="9.0144238"><ele>70.33333333333333</ele><time>2026-04-03T06:59:30.875Z</time></trkpt><trkpt lat="45.2374263" lon="9.0146452"><ele>71.66666666666666</ele><time>2026-04-03T06:59:31.875Z</time></trkpt><trkpt lat="45.2375234" lon="9.014865"><ele>73.0</ele><time>2026-04-03T06:59:32.874Z</time></trkpt><trkpt lat="45.2376197" lon="9.0150765"><ele>74.33333333333333</ele><time>2026-04-03T06:59:33.874Z</time></trkpt><trkpt lat="45.2377185" lon="9.0152827"><ele>75.66666666666667</ele><time>2026-04-03T06:59:34.875Z</time></trkpt><trkpt lat="45.2378298" lon="9.0154769"><ele>77.0</ele><time>2026-04-03T06:59:35.875Z</time></trkpt><trkpt lat="45.2379591" lon="9.0156487"><ele>77.0</ele><time>2026-04-03T06:59:36.875Z</time></trkpt><trkpt lat="45.2381023" lon="9.0158036"><ele>77.0</ele><time>2026-04-03T06:59:37.874Z</time></trkpt><trkpt lat="45.2382583" lon="9.0159527"><ele>77.0</ele><time>2026-04-03T06:59:38.875Z</time></trkpt><trkpt lat="45.2384288" lon="9.0161147"><ele>77.0</ele><time>2026-04-03T06:59:39.875Z</time></trkpt><trkpt lat="45.2386131" lon="9.0162885"><ele>77.0</ele><time>2026-04-03T06:59:40.875Z</time></trkpt><trkpt lat="45.2388114" lon="9.0164662"><ele>76.0</ele><time>2026-04-03T06:59:41.875Z</time></trkpt><trkpt lat="45.2390186" lon="9.0166596"><ele>75.0</ele><time>2026-04-03T06:59:42.875Z</time></trkpt><trkpt lat="45.2392298" lon="9.0168521"><ele>75.0</ele><time>2026-04-03T06:59:43.874Z</time></trkpt><trkpt lat="45.239438" lon="9.0170394"><ele>75.0</ele><time>2026-04-03T06:59:44.875Z</time></trkpt><trkpt lat="45.2396418" lon="9.0172277"><ele>71.5</ele><time>2026-04-03T06:59:45.875Z</time></trkpt><trkpt lat="45.2398371" lon="9.0174127"><ele>68.0</ele><time>2026-04-03T06:59:46.875Z</time></trkpt><trkpt lat="45.2400205" lon="9.0175958"><ele>68.0</ele><time>2026-04-03T06:59:47.875Z</time></trkpt><trkpt lat="45.2401854" lon="9.0177421"><ele>68.0</ele><time>2026-04-03T06:59:48.875Z</time></trkpt><trkpt lat="45.2403512" lon="9.0178642"><ele>68.0</ele><time>2026-04-03T06:59:49.875Z</time></trkpt><trkpt lat="45.2405208" lon="9.0179466"><ele>68.0</ele><time>2026-04-03T06:59:50.875Z</time></trkpt><trkpt lat="45.2406902" lon="9.0180037"><ele>68.0</ele><time>2026-04-03T06:59:51.874Z</time></trkpt><trkpt lat="45.2408534" lon="9.018061"><ele>68.0</ele><time>2026-04-03T06:59:52.875Z</time></trkpt><trkpt lat="45.2410088" lon="9.0181144"><ele>68.0</ele><time>2026-04-03T06:59:53.875Z</time></trkpt><trkpt lat="45.2411602" lon="9.0181741"><ele>68.0</ele><time>2026-04-03T06:59:54.875Z</time></trkpt><trkpt lat="45.2413025" lon="9.0182613"><ele>68.0</ele><time>2026-04-03T06:59:55.875Z</time></trkpt><trkpt lat="45.2414227" lon="9.0183947"><ele>69.33333333333334</ele><time>2026-04-03T06:59:56.874Z</time></trkpt><trkpt lat="45.2415169" lon="9.0185686"><ele>70.66666666666667</ele><time>2026-04-03T06:59:57.875Z</time></trkpt><trkpt lat="45.2416013" lon="9.0187685"><ele>72.0</ele><time>2026-04-03T06:59:58.875Z</time></trkpt><trkpt lat="45.2416749" lon="9.0189821"><ele>72.66666666666667</ele><time>2026-04-03T06:59:59.875Z</time></trkpt><trkpt lat="45.2417346" lon="9.0192081"><ele>73.33333333333334</ele><time>2026-04-03T07:00:00.875Z</time></trkpt><trkpt lat="45.2417676" lon="9.0194427"><ele>74.0</ele><time>2026-04-03T07:00:01.875Z</time></trkpt><trkpt lat="45.2417738" lon="9.0196767"><ele>74.0</ele><time>2026-04-03T07:00:02.875Z</time></trkpt><trkpt lat="45.2417609" lon="9.0198968"><ele>74.0</ele><time>2026-04-03T07:00:03.874Z</time></trkpt><trkpt lat="45.2417488" lon="9.0201022"><ele>74.0</ele><time>2026-04-03T07:00:04.875Z</time></trkpt><trkpt lat="45.2417594" lon="9.020284"><ele>74.0</ele><time>2026-04-03T07:00:05.875Z</time></trkpt><trkpt lat="45.2418013" lon="9.0204424"><ele>73.25</ele><time>2026-04-03T07:00:06.874Z</time></trkpt><trkpt lat="45.2418671" lon="9.0205744"><ele>72.5</ele><time>2026-04-03T07:00:07.875Z</time></trkpt><trkpt lat="45.2419506" lon="9.0206926"><ele>71.75</ele><time>2026-04-03T07:00:08.875Z</time></trkpt><trkpt lat="45.2420418" lon="9.0208191"><ele>71.0</ele><time>2026-04-03T07:00:09.875Z</time></trkpt><trkpt lat="45.242129" lon="9.0209593"><ele>70.75</ele><time>2026-04-03T07:00:10.874Z</time></trkpt><trkpt lat="45.2422147" lon="9.0211171"><ele>70.5</ele><time>2026-04-03T07:00:11.875Z</time></trkpt><trkpt lat="45.2422942" lon="9.0212904"><ele>70.25</ele><time>2026-04-03T07:00:12.875Z</time></trkpt><trkpt lat="45.2423685" lon="9.0214628"><ele>70.0</ele><time>2026-04-03T07:00:13.874Z</time></trkpt><trkpt lat="45.2424433" lon="9.021635"><ele>71.5</ele><time>2026-04-03T07:00:14.875Z</time></trkpt><trkpt lat="45.24252" lon="9.0218032"><ele>73.0</ele><time>2026-04-03T07:00:15.874Z</time></trkpt><trkpt lat="45.2426032" lon="9.0219626"><ele>74.5</ele><time>2026-04-03T07:00:16.875Z</time></trkpt><trkpt lat="45.242689" lon="9.0221178"><ele>76.0</ele><time>2026-04-03T07:00:17.875Z</time></trkpt><trkpt lat="45.2427797" lon="9.0222592"><ele>76.0</ele><time>2026-04-03T07:00:18.874Z</time></trkpt><trkpt lat="45.2428752" lon="9.0223926"><ele>76.0</ele><time>2026-04-03T07:00:19.875Z</time></trkpt><trkpt lat="45.2429748" lon="9.0225101"><ele>76.0</ele><time>2026-04-03T07:00:20.875Z</time></trkpt><trkpt lat="45.2430852" lon="9.0225979"><ele>76.0</ele><time>2026-04-03T07:00:21.875Z</time></trkpt><trkpt lat="45.2432075" lon="9.0226469"><ele>77.25</ele><time>2026-04-03T07:00:22.875Z</time></trkpt><trkpt lat="45.2433409" lon="9.0226674"><ele>78.5</ele><time>2026-04-03T07:00:23.874Z</time></trkpt><trkpt lat="45.2434812" lon="9.0226796"><ele>79.75</ele><time>2026-04-03T07:00:24.875Z</time></trkpt><trkpt lat="45.2436306" lon="9.0226901"><ele>81.0</ele><time>2026-04-03T07:00:25.875Z</time></trkpt><trkpt lat="45.2437905" lon="9.0226965"><ele>81.0</ele><time>2026-04-03T07:00:26.875Z</time></trkpt><trkpt lat="45.243955" lon="9.0227049"><ele>81.0</ele><time>2026-04-03T07:00:27.874Z</time></trkpt><trkpt lat="45.2441245" lon="9.0227148"><ele>81.0</ele><time>2026-04-03T07:00:28.874Z</time></trkpt><trkpt lat="45.2442971" lon="9.0227219"><ele>81.0</ele><time>2026-04-03T07:00:29.875Z</time></trkpt><trkpt lat="45.244478" lon="9.0227337"><ele>81.0</ele><time>2026-04-03T07:00:30.874Z</time></trkpt><trkpt lat="45.2446696" lon="9.0227468"><ele>81.0</ele><time>2026-04-03T07:00:31.874Z</time></trkpt><trkpt lat="45.2448656" lon="9.0227583"><ele>81.66666666666667</ele><time>2026-04-03T07:00:32.875Z</time></trkpt><trkpt lat="45.2450627" lon="9.0227717"><ele>82.33333333333334</ele><time>2026-04-03T07:00:33.875Z</time></trkpt><trkpt lat="45.2452642" lon="9.0227858"><ele>83.0</ele><time>2026-04-03T07:00:34.875Z</time></trkpt><trkpt lat="45.2454663" lon="9.0228019"><ele>82.66666666666667</ele><time>2026-04-03T07:00:35.875Z</time></trkpt><trkpt lat="45.2456666" lon="9.0228156"><ele>82.33333333333333</ele><time>2026-04-03T07:00:36.874Z</time></trkpt><trkpt lat="45.245865" lon="9.0228286"><ele>82.0</ele><time>2026-04-03T07:00:37.875Z</time></trkpt><trkpt lat="45.2460612" lon="9.0228422"><ele>82.0</ele><time>2026-04-03T07:00:38.875Z</time></trkpt><trkpt lat="45.2462523" lon="9.0228555"><ele>82.0</ele><time>2026-04-03T07:00:39.875Z</time></trkpt><trkpt lat="45.2464373" lon="9.0228692"><ele>82.0</ele><time>2026-04-03T07:00:40.875Z</time></trkpt><trkpt lat="45.2466174" lon="9.0228847"><ele>82.66666666666666</ele><time>2026-04-03T07:00:41.875Z</time></trkpt><trkpt lat="45.2467975" lon="9.0228999"><ele>83.33333333333333</ele><time>2026-04-03T07:00:42.875Z</time></trkpt><trkpt lat="45.2469734" lon="9.0229142"><ele>84.0</ele><time>2026-04-03T07:00:43.874Z</time></trkpt><trkpt lat="45.2471394" lon="9.0229238"><ele>86.0</ele><time>2026-04-03T07:00:44.875Z</time></trkpt><trkpt lat="45.2472994" lon="9.0229357"><ele>88.0</ele><time>2026-04-03T07:00:45.875Z</time></trkpt><trkpt lat="45.247456" lon="9.0229451"><ele>90.0</ele><time>2026-04-03T07:00:46.875Z</time></trkpt><trkpt lat="45.2476077" lon="9.0229579"><ele>90.0</ele><time>2026-04-03T07:00:47.874Z</time></trkpt><trkpt lat="45.24776" lon="9.0229716"><ele>90.0</ele><time>2026-04-03T07:00:48.874Z</time></trkpt><trkpt lat="45.2479152" lon="9.0229824"><ele>90.0</ele><time>2026-04-03T07:00:49.874Z</time></trkpt><trkpt lat="45.248074" lon="9.0229952"><ele>90.33333333333333</ele><time>2026-04-03T07:00:50.875Z</time></trkpt><trkpt lat="45.2482351" lon="9.0230077"><ele>90.66666666666666</ele><time>2026-04-03T07:00:51.874Z</time></trkpt><trkpt lat="45.2483984" lon="9.0230202"><ele>91.0</ele><time>2026-04-03T07:00:52.875Z</time></trkpt><trkpt lat="45.2485623" lon="9.0230313"><ele>91.0</ele><time>2026-04-03T07:00:53.875Z</time></trkpt><trkpt lat="45.2487272" lon="9.0230457"><ele>91.0</ele><time>2026-04-03T07:00:54.875Z</time></trkpt><trkpt lat="45.248893" lon="9.0230606"><ele>91.0</ele><time>2026-04-03T07:00:55.875Z</time></trkpt><trkpt lat="45.2490578" lon="9.0230714"><ele>91.0</ele><time>2026-04-03T07:00:56.875Z</time></trkpt><trkpt lat="45.2492247" lon="9.0230831"><ele>91.0</ele><time>2026-04-03T07:00:57.875Z</time></trkpt><trkpt lat="45.2493907" lon="9.0230954"><ele>91.0</ele><time>2026-04-03T07:00:58.875Z</time></trkpt><trkpt lat="45.2495551" lon="9.023106"><ele>91.0</ele><time>2026-04-03T07:00:59.875Z</time></trkpt><trkpt lat="45.249718" lon="9.0231173"><ele>91.0</ele><time>2026-04-03T07:01:00.875Z</time></trkpt><trkpt lat="45.2498803" lon="9.0231281"><ele>91.0</ele><time>2026-04-03T07:01:01.875Z</time></trkpt><trkpt lat="45.2500426" lon="9.0231388"><ele>90.33333333333333</ele><time>2026-04-03T07:01:02.875Z</time></trkpt><trkpt lat="45.2502129" lon="9.0231498"><ele>89.66666666666667</ele><time>2026-04-03T07:01:03.875Z</time></trkpt><trkpt lat="45.2503947" lon="9.023162"><ele>89.0</ele><time>2026-04-03T07:01:04.874Z</time></trkpt><trkpt lat="45.2505816" lon="9.0231724"><ele>88.33333333333334</ele><time>2026-04-03T07:01:05.874Z</time></trkpt><trkpt lat="45.250774" lon="9.0231863"><ele>87.66666666666667</ele><time>2026-04-03T07:01:06.875Z</time></trkpt><trkpt lat="45.2509692" lon="9.0232017"><ele>87.0</ele><time>2026-04-03T07:01:07.875Z</time></trkpt><trkpt lat="45.2511627" lon="9.0232174"><ele>87.0</ele><time>2026-04-03T07:01:08.875Z</time></trkpt><trkpt lat="45.2513553" lon="9.0232337"><ele>87.0</ele><time>2026-04-03T07:01:09.875Z</time></trkpt><trkpt lat="45.2515431" lon="9.0232469"><ele>87.0</ele><time>2026-04-03T07:01:10.875Z</time></trkpt><trkpt lat="45.2517278" lon="9.0232605"><ele>87.33333333333333</ele><time>2026-04-03T07:01:11.875Z</time></trkpt><trkpt lat="45.2519109" lon="9.0232752"><ele>87.66666666666666</ele><time>2026-04-03T07:01:12.874Z</time></trkpt><trkpt lat="45.25209" lon="9.023285"><ele>88.0</ele><time>2026-04-03T07:01:13.875Z</time></trkpt><trkpt lat="45.2522626" lon="9.0232967"><ele>88.0</ele><time>2026-04-03T07:01:14.875Z</time></trkpt><trkpt lat="45.2524313" lon="9.0233122"><ele>88.0</ele><time>2026-04-03T07:01:15.874Z</time></trkpt><trkpt lat="45.2525946" lon="9.023326"><ele>88.0</ele><time>2026-04-03T07:01:16.874Z</time></trkpt><trkpt lat="45.2527551" lon="9.0233389"><ele>88.5</ele><time>2026-04-03T07:01:17.875Z</time></trkpt><trkpt lat="45.2529113" lon="9.0233509"><ele>89.0</ele><time>2026-04-03T07:01:18.875Z</time></trkpt><trkpt lat="45.2530573" lon="9.023365"><ele>89.5</ele><time>2026-04-03T07:01:19.875Z</time></trkpt><trkpt lat="45.2531925" lon="9.023397"><ele>90.0</ele><time>2026-04-03T07:01:20.875Z</time></trkpt><trkpt lat="45.2533126" lon="9.0234551"><ele>90.25</ele><time>2026-04-03T07:01:21.874Z</time></trkpt><trkpt lat="45.2534237" lon="9.0235414"><ele>90.5</ele><time>2026-04-03T07:01:22.875Z</time></trkpt><trkpt lat="45.253528" lon="9.0236351"><ele>90.75</ele><time>2026-04-03T07:01:23.874Z</time></trkpt><trkpt lat="45.2536276" lon="9.0237267"><ele>91.0</ele><time>2026-04-03T07:01:24.874Z</time></trkpt><trkpt lat="45.2537238" lon="9.0238147"><ele>91.0</ele><time>2026-04-03T07:01:25.875Z</time></trkpt><trkpt lat="45.2538148" lon="9.0238984"><ele>91.0</ele><time>2026-04-03T07:01:26.874Z</time></trkpt><trkpt lat="45.253901" lon="9.0239763"><ele>91.0</ele><time>2026-04-03T07:01:27.875Z</time></trkpt><trkpt lat="45.2539795" lon="9.0240521"><ele>91.0</ele><time>2026-04-03T07:01:28.874Z</time></trkpt><trkpt lat="45.2540584" lon="9.0241291"><ele>91.0</ele><time>2026-04-03T07:01:29.875Z</time></trkpt><trkpt lat="45.2541383" lon="9.0242066"><ele>91.0</ele><time>2026-04-03T07:01:30.874Z</time></trkpt><trkpt lat="45.2542183" lon="9.0242826"><ele>91.0</ele><time>2026-04-03T07:01:31.875Z</time></trkpt><trkpt lat="45.2542964" lon="9.0243582"><ele>91.0</ele><time>2026-04-03T07:01:32.874Z</time></trkpt><trkpt lat="45.2543731" lon="9.0244315"><ele>91.0</ele><time>2026-04-03T07:01:33.875Z</time></trkpt><trkpt lat="45.25445" lon="9.0245031"><ele>91.0</ele><time>2026-04-03T07:01:34.874Z</time></trkpt><trkpt lat="45.2545238" lon="9.0245735"><ele>91.0</ele><time>2026-04-03T07:01:35.874Z</time></trkpt><trkpt lat="45.2545955" lon="9.0246429"><ele>91.0</ele><time>2026-04-03T07:01:36.874Z</time></trkpt><trkpt lat="45.2546656" lon="9.0247092"><ele>91.0</ele><time>2026-04-03T07:01:37.875Z</time></trkpt><trkpt lat="45.2547348" lon="9.024776"><ele>91.0</ele><time>2026-04-03T07:01:38.874Z</time></trkpt><trkpt lat="45.2548014" lon="9.0248373"><ele>91.0</ele><time>2026-04-03T07:01:39.875Z</time></trkpt><trkpt lat="45.2548665" lon="9.0248978"><ele>91.0</ele><time>2026-04-03T07:01:40.875Z</time></trkpt><trkpt lat="45.2549318" lon="9.024956"><ele>91.42857142857143</ele><time>2026-04-03T07:01:41.875Z</time></trkpt><trkpt lat="45.2549953" lon="9.0250126"><ele>91.85714285714286</ele><time>2026-04-03T07:01:42.874Z</time></trkpt><trkpt lat="45.2550579" lon="9.0250668"><ele>92.28571428571428</ele><time>2026-04-03T07:01:43.874Z</time></trkpt><trkpt lat="45.255119" lon="9.0251215"><ele>92.71428571428572</ele><time>2026-04-03T07:01:44.875Z</time></trkpt><trkpt lat="45.2551794" lon="9.0251741"><ele>93.14285714285714</ele><time>2026-04-03T07:01:45.875Z</time></trkpt><trkpt lat="45.2552394" lon="9.0252264"><ele>93.57142857142857</ele><time>2026-04-03T07:01:46.874Z</time></trkpt><trkpt lat="45.2553008" lon="9.0252765"><ele>94.0</ele><time>2026-04-03T07:01:47.875Z</time></trkpt><trkpt lat="45.2553578" lon="9.0253268"><ele>94.0</ele><time>2026-04-03T07:01:48.875Z</time></trkpt><trkpt lat="45.2554175" lon="9.0253785"><ele>94.0</ele><time>2026-04-03T07:01:49.875Z</time></trkpt><trkpt lat="45.2554831" lon="9.0254229"><ele>94.0</ele><time>2026-04-03T07:01:50.875Z</time></trkpt><trkpt lat="45.2555527" lon="9.0254644"><ele>94.0</ele><time>2026-04-03T07:01:51.875Z</time></trkpt><trkpt lat="45.2556277" lon="9.0255009"><ele>94.0</ele><time>2026-04-03T07:01:52.874Z</time></trkpt><trkpt lat="45.2557086" lon="9.0255345"><ele>94.0</ele><time>2026-04-03T07:01:53.875Z</time></trkpt><trkpt lat="45.2557905" lon="9.0255708"><ele>93.83333333333333</ele><time>2026-04-03T07:01:54.875Z</time></trkpt><trkpt lat="45.255872" lon="9.0256087"><ele>93.66666666666666</ele><time>2026-04-03T07:01:55.875Z</time></trkpt><trkpt lat="45.2559483" lon="9.0256567"><ele>93.5</ele><time>2026-04-03T07:01:56.874Z</time></trkpt><trkpt lat="45.2560203" lon="9.0257163"><ele>93.33333333333333</ele><time>2026-04-03T07:01:57.875Z</time></trkpt><trkpt lat="45.2560885" lon="9.0257833"><ele>93.16666666666667</ele><time>2026-04-03T07:01:58.875Z</time></trkpt><trkpt lat="45.2561529" lon="9.0258517"><ele>93.0</ele><time>2026-04-03T07:01:59.875Z</time></trkpt><trkpt lat="45.2562152" lon="9.0259211"><ele>92.83333333333333</ele><time>2026-04-03T07:02:00.875Z</time></trkpt><trkpt lat="45.2562777" lon="9.0259938"><ele>92.66666666666667</ele><time>2026-04-03T07:02:01.875Z</time></trkpt><trkpt lat="45.2563425" lon="9.0260702"><ele>92.5</ele><time>2026-04-03T07:02:02.875Z</time></trkpt><trkpt lat="45.2564028" lon="9.0261464"><ele>92.33333333333334</ele><time>2026-04-03T07:02:03.875Z</time></trkpt><trkpt lat="45.2564633" lon="9.0262197"><ele>92.16666666666667</ele><time>2026-04-03T07:02:04.875Z</time></trkpt><trkpt lat="45.2565257" lon="9.0262945"><ele>92.0</ele><time>2026-04-03T07:02:05.875Z</time></trkpt><trkpt lat="45.2565862" lon="9.0263742"><ele>92.0</ele><time>2026-04-03T07:02:06.874Z</time></trkpt><trkpt lat="45.2566466" lon="9.0264521"><ele>92.0</ele><time>2026-04-03T07:02:07.875Z</time></trkpt><trkpt lat="45.2567117" lon="9.0265252"><ele>92.0</ele><time>2026-04-03T07:02:08.875Z</time></trkpt><trkpt lat="45.2567799" lon="9.0265968"><ele>92.0</ele><time>2026-04-03T07:02:09.875Z</time></trkpt><trkpt lat="45.2568652" lon="9.0266766"><ele>92.0</ele><time>2026-04-03T07:02:10.875Z</time></trkpt><trkpt lat="45.2569587" lon="9.0267604"><ele>92.19999999999999</ele><time>2026-04-03T07:02:11.874Z</time></trkpt><trkpt lat="45.2570521" lon="9.0268465"><ele>92.4</ele><time>2026-04-03T07:02:12.875Z</time></trkpt><trkpt lat="45.257148" lon="9.0269306"><ele>92.6</ele><time>2026-04-03T07:02:13.874Z</time></trkpt><trkpt lat="45.2572399" lon="9.0270214"><ele>92.80000000000001</ele><time>2026-04-03T07:02:14.874Z</time></trkpt><trkpt lat="45.2573294" lon="9.0271106"><ele>93.0</ele><time>2026-04-03T07:02:15.875Z</time></trkpt><trkpt lat="45.2574201" lon="9.0272016"><ele>93.4</ele><time>2026-04-03T07:02:16.874Z</time></trkpt><trkpt lat="45.2575075" lon="9.0272864"><ele>93.80000000000001</ele><time>2026-04-03T07:02:17.874Z</time></trkpt><trkpt lat="45.2575902" lon="9.027367"><ele>94.2</ele><time>2026-04-03T07:02:18.875Z</time></trkpt><trkpt lat="45.2576762" lon="9.0274412"><ele>94.6</ele><time>2026-04-03T07:02:19.875Z</time></trkpt><trkpt lat="45.2577548" lon="9.0275207"><ele>95.0</ele><time>2026-04-03T07:02:20.875Z</time></trkpt><trkpt lat="45.2578314" lon="9.0276078"><ele>95.0</ele><time>2026-04-03T07:02:21.875Z</time></trkpt><trkpt lat="45.2579053" lon="9.0276925"><ele>95.0</ele><time>2026-04-03T07:02:22.875Z</time></trkpt><trkpt lat="45.2579721" lon="9.0277709"><ele>95.0</ele><time>2026-04-03T07:02:23.875Z</time></trkpt><trkpt lat="45.2580354" lon="9.0278412"><ele>95.0</ele><time>2026-04-03T07:02:24.875Z</time></trkpt><trkpt lat="45.2580881" lon="9.0279049"><ele>95.0</ele><time>2026-04-03T07:02:25.875Z</time></trkpt><trkpt lat="45.2581724" lon="9.028036"><ele>95.0</ele><time>2026-04-03T07:02:27.875Z</time></trkpt><trkpt lat="45.2582024" lon="9.0281172"><ele>95.0</ele><time>2026-04-03T07:02:28.875Z</time></trkpt><trkpt lat="45.2582165" lon="9.0282199"><ele>95.0</ele><time>2026-04-03T07:02:29.875Z</time></trkpt><trkpt lat="45.2582127" lon="9.028343"><ele>95.0</ele><time>2026-04-03T07:02:30.875Z</time></trkpt><trkpt lat="45.2581952" lon="9.0284716"><ele>95.0</ele><time>2026-04-03T07:02:31.874Z</time></trkpt><trkpt lat="45.258152" lon="9.0286137"><ele>95.0</ele><time>2026-04-03T07:02:32.875Z</time></trkpt><trkpt lat="45.2580867" lon="9.0287756"><ele>94.75</ele><time>2026-04-03T07:02:33.875Z</time></trkpt><trkpt lat="45.2580142" lon="9.0289436"><ele>94.5</ele><time>2026-04-03T07:02:34.875Z</time></trkpt><trkpt lat="45.257939" lon="9.0291084"><ele>94.25</ele><time>2026-04-03T07:02:35.875Z</time></trkpt><trkpt lat="45.2578626" lon="9.0292733"><ele>94.0</ele><time>2026-04-03T07:02:36.875Z</time></trkpt><trkpt lat="45.2577899" lon="9.0294394"><ele>93.75</ele><time>2026-04-03T07:02:37.874Z</time></trkpt><trkpt lat="45.2577159" lon="9.0296002"><ele>93.5</ele><time>2026-04-03T07:02:38.874Z</time></trkpt><trkpt lat="45.2576436" lon="9.029757"><ele>93.25</ele><time>2026-04-03T07:02:39.874Z</time></trkpt><trkpt lat="45.2575741" lon="9.0299125"><ele>93.0</ele><time>2026-04-03T07:02:40.875Z</time></trkpt><trkpt lat="45.2575082" lon="9.0300635"><ele>93.0</ele><time>2026-04-03T07:02:41.874Z</time></trkpt><trkpt lat="45.2574422" lon="9.0302075"><ele>93.0</ele><time>2026-04-03T07:02:42.874Z</time></trkpt><trkpt lat="45.2573778" lon="9.030348"><ele>93.0</ele><time>2026-04-03T07:02:43.875Z</time></trkpt><trkpt lat="45.2573169" lon="9.030484"><ele>93.0</ele><time>2026-04-03T07:02:44.874Z</time></trkpt><trkpt lat="45.257256" lon="9.0306161"><ele>93.0</ele><time>2026-04-03T07:02:45.875Z</time></trkpt><trkpt lat="45.2572" lon="9.0307469"><ele>93.0</ele><time>2026-04-03T07:02:46.874Z</time></trkpt><trkpt lat="45.2571458" lon="9.0308717"><ele>93.0</ele><time>2026-04-03T07:02:47.874Z</time></trkpt><trkpt lat="45.2570871" lon="9.0309907"><ele>93.0</ele><time>2026-04-03T07:02:48.874Z</time></trkpt><trkpt lat="45.2570285" lon="9.0311048"><ele>93.0</ele><time>2026-04-03T07:02:49.875Z</time></trkpt><trkpt lat="45.2569815" lon="9.0312229"><ele>93.0</ele><time>2026-04-03T07:02:50.874Z</time></trkpt><trkpt lat="45.2569303" lon="9.0313428"><ele>93.0</ele><time>2026-04-03T07:02:51.874Z</time></trkpt><trkpt lat="45.2568755" lon="9.0314625"><ele>93.0</ele><time>2026-04-03T07:02:52.875Z</time></trkpt><trkpt lat="45.2568229" lon="9.0315823"><ele>93.0</ele><time>2026-04-03T07:02:53.875Z</time></trkpt><trkpt lat="45.2567682" lon="9.0317038"><ele>93.0</ele><time>2026-04-03T07:02:54.874Z</time></trkpt><trkpt lat="45.2567117" lon="9.0318232"><ele>93.2</ele><time>2026-04-03T07:02:55.875Z</time></trkpt><trkpt lat="45.2566558" lon="9.0319443"><ele>93.4</ele><time>2026-04-03T07:02:56.875Z</time></trkpt><trkpt lat="45.256597" lon="9.0320697"><ele>93.60000000000001</ele><time>2026-04-03T07:02:57.875Z</time></trkpt><trkpt lat="45.2565375" lon="9.0321965"><ele>93.80000000000001</ele><time>2026-04-03T07:02:58.875Z</time></trkpt><trkpt lat="45.2564795" lon="9.032321"><ele>94.0</ele><time>2026-04-03T07:02:59.875Z</time></trkpt><trkpt lat="45.2564236" lon="9.0324453"><ele>93.83333333333333</ele><time>2026-04-03T07:03:00.875Z</time></trkpt><trkpt lat="45.2563726" lon="9.0325648"><ele>93.66666666666666</ele><time>2026-04-03T07:03:01.875Z</time></trkpt><trkpt lat="45.2563216" lon="9.0326739"><ele>93.5</ele><time>2026-04-03T07:03:02.874Z</time></trkpt><trkpt lat="45.2562754" lon="9.0327793"><ele>93.33333333333333</ele><time>2026-04-03T07:03:03.875Z</time></trkpt><trkpt lat="45.2562272" lon="9.0328776"><ele>93.16666666666667</ele><time>2026-04-03T07:03:04.875Z</time></trkpt><trkpt lat="45.2561687" lon="9.0329588"><ele>93.0</ele><time>2026-04-03T07:03:05.875Z</time></trkpt><trkpt lat="45.2560918" lon="9.0330187"><ele>93.0</ele><time>2026-04-03T07:03:06.875Z</time></trkpt><trkpt lat="45.2560062" lon="9.0330527"><ele>93.0</ele><time>2026-04-03T07:03:07.875Z</time></trkpt><trkpt lat="45.2559194" lon="9.0330872"><ele>93.0</ele><time>2026-04-03T07:03:08.874Z</time></trkpt><trkpt lat="45.2558384" lon="9.033142"><ele>93.0</ele><time>2026-04-03T07:03:09.874Z</time></trkpt><trkpt lat="45.2557688" lon="9.0332287"><ele>93.0</ele><time>2026-04-03T07:03:10.875Z</time></trkpt><trkpt lat="45.2557165" lon="9.0333391"><ele>92.80000000000001</ele><time>2026-04-03T07:03:11.875Z</time></trkpt><trkpt lat="45.2556853" lon="9.0334625"><ele>92.6</ele><time>2026-04-03T07:03:12.875Z</time></trkpt><trkpt lat="45.2556765" lon="9.0335942"><ele>92.4</ele><time>2026-04-03T07:03:13.874Z</time></trkpt><trkpt lat="45.2556801" lon="9.0337304"><ele>92.19999999999999</ele><time>2026-04-03T07:03:14.875Z</time></trkpt><trkpt lat="45.2556839" lon="9.0338694"><ele>92.0</ele><time>2026-04-03T07:03:15.874Z</time></trkpt><trkpt lat="45.25567" lon="9.0340112"><ele>92.0</ele><time>2026-04-03T07:03:16.874Z</time></trkpt><trkpt lat="45.2556453" lon="9.0341539"><ele>92.0</ele><time>2026-04-03T07:03:17.875Z</time></trkpt><trkpt lat="45.2556051" lon="9.0342923"><ele>92.0</ele><time>2026-04-03T07:03:18.874Z</time></trkpt><trkpt lat="45.2555597" lon="9.0344299"><ele>92.0</ele><time>2026-04-03T07:03:19.875Z</time></trkpt><trkpt lat="45.2555107" lon="9.0345675"><ele>92.0</ele><time>2026-04-03T07:03:20.875Z</time></trkpt><trkpt lat="45.2554571" lon="9.0347048"><ele>91.75</ele><time>2026-04-03T07:03:21.875Z</time></trkpt><trkpt lat="45.2554022" lon="9.0348425"><ele>91.5</ele><time>2026-04-03T07:03:22.874Z</time></trkpt><trkpt lat="45.2553458" lon="9.0349858"><ele>91.25</ele><time>2026-04-03T07:03:23.875Z</time></trkpt><trkpt lat="45.2552867" lon="9.035133"><ele>91.0</ele><time>2026-04-03T07:03:24.874Z</time></trkpt><trkpt lat="45.2552238" lon="9.0352829"><ele>91.0</ele><time>2026-04-03T07:03:25.874Z</time></trkpt><trkpt lat="45.2551587" lon="9.0354342"><ele>91.0</ele><time>2026-04-03T07:03:26.874Z</time></trkpt><trkpt lat="45.2550944" lon="9.0355858"><ele>91.0</ele><time>2026-04-03T07:03:27.875Z</time></trkpt><trkpt lat="45.2550319" lon="9.0357364"><ele>91.0</ele><time>2026-04-03T07:03:28.875Z</time></trkpt><trkpt lat="45.2549677" lon="9.0358862"><ele>91.0</ele><time>2026-04-03T07:03:29.874Z</time></trkpt><trkpt lat="45.2549039" lon="9.0360345"><ele>91.0</ele><time>2026-04-03T07:03:30.875Z</time></trkpt><trkpt lat="45.2548409" lon="9.036178"><ele>91.0</ele><time>2026-04-03T07:03:31.875Z</time></trkpt><trkpt lat="45.2547785" lon="9.0363174"><ele>91.0</ele><time>2026-04-03T07:03:32.874Z</time></trkpt><trkpt lat="45.2547187" lon="9.0364518"><ele>91.0</ele><time>2026-04-03T07:03:33.875Z</time></trkpt><trkpt lat="45.2546577" lon="9.0365792"><ele>91.0</ele><time>2026-04-03T07:03:34.875Z</time></trkpt><trkpt lat="45.2545947" lon="9.0367082"><ele>91.0</ele><time>2026-04-03T07:03:35.875Z</time></trkpt><trkpt lat="45.2545319" lon="9.0368435"><ele>91.0</ele><time>2026-04-03T07:03:36.874Z</time></trkpt><trkpt lat="45.2544673" lon="9.0369878"><ele>91.5</ele><time>2026-04-03T07:03:37.875Z</time></trkpt><trkpt lat="45.2544028" lon="9.0371354"><ele>92.0</ele><time>2026-04-03T07:03:38.875Z</time></trkpt><trkpt lat="45.2543362" lon="9.0372883"><ele>92.5</ele><time>2026-04-03T07:03:39.875Z</time></trkpt><trkpt lat="45.2542665" lon="9.0374405"><ele>93.0</ele><time>2026-04-03T07:03:40.875Z</time></trkpt><trkpt lat="45.2541993" lon="9.0375937"><ele>93.5</ele><time>2026-04-03T07:03:41.875Z</time></trkpt><trkpt lat="45.2541313" lon="9.0377487"><ele>94.0</ele><time>2026-04-03T07:03:42.874Z</time></trkpt><trkpt lat="45.2540618" lon="9.0379073"><ele>94.5</ele><time>2026-04-03T07:03:43.874Z</time></trkpt><trkpt lat="45.2539928" lon="9.038071"><ele>95.0</ele><time>2026-04-03T07:03:44.874Z</time></trkpt><trkpt lat="45.2539214" lon="9.0382351"><ele>95.0</ele><time>2026-04-03T07:03:45.875Z</time></trkpt><trkpt lat="45.2538499" lon="9.038402"><ele>95.0</ele><time>2026-04-03T07:03:46.875Z</time></trkpt><trkpt lat="45.2537785" lon="9.0385645"><ele>95.0</ele><time>2026-04-03T07:03:47.875Z</time></trkpt><trkpt lat="45.2537082" lon="9.0387252"><ele>95.0</ele><time>2026-04-03T07:03:48.874Z</time></trkpt><trkpt lat="45.2536375" lon="9.038887"><ele>95.0</ele><time>2026-04-03T07:03:49.875Z</time></trkpt><trkpt lat="45.2535667" lon="9.0390569"><ele>95.0</ele><time>2026-04-03T07:03:50.875Z</time></trkpt><trkpt lat="45.2534908" lon="9.0392258"><ele>95.0</ele><time>2026-04-03T07:03:51.875Z</time></trkpt><trkpt lat="45.2534097" lon="9.0393936"><ele>95.0</ele><time>2026-04-03T07:03:52.874Z</time></trkpt><trkpt lat="45.2533288" lon="9.0395579"><ele>95.0</ele><time>2026-04-03T07:03:53.874Z</time></trkpt><trkpt lat="45.2532506" lon="9.0397264"><ele>95.0</ele><time>2026-04-03T07:03:54.875Z</time></trkpt><trkpt lat="45.2531728" lon="9.0398939"><ele>95.0</ele><time>2026-04-03T07:03:55.875Z</time></trkpt><trkpt lat="45.2530962" lon="9.0400654"><ele>95.0</ele><time>2026-04-03T07:03:56.875Z</time></trkpt><trkpt lat="45.253019" lon="9.0402391"><ele>94.0</ele><time>2026-04-03T07:03:57.875Z</time></trkpt><trkpt lat="45.2529421" lon="9.0404103"><ele>93.0</ele><time>2026-04-03T07:03:58.875Z</time></trkpt><trkpt lat="45.2528649" lon="9.0405823"><ele>92.0</ele><time>2026-04-03T07:03:59.874Z</time></trkpt><trkpt lat="45.2527886" lon="9.0407529"><ele>91.0</ele><time>2026-04-03T07:04:00.874Z</time></trkpt><trkpt lat="45.2527162" lon="9.0409196"><ele>90.75</ele><time>2026-04-03T07:04:01.875Z</time></trkpt><trkpt lat="45.2526472" lon="9.0410825"><ele>90.5</ele><time>2026-04-03T07:04:02.875Z</time></trkpt><trkpt lat="45.2525786" lon="9.041233"><ele>90.25</ele><time>2026-04-03T07:04:03.875Z</time></trkpt><trkpt lat="45.2525068" lon="9.0413859"><ele>90.0</ele><time>2026-04-03T07:04:04.875Z</time></trkpt><trkpt lat="45.2524341" lon="9.0415481"><ele>89.75</ele><time>2026-04-03T07:04:05.875Z</time></trkpt><trkpt lat="45.2523584" lon="9.0417184"><ele>89.5</ele><time>2026-04-03T07:04:06.875Z</time></trkpt><trkpt lat="45.2522803" lon="9.0418973"><ele>89.25</ele><time>2026-04-03T07:04:07.875Z</time></trkpt><trkpt lat="45.2521973" lon="9.0420832"><ele>89.0</ele><time>2026-04-03T07:04:08.874Z</time></trkpt><trkpt lat="45.2521174" lon="9.0422753"><ele>89.0</ele><time>2026-04-03T07:04:09.875Z</time></trkpt><trkpt lat="45.2520362" lon="9.0424774"><ele>89.0</ele><time>2026-04-03T07:04:10.875Z</time></trkpt><trkpt lat="45.2519434" lon="9.0426916"><ele>89.0</ele><time>2026-04-03T07:04:11.875Z</time></trkpt><trkpt lat="45.2518468" lon="9.0429213"><ele>89.0</ele><time>2026-04-03T07:04:12.875Z</time></trkpt><trkpt lat="45.2517515" lon="9.0431583"><ele>89.0</ele><time>2026-04-03T07:04:13.875Z</time></trkpt><trkpt lat="45.2516553" lon="9.0433974"><ele>89.0</ele><time>2026-04-03T07:04:14.875Z</time></trkpt><trkpt lat="45.2515589" lon="9.0436419"><ele>89.0</ele><time>2026-04-03T07:04:15.875Z</time></trkpt><trkpt lat="45.2514606" lon="9.0438809"><ele>89.0</ele><time>2026-04-03T07:04:16.874Z</time></trkpt><trkpt lat="45.2513603" lon="9.0441213"><ele>89.0</ele><time>2026-04-03T07:04:17.875Z</time></trkpt><trkpt lat="45.2512611" lon="9.0443564"><ele>89.33333333333334</ele><time>2026-04-03T07:04:18.874Z</time></trkpt><trkpt lat="45.2511612" lon="9.0445893"><ele>89.66666666666667</ele><time>2026-04-03T07:04:19.874Z</time></trkpt><trkpt lat="45.251061" lon="9.0448176"><ele>90.0</ele><time>2026-04-03T07:04:20.875Z</time></trkpt><trkpt lat="45.2509623" lon="9.0450362"><ele>90.66666666666667</ele><time>2026-04-03T07:04:21.874Z</time></trkpt><trkpt lat="45.2508618" lon="9.0452536"><ele>91.33333333333334</ele><time>2026-04-03T07:04:22.875Z</time></trkpt><trkpt lat="45.2507642" lon="9.0454688"><ele>92.0</ele><time>2026-04-03T07:04:23.875Z</time></trkpt><trkpt lat="45.2506689" lon="9.0456795"><ele>92.0</ele><time>2026-04-03T07:04:24.875Z</time></trkpt><trkpt lat="45.2505754" lon="9.0458917"><ele>92.0</ele><time>2026-04-03T07:04:25.875Z</time></trkpt><trkpt lat="45.2504817" lon="9.0461065"><ele>92.0</ele><time>2026-04-03T07:04:26.874Z</time></trkpt><trkpt lat="45.2503827" lon="9.0463223"><ele>92.0</ele><time>2026-04-03T07:04:27.875Z</time></trkpt><trkpt lat="45.2502824" lon="9.0465397"><ele>92.0</ele><time>2026-04-03T07:04:28.875Z</time></trkpt><trkpt lat="45.2501797" lon="9.0467574"><ele>92.0</ele><time>2026-04-03T07:04:29.874Z</time></trkpt><trkpt lat="45.2500783" lon="9.0469701"><ele>91.66666666666667</ele><time>2026-04-03T07:04:30.875Z</time></trkpt><trkpt lat="45.2499709" lon="9.0471871"><ele>91.33333333333333</ele><time>2026-04-03T07:04:31.875Z</time></trkpt><trkpt lat="45.2498633" lon="9.0474022"><ele>91.0</ele><time>2026-04-03T07:04:32.874Z</time></trkpt><trkpt lat="45.2497558" lon="9.047619"><ele>90.66666666666666</ele><time>2026-04-03T07:04:33.874Z</time></trkpt><trkpt lat="45.2496479" lon="9.0478358"><ele>90.33333333333333</ele><time>2026-04-03T07:04:34.875Z</time></trkpt><trkpt lat="45.2495423" lon="9.0480542"><ele>90.0</ele><time>2026-04-03T07:04:35.875Z</time></trkpt><trkpt lat="45.2494374" lon="9.0482734"><ele>89.66666666666667</ele><time>2026-04-03T07:04:36.875Z</time></trkpt><trkpt lat="45.249336" lon="9.0484913"><ele>89.33333333333334</ele><time>2026-04-03T07:04:37.875Z</time></trkpt><trkpt lat="45.2492374" lon="9.048708"><ele>89.0</ele><time>2026-04-03T07:04:38.875Z</time></trkpt><trkpt lat="45.2491396" lon="9.0489255"><ele>89.0</ele><time>2026-04-03T07:04:39.875Z</time></trkpt><trkpt lat="45.2490425" lon="9.0491406"><ele>89.0</ele><time>2026-04-03T07:04:40.874Z</time></trkpt><trkpt lat="45.2489471" lon="9.0493526"><ele>89.0</ele><time>2026-04-03T07:04:41.875Z</time></trkpt><trkpt lat="45.2488545" lon="9.0495689"><ele>89.0</ele><time>2026-04-03T07:04:42.875Z</time></trkpt><trkpt lat="45.2487627" lon="9.0497853"><ele>89.0</ele><time>2026-04-03T07:04:43.875Z</time></trkpt><trkpt lat="45.248672" lon="9.0500002"><ele>89.0</ele><time>2026-04-03T07:04:44.875Z</time></trkpt><trkpt lat="45.2485807" lon="9.0502126"><ele>89.0</ele><time>2026-04-03T07:04:45.875Z</time></trkpt><trkpt lat="45.2484913" lon="9.0504221"><ele>89.0</ele><time>2026-04-03T07:04:46.875Z</time></trkpt><trkpt lat="45.248399" lon="9.050628"><ele>89.0</ele><time>2026-04-03T07:04:47.875Z</time></trkpt><trkpt lat="45.2483051" lon="9.0508341"><ele>88.66666666666667</ele><time>2026-04-03T07:04:48.875Z</time></trkpt><trkpt lat="45.2482146" lon="9.0510427"><ele>88.33333333333333</ele><time>2026-04-03T07:04:49.874Z</time></trkpt><trkpt lat="45.2481242" lon="9.0512527"><ele>88.0</ele><time>2026-04-03T07:04:50.875Z</time></trkpt><trkpt lat="45.2480335" lon="9.0514585"><ele>88.33333333333333</ele><time>2026-04-03T07:04:51.875Z</time></trkpt><trkpt lat="45.2479424" lon="9.0516678"><ele>88.66666666666667</ele><time>2026-04-03T07:04:52.875Z</time></trkpt><trkpt lat="45.2478504" lon="9.051871"><ele>89.0</ele><time>2026-04-03T07:04:53.875Z</time></trkpt><trkpt lat="45.2477607" lon="9.0520731"><ele>89.0</ele><time>2026-04-03T07:04:54.875Z</time></trkpt><trkpt lat="45.2476735" lon="9.0522735"><ele>89.0</ele><time>2026-04-03T07:04:55.874Z</time></trkpt><trkpt lat="45.247586" lon="9.0524692"><ele>89.0</ele><time>2026-04-03T07:04:56.875Z</time></trkpt><trkpt lat="45.2475001" lon="9.0526659"><ele>88.66666666666667</ele><time>2026-04-03T07:04:57.874Z</time></trkpt><trkpt lat="45.2474134" lon="9.0528643"><ele>88.33333333333333</ele><time>2026-04-03T07:04:58.875Z</time></trkpt><trkpt lat="45.2473254" lon="9.0530653"><ele>88.0</ele><time>2026-04-03T07:04:59.874Z</time></trkpt><trkpt lat="45.2472371" lon="9.0532678"><ele>88.66666666666666</ele><time>2026-04-03T07:05:00.875Z</time></trkpt><trkpt lat="45.2471489" lon="9.0534688"><ele>89.33333333333333</ele><time>2026-04-03T07:05:01.874Z</time></trkpt><trkpt lat="45.2470582" lon="9.0536682"><ele>90.0</ele><time>2026-04-03T07:05:02.874Z</time></trkpt><trkpt lat="45.2469716" lon="9.0538638"><ele>90.0</ele><time>2026-04-03T07:05:03.874Z</time></trkpt><trkpt lat="45.2468872" lon="9.0540542"><ele>90.0</ele><time>2026-04-03T07:05:04.875Z</time></trkpt><trkpt lat="45.2468034" lon="9.0542312"><ele>90.0</ele><time>2026-04-03T07:05:05.875Z</time></trkpt><trkpt lat="45.2467241" lon="9.0544063"><ele>89.75</ele><time>2026-04-03T07:05:06.874Z</time></trkpt><trkpt lat="45.2466468" lon="9.0545679"><ele>89.5</ele><time>2026-04-03T07:05:07.874Z</time></trkpt><trkpt lat="45.246572" lon="9.0547187"><ele>89.25</ele><time>2026-04-03T07:05:08.874Z</time></trkpt><trkpt lat="45.2464972" lon="9.0548568"><ele>89.0</ele><time>2026-04-03T07:05:09.874Z</time></trkpt><trkpt lat="45.2464269" lon="9.0549907"><ele>88.80000000000001</ele><time>2026-04-03T07:05:10.875Z</time></trkpt><trkpt lat="45.2463619" lon="9.0551191"><ele>88.60000000000001</ele><time>2026-04-03T07:05:11.875Z</time></trkpt><trkpt lat="45.2463037" lon="9.0552416"><ele>88.4</ele><time>2026-04-03T07:05:12.875Z</time></trkpt><trkpt lat="45.2462307" lon="9.055359"><ele>88.2</ele><time>2026-04-03T07:05:13.875Z</time></trkpt><trkpt lat="45.2461393" lon="9.0554503"><ele>88.0</ele><time>2026-04-03T07:05:14.875Z</time></trkpt><trkpt lat="45.2460358" lon="9.0555049"><ele>88.0</ele><time>2026-04-03T07:05:15.874Z</time></trkpt><trkpt lat="45.2459429" lon="9.0555117"><ele>88.0</ele><time>2026-04-03T07:05:16.875Z</time></trkpt><trkpt lat="45.2458617" lon="9.0554862"><ele>88.0</ele><time>2026-04-03T07:05:17.875Z</time></trkpt><trkpt lat="45.245789" lon="9.0554426"><ele>88.0</ele><time>2026-04-03T07:05:18.874Z</time></trkpt><trkpt lat="45.2457231" lon="9.0553983"><ele>88.0</ele><time>2026-04-03T07:05:19.875Z</time></trkpt><trkpt lat="45.2456561" lon="9.0553636"><ele>88.0</ele><time>2026-04-03T07:05:20.875Z</time></trkpt><trkpt lat="45.2455902" lon="9.0553582"><ele>88.14285714285714</ele><time>2026-04-03T07:05:21.874Z</time></trkpt><trkpt lat="45.2455247" lon="9.0553869"><ele>88.28571428571428</ele><time>2026-04-03T07:05:22.875Z</time></trkpt><trkpt lat="45.2454593" lon="9.0554219"><ele>88.42857142857142</ele><time>2026-04-03T07:05:23.874Z</time></trkpt><trkpt lat="45.2453859" lon="9.0554435"><ele>88.57142857142857</ele><time>2026-04-03T07:05:24.875Z</time></trkpt><trkpt lat="45.245318" lon="9.0554357"><ele>88.71428571428571</ele><time>2026-04-03T07:05:25.875Z</time></trkpt><trkpt lat="45.245256" lon="9.0553977"><ele>88.85714285714285</ele><time>2026-04-03T07:05:26.875Z</time></trkpt><trkpt lat="45.2451947" lon="9.0553278"><ele>89.0</ele><time>2026-04-03T07:05:27.875Z</time></trkpt><trkpt lat="45.2451388" lon="9.0552302"><ele>89.0</ele><time>2026-04-03T07:05:28.875Z</time></trkpt><trkpt lat="45.2450792" lon="9.0551209"><ele>89.0</ele><time>2026-04-03T07:05:29.875Z</time></trkpt><trkpt lat="45.2450073" lon="9.0550062"><ele>89.0</ele><time>2026-04-03T07:05:30.875Z</time></trkpt><trkpt lat="45.2449324" lon="9.0548895"><ele>89.0</ele><time>2026-04-03T07:05:31.874Z</time></trkpt><trkpt lat="45.2448539" lon="9.0547697"><ele>89.0</ele><time>2026-04-03T07:05:32.875Z</time></trkpt><trkpt lat="45.2447705" lon="9.0546393"><ele>89.0</ele><time>2026-04-03T07:05:33.875Z</time></trkpt><trkpt lat="45.2446829" lon="9.0545012"><ele>89.0</ele><time>2026-04-03T07:05:34.874Z</time></trkpt><trkpt lat="45.2445949" lon="9.0543583"><ele>89.0</ele><time>2026-04-03T07:05:35.874Z</time></trkpt><trkpt lat="45.2445087" lon="9.054217"><ele>89.0</ele><time>2026-04-03T07:05:36.875Z</time></trkpt><trkpt lat="45.244427" lon="9.0540791"><ele>89.25</ele><time>2026-04-03T07:05:37.874Z</time></trkpt><trkpt lat="45.2443482" lon="9.0539487"><ele>89.5</ele><time>2026-04-03T07:05:38.875Z</time></trkpt><trkpt lat="45.2442718" lon="9.0538289"><ele>89.75</ele><time>2026-04-03T07:05:39.875Z</time></trkpt><trkpt lat="45.2441947" lon="9.0537084"><ele>90.0</ele><time>2026-04-03T07:05:40.875Z</time></trkpt><trkpt lat="45.2441143" lon="9.0535905"><ele>90.0</ele><time>2026-04-03T07:05:41.875Z</time></trkpt><trkpt lat="45.2440271" lon="9.0534764"><ele>90.0</ele><time>2026-04-03T07:05:42.875Z</time></trkpt><trkpt lat="45.2439346" lon="9.0533634"><ele>90.0</ele><time>2026-04-03T07:05:43.875Z</time></trkpt><trkpt lat="45.2438382" lon="9.0532503"><ele>90.0</ele><time>2026-04-03T07:05:44.875Z</time></trkpt><trkpt lat="45.2437441" lon="9.0531351"><ele>90.0</ele><time>2026-04-03T07:05:45.874Z</time></trkpt><trkpt lat="45.2436477" lon="9.0530199"><ele>90.0</ele><time>2026-04-03T07:05:46.875Z</time></trkpt><trkpt lat="45.2435542" lon="9.052905"><ele>90.0</ele><time>2026-04-03T07:05:47.875Z</time></trkpt><trkpt lat="45.2434658" lon="9.0527952"><ele>90.0</ele><time>2026-04-03T07:05:48.875Z</time></trkpt><trkpt lat="45.243383" lon="9.0526912"><ele>90.0</ele><time>2026-04-03T07:05:49.874Z</time></trkpt><trkpt lat="45.2433143" lon="9.0525951"><ele>90.0</ele><time>2026-04-03T07:05:50.874Z</time></trkpt><trkpt lat="45.2432676" lon="9.0525019"><ele>90.0</ele><time>2026-04-03T07:05:51.875Z</time></trkpt><trkpt lat="45.243249" lon="9.0523991"><ele>90.0</ele><time>2026-04-03T07:05:52.875Z</time></trkpt><trkpt lat="45.2432596" lon="9.0522947"><ele>90.0</ele><time>2026-04-03T07:05:53.875Z</time></trkpt><trkpt lat="45.2432986" lon="9.0521996"><ele>90.0</ele><time>2026-04-03T07:05:54.875Z</time></trkpt><trkpt lat="45.2433696" lon="9.0521438"><ele>90.0</ele><time>2026-04-03T07:05:55.875Z</time></trkpt><trkpt lat="45.2434527" lon="9.0521402"><ele>90.0</ele><time>2026-04-03T07:05:56.874Z</time></trkpt><trkpt lat="45.2435379" lon="9.0521832"><ele>90.0</ele><time>2026-04-03T07:05:57.874Z</time></trkpt><trkpt lat="45.2436235" lon="9.052262"><ele>90.0</ele><time>2026-04-03T07:05:58.875Z</time></trkpt><trkpt lat="45.2437126" lon="9.0523572"><ele>90.0</ele><time>2026-04-03T07:05:59.874Z</time></trkpt><trkpt lat="45.2438086" lon="9.0524669"><ele>90.0</ele><time>2026-04-03T07:06:00.875Z</time></trkpt><trkpt lat="45.2439036" lon="9.0525797"><ele>90.0</ele><time>2026-04-03T07:06:01.874Z</time></trkpt><trkpt lat="45.2439974" lon="9.0526914"><ele>90.0</ele><time>2026-04-03T07:06:02.875Z</time></trkpt><trkpt lat="45.244087" lon="9.0527977"><ele>90.0</ele><time>2026-04-03T07:06:03.875Z</time></trkpt><trkpt lat="45.2441726" lon="9.0529017"><ele>90.0</ele><time>2026-04-03T07:06:04.875Z</time></trkpt><trkpt lat="45.2442559" lon="9.0530014"><ele>90.0</ele><time>2026-04-03T07:06:05.874Z</time></trkpt><trkpt lat="45.2443393" lon="9.0530987"><ele>90.0</ele><time>2026-04-03T07:06:06.875Z</time></trkpt><trkpt lat="45.2444136" lon="9.0531957"><ele>90.0</ele><time>2026-04-03T07:06:07.875Z</time></trkpt><trkpt lat="45.244469" lon="9.0533094"><ele>90.0</ele><time>2026-04-03T07:06:08.875Z</time></trkpt><trkpt lat="45.2445" lon="9.0534489"><ele>90.0</ele><time>2026-04-03T07:06:09.875Z</time></trkpt><trkpt lat="45.2445032" lon="9.053602"><ele>90.0</ele><time>2026-04-03T07:06:10.875Z</time></trkpt><trkpt lat="45.2444748" lon="9.0537546"><ele>90.0</ele><time>2026-04-03T07:06:11.875Z</time></trkpt><trkpt lat="45.2444171" lon="9.0539004"><ele>90.0</ele><time>2026-04-03T07:06:12.875Z</time></trkpt><trkpt lat="45.2443413" lon="9.0540362"><ele>89.66666666666667</ele><time>2026-04-03T07:06:13.875Z</time></trkpt><trkpt lat="45.2442186" lon="9.054185"><ele>89.33333333333334</ele><time>2026-04-03T07:06:14.875Z</time></trkpt><trkpt lat="45.2441045" lon="9.0543329"><ele>89.0</ele><time>2026-04-03T07:06:15.875Z</time></trkpt><trkpt lat="45.243988" lon="9.0544876"><ele>88.33333333333334</ele><time>2026-04-03T07:06:16.875Z</time></trkpt><trkpt lat="45.2438662" lon="9.0546496"><ele>87.66666666666667</ele><time>2026-04-03T07:06:17.874Z</time></trkpt><trkpt lat="45.2437421" lon="9.0548208"><ele>87.0</ele><time>2026-04-03T07:06:18.875Z</time></trkpt><trkpt lat="45.2436127" lon="9.0549954"><ele>86.66666666666667</ele><time>2026-04-03T07:06:19.874Z</time></trkpt><trkpt lat="45.2434763" lon="9.0551791"><ele>86.33333333333334</ele><time>2026-04-03T07:06:20.874Z</time></trkpt><trkpt lat="45.2433327" lon="9.0553683"><ele>86.0</ele><time>2026-04-03T07:06:21.875Z</time></trkpt><trkpt lat="45.2431877" lon="9.0555566"><ele>86.0</ele><time>2026-04-03T07:06:22.875Z</time></trkpt><trkpt lat="45.243037" lon="9.0557466"><ele>86.0</ele><time>2026-04-03T07:06:23.874Z</time></trkpt><trkpt lat="45.2428844" lon="9.0559394"><ele>86.0</ele><time>2026-04-03T07:06:24.875Z</time></trkpt><trkpt lat="45.2427282" lon="9.0561323"><ele>86.0</ele><time>2026-04-03T07:06:25.874Z</time></trkpt><trkpt lat="45.2425679" lon="9.0563331"><ele>86.0</ele><time>2026-04-03T07:06:26.875Z</time></trkpt><trkpt lat="45.2424064" lon="9.0565333"><ele>86.0</ele><time>2026-04-03T07:06:27.875Z</time></trkpt><trkpt lat="45.2422438" lon="9.0567419"><ele>86.33333333333334</ele><time>2026-04-03T07:06:28.874Z</time></trkpt><trkpt lat="45.2420796" lon="9.0569498"><ele>86.66666666666667</ele><time>2026-04-03T07:06:29.874Z</time></trkpt><trkpt lat="45.241913" lon="9.0571596"><ele>87.0</ele><time>2026-04-03T07:06:30.874Z</time></trkpt><trkpt lat="45.2417465" lon="9.0573671"><ele>87.0</ele><time>2026-04-03T07:06:31.875Z</time></trkpt><trkpt lat="45.2415767" lon="9.0575727"><ele>87.0</ele><time>2026-04-03T07:06:32.875Z</time></trkpt><trkpt lat="45.2414046" lon="9.0577831"><ele>87.0</ele><time>2026-04-03T07:06:33.874Z</time></trkpt><trkpt lat="45.2412316" lon="9.0579949"><ele>87.0</ele><time>2026-04-03T07:06:34.875Z</time></trkpt><trkpt lat="45.2410612" lon="9.0582061"><ele>87.0</ele><time>2026-04-03T07:06:35.875Z</time></trkpt><trkpt lat="45.2408868" lon="9.0584202"><ele>87.0</ele><time>2026-04-03T07:06:36.875Z</time></trkpt><trkpt lat="45.2407093" lon="9.0586357"><ele>88.5</ele><time>2026-04-03T07:06:37.875Z</time></trkpt><trkpt lat="45.2405302" lon="9.0588466"><ele>90.0</ele><time>2026-04-03T07:06:38.875Z</time></trkpt><trkpt lat="45.2403514" lon="9.0590566"><ele>89.5</ele><time>2026-04-03T07:06:39.875Z</time></trkpt><trkpt lat="45.2401745" lon="9.0592644"><ele>89.0</ele><time>2026-04-03T07:06:40.875Z</time></trkpt><trkpt lat="45.2399988" lon="9.0594726"><ele>89.0</ele><time>2026-04-03T07:06:41.874Z</time></trkpt><trkpt lat="45.239823" lon="9.0596796"><ele>89.0</ele><time>2026-04-03T07:06:42.875Z</time></trkpt><trkpt lat="45.2396476" lon="9.059887"><ele>88.0</ele><time>2026-04-03T07:06:43.875Z</time></trkpt><trkpt lat="45.2394745" lon="9.0601004"><ele>87.0</ele><time>2026-04-03T07:06:44.875Z</time></trkpt><trkpt lat="45.2393027" lon="9.0603112"><ele>87.0</ele><time>2026-04-03T07:06:45.874Z</time></trkpt><trkpt lat="45.2391336" lon="9.0605222"><ele>87.0</ele><time>2026-04-03T07:06:46.875Z</time></trkpt><trkpt lat="45.2389665" lon="9.0607332"><ele>87.0</ele><time>2026-04-03T07:06:47.874Z</time></trkpt><trkpt lat="45.2387991" lon="9.0609428"><ele>86.66666666666667</ele><time>2026-04-03T07:06:48.875Z</time></trkpt><trkpt lat="45.2386319" lon="9.0611461"><ele>86.33333333333334</ele><time>2026-04-03T07:06:49.875Z</time></trkpt><trkpt lat="45.2384652" lon="9.0613471"><ele>86.0</ele><time>2026-04-03T07:06:50.873Z</time></trkpt><trkpt lat="45.2383013" lon="9.0615456"><ele>86.33333333333334</ele><time>2026-04-03T07:06:51.874Z</time></trkpt><trkpt lat="45.2381413" lon="9.0617459"><ele>86.66666666666667</ele><time>2026-04-03T07:06:52.875Z</time></trkpt><trkpt lat="45.2379818" lon="9.0619451"><ele>87.0</ele><time>2026-04-03T07:06:53.875Z</time></trkpt><trkpt lat="45.2378209" lon="9.0621429"><ele>87.0</ele><time>2026-04-03T07:06:54.875Z</time></trkpt><trkpt lat="45.2376617" lon="9.0623404"><ele>87.0</ele><time>2026-04-03T07:06:55.875Z</time></trkpt><trkpt lat="45.237504" lon="9.0625393"><ele>87.0</ele><time>2026-04-03T07:06:56.874Z</time></trkpt><trkpt lat="45.2373484" lon="9.0627362"><ele>87.0</ele><time>2026-04-03T07:06:57.874Z</time></trkpt><trkpt lat="45.2371919" lon="9.0629323"><ele>87.0</ele><time>2026-04-03T07:06:58.875Z</time></trkpt><trkpt lat="45.2370343" lon="9.0631283"><ele>87.0</ele><time>2026-04-03T07:06:59.875Z</time></trkpt><trkpt lat="45.2368777" lon="9.0633238"><ele>87.0</ele><time>2026-04-03T07:07:00.874Z</time></trkpt><trkpt lat="45.2367222" lon="9.0635193"><ele>87.0</ele><time>2026-04-03T07:07:01.875Z</time></trkpt><trkpt lat="45.2365677" lon="9.0637123"><ele>87.0</ele><time>2026-04-03T07:07:02.874Z</time></trkpt><trkpt lat="45.2364123" lon="9.0639072"><ele>86.33333333333333</ele><time>2026-04-03T07:07:03.875Z</time></trkpt><trkpt lat="45.2362585" lon="9.0641"><ele>85.66666666666666</ele><time>2026-04-03T07:07:04.874Z</time></trkpt><trkpt lat="45.2361066" lon="9.0642906"><ele>85.0</ele><time>2026-04-03T07:07:05.875Z</time></trkpt><trkpt lat="45.2359549" lon="9.0644818"><ele>85.0</ele><time>2026-04-03T07:07:06.874Z</time></trkpt><trkpt lat="45.2358012" lon="9.0646715"><ele>85.0</ele><time>2026-04-03T07:07:07.874Z</time></trkpt><trkpt lat="45.2356487" lon="9.0648628"><ele>85.0</ele><time>2026-04-03T07:07:08.875Z</time></trkpt><trkpt lat="45.2354985" lon="9.0650575"><ele>85.33333333333333</ele><time>2026-04-03T07:07:09.875Z</time></trkpt><trkpt lat="45.2353474" lon="9.0652499"><ele>85.66666666666667</ele><time>2026-04-03T07:07:10.874Z</time></trkpt><trkpt lat="45.2351935" lon="9.0654383"><ele>86.0</ele><time>2026-04-03T07:07:11.874Z</time></trkpt><trkpt lat="45.2350376" lon="9.065633"><ele>86.0</ele><time>2026-04-03T07:07:12.874Z</time></trkpt><trkpt lat="45.2348811" lon="9.0658237"><ele>86.0</ele><time>2026-04-03T07:07:13.874Z</time></trkpt><trkpt lat="45.2347223" lon="9.0660221"><ele>86.0</ele><time>2026-04-03T07:07:14.875Z</time></trkpt><trkpt lat="45.2345592" lon="9.0662228"><ele>86.0</ele><time>2026-04-03T07:07:15.874Z</time></trkpt><trkpt lat="45.234393" lon="9.066429"><ele>86.0</ele><time>2026-04-03T07:07:16.875Z</time></trkpt><trkpt lat="45.2342216" lon="9.0666361"><ele>86.0</ele><time>2026-04-03T07:07:17.874Z</time></trkpt><trkpt lat="45.2340481" lon="9.0668424"><ele>85.5</ele><time>2026-04-03T07:07:18.875Z</time></trkpt><trkpt lat="45.2338709" lon="9.0670555"><ele>85.0</ele><time>2026-04-03T07:07:19.875Z</time></trkpt><trkpt lat="45.233693" lon="9.067269"><ele>84.5</ele><time>2026-04-03T07:07:20.875Z</time></trkpt><trkpt lat="45.2335125" lon="9.0674817"><ele>84.0</ele><time>2026-04-03T07:07:21.875Z</time></trkpt><trkpt lat="45.2333292" lon="9.0676897"><ele>84.0</ele><time>2026-04-03T07:07:22.875Z</time></trkpt><trkpt lat="45.2331415" lon="9.0678901"><ele>84.0</ele><time>2026-04-03T07:07:23.874Z</time></trkpt><trkpt lat="45.2329538" lon="9.0680871"><ele>83.5</ele><time>2026-04-03T07:07:24.874Z</time></trkpt><trkpt lat="45.2327677" lon="9.0682843"><ele>83.0</ele><time>2026-04-03T07:07:25.875Z</time></trkpt><trkpt lat="45.2325836" lon="9.0684807"><ele>83.0</ele><time>2026-04-03T07:07:26.874Z</time></trkpt><trkpt lat="45.2323979" lon="9.0686702"><ele>83.0</ele><time>2026-04-03T07:07:27.875Z</time></trkpt><trkpt lat="45.2322124" lon="9.0688549"><ele>84.5</ele><time>2026-04-03T07:07:28.875Z</time></trkpt><trkpt lat="45.2320275" lon="9.0690371"><ele>86.0</ele><time>2026-04-03T07:07:29.875Z</time></trkpt><trkpt lat="45.231842" lon="9.0692198"><ele>86.0</ele><time>2026-04-03T07:07:30.874Z</time></trkpt><trkpt lat="45.2316564" lon="9.0694015"><ele>86.0</ele><time>2026-04-03T07:07:31.875Z</time></trkpt><trkpt lat="45.2314715" lon="9.0695846"><ele>87.0</ele><time>2026-04-03T07:07:32.874Z</time></trkpt><trkpt lat="45.2312859" lon="9.0697674"><ele>88.0</ele><time>2026-04-03T07:07:33.874Z</time></trkpt><trkpt lat="45.2311014" lon="9.0699483"><ele>88.0</ele><time>2026-04-03T07:07:34.875Z</time></trkpt><trkpt lat="45.2309159" lon="9.07013"><ele>88.0</ele><time>2026-04-03T07:07:35.875Z</time></trkpt><trkpt lat="45.2307301" lon="9.0703151"><ele>88.0</ele><time>2026-04-03T07:07:36.874Z</time></trkpt><trkpt lat="45.2305422" lon="9.0705014"><ele>88.0</ele><time>2026-04-03T07:07:37.875Z</time></trkpt><trkpt lat="45.2303558" lon="9.0706839"><ele>86.5</ele><time>2026-04-03T07:07:38.874Z</time></trkpt><trkpt lat="45.2301692" lon="9.0708692"><ele>85.0</ele><time>2026-04-03T07:07:39.874Z</time></trkpt><trkpt lat="45.2299836" lon="9.0710509"><ele>84.5</ele><time>2026-04-03T07:07:40.875Z</time></trkpt><trkpt lat="45.2297964" lon="9.0712361"><ele>84.0</ele><time>2026-04-03T07:07:41.874Z</time></trkpt><trkpt lat="45.2296101" lon="9.0714206"><ele>84.0</ele><time>2026-04-03T07:07:42.875Z</time></trkpt><trkpt lat="45.229422" lon="9.071606"><ele>84.0</ele><time>2026-04-03T07:07:43.875Z</time></trkpt><trkpt lat="45.2292328" lon="9.0717922"><ele>84.0</ele><time>2026-04-03T07:07:44.875Z</time></trkpt><trkpt lat="45.2290464" lon="9.0719745"><ele>84.0</ele><time>2026-04-03T07:07:45.874Z</time></trkpt><trkpt lat="45.2288594" lon="9.0721605"><ele>84.0</ele><time>2026-04-03T07:07:46.875Z</time></trkpt><trkpt lat="45.2286742" lon="9.072349"><ele>84.0</ele><time>2026-04-03T07:07:47.875Z</time></trkpt><trkpt lat="45.2284915" lon="9.0725427"><ele>84.0</ele><time>2026-04-03T07:07:48.875Z</time></trkpt><trkpt lat="45.2283088" lon="9.0727417"><ele>84.0</ele><time>2026-04-03T07:07:49.875Z</time></trkpt><trkpt lat="45.22813" lon="9.0729432"><ele>84.0</ele><time>2026-04-03T07:07:50.875Z</time></trkpt><trkpt lat="45.22795" lon="9.073148"><ele>84.0</ele><time>2026-04-03T07:07:51.875Z</time></trkpt><trkpt lat="45.2277703" lon="9.0733603"><ele>84.5</ele><time>2026-04-03T07:07:52.875Z</time></trkpt><trkpt lat="45.2275916" lon="9.0735738"><ele>85.0</ele><time>2026-04-03T07:07:53.875Z</time></trkpt><trkpt lat="45.2274156" lon="9.073792"><ele>85.0</ele><time>2026-04-03T07:07:54.875Z</time></trkpt><trkpt lat="45.2272366" lon="9.0740166"><ele>85.0</ele><time>2026-04-03T07:07:55.875Z</time></trkpt><trkpt lat="45.2270587" lon="9.0742448"><ele>85.0</ele><time>2026-04-03T07:07:56.875Z</time></trkpt><trkpt lat="45.2268812" lon="9.0744832"><ele>85.0</ele><time>2026-04-03T07:07:57.875Z</time></trkpt><trkpt lat="45.2267118" lon="9.074727"><ele>85.5</ele><time>2026-04-03T07:07:58.875Z</time></trkpt><trkpt lat="45.2265433" lon="9.0749721"><ele>86.0</ele><time>2026-04-03T07:07:59.875Z</time></trkpt><trkpt lat="45.226372" lon="9.0752137"><ele>86.0</ele><time>2026-04-03T07:08:00.875Z</time></trkpt><trkpt lat="45.2262" lon="9.0754581"><ele>86.0</ele><time>2026-04-03T07:08:01.875Z</time></trkpt><trkpt lat="45.2260294" lon="9.0757043"><ele>86.0</ele><time>2026-04-03T07:08:02.875Z</time></trkpt><trkpt lat="45.2258603" lon="9.0759512"><ele>86.0</ele><time>2026-04-03T07:08:03.875Z</time></trkpt><trkpt lat="45.2256907" lon="9.076195"><ele>86.0</ele><time>2026-04-03T07:08:04.874Z</time></trkpt><trkpt lat="45.2255209" lon="9.0764355"><ele>86.0</ele><time>2026-04-03T07:08:05.874Z</time></trkpt><trkpt lat="45.2253498" lon="9.076676"><ele>86.0</ele><time>2026-04-03T07:08:06.874Z</time></trkpt><trkpt lat="45.2251815" lon="9.0769191"><ele>86.0</ele><time>2026-04-03T07:08:07.874Z</time></trkpt><trkpt lat="45.2250141" lon="9.077162"><ele>86.0</ele><time>2026-04-03T07:08:08.875Z</time></trkpt><trkpt lat="45.224848" lon="9.077404"><ele>86.0</ele><time>2026-04-03T07:08:09.874Z</time></trkpt><trkpt lat="45.2246808" lon="9.0776446"><ele>85.0</ele><time>2026-04-03T07:08:10.874Z</time></trkpt><trkpt lat="45.2245129" lon="9.0778836"><ele>84.0</ele><time>2026-04-03T07:08:11.874Z</time></trkpt><trkpt lat="45.2243456" lon="9.0781202"><ele>84.0</ele><time>2026-04-03T07:08:12.875Z</time></trkpt><trkpt lat="45.2241781" lon="9.0783537"><ele>84.0</ele><time>2026-04-03T07:08:13.874Z</time></trkpt><trkpt lat="45.2240104" lon="9.0785926"><ele>84.0</ele><time>2026-04-03T07:08:14.875Z</time></trkpt><trkpt lat="45.2238434" lon="9.0788303"><ele>84.0</ele><time>2026-04-03T07:08:15.875Z</time></trkpt><trkpt lat="45.2236782" lon="9.0790717"><ele>84.5</ele><time>2026-04-03T07:08:16.874Z</time></trkpt><trkpt lat="45.2235113" lon="9.0793128"><ele>85.0</ele><time>2026-04-03T07:08:17.875Z</time></trkpt><trkpt lat="45.2233427" lon="9.0795526"><ele>85.0</ele><time>2026-04-03T07:08:18.875Z</time></trkpt><trkpt lat="45.2231735" lon="9.0797935"><ele>85.0</ele><time>2026-04-03T07:08:19.874Z</time></trkpt><trkpt lat="45.223002" lon="9.0800346"><ele>85.0</ele><time>2026-04-03T07:08:20.875Z</time></trkpt><trkpt lat="45.2228331" lon="9.080273"><ele>85.0</ele><time>2026-04-03T07:08:21.875Z</time></trkpt><trkpt lat="45.2226636" lon="9.0805145"><ele>85.0</ele><time>2026-04-03T07:08:22.875Z</time></trkpt><trkpt lat="45.2224925" lon="9.0807516"><ele>85.0</ele><time>2026-04-03T07:08:23.874Z</time></trkpt><trkpt lat="45.2223215" lon="9.080991"><ele>84.5</ele><time>2026-04-03T07:08:24.875Z</time></trkpt><trkpt lat="45.2221535" lon="9.0812321"><ele>84.0</ele><time>2026-04-03T07:08:25.875Z</time></trkpt><trkpt lat="45.2219853" lon="9.081477"><ele>84.0</ele><time>2026-04-03T07:08:26.874Z</time></trkpt><trkpt lat="45.2218182" lon="9.0817201"><ele>84.0</ele><time>2026-04-03T07:08:27.875Z</time></trkpt><trkpt lat="45.2216512" lon="9.0819653"><ele>84.0</ele><time>2026-04-03T07:08:28.875Z</time></trkpt><trkpt lat="45.2214865" lon="9.0822095"><ele>84.0</ele><time>2026-04-03T07:08:29.875Z</time></trkpt><trkpt lat="45.2213199" lon="9.0824514"><ele>84.0</ele><time>2026-04-03T07:08:30.875Z</time></trkpt><trkpt lat="45.2211541" lon="9.0826916"><ele>84.0</ele><time>2026-04-03T07:08:31.874Z</time></trkpt><trkpt lat="45.2209847" lon="9.0829299"><ele>84.0</ele><time>2026-04-03T07:08:32.874Z</time></trkpt><trkpt lat="45.2208152" lon="9.0831678"><ele>84.0</ele><time>2026-04-03T07:08:33.875Z</time></trkpt><trkpt lat="45.2206447" lon="9.0834104"><ele>84.5</ele><time>2026-04-03T07:08:34.874Z</time></trkpt><trkpt lat="45.220475" lon="9.0836511"><ele>85.0</ele><time>2026-04-03T07:08:35.874Z</time></trkpt><trkpt lat="45.2203043" lon="9.0838918"><ele>85.0</ele><time>2026-04-03T07:08:36.875Z</time></trkpt><trkpt lat="45.2201344" lon="9.0841298"><ele>85.0</ele><time>2026-04-03T07:08:37.875Z</time></trkpt><trkpt lat="45.2199641" lon="9.0843711"><ele>84.0</ele><time>2026-04-03T07:08:38.875Z</time></trkpt><trkpt lat="45.2197972" lon="9.0846093"><ele>83.0</ele><time>2026-04-03T07:08:39.875Z</time></trkpt><trkpt lat="45.2196282" lon="9.0848489"><ele>83.5</ele><time>2026-04-03T07:08:40.875Z</time></trkpt><trkpt lat="45.2194601" lon="9.0850886"><ele>84.0</ele><time>2026-04-03T07:08:41.875Z</time></trkpt><trkpt lat="45.2192916" lon="9.0853262"><ele>84.0</ele><time>2026-04-03T07:08:42.875Z</time></trkpt><trkpt lat="45.2191244" lon="9.0855671"><ele>84.0</ele><time>2026-04-03T07:08:43.874Z</time></trkpt><trkpt lat="45.2189564" lon="9.0858089"><ele>84.0</ele><time>2026-04-03T07:08:44.874Z</time></trkpt><trkpt lat="45.2187892" lon="9.0860486"><ele>84.0</ele><time>2026-04-03T07:08:45.875Z</time></trkpt><trkpt lat="45.2186216" lon="9.0862894"><ele>84.0</ele><time>2026-04-03T07:08:46.875Z</time></trkpt><trkpt lat="45.2184551" lon="9.0865288"><ele>84.0</ele><time>2026-04-03T07:08:47.875Z</time></trkpt><trkpt lat="45.2182875" lon="9.0867699"><ele>84.0</ele><time>2026-04-03T07:08:48.874Z</time></trkpt><trkpt lat="45.2181193" lon="9.0870137"><ele>84.0</ele><time>2026-04-03T07:08:49.875Z</time></trkpt><trkpt lat="45.2179538" lon="9.0872558"><ele>84.5</ele><time>2026-04-03T07:08:50.875Z</time></trkpt><trkpt lat="45.2177879" lon="9.0875062"><ele>85.0</ele><time>2026-04-03T07:08:51.875Z</time></trkpt><trkpt lat="45.2176263" lon="9.0877609"><ele>85.0</ele><time>2026-04-03T07:08:52.875Z</time></trkpt><trkpt lat="45.2174714" lon="9.0880212"><ele>85.0</ele><time>2026-04-03T07:08:53.874Z</time></trkpt><trkpt lat="45.2173206" lon="9.0882888"><ele>84.0</ele><time>2026-04-03T07:08:54.874Z</time></trkpt><trkpt lat="45.2171657" lon="9.0885546"><ele>83.0</ele><time>2026-04-03T07:08:55.875Z</time></trkpt><trkpt lat="45.217015" lon="9.0888218"><ele>83.0</ele><time>2026-04-03T07:08:56.874Z</time></trkpt><trkpt lat="45.2168725" lon="9.0890947"><ele>83.0</ele><time>2026-04-03T07:08:57.874Z</time></trkpt><trkpt lat="45.2167346" lon="9.0893741"><ele>83.0</ele><time>2026-04-03T07:08:58.875Z</time></trkpt><trkpt lat="45.2166009" lon="9.0896587"><ele>83.0</ele><time>2026-04-03T07:08:59.874Z</time></trkpt><trkpt lat="45.2164739" lon="9.0899493"><ele>84.0</ele><time>2026-04-03T07:09:00.874Z</time></trkpt><trkpt lat="45.2163553" lon="9.0902394"><ele>85.0</ele><time>2026-04-03T07:09:01.874Z</time></trkpt><trkpt lat="45.2162341" lon="9.0905391"><ele>84.0</ele><time>2026-04-03T07:09:02.875Z</time></trkpt><trkpt lat="45.2161168" lon="9.0908313"><ele>83.0</ele><time>2026-04-03T07:09:03.875Z</time></trkpt><trkpt lat="45.2160021" lon="9.0911301"><ele>83.0</ele><time>2026-04-03T07:09:04.875Z</time></trkpt><trkpt lat="45.2158893" lon="9.0914285"><ele>83.0</ele><time>2026-04-03T07:09:05.875Z</time></trkpt><trkpt lat="45.215776" lon="9.0917234"><ele>83.0</ele><time>2026-04-03T07:09:06.875Z</time></trkpt><trkpt lat="45.2156639" lon="9.0920166"><ele>83.0</ele><time>2026-04-03T07:09:07.875Z</time></trkpt><trkpt lat="45.21555" lon="9.0923126"><ele>83.0</ele><time>2026-04-03T07:09:08.874Z</time></trkpt><trkpt lat="45.2154351" lon="9.0926106"><ele>83.0</ele><time>2026-04-03T07:09:09.875Z</time></trkpt><trkpt lat="45.2153205" lon="9.092906"><ele>83.0</ele><time>2026-04-03T07:09:10.874Z</time></trkpt><trkpt lat="45.2152041" lon="9.0932052"><ele>83.0</ele><time>2026-04-03T07:09:11.874Z</time></trkpt><trkpt lat="45.2150879" lon="9.0935017"><ele>83.0</ele><time>2026-04-03T07:09:12.875Z</time></trkpt><trkpt lat="45.2149709" lon="9.0937953"><ele>83.0</ele><time>2026-04-03T07:09:13.875Z</time></trkpt><trkpt lat="45.2148538" lon="9.0940935"><ele>82.5</ele><time>2026-04-03T07:09:14.874Z</time></trkpt><trkpt lat="45.2147365" lon="9.0943902"><ele>82.0</ele><time>2026-04-03T07:09:15.875Z</time></trkpt><trkpt lat="45.2146206" lon="9.0946857"><ele>82.0</ele><time>2026-04-03T07:09:16.874Z</time></trkpt><trkpt lat="45.2145042" lon="9.094982"><ele>82.0</ele><time>2026-04-03T07:09:17.875Z</time></trkpt><trkpt lat="45.214389" lon="9.0952771"><ele>82.0</ele><time>2026-04-03T07:09:18.875Z</time></trkpt><trkpt lat="45.2142741" lon="9.0955732"><ele>82.0</ele><time>2026-04-03T07:09:19.874Z</time></trkpt><trkpt lat="45.2141594" lon="9.0958719"><ele>82.0</ele><time>2026-04-03T07:09:20.875Z</time></trkpt><trkpt lat="45.2140435" lon="9.0961719"><ele>82.0</ele><time>2026-04-03T07:09:21.875Z</time></trkpt><trkpt lat="45.2139263" lon="9.0964661"><ele>81.66666666666666</ele><time>2026-04-03T07:09:22.875Z</time></trkpt><trkpt lat="45.2138157" lon="9.0967449"><ele>81.33333333333333</ele><time>2026-04-03T07:09:23.875Z</time></trkpt><trkpt lat="45.2137105" lon="9.0970113"><ele>81.0</ele><time>2026-04-03T07:09:24.874Z</time></trkpt><trkpt lat="45.2136061" lon="9.0972749"><ele>81.33333333333333</ele><time>2026-04-03T07:09:25.874Z</time></trkpt><trkpt lat="45.2135044" lon="9.097547"><ele>81.66666666666666</ele><time>2026-04-03T07:09:26.875Z</time></trkpt><trkpt lat="45.2134065" lon="9.0978335"><ele>82.0</ele><time>2026-04-03T07:09:27.874Z</time></trkpt><trkpt lat="45.2133022" lon="9.0981315"><ele>81.5</ele><time>2026-04-03T07:09:28.875Z</time></trkpt><trkpt lat="45.2131893" lon="9.0984326"><ele>81.0</ele><time>2026-04-03T07:09:29.875Z</time></trkpt><trkpt lat="45.213074" lon="9.0987324"><ele>83.5</ele><time>2026-04-03T07:09:30.875Z</time></trkpt><trkpt lat="45.2129604" lon="9.099028"><ele>86.0</ele><time>2026-04-03T07:09:31.875Z</time></trkpt><trkpt lat="45.2128462" lon="9.0993201"><ele>86.5</ele><time>2026-04-03T07:09:32.874Z</time></trkpt><trkpt lat="45.2127303" lon="9.0996126"><ele>87.0</ele><time>2026-04-03T07:09:33.874Z</time></trkpt><trkpt lat="45.2126122" lon="9.0999014"><ele>87.5</ele><time>2026-04-03T07:09:34.875Z</time></trkpt><trkpt lat="45.2124876" lon="9.100189"><ele>88.0</ele><time>2026-04-03T07:09:35.875Z</time></trkpt><trkpt lat="45.2123668" lon="9.1004749"><ele>88.5</ele><time>2026-04-03T07:09:36.875Z</time></trkpt><trkpt lat="45.212249" lon="9.1007661"><ele>89.0</ele><time>2026-04-03T07:09:37.875Z</time></trkpt><trkpt lat="45.2121339" lon="9.1010572"><ele>89.0</ele><time>2026-04-03T07:09:38.875Z</time></trkpt><trkpt lat="45.2120189" lon="9.1013482"><ele>89.0</ele><time>2026-04-03T07:09:39.874Z</time></trkpt><trkpt lat="45.2119032" lon="9.1016429"><ele>88.5</ele><time>2026-04-03T07:09:40.875Z</time></trkpt><trkpt lat="45.2117879" lon="9.1019358"><ele>88.0</ele><time>2026-04-03T07:09:41.875Z</time></trkpt><trkpt lat="45.2116735" lon="9.1022297"><ele>86.5</ele><time>2026-04-03T07:09:42.875Z</time></trkpt><trkpt lat="45.2115579" lon="9.102526"><ele>85.0</ele><time>2026-04-03T07:09:43.875Z</time></trkpt><trkpt lat="45.2114421" lon="9.1028209"><ele>87.5</ele><time>2026-04-03T07:09:44.874Z</time></trkpt><trkpt lat="45.2113243" lon="9.1031163"><ele>90.0</ele><time>2026-04-03T07:09:45.875Z</time></trkpt><trkpt lat="45.2112062" lon="9.103409"><ele>90.0</ele><time>2026-04-03T07:09:46.875Z</time></trkpt><trkpt lat="45.2110892" lon="9.1037062"><ele>90.0</ele><time>2026-04-03T07:09:47.875Z</time></trkpt><trkpt lat="45.2109748" lon="9.1040054"><ele>88.0</ele><time>2026-04-03T07:09:48.875Z</time></trkpt><trkpt lat="45.2108608" lon="9.1043052"><ele>86.0</ele><time>2026-04-03T07:09:49.874Z</time></trkpt><trkpt lat="45.2107464" lon="9.1046039"><ele>86.5</ele><time>2026-04-03T07:09:50.874Z</time></trkpt><trkpt lat="45.2106303" lon="9.1049036"><ele>87.0</ele><time>2026-04-03T07:09:51.875Z</time></trkpt><trkpt lat="45.2105132" lon="9.1052003"><ele>85.5</ele><time>2026-04-03T07:09:52.875Z</time></trkpt><trkpt lat="45.210395" lon="9.1054968"><ele>84.0</ele><time>2026-04-03T07:09:53.875Z</time></trkpt><trkpt lat="45.2102782" lon="9.1057932"><ele>82.0</ele><time>2026-04-03T07:09:54.875Z</time></trkpt><trkpt lat="45.2101613" lon="9.1060903"><ele>80.0</ele><time>2026-04-03T07:09:55.875Z</time></trkpt><trkpt lat="45.2100387" lon="9.1063849"><ele>80.0</ele><time>2026-04-03T07:09:56.874Z</time></trkpt><trkpt lat="45.2099128" lon="9.1066748"><ele>80.0</ele><time>2026-04-03T07:09:57.875Z</time></trkpt><trkpt lat="45.2097836" lon="9.1069589"><ele>81.0</ele><time>2026-04-03T07:09:58.875Z</time></trkpt><trkpt lat="45.2096505" lon="9.107238"><ele>82.0</ele><time>2026-04-03T07:09:59.875Z</time></trkpt><trkpt lat="45.2095115" lon="9.107514"><ele>82.0</ele><time>2026-04-03T07:10:00.874Z</time></trkpt><trkpt lat="45.2093681" lon="9.107786"><ele>82.0</ele><time>2026-04-03T07:10:01.875Z</time></trkpt><trkpt lat="45.2092218" lon="9.1080547"><ele>83.0</ele><time>2026-04-03T07:10:02.875Z</time></trkpt><trkpt lat="45.2090668" lon="9.1083168"><ele>84.0</ele><time>2026-04-03T07:10:03.875Z</time></trkpt><trkpt lat="45.2089078" lon="9.1085747"><ele>84.0</ele><time>2026-04-03T07:10:04.874Z</time></trkpt><trkpt lat="45.208747" lon="9.1088287"><ele>84.0</ele><time>2026-04-03T07:10:05.875Z</time></trkpt><trkpt lat="45.2085825" lon="9.1090807"><ele>84.0</ele><time>2026-04-03T07:10:06.875Z</time></trkpt><trkpt lat="45.2084168" lon="9.109326"><ele>84.0</ele><time>2026-04-03T07:10:07.874Z</time></trkpt><trkpt lat="45.2082472" lon="9.1095679"><ele>83.5</ele><time>2026-04-03T07:10:08.875Z</time></trkpt><trkpt lat="45.208072" lon="9.1098017"><ele>83.0</ele><time>2026-04-03T07:10:09.875Z</time></trkpt><trkpt lat="45.2078928" lon="9.110029"><ele>83.0</ele><time>2026-04-03T07:10:10.875Z</time></trkpt><trkpt lat="45.2077131" lon="9.1102548"><ele>83.0</ele><time>2026-04-03T07:10:11.875Z</time></trkpt><trkpt lat="45.2075327" lon="9.1104776"><ele>83.0</ele><time>2026-04-03T07:10:12.875Z</time></trkpt><trkpt lat="45.2073523" lon="9.1106988"><ele>83.0</ele><time>2026-04-03T07:10:13.875Z</time></trkpt><trkpt lat="45.2071711" lon="9.1109182"><ele>82.0</ele><time>2026-04-03T07:10:14.875Z</time></trkpt><trkpt lat="45.20699" lon="9.1111372"><ele>81.0</ele><time>2026-04-03T07:10:15.875Z</time></trkpt><trkpt lat="45.2068078" lon="9.1113579"><ele>81.5</ele><time>2026-04-03T07:10:16.875Z</time></trkpt><trkpt lat="45.2066264" lon="9.1115807"><ele>82.0</ele><time>2026-04-03T07:10:17.875Z</time></trkpt><trkpt lat="45.2064461" lon="9.1118013"><ele>82.0</ele><time>2026-04-03T07:10:18.874Z</time></trkpt><trkpt lat="45.2062674" lon="9.112022"><ele>82.0</ele><time>2026-04-03T07:10:19.875Z</time></trkpt><trkpt lat="45.2060871" lon="9.1122427"><ele>82.0</ele><time>2026-04-03T07:10:20.875Z</time></trkpt><trkpt lat="45.205908" lon="9.1124662"><ele>82.0</ele><time>2026-04-03T07:10:21.875Z</time></trkpt><trkpt lat="45.2057316" lon="9.1126983"><ele>81.5</ele><time>2026-04-03T07:10:22.875Z</time></trkpt><trkpt lat="45.2055567" lon="9.1129348"><ele>81.0</ele><time>2026-04-03T07:10:23.875Z</time></trkpt><trkpt lat="45.2053857" lon="9.1131738"><ele>81.0</ele><time>2026-04-03T07:10:24.875Z</time></trkpt><trkpt lat="45.2052165" lon="9.1134167"><ele>81.0</ele><time>2026-04-03T07:10:25.875Z</time></trkpt><trkpt lat="45.2050501" lon="9.1136597"><ele>81.0</ele><time>2026-04-03T07:10:26.874Z</time></trkpt><trkpt lat="45.2048848" lon="9.1139073"><ele>81.0</ele><time>2026-04-03T07:10:27.874Z</time></trkpt><trkpt lat="45.2047233" lon="9.11416"><ele>80.5</ele><time>2026-04-03T07:10:28.874Z</time></trkpt><trkpt lat="45.2045629" lon="9.1144151"><ele>80.0</ele><time>2026-04-03T07:10:29.875Z</time></trkpt><trkpt lat="45.2044057" lon="9.114668"><ele>81.0</ele><time>2026-04-03T07:10:30.875Z</time></trkpt><trkpt lat="45.2042474" lon="9.1149223"><ele>82.0</ele><time>2026-04-03T07:10:31.874Z</time></trkpt><trkpt lat="45.2040918" lon="9.1151803"><ele>81.0</ele><time>2026-04-03T07:10:32.874Z</time></trkpt><trkpt lat="45.203938" lon="9.1154392"><ele>80.0</ele><time>2026-04-03T07:10:33.875Z</time></trkpt><trkpt lat="45.203783" lon="9.1156976"><ele>80.0</ele><time>2026-04-03T07:10:34.874Z</time></trkpt><trkpt lat="45.2036275" lon="9.1159591"><ele>80.0</ele><time>2026-04-03T07:10:35.875Z</time></trkpt><trkpt lat="45.2034694" lon="9.1162226"><ele>80.0</ele><time>2026-04-03T07:10:36.875Z</time></trkpt><trkpt lat="45.2033136" lon="9.116483"><ele>80.0</ele><time>2026-04-03T07:10:37.875Z</time></trkpt><trkpt lat="45.2031598" lon="9.1167398"><ele>78.5</ele><time>2026-04-03T07:10:38.874Z</time></trkpt><trkpt lat="45.2030026" lon="9.1169988"><ele>77.0</ele><time>2026-04-03T07:10:39.875Z</time></trkpt><trkpt lat="45.2028463" lon="9.117257"><ele>78.0</ele><time>2026-04-03T07:10:40.874Z</time></trkpt><trkpt lat="45.2026909" lon="9.1175137"><ele>79.0</ele><time>2026-04-03T07:10:41.875Z</time></trkpt><trkpt lat="45.2025376" lon="9.1177757"><ele>79.0</ele><time>2026-04-03T07:10:42.875Z</time></trkpt><trkpt lat="45.2023841" lon="9.1180382"><ele>79.0</ele><time>2026-04-03T07:10:43.874Z</time></trkpt><trkpt lat="45.2022307" lon="9.1182978"><ele>77.5</ele><time>2026-04-03T07:10:44.875Z</time></trkpt><trkpt lat="45.2020761" lon="9.1185605"><ele>76.0</ele><time>2026-04-03T07:10:45.875Z</time></trkpt><trkpt lat="45.2019225" lon="9.1188263"><ele>77.5</ele><time>2026-04-03T07:10:46.875Z</time></trkpt><trkpt lat="45.2017677" lon="9.1190838"><ele>79.0</ele><time>2026-04-03T07:10:47.875Z</time></trkpt><trkpt lat="45.2016136" lon="9.1193414"><ele>77.0</ele><time>2026-04-03T07:10:48.874Z</time></trkpt><trkpt lat="45.2014588" lon="9.1195958"><ele>75.0</ele><time>2026-04-03T07:10:49.874Z</time></trkpt><trkpt lat="45.2013037" lon="9.1198533"><ele>76.0</ele><time>2026-04-03T07:10:50.875Z</time></trkpt><trkpt lat="45.2011479" lon="9.1201117"><ele>77.0</ele><time>2026-04-03T07:10:51.875Z</time></trkpt><trkpt lat="45.2009947" lon="9.1203673"><ele>77.0</ele><time>2026-04-03T07:10:52.875Z</time></trkpt><trkpt lat="45.2008423" lon="9.1206252"><ele>77.0</ele><time>2026-04-03T07:10:53.875Z</time></trkpt><trkpt lat="45.2006868" lon="9.1208833"><ele>76.0</ele><time>2026-04-03T07:10:54.875Z</time></trkpt><trkpt lat="45.2005354" lon="9.1211429"><ele>75.0</ele><time>2026-04-03T07:10:55.875Z</time></trkpt><trkpt lat="45.2003818" lon="9.1214022"><ele>76.5</ele><time>2026-04-03T07:10:56.874Z</time></trkpt><trkpt lat="45.2002257" lon="9.1216626"><ele>78.0</ele><time>2026-04-03T07:10:57.874Z</time></trkpt><trkpt lat="45.2000699" lon="9.12192"><ele>78.0</ele><time>2026-04-03T07:10:58.875Z</time></trkpt><trkpt lat="45.199913" lon="9.122175"><ele>78.0</ele><time>2026-04-03T07:10:59.875Z</time></trkpt><trkpt lat="45.1997578" lon="9.1224325"><ele>77.0</ele><time>2026-04-03T07:11:00.875Z</time></trkpt><trkpt lat="45.1996028" lon="9.1226899"><ele>76.0</ele><time>2026-04-03T07:11:01.875Z</time></trkpt><trkpt lat="45.1994504" lon="9.1229497"><ele>76.0</ele><time>2026-04-03T07:11:02.875Z</time></trkpt><trkpt lat="45.1992953" lon="9.1232076"><ele>76.0</ele><time>2026-04-03T07:11:03.874Z</time></trkpt><trkpt lat="45.1991414" lon="9.1234659"><ele>75.0</ele><time>2026-04-03T07:11:04.874Z</time></trkpt><trkpt lat="45.1989849" lon="9.123724"><ele>74.0</ele><time>2026-04-03T07:11:05.874Z</time></trkpt><trkpt lat="45.1988282" lon="9.1239816"><ele>76.0</ele><time>2026-04-03T07:11:06.875Z</time></trkpt><trkpt lat="45.1986725" lon="9.1242414"><ele>78.0</ele><time>2026-04-03T07:11:07.875Z</time></trkpt><trkpt lat="45.1985189" lon="9.1244985"><ele>78.0</ele><time>2026-04-03T07:11:08.874Z</time></trkpt><trkpt lat="45.1983624" lon="9.1247542"><ele>78.0</ele><time>2026-04-03T07:11:09.875Z</time></trkpt><trkpt lat="45.1982094" lon="9.1250114"><ele>76.0</ele><time>2026-04-03T07:11:10.875Z</time></trkpt><trkpt lat="45.198056" lon="9.1252721"><ele>74.0</ele><time>2026-04-03T07:11:11.875Z</time></trkpt><trkpt lat="45.1979051" lon="9.1255328"><ele>75.5</ele><time>2026-04-03T07:11:12.875Z</time></trkpt><trkpt lat="45.1977527" lon="9.1257942"><ele>77.0</ele><time>2026-04-03T07:11:13.874Z</time></trkpt><trkpt lat="45.1976016" lon="9.1260574"><ele>77.0</ele><time>2026-04-03T07:11:14.875Z</time></trkpt><trkpt lat="45.1974533" lon="9.1263249"><ele>77.0</ele><time>2026-04-03T07:11:15.875Z</time></trkpt><trkpt lat="45.197305" lon="9.1265968"><ele>73.5</ele><time>2026-04-03T07:11:16.875Z</time></trkpt><trkpt lat="45.197158" lon="9.1268686"><ele>70.0</ele><time>2026-04-03T07:11:17.875Z</time></trkpt><trkpt lat="45.1970112" lon="9.1271466"><ele>70.0</ele><time>2026-04-03T07:11:18.875Z</time></trkpt><trkpt lat="45.1968696" lon="9.1274276"><ele>70.0</ele><time>2026-04-03T07:11:19.875Z</time></trkpt><trkpt lat="45.1967316" lon="9.1277054"><ele>70.0</ele><time>2026-04-03T07:11:20.875Z</time></trkpt><trkpt lat="45.1965973" lon="9.1279813"><ele>70.0</ele><time>2026-04-03T07:11:21.875Z</time></trkpt><trkpt lat="45.1964688" lon="9.1282533"><ele>68.0</ele><time>2026-04-03T07:11:22.875Z</time></trkpt><trkpt lat="45.1963444" lon="9.1285267"><ele>66.0</ele><time>2026-04-03T07:11:23.874Z</time></trkpt><trkpt lat="45.1962233" lon="9.1288002"><ele>66.0</ele><time>2026-04-03T07:11:24.875Z</time></trkpt><trkpt lat="45.1961074" lon="9.1290769"><ele>66.0</ele><time>2026-04-03T07:11:25.875Z</time></trkpt><trkpt lat="45.1959939" lon="9.12935"><ele>66.0</ele><time>2026-04-03T07:11:26.875Z</time></trkpt><trkpt lat="45.1958771" lon="9.1296227"><ele>66.0</ele><time>2026-04-03T07:11:27.874Z</time></trkpt><trkpt lat="45.1957606" lon="9.1298929"><ele>66.0</ele><time>2026-04-03T07:11:28.875Z</time></trkpt><trkpt lat="45.1956414" lon="9.1301625"><ele>66.0</ele><time>2026-04-03T07:11:29.874Z</time></trkpt><trkpt lat="45.195527" lon="9.1304283"><ele>66.0</ele><time>2026-04-03T07:11:30.874Z</time></trkpt><trkpt lat="45.1954148" lon="9.1306911"><ele>66.0</ele><time>2026-04-03T07:11:31.875Z</time></trkpt><trkpt lat="45.1953069" lon="9.1309495"><ele>66.0</ele><time>2026-04-03T07:11:32.875Z</time></trkpt><trkpt lat="45.1951955" lon="9.1312095"><ele>66.0</ele><time>2026-04-03T07:11:33.875Z</time></trkpt><trkpt lat="45.1950875" lon="9.1314705"><ele>66.0</ele><time>2026-04-03T07:11:34.875Z</time></trkpt><trkpt lat="45.1949766" lon="9.1317334"><ele>65.66666666666667</ele><time>2026-04-03T07:11:35.875Z</time></trkpt><trkpt lat="45.194864" lon="9.1319939"><ele>65.33333333333334</ele><time>2026-04-03T07:11:36.874Z</time></trkpt><trkpt lat="45.1947544" lon="9.132247"><ele>65.0</ele><time>2026-04-03T07:11:37.875Z</time></trkpt><trkpt lat="45.1946505" lon="9.1324905"><ele>65.66666666666667</ele><time>2026-04-03T07:11:38.875Z</time></trkpt><trkpt lat="45.1945542" lon="9.132722"><ele>66.33333333333333</ele><time>2026-04-03T07:11:39.875Z</time></trkpt><trkpt lat="45.194465" lon="9.1329392"><ele>67.0</ele><time>2026-04-03T07:11:40.874Z</time></trkpt><trkpt lat="45.1943838" lon="9.1331321"><ele>67.5</ele><time>2026-04-03T07:11:41.875Z</time></trkpt><trkpt lat="45.1943024" lon="9.133289"><ele>68.0</ele><time>2026-04-03T07:11:42.874Z</time></trkpt><trkpt lat="45.1942028" lon="9.1333944"><ele>68.5</ele><time>2026-04-03T07:11:43.875Z</time></trkpt><trkpt lat="45.1940885" lon="9.1334472"><ele>69.0</ele><time>2026-04-03T07:11:44.875Z</time></trkpt><trkpt lat="45.1939656" lon="9.133458"><ele>69.0</ele><time>2026-04-03T07:11:45.875Z</time></trkpt><trkpt lat="45.1938329" lon="9.1334215"><ele>69.0</ele><time>2026-04-03T07:11:46.874Z</time></trkpt><trkpt lat="45.1936975" lon="9.1333456"><ele>69.0</ele><time>2026-04-03T07:11:47.874Z</time></trkpt><trkpt lat="45.1935633" lon="9.1332414"><ele>69.0</ele><time>2026-04-03T07:11:48.875Z</time></trkpt><trkpt lat="45.1934319" lon="9.1331103"><ele>69.0</ele><time>2026-04-03T07:11:49.875Z</time></trkpt><trkpt lat="45.1932996" lon="9.1329617"><ele>69.0</ele><time>2026-04-03T07:11:50.875Z</time></trkpt><trkpt lat="45.1931721" lon="9.1328094"><ele>69.0</ele><time>2026-04-03T07:11:51.874Z</time></trkpt><trkpt lat="45.1930454" lon="9.1326472"><ele>69.0</ele><time>2026-04-03T07:11:52.874Z</time></trkpt><trkpt lat="45.1929205" lon="9.1324775"><ele>69.0</ele><time>2026-04-03T07:11:53.875Z</time></trkpt><trkpt lat="45.192798" lon="9.1322967"><ele>69.0</ele><time>2026-04-03T07:11:54.875Z</time></trkpt><trkpt lat="45.1926773" lon="9.1321055"><ele>68.33333333333333</ele><time>2026-04-03T07:11:55.875Z</time></trkpt><trkpt lat="45.1925619" lon="9.1319151"><ele>67.66666666666666</ele><time>2026-04-03T07:11:56.875Z</time></trkpt><trkpt lat="45.1924536" lon="9.131727"><ele>67.0</ele><time>2026-04-03T07:11:57.874Z</time></trkpt><trkpt lat="45.1923434" lon="9.1315337"><ele>66.66666666666666</ele><time>2026-04-03T07:11:58.875Z</time></trkpt><trkpt lat="45.1922341" lon="9.131338"><ele>66.33333333333333</ele><time>2026-04-03T07:11:59.875Z</time></trkpt><trkpt lat="45.1921229" lon="9.1311379"><ele>66.0</ele><time>2026-04-03T07:12:00.875Z</time></trkpt><trkpt lat="45.1920083" lon="9.130927"><ele>65.33333333333333</ele><time>2026-04-03T07:12:01.874Z</time></trkpt><trkpt lat="45.1918916" lon="9.1307067"><ele>64.66666666666666</ele><time>2026-04-03T07:12:02.875Z</time></trkpt><trkpt lat="45.1917685" lon="9.1304706"><ele>64.0</ele><time>2026-04-03T07:12:03.875Z</time></trkpt><trkpt lat="45.1916433" lon="9.1302262"><ele>64.0</ele><time>2026-04-03T07:12:04.875Z</time></trkpt><trkpt lat="45.191521" lon="9.1299672"><ele>64.0</ele><time>2026-04-03T07:12:05.874Z</time></trkpt><trkpt lat="45.1913985" lon="9.1296904"><ele>64.5</ele><time>2026-04-03T07:12:06.874Z</time></trkpt><trkpt lat="45.1912747" lon="9.1294063"><ele>65.0</ele><time>2026-04-03T07:12:07.874Z</time></trkpt><trkpt lat="45.1911496" lon="9.1291225"><ele>64.0</ele><time>2026-04-03T07:12:08.874Z</time></trkpt><trkpt lat="45.1910219" lon="9.1288379"><ele>63.0</ele><time>2026-04-03T07:12:09.874Z</time></trkpt><trkpt lat="45.1908878" lon="9.1285543"><ele>63.0</ele><time>2026-04-03T07:12:10.875Z</time></trkpt><trkpt lat="45.1907466" lon="9.1282739"><ele>63.0</ele><time>2026-04-03T07:12:11.875Z</time></trkpt><trkpt lat="45.1905956" lon="9.128004"><ele>64.5</ele><time>2026-04-03T07:12:12.875Z</time></trkpt><trkpt lat="45.1904378" lon="9.127737"><ele>66.0</ele><time>2026-04-03T07:12:13.875Z</time></trkpt><trkpt lat="45.1902764" lon="9.1274701"><ele>65.5</ele><time>2026-04-03T07:12:14.875Z</time></trkpt><trkpt lat="45.1901053" lon="9.1272133"><ele>65.0</ele><time>2026-04-03T07:12:15.874Z</time></trkpt><trkpt lat="45.1899256" lon="9.1269652"><ele>65.0</ele><time>2026-04-03T07:12:16.875Z</time></trkpt><trkpt lat="45.1897411" lon="9.1267264"><ele>65.0</ele><time>2026-04-03T07:12:17.874Z</time></trkpt><trkpt lat="45.1895536" lon="9.1264951"><ele>65.0</ele><time>2026-04-03T07:12:18.875Z</time></trkpt><trkpt lat="45.1893614" lon="9.1262711"><ele>65.0</ele><time>2026-04-03T07:12:19.875Z</time></trkpt><trkpt lat="45.189164" lon="9.1260565"><ele>65.0</ele><time>2026-04-03T07:12:20.875Z</time></trkpt><trkpt lat="45.188961" lon="9.1258514"><ele>65.0</ele><time>2026-04-03T07:12:21.874Z</time></trkpt><trkpt lat="45.1887534" lon="9.1256546"><ele>65.0</ele><time>2026-04-03T07:12:22.875Z</time></trkpt><trkpt lat="45.1885397" lon="9.1254675"><ele>65.0</ele><time>2026-04-03T07:12:23.875Z</time></trkpt><trkpt lat="45.1883231" lon="9.1252867"><ele>64.5</ele><time>2026-04-03T07:12:24.874Z</time></trkpt><trkpt lat="45.1881009" lon="9.1251104"><ele>64.0</ele><time>2026-04-03T07:12:25.875Z</time></trkpt><trkpt lat="45.1878759" lon="9.1249427"><ele>62.5</ele><time>2026-04-03T07:12:26.875Z</time></trkpt><trkpt lat="45.1876446" lon="9.1247874"><ele>61.0</ele><time>2026-04-03T07:12:27.874Z</time></trkpt><trkpt lat="45.187408" lon="9.124652"><ele>60.5</ele><time>2026-04-03T07:12:28.875Z</time></trkpt><trkpt lat="45.1871645" lon="9.1245407"><ele>60.0</ele><time>2026-04-03T07:12:29.875Z</time></trkpt><trkpt lat="45.1869186" lon="9.1244361"><ele>60.0</ele><time>2026-04-03T07:12:30.875Z</time></trkpt><trkpt lat="45.1866712" lon="9.1243322"><ele>60.0</ele><time>2026-04-03T07:12:31.875Z</time></trkpt><trkpt lat="45.1864218" lon="9.1242375"><ele>60.0</ele><time>2026-04-03T07:12:32.875Z</time></trkpt><trkpt lat="45.1861696" lon="9.1241543"><ele>60.0</ele><time>2026-04-03T07:12:33.875Z</time></trkpt><trkpt lat="45.1859134" lon="9.1240862"><ele>59.5</ele><time>2026-04-03T07:12:34.875Z</time></trkpt><trkpt lat="45.1856564" lon="9.1240305"><ele>59.0</ele><time>2026-04-03T07:12:35.875Z</time></trkpt><trkpt lat="45.1853995" lon="9.123983"><ele>59.0</ele><time>2026-04-03T07:12:36.874Z</time></trkpt><trkpt lat="45.1851435" lon="9.1239465"><ele>59.0</ele><time>2026-04-03T07:12:37.874Z</time></trkpt><trkpt lat="45.1848859" lon="9.1239224"><ele>58.5</ele><time>2026-04-03T07:12:38.875Z</time></trkpt><trkpt lat="45.1846283" lon="9.1239136"><ele>58.0</ele><time>2026-04-03T07:12:39.875Z</time></trkpt><trkpt lat="45.1843694" lon="9.1239229"><ele>58.0</ele><time>2026-04-03T07:12:40.875Z</time></trkpt><trkpt lat="45.1841119" lon="9.1239402"><ele>58.0</ele><time>2026-04-03T07:12:41.875Z</time></trkpt><trkpt lat="45.1838551" lon="9.1239654"><ele>58.0</ele><time>2026-04-03T07:12:42.875Z</time></trkpt><trkpt lat="45.1835992" lon="9.1239978"><ele>58.0</ele><time>2026-04-03T07:12:43.875Z</time></trkpt><trkpt lat="45.1833423" lon="9.1240393"><ele>60.5</ele><time>2026-04-03T07:12:44.875Z</time></trkpt><trkpt lat="45.1830862" lon="9.1240879"><ele>63.0</ele><time>2026-04-03T07:12:45.875Z</time></trkpt><trkpt lat="45.1828312" lon="9.1241342"><ele>63.0</ele><time>2026-04-03T07:12:46.875Z</time></trkpt><trkpt lat="45.1825742" lon="9.1241837"><ele>63.0</ele><time>2026-04-03T07:12:47.875Z</time></trkpt><trkpt lat="45.1823191" lon="9.1242321"><ele>62.5</ele><time>2026-04-03T07:12:48.875Z</time></trkpt><trkpt lat="45.1820647" lon="9.1242839"><ele>62.0</ele><time>2026-04-03T07:12:49.875Z</time></trkpt><trkpt lat="45.1818125" lon="9.1243421"><ele>62.0</ele><time>2026-04-03T07:12:50.875Z</time></trkpt><trkpt lat="45.1815619" lon="9.1244127"><ele>62.0</ele><time>2026-04-03T07:12:51.875Z</time></trkpt><trkpt lat="45.1813152" lon="9.124492"><ele>61.0</ele><time>2026-04-03T07:12:52.875Z</time></trkpt><trkpt lat="45.1810723" lon="9.1245829"><ele>60.0</ele><time>2026-04-03T07:12:53.875Z</time></trkpt><trkpt lat="45.1808344" lon="9.1246829"><ele>60.5</ele><time>2026-04-03T07:12:54.875Z</time></trkpt><trkpt lat="45.1806002" lon="9.1247878"><ele>61.0</ele><time>2026-04-03T07:12:55.875Z</time></trkpt><trkpt lat="45.1803687" lon="9.1248957"><ele>61.0</ele><time>2026-04-03T07:12:56.875Z</time></trkpt><trkpt lat="45.1801418" lon="9.1250134"><ele>61.0</ele><time>2026-04-03T07:12:57.874Z</time></trkpt><trkpt lat="45.179925" lon="9.1251419"><ele>62.0</ele><time>2026-04-03T07:12:58.875Z</time></trkpt><trkpt lat="45.1797131" lon="9.1252746"><ele>63.0</ele><time>2026-04-03T07:12:59.874Z</time></trkpt><trkpt lat="45.1795108" lon="9.1254099"><ele>63.0</ele><time>2026-04-03T07:13:00.875Z</time></trkpt><trkpt lat="45.1793168" lon="9.1255422"><ele>63.0</ele><time>2026-04-03T07:13:01.875Z</time></trkpt><trkpt lat="45.1791246" lon="9.1256732"><ele>63.0</ele><time>2026-04-03T07:13:02.873Z</time></trkpt><trkpt lat="45.1789339" lon="9.1258002"><ele>62.0</ele><time>2026-04-03T07:13:03.874Z</time></trkpt><trkpt lat="45.1787432" lon="9.125925"><ele>61.0</ele><time>2026-04-03T07:13:04.875Z</time></trkpt><trkpt lat="45.1785522" lon="9.1260505"><ele>60.0</ele><time>2026-04-03T07:13:05.875Z</time></trkpt><trkpt lat="45.1783635" lon="9.1261767"><ele>59.33333333333333</ele><time>2026-04-03T07:13:06.875Z</time></trkpt><trkpt lat="45.1781769" lon="9.1263076"><ele>58.666666666666664</ele><time>2026-04-03T07:13:07.875Z</time></trkpt><trkpt lat="45.1779912" lon="9.1264374"><ele>58.0</ele><time>2026-04-03T07:13:08.875Z</time></trkpt><trkpt lat="45.1778055" lon="9.126564"><ele>58.0</ele><time>2026-04-03T07:13:09.875Z</time></trkpt><trkpt lat="45.1776187" lon="9.1266907"><ele>58.0</ele><time>2026-04-03T07:13:10.874Z</time></trkpt><trkpt lat="45.1774305" lon="9.1268215"><ele>58.0</ele><time>2026-04-03T07:13:11.875Z</time></trkpt><trkpt lat="45.1772418" lon="9.1269518"><ele>58.0</ele><time>2026-04-03T07:13:12.875Z</time></trkpt><trkpt lat="45.1770497" lon="9.1270859"><ele>58.0</ele><time>2026-04-03T07:13:13.874Z</time></trkpt><trkpt lat="45.1768583" lon="9.1272188"><ele>58.0</ele><time>2026-04-03T07:13:14.875Z</time></trkpt><trkpt lat="45.1766716" lon="9.1273468"><ele>59.33333333333333</ele><time>2026-04-03T07:13:15.875Z</time></trkpt><trkpt lat="45.1764924" lon="9.1274702"><ele>60.66666666666667</ele><time>2026-04-03T07:13:16.875Z</time></trkpt><trkpt lat="45.1763182" lon="9.1275876"><ele>62.0</ele><time>2026-04-03T07:13:17.874Z</time></trkpt><trkpt lat="45.1761455" lon="9.1276933"><ele>62.0</ele><time>2026-04-03T07:13:18.875Z</time></trkpt><trkpt lat="45.1759777" lon="9.1277903"><ele>62.0</ele><time>2026-04-03T07:13:19.875Z</time></trkpt><trkpt lat="45.1758086" lon="9.1278748"><ele>62.0</ele><time>2026-04-03T07:13:20.874Z</time></trkpt><trkpt lat="45.1756369" lon="9.1279426"><ele>61.333333333333336</ele><time>2026-04-03T07:13:21.875Z</time></trkpt><trkpt lat="45.175466" lon="9.1279928"><ele>60.66666666666667</ele><time>2026-04-03T07:13:22.874Z</time></trkpt><trkpt lat="45.175296" lon="9.128025"><ele>60.0</ele><time>2026-04-03T07:13:23.875Z</time></trkpt><trkpt lat="45.1751231" lon="9.1280409"><ele>60.0</ele><time>2026-04-03T07:13:24.875Z</time></trkpt><trkpt lat="45.1749495" lon="9.1280508"><ele>60.0</ele><time>2026-04-03T07:13:25.875Z</time></trkpt><trkpt lat="45.1747768" lon="9.1280525"><ele>60.0</ele><time>2026-04-03T07:13:26.875Z</time></trkpt><trkpt lat="45.1746048" lon="9.128038"><ele>59.33333333333333</ele><time>2026-04-03T07:13:27.874Z</time></trkpt><trkpt lat="45.1744354" lon="9.1280073"><ele>58.666666666666664</ele><time>2026-04-03T07:13:28.875Z</time></trkpt><trkpt lat="45.1742651" lon="9.1279609"><ele>58.0</ele><time>2026-04-03T07:13:29.874Z</time></trkpt><trkpt lat="45.1740957" lon="9.1278954"><ele>58.0</ele><time>2026-04-03T07:13:30.874Z</time></trkpt><trkpt lat="45.1739273" lon="9.1278208"><ele>58.0</ele><time>2026-04-03T07:13:31.875Z</time></trkpt><trkpt lat="45.1737598" lon="9.127734"><ele>58.0</ele><time>2026-04-03T07:13:32.875Z</time></trkpt><trkpt lat="45.1735965" lon="9.1276331"><ele>58.0</ele><time>2026-04-03T07:13:33.875Z</time></trkpt><trkpt lat="45.1734348" lon="9.1275185"><ele>58.0</ele><time>2026-04-03T07:13:34.875Z</time></trkpt><trkpt lat="45.1732791" lon="9.1273935"><ele>58.0</ele><time>2026-04-03T07:13:35.875Z</time></trkpt><trkpt lat="45.1731296" lon="9.1272517"><ele>58.0</ele><time>2026-04-03T07:13:36.875Z</time></trkpt><trkpt lat="45.1729858" lon="9.127099"><ele>58.0</ele><time>2026-04-03T07:13:37.874Z</time></trkpt><trkpt lat="45.1728467" lon="9.1269347"><ele>58.0</ele><time>2026-04-03T07:13:38.875Z</time></trkpt><trkpt lat="45.1727104" lon="9.1267636"><ele>58.0</ele><time>2026-04-03T07:13:39.874Z</time></trkpt><trkpt lat="45.172574" lon="9.1265875"><ele>58.0</ele><time>2026-04-03T07:13:40.874Z</time></trkpt><trkpt lat="45.1724362" lon="9.1264133"><ele>58.0</ele><time>2026-04-03T07:13:41.875Z</time></trkpt><trkpt lat="45.1722993" lon="9.1262343"><ele>58.33333333333333</ele><time>2026-04-03T07:13:42.874Z</time></trkpt><trkpt lat="45.1721599" lon="9.126058"><ele>58.66666666666667</ele><time>2026-04-03T07:13:43.875Z</time></trkpt><trkpt lat="45.1720235" lon="9.1258778"><ele>59.0</ele><time>2026-04-03T07:13:44.874Z</time></trkpt><trkpt lat="45.1718862" lon="9.1256995"><ele>59.0</ele><time>2026-04-03T07:13:45.874Z</time></trkpt><trkpt lat="45.1717482" lon="9.1255211"><ele>59.0</ele><time>2026-04-03T07:13:46.875Z</time></trkpt><trkpt lat="45.1716105" lon="9.1253436"><ele>59.0</ele><time>2026-04-03T07:13:47.875Z</time></trkpt><trkpt lat="45.1714697" lon="9.1251682"><ele>59.66666666666667</ele><time>2026-04-03T07:13:48.875Z</time></trkpt><trkpt lat="45.1713265" lon="9.1249935"><ele>60.33333333333333</ele><time>2026-04-03T07:13:49.875Z</time></trkpt><trkpt lat="45.1711824" lon="9.1248234"><ele>61.0</ele><time>2026-04-03T07:13:50.875Z</time></trkpt><trkpt lat="45.1710332" lon="9.1246517"><ele>61.0</ele><time>2026-04-03T07:13:51.875Z</time></trkpt><trkpt lat="45.1708755" lon="9.124486"><ele>61.0</ele><time>2026-04-03T07:13:52.874Z</time></trkpt><trkpt lat="45.1707137" lon="9.1243324"><ele>61.0</ele><time>2026-04-03T07:13:53.875Z</time></trkpt><trkpt lat="45.1705489" lon="9.1241806"><ele>61.0</ele><time>2026-04-03T07:13:54.874Z</time></trkpt><trkpt lat="45.1703825" lon="9.1240317"><ele>61.0</ele><time>2026-04-03T07:13:55.874Z</time></trkpt><trkpt lat="45.1702123" lon="9.1238866"><ele>61.0</ele><time>2026-04-03T07:13:56.875Z</time></trkpt><trkpt lat="45.1700395" lon="9.1237477"><ele>61.0</ele><time>2026-04-03T07:13:57.875Z</time></trkpt><trkpt lat="45.1698697" lon="9.1236213"><ele>61.0</ele><time>2026-04-03T07:13:58.875Z</time></trkpt><trkpt lat="45.1697044" lon="9.1235067"><ele>61.0</ele><time>2026-04-03T07:13:59.875Z</time></trkpt><trkpt lat="45.1695411" lon="9.1233933"><ele>60.666666666666664</ele><time>2026-04-03T07:14:00.875Z</time></trkpt><trkpt lat="45.1693787" lon="9.123283"><ele>60.33333333333333</ele><time>2026-04-03T07:14:01.875Z</time></trkpt><trkpt lat="45.1692183" lon="9.1231796"><ele>60.0</ele><time>2026-04-03T07:14:02.875Z</time></trkpt><trkpt lat="45.1690642" lon="9.1230829"><ele>60.0</ele><time>2026-04-03T07:14:03.874Z</time></trkpt><trkpt lat="45.1689188" lon="9.1229911"><ele>60.0</ele><time>2026-04-03T07:14:04.874Z</time></trkpt><trkpt lat="45.1687811" lon="9.1229078"><ele>60.0</ele><time>2026-04-03T07:14:05.875Z</time></trkpt><trkpt lat="45.1686468" lon="9.1228279"><ele>60.0</ele><time>2026-04-03T07:14:06.874Z</time></trkpt><trkpt lat="45.1685099" lon="9.1227496"><ele>60.0</ele><time>2026-04-03T07:14:07.875Z</time></trkpt><trkpt lat="45.1683704" lon="9.1226699"><ele>60.0</ele><time>2026-04-03T07:14:08.874Z</time></trkpt><trkpt lat="45.1682306" lon="9.1225942"><ele>60.0</ele><time>2026-04-03T07:14:09.874Z</time></trkpt><trkpt lat="45.1680941" lon="9.1225232"><ele>60.25</ele><time>2026-04-03T07:14:10.874Z</time></trkpt><trkpt lat="45.1679699" lon="9.122454"><ele>60.5</ele><time>2026-04-03T07:14:11.875Z</time></trkpt><trkpt lat="45.167856" lon="9.1223895"><ele>60.75</ele><time>2026-04-03T07:14:12.874Z</time></trkpt><trkpt lat="45.1677513" lon="9.1223275"><ele>61.0</ele><time>2026-04-03T07:14:13.874Z</time></trkpt><trkpt lat="45.1676574" lon="9.1222656"><ele>61.199999999999996</ele><time>2026-04-03T07:14:14.874Z</time></trkpt><trkpt lat="45.1675821" lon="9.1222102"><ele>61.39999999999999</ele><time>2026-04-03T07:14:15.875Z</time></trkpt><trkpt lat="45.1674981" lon="9.1221289"><ele>61.6</ele><time>2026-04-03T07:14:17.875Z</time></trkpt><trkpt lat="45.1674476" lon="9.1220261"><ele>61.8</ele><time>2026-04-03T07:14:19.875Z</time></trkpt><trkpt lat="45.16745" lon="9.1218519"><ele>62.0</ele><time>2026-04-03T07:14:21.875Z</time></trkpt><trkpt lat="45.1674792" lon="9.1217477"><ele>62.0</ele><time>2026-04-03T07:14:22.875Z</time></trkpt><trkpt lat="45.1675124" lon="9.1216316"><ele>62.0</ele><time>2026-04-03T07:14:23.875Z</time></trkpt><trkpt lat="45.1675439" lon="9.1215078"><ele>62.0</ele><time>2026-04-03T07:14:24.875Z</time></trkpt><trkpt lat="45.1675785" lon="9.1213821"><ele>62.0</ele><time>2026-04-03T07:14:25.874Z</time></trkpt><trkpt lat="45.1676096" lon="9.1212584"><ele>62.0</ele><time>2026-04-03T07:14:26.874Z</time></trkpt><trkpt lat="45.1676404" lon="9.1211346"><ele>61.6</ele><time>2026-04-03T07:14:27.875Z</time></trkpt><trkpt lat="45.1676733" lon="9.1210098"><ele>61.2</ele><time>2026-04-03T07:14:28.875Z</time></trkpt><trkpt lat="45.1677049" lon="9.1208807"><ele>60.8</ele><time>2026-04-03T07:14:29.874Z</time></trkpt><trkpt lat="45.1677362" lon="9.1207417"><ele>60.4</ele><time>2026-04-03T07:14:30.875Z</time></trkpt><trkpt lat="45.1677689" lon="9.1205982"><ele>60.0</ele><time>2026-04-03T07:14:31.875Z</time></trkpt><trkpt lat="45.1678045" lon="9.120445"><ele>59.75</ele><time>2026-04-03T07:14:32.875Z</time></trkpt><trkpt lat="45.1678466" lon="9.1202856"><ele>59.5</ele><time>2026-04-03T07:14:33.875Z</time></trkpt><trkpt lat="45.1678918" lon="9.1201155"><ele>59.25</ele><time>2026-04-03T07:14:34.874Z</time></trkpt><trkpt lat="45.1679355" lon="9.1199501"><ele>59.0</ele><time>2026-04-03T07:14:35.874Z</time></trkpt><trkpt lat="45.1679806" lon="9.1197845"><ele>59.0</ele><time>2026-04-03T07:14:36.874Z</time></trkpt><trkpt lat="45.1680228" lon="9.1196191"><ele>59.0</ele><time>2026-04-03T07:14:37.875Z</time></trkpt><trkpt lat="45.168065" lon="9.1194522"><ele>59.0</ele><time>2026-04-03T07:14:38.875Z</time></trkpt><trkpt lat="45.1681054" lon="9.119288"><ele>59.0</ele><time>2026-04-03T07:14:39.875Z</time></trkpt><trkpt lat="45.1681368" lon="9.1191226"><ele>58.25</ele><time>2026-04-03T07:14:40.874Z</time></trkpt><trkpt lat="45.1681544" lon="9.1189557"><ele>57.5</ele><time>2026-04-03T07:14:41.875Z</time></trkpt><trkpt lat="45.1681565" lon="9.1187839"><ele>56.75</ele><time>2026-04-03T07:14:42.875Z</time></trkpt><trkpt lat="45.1681454" lon="9.118604"><ele>56.0</ele><time>2026-04-03T07:14:43.875Z</time></trkpt><trkpt lat="45.1681218" lon="9.1184205"><ele>55.75</ele><time>2026-04-03T07:14:44.875Z</time></trkpt><trkpt lat="45.1680881" lon="9.1182346"><ele>55.5</ele><time>2026-04-03T07:14:45.875Z</time></trkpt><trkpt lat="45.1680491" lon="9.1180398"><ele>55.25</ele><time>2026-04-03T07:14:46.875Z</time></trkpt><trkpt lat="45.1680081" lon="9.1178368"><ele>55.0</ele><time>2026-04-03T07:14:47.875Z</time></trkpt><trkpt lat="45.1679693" lon="9.117628"><ele>55.0</ele><time>2026-04-03T07:14:48.875Z</time></trkpt><trkpt lat="45.1679317" lon="9.1174183"><ele>55.0</ele><time>2026-04-03T07:14:49.875Z</time></trkpt><trkpt lat="45.1678914" lon="9.1172078"><ele>55.0</ele><time>2026-04-03T07:14:50.874Z</time></trkpt><trkpt lat="45.1678491" lon="9.1169966"><ele>55.5</ele><time>2026-04-03T07:14:51.875Z</time></trkpt><trkpt lat="45.1678071" lon="9.1167872"><ele>56.0</ele><time>2026-04-03T07:14:52.875Z</time></trkpt><trkpt lat="45.1677725" lon="9.1165841"><ele>56.5</ele><time>2026-04-03T07:14:53.874Z</time></trkpt><trkpt lat="45.1677489" lon="9.1163871"><ele>57.0</ele><time>2026-04-03T07:14:54.874Z</time></trkpt><trkpt lat="45.1677423" lon="9.1161901"><ele>57.0</ele><time>2026-04-03T07:14:55.875Z</time></trkpt><trkpt lat="45.1677563" lon="9.1159971"><ele>57.0</ele><time>2026-04-03T07:14:56.875Z</time></trkpt><trkpt lat="45.1677949" lon="9.1158114"><ele>57.0</ele><time>2026-04-03T07:14:57.875Z</time></trkpt><trkpt lat="45.1678507" lon="9.1156351"><ele>57.0</ele><time>2026-04-03T07:14:58.875Z</time></trkpt><trkpt lat="45.1679246" lon="9.1154729"><ele>57.5</ele><time>2026-04-03T07:14:59.875Z</time></trkpt><trkpt lat="45.1680166" lon="9.1153219"><ele>58.0</ele><time>2026-04-03T07:15:00.875Z</time></trkpt><trkpt lat="45.1681262" lon="9.11519"><ele>58.5</ele><time>2026-04-03T07:15:01.875Z</time></trkpt><trkpt lat="45.1682419" lon="9.115076"><ele>59.0</ele><time>2026-04-03T07:15:02.874Z</time></trkpt><trkpt lat="45.1683541" lon="9.1149604"><ele>59.0</ele><time>2026-04-03T07:15:03.875Z</time></trkpt><trkpt lat="45.1684679" lon="9.1148496"><ele>59.0</ele><time>2026-04-03T07:15:04.874Z</time></trkpt><trkpt lat="45.1685835" lon="9.1147407"><ele>59.0</ele><time>2026-04-03T07:15:05.875Z</time></trkpt><trkpt lat="45.168702" lon="9.1146308"><ele>59.0</ele><time>2026-04-03T07:15:06.875Z</time></trkpt><trkpt lat="45.168824" lon="9.1145198"><ele>59.0</ele><time>2026-04-03T07:15:07.875Z</time></trkpt><trkpt lat="45.168942" lon="9.1144005"><ele>59.0</ele><time>2026-04-03T07:15:08.875Z</time></trkpt><trkpt lat="45.1690519" lon="9.1142701"><ele>59.0</ele><time>2026-04-03T07:15:09.874Z</time></trkpt><trkpt lat="45.1691527" lon="9.1141342"><ele>59.0</ele><time>2026-04-03T07:15:10.875Z</time></trkpt><trkpt lat="45.1692538" lon="9.1139951"><ele>58.5</ele><time>2026-04-03T07:15:11.875Z</time></trkpt><trkpt lat="45.169354" lon="9.1138495"><ele>58.0</ele><time>2026-04-03T07:15:12.875Z</time></trkpt><trkpt lat="45.1694579" lon="9.1137042"><ele>57.5</ele><time>2026-04-03T07:15:13.875Z</time></trkpt><trkpt lat="45.16956" lon="9.113554"><ele>57.0</ele><time>2026-04-03T07:15:14.874Z</time></trkpt><trkpt lat="45.1696644" lon="9.1134016"><ele>57.0</ele><time>2026-04-03T07:15:15.874Z</time></trkpt><trkpt lat="45.1697748" lon="9.1132464"><ele>57.0</ele><time>2026-04-03T07:15:16.874Z</time></trkpt><trkpt lat="45.1698874" lon="9.1130861"><ele>57.0</ele><time>2026-04-03T07:15:17.874Z</time></trkpt><trkpt lat="45.1700014" lon="9.1129223"><ele>56.66666666666667</ele><time>2026-04-03T07:15:18.875Z</time></trkpt><trkpt lat="45.1701172" lon="9.1127571"><ele>56.333333333333336</ele><time>2026-04-03T07:15:19.875Z</time></trkpt><trkpt lat="45.1702369" lon="9.1125884"><ele>56.0</ele><time>2026-04-03T07:15:20.874Z</time></trkpt><trkpt lat="45.1703604" lon="9.1124229"><ele>56.333333333333336</ele><time>2026-04-03T07:15:21.875Z</time></trkpt><trkpt lat="45.1704837" lon="9.1122571"><ele>56.66666666666667</ele><time>2026-04-03T07:15:22.875Z</time></trkpt><trkpt lat="45.170611" lon="9.112089"><ele>57.0</ele><time>2026-04-03T07:15:23.874Z</time></trkpt><trkpt lat="45.170743" lon="9.1119186"><ele>57.0</ele><time>2026-04-03T07:15:24.875Z</time></trkpt><trkpt lat="45.1708773" lon="9.1117457"><ele>57.0</ele><time>2026-04-03T07:15:25.875Z</time></trkpt><trkpt lat="45.171014" lon="9.1115685"><ele>57.0</ele><time>2026-04-03T07:15:26.874Z</time></trkpt><trkpt lat="45.1711517" lon="9.1113952"><ele>57.0</ele><time>2026-04-03T07:15:27.874Z</time></trkpt><trkpt lat="45.1712843" lon="9.1112281"><ele>57.0</ele><time>2026-04-03T07:15:28.875Z</time></trkpt><trkpt lat="45.1714098" lon="9.111066"><ele>57.0</ele><time>2026-04-03T07:15:29.875Z</time></trkpt><trkpt lat="45.1715355" lon="9.1109094"><ele>57.0</ele><time>2026-04-03T07:15:30.875Z</time></trkpt><trkpt lat="45.1716604" lon="9.1107546"><ele>57.0</ele><time>2026-04-03T07:15:31.875Z</time></trkpt><trkpt lat="45.1717839" lon="9.1105969"><ele>57.0</ele><time>2026-04-03T07:15:32.874Z</time></trkpt><trkpt lat="45.1719051" lon="9.110438"><ele>57.0</ele><time>2026-04-03T07:15:33.875Z</time></trkpt><trkpt lat="45.1720275" lon="9.1102825"><ele>57.0</ele><time>2026-04-03T07:15:34.875Z</time></trkpt><trkpt lat="45.1721548" lon="9.1101268"><ele>57.0</ele><time>2026-04-03T07:15:35.875Z</time></trkpt><trkpt lat="45.1722813" lon="9.109973"><ele>57.33333333333333</ele><time>2026-04-03T07:15:36.875Z</time></trkpt><trkpt lat="45.1724048" lon="9.1098266"><ele>57.666666666666664</ele><time>2026-04-03T07:15:37.874Z</time></trkpt><trkpt lat="45.1725238" lon="9.1096843"><ele>58.0</ele><time>2026-04-03T07:15:38.875Z</time></trkpt><trkpt lat="45.1726387" lon="9.1095404"><ele>58.0</ele><time>2026-04-03T07:15:39.875Z</time></trkpt><trkpt lat="45.1727432" lon="9.1093845"><ele>58.0</ele><time>2026-04-03T07:15:40.875Z</time></trkpt><trkpt lat="45.1728329" lon="9.1092089"><ele>58.0</ele><time>2026-04-03T07:15:41.875Z</time></trkpt><trkpt lat="45.1729106" lon="9.1090193"><ele>57.33333333333333</ele><time>2026-04-03T07:15:42.874Z</time></trkpt><trkpt lat="45.1729719" lon="9.1088164"><ele>56.66666666666667</ele><time>2026-04-03T07:15:43.875Z</time></trkpt><trkpt lat="45.1730114" lon="9.1086009"><ele>56.0</ele><time>2026-04-03T07:15:44.875Z</time></trkpt><trkpt lat="45.1730279" lon="9.1083807"><ele>56.333333333333336</ele><time>2026-04-03T07:15:45.875Z</time></trkpt><trkpt lat="45.1730258" lon="9.1081584"><ele>56.66666666666667</ele><time>2026-04-03T07:15:46.874Z</time></trkpt><trkpt lat="45.1730129" lon="9.1079345"><ele>57.0</ele><time>2026-04-03T07:15:47.875Z</time></trkpt><trkpt lat="45.1729998" lon="9.1077083"><ele>57.0</ele><time>2026-04-03T07:15:48.875Z</time></trkpt><trkpt lat="45.1729865" lon="9.1074808"><ele>57.0</ele><time>2026-04-03T07:15:49.875Z</time></trkpt><trkpt lat="45.172975" lon="9.1072524"><ele>57.0</ele><time>2026-04-03T07:15:50.875Z</time></trkpt><trkpt lat="45.1729655" lon="9.1070252"><ele>57.33333333333333</ele><time>2026-04-03T07:15:51.874Z</time></trkpt><trkpt lat="45.1729648" lon="9.1067934"><ele>57.666666666666664</ele><time>2026-04-03T07:15:52.874Z</time></trkpt><trkpt lat="45.1729715" lon="9.1065596"><ele>58.0</ele><time>2026-04-03T07:15:53.875Z</time></trkpt><trkpt lat="45.1729792" lon="9.1063207"><ele>58.33333333333333</ele><time>2026-04-03T07:15:54.875Z</time></trkpt><trkpt lat="45.1729873" lon="9.1060704"><ele>58.66666666666667</ele><time>2026-04-03T07:15:55.874Z</time></trkpt><trkpt lat="45.1729975" lon="9.1058173"><ele>59.0</ele><time>2026-04-03T07:15:56.874Z</time></trkpt><trkpt lat="45.1730085" lon="9.1055573"><ele>59.333333333333336</ele><time>2026-04-03T07:15:57.875Z</time></trkpt><trkpt lat="45.1730196" lon="9.1052906"><ele>59.66666666666667</ele><time>2026-04-03T07:15:58.874Z</time></trkpt><trkpt lat="45.1730296" lon="9.1050218"><ele>60.0</ele><time>2026-04-03T07:15:59.874Z</time></trkpt><trkpt lat="45.1730386" lon="9.104756"><ele>60.0</ele><time>2026-04-03T07:16:00.875Z</time></trkpt><trkpt lat="45.1730499" lon="9.1044971"><ele>60.0</ele><time>2026-04-03T07:16:01.875Z</time></trkpt><trkpt lat="45.1730606" lon="9.1042419"><ele>60.0</ele><time>2026-04-03T07:16:02.875Z</time></trkpt><trkpt lat="45.1730728" lon="9.1039973"><ele>60.33333333333333</ele><time>2026-04-03T07:16:03.873Z</time></trkpt><trkpt lat="45.1730848" lon="9.1037591"><ele>60.666666666666664</ele><time>2026-04-03T07:16:04.874Z</time></trkpt><trkpt lat="45.173091" lon="9.1035216"><ele>61.0</ele><time>2026-04-03T07:16:05.875Z</time></trkpt><trkpt lat="45.1730929" lon="9.1032839"><ele>60.666666666666664</ele><time>2026-04-03T07:16:06.875Z</time></trkpt><trkpt lat="45.1730943" lon="9.1030407"><ele>60.33333333333333</ele><time>2026-04-03T07:16:07.874Z</time></trkpt><trkpt lat="45.1730938" lon="9.102792"><ele>60.0</ele><time>2026-04-03T07:16:08.874Z</time></trkpt><trkpt lat="45.1730901" lon="9.1025397"><ele>59.66666666666667</ele><time>2026-04-03T07:16:09.875Z</time></trkpt><trkpt lat="45.1730819" lon="9.1022758"><ele>59.333333333333336</ele><time>2026-04-03T07:16:10.874Z</time></trkpt><trkpt lat="45.1730687" lon="9.1020051"><ele>59.0</ele><time>2026-04-03T07:16:11.875Z</time></trkpt><trkpt lat="45.1730474" lon="9.1017077"><ele>59.0</ele><time>2026-04-03T07:16:12.875Z</time></trkpt><trkpt lat="45.1730269" lon="9.1013851"><ele>59.0</ele><time>2026-04-03T07:16:13.875Z</time></trkpt><trkpt lat="45.1730092" lon="9.101054"><ele>58.5</ele><time>2026-04-03T07:16:14.874Z</time></trkpt><trkpt lat="45.1729919" lon="9.1007212"><ele>58.0</ele><time>2026-04-03T07:16:15.875Z</time></trkpt><trkpt lat="45.1729686" lon="9.1004039"><ele>58.0</ele><time>2026-04-03T07:16:16.874Z</time></trkpt><trkpt lat="45.1729262" lon="9.1000962"><ele>58.0</ele><time>2026-04-03T07:16:17.875Z</time></trkpt><trkpt lat="45.1728684" lon="9.0998007"><ele>58.0</ele><time>2026-04-03T07:16:18.875Z</time></trkpt><trkpt lat="45.1727943" lon="9.0995168"><ele>58.0</ele><time>2026-04-03T07:16:19.874Z</time></trkpt><trkpt lat="45.1727112" lon="9.0992404"><ele>58.0</ele><time>2026-04-03T07:16:20.875Z</time></trkpt><trkpt lat="45.1726268" lon="9.0989628"><ele>58.0</ele><time>2026-04-03T07:16:21.875Z</time></trkpt><trkpt lat="45.1725418" lon="9.0986822"><ele>58.0</ele><time>2026-04-03T07:16:22.875Z</time></trkpt><trkpt lat="45.1724562" lon="9.098403"><ele>58.0</ele><time>2026-04-03T07:16:23.875Z</time></trkpt><trkpt lat="45.1723706" lon="9.0981235"><ele>58.0</ele><time>2026-04-03T07:16:24.875Z</time></trkpt><trkpt lat="45.1722838" lon="9.097847"><ele>58.0</ele><time>2026-04-03T07:16:25.875Z</time></trkpt><trkpt lat="45.1721981" lon="9.0975783"><ele>58.0</ele><time>2026-04-03T07:16:26.875Z</time></trkpt><trkpt lat="45.1721224" lon="9.0973069"><ele>58.0</ele><time>2026-04-03T07:16:27.875Z</time></trkpt><trkpt lat="45.1720582" lon="9.0970357"><ele>58.0</ele><time>2026-04-03T07:16:28.875Z</time></trkpt><trkpt lat="45.1720051" lon="9.0967621"><ele>58.0</ele><time>2026-04-03T07:16:29.875Z</time></trkpt><trkpt lat="45.1719579" lon="9.0964873"><ele>58.0</ele><time>2026-04-03T07:16:30.874Z</time></trkpt><trkpt lat="45.1719157" lon="9.0962108"><ele>58.0</ele><time>2026-04-03T07:16:31.875Z</time></trkpt><trkpt lat="45.1718765" lon="9.095936"><ele>58.0</ele><time>2026-04-03T07:16:32.874Z</time></trkpt><trkpt lat="45.1718377" lon="9.0956601"><ele>58.0</ele><time>2026-04-03T07:16:33.875Z</time></trkpt><trkpt lat="45.1717984" lon="9.0953837"><ele>58.0</ele><time>2026-04-03T07:16:34.875Z</time></trkpt><trkpt lat="45.1717606" lon="9.0951092"><ele>58.0</ele><time>2026-04-03T07:16:35.875Z</time></trkpt><trkpt lat="45.1717213" lon="9.0948329"><ele>58.0</ele><time>2026-04-03T07:16:36.875Z</time></trkpt><trkpt lat="45.1716822" lon="9.0945611"><ele>58.0</ele><time>2026-04-03T07:16:37.874Z</time></trkpt><trkpt lat="45.1716426" lon="9.094293"><ele>58.0</ele><time>2026-04-03T07:16:38.875Z</time></trkpt><trkpt lat="45.1716024" lon="9.0940314"><ele>58.0</ele><time>2026-04-03T07:16:39.874Z</time></trkpt><trkpt lat="45.1715647" lon="9.0937763"><ele>58.0</ele><time>2026-04-03T07:16:40.875Z</time></trkpt><trkpt lat="45.1715264" lon="9.0935324"><ele>58.0</ele><time>2026-04-03T07:16:41.874Z</time></trkpt><trkpt lat="45.1714879" lon="9.0933054"><ele>58.0</ele><time>2026-04-03T07:16:42.874Z</time></trkpt><trkpt lat="45.1714493" lon="9.0930935"><ele>59.0</ele><time>2026-04-03T07:16:43.874Z</time></trkpt><trkpt lat="45.1714105" lon="9.0929034"><ele>60.0</ele><time>2026-04-03T07:16:44.874Z</time></trkpt><trkpt lat="45.1713637" lon="9.0927279"><ele>61.0</ele><time>2026-04-03T07:16:45.874Z</time></trkpt><trkpt lat="45.1713065" lon="9.0925666"><ele>62.0</ele><time>2026-04-03T07:16:46.875Z</time></trkpt><trkpt lat="45.1712335" lon="9.0924192"><ele>62.25</ele><time>2026-04-03T07:16:47.874Z</time></trkpt><trkpt lat="45.1711418" lon="9.0922849"><ele>62.5</ele><time>2026-04-03T07:16:48.875Z</time></trkpt><trkpt lat="45.1710404" lon="9.0921541"><ele>62.75</ele><time>2026-04-03T07:16:49.874Z</time></trkpt><trkpt lat="45.1709369" lon="9.092016"><ele>63.0</ele><time>2026-04-03T07:16:50.875Z</time></trkpt><trkpt lat="45.1708304" lon="9.0918763"><ele>63.0</ele><time>2026-04-03T07:16:51.874Z</time></trkpt><trkpt lat="45.1707248" lon="9.0917351"><ele>63.0</ele><time>2026-04-03T07:16:52.875Z</time></trkpt><trkpt lat="45.1706195" lon="9.0915945"><ele>63.0</ele><time>2026-04-03T07:16:53.874Z</time></trkpt><trkpt lat="45.1705173" lon="9.0914499"><ele>63.0</ele><time>2026-04-03T07:16:54.875Z</time></trkpt><trkpt lat="45.1704201" lon="9.0912989"><ele>62.75</ele><time>2026-04-03T07:16:55.874Z</time></trkpt><trkpt lat="45.1703303" lon="9.0911393"><ele>62.5</ele><time>2026-04-03T07:16:56.875Z</time></trkpt><trkpt lat="45.1702536" lon="9.0909659"><ele>62.25</ele><time>2026-04-03T07:16:57.875Z</time></trkpt><trkpt lat="45.1701906" lon="9.0907775"><ele>62.0</ele><time>2026-04-03T07:16:58.875Z</time></trkpt><trkpt lat="45.1701361" lon="9.0905829"><ele>62.0</ele><time>2026-04-03T07:16:59.875Z</time></trkpt><trkpt lat="45.1700822" lon="9.0903813"><ele>62.0</ele><time>2026-04-03T07:17:00.875Z</time></trkpt><trkpt lat="45.1700269" lon="9.0901715"><ele>62.0</ele><time>2026-04-03T07:17:01.875Z</time></trkpt><trkpt lat="45.1699694" lon="9.0899558"><ele>61.66666666666667</ele><time>2026-04-03T07:17:02.875Z</time></trkpt><trkpt lat="45.1699108" lon="9.0897372"><ele>61.33333333333333</ele><time>2026-04-03T07:17:03.875Z</time></trkpt><trkpt lat="45.1698529" lon="9.0895173"><ele>61.0</ele><time>2026-04-03T07:17:04.875Z</time></trkpt><trkpt lat="45.1697943" lon="9.089302"><ele>61.0</ele><time>2026-04-03T07:17:05.875Z</time></trkpt><trkpt lat="45.1697344" lon="9.0890862"><ele>61.0</ele><time>2026-04-03T07:17:06.875Z</time></trkpt><trkpt lat="45.1696792" lon="9.0888657"><ele>61.0</ele><time>2026-04-03T07:17:07.874Z</time></trkpt><trkpt lat="45.1696265" lon="9.088641"><ele>61.0</ele><time>2026-04-03T07:17:08.875Z</time></trkpt><trkpt lat="45.1695726" lon="9.0884131"><ele>61.0</ele><time>2026-04-03T07:17:09.875Z</time></trkpt><trkpt lat="45.1695209" lon="9.0881871"><ele>61.0</ele><time>2026-04-03T07:17:10.874Z</time></trkpt><trkpt lat="45.1694689" lon="9.0879626"><ele>61.0</ele><time>2026-04-03T07:17:11.875Z</time></trkpt><trkpt lat="45.1694163" lon="9.0877321"><ele>61.0</ele><time>2026-04-03T07:17:12.875Z</time></trkpt><trkpt lat="45.1693636" lon="9.0875007"><ele>61.0</ele><time>2026-04-03T07:17:13.875Z</time></trkpt><trkpt lat="45.1693103" lon="9.0872699"><ele>61.33333333333333</ele><time>2026-04-03T07:17:14.875Z</time></trkpt><trkpt lat="45.1692573" lon="9.0870354"><ele>61.66666666666667</ele><time>2026-04-03T07:17:15.874Z</time></trkpt><trkpt lat="45.1692034" lon="9.086797"><ele>62.0</ele><time>2026-04-03T07:17:16.875Z</time></trkpt><trkpt lat="45.1691507" lon="9.0865604"><ele>62.0</ele><time>2026-04-03T07:17:17.874Z</time></trkpt><trkpt lat="45.1690978" lon="9.0863227"><ele>62.0</ele><time>2026-04-03T07:17:18.875Z</time></trkpt><trkpt lat="45.1690434" lon="9.0860812"><ele>62.0</ele><time>2026-04-03T07:17:19.875Z</time></trkpt><trkpt lat="45.1689897" lon="9.0858375"><ele>62.0</ele><time>2026-04-03T07:17:20.875Z</time></trkpt><trkpt lat="45.1689366" lon="9.0855945"><ele>62.0</ele><time>2026-04-03T07:17:21.875Z</time></trkpt><trkpt lat="45.1688858" lon="9.0853536"><ele>62.0</ele><time>2026-04-03T07:17:22.875Z</time></trkpt><trkpt lat="45.168835" lon="9.0851086"><ele>61.66666666666667</ele><time>2026-04-03T07:17:23.874Z</time></trkpt><trkpt lat="45.1687836" lon="9.0848565"><ele>61.33333333333333</ele><time>2026-04-03T07:17:24.875Z</time></trkpt><trkpt lat="45.1687253" lon="9.0845967"><ele>61.0</ele><time>2026-04-03T07:17:25.874Z</time></trkpt><trkpt lat="45.1686619" lon="9.0843287"><ele>60.666666666666664</ele><time>2026-04-03T07:17:26.874Z</time></trkpt><trkpt lat="45.1686013" lon="9.08406"><ele>60.33333333333333</ele><time>2026-04-03T07:17:27.875Z</time></trkpt><trkpt lat="45.1685452" lon="9.0837786"><ele>60.0</ele><time>2026-04-03T07:17:28.874Z</time></trkpt><trkpt lat="45.1684905" lon="9.0834925"><ele>60.0</ele><time>2026-04-03T07:17:29.875Z</time></trkpt><trkpt lat="45.1684342" lon="9.0832022"><ele>60.0</ele><time>2026-04-03T07:17:30.875Z</time></trkpt><trkpt lat="45.1683776" lon="9.0829085"><ele>60.0</ele><time>2026-04-03T07:17:31.874Z</time></trkpt><trkpt lat="45.1683183" lon="9.0826179"><ele>59.66666666666667</ele><time>2026-04-03T07:17:32.875Z</time></trkpt><trkpt lat="45.1682524" lon="9.082329"><ele>59.333333333333336</ele><time>2026-04-03T07:17:33.875Z</time></trkpt><trkpt lat="45.1681818" lon="9.0820399"><ele>59.0</ele><time>2026-04-03T07:17:34.875Z</time></trkpt><trkpt lat="45.168115" lon="9.0817469"><ele>60.0</ele><time>2026-04-03T07:17:35.875Z</time></trkpt><trkpt lat="45.1680505" lon="9.0814519"><ele>61.0</ele><time>2026-04-03T07:17:36.874Z</time></trkpt><trkpt lat="45.1679885" lon="9.0811549"><ele>62.0</ele><time>2026-04-03T07:17:37.875Z</time></trkpt><trkpt lat="45.1679283" lon="9.0808555"><ele>61.66666666666667</ele><time>2026-04-03T07:17:38.875Z</time></trkpt><trkpt lat="45.1678694" lon="9.080556"><ele>61.33333333333333</ele><time>2026-04-03T07:17:39.875Z</time></trkpt><trkpt lat="45.1678095" lon="9.0802644"><ele>61.0</ele><time>2026-04-03T07:17:40.873Z</time></trkpt><trkpt lat="45.1677476" lon="9.0799771"><ele>61.0</ele><time>2026-04-03T07:17:41.875Z</time></trkpt><trkpt lat="45.1676837" lon="9.0796981"><ele>61.0</ele><time>2026-04-03T07:17:42.874Z</time></trkpt><trkpt lat="45.16762" lon="9.0794254"><ele>61.0</ele><time>2026-04-03T07:17:43.874Z</time></trkpt><trkpt lat="45.1675642" lon="9.0791495"><ele>61.0</ele><time>2026-04-03T07:17:44.875Z</time></trkpt><trkpt lat="45.1675243" lon="9.0788659"><ele>61.0</ele><time>2026-04-03T07:17:45.874Z</time></trkpt><trkpt lat="45.1675032" lon="9.0785733"><ele>61.0</ele><time>2026-04-03T07:17:46.874Z</time></trkpt><trkpt lat="45.1674916" lon="9.0782796"><ele>61.33333333333333</ele><time>2026-04-03T07:17:47.874Z</time></trkpt><trkpt lat="45.1674831" lon="9.0779863"><ele>61.66666666666667</ele><time>2026-04-03T07:17:48.874Z</time></trkpt><trkpt lat="45.1674741" lon="9.0776918"><ele>62.0</ele><time>2026-04-03T07:17:49.875Z</time></trkpt><trkpt lat="45.1674667" lon="9.0774004"><ele>62.0</ele><time>2026-04-03T07:17:50.874Z</time></trkpt><trkpt lat="45.1674606" lon="9.0771098"><ele>62.0</ele><time>2026-04-03T07:17:51.875Z</time></trkpt><trkpt lat="45.1674565" lon="9.0768223"><ele>62.0</ele><time>2026-04-03T07:17:52.875Z</time></trkpt><trkpt lat="45.167451" lon="9.0765361"><ele>62.0</ele><time>2026-04-03T07:17:53.875Z</time></trkpt><trkpt lat="45.167446" lon="9.076248"><ele>62.0</ele><time>2026-04-03T07:17:54.874Z</time></trkpt><trkpt lat="45.1674418" lon="9.0759631"><ele>62.0</ele><time>2026-04-03T07:17:55.875Z</time></trkpt><trkpt lat="45.1674348" lon="9.0756789"><ele>61.333333333333336</ele><time>2026-04-03T07:17:56.875Z</time></trkpt><trkpt lat="45.1674306" lon="9.0753984"><ele>60.66666666666667</ele><time>2026-04-03T07:17:57.875Z</time></trkpt><trkpt lat="45.167427" lon="9.0751184"><ele>60.0</ele><time>2026-04-03T07:17:58.874Z</time></trkpt><trkpt lat="45.167422" lon="9.0748433"><ele>60.0</ele><time>2026-04-03T07:17:59.875Z</time></trkpt><trkpt lat="45.1674155" lon="9.0745666"><ele>60.0</ele><time>2026-04-03T07:18:00.874Z</time></trkpt><trkpt lat="45.167411" lon="9.0742985"><ele>60.0</ele><time>2026-04-03T07:18:01.875Z</time></trkpt><trkpt lat="45.167407" lon="9.0740272"><ele>60.66666666666667</ele><time>2026-04-03T07:18:02.875Z</time></trkpt><trkpt lat="45.1674045" lon="9.0737613"><ele>61.333333333333336</ele><time>2026-04-03T07:18:03.875Z</time></trkpt><trkpt lat="45.1674015" lon="9.0734953"><ele>62.0</ele><time>2026-04-03T07:18:04.875Z</time></trkpt><trkpt lat="45.1673971" lon="9.0732285"><ele>62.0</ele><time>2026-04-03T07:18:05.874Z</time></trkpt><trkpt lat="45.1673927" lon="9.072959"><ele>62.0</ele><time>2026-04-03T07:18:06.875Z</time></trkpt><trkpt lat="45.1673886" lon="9.0726871"><ele>62.0</ele><time>2026-04-03T07:18:07.875Z</time></trkpt><trkpt lat="45.1673825" lon="9.0724185"><ele>61.66666666666667</ele><time>2026-04-03T07:18:08.875Z</time></trkpt><trkpt lat="45.1673767" lon="9.0721499"><ele>61.33333333333333</ele><time>2026-04-03T07:18:09.875Z</time></trkpt><trkpt lat="45.1673731" lon="9.0718857"><ele>61.0</ele><time>2026-04-03T07:18:10.875Z</time></trkpt><trkpt lat="45.1673698" lon="9.0716229"><ele>61.0</ele><time>2026-04-03T07:18:11.875Z</time></trkpt><trkpt lat="45.1673677" lon="9.071364"><ele>61.0</ele><time>2026-04-03T07:18:12.875Z</time></trkpt><trkpt lat="45.1673632" lon="9.0711116"><ele>61.0</ele><time>2026-04-03T07:18:13.875Z</time></trkpt><trkpt lat="45.1673604" lon="9.070864"><ele>61.33333333333333</ele><time>2026-04-03T07:18:14.874Z</time></trkpt><trkpt lat="45.1673558" lon="9.070619"><ele>61.66666666666667</ele><time>2026-04-03T07:18:15.875Z</time></trkpt><trkpt lat="45.1673531" lon="9.0703732"><ele>62.0</ele><time>2026-04-03T07:18:16.875Z</time></trkpt><trkpt lat="45.1673494" lon="9.0701287"><ele>62.333333333333336</ele><time>2026-04-03T07:18:17.875Z</time></trkpt><trkpt lat="45.1673469" lon="9.0698767"><ele>62.66666666666667</ele><time>2026-04-03T07:18:18.874Z</time></trkpt><trkpt lat="45.1673438" lon="9.0696213"><ele>63.0</ele><time>2026-04-03T07:18:19.875Z</time></trkpt><trkpt lat="45.1673402" lon="9.0693649"><ele>63.0</ele><time>2026-04-03T07:18:20.875Z</time></trkpt><trkpt lat="45.1673376" lon="9.0691022"><ele>63.0</ele><time>2026-04-03T07:18:21.875Z</time></trkpt><trkpt lat="45.1673358" lon="9.0688415"><ele>63.0</ele><time>2026-04-03T07:18:22.875Z</time></trkpt><trkpt lat="45.1673348" lon="9.0685815"><ele>63.0</ele><time>2026-04-03T07:18:23.875Z</time></trkpt><trkpt lat="45.1673314" lon="9.0683174"><ele>63.0</ele><time>2026-04-03T07:18:24.875Z</time></trkpt><trkpt lat="45.1673255" lon="9.0680538"><ele>63.0</ele><time>2026-04-03T07:18:25.875Z</time></trkpt><trkpt lat="45.1673222" lon="9.0677947"><ele>63.0</ele><time>2026-04-03T07:18:26.875Z</time></trkpt><trkpt lat="45.167318" lon="9.0675378"><ele>63.0</ele><time>2026-04-03T07:18:27.875Z</time></trkpt><trkpt lat="45.1673146" lon="9.0672832"><ele>63.0</ele><time>2026-04-03T07:18:28.875Z</time></trkpt><trkpt lat="45.1673108" lon="9.0670312"><ele>66.0</ele><time>2026-04-03T07:18:29.875Z</time></trkpt><trkpt lat="45.1673057" lon="9.0667822"><ele>69.0</ele><time>2026-04-03T07:18:30.874Z</time></trkpt><trkpt lat="45.1673015" lon="9.0665333"><ele>72.0</ele><time>2026-04-03T07:18:31.875Z</time></trkpt><trkpt lat="45.167297" lon="9.0662964"><ele>73.75</ele><time>2026-04-03T07:18:32.875Z</time></trkpt><trkpt lat="45.1672933" lon="9.0660735"><ele>75.5</ele><time>2026-04-03T07:18:33.875Z</time></trkpt><trkpt lat="45.1672915" lon="9.0658763"><ele>77.25</ele><time>2026-04-03T07:18:34.874Z</time></trkpt><trkpt lat="45.1672904" lon="9.0657063"><ele>79.0</ele><time>2026-04-03T07:18:35.875Z</time></trkpt><trkpt lat="45.1672929" lon="9.0655618"><ele>79.5</ele><time>2026-04-03T07:18:36.875Z</time></trkpt><trkpt lat="45.1672901" lon="9.06543"><ele>80.0</ele><time>2026-04-03T07:18:37.874Z</time></trkpt><trkpt lat="45.1672883" lon="9.065306"><ele>80.5</ele><time>2026-04-03T07:18:38.875Z</time></trkpt><trkpt lat="45.1672862" lon="9.0651947"><ele>81.0</ele><time>2026-04-03T07:18:39.875Z</time></trkpt><trkpt lat="45.1672855" lon="9.0650933"><ele>81.5</ele><time>2026-04-03T07:18:40.875Z</time></trkpt><trkpt lat="45.1672843" lon="9.0650005"><ele>82.0</ele><time>2026-04-03T07:18:41.874Z</time></trkpt><trkpt lat="45.1672806" lon="9.0649095"><ele>82.0</ele><time>2026-04-03T07:18:42.875Z</time></trkpt><trkpt lat="45.1672824" lon="9.0648138"><ele>82.0</ele><time>2026-04-03T07:18:43.875Z</time></trkpt><trkpt lat="45.1672817" lon="9.0647136"><ele>82.0</ele><time>2026-04-03T07:18:44.875Z</time></trkpt><trkpt lat="45.1672775" lon="9.0646167"><ele>82.0</ele><time>2026-04-03T07:18:45.874Z</time></trkpt><trkpt lat="45.1672732" lon="9.064442"><ele>82.0</ele><time>2026-04-03T07:18:47.874Z</time></trkpt><trkpt lat="45.1672711" lon="9.0643041"><ele>82.0</ele><time>2026-04-03T07:18:49.874Z</time></trkpt><trkpt lat="45.1673426" lon="9.0642443"><ele>80.33333333333333</ele><time>2026-04-03T07:18:52.875Z</time></trkpt><trkpt lat="45.1674315" lon="9.0642445"><ele>78.66666666666666</ele><time>2026-04-03T07:18:54.875Z</time></trkpt><trkpt lat="45.1674987" lon="9.064242"><ele>77.0</ele><time>2026-04-03T07:18:55.875Z</time></trkpt><trkpt lat="45.1675737" lon="9.0642405"><ele>75.33333333333333</ele><time>2026-04-03T07:18:56.875Z</time></trkpt><trkpt lat="45.1676586" lon="9.0642339"><ele>73.66666666666667</ele><time>2026-04-03T07:18:57.874Z</time></trkpt><trkpt lat="45.1677467" lon="9.0642187"><ele>72.0</ele><time>2026-04-03T07:18:58.875Z</time></trkpt><trkpt lat="45.167837" lon="9.0641897"><ele>72.0</ele><time>2026-04-03T07:18:59.874Z</time></trkpt><trkpt lat="45.1679289" lon="9.0641494"><ele>72.0</ele><time>2026-04-03T07:19:00.875Z</time></trkpt><trkpt lat="45.1680165" lon="9.0640903"><ele>72.0</ele><time>2026-04-03T07:19:01.875Z</time></trkpt><trkpt lat="45.1680924" lon="9.0640167"><ele>72.0</ele><time>2026-04-03T07:19:02.875Z</time></trkpt><trkpt lat="45.1681505" lon="9.0639467"><ele>72.0</ele><time>2026-04-03T07:19:03.875Z</time></trkpt><trkpt lat="45.16821" lon="9.0638547"><ele>72.0</ele><time>2026-04-03T07:19:05.874Z</time></trkpt><trkpt lat="45.1682387" lon="9.0637607"><ele>70.6</ele><time>2026-04-03T07:19:08.875Z</time></trkpt><trkpt lat="45.1682924" lon="9.0635992"><ele>69.2</ele><time>2026-04-03T07:19:10.875Z</time></trkpt><trkpt lat="45.1683325" lon="9.0634976"><ele>67.8</ele><time>2026-04-03T07:19:11.875Z</time></trkpt><trkpt lat="45.1683717" lon="9.0633799"><ele>66.4</ele><time>2026-04-03T07:19:12.875Z</time></trkpt><trkpt lat="45.1684108" lon="9.0632495"><ele>65.0</ele><time>2026-04-03T07:19:13.875Z</time></trkpt><trkpt lat="45.1684545" lon="9.0631161"><ele>65.0</ele><time>2026-04-03T07:19:14.874Z</time></trkpt><trkpt lat="45.1685006" lon="9.0629765"><ele>65.0</ele><time>2026-04-03T07:19:15.874Z</time></trkpt><trkpt lat="45.1685474" lon="9.0628342"><ele>65.0</ele><time>2026-04-03T07:19:16.875Z</time></trkpt><trkpt lat="45.1685935" lon="9.0626892"><ele>65.0</ele><time>2026-04-03T07:19:17.875Z</time></trkpt><trkpt lat="45.1686424" lon="9.0625391"><ele>65.0</ele><time>2026-04-03T07:19:18.875Z</time></trkpt><trkpt lat="45.1686917" lon="9.0623858"><ele>65.25</ele><time>2026-04-03T07:19:19.875Z</time></trkpt><trkpt lat="45.1687424" lon="9.0622312"><ele>65.5</ele><time>2026-04-03T07:19:20.875Z</time></trkpt><trkpt lat="45.1687921" lon="9.0620725"><ele>65.75</ele><time>2026-04-03T07:19:21.875Z</time></trkpt><trkpt lat="45.1688443" lon="9.0619142"><ele>66.0</ele><time>2026-04-03T07:19:22.875Z</time></trkpt><trkpt lat="45.168895" lon="9.0617547"><ele>66.0</ele><time>2026-04-03T07:19:23.874Z</time></trkpt><trkpt lat="45.1689432" lon="9.0616003"><ele>66.0</ele><time>2026-04-03T07:19:24.874Z</time></trkpt><trkpt lat="45.1689888" lon="9.0614502"><ele>66.0</ele><time>2026-04-03T07:19:25.875Z</time></trkpt><trkpt lat="45.1690332" lon="9.0613084"><ele>66.0</ele><time>2026-04-03T07:19:26.875Z</time></trkpt><trkpt lat="45.1690743" lon="9.0611783"><ele>66.0</ele><time>2026-04-03T07:19:27.874Z</time></trkpt><trkpt lat="45.1691075" lon="9.0610611"><ele>65.2</ele><time>2026-04-03T07:19:28.875Z</time></trkpt><trkpt lat="45.1691398" lon="9.060968"><ele>64.39999999999999</ele><time>2026-04-03T07:19:29.875Z</time></trkpt><trkpt lat="45.1691756" lon="9.0608882"><ele>63.6</ele><time>2026-04-03T07:19:30.875Z</time></trkpt><trkpt lat="45.1692786" lon="9.0608266"><ele>62.8</ele><time>2026-04-03T07:19:32.874Z</time></trkpt><trkpt lat="45.1694166" lon="9.0608454"><ele>62.0</ele><time>2026-04-03T07:19:34.874Z</time></trkpt><trkpt lat="45.1695055" lon="9.0608529"><ele>62.0</ele><time>2026-04-03T07:19:35.875Z</time></trkpt><trkpt lat="45.1696072" lon="9.0608631"><ele>62.0</ele><time>2026-04-03T07:19:36.874Z</time></trkpt><trkpt lat="45.1697192" lon="9.060873"><ele>62.0</ele><time>2026-04-03T07:19:37.875Z</time></trkpt><trkpt lat="45.1698393" lon="9.0608779"><ele>62.0</ele><time>2026-04-03T07:19:38.874Z</time></trkpt><trkpt lat="45.1699605" lon="9.0608855"><ele>62.0</ele><time>2026-04-03T07:19:39.875Z</time></trkpt><trkpt lat="45.1700887" lon="9.0608959"><ele>62.0</ele><time>2026-04-03T07:19:40.875Z</time></trkpt><trkpt lat="45.1702219" lon="9.0609054"><ele>62.0</ele><time>2026-04-03T07:19:41.875Z</time></trkpt><trkpt lat="45.1703582" lon="9.0609153"><ele>62.0</ele><time>2026-04-03T07:19:42.874Z</time></trkpt><trkpt lat="45.1704986" lon="9.0609178"><ele>62.0</ele><time>2026-04-03T07:19:43.875Z</time></trkpt><trkpt lat="45.170642" lon="9.0609227"><ele>62.0</ele><time>2026-04-03T07:19:44.874Z</time></trkpt><trkpt lat="45.1707872" lon="9.0609242"><ele>62.0</ele><time>2026-04-03T07:19:45.874Z</time></trkpt><trkpt lat="45.1709344" lon="9.0609232"><ele>62.0</ele><time>2026-04-03T07:19:46.875Z</time></trkpt><trkpt lat="45.1710817" lon="9.0609216"><ele>62.66666666666667</ele><time>2026-04-03T07:19:47.874Z</time></trkpt><trkpt lat="45.1712335" lon="9.0609186"><ele>63.33333333333333</ele><time>2026-04-03T07:19:48.875Z</time></trkpt><trkpt lat="45.1713874" lon="9.0609178"><ele>64.0</ele><time>2026-04-03T07:19:49.875Z</time></trkpt><trkpt lat="45.1715436" lon="9.0609129"><ele>64.0</ele><time>2026-04-03T07:19:50.875Z</time></trkpt><trkpt lat="45.1717004" lon="9.0609075"><ele>64.0</ele><time>2026-04-03T07:19:51.874Z</time></trkpt><trkpt lat="45.1718595" lon="9.0609041"><ele>64.0</ele><time>2026-04-03T07:19:52.875Z</time></trkpt><trkpt lat="45.1720201" lon="9.0608978"><ele>64.0</ele><time>2026-04-03T07:19:53.874Z</time></trkpt><trkpt lat="45.1721806" lon="9.0608931"><ele>64.0</ele><time>2026-04-03T07:19:54.875Z</time></trkpt><trkpt lat="45.1723409" lon="9.0608901"><ele>64.0</ele><time>2026-04-03T07:19:55.874Z</time></trkpt><trkpt lat="45.1725017" lon="9.0608874"><ele>63.666666666666664</ele><time>2026-04-03T07:19:56.874Z</time></trkpt><trkpt lat="45.172663" lon="9.0608832"><ele>63.33333333333333</ele><time>2026-04-03T07:19:57.875Z</time></trkpt><trkpt lat="45.1728244" lon="9.0608797"><ele>63.0</ele><time>2026-04-03T07:19:58.874Z</time></trkpt><trkpt lat="45.172984" lon="9.0608746"><ele>63.0</ele><time>2026-04-03T07:19:59.874Z</time></trkpt><trkpt lat="45.1731448" lon="9.0608709"><ele>63.0</ele><time>2026-04-03T07:20:00.875Z</time></trkpt><trkpt lat="45.1733052" lon="9.0608677"><ele>63.0</ele><time>2026-04-03T07:20:01.874Z</time></trkpt><trkpt lat="45.1734684" lon="9.0608624"><ele>63.0</ele><time>2026-04-03T07:20:02.875Z</time></trkpt><trkpt lat="45.1736329" lon="9.060856"><ele>63.0</ele><time>2026-04-03T07:20:03.875Z</time></trkpt><trkpt lat="45.1738" lon="9.0608509"><ele>63.0</ele><time>2026-04-03T07:20:04.874Z</time></trkpt><trkpt lat="45.1739656" lon="9.060843"><ele>63.0</ele><time>2026-04-03T07:20:05.874Z</time></trkpt><trkpt lat="45.1741292" lon="9.060838"><ele>63.0</ele><time>2026-04-03T07:20:06.875Z</time></trkpt><trkpt lat="45.1742906" lon="9.0608344"><ele>63.0</ele><time>2026-04-03T07:20:07.874Z</time></trkpt><trkpt lat="45.17445" lon="9.0608289"><ele>63.0</ele><time>2026-04-03T07:20:08.874Z</time></trkpt><trkpt lat="45.174604" lon="9.0608251"><ele>63.0</ele><time>2026-04-03T07:20:09.875Z</time></trkpt><trkpt lat="45.1747553" lon="9.0608215"><ele>63.0</ele><time>2026-04-03T07:20:10.874Z</time></trkpt><trkpt lat="45.1749021" lon="9.0608198"><ele>63.0</ele><time>2026-04-03T07:20:11.875Z</time></trkpt><trkpt lat="45.1750494" lon="9.0608212"><ele>63.0</ele><time>2026-04-03T07:20:12.875Z</time></trkpt><trkpt lat="45.1751931" lon="9.0608213"><ele>63.0</ele><time>2026-04-03T07:20:13.875Z</time></trkpt><trkpt lat="45.1753367" lon="9.0608225"><ele>63.0</ele><time>2026-04-03T07:20:14.875Z</time></trkpt><trkpt lat="45.1754828" lon="9.0608251"><ele>63.0</ele><time>2026-04-03T07:20:15.875Z</time></trkpt><trkpt lat="45.1756288" lon="9.0608253"><ele>63.0</ele><time>2026-04-03T07:20:16.875Z</time></trkpt><trkpt lat="45.1757759" lon="9.0608219"><ele>63.0</ele><time>2026-04-03T07:20:17.875Z</time></trkpt><trkpt lat="45.1759228" lon="9.0608128"><ele>63.0</ele><time>2026-04-03T07:20:18.875Z</time></trkpt><trkpt lat="45.1760696" lon="9.0608024"><ele>63.25</ele><time>2026-04-03T07:20:19.875Z</time></trkpt><trkpt lat="45.176218" lon="9.0607927"><ele>63.5</ele><time>2026-04-03T07:20:20.875Z</time></trkpt><trkpt lat="45.1763649" lon="9.0607901"><ele>63.75</ele><time>2026-04-03T07:20:21.874Z</time></trkpt><trkpt lat="45.1765097" lon="9.0607939"><ele>64.0</ele><time>2026-04-03T07:20:22.874Z</time></trkpt><trkpt lat="45.1766563" lon="9.0608046"><ele>64.25</ele><time>2026-04-03T07:20:23.875Z</time></trkpt><trkpt lat="45.1768022" lon="9.0608171"><ele>64.5</ele><time>2026-04-03T07:20:24.874Z</time></trkpt><trkpt lat="45.1769472" lon="9.06083"><ele>64.75</ele><time>2026-04-03T07:20:25.874Z</time></trkpt><trkpt lat="45.1770931" lon="9.060835"><ele>65.0</ele><time>2026-04-03T07:20:26.875Z</time></trkpt><trkpt lat="45.1772372" lon="9.0608388"><ele>64.75</ele><time>2026-04-03T07:20:27.874Z</time></trkpt><trkpt lat="45.1773839" lon="9.0608427"><ele>64.5</ele><time>2026-04-03T07:20:28.875Z</time></trkpt><trkpt lat="45.1775279" lon="9.0608488"><ele>64.25</ele><time>2026-04-03T07:20:29.875Z</time></trkpt><trkpt lat="45.1776721" lon="9.0608572"><ele>64.0</ele><time>2026-04-03T07:20:30.875Z</time></trkpt><trkpt lat="45.1778187" lon="9.0608674"><ele>64.0</ele><time>2026-04-03T07:20:31.875Z</time></trkpt><trkpt lat="45.1779667" lon="9.0608801"><ele>64.0</ele><time>2026-04-03T07:20:32.875Z</time></trkpt><trkpt lat="45.1781171" lon="9.060889"><ele>64.0</ele><time>2026-04-03T07:20:33.875Z</time></trkpt><trkpt lat="45.1782661" lon="9.0608988"><ele>64.0</ele><time>2026-04-03T07:20:34.874Z</time></trkpt><trkpt lat="45.1784167" lon="9.0609099"><ele>63.666666666666664</ele><time>2026-04-03T07:20:35.875Z</time></trkpt><trkpt lat="45.1785671" lon="9.0609205"><ele>63.33333333333333</ele><time>2026-04-03T07:20:36.873Z</time></trkpt><trkpt lat="45.1787233" lon="9.0609297"><ele>63.0</ele><time>2026-04-03T07:20:37.875Z</time></trkpt><trkpt lat="45.1788855" lon="9.0609391"><ele>63.33333333333333</ele><time>2026-04-03T07:20:38.875Z</time></trkpt><trkpt lat="45.1790524" lon="9.0609481"><ele>63.666666666666664</ele><time>2026-04-03T07:20:39.874Z</time></trkpt><trkpt lat="45.1792223" lon="9.0609489"><ele>64.0</ele><time>2026-04-03T07:20:40.875Z</time></trkpt><trkpt lat="45.1793973" lon="9.06093"><ele>64.0</ele><time>2026-04-03T07:20:41.874Z</time></trkpt><trkpt lat="45.1795715" lon="9.0608973"><ele>64.0</ele><time>2026-04-03T07:20:42.875Z</time></trkpt><trkpt lat="45.1797474" lon="9.0608625"><ele>64.0</ele><time>2026-04-03T07:20:43.875Z</time></trkpt><trkpt lat="45.1799212" lon="9.0608257"><ele>64.0</ele><time>2026-04-03T07:20:44.875Z</time></trkpt><trkpt lat="45.1800938" lon="9.0607882"><ele>64.0</ele><time>2026-04-03T07:20:45.874Z</time></trkpt><trkpt lat="45.1802661" lon="9.060756"><ele>64.0</ele><time>2026-04-03T07:20:46.874Z</time></trkpt><trkpt lat="45.1804385" lon="9.0607229"><ele>63.666666666666664</ele><time>2026-04-03T07:20:47.875Z</time></trkpt><trkpt lat="45.1806084" lon="9.060691"><ele>63.33333333333333</ele><time>2026-04-03T07:20:48.875Z</time></trkpt><trkpt lat="45.1807756" lon="9.0606574"><ele>63.0</ele><time>2026-04-03T07:20:49.875Z</time></trkpt><trkpt lat="45.1809425" lon="9.0606194"><ele>63.0</ele><time>2026-04-03T07:20:50.874Z</time></trkpt><trkpt lat="45.1811054" lon="9.0605817"><ele>63.0</ele><time>2026-04-03T07:20:51.874Z</time></trkpt><trkpt lat="45.1812641" lon="9.0605467"><ele>63.0</ele><time>2026-04-03T07:20:52.874Z</time></trkpt><trkpt lat="45.1814229" lon="9.0605207"><ele>63.66666666666667</ele><time>2026-04-03T07:20:53.875Z</time></trkpt><trkpt lat="45.1815797" lon="9.0605089"><ele>64.33333333333334</ele><time>2026-04-03T07:20:54.874Z</time></trkpt><trkpt lat="45.1817362" lon="9.0605007"><ele>65.0</ele><time>2026-04-03T07:20:55.874Z</time></trkpt><trkpt lat="45.1818919" lon="9.060497"><ele>65.0</ele><time>2026-04-03T07:20:56.875Z</time></trkpt><trkpt lat="45.182049" lon="9.0604975"><ele>65.0</ele><time>2026-04-03T07:20:57.875Z</time></trkpt><trkpt lat="45.1822074" lon="9.060495"><ele>65.0</ele><time>2026-04-03T07:20:58.875Z</time></trkpt><trkpt lat="45.182367" lon="9.0604958"><ele>65.0</ele><time>2026-04-03T07:20:59.874Z</time></trkpt><trkpt lat="45.1825269" lon="9.0604979"><ele>65.0</ele><time>2026-04-03T07:21:00.874Z</time></trkpt><trkpt lat="45.1826838" lon="9.0605053"><ele>65.0</ele><time>2026-04-03T07:21:01.875Z</time></trkpt><trkpt lat="45.1828317" lon="9.0605145"><ele>65.0</ele><time>2026-04-03T07:21:02.875Z</time></trkpt><trkpt lat="45.1829691" lon="9.0605231"><ele>65.0</ele><time>2026-04-03T07:21:03.874Z</time></trkpt><trkpt lat="45.1830987" lon="9.060528"><ele>65.0</ele><time>2026-04-03T07:21:04.875Z</time></trkpt><trkpt lat="45.1832273" lon="9.060519"><ele>65.0</ele><time>2026-04-03T07:21:05.874Z</time></trkpt><trkpt lat="45.1833625" lon="9.0605008"><ele>64.75</ele><time>2026-04-03T07:21:06.874Z</time></trkpt><trkpt lat="45.1835036" lon="9.0604785"><ele>64.5</ele><time>2026-04-03T07:21:07.874Z</time></trkpt><trkpt lat="45.1836529" lon="9.0604552"><ele>64.25</ele><time>2026-04-03T07:21:08.875Z</time></trkpt><trkpt lat="45.1838061" lon="9.0604259"><ele>64.0</ele><time>2026-04-03T07:21:09.874Z</time></trkpt><trkpt lat="45.1839654" lon="9.0603932"><ele>63.666666666666664</ele><time>2026-04-03T07:21:10.875Z</time></trkpt><trkpt lat="45.1841272" lon="9.0603639"><ele>63.33333333333333</ele><time>2026-04-03T07:21:11.875Z</time></trkpt><trkpt lat="45.1842939" lon="9.0603304"><ele>63.0</ele><time>2026-04-03T07:21:12.874Z</time></trkpt><trkpt lat="45.1844597" lon="9.0602999"><ele>63.0</ele><time>2026-04-03T07:21:13.875Z</time></trkpt><trkpt lat="45.184625" lon="9.0602694"><ele>63.0</ele><time>2026-04-03T07:21:14.875Z</time></trkpt><trkpt lat="45.1847883" lon="9.0602379"><ele>63.0</ele><time>2026-04-03T07:21:15.875Z</time></trkpt><trkpt lat="45.1849509" lon="9.060208"><ele>62.0</ele><time>2026-04-03T07:21:16.875Z</time></trkpt><trkpt lat="45.1851111" lon="9.0601789"><ele>61.0</ele><time>2026-04-03T07:21:17.875Z</time></trkpt><trkpt lat="45.1852611" lon="9.0601469"><ele>60.0</ele><time>2026-04-03T07:21:18.875Z</time></trkpt><trkpt lat="45.1854022" lon="9.0601194"><ele>60.0</ele><time>2026-04-03T07:21:19.874Z</time></trkpt><trkpt lat="45.1855335" lon="9.060091"><ele>60.0</ele><time>2026-04-03T07:21:20.875Z</time></trkpt><trkpt lat="45.185658" lon="9.0600648"><ele>60.0</ele><time>2026-04-03T07:21:21.874Z</time></trkpt><trkpt lat="45.1857756" lon="9.0600366"><ele>60.0</ele><time>2026-04-03T07:21:22.875Z</time></trkpt><trkpt lat="45.1858882" lon="9.0600117"><ele>60.5</ele><time>2026-04-03T07:21:23.875Z</time></trkpt><trkpt lat="45.1859999" lon="9.0599823"><ele>61.0</ele><time>2026-04-03T07:21:24.875Z</time></trkpt><trkpt lat="45.1861131" lon="9.0599485"><ele>61.5</ele><time>2026-04-03T07:21:25.874Z</time></trkpt><trkpt lat="45.1862332" lon="9.0599046"><ele>62.0</ele><time>2026-04-03T07:21:26.874Z</time></trkpt><trkpt lat="45.1863607" lon="9.0598626"><ele>62.0</ele><time>2026-04-03T07:21:27.875Z</time></trkpt><trkpt lat="45.1864967" lon="9.059814"><ele>62.0</ele><time>2026-04-03T07:21:28.875Z</time></trkpt><trkpt lat="45.186638" lon="9.0597596"><ele>62.0</ele><time>2026-04-03T07:21:29.874Z</time></trkpt><trkpt lat="45.1867783" lon="9.0597087"><ele>62.0</ele><time>2026-04-03T07:21:30.874Z</time></trkpt><trkpt lat="45.1869171" lon="9.0596592"><ele>62.0</ele><time>2026-04-03T07:21:31.875Z</time></trkpt><trkpt lat="45.1870535" lon="9.0596119"><ele>62.0</ele><time>2026-04-03T07:21:32.875Z</time></trkpt><trkpt lat="45.187189" lon="9.0595679"><ele>62.0</ele><time>2026-04-03T07:21:33.875Z</time></trkpt><trkpt lat="45.1873222" lon="9.0595271"><ele>62.0</ele><time>2026-04-03T07:21:34.875Z</time></trkpt><trkpt lat="45.1874574" lon="9.059492"><ele>62.25</ele><time>2026-04-03T07:21:35.875Z</time></trkpt><trkpt lat="45.1875967" lon="9.059468"><ele>62.5</ele><time>2026-04-03T07:21:36.875Z</time></trkpt><trkpt lat="45.1877413" lon="9.0594585"><ele>62.75</ele><time>2026-04-03T07:21:37.875Z</time></trkpt><trkpt lat="45.1878911" lon="9.0594557"><ele>63.0</ele><time>2026-04-03T07:21:38.875Z</time></trkpt><trkpt lat="45.1880392" lon="9.0594501"><ele>62.75</ele><time>2026-04-03T07:21:39.875Z</time></trkpt><trkpt lat="45.1881816" lon="9.0594427"><ele>62.5</ele><time>2026-04-03T07:21:40.875Z</time></trkpt><trkpt lat="45.1883196" lon="9.0594364"><ele>62.25</ele><time>2026-04-03T07:21:41.874Z</time></trkpt><trkpt lat="45.1884571" lon="9.0594339"><ele>62.0</ele><time>2026-04-03T07:21:42.875Z</time></trkpt><trkpt lat="45.1885951" lon="9.0594502"><ele>62.0</ele><time>2026-04-03T07:21:43.875Z</time></trkpt><trkpt lat="45.1887297" lon="9.0594878"><ele>62.0</ele><time>2026-04-03T07:21:44.874Z</time></trkpt><trkpt lat="45.1888589" lon="9.0595413"><ele>62.0</ele><time>2026-04-03T07:21:45.875Z</time></trkpt><trkpt lat="45.1889881" lon="9.0596035"><ele>62.0</ele><time>2026-04-03T07:21:46.875Z</time></trkpt><trkpt lat="45.189125" lon="9.0596556"><ele>62.0</ele><time>2026-04-03T07:21:47.875Z</time></trkpt><trkpt lat="45.1892691" lon="9.0596807"><ele>62.0</ele><time>2026-04-03T07:21:48.875Z</time></trkpt><trkpt lat="45.1894164" lon="9.059675"><ele>62.0</ele><time>2026-04-03T07:21:49.875Z</time></trkpt><trkpt lat="45.189563" lon="9.0596357"><ele>62.0</ele><time>2026-04-03T07:21:50.874Z</time></trkpt><trkpt lat="45.1897054" lon="9.0595657"><ele>62.0</ele><time>2026-04-03T07:21:51.874Z</time></trkpt><trkpt lat="45.1898435" lon="9.0594661"><ele>62.0</ele><time>2026-04-03T07:21:52.875Z</time></trkpt><trkpt lat="45.1899752" lon="9.0593488"><ele>62.0</ele><time>2026-04-03T07:21:53.875Z</time></trkpt><trkpt lat="45.1900974" lon="9.0592105"><ele>62.0</ele><time>2026-04-03T07:21:54.874Z</time></trkpt><trkpt lat="45.1902056" lon="9.0590475"><ele>62.0</ele><time>2026-04-03T07:21:55.875Z</time></trkpt><trkpt lat="45.1902964" lon="9.0588604"><ele>62.0</ele><time>2026-04-03T07:21:56.874Z</time></trkpt><trkpt lat="45.1903783" lon="9.0586651"><ele>62.0</ele><time>2026-04-03T07:21:57.875Z</time></trkpt><trkpt lat="45.1904617" lon="9.0584732"><ele>62.0</ele><time>2026-04-03T07:21:58.875Z</time></trkpt><trkpt lat="45.1905546" lon="9.0582834"><ele>62.0</ele><time>2026-04-03T07:21:59.874Z</time></trkpt><trkpt lat="45.1906548" lon="9.0581024"><ele>62.0</ele><time>2026-04-03T07:22:00.875Z</time></trkpt><trkpt lat="45.1907566" lon="9.0579272"><ele>62.0</ele><time>2026-04-03T07:22:01.875Z</time></trkpt><trkpt lat="45.1908607" lon="9.0577578"><ele>62.0</ele><time>2026-04-03T07:22:02.875Z</time></trkpt><trkpt lat="45.1909596" lon="9.0575812"><ele>62.0</ele><time>2026-04-03T07:22:03.875Z</time></trkpt><trkpt lat="45.1910491" lon="9.0573983"><ele>62.0</ele><time>2026-04-03T07:22:04.875Z</time></trkpt><trkpt lat="45.1911361" lon="9.0572075"><ele>62.0</ele><time>2026-04-03T07:22:05.875Z</time></trkpt><trkpt lat="45.191223" lon="9.057013"><ele>62.0</ele><time>2026-04-03T07:22:06.874Z</time></trkpt><trkpt lat="45.1913118" lon="9.0568148"><ele>62.0</ele><time>2026-04-03T07:22:07.875Z</time></trkpt><trkpt lat="45.1914005" lon="9.0566106"><ele>62.0</ele><time>2026-04-03T07:22:08.875Z</time></trkpt><trkpt lat="45.1914942" lon="9.0563994"><ele>62.0</ele><time>2026-04-03T07:22:09.875Z</time></trkpt><trkpt lat="45.191589" lon="9.0561816"><ele>62.0</ele><time>2026-04-03T07:22:10.875Z</time></trkpt><trkpt lat="45.1916856" lon="9.0559625"><ele>62.0</ele><time>2026-04-03T07:22:11.875Z</time></trkpt><trkpt lat="45.1917829" lon="9.055745"><ele>62.0</ele><time>2026-04-03T07:22:12.874Z</time></trkpt><trkpt lat="45.1918793" lon="9.0555328"><ele>62.0</ele><time>2026-04-03T07:22:13.875Z</time></trkpt><trkpt lat="45.1919837" lon="9.055326"><ele>62.0</ele><time>2026-04-03T07:22:14.875Z</time></trkpt><trkpt lat="45.1920892" lon="9.055117"><ele>62.0</ele><time>2026-04-03T07:22:15.875Z</time></trkpt><trkpt lat="45.1921954" lon="9.0549124"><ele>62.0</ele><time>2026-04-03T07:22:16.874Z</time></trkpt><trkpt lat="45.1922997" lon="9.0547083"><ele>62.0</ele><time>2026-04-03T07:22:17.875Z</time></trkpt><trkpt lat="45.1924057" lon="9.0545026"><ele>62.0</ele><time>2026-04-03T07:22:18.874Z</time></trkpt><trkpt lat="45.1925165" lon="9.0543071"><ele>62.0</ele><time>2026-04-03T07:22:19.875Z</time></trkpt><trkpt lat="45.1926351" lon="9.0541241"><ele>62.0</ele><time>2026-04-03T07:22:20.875Z</time></trkpt><trkpt lat="45.1927573" lon="9.0539492"><ele>62.0</ele><time>2026-04-03T07:22:21.875Z</time></trkpt><trkpt lat="45.1928853" lon="9.0537859"><ele>62.0</ele><time>2026-04-03T07:22:22.875Z</time></trkpt><trkpt lat="45.1930148" lon="9.0536326"><ele>62.0</ele><time>2026-04-03T07:22:23.875Z</time></trkpt><trkpt lat="45.1931411" lon="9.0534757"><ele>62.0</ele><time>2026-04-03T07:22:24.875Z</time></trkpt><trkpt lat="45.1932649" lon="9.0533191"><ele>62.0</ele><time>2026-04-03T07:22:25.875Z</time></trkpt><trkpt lat="45.1933894" lon="9.0531671"><ele>62.0</ele><time>2026-04-03T07:22:26.875Z</time></trkpt><trkpt lat="45.1935167" lon="9.0530099"><ele>62.333333333333336</ele><time>2026-04-03T07:22:27.875Z</time></trkpt><trkpt lat="45.1936416" lon="9.0528516"><ele>62.66666666666667</ele><time>2026-04-03T07:22:28.875Z</time></trkpt><trkpt lat="45.1937682" lon="9.0526936"><ele>63.0</ele><time>2026-04-03T07:22:29.874Z</time></trkpt><trkpt lat="45.1939035" lon="9.05255"><ele>62.33333333333333</ele><time>2026-04-03T07:22:30.875Z</time></trkpt><trkpt lat="45.1940488" lon="9.0524347"><ele>61.666666666666664</ele><time>2026-04-03T07:22:31.875Z</time></trkpt><trkpt lat="45.1942042" lon="9.0523469"><ele>61.0</ele><time>2026-04-03T07:22:32.875Z</time></trkpt><trkpt lat="45.1943616" lon="9.0522642"><ele>61.0</ele><time>2026-04-03T07:22:33.875Z</time></trkpt><trkpt lat="45.1945178" lon="9.0521878"><ele>61.0</ele><time>2026-04-03T07:22:34.875Z</time></trkpt><trkpt lat="45.1946703" lon="9.0521116"><ele>61.0</ele><time>2026-04-03T07:22:35.874Z</time></trkpt><trkpt lat="45.1948155" lon="9.0520109"><ele>61.0</ele><time>2026-04-03T07:22:36.874Z</time></trkpt><trkpt lat="45.1949438" lon="9.0518604"><ele>61.0</ele><time>2026-04-03T07:22:37.874Z</time></trkpt><trkpt lat="45.1950545" lon="9.0516839"><ele>61.0</ele><time>2026-04-03T07:22:38.874Z</time></trkpt><trkpt lat="45.1951556" lon="9.0514964"><ele>61.33333333333333</ele><time>2026-04-03T07:22:39.875Z</time></trkpt><trkpt lat="45.195259" lon="9.0513116"><ele>61.66666666666667</ele><time>2026-04-03T07:22:40.875Z</time></trkpt><trkpt lat="45.1953609" lon="9.0511274"><ele>62.0</ele><time>2026-04-03T07:22:41.874Z</time></trkpt><trkpt lat="45.1954631" lon="9.0509452"><ele>62.0</ele><time>2026-04-03T07:22:42.875Z</time></trkpt><trkpt lat="45.1955633" lon="9.0507656"><ele>62.0</ele><time>2026-04-03T07:22:43.874Z</time></trkpt><trkpt lat="45.1956639" lon="9.0505895"><ele>62.0</ele><time>2026-04-03T07:22:44.875Z</time></trkpt><trkpt lat="45.1957621" lon="9.0504107"><ele>62.0</ele><time>2026-04-03T07:22:45.875Z</time></trkpt><trkpt lat="45.1958555" lon="9.0502253"><ele>62.0</ele><time>2026-04-03T07:22:46.874Z</time></trkpt><trkpt lat="45.1959413" lon="9.0500313"><ele>62.0</ele><time>2026-04-03T07:22:47.875Z</time></trkpt><trkpt lat="45.1960169" lon="9.0498267"><ele>62.0</ele><time>2026-04-03T07:22:48.874Z</time></trkpt><trkpt lat="45.1960754" lon="9.0496145"><ele>62.0</ele><time>2026-04-03T07:22:49.874Z</time></trkpt><trkpt lat="45.1961154" lon="9.0493937"><ele>62.0</ele><time>2026-04-03T07:22:50.875Z</time></trkpt><trkpt lat="45.1961426" lon="9.0491701"><ele>62.0</ele><time>2026-04-03T07:22:51.874Z</time></trkpt><trkpt lat="45.1961622" lon="9.0489419"><ele>62.0</ele><time>2026-04-03T07:22:52.874Z</time></trkpt><trkpt lat="45.1961767" lon="9.0487166"><ele>62.0</ele><time>2026-04-03T07:22:53.875Z</time></trkpt><trkpt lat="45.1961878" lon="9.0484875"><ele>62.0</ele><time>2026-04-03T07:22:54.875Z</time></trkpt><trkpt lat="45.1961966" lon="9.0482575"><ele>62.0</ele><time>2026-04-03T07:22:55.874Z</time></trkpt><trkpt lat="45.1962024" lon="9.048027"><ele>62.0</ele><time>2026-04-03T07:22:56.875Z</time></trkpt><trkpt lat="45.196209" lon="9.0477964"><ele>62.0</ele><time>2026-04-03T07:22:57.875Z</time></trkpt><trkpt lat="45.1962147" lon="9.0475736"><ele>62.0</ele><time>2026-04-03T07:22:58.875Z</time></trkpt><trkpt lat="45.1962212" lon="9.0473606"><ele>62.0</ele><time>2026-04-03T07:22:59.875Z</time></trkpt><trkpt lat="45.196229" lon="9.0471472"><ele>62.0</ele><time>2026-04-03T07:23:00.874Z</time></trkpt><trkpt lat="45.1962373" lon="9.0469416"><ele>62.0</ele><time>2026-04-03T07:23:01.875Z</time></trkpt><trkpt lat="45.1962436" lon="9.0467413"><ele>62.0</ele><time>2026-04-03T07:23:02.874Z</time></trkpt><trkpt lat="45.1962505" lon="9.0465441"><ele>62.0</ele><time>2026-04-03T07:23:03.874Z</time></trkpt><trkpt lat="45.1962588" lon="9.0463437"><ele>62.0</ele><time>2026-04-03T07:23:04.872Z</time></trkpt><trkpt lat="45.1962743" lon="9.0461415"><ele>62.0</ele><time>2026-04-03T07:23:05.875Z</time></trkpt><trkpt lat="45.1962967" lon="9.0459413"><ele>62.0</ele><time>2026-04-03T07:23:06.875Z</time></trkpt><trkpt lat="45.1963199" lon="9.0457408"><ele>62.0</ele><time>2026-04-03T07:23:07.874Z</time></trkpt><trkpt lat="45.1963414" lon="9.0455373"><ele>62.0</ele><time>2026-04-03T07:23:08.875Z</time></trkpt><trkpt lat="45.1963617" lon="9.0453319"><ele>62.0</ele><time>2026-04-03T07:23:09.874Z</time></trkpt><trkpt lat="45.1963795" lon="9.0451313"><ele>62.0</ele><time>2026-04-03T07:23:10.875Z</time></trkpt><trkpt lat="45.1963959" lon="9.044925"><ele>62.0</ele><time>2026-04-03T07:23:11.874Z</time></trkpt><trkpt lat="45.1964087" lon="9.0447113"><ele>62.0</ele><time>2026-04-03T07:23:12.875Z</time></trkpt><trkpt lat="45.1964154" lon="9.0444957"><ele>62.0</ele><time>2026-04-03T07:23:13.874Z</time></trkpt><trkpt lat="45.1964183" lon="9.0442759"><ele>62.0</ele><time>2026-04-03T07:23:14.875Z</time></trkpt><trkpt lat="45.1964306" lon="9.0440534"><ele>62.0</ele><time>2026-04-03T07:23:15.875Z</time></trkpt><trkpt lat="45.1964706" lon="9.0438396"><ele>62.0</ele><time>2026-04-03T07:23:16.875Z</time></trkpt><trkpt lat="45.1965242" lon="9.0436296"><ele>62.0</ele><time>2026-04-03T07:23:17.874Z</time></trkpt><trkpt lat="45.1965794" lon="9.043418"><ele>63.25</ele><time>2026-04-03T07:23:18.874Z</time></trkpt><trkpt lat="45.1966354" lon="9.0432134"><ele>64.5</ele><time>2026-04-03T07:23:19.874Z</time></trkpt><trkpt lat="45.1966854" lon="9.0430071"><ele>65.75</ele><time>2026-04-03T07:23:20.875Z</time></trkpt><trkpt lat="45.1967182" lon="9.0428142"><ele>67.0</ele><time>2026-04-03T07:23:21.875Z</time></trkpt><trkpt lat="45.196744" lon="9.0426165"><ele>66.33333333333333</ele><time>2026-04-03T07:23:22.875Z</time></trkpt><trkpt lat="45.1967683" lon="9.0424119"><ele>65.66666666666667</ele><time>2026-04-03T07:23:23.875Z</time></trkpt><trkpt lat="45.1967972" lon="9.0422"><ele>65.0</ele><time>2026-04-03T07:23:24.875Z</time></trkpt><trkpt lat="45.1968312" lon="9.0419646"><ele>65.0</ele><time>2026-04-03T07:23:25.875Z</time></trkpt><trkpt lat="45.1968661" lon="9.041715"><ele>65.0</ele><time>2026-04-03T07:23:26.875Z</time></trkpt><trkpt lat="45.196902" lon="9.0414566"><ele>65.0</ele><time>2026-04-03T07:23:27.875Z</time></trkpt><trkpt lat="45.1969388" lon="9.0411934"><ele>65.0</ele><time>2026-04-03T07:23:28.875Z</time></trkpt><trkpt lat="45.1969754" lon="9.040931"><ele>65.0</ele><time>2026-04-03T07:23:29.875Z</time></trkpt><trkpt lat="45.1970113" lon="9.0406703"><ele>65.0</ele><time>2026-04-03T07:23:30.875Z</time></trkpt><trkpt lat="45.197048" lon="9.0404087"><ele>65.0</ele><time>2026-04-03T07:23:31.874Z</time></trkpt><trkpt lat="45.1970774" lon="9.040144"><ele>65.0</ele><time>2026-04-03T07:23:32.874Z</time></trkpt><trkpt lat="45.19709" lon="9.0398823"><ele>65.0</ele><time>2026-04-03T07:23:33.875Z</time></trkpt><trkpt lat="45.1970805" lon="9.0396279"><ele>65.0</ele><time>2026-04-03T07:23:34.875Z</time></trkpt><trkpt lat="45.1970624" lon="9.0393781"><ele>65.0</ele><time>2026-04-03T07:23:35.874Z</time></trkpt><trkpt lat="45.1970522" lon="9.0391259"><ele>65.0</ele><time>2026-04-03T07:23:36.875Z</time></trkpt><trkpt lat="45.1970757" lon="9.0388758"><ele>64.33333333333334</ele><time>2026-04-03T07:23:37.875Z</time></trkpt><trkpt lat="45.1971306" lon="9.0386369"><ele>63.66666666666667</ele><time>2026-04-03T07:23:38.874Z</time></trkpt><trkpt lat="45.1972044" lon="9.0384175"><ele>63.0</ele><time>2026-04-03T07:23:39.875Z</time></trkpt><trkpt lat="45.1972871" lon="9.0382105"><ele>62.66666666666667</ele><time>2026-04-03T07:23:40.875Z</time></trkpt><trkpt lat="45.1973652" lon="9.0380099"><ele>62.333333333333336</ele><time>2026-04-03T07:23:41.875Z</time></trkpt><trkpt lat="45.1974436" lon="9.0378169"><ele>62.0</ele><time>2026-04-03T07:23:42.875Z</time></trkpt><trkpt lat="45.19752" lon="9.0376278"><ele>62.0</ele><time>2026-04-03T07:23:43.874Z</time></trkpt><trkpt lat="45.1975982" lon="9.0374378"><ele>62.0</ele><time>2026-04-03T07:23:44.875Z</time></trkpt><trkpt lat="45.1976818" lon="9.0372524"><ele>62.0</ele><time>2026-04-03T07:23:45.875Z</time></trkpt><trkpt lat="45.1977697" lon="9.037074"><ele>62.0</ele><time>2026-04-03T07:23:46.874Z</time></trkpt><trkpt lat="45.1978655" lon="9.036902"><ele>62.0</ele><time>2026-04-03T07:23:47.875Z</time></trkpt><trkpt lat="45.197972" lon="9.036731"><ele>62.0</ele><time>2026-04-03T07:23:48.874Z</time></trkpt><trkpt lat="45.1980873" lon="9.0365551"><ele>62.66666666666667</ele><time>2026-04-03T07:23:49.875Z</time></trkpt><trkpt lat="45.1982217" lon="9.0363453"><ele>63.33333333333333</ele><time>2026-04-03T07:23:50.875Z</time></trkpt><trkpt lat="45.1983769" lon="9.0361026"><ele>64.0</ele><time>2026-04-03T07:23:51.875Z</time></trkpt><trkpt lat="45.1985557" lon="9.0358423"><ele>64.0</ele><time>2026-04-03T07:23:52.875Z</time></trkpt><trkpt lat="45.198746" lon="9.0355766"><ele>64.0</ele><time>2026-04-03T07:23:53.875Z</time></trkpt><trkpt lat="45.1989341" lon="9.0353226"><ele>63.5</ele><time>2026-04-03T07:23:54.875Z</time></trkpt><trkpt lat="45.1991187" lon="9.0350746"><ele>63.0</ele><time>2026-04-03T07:23:55.875Z</time></trkpt><trkpt lat="45.1992954" lon="9.034831"><ele>63.0</ele><time>2026-04-03T07:23:56.875Z</time></trkpt><trkpt lat="45.1994612" lon="9.034597"><ele>63.0</ele><time>2026-04-03T07:23:57.875Z</time></trkpt><trkpt lat="45.1996254" lon="9.0343762"><ele>63.0</ele><time>2026-04-03T07:23:58.875Z</time></trkpt><trkpt lat="45.1997917" lon="9.0341732"><ele>63.0</ele><time>2026-04-03T07:23:59.875Z</time></trkpt><trkpt lat="45.199957" lon="9.033997"><ele>63.0</ele><time>2026-04-03T07:24:00.874Z</time></trkpt><trkpt lat="45.2001261" lon="9.0338652"><ele>63.33333333333333</ele><time>2026-04-03T07:24:01.875Z</time></trkpt><trkpt lat="45.200298" lon="9.0337593"><ele>63.666666666666664</ele><time>2026-04-03T07:24:02.875Z</time></trkpt><trkpt lat="45.2004593" lon="9.0336276"><ele>64.0</ele><time>2026-04-03T07:24:03.875Z</time></trkpt><trkpt lat="45.2006119" lon="9.0334713"><ele>63.666666666666664</ele><time>2026-04-03T07:24:04.875Z</time></trkpt><trkpt lat="45.200753" lon="9.0332957"><ele>63.33333333333333</ele><time>2026-04-03T07:24:05.875Z</time></trkpt><trkpt lat="45.2008817" lon="9.0331017"><ele>63.0</ele><time>2026-04-03T07:24:06.875Z</time></trkpt><trkpt lat="45.2009955" lon="9.0328911"><ele>63.0</ele><time>2026-04-03T07:24:07.875Z</time></trkpt><trkpt lat="45.2010946" lon="9.0326638"><ele>63.0</ele><time>2026-04-03T07:24:08.875Z</time></trkpt><trkpt lat="45.2011811" lon="9.0324296"><ele>63.0</ele><time>2026-04-03T07:24:09.875Z</time></trkpt><trkpt lat="45.201265" lon="9.0321878"><ele>63.0</ele><time>2026-04-03T07:24:10.874Z</time></trkpt><trkpt lat="45.20135" lon="9.0319401"><ele>63.0</ele><time>2026-04-03T07:24:11.874Z</time></trkpt><trkpt lat="45.201432" lon="9.031688"><ele>63.0</ele><time>2026-04-03T07:24:12.874Z</time></trkpt><trkpt lat="45.2015116" lon="9.0314355"><ele>63.0</ele><time>2026-04-03T07:24:13.875Z</time></trkpt><trkpt lat="45.2015907" lon="9.0311844"><ele>63.0</ele><time>2026-04-03T07:24:14.875Z</time></trkpt><trkpt lat="45.2016699" lon="9.0309354"><ele>63.0</ele><time>2026-04-03T07:24:15.875Z</time></trkpt><trkpt lat="45.2017485" lon="9.0306857"><ele>63.0</ele><time>2026-04-03T07:24:16.875Z</time></trkpt><trkpt lat="45.2018279" lon="9.0304357"><ele>63.0</ele><time>2026-04-03T07:24:17.874Z</time></trkpt><trkpt lat="45.2019061" lon="9.030187"><ele>63.0</ele><time>2026-04-03T07:24:18.874Z</time></trkpt><trkpt lat="45.2019855" lon="9.0299339"><ele>62.66666666666667</ele><time>2026-04-03T07:24:19.875Z</time></trkpt><trkpt lat="45.202064" lon="9.0296845"><ele>62.333333333333336</ele><time>2026-04-03T07:24:20.875Z</time></trkpt><trkpt lat="45.2021421" lon="9.0294317"><ele>62.0</ele><time>2026-04-03T07:24:21.875Z</time></trkpt><trkpt lat="45.2022225" lon="9.0291782"><ele>62.333333333333336</ele><time>2026-04-03T07:24:22.875Z</time></trkpt><trkpt lat="45.2023043" lon="9.0289253"><ele>62.66666666666667</ele><time>2026-04-03T07:24:23.875Z</time></trkpt><trkpt lat="45.2023841" lon="9.0286744"><ele>63.0</ele><time>2026-04-03T07:24:24.875Z</time></trkpt><trkpt lat="45.2024635" lon="9.0284219"><ele>62.66666666666667</ele><time>2026-04-03T07:24:25.875Z</time></trkpt><trkpt lat="45.2025429" lon="9.028171"><ele>62.333333333333336</ele><time>2026-04-03T07:24:26.875Z</time></trkpt><trkpt lat="45.2026324" lon="9.0279268"><ele>62.0</ele><time>2026-04-03T07:24:27.875Z</time></trkpt><trkpt lat="45.202743" lon="9.0277002"><ele>62.0</ele><time>2026-04-03T07:24:28.875Z</time></trkpt><trkpt lat="45.2028752" lon="9.027501"><ele>62.0</ele><time>2026-04-03T07:24:29.875Z</time></trkpt><trkpt lat="45.2030301" lon="9.0273381"><ele>62.0</ele><time>2026-04-03T07:24:30.875Z</time></trkpt><trkpt lat="45.2031963" lon="9.0272049"><ele>62.333333333333336</ele><time>2026-04-03T07:24:31.875Z</time></trkpt><trkpt lat="45.2033655" lon="9.0270793"><ele>62.66666666666667</ele><time>2026-04-03T07:24:32.875Z</time></trkpt><trkpt lat="45.2035247" lon="9.0269326"><ele>63.0</ele><time>2026-04-03T07:24:33.874Z</time></trkpt><trkpt lat="45.2036798" lon="9.0267778"><ele>63.0</ele><time>2026-04-03T07:24:34.875Z</time></trkpt><trkpt lat="45.203831" lon="9.0266139"><ele>63.0</ele><time>2026-04-03T07:24:35.875Z</time></trkpt><trkpt lat="45.2039739" lon="9.0264378"><ele>63.0</ele><time>2026-04-03T07:24:36.874Z</time></trkpt><trkpt lat="45.2041044" lon="9.0262407"><ele>63.0</ele><time>2026-04-03T07:24:37.874Z</time></trkpt><trkpt lat="45.2042199" lon="9.0260364"><ele>63.0</ele><time>2026-04-03T07:24:38.875Z</time></trkpt><trkpt lat="45.2043194" lon="9.0258295"><ele>63.0</ele><time>2026-04-03T07:24:39.875Z</time></trkpt><trkpt lat="45.2044009" lon="9.0256232"><ele>63.66666666666667</ele><time>2026-04-03T07:24:40.875Z</time></trkpt><trkpt lat="45.204467" lon="9.0254135"><ele>64.33333333333334</ele><time>2026-04-03T07:24:41.875Z</time></trkpt><trkpt lat="45.2045082" lon="9.0252044"><ele>65.0</ele><time>2026-04-03T07:24:42.875Z</time></trkpt><trkpt lat="45.2045235" lon="9.0249853"><ele>65.66666666666667</ele><time>2026-04-03T07:24:43.875Z</time></trkpt><trkpt lat="45.2045175" lon="9.0247651"><ele>66.33333333333333</ele><time>2026-04-03T07:24:44.875Z</time></trkpt><trkpt lat="45.2045026" lon="9.0245467"><ele>67.0</ele><time>2026-04-03T07:24:45.874Z</time></trkpt><trkpt lat="45.2045069" lon="9.024324"><ele>66.33333333333333</ele><time>2026-04-03T07:24:46.875Z</time></trkpt><trkpt lat="45.2045383" lon="9.0241061"><ele>65.66666666666667</ele><time>2026-04-03T07:24:47.875Z</time></trkpt><trkpt lat="45.2045924" lon="9.0238967"><ele>65.0</ele><time>2026-04-03T07:24:48.874Z</time></trkpt><trkpt lat="45.2046615" lon="9.023693"><ele>65.0</ele><time>2026-04-03T07:24:49.875Z</time></trkpt><trkpt lat="45.204737" lon="9.0234904"><ele>65.0</ele><time>2026-04-03T07:24:50.874Z</time></trkpt><trkpt lat="45.2048125" lon="9.0232915"><ele>65.0</ele><time>2026-04-03T07:24:51.875Z</time></trkpt><trkpt lat="45.2048901" lon="9.0230939"><ele>65.0</ele><time>2026-04-03T07:24:52.874Z</time></trkpt><trkpt lat="45.2049679" lon="9.0228988"><ele>65.0</ele><time>2026-04-03T07:24:53.875Z</time></trkpt><trkpt lat="45.2050433" lon="9.0227117"><ele>65.0</ele><time>2026-04-03T07:24:54.875Z</time></trkpt><trkpt lat="45.2051126" lon="9.0225362"><ele>65.0</ele><time>2026-04-03T07:24:55.875Z</time></trkpt><trkpt lat="45.2051783" lon="9.0223656"><ele>65.0</ele><time>2026-04-03T07:24:56.874Z</time></trkpt><trkpt lat="45.2052415" lon="9.022201"><ele>65.0</ele><time>2026-04-03T07:24:57.875Z</time></trkpt><trkpt lat="45.2053024" lon="9.0220408"><ele>65.0</ele><time>2026-04-03T07:24:58.874Z</time></trkpt><trkpt lat="45.2053631" lon="9.0218826"><ele>65.0</ele><time>2026-04-03T07:24:59.874Z</time></trkpt><trkpt lat="45.2054215" lon="9.0217297"><ele>65.0</ele><time>2026-04-03T07:25:00.874Z</time></trkpt><trkpt lat="45.2054787" lon="9.0215813"><ele>65.0</ele><time>2026-04-03T07:25:01.875Z</time></trkpt><trkpt lat="45.2055333" lon="9.021433"><ele>65.0</ele><time>2026-04-03T07:25:02.874Z</time></trkpt><trkpt lat="45.2055873" lon="9.0212899"><ele>64.75</ele><time>2026-04-03T07:25:03.875Z</time></trkpt><trkpt lat="45.2056407" lon="9.0211472"><ele>64.5</ele><time>2026-04-03T07:25:04.874Z</time></trkpt><trkpt lat="45.205693" lon="9.0210073"><ele>64.25</ele><time>2026-04-03T07:25:05.874Z</time></trkpt><trkpt lat="45.2057466" lon="9.0208679"><ele>64.0</ele><time>2026-04-03T07:25:06.875Z</time></trkpt><trkpt lat="45.2057984" lon="9.0207248"><ele>64.75</ele><time>2026-04-03T07:25:07.875Z</time></trkpt><trkpt lat="45.2058498" lon="9.0205779"><ele>65.5</ele><time>2026-04-03T07:25:08.875Z</time></trkpt><trkpt lat="45.2059032" lon="9.0204308"><ele>66.25</ele><time>2026-04-03T07:25:09.874Z</time></trkpt><trkpt lat="45.2059593" lon="9.0202821"><ele>67.0</ele><time>2026-04-03T07:25:10.875Z</time></trkpt><trkpt lat="45.2060161" lon="9.0201328"><ele>66.75</ele><time>2026-04-03T07:25:11.875Z</time></trkpt><trkpt lat="45.206074" lon="9.0199773"><ele>66.5</ele><time>2026-04-03T07:25:12.874Z</time></trkpt><trkpt lat="45.2061325" lon="9.0198211"><ele>66.25</ele><time>2026-04-03T07:25:13.875Z</time></trkpt><trkpt lat="45.2061902" lon="9.0196622"><ele>66.0</ele><time>2026-04-03T07:25:14.874Z</time></trkpt><trkpt lat="45.2062476" lon="9.0195023"><ele>66.0</ele><time>2026-04-03T07:25:15.874Z</time></trkpt><trkpt lat="45.2063047" lon="9.0193411"><ele>66.0</ele><time>2026-04-03T07:25:16.875Z</time></trkpt><trkpt lat="45.2063601" lon="9.0191789"><ele>66.0</ele><time>2026-04-03T07:25:17.874Z</time></trkpt><trkpt lat="45.2064077" lon="9.0190223"><ele>66.0</ele><time>2026-04-03T07:25:18.875Z</time></trkpt><trkpt lat="45.2064549" lon="9.018869"><ele>66.2</ele><time>2026-04-03T07:25:19.875Z</time></trkpt><trkpt lat="45.2064981" lon="9.0187149"><ele>66.39999999999999</ele><time>2026-04-03T07:25:20.874Z</time></trkpt><trkpt lat="45.2065418" lon="9.0185724"><ele>66.6</ele><time>2026-04-03T07:25:21.874Z</time></trkpt><trkpt lat="45.2065799" lon="9.0184374"><ele>66.8</ele><time>2026-04-03T07:25:22.874Z</time></trkpt><trkpt lat="45.206615" lon="9.0183081"><ele>67.0</ele><time>2026-04-03T07:25:23.875Z</time></trkpt><trkpt lat="45.206649" lon="9.0181772"><ele>67.2</ele><time>2026-04-03T07:25:24.875Z</time></trkpt><trkpt lat="45.2066777" lon="9.0180403"><ele>67.4</ele><time>2026-04-03T07:25:25.874Z</time></trkpt><trkpt lat="45.206694" lon="9.0178948"><ele>67.6</ele><time>2026-04-03T07:25:26.874Z</time></trkpt><trkpt lat="45.2066931" lon="9.0177429"><ele>67.8</ele><time>2026-04-03T07:25:27.874Z</time></trkpt><trkpt lat="45.2066799" lon="9.0175887"><ele>68.0</ele><time>2026-04-03T07:25:28.875Z</time></trkpt><trkpt lat="45.2066637" lon="9.0174311"><ele>67.8</ele><time>2026-04-03T07:25:29.875Z</time></trkpt><trkpt lat="45.2066453" lon="9.0172771"><ele>67.6</ele><time>2026-04-03T07:25:30.874Z</time></trkpt><trkpt lat="45.2066275" lon="9.0171348"><ele>67.4</ele><time>2026-04-03T07:25:31.874Z</time></trkpt><trkpt lat="45.2066099" lon="9.0169918"><ele>67.2</ele><time>2026-04-03T07:25:32.874Z</time></trkpt><trkpt lat="45.2065861" lon="9.0168175"><ele>67.0</ele><time>2026-04-03T07:25:33.875Z</time></trkpt><trkpt lat="45.2065671" lon="9.0166451"><ele>67.0</ele><time>2026-04-03T07:25:34.875Z</time></trkpt><trkpt lat="45.206545" lon="9.0164773"><ele>67.0</ele><time>2026-04-03T07:25:35.875Z</time></trkpt><trkpt lat="45.2065242" lon="9.0163037"><ele>67.0</ele><time>2026-04-03T07:25:36.875Z</time></trkpt><trkpt lat="45.2065035" lon="9.0161325"><ele>67.0</ele><time>2026-04-03T07:25:37.875Z</time></trkpt><trkpt lat="45.206485" lon="9.015966"><ele>66.75</ele><time>2026-04-03T07:25:38.874Z</time></trkpt><trkpt lat="45.2064668" lon="9.0158026"><ele>66.5</ele><time>2026-04-03T07:25:39.875Z</time></trkpt><trkpt lat="45.2064516" lon="9.0156419"><ele>66.25</ele><time>2026-04-03T07:25:40.875Z</time></trkpt><trkpt lat="45.2064367" lon="9.015482"><ele>66.0</ele><time>2026-04-03T07:25:41.875Z</time></trkpt><trkpt lat="45.2064239" lon="9.0153253"><ele>66.0</ele><time>2026-04-03T07:25:42.875Z</time></trkpt><trkpt lat="45.2064088" lon="9.0151625"><ele>66.0</ele><time>2026-04-03T07:25:43.874Z</time></trkpt><trkpt lat="45.2063952" lon="9.0149985"><ele>66.0</ele><time>2026-04-03T07:25:44.875Z</time></trkpt><trkpt lat="45.2063805" lon="9.0148291"><ele>66.0</ele><time>2026-04-03T07:25:45.875Z</time></trkpt><trkpt lat="45.2063699" lon="9.0146605"><ele>66.25</ele><time>2026-04-03T07:25:46.875Z</time></trkpt><trkpt lat="45.206366" lon="9.0144924"><ele>66.5</ele><time>2026-04-03T07:25:47.875Z</time></trkpt><trkpt lat="45.2063649" lon="9.0143295"><ele>66.75</ele><time>2026-04-03T07:25:48.874Z</time></trkpt><trkpt lat="45.2063597" lon="9.0141714"><ele>67.0</ele><time>2026-04-03T07:25:49.875Z</time></trkpt><trkpt lat="45.2063555" lon="9.0140127"><ele>67.25</ele><time>2026-04-03T07:25:50.875Z</time></trkpt><trkpt lat="45.2063509" lon="9.013858"><ele>67.5</ele><time>2026-04-03T07:25:51.875Z</time></trkpt><trkpt lat="45.2063454" lon="9.0136994"><ele>67.75</ele><time>2026-04-03T07:25:52.875Z</time></trkpt><trkpt lat="45.2063293" lon="9.0135341"><ele>68.0</ele><time>2026-04-03T07:25:53.874Z</time></trkpt><trkpt lat="45.2063016" lon="9.0133689"><ele>68.0</ele><time>2026-04-03T07:25:54.874Z</time></trkpt><trkpt lat="45.2062727" lon="9.0132018"><ele>68.0</ele><time>2026-04-03T07:25:55.875Z</time></trkpt><trkpt lat="45.2062448" lon="9.013032"><ele>68.0</ele><time>2026-04-03T07:25:56.875Z</time></trkpt><trkpt lat="45.2062261" lon="9.0128592"><ele>68.0</ele><time>2026-04-03T07:25:57.875Z</time></trkpt><trkpt lat="45.2062219" lon="9.0126894"><ele>68.0</ele><time>2026-04-03T07:25:58.875Z</time></trkpt><trkpt lat="45.2062263" lon="9.0125251"><ele>68.0</ele><time>2026-04-03T07:25:59.875Z</time></trkpt><trkpt lat="45.2062329" lon="9.0123587"><ele>68.0</ele><time>2026-04-03T07:26:00.874Z</time></trkpt><trkpt lat="45.2062423" lon="9.0121898"><ele>68.0</ele><time>2026-04-03T07:26:01.874Z</time></trkpt><trkpt lat="45.2062559" lon="9.0120249"><ele>67.75</ele><time>2026-04-03T07:26:02.875Z</time></trkpt><trkpt lat="45.2062683" lon="9.0118537"><ele>67.5</ele><time>2026-04-03T07:26:03.874Z</time></trkpt><trkpt lat="45.2062823" lon="9.0116774"><ele>67.25</ele><time>2026-04-03T07:26:04.875Z</time></trkpt><trkpt lat="45.2063003" lon="9.0114984"><ele>67.0</ele><time>2026-04-03T07:26:05.875Z</time></trkpt><trkpt lat="45.2063265" lon="9.0113208"><ele>67.0</ele><time>2026-04-03T07:26:06.874Z</time></trkpt><trkpt lat="45.2063596" lon="9.0111425"><ele>67.0</ele><time>2026-04-03T07:26:07.874Z</time></trkpt><trkpt lat="45.2063959" lon="9.0109636"><ele>67.0</ele><time>2026-04-03T07:26:08.874Z</time></trkpt><trkpt lat="45.2064334" lon="9.0107851"><ele>67.0</ele><time>2026-04-03T07:26:09.875Z</time></trkpt><trkpt lat="45.2064713" lon="9.0106077"><ele>67.0</ele><time>2026-04-03T07:26:10.875Z</time></trkpt><trkpt lat="45.2065073" lon="9.0104349"><ele>67.0</ele><time>2026-04-03T07:26:11.875Z</time></trkpt><trkpt lat="45.2065455" lon="9.0102711"><ele>67.0</ele><time>2026-04-03T07:26:12.875Z</time></trkpt><trkpt lat="45.206583" lon="9.0101063"><ele>67.0</ele><time>2026-04-03T07:26:13.875Z</time></trkpt><trkpt lat="45.2066241" lon="9.0099434"><ele>66.75</ele><time>2026-04-03T07:26:14.875Z</time></trkpt><trkpt lat="45.2066708" lon="9.0097852"><ele>66.5</ele><time>2026-04-03T07:26:15.874Z</time></trkpt><trkpt lat="45.2067301" lon="9.0096328"><ele>66.25</ele><time>2026-04-03T07:26:16.875Z</time></trkpt><trkpt lat="45.2068089" lon="9.0094953"><ele>66.0</ele><time>2026-04-03T07:26:17.874Z</time></trkpt><trkpt lat="45.2068947" lon="9.0093627"><ele>66.0</ele><time>2026-04-03T07:26:18.874Z</time></trkpt><trkpt lat="45.2069828" lon="9.0092244"><ele>66.0</ele><time>2026-04-03T07:26:19.875Z</time></trkpt><trkpt lat="45.2070712" lon="9.0090893"><ele>66.0</ele><time>2026-04-03T07:26:20.875Z</time></trkpt><trkpt lat="45.2071612" lon="9.008953"><ele>66.0</ele><time>2026-04-03T07:26:21.875Z</time></trkpt><trkpt lat="45.2072546" lon="9.0088154"><ele>66.0</ele><time>2026-04-03T07:26:22.875Z</time></trkpt><trkpt lat="45.2073464" lon="9.0086708"><ele>66.0</ele><time>2026-04-03T07:26:23.875Z</time></trkpt><trkpt lat="45.2074376" lon="9.0085244"><ele>66.0</ele><time>2026-04-03T07:26:24.874Z</time></trkpt><trkpt lat="45.207531" lon="9.0083787"><ele>66.0</ele><time>2026-04-03T07:26:25.874Z</time></trkpt><trkpt lat="45.2076236" lon="9.0082279"><ele>66.0</ele><time>2026-04-03T07:26:26.875Z</time></trkpt><trkpt lat="45.2077088" lon="9.0080673"><ele>66.0</ele><time>2026-04-03T07:26:27.875Z</time></trkpt><trkpt lat="45.2077832" lon="9.0078943"><ele>66.0</ele><time>2026-04-03T07:26:28.874Z</time></trkpt><trkpt lat="45.2078477" lon="9.0077128"><ele>66.0</ele><time>2026-04-03T07:26:29.874Z</time></trkpt><trkpt lat="45.2079059" lon="9.0075258"><ele>65.75</ele><time>2026-04-03T07:26:30.875Z</time></trkpt><trkpt lat="45.2079629" lon="9.0073358"><ele>65.5</ele><time>2026-04-03T07:26:31.875Z</time></trkpt><trkpt lat="45.2080176" lon="9.0071421"><ele>65.25</ele><time>2026-04-03T07:26:32.874Z</time></trkpt><trkpt lat="45.2080733" lon="9.0069492"><ele>65.0</ele><time>2026-04-03T07:26:33.875Z</time></trkpt><trkpt lat="45.2081333" lon="9.0067582"><ele>65.25</ele><time>2026-04-03T07:26:34.875Z</time></trkpt><trkpt lat="45.2081935" lon="9.0065716"><ele>65.5</ele><time>2026-04-03T07:26:35.874Z</time></trkpt><trkpt lat="45.2082595" lon="9.006387"><ele>65.75</ele><time>2026-04-03T07:26:36.875Z</time></trkpt><trkpt lat="45.2083277" lon="9.0062"><ele>66.0</ele><time>2026-04-03T07:26:37.875Z</time></trkpt><trkpt lat="45.2083946" lon="9.0060083"><ele>66.25</ele><time>2026-04-03T07:26:38.874Z</time></trkpt><trkpt lat="45.2084605" lon="9.0058201"><ele>66.5</ele><time>2026-04-03T07:26:39.875Z</time></trkpt><trkpt lat="45.2085221" lon="9.005634"><ele>66.75</ele><time>2026-04-03T07:26:40.875Z</time></trkpt><trkpt lat="45.2085711" lon="9.0054413"><ele>67.0</ele><time>2026-04-03T07:26:41.874Z</time></trkpt><trkpt lat="45.2086085" lon="9.0052412"><ele>67.0</ele><time>2026-04-03T07:26:42.874Z</time></trkpt><trkpt lat="45.2086435" lon="9.0050381"><ele>67.0</ele><time>2026-04-03T07:26:43.874Z</time></trkpt><trkpt lat="45.208682" lon="9.0048418"><ele>67.0</ele><time>2026-04-03T07:26:44.874Z</time></trkpt><trkpt lat="45.2087188" lon="9.0046472"><ele>67.0</ele><time>2026-04-03T07:26:45.874Z</time></trkpt><trkpt lat="45.2087433" lon="9.0044508"><ele>66.75</ele><time>2026-04-03T07:26:46.875Z</time></trkpt><trkpt lat="45.2087524" lon="9.0042524"><ele>66.5</ele><time>2026-04-03T07:26:47.875Z</time></trkpt><trkpt lat="45.2087426" lon="9.0040514"><ele>66.25</ele><time>2026-04-03T07:26:48.874Z</time></trkpt><trkpt lat="45.2087172" lon="9.0038614"><ele>66.0</ele><time>2026-04-03T07:26:49.874Z</time></trkpt><trkpt lat="45.2086805" lon="9.003681"><ele>65.75</ele><time>2026-04-03T07:26:50.875Z</time></trkpt><trkpt lat="45.2086461" lon="9.0035048"><ele>65.5</ele><time>2026-04-03T07:26:51.875Z</time></trkpt><trkpt lat="45.2086094" lon="9.0033335"><ele>65.25</ele><time>2026-04-03T07:26:52.875Z</time></trkpt><trkpt lat="45.2085727" lon="9.0031719"><ele>65.0</ele><time>2026-04-03T07:26:53.875Z</time></trkpt><trkpt lat="45.2085369" lon="9.0030127"><ele>65.0</ele><time>2026-04-03T07:26:54.874Z</time></trkpt><trkpt lat="45.2085007" lon="9.0028633"><ele>65.0</ele><time>2026-04-03T07:26:55.875Z</time></trkpt><trkpt lat="45.2084657" lon="9.0027191"><ele>65.0</ele><time>2026-04-03T07:26:56.874Z</time></trkpt><trkpt lat="45.2084325" lon="9.0025823"><ele>65.0</ele><time>2026-04-03T07:26:57.875Z</time></trkpt><trkpt lat="45.2084012" lon="9.002454"><ele>65.0</ele><time>2026-04-03T07:26:58.875Z</time></trkpt><trkpt lat="45.2083754" lon="9.0023324"><ele>65.0</ele><time>2026-04-03T07:26:59.874Z</time></trkpt><trkpt lat="45.2083558" lon="9.0022188"><ele>65.0</ele><time>2026-04-03T07:27:00.875Z</time></trkpt><trkpt lat="45.208354" lon="9.0021107"><ele>65.0</ele><time>2026-04-03T07:27:01.874Z</time></trkpt><trkpt lat="45.2084358" lon="9.0019886"><ele>65.0</ele><time>2026-04-03T07:27:03.875Z</time></trkpt><trkpt lat="45.2085047" lon="9.0019728"><ele>65.0</ele><time>2026-04-03T07:27:04.875Z</time></trkpt><trkpt lat="45.2085777" lon="9.0019752"><ele>65.0</ele><time>2026-04-03T07:27:05.873Z</time></trkpt><trkpt lat="45.2086662" lon="9.0019466"><ele>65.0</ele><time>2026-04-03T07:27:06.873Z</time></trkpt><trkpt lat="45.2087624" lon="9.0019035"><ele>65.0</ele><time>2026-04-03T07:27:07.874Z</time></trkpt><trkpt lat="45.2088645" lon="9.0018568"><ele>65.0</ele><time>2026-04-03T07:27:08.874Z</time></trkpt><trkpt lat="45.2089714" lon="9.0018038"><ele>65.0</ele><time>2026-04-03T07:27:09.875Z</time></trkpt><trkpt lat="45.2090922" lon="9.0017304"><ele>65.0</ele><time>2026-04-03T07:27:10.874Z</time></trkpt><trkpt lat="45.2092383" lon="9.0016406"><ele>65.0</ele><time>2026-04-03T07:27:11.875Z</time></trkpt><trkpt lat="45.2094004" lon="9.0015436"><ele>65.0</ele><time>2026-04-03T07:27:12.875Z</time></trkpt><trkpt lat="45.2095783" lon="9.0014368"><ele>65.0</ele><time>2026-04-03T07:27:13.874Z</time></trkpt><trkpt lat="45.2097706" lon="9.0013222"><ele>65.0</ele><time>2026-04-03T07:27:14.874Z</time></trkpt><trkpt lat="45.2099699" lon="9.0012041"><ele>65.0</ele><time>2026-04-03T07:27:15.875Z</time></trkpt><trkpt lat="45.2101812" lon="9.001078"><ele>65.5</ele><time>2026-04-03T07:27:16.875Z</time></trkpt><trkpt lat="45.2103926" lon="9.00095"><ele>66.0</ele><time>2026-04-03T07:27:17.875Z</time></trkpt><trkpt lat="45.2106027" lon="9.0008256"><ele>65.66666666666667</ele><time>2026-04-03T07:27:18.873Z</time></trkpt><trkpt lat="45.2108089" lon="9.0007102"><ele>65.33333333333334</ele><time>2026-04-03T07:27:19.874Z</time></trkpt><trkpt lat="45.211012" lon="9.0005996"><ele>65.0</ele><time>2026-04-03T07:27:20.873Z</time></trkpt><trkpt lat="45.2112105" lon="9.0004896"><ele>65.0</ele><time>2026-04-03T07:27:21.875Z</time></trkpt><trkpt lat="45.2114024" lon="9.0003858"><ele>65.0</ele><time>2026-04-03T07:27:22.874Z</time></trkpt><trkpt lat="45.2115863" lon="9.0002798"><ele>65.0</ele><time>2026-04-03T07:27:23.874Z</time></trkpt><trkpt lat="45.2117616" lon="9.0001611"><ele>65.0</ele><time>2026-04-03T07:27:24.875Z</time></trkpt><trkpt lat="45.2119293" lon="9.0000162"><ele>65.0</ele><time>2026-04-03T07:27:25.874Z</time></trkpt><trkpt lat="45.212094" lon="8.9998489"><ele>65.0</ele><time>2026-04-03T07:27:26.875Z</time></trkpt><trkpt lat="45.2122545" lon="8.9996699"><ele>65.0</ele><time>2026-04-03T07:27:27.875Z</time></trkpt><trkpt lat="45.212403" lon="8.9994698"><ele>65.0</ele><time>2026-04-03T07:27:28.874Z</time></trkpt><trkpt lat="45.212538" lon="8.9992499"><ele>65.0</ele><time>2026-04-03T07:27:29.874Z</time></trkpt><trkpt lat="45.2126623" lon="8.9990084"><ele>65.0</ele><time>2026-04-03T07:27:30.874Z</time></trkpt><trkpt lat="45.2127782" lon="8.9987607"><ele>65.0</ele><time>2026-04-03T07:27:31.874Z</time></trkpt><trkpt lat="45.2128961" lon="8.9985142"><ele>65.0</ele><time>2026-04-03T07:27:32.875Z</time></trkpt><trkpt lat="45.2130156" lon="8.9982695"><ele>65.66666666666667</ele><time>2026-04-03T07:27:33.875Z</time></trkpt><trkpt lat="45.2131383" lon="8.9980282"><ele>66.33333333333333</ele><time>2026-04-03T07:27:34.875Z</time></trkpt><trkpt lat="45.2132606" lon="8.9977895"><ele>67.0</ele><time>2026-04-03T07:27:35.875Z</time></trkpt><trkpt lat="45.2133821" lon="8.9975491"><ele>67.33333333333333</ele><time>2026-04-03T07:27:36.874Z</time></trkpt><trkpt lat="45.2135052" lon="8.9973171"><ele>67.66666666666667</ele><time>2026-04-03T07:27:37.875Z</time></trkpt><trkpt lat="45.2136239" lon="8.9970922"><ele>68.0</ele><time>2026-04-03T07:27:38.875Z</time></trkpt><trkpt lat="45.2137381" lon="8.9968671"><ele>67.66666666666667</ele><time>2026-04-03T07:27:39.875Z</time></trkpt><trkpt lat="45.213851" lon="8.996649"><ele>67.33333333333333</ele><time>2026-04-03T07:27:40.875Z</time></trkpt><trkpt lat="45.2139671" lon="8.9964362"><ele>67.0</ele><time>2026-04-03T07:27:41.875Z</time></trkpt><trkpt lat="45.21408" lon="8.9962174"><ele>66.66666666666666</ele><time>2026-04-03T07:27:42.874Z</time></trkpt><trkpt lat="45.2141897" lon="8.9959987"><ele>66.33333333333333</ele><time>2026-04-03T07:27:43.875Z</time></trkpt><trkpt lat="45.214301" lon="8.9957769"><ele>66.0</ele><time>2026-04-03T07:27:44.875Z</time></trkpt><trkpt lat="45.2144156" lon="8.9955495"><ele>66.0</ele><time>2026-04-03T07:27:45.875Z</time></trkpt><trkpt lat="45.2145308" lon="8.9953236"><ele>66.0</ele><time>2026-04-03T07:27:46.875Z</time></trkpt><trkpt lat="45.2146547" lon="8.9950992"><ele>66.0</ele><time>2026-04-03T07:27:47.874Z</time></trkpt><trkpt lat="45.21478" lon="8.9948797"><ele>66.66666666666667</ele><time>2026-04-03T07:27:48.874Z</time></trkpt><trkpt lat="45.2149102" lon="8.9946596"><ele>67.33333333333334</ele><time>2026-04-03T07:27:49.875Z</time></trkpt><trkpt lat="45.2150398" lon="8.9944375"><ele>68.0</ele><time>2026-04-03T07:27:50.875Z</time></trkpt><trkpt lat="45.2151729" lon="8.9942166"><ele>68.0</ele><time>2026-04-03T07:27:51.874Z</time></trkpt><trkpt lat="45.2153078" lon="8.9940007"><ele>68.0</ele><time>2026-04-03T07:27:52.875Z</time></trkpt><trkpt lat="45.2154425" lon="8.9937981"><ele>68.0</ele><time>2026-04-03T07:27:53.874Z</time></trkpt><trkpt lat="45.2155777" lon="8.9936073"><ele>67.33333333333334</ele><time>2026-04-03T07:27:54.875Z</time></trkpt><trkpt lat="45.2157153" lon="8.9934378"><ele>66.66666666666667</ele><time>2026-04-03T07:27:55.874Z</time></trkpt><trkpt lat="45.2158566" lon="8.9932966"><ele>66.0</ele><time>2026-04-03T07:27:56.875Z</time></trkpt><trkpt lat="45.2160053" lon="8.9931805"><ele>66.0</ele><time>2026-04-03T07:27:57.875Z</time></trkpt><trkpt lat="45.2161633" lon="8.9930821"><ele>66.0</ele><time>2026-04-03T07:27:58.874Z</time></trkpt><trkpt lat="45.2163261" lon="8.9929938"><ele>66.0</ele><time>2026-04-03T07:27:59.875Z</time></trkpt><trkpt lat="45.216495" lon="8.992934"><ele>66.0</ele><time>2026-04-03T07:28:00.874Z</time></trkpt><trkpt lat="45.2166659" lon="8.9929104"><ele>66.0</ele><time>2026-04-03T07:28:01.874Z</time></trkpt><trkpt lat="45.2168351" lon="8.9929177"><ele>66.0</ele><time>2026-04-03T07:28:02.875Z</time></trkpt><trkpt lat="45.2170032" lon="8.9929292"><ele>66.0</ele><time>2026-04-03T07:28:03.873Z</time></trkpt><trkpt lat="45.2171689" lon="8.9929379"><ele>66.0</ele><time>2026-04-03T07:28:04.874Z</time></trkpt><trkpt lat="45.2173313" lon="8.9929468"><ele>66.0</ele><time>2026-04-03T07:28:05.874Z</time></trkpt><trkpt lat="45.217485" lon="8.9929509"><ele>66.2</ele><time>2026-04-03T07:28:06.875Z</time></trkpt><trkpt lat="45.2176134" lon="8.9929566"><ele>66.39999999999999</ele><time>2026-04-03T07:28:07.875Z</time></trkpt><trkpt lat="45.2177221" lon="8.9929625"><ele>66.6</ele><time>2026-04-03T07:28:08.874Z</time></trkpt><trkpt lat="45.2178061" lon="8.9929693"><ele>66.8</ele><time>2026-04-03T07:28:09.875Z</time></trkpt><trkpt lat="45.2179127" lon="8.9929461"><ele>67.0</ele><time>2026-04-03T07:28:11.875Z</time></trkpt><trkpt lat="45.2179453" lon="8.9928198"><ele>67.0</ele><time>2026-04-03T07:28:13.875Z</time></trkpt><trkpt lat="45.2179473" lon="8.9927304"><ele>67.0</ele><time>2026-04-03T07:28:14.875Z</time></trkpt><trkpt lat="45.2179478" lon="8.9926187"><ele>67.0</ele><time>2026-04-03T07:28:15.874Z</time></trkpt><trkpt lat="45.2179464" lon="8.9924848"><ele>67.0</ele><time>2026-04-03T07:28:16.874Z</time></trkpt><trkpt lat="45.217944" lon="8.9923355"><ele>67.0</ele><time>2026-04-03T07:28:17.875Z</time></trkpt><trkpt lat="45.2179396" lon="8.9921671"><ele>67.5</ele><time>2026-04-03T07:28:18.875Z</time></trkpt><trkpt lat="45.2179355" lon="8.9919877"><ele>68.0</ele><time>2026-04-03T07:28:19.875Z</time></trkpt><trkpt lat="45.2179321" lon="8.9917913"><ele>68.5</ele><time>2026-04-03T07:28:20.875Z</time></trkpt><trkpt lat="45.2179313" lon="8.9915849"><ele>69.0</ele><time>2026-04-03T07:28:21.875Z</time></trkpt><trkpt lat="45.2179293" lon="8.9913707"><ele>69.0</ele><time>2026-04-03T07:28:22.874Z</time></trkpt><trkpt lat="45.2179259" lon="8.9911599"><ele>69.0</ele><time>2026-04-03T07:28:23.875Z</time></trkpt><trkpt lat="45.2179269" lon="8.9909567"><ele>69.0</ele><time>2026-04-03T07:28:24.873Z</time></trkpt><trkpt lat="45.2179294" lon="8.9907408"><ele>69.0</ele><time>2026-04-03T07:28:25.875Z</time></trkpt><trkpt lat="45.2179297" lon="8.9905206"><ele>69.0</ele><time>2026-04-03T07:28:26.875Z</time></trkpt><trkpt lat="45.2179312" lon="8.9902938"><ele>69.0</ele><time>2026-04-03T07:28:27.875Z</time></trkpt><trkpt lat="45.2179339" lon="8.9900674"><ele>69.0</ele><time>2026-04-03T07:28:28.875Z</time></trkpt><trkpt lat="45.2179415" lon="8.9898341"><ele>68.66666666666667</ele><time>2026-04-03T07:28:29.875Z</time></trkpt><trkpt lat="45.217952" lon="8.9895981"><ele>68.33333333333334</ele><time>2026-04-03T07:28:30.875Z</time></trkpt><trkpt lat="45.2179676" lon="8.9893608"><ele>68.0</ele><time>2026-04-03T07:28:31.875Z</time></trkpt><trkpt lat="45.2179849" lon="8.9891228"><ele>67.66666666666667</ele><time>2026-04-03T07:28:32.873Z</time></trkpt><trkpt lat="45.2180144" lon="8.988882"><ele>67.33333333333333</ele><time>2026-04-03T07:28:33.874Z</time></trkpt><trkpt lat="45.2180582" lon="8.988638"><ele>67.0</ele><time>2026-04-03T07:28:34.875Z</time></trkpt><trkpt lat="45.2181085" lon="8.9883936"><ele>67.0</ele><time>2026-04-03T07:28:35.875Z</time></trkpt><trkpt lat="45.2181602" lon="8.9881623"><ele>67.0</ele><time>2026-04-03T07:28:36.875Z</time></trkpt><trkpt lat="45.2182065" lon="8.9879495"><ele>67.0</ele><time>2026-04-03T07:28:37.874Z</time></trkpt><trkpt lat="45.21825" lon="8.98775"><ele>67.0</ele><time>2026-04-03T07:28:38.874Z</time></trkpt><trkpt lat="45.2182895" lon="8.9875656"><ele>67.0</ele><time>2026-04-03T07:28:39.875Z</time></trkpt><trkpt lat="45.2183266" lon="8.9873936"><ele>67.0</ele><time>2026-04-03T07:28:40.875Z</time></trkpt><trkpt lat="45.2183608" lon="8.9872322"><ele>67.0</ele><time>2026-04-03T07:28:41.875Z</time></trkpt><trkpt lat="45.2183948" lon="8.98708"><ele>67.0</ele><time>2026-04-03T07:28:42.875Z</time></trkpt><trkpt lat="45.2184272" lon="8.9869323"><ele>67.0</ele><time>2026-04-03T07:28:43.875Z</time></trkpt><trkpt lat="45.2184569" lon="8.9868024"><ele>67.0</ele><time>2026-04-03T07:28:44.874Z</time></trkpt><trkpt lat="45.218478" lon="8.9867037"><ele>67.0</ele><time>2026-04-03T07:28:45.875Z</time></trkpt><trkpt lat="45.2185001" lon="8.9866145"><ele>67.0</ele><time>2026-04-03T07:28:47.874Z</time></trkpt><trkpt lat="45.2185258" lon="8.9864961"><ele>67.0</ele><time>2026-04-03T07:29:35.874Z</time></trkpt><trkpt lat="45.2185522" lon="8.9863268"><ele>67.0</ele><time>2026-04-03T07:29:37.874Z</time></trkpt><trkpt lat="45.2185728" lon="8.9862278"><ele>67.0</ele><time>2026-04-03T07:29:38.875Z</time></trkpt><trkpt lat="45.2185959" lon="8.9861154"><ele>67.0</ele><time>2026-04-03T07:29:39.873Z</time></trkpt><trkpt lat="45.2186212" lon="8.9859982"><ele>67.0</ele><time>2026-04-03T07:29:40.873Z</time></trkpt><trkpt lat="45.2186465" lon="8.9858936"><ele>67.0</ele><time>2026-04-03T07:29:41.874Z</time></trkpt><trkpt lat="45.2186723" lon="8.9858073"><ele>67.0</ele><time>2026-04-03T07:29:42.875Z</time></trkpt><trkpt lat="45.2186768" lon="8.9856656"><ele>67.0</ele><time>2026-04-03T07:29:44.874Z</time></trkpt><trkpt lat="45.2185825" lon="8.985559"><ele>67.0</ele><time>2026-04-03T07:29:46.874Z</time></trkpt><trkpt lat="45.2185043" lon="8.9855221"><ele>67.0</ele><time>2026-04-03T07:29:47.874Z</time></trkpt><trkpt lat="45.2184149" lon="8.9854811"><ele>67.0</ele><time>2026-04-03T07:29:48.872Z</time></trkpt><trkpt lat="45.2183227" lon="8.9854396"><ele>67.0</ele><time>2026-04-03T07:29:49.872Z</time></trkpt><trkpt lat="45.2182196" lon="8.9853918"><ele>67.25</ele><time>2026-04-03T07:29:50.872Z</time></trkpt><trkpt lat="45.2181095" lon="8.9853417"><ele>67.5</ele><time>2026-04-03T07:29:51.873Z</time></trkpt><trkpt lat="45.217994" lon="8.9852904"><ele>67.75</ele><time>2026-04-03T07:29:52.873Z</time></trkpt><trkpt lat="45.2178734" lon="8.9852368"><ele>68.0</ele><time>2026-04-03T07:29:53.873Z</time></trkpt><trkpt lat="45.2177524" lon="8.9851802"><ele>68.0</ele><time>2026-04-03T07:29:54.874Z</time></trkpt><trkpt lat="45.2176257" lon="8.9851209"><ele>68.0</ele><time>2026-04-03T07:29:55.874Z</time></trkpt><trkpt lat="45.2174936" lon="8.9850598"><ele>68.0</ele><time>2026-04-03T07:29:56.874Z</time></trkpt><trkpt lat="45.2173551" lon="8.9849997"><ele>68.0</ele><time>2026-04-03T07:29:57.875Z</time></trkpt><trkpt lat="45.2172103" lon="8.9849467"><ele>68.0</ele><time>2026-04-03T07:29:58.872Z</time></trkpt><trkpt lat="45.2170612" lon="8.9848974"><ele>68.0</ele><time>2026-04-03T07:29:59.874Z</time></trkpt><trkpt lat="45.2169105" lon="8.9848445"><ele>68.0</ele><time>2026-04-03T07:30:00.875Z</time></trkpt><trkpt lat="45.2167579" lon="8.9847937"><ele>68.0</ele><time>2026-04-03T07:30:01.875Z</time></trkpt><trkpt lat="45.2166082" lon="8.9847477"><ele>68.0</ele><time>2026-04-03T07:30:02.873Z</time></trkpt><trkpt lat="45.2164533" lon="8.984699"><ele>68.0</ele><time>2026-04-03T07:30:03.873Z</time></trkpt><trkpt lat="45.2163001" lon="8.9846471"><ele>67.66666666666667</ele><time>2026-04-03T07:30:04.874Z</time></trkpt><trkpt lat="45.2161483" lon="8.9845967"><ele>67.33333333333333</ele><time>2026-04-03T07:30:05.874Z</time></trkpt><trkpt lat="45.2159969" lon="8.984537"><ele>67.0</ele><time>2026-04-03T07:30:06.874Z</time></trkpt><trkpt lat="45.2158441" lon="8.9844739"><ele>67.0</ele><time>2026-04-03T07:30:07.874Z</time></trkpt><trkpt lat="45.2156896" lon="8.9844097"><ele>67.0</ele><time>2026-04-03T07:30:08.875Z</time></trkpt><trkpt lat="45.2155364" lon="8.9843437"><ele>67.0</ele><time>2026-04-03T07:30:09.875Z</time></trkpt><trkpt lat="45.215384" lon="8.9842749"><ele>67.0</ele><time>2026-04-03T07:30:10.875Z</time></trkpt><trkpt lat="45.2152313" lon="8.9842052"><ele>67.0</ele><time>2026-04-03T07:30:11.875Z</time></trkpt><trkpt lat="45.2150803" lon="8.9841332"><ele>67.0</ele><time>2026-04-03T07:30:12.875Z</time></trkpt><trkpt lat="45.2149322" lon="8.98406"><ele>67.33333333333333</ele><time>2026-04-03T07:30:13.875Z</time></trkpt><trkpt lat="45.2147815" lon="8.983986"><ele>67.66666666666667</ele><time>2026-04-03T07:30:14.875Z</time></trkpt><trkpt lat="45.2146287" lon="8.9838968"><ele>68.0</ele><time>2026-04-03T07:30:15.875Z</time></trkpt><trkpt lat="45.2144789" lon="8.9837901"><ele>68.0</ele><time>2026-04-03T07:30:16.874Z</time></trkpt><trkpt lat="45.2143363" lon="8.9836552"><ele>68.0</ele><time>2026-04-03T07:30:17.875Z</time></trkpt><trkpt lat="45.2141926" lon="8.9835003"><ele>68.0</ele><time>2026-04-03T07:30:18.874Z</time></trkpt><trkpt lat="45.2140497" lon="8.9833378"><ele>68.0</ele><time>2026-04-03T07:30:19.874Z</time></trkpt><trkpt lat="45.2139049" lon="8.9831648"><ele>68.0</ele><time>2026-04-03T07:30:20.874Z</time></trkpt><trkpt lat="45.2137631" lon="8.9829767"><ele>68.0</ele><time>2026-04-03T07:30:21.875Z</time></trkpt><trkpt lat="45.2136323" lon="8.9827723"><ele>68.0</ele><time>2026-04-03T07:30:22.875Z</time></trkpt><trkpt lat="45.2135078" lon="8.98255"><ele>68.0</ele><time>2026-04-03T07:30:23.875Z</time></trkpt><trkpt lat="45.2133834" lon="8.9823214"><ele>68.0</ele><time>2026-04-03T07:30:24.874Z</time></trkpt><trkpt lat="45.21326" lon="8.9820924"><ele>68.0</ele><time>2026-04-03T07:30:25.875Z</time></trkpt><trkpt lat="45.2131383" lon="8.9818707"><ele>68.0</ele><time>2026-04-03T07:30:26.874Z</time></trkpt><trkpt lat="45.2130194" lon="8.9816531"><ele>68.0</ele><time>2026-04-03T07:30:27.875Z</time></trkpt><trkpt lat="45.2129064" lon="8.9814442"><ele>68.0</ele><time>2026-04-03T07:30:28.875Z</time></trkpt><trkpt lat="45.2127865" lon="8.9812478"><ele>68.0</ele><time>2026-04-03T07:30:29.874Z</time></trkpt><trkpt lat="45.2126526" lon="8.9810664"><ele>68.0</ele><time>2026-04-03T07:30:30.874Z</time></trkpt><trkpt lat="45.2125092" lon="8.9809069"><ele>68.33333333333334</ele><time>2026-04-03T07:30:31.875Z</time></trkpt><trkpt lat="45.2123547" lon="8.9807569"><ele>68.66666666666667</ele><time>2026-04-03T07:30:32.873Z</time></trkpt><trkpt lat="45.2121924" lon="8.9806191"><ele>69.0</ele><time>2026-04-03T07:30:33.874Z</time></trkpt><trkpt lat="45.2120269" lon="8.9805007"><ele>69.0</ele><time>2026-04-03T07:30:34.873Z</time></trkpt><trkpt lat="45.2118689" lon="8.9804056"><ele>69.0</ele><time>2026-04-03T07:30:35.874Z</time></trkpt><trkpt lat="45.2117149" lon="8.9803188"><ele>69.0</ele><time>2026-04-03T07:30:36.874Z</time></trkpt><trkpt lat="45.2115773" lon="8.9802229"><ele>69.0</ele><time>2026-04-03T07:30:37.872Z</time></trkpt><trkpt lat="45.2114761" lon="8.9801219"><ele>69.0</ele><time>2026-04-03T07:30:38.873Z</time></trkpt><trkpt lat="45.2114238" lon="8.9800659"><ele>69.0</ele><time>2026-04-03T07:30:39.874Z</time></trkpt><trkpt lat="45.2113585" lon="8.9800844"><ele>69.0</ele><time>2026-04-03T07:30:44.873Z</time></trkpt><trkpt lat="45.2112823" lon="8.9800976"><ele>69.0</ele><time>2026-04-03T07:30:50.871Z</time></trkpt><trkpt lat="45.2112" lon="8.9800029"><ele>69.0</ele><time>2026-04-03T07:30:52.873Z</time></trkpt><trkpt lat="45.2111337" lon="8.9799772"><ele>69.0</ele><time>2026-04-03T07:30:55.872Z</time></trkpt><trkpt lat="45.2111124" lon="8.9800614"><ele>69.0</ele><time>2026-04-03T07:30:58.874Z</time></trkpt><trkpt lat="45.2111204" lon="8.9802287"><ele>69.0</ele><time>2026-04-03T07:31:00.873Z</time></trkpt><trkpt lat="45.2111019" lon="8.9803912"><ele>69.0</ele><time>2026-04-03T07:31:02.875Z</time></trkpt><trkpt lat="45.2110643" lon="8.9805537"><ele>69.0</ele><time>2026-04-03T07:31:04.874Z</time></trkpt><trkpt lat="45.2110503" lon="8.9806595"><ele>69.0</ele><time>2026-04-03T07:31:06.874Z</time></trkpt><trkpt lat="45.2110446" lon="8.9807559"><ele>69.0</ele><time>2026-04-03T07:31:09.873Z</time></trkpt><trkpt lat="45.211033" lon="8.9809174"><ele>69.0</ele><time>2026-04-03T07:31:17.875Z</time></trkpt><trkpt lat="45.2110212" lon="8.9810394"><ele>69.0</ele><time>2026-04-03T07:31:18.873Z</time></trkpt><trkpt lat="45.2110076" lon="8.9811714"><ele>69.0</ele><time>2026-04-03T07:31:19.874Z</time></trkpt><trkpt lat="45.2109923" lon="8.9813473"><ele>69.0</ele><time>2026-04-03T07:31:20.874Z</time></trkpt><trkpt lat="45.2109754" lon="8.9815407"><ele>69.0</ele><time>2026-04-03T07:31:21.873Z</time></trkpt><trkpt lat="45.2109579" lon="8.9817477"><ele>69.0</ele><time>2026-04-03T07:31:22.873Z</time></trkpt><trkpt lat="45.2109424" lon="8.9819623"><ele>69.0</ele><time>2026-04-03T07:31:23.875Z</time></trkpt><trkpt lat="45.2109259" lon="8.9821687"><ele>69.0</ele><time>2026-04-03T07:31:24.873Z</time></trkpt><trkpt lat="45.2109081" lon="8.9823688"><ele>69.0</ele><time>2026-04-03T07:31:25.874Z</time></trkpt><trkpt lat="45.2108912" lon="8.9825563"><ele>69.0</ele><time>2026-04-03T07:31:26.875Z</time></trkpt><trkpt lat="45.2108751" lon="8.9827329"><ele>69.0</ele><time>2026-04-03T07:31:27.874Z</time></trkpt><trkpt lat="45.2108599" lon="8.9829093"><ele>68.5</ele><time>2026-04-03T07:31:28.874Z</time></trkpt><trkpt lat="45.2108385" lon="8.9830807"><ele>68.0</ele><time>2026-04-03T07:31:29.873Z</time></trkpt><trkpt lat="45.2108115" lon="8.9832474"><ele>67.5</ele><time>2026-04-03T07:31:30.873Z</time></trkpt><trkpt lat="45.2107741" lon="8.9834054"><ele>67.0</ele><time>2026-04-03T07:31:31.872Z</time></trkpt><trkpt lat="45.2107247" lon="8.9835539"><ele>67.0</ele><time>2026-04-03T07:31:32.875Z</time></trkpt><trkpt lat="45.2106646" lon="8.9836895"><ele>67.0</ele><time>2026-04-03T07:31:33.874Z</time></trkpt><trkpt lat="45.2105956" lon="8.9838188"><ele>67.0</ele><time>2026-04-03T07:31:34.875Z</time></trkpt><trkpt lat="45.2105285" lon="8.9839357"><ele>67.0</ele><time>2026-04-03T07:31:35.873Z</time></trkpt><trkpt lat="45.210473" lon="8.9840432"><ele>67.0</ele><time>2026-04-03T07:31:36.873Z</time></trkpt><trkpt lat="45.2104331" lon="8.9841403"><ele>67.0</ele><time>2026-04-03T07:31:37.874Z</time></trkpt><trkpt lat="45.2104084" lon="8.9842344"><ele>67.0</ele><time>2026-04-03T07:31:38.874Z</time></trkpt><trkpt lat="45.2103913" lon="8.9843998"><ele>67.0</ele><time>2026-04-03T07:31:40.875Z</time></trkpt><trkpt lat="45.2104248" lon="8.9845646"><ele>67.0</ele><time>2026-04-03T07:31:42.875Z</time></trkpt><trkpt lat="45.2104578" lon="8.9846588"><ele>67.0</ele><time>2026-04-03T07:31:43.873Z</time></trkpt><trkpt lat="45.2104974" lon="8.9847614"><ele>67.0</ele><time>2026-04-03T07:31:44.874Z</time></trkpt><trkpt lat="45.2105387" lon="8.9848774"><ele>67.0</ele><time>2026-04-03T07:31:45.875Z</time></trkpt><trkpt lat="45.2105753" lon="8.9850084"><ele>67.0</ele><time>2026-04-03T07:31:46.875Z</time></trkpt><trkpt lat="45.2106038" lon="8.9851496"><ele>67.0</ele><time>2026-04-03T07:31:47.875Z</time></trkpt><trkpt lat="45.2106218" lon="8.9852967"><ele>67.0</ele><time>2026-04-03T07:31:48.874Z</time></trkpt><trkpt lat="45.2106364" lon="8.9854561"><ele>67.0</ele><time>2026-04-03T07:31:49.875Z</time></trkpt><trkpt lat="45.2106493" lon="8.9856205"><ele>67.0</ele><time>2026-04-03T07:31:50.873Z</time></trkpt><trkpt lat="45.2106619" lon="8.9857857"><ele>67.0</ele><time>2026-04-03T07:31:51.875Z</time></trkpt><trkpt lat="45.2106769" lon="8.9859517"><ele>67.0</ele><time>2026-04-03T07:31:52.875Z</time></trkpt><trkpt lat="45.2106896" lon="8.9861149"><ele>67.0</ele><time>2026-04-03T07:31:53.874Z</time></trkpt><trkpt lat="45.2106972" lon="8.986267"><ele>67.0</ele><time>2026-04-03T07:31:54.875Z</time></trkpt><trkpt lat="45.2107055" lon="8.9864122"><ele>67.0</ele><time>2026-04-03T07:31:55.875Z</time></trkpt><trkpt lat="45.2107169" lon="8.9865562"><ele>67.0</ele><time>2026-04-03T07:31:56.875Z</time></trkpt><trkpt lat="45.2107251" lon="8.9866992"><ele>67.0</ele><time>2026-04-03T07:31:57.874Z</time></trkpt><trkpt lat="45.2107338" lon="8.9868413"><ele>67.2</ele><time>2026-04-03T07:31:58.873Z</time></trkpt><trkpt lat="45.2107416" lon="8.9869836"><ele>67.4</ele><time>2026-04-03T07:31:59.875Z</time></trkpt><trkpt lat="45.2107496" lon="8.9871251"><ele>67.6</ele><time>2026-04-03T07:32:00.874Z</time></trkpt><trkpt lat="45.21076" lon="8.987263"><ele>67.8</ele><time>2026-04-03T07:32:01.874Z</time></trkpt><trkpt lat="45.210768" lon="8.9873896"><ele>68.0</ele><time>2026-04-03T07:32:02.874Z</time></trkpt><trkpt lat="45.2107754" lon="8.9875134"><ele>68.0</ele><time>2026-04-03T07:32:03.875Z</time></trkpt><trkpt lat="45.2107802" lon="8.9876349"><ele>68.0</ele><time>2026-04-03T07:32:04.875Z</time></trkpt><trkpt lat="45.2107865" lon="8.9877546"><ele>68.0</ele><time>2026-04-03T07:32:05.874Z</time></trkpt><trkpt lat="45.2107866" lon="8.9878625"><ele>68.0</ele><time>2026-04-03T07:32:06.874Z</time></trkpt><trkpt lat="45.2107818" lon="8.9879587"><ele>68.0</ele><time>2026-04-03T07:32:07.875Z</time></trkpt><trkpt lat="45.2107577" lon="8.9880499"><ele>68.0</ele><time>2026-04-03T07:32:08.874Z</time></trkpt><trkpt lat="45.2107157" lon="8.9881325"><ele>68.0</ele><time>2026-04-03T07:32:09.873Z</time></trkpt><trkpt lat="45.210662" lon="8.9881878"><ele>68.0</ele><time>2026-04-03T07:32:10.874Z</time></trkpt><trkpt lat="45.2106016" lon="8.9882136"><ele>68.0</ele><time>2026-04-03T07:32:11.875Z</time></trkpt><trkpt lat="45.2104869" lon="8.9881817"><ele>68.0</ele><time>2026-04-03T07:32:13.875Z</time></trkpt><trkpt lat="45.2104323" lon="8.9881353"><ele>68.0</ele><time>2026-04-03T07:32:14.872Z</time></trkpt><trkpt lat="45.2103641" lon="8.9880689"><ele>68.0</ele><time>2026-04-03T07:32:15.874Z</time></trkpt><trkpt lat="45.2102776" lon="8.9879832"><ele>67.75</ele><time>2026-04-03T07:32:16.874Z</time></trkpt><trkpt lat="45.210171" lon="8.987884"><ele>67.5</ele><time>2026-04-03T07:32:17.872Z</time></trkpt><trkpt lat="45.210053" lon="8.9877801"><ele>67.25</ele><time>2026-04-03T07:32:18.875Z</time></trkpt><trkpt lat="45.209919" lon="8.9876677"><ele>67.0</ele><time>2026-04-03T07:32:19.874Z</time></trkpt><trkpt lat="45.2097871" lon="8.9875549"><ele>67.0</ele><time>2026-04-03T07:32:20.873Z</time></trkpt><trkpt lat="45.2096639" lon="8.9874464"><ele>67.0</ele><time>2026-04-03T07:32:21.873Z</time></trkpt><trkpt lat="45.2095432" lon="8.9873412"><ele>67.0</ele><time>2026-04-03T07:32:22.872Z</time></trkpt><trkpt lat="45.2094281" lon="8.9872428"><ele>67.0</ele><time>2026-04-03T07:32:23.873Z</time></trkpt><trkpt lat="45.2093115" lon="8.9871431"><ele>67.0</ele><time>2026-04-03T07:32:24.873Z</time></trkpt><trkpt lat="45.2091962" lon="8.987044"><ele>67.0</ele><time>2026-04-03T07:32:25.873Z</time></trkpt><trkpt lat="45.2090869" lon="8.9869453"><ele>67.0</ele><time>2026-04-03T07:32:26.875Z</time></trkpt><trkpt lat="45.2089792" lon="8.9868516"><ele>67.0</ele><time>2026-04-03T07:32:27.872Z</time></trkpt><trkpt lat="45.2088766" lon="8.9867587"><ele>66.8</ele><time>2026-04-03T07:32:28.873Z</time></trkpt><trkpt lat="45.2087703" lon="8.986672"><ele>66.6</ele><time>2026-04-03T07:32:29.875Z</time></trkpt><trkpt lat="45.2086701" lon="8.9865896"><ele>66.39999999999999</ele><time>2026-04-03T07:32:30.872Z</time></trkpt><trkpt lat="45.2085789" lon="8.986516"><ele>66.2</ele><time>2026-04-03T07:32:31.874Z</time></trkpt><trkpt lat="45.2084924" lon="8.9864453"><ele>66.0</ele><time>2026-04-03T07:32:32.875Z</time></trkpt><trkpt lat="45.2084048" lon="8.986372"><ele>66.0</ele><time>2026-04-03T07:32:33.874Z</time></trkpt><trkpt lat="45.2083231" lon="8.9862942"><ele>66.0</ele><time>2026-04-03T07:32:34.875Z</time></trkpt><trkpt lat="45.2082392" lon="8.9862173"><ele>66.0</ele><time>2026-04-03T07:32:35.874Z</time></trkpt><trkpt lat="45.2081574" lon="8.986141"><ele>66.0</ele><time>2026-04-03T07:32:36.875Z</time></trkpt><trkpt lat="45.2080808" lon="8.9860543"><ele>66.0</ele><time>2026-04-03T07:32:37.875Z</time></trkpt><trkpt lat="45.2080149" lon="8.9859594"><ele>66.0</ele><time>2026-04-03T07:32:38.875Z</time></trkpt><trkpt lat="45.2079597" lon="8.9858501"><ele>66.0</ele><time>2026-04-03T07:32:39.875Z</time></trkpt><trkpt lat="45.2079158" lon="8.9857305"><ele>66.0</ele><time>2026-04-03T07:32:40.874Z</time></trkpt><trkpt lat="45.2078783" lon="8.9856068"><ele>66.0</ele><time>2026-04-03T07:32:41.874Z</time></trkpt><trkpt lat="45.207841" lon="8.9854819"><ele>66.0</ele><time>2026-04-03T07:32:42.874Z</time></trkpt><trkpt lat="45.2078042" lon="8.9853551"><ele>66.2</ele><time>2026-04-03T07:32:43.875Z</time></trkpt><trkpt lat="45.207764" lon="8.9852272"><ele>66.39999999999999</ele><time>2026-04-03T07:32:44.874Z</time></trkpt><trkpt lat="45.2077211" lon="8.9850971"><ele>66.6</ele><time>2026-04-03T07:32:45.875Z</time></trkpt><trkpt lat="45.2076795" lon="8.9849683"><ele>66.8</ele><time>2026-04-03T07:32:46.875Z</time></trkpt><trkpt lat="45.2076433" lon="8.9848382"><ele>67.0</ele><time>2026-04-03T07:32:47.874Z</time></trkpt><trkpt lat="45.207606" lon="8.9847077"><ele>67.0</ele><time>2026-04-03T07:32:48.874Z</time></trkpt><trkpt lat="45.2075639" lon="8.9845826"><ele>67.0</ele><time>2026-04-03T07:32:49.875Z</time></trkpt><trkpt lat="45.2075131" lon="8.9844697"><ele>67.0</ele><time>2026-04-03T07:32:50.875Z</time></trkpt><trkpt lat="45.20745" lon="8.9843692"><ele>67.0</ele><time>2026-04-03T07:32:51.875Z</time></trkpt><trkpt lat="45.2073757" lon="8.9842759"><ele>67.0</ele><time>2026-04-03T07:32:52.874Z</time></trkpt><trkpt lat="45.2072911" lon="8.9841886"><ele>67.4</ele><time>2026-04-03T07:32:53.874Z</time></trkpt><trkpt lat="45.2072057" lon="8.9841074"><ele>67.80000000000001</ele><time>2026-04-03T07:32:54.874Z</time></trkpt><trkpt lat="45.207124" lon="8.9840329"><ele>68.2</ele><time>2026-04-03T07:32:55.875Z</time></trkpt><trkpt lat="45.207056" lon="8.9839752"><ele>68.60000000000001</ele><time>2026-04-03T07:32:56.875Z</time></trkpt><trkpt lat="45.2069973" lon="8.983926"><ele>69.0</ele><time>2026-04-03T07:32:57.874Z</time></trkpt><trkpt lat="45.2069051" lon="8.983855"><ele>69.0</ele><time>2026-04-03T07:32:59.875Z</time></trkpt><trkpt lat="45.2068103" lon="8.9838694"><ele>69.0</ele><time>2026-04-03T07:33:01.874Z</time></trkpt><trkpt lat="45.206698" lon="8.9839719"><ele>69.0</ele><time>2026-04-03T07:33:03.872Z</time></trkpt><trkpt lat="45.2066383" lon="8.9840448"><ele>69.0</ele><time>2026-04-03T07:33:04.874Z</time></trkpt><trkpt lat="45.2065804" lon="8.9841219"><ele>69.0</ele><time>2026-04-03T07:33:05.873Z</time></trkpt><trkpt lat="45.2065294" lon="8.9841872"><ele>69.60000000000001</ele><time>2026-04-03T07:33:06.874Z</time></trkpt><trkpt lat="45.2064565" lon="8.9842474"><ele>70.2</ele><time>2026-04-03T07:33:08.874Z</time></trkpt><trkpt lat="45.2063894" lon="8.9843177"><ele>70.80000000000001</ele><time>2026-04-03T07:34:58.874Z</time></trkpt><trkpt lat="45.2062802" lon="8.9844372"><ele>71.4</ele><time>2026-04-03T07:35:00.875Z</time></trkpt><trkpt lat="45.206203" lon="8.9845136"><ele>72.0</ele><time>2026-04-03T07:35:01.873Z</time></trkpt><trkpt lat="45.2061247" lon="8.9845914"><ele>72.0</ele><time>2026-04-03T07:35:02.872Z</time></trkpt><trkpt lat="45.2060484" lon="8.9846681"><ele>72.0</ele><time>2026-04-03T07:35:03.873Z</time></trkpt><trkpt lat="45.2059704" lon="8.9847411"><ele>72.0</ele><time>2026-04-03T07:35:04.872Z</time></trkpt><trkpt lat="45.2058916" lon="8.984814"><ele>72.0</ele><time>2026-04-03T07:35:05.874Z</time></trkpt><trkpt lat="45.2058135" lon="8.9848908"><ele>72.0</ele><time>2026-04-03T07:35:06.874Z</time></trkpt><trkpt lat="45.2057352" lon="8.9849744"><ele>72.0</ele><time>2026-04-03T07:35:07.874Z</time></trkpt><trkpt lat="45.2056575" lon="8.9850567"><ele>72.0</ele><time>2026-04-03T07:35:08.873Z</time></trkpt><trkpt lat="45.2055837" lon="8.9851394"><ele>72.0</ele><time>2026-04-03T07:35:09.873Z</time></trkpt><trkpt lat="45.2055131" lon="8.9852208"><ele>72.0</ele><time>2026-04-03T07:35:10.872Z</time></trkpt><trkpt lat="45.205439" lon="8.9852975"><ele>72.0</ele><time>2026-04-03T07:35:11.873Z</time></trkpt><trkpt lat="45.2053575" lon="8.9853671"><ele>72.0</ele><time>2026-04-03T07:35:12.874Z</time></trkpt><trkpt lat="45.20527" lon="8.9854412"><ele>72.0</ele><time>2026-04-03T07:35:13.873Z</time></trkpt><trkpt lat="45.205193" lon="8.9855226"><ele>72.0</ele><time>2026-04-03T07:35:14.872Z</time></trkpt><trkpt lat="45.2051199" lon="8.9856084"><ele>72.0</ele><time>2026-04-03T07:35:15.874Z</time></trkpt><trkpt lat="45.2050455" lon="8.9856968"><ele>72.0</ele><time>2026-04-03T07:35:16.872Z</time></trkpt><trkpt lat="45.204976" lon="8.985788"><ele>71.83333333333333</ele><time>2026-04-03T07:35:17.874Z</time></trkpt><trkpt lat="45.2049069" lon="8.9858747"><ele>71.66666666666667</ele><time>2026-04-03T07:35:18.872Z</time></trkpt><trkpt lat="45.2048399" lon="8.9859547"><ele>71.5</ele><time>2026-04-03T07:35:19.874Z</time></trkpt><trkpt lat="45.2047788" lon="8.9860273"><ele>71.33333333333334</ele><time>2026-04-03T07:35:20.874Z</time></trkpt><trkpt lat="45.2047165" lon="8.9860967"><ele>71.16666666666667</ele><time>2026-04-03T07:35:21.872Z</time></trkpt><trkpt lat="45.2046529" lon="8.9861595"><ele>71.0</ele><time>2026-04-03T07:35:22.875Z</time></trkpt><trkpt lat="45.2045921" lon="8.9862219"><ele>70.5</ele><time>2026-04-03T07:35:23.873Z</time></trkpt><trkpt lat="45.2044969" lon="8.9863075"><ele>70.0</ele><time>2026-04-03T07:35:25.875Z</time></trkpt><trkpt lat="45.204432" lon="8.9863361"><ele>69.5</ele><time>2026-04-03T07:35:27.875Z</time></trkpt><trkpt lat="45.2043688" lon="8.9862778"><ele>69.0</ele><time>2026-04-03T07:35:31.874Z</time></trkpt><trkpt lat="45.2043343" lon="8.9861599"><ele>68.5</ele><time>2026-04-03T07:35:33.874Z</time></trkpt><trkpt lat="45.204312" lon="8.9860723"><ele>68.0</ele><time>2026-04-03T07:35:34.875Z</time></trkpt><trkpt lat="45.2042854" lon="8.9859766"><ele>68.0</ele><time>2026-04-03T07:35:35.875Z</time></trkpt><trkpt lat="45.2042574" lon="8.9858826"><ele>68.0</ele><time>2026-04-03T07:35:36.874Z</time></trkpt><trkpt lat="45.2042325" lon="8.9857936"><ele>68.0</ele><time>2026-04-03T07:35:37.873Z</time></trkpt><trkpt lat="45.2042076" lon="8.9857086"><ele>68.0</ele><time>2026-04-03T07:35:38.874Z</time></trkpt><trkpt lat="45.2041612" lon="8.9855512"><ele>68.0</ele><time>2026-04-03T07:35:40.872Z</time></trkpt><trkpt lat="45.2041165" lon="8.9854217"><ele>68.0</ele><time>2026-04-03T07:35:42.874Z</time></trkpt><trkpt lat="45.2040857" lon="8.9853346"><ele>68.4</ele><time>2026-04-03T07:35:44.872Z</time></trkpt><trkpt lat="45.2040362" lon="8.9852044"><ele>68.8</ele><time>2026-04-03T07:35:47.873Z</time></trkpt><trkpt lat="45.2040161" lon="8.9850716"><ele>69.2</ele><time>2026-04-03T07:35:49.871Z</time></trkpt><trkpt lat="45.2040306" lon="8.9849275"><ele>69.6</ele><time>2026-04-03T07:35:51.872Z</time></trkpt><trkpt lat="45.204034" lon="8.9847431"><ele>70.0</ele><time>2026-04-03T07:35:53.872Z</time></trkpt><trkpt lat="45.2040226" lon="8.9846404"><ele>70.0</ele><time>2026-04-03T07:35:54.873Z</time></trkpt><trkpt lat="45.2040091" lon="8.9845329"><ele>70.0</ele><time>2026-04-03T07:35:55.873Z</time></trkpt><trkpt lat="45.203995" lon="8.9844267"><ele>70.0</ele><time>2026-04-03T07:35:56.872Z</time></trkpt><trkpt lat="45.2039815" lon="8.9843187"><ele>70.0</ele><time>2026-04-03T07:35:57.872Z</time></trkpt><trkpt lat="45.2039704" lon="8.9842119"><ele>70.0</ele><time>2026-04-03T07:35:58.871Z</time></trkpt><trkpt lat="45.2039584" lon="8.9841066"><ele>70.0</ele><time>2026-04-03T07:35:59.873Z</time></trkpt><trkpt lat="45.2039501" lon="8.9840084"><ele>70.0</ele><time>2026-04-03T07:36:00.872Z</time></trkpt><trkpt lat="45.2039347" lon="8.983849"><ele>70.0</ele><time>2026-04-03T07:36:02.871Z</time></trkpt><trkpt lat="45.2038931" lon="8.9837371"><ele>70.0</ele><time>2026-04-03T07:36:04.872Z</time></trkpt><trkpt lat="45.2038241" lon="8.9836788"><ele>70.0</ele><time>2026-04-03T07:36:06.872Z</time></trkpt><trkpt lat="45.2037311" lon="8.9836801"><ele>70.0</ele><time>2026-04-03T07:36:08.875Z</time></trkpt><trkpt lat="45.2036407" lon="8.9836896"><ele>70.0</ele><time>2026-04-03T07:36:10.872Z</time></trkpt><trkpt lat="45.2035821" lon="8.9836239"><ele>70.0</ele><time>2026-04-03T07:36:12.873Z</time></trkpt><trkpt lat="45.2035378" lon="8.9834952"><ele>70.0</ele><time>2026-04-03T07:36:14.874Z</time></trkpt><trkpt lat="45.2035141" lon="8.9834043"><ele>70.0</ele><time>2026-04-03T07:36:15.872Z</time></trkpt><trkpt lat="45.2034872" lon="8.983306"><ele>70.0</ele><time>2026-04-03T07:36:16.872Z</time></trkpt><trkpt lat="45.2034581" lon="8.983197"><ele>70.0</ele><time>2026-04-03T07:36:17.874Z</time></trkpt><trkpt lat="45.2034294" lon="8.9830984"><ele>70.0</ele><time>2026-04-03T07:36:18.875Z</time></trkpt><trkpt lat="45.2033836" lon="8.9829555"><ele>70.0</ele><time>2026-04-03T07:36:20.874Z</time></trkpt><trkpt lat="45.2033364" lon="8.982859"><ele>70.0</ele><time>2026-04-03T07:36:22.874Z</time></trkpt><trkpt lat="45.2032629" lon="8.9827995"><ele>70.0</ele><time>2026-04-03T07:36:24.875Z</time></trkpt><trkpt lat="45.2031526" lon="8.9828175"><ele>70.0</ele><time>2026-04-03T07:36:26.872Z</time></trkpt><trkpt lat="45.2030796" lon="8.982839"><ele>70.0</ele><time>2026-04-03T07:36:27.873Z</time></trkpt><trkpt lat="45.2029946" lon="8.9828702"><ele>70.0</ele><time>2026-04-03T07:36:28.872Z</time></trkpt><trkpt lat="45.2028983" lon="8.9829055"><ele>70.0</ele><time>2026-04-03T07:36:29.873Z</time></trkpt><trkpt lat="45.2027959" lon="8.9829467"><ele>70.0</ele><time>2026-04-03T07:36:30.873Z</time></trkpt><trkpt lat="45.2026921" lon="8.9829815"><ele>70.0</ele><time>2026-04-03T07:36:31.871Z</time></trkpt><trkpt lat="45.2025862" lon="8.9830072"><ele>70.0</ele><time>2026-04-03T07:36:32.871Z</time></trkpt><trkpt lat="45.2024739" lon="8.9830239"><ele>70.0</ele><time>2026-04-03T07:36:33.873Z</time></trkpt><trkpt lat="45.2023597" lon="8.9830301"><ele>70.0</ele><time>2026-04-03T07:36:34.872Z</time></trkpt><trkpt lat="45.2022435" lon="8.9830337"><ele>70.0</ele><time>2026-04-03T07:36:35.871Z</time></trkpt><trkpt lat="45.2021243" lon="8.9830382"><ele>70.0</ele><time>2026-04-03T07:36:36.872Z</time></trkpt><trkpt lat="45.202004" lon="8.9830403"><ele>70.0</ele><time>2026-04-03T07:36:37.873Z</time></trkpt><trkpt lat="45.2018851" lon="8.9830472"><ele>70.0</ele><time>2026-04-03T07:36:38.873Z</time></trkpt><trkpt lat="45.20177" lon="8.9830462"><ele>70.0</ele><time>2026-04-03T07:36:39.872Z</time></trkpt><trkpt lat="45.2016548" lon="8.98304"><ele>70.0</ele><time>2026-04-03T07:36:40.874Z</time></trkpt><trkpt lat="45.2015408" lon="8.9830222"><ele>70.0</ele><time>2026-04-03T07:36:41.871Z</time></trkpt><trkpt lat="45.2014305" lon="8.9829906"><ele>70.0</ele><time>2026-04-03T07:36:42.873Z</time></trkpt><trkpt lat="45.2013195" lon="8.9829533"><ele>70.0</ele><time>2026-04-03T07:36:43.875Z</time></trkpt><trkpt lat="45.2012091" lon="8.9829056"><ele>70.75</ele><time>2026-04-03T07:36:44.872Z</time></trkpt><trkpt lat="45.2010983" lon="8.9828437"><ele>71.5</ele><time>2026-04-03T07:36:45.873Z</time></trkpt><trkpt lat="45.2009903" lon="8.9827842"><ele>72.25</ele><time>2026-04-03T07:36:46.872Z</time></trkpt><trkpt lat="45.2008781" lon="8.9827263"><ele>73.0</ele><time>2026-04-03T07:36:47.873Z</time></trkpt><trkpt lat="45.2007636" lon="8.9826725"><ele>72.6</ele><time>2026-04-03T07:36:48.873Z</time></trkpt><trkpt lat="45.2006464" lon="8.9826336"><ele>72.19999999999999</ele><time>2026-04-03T07:36:49.873Z</time></trkpt><trkpt lat="45.2005388" lon="8.9826038"><ele>71.8</ele><time>2026-04-03T07:36:50.872Z</time></trkpt><trkpt lat="45.2004473" lon="8.9825894"><ele>71.39999999999999</ele><time>2026-04-03T07:36:51.873Z</time></trkpt><trkpt lat="45.2003581" lon="8.9825805"><ele>71.0</ele><time>2026-04-03T07:36:52.874Z</time></trkpt><trkpt lat="45.2002765" lon="8.9825757"><ele>71.0</ele><time>2026-04-03T07:36:53.872Z</time></trkpt><trkpt lat="45.2001994" lon="8.9825759"><ele>71.0</ele><time>2026-04-03T07:36:54.873Z</time></trkpt><trkpt lat="45.20012" lon="8.9825739"><ele>71.0</ele><time>2026-04-03T07:36:55.872Z</time></trkpt><trkpt lat="45.2000402" lon="8.9825717"><ele>71.0</ele><time>2026-04-03T07:36:56.874Z</time></trkpt><trkpt lat="45.1999542" lon="8.9825751"><ele>71.0</ele><time>2026-04-03T07:36:57.874Z</time></trkpt><trkpt lat="45.1998638" lon="8.9825867"><ele>71.0</ele><time>2026-04-03T07:36:58.873Z</time></trkpt><trkpt lat="45.19977" lon="8.9825938"><ele>70.39999999999999</ele><time>2026-04-03T07:36:59.874Z</time></trkpt><trkpt lat="45.1996761" lon="8.982599"><ele>69.8</ele><time>2026-04-03T07:37:00.875Z</time></trkpt><trkpt lat="45.1995823" lon="8.9825958"><ele>69.19999999999999</ele><time>2026-04-03T07:37:01.874Z</time></trkpt><trkpt lat="45.1994903" lon="8.9825788"><ele>68.6</ele><time>2026-04-03T07:37:02.874Z</time></trkpt><trkpt lat="45.1994021" lon="8.9825553"><ele>68.0</ele><time>2026-04-03T07:37:03.874Z</time></trkpt><trkpt lat="45.1993113" lon="8.9825331"><ele>68.0</ele><time>2026-04-03T07:37:04.874Z</time></trkpt><trkpt lat="45.1992186" lon="8.9825182"><ele>68.0</ele><time>2026-04-03T07:37:05.871Z</time></trkpt><trkpt lat="45.1991305" lon="8.9825116"><ele>68.0</ele><time>2026-04-03T07:37:06.875Z</time></trkpt><trkpt lat="45.1990419" lon="8.9825124"><ele>68.0</ele><time>2026-04-03T07:37:07.873Z</time></trkpt><trkpt lat="45.1989565" lon="8.9825292"><ele>68.0</ele><time>2026-04-03T07:37:08.873Z</time></trkpt><trkpt lat="45.1988816" lon="8.9825625"><ele>68.0</ele><time>2026-04-03T07:37:09.873Z</time></trkpt><trkpt lat="45.198817" lon="8.9825962"><ele>68.5</ele><time>2026-04-03T07:37:10.874Z</time></trkpt><trkpt lat="45.1987369" lon="8.9826367"><ele>69.0</ele><time>2026-04-03T07:37:12.875Z</time></trkpt><trkpt lat="45.1986694" lon="8.9826483"><ele>69.5</ele><time>2026-04-03T07:37:14.875Z</time></trkpt><trkpt lat="45.1986059" lon="8.9825841"><ele>70.0</ele><time>2026-04-03T07:37:16.873Z</time></trkpt><trkpt lat="45.198551" lon="8.9824268"><ele>70.5</ele><time>2026-04-03T07:37:18.874Z</time></trkpt><trkpt lat="45.1985216" lon="8.9823214"><ele>71.0</ele><time>2026-04-03T07:37:19.873Z</time></trkpt><trkpt lat="45.1984936" lon="8.9821992"><ele>71.0</ele><time>2026-04-03T07:37:20.873Z</time></trkpt><trkpt lat="45.1984688" lon="8.9820582"><ele>71.0</ele><time>2026-04-03T07:37:21.872Z</time></trkpt><trkpt lat="45.1984532" lon="8.9819025"><ele>71.0</ele><time>2026-04-03T07:37:22.873Z</time></trkpt><trkpt lat="45.198445" lon="8.981742"><ele>71.0</ele><time>2026-04-03T07:37:23.872Z</time></trkpt><trkpt lat="45.198442" lon="8.9815665"><ele>70.75</ele><time>2026-04-03T07:37:24.873Z</time></trkpt><trkpt lat="45.1984424" lon="8.981378"><ele>70.5</ele><time>2026-04-03T07:37:25.872Z</time></trkpt><trkpt lat="45.1984423" lon="8.9811948"><ele>70.25</ele><time>2026-04-03T07:37:26.873Z</time></trkpt><trkpt lat="45.1984432" lon="8.9810157"><ele>70.0</ele><time>2026-04-03T07:37:27.873Z</time></trkpt><trkpt lat="45.1984538" lon="8.9808384"><ele>70.0</ele><time>2026-04-03T07:37:28.873Z</time></trkpt><trkpt lat="45.1984781" lon="8.980674"><ele>70.0</ele><time>2026-04-03T07:37:29.873Z</time></trkpt><trkpt lat="45.1985173" lon="8.9805179"><ele>70.0</ele><time>2026-04-03T07:37:30.873Z</time></trkpt><trkpt lat="45.1985689" lon="8.9803633"><ele>70.0</ele><time>2026-04-03T07:37:31.874Z</time></trkpt><trkpt lat="45.1986314" lon="8.9802141"><ele>70.0</ele><time>2026-04-03T07:37:32.873Z</time></trkpt><trkpt lat="45.1987023" lon="8.980075"><ele>70.0</ele><time>2026-04-03T07:37:33.873Z</time></trkpt><trkpt lat="45.1987702" lon="8.979947"><ele>70.0</ele><time>2026-04-03T07:37:34.875Z</time></trkpt><trkpt lat="45.1988352" lon="8.9798277"><ele>70.0</ele><time>2026-04-03T07:37:35.871Z</time></trkpt><trkpt lat="45.1988998" lon="8.9797233"><ele>70.0</ele><time>2026-04-03T07:37:36.871Z</time></trkpt><trkpt lat="45.1989574" lon="8.9796208"><ele>70.0</ele><time>2026-04-03T07:37:37.872Z</time></trkpt><trkpt lat="45.1990026" lon="8.9795172"><ele>70.0</ele><time>2026-04-03T07:37:38.873Z</time></trkpt><trkpt lat="45.1990348" lon="8.9794108"><ele>70.0</ele><time>2026-04-03T07:37:39.874Z</time></trkpt><trkpt lat="45.1990538" lon="8.9792915"><ele>70.0</ele><time>2026-04-03T07:37:40.873Z</time></trkpt><trkpt lat="45.1990585" lon="8.9791681"><ele>70.0</ele><time>2026-04-03T07:37:41.873Z</time></trkpt><trkpt lat="45.1990536" lon="8.9790336"><ele>70.0</ele><time>2026-04-03T07:37:42.874Z</time></trkpt><trkpt lat="45.1990449" lon="8.9788954"><ele>70.2</ele><time>2026-04-03T07:37:43.872Z</time></trkpt><trkpt lat="45.1990378" lon="8.9787454"><ele>70.4</ele><time>2026-04-03T07:37:44.872Z</time></trkpt><trkpt lat="45.1990336" lon="8.9785989"><ele>70.6</ele><time>2026-04-03T07:37:45.873Z</time></trkpt><trkpt lat="45.1990342" lon="8.9784556"><ele>70.8</ele><time>2026-04-03T07:37:46.873Z</time></trkpt><trkpt lat="45.1990279" lon="8.9783254"><ele>71.0</ele><time>2026-04-03T07:37:47.87Z</time></trkpt><trkpt lat="45.199017" lon="8.9782288"><ele>70.6</ele><time>2026-04-03T07:37:48.872Z</time></trkpt><trkpt lat="45.1989667" lon="8.9780831"><ele>70.19999999999999</ele><time>2026-04-03T07:37:50.873Z</time></trkpt><trkpt lat="45.1988873" lon="8.9779889"><ele>69.80000000000001</ele><time>2026-04-03T07:37:52.874Z</time></trkpt><trkpt lat="45.1988108" lon="8.9778991"><ele>69.4</ele><time>2026-04-03T07:37:54.874Z</time></trkpt><trkpt lat="45.1987191" lon="8.9777965"><ele>69.0</ele><time>2026-04-03T07:37:56.875Z</time></trkpt><trkpt lat="45.1986712" lon="8.977736"><ele>69.0</ele><time>2026-04-03T07:37:57.875Z</time></trkpt><trkpt lat="45.1986199" lon="8.9776706"><ele>69.0</ele><time>2026-04-03T07:37:58.872Z</time></trkpt><trkpt lat="45.1985668" lon="8.9776115"><ele>69.0</ele><time>2026-04-03T07:37:59.871Z</time></trkpt><trkpt lat="45.1985087" lon="8.9775428"><ele>69.0</ele><time>2026-04-03T07:38:00.874Z</time></trkpt><trkpt lat="45.1984536" lon="8.9774732"><ele>69.0</ele><time>2026-04-03T07:38:01.873Z</time></trkpt><trkpt lat="45.1983999" lon="8.9774075"><ele>69.0</ele><time>2026-04-03T07:38:02.872Z</time></trkpt><trkpt lat="45.1983426" lon="8.9773368"><ele>69.0</ele><time>2026-04-03T07:38:03.875Z</time></trkpt><trkpt lat="45.1982842" lon="8.9772709"><ele>69.33333333333333</ele><time>2026-04-03T07:38:04.874Z</time></trkpt><trkpt lat="45.1982249" lon="8.9772126"><ele>69.66666666666667</ele><time>2026-04-03T07:38:05.872Z</time></trkpt><trkpt lat="45.1981644" lon="8.9771548"><ele>70.0</ele><time>2026-04-03T07:38:06.875Z</time></trkpt><trkpt lat="45.1981064" lon="8.9770978"><ele>70.33333333333334</ele><time>2026-04-03T07:38:07.873Z</time></trkpt><trkpt lat="45.198047" lon="8.9770446"><ele>70.66666666666667</ele><time>2026-04-03T07:38:08.875Z</time></trkpt><trkpt lat="45.1979371" lon="8.9769623"><ele>71.0</ele><time>2026-04-03T07:38:10.874Z</time></trkpt><trkpt lat="45.1978561" lon="8.9768869"><ele>71.0</ele><time>2026-04-03T07:38:12.873Z</time></trkpt><trkpt lat="45.1978022" lon="8.976811"><ele>71.0</ele><time>2026-04-03T07:38:14.873Z</time></trkpt><trkpt lat="45.1977691" lon="8.9767172"><ele>71.0</ele><time>2026-04-03T07:38:16.872Z</time></trkpt><trkpt lat="45.1977256" lon="8.9766341"><ele>71.0</ele><time>2026-04-03T07:38:18.872Z</time></trkpt><trkpt lat="45.1976708" lon="8.9765652"><ele>71.0</ele><time>2026-04-03T07:38:20.873Z</time></trkpt><trkpt lat="45.1976117" lon="8.9765002"><ele>71.0</ele><time>2026-04-03T07:38:22.873Z</time></trkpt><trkpt lat="45.1975528" lon="8.9764295"><ele>71.0</ele><time>2026-04-03T07:38:24.872Z</time></trkpt><trkpt lat="45.1974835" lon="8.9763543"><ele>71.5</ele><time>2026-04-03T07:38:26.872Z</time></trkpt><trkpt lat="45.1974194" lon="8.976283"><ele>72.0</ele><time>2026-04-03T07:38:28.873Z</time></trkpt><trkpt lat="45.197349" lon="8.9762055"><ele>72.5</ele><time>2026-04-03T07:38:30.873Z</time></trkpt><trkpt lat="45.1972628" lon="8.9761445"><ele>73.0</ele><time>2026-04-03T07:38:32.872Z</time></trkpt><trkpt lat="45.1971772" lon="8.976127"><ele>73.5</ele><time>2026-04-03T07:38:34.872Z</time></trkpt><trkpt lat="45.1971071" lon="8.9761905"><ele>74.0</ele><time>2026-04-03T07:38:36.873Z</time></trkpt><trkpt lat="45.1970495" lon="8.9763105"><ele>74.5</ele><time>2026-04-03T07:38:38.872Z</time></trkpt><trkpt lat="45.1970061" lon="8.9764568"><ele>75.0</ele><time>2026-04-03T07:38:40.871Z</time></trkpt><trkpt lat="45.1969619" lon="8.9766206"><ele>75.5</ele><time>2026-04-03T07:38:42.873Z</time></trkpt><trkpt lat="45.1969394" lon="8.9767056"><ele>76.0</ele><time>2026-04-03T07:38:43.872Z</time></trkpt><trkpt lat="45.1969143" lon="8.976789"><ele>76.5</ele><time>2026-04-03T07:38:44.872Z</time></trkpt><trkpt lat="45.1968878" lon="8.9768733"><ele>77.0</ele><time>2026-04-03T07:38:45.874Z</time></trkpt><trkpt lat="45.1968603" lon="8.9769546"><ele>77.0</ele><time>2026-04-03T07:38:46.872Z</time></trkpt><trkpt lat="45.1968164" lon="8.977091"><ele>77.0</ele><time>2026-04-03T07:38:48.871Z</time></trkpt><trkpt lat="45.1967616" lon="8.9771716"><ele>77.0</ele><time>2026-04-03T07:38:50.872Z</time></trkpt><trkpt lat="45.196691" lon="8.9771918"><ele>77.0</ele><time>2026-04-03T07:38:52.873Z</time></trkpt><trkpt lat="45.1965961" lon="8.9771756"><ele>77.0</ele><time>2026-04-03T07:38:54.875Z</time></trkpt><trkpt lat="45.1964646" lon="8.9771541"><ele>79.0</ele><time>2026-04-03T07:38:56.874Z</time></trkpt><trkpt lat="45.1963942" lon="8.9771533"><ele>81.0</ele><time>2026-04-03T07:38:57.873Z</time></trkpt><trkpt lat="45.1963258" lon="8.9771466"><ele>83.0</ele><time>2026-04-03T07:38:58.875Z</time></trkpt><trkpt lat="45.1962586" lon="8.977133"><ele>85.0</ele><time>2026-04-03T07:38:59.874Z</time></trkpt><trkpt lat="45.1961928" lon="8.9771144"><ele>87.0</ele><time>2026-04-03T07:39:00.873Z</time></trkpt><trkpt lat="45.1961256" lon="8.9770892"><ele>89.0</ele><time>2026-04-03T07:39:01.872Z</time></trkpt><trkpt lat="45.1960572" lon="8.9770615"><ele>91.0</ele><time>2026-04-03T07:39:02.872Z</time></trkpt><trkpt lat="45.195985" lon="8.9770292"><ele>91.0</ele><time>2026-04-03T07:39:03.871Z</time></trkpt><trkpt lat="45.1959143" lon="8.9769893"><ele>91.0</ele><time>2026-04-03T07:39:04.874Z</time></trkpt><trkpt lat="45.1958459" lon="8.9769464"><ele>91.0</ele><time>2026-04-03T07:39:05.872Z</time></trkpt><trkpt lat="45.1957815" lon="8.9768955"><ele>91.0</ele><time>2026-04-03T07:39:06.873Z</time></trkpt><trkpt lat="45.1957201" lon="8.9768303"><ele>91.0</ele><time>2026-04-03T07:39:07.872Z</time></trkpt><trkpt lat="45.1956646" lon="8.9767564"><ele>91.0</ele><time>2026-04-03T07:39:08.873Z</time></trkpt><trkpt lat="45.19561" lon="8.9766756"><ele>91.16666666666666</ele><time>2026-04-03T07:39:09.875Z</time></trkpt><trkpt lat="45.1955596" lon="8.976586"><ele>91.33333333333333</ele><time>2026-04-03T07:39:10.872Z</time></trkpt><trkpt lat="45.1955139" lon="8.9764923"><ele>91.5</ele><time>2026-04-03T07:39:11.872Z</time></trkpt><trkpt lat="45.1954664" lon="8.9763967"><ele>91.66666666666667</ele><time>2026-04-03T07:39:12.873Z</time></trkpt><trkpt lat="45.1954127" lon="8.9763095"><ele>91.83333333333334</ele><time>2026-04-03T07:39:13.871Z</time></trkpt><trkpt lat="45.1953578" lon="8.9762307"><ele>92.0</ele><time>2026-04-03T07:39:14.872Z</time></trkpt><trkpt lat="45.1952949" lon="8.9761605"><ele>92.0</ele><time>2026-04-03T07:39:15.872Z</time></trkpt><trkpt lat="45.195229" lon="8.9760931"><ele>92.0</ele><time>2026-04-03T07:39:16.871Z</time></trkpt><trkpt lat="45.1951622" lon="8.9760233"><ele>92.0</ele><time>2026-04-03T07:39:17.872Z</time></trkpt><trkpt lat="45.1951032" lon="8.9759471"><ele>92.0</ele><time>2026-04-03T07:39:18.872Z</time></trkpt><trkpt lat="45.1950524" lon="8.9758639"><ele>92.0</ele><time>2026-04-03T07:39:19.871Z</time></trkpt><trkpt lat="45.195004" lon="8.9757884"><ele>92.0</ele><time>2026-04-03T07:39:20.872Z</time></trkpt><trkpt lat="45.1949551" lon="8.9757276"><ele>92.0</ele><time>2026-04-03T07:39:21.873Z</time></trkpt><trkpt lat="45.1948429" lon="8.9756519"><ele>92.0</ele><time>2026-04-03T07:39:23.87Z</time></trkpt><trkpt lat="45.1947807" lon="8.9756287"><ele>92.0</ele><time>2026-04-03T07:39:24.871Z</time></trkpt><trkpt lat="45.1947127" lon="8.9756132"><ele>92.0</ele><time>2026-04-03T07:39:25.872Z</time></trkpt><trkpt lat="45.1946361" lon="8.975593"><ele>92.0</ele><time>2026-04-03T07:39:26.873Z</time></trkpt><trkpt lat="45.194557" lon="8.9755777"><ele>92.0</ele><time>2026-04-03T07:39:27.872Z</time></trkpt><trkpt lat="45.1944698" lon="8.9755639"><ele>91.66666666666667</ele><time>2026-04-03T07:39:28.872Z</time></trkpt><trkpt lat="45.1943811" lon="8.9755541"><ele>91.33333333333334</ele><time>2026-04-03T07:39:29.871Z</time></trkpt><trkpt lat="45.1942902" lon="8.9755371"><ele>91.0</ele><time>2026-04-03T07:39:30.872Z</time></trkpt><trkpt lat="45.1941974" lon="8.975522"><ele>90.66666666666667</ele><time>2026-04-03T07:39:31.871Z</time></trkpt><trkpt lat="45.1941071" lon="8.9755102"><ele>90.33333333333333</ele><time>2026-04-03T07:39:32.872Z</time></trkpt><trkpt lat="45.1940259" lon="8.9754997"><ele>90.0</ele><time>2026-04-03T07:39:33.873Z</time></trkpt><trkpt lat="45.1939508" lon="8.9754898"><ele>89.66666666666667</ele><time>2026-04-03T07:39:34.873Z</time></trkpt><trkpt lat="45.1938811" lon="8.9754807"><ele>89.33333333333333</ele><time>2026-04-03T07:39:35.874Z</time></trkpt><trkpt lat="45.1938149" lon="8.975473"><ele>89.0</ele><time>2026-04-03T07:39:36.871Z</time></trkpt><trkpt lat="45.1937058" lon="8.9754575"><ele>88.66666666666666</ele><time>2026-04-03T07:39:38.874Z</time></trkpt><trkpt lat="45.1936192" lon="8.9754613"><ele>88.33333333333333</ele><time>2026-04-03T07:39:40.874Z</time></trkpt><trkpt lat="45.1935475" lon="8.9755172"><ele>88.0</ele><time>2026-04-03T07:39:42.873Z</time></trkpt><trkpt lat="45.193462" lon="8.9756434"><ele>88.0</ele><time>2026-04-03T07:39:44.874Z</time></trkpt><trkpt lat="45.1934076" lon="8.9757312"><ele>88.0</ele><time>2026-04-03T07:39:45.872Z</time></trkpt><trkpt lat="45.1933463" lon="8.9758419"><ele>88.0</ele><time>2026-04-03T07:39:46.873Z</time></trkpt><trkpt lat="45.1932809" lon="8.9759637"><ele>88.0</ele><time>2026-04-03T07:39:47.874Z</time></trkpt><trkpt lat="45.1932103" lon="8.9760976"><ele>88.0</ele><time>2026-04-03T07:39:48.874Z</time></trkpt><trkpt lat="45.1931341" lon="8.976244"><ele>88.0</ele><time>2026-04-03T07:39:49.873Z</time></trkpt><trkpt lat="45.1930517" lon="8.9763946"><ele>88.0</ele><time>2026-04-03T07:39:50.872Z</time></trkpt><trkpt lat="45.1929666" lon="8.9765518"><ele>88.0</ele><time>2026-04-03T07:39:51.872Z</time></trkpt><trkpt lat="45.1928816" lon="8.9767142"><ele>88.0</ele><time>2026-04-03T07:39:52.873Z</time></trkpt><trkpt lat="45.1927938" lon="8.9768772"><ele>88.25</ele><time>2026-04-03T07:39:53.872Z</time></trkpt><trkpt lat="45.1927053" lon="8.9770374"><ele>88.5</ele><time>2026-04-03T07:39:54.873Z</time></trkpt><trkpt lat="45.1926191" lon="8.9771968"><ele>88.75</ele><time>2026-04-03T07:39:55.873Z</time></trkpt><trkpt lat="45.1925345" lon="8.9773573"><ele>89.0</ele><time>2026-04-03T07:39:56.872Z</time></trkpt><trkpt lat="45.1924536" lon="8.977511"><ele>89.25</ele><time>2026-04-03T07:39:57.873Z</time></trkpt><trkpt lat="45.1923782" lon="8.9776494"><ele>89.5</ele><time>2026-04-03T07:39:58.871Z</time></trkpt><trkpt lat="45.1923081" lon="8.9777786"><ele>89.75</ele><time>2026-04-03T07:39:59.872Z</time></trkpt><trkpt lat="45.1922433" lon="8.9779039"><ele>90.0</ele><time>2026-04-03T07:40:00.872Z</time></trkpt><trkpt lat="45.1921808" lon="8.9780251"><ele>90.0</ele><time>2026-04-03T07:40:01.87Z</time></trkpt><trkpt lat="45.192122" lon="8.9781298"><ele>90.0</ele><time>2026-04-03T07:40:02.872Z</time></trkpt><trkpt lat="45.1920622" lon="8.978227"><ele>90.0</ele><time>2026-04-03T07:40:03.871Z</time></trkpt><trkpt lat="45.1919985" lon="8.9783167"><ele>90.0</ele><time>2026-04-03T07:40:04.871Z</time></trkpt><trkpt lat="45.1919301" lon="8.978394"><ele>90.0</ele><time>2026-04-03T07:40:05.873Z</time></trkpt><trkpt lat="45.1918665" lon="8.9784636"><ele>90.0</ele><time>2026-04-03T07:40:06.872Z</time></trkpt><trkpt lat="45.191808" lon="8.978522"><ele>89.83333333333333</ele><time>2026-04-03T07:40:07.871Z</time></trkpt><trkpt lat="45.1917543" lon="8.9785708"><ele>89.66666666666667</ele><time>2026-04-03T07:40:08.87Z</time></trkpt><trkpt lat="45.1916956" lon="8.9786073"><ele>89.5</ele><time>2026-04-03T07:40:09.871Z</time></trkpt><trkpt lat="45.1916303" lon="8.9786415"><ele>89.33333333333334</ele><time>2026-04-03T07:40:10.873Z</time></trkpt><trkpt lat="45.1915539" lon="8.9786753"><ele>89.16666666666667</ele><time>2026-04-03T07:40:11.872Z</time></trkpt><trkpt lat="45.191471" lon="8.9787018"><ele>89.0</ele><time>2026-04-03T07:40:12.873Z</time></trkpt><trkpt lat="45.1913801" lon="8.9787248"><ele>89.0</ele><time>2026-04-03T07:40:13.872Z</time></trkpt><trkpt lat="45.1912812" lon="8.9787469"><ele>89.0</ele><time>2026-04-03T07:40:14.874Z</time></trkpt><trkpt lat="45.191176" lon="8.9787679"><ele>89.0</ele><time>2026-04-03T07:40:15.872Z</time></trkpt><trkpt lat="45.1910647" lon="8.9787791"><ele>89.0</ele><time>2026-04-03T07:40:16.872Z</time></trkpt><trkpt lat="45.1909505" lon="8.9787909"><ele>89.0</ele><time>2026-04-03T07:40:17.873Z</time></trkpt><trkpt lat="45.1908356" lon="8.9787985"><ele>89.0</ele><time>2026-04-03T07:40:18.873Z</time></trkpt><trkpt lat="45.1907237" lon="8.9788007"><ele>89.0</ele><time>2026-04-03T07:40:19.873Z</time></trkpt><trkpt lat="45.1906143" lon="8.978802"><ele>89.0</ele><time>2026-04-03T07:40:20.874Z</time></trkpt><trkpt lat="45.1905065" lon="8.9787996"><ele>89.0</ele><time>2026-04-03T07:40:21.874Z</time></trkpt><trkpt lat="45.1904013" lon="8.9787937"><ele>89.0</ele><time>2026-04-03T07:40:22.874Z</time></trkpt><trkpt lat="45.190294" lon="8.9787844"><ele>89.2</ele><time>2026-04-03T07:40:23.873Z</time></trkpt><trkpt lat="45.1901855" lon="8.9787694"><ele>89.4</ele><time>2026-04-03T07:40:24.874Z</time></trkpt><trkpt lat="45.1900778" lon="8.9787447"><ele>89.6</ele><time>2026-04-03T07:40:25.871Z</time></trkpt><trkpt lat="45.1899746" lon="8.9787246"><ele>89.8</ele><time>2026-04-03T07:40:26.875Z</time></trkpt><trkpt lat="45.1898795" lon="8.9787045"><ele>90.0</ele><time>2026-04-03T07:40:27.874Z</time></trkpt><trkpt lat="45.1897914" lon="8.9786882"><ele>90.0</ele><time>2026-04-03T07:40:28.875Z</time></trkpt><trkpt lat="45.1897077" lon="8.9786724"><ele>90.0</ele><time>2026-04-03T07:40:29.872Z</time></trkpt><trkpt lat="45.189627" lon="8.9786564"><ele>90.0</ele><time>2026-04-03T07:40:30.873Z</time></trkpt><trkpt lat="45.1895528" lon="8.9786446"><ele>90.0</ele><time>2026-04-03T07:40:31.873Z</time></trkpt><trkpt lat="45.1894812" lon="8.9786328"><ele>90.0</ele><time>2026-04-03T07:40:32.873Z</time></trkpt><trkpt lat="45.1894087" lon="8.9786281"><ele>90.0</ele><time>2026-04-03T07:40:33.873Z</time></trkpt><trkpt lat="45.1893357" lon="8.9786353"><ele>90.0</ele><time>2026-04-03T07:40:34.872Z</time></trkpt><trkpt lat="45.1892659" lon="8.9786434"><ele>90.0</ele><time>2026-04-03T07:40:35.873Z</time></trkpt><trkpt lat="45.1891963" lon="8.9786553"><ele>90.0</ele><time>2026-04-03T07:40:36.873Z</time></trkpt><trkpt lat="45.1891218" lon="8.9786743"><ele>90.0</ele><time>2026-04-03T07:40:37.872Z</time></trkpt><trkpt lat="45.1890474" lon="8.9787101"><ele>90.0</ele><time>2026-04-03T07:40:38.873Z</time></trkpt><trkpt lat="45.1889696" lon="8.9787577"><ele>90.0</ele><time>2026-04-03T07:40:39.872Z</time></trkpt><trkpt lat="45.1888922" lon="8.9788179"><ele>89.4</ele><time>2026-04-03T07:40:40.872Z</time></trkpt><trkpt lat="45.1888139" lon="8.978889"><ele>88.8</ele><time>2026-04-03T07:40:41.872Z</time></trkpt><trkpt lat="45.1887345" lon="8.9789609"><ele>88.19999999999999</ele><time>2026-04-03T07:40:42.872Z</time></trkpt><trkpt lat="45.1886565" lon="8.9790333"><ele>87.6</ele><time>2026-04-03T07:40:43.871Z</time></trkpt><trkpt lat="45.1885749" lon="8.9790991"><ele>87.0</ele><time>2026-04-03T07:40:44.871Z</time></trkpt><trkpt lat="45.1884927" lon="8.9791576"><ele>87.0</ele><time>2026-04-03T07:40:45.872Z</time></trkpt><trkpt lat="45.1884054" lon="8.9792103"><ele>87.0</ele><time>2026-04-03T07:40:46.873Z</time></trkpt><trkpt lat="45.1883114" lon="8.9792569"><ele>87.0</ele><time>2026-04-03T07:40:47.872Z</time></trkpt><trkpt lat="45.1882072" lon="8.9792975"><ele>87.0</ele><time>2026-04-03T07:40:48.874Z</time></trkpt><trkpt lat="45.188103" lon="8.9793311"><ele>87.0</ele><time>2026-04-03T07:40:49.872Z</time></trkpt><trkpt lat="45.1879987" lon="8.979357"><ele>87.0</ele><time>2026-04-03T07:40:50.874Z</time></trkpt><trkpt lat="45.1878958" lon="8.9793876"><ele>87.0</ele><time>2026-04-03T07:40:51.873Z</time></trkpt><trkpt lat="45.1877918" lon="8.9794283"><ele>87.0</ele><time>2026-04-03T07:40:52.872Z</time></trkpt><trkpt lat="45.1876927" lon="8.9794723"><ele>87.0</ele><time>2026-04-03T07:40:53.872Z</time></trkpt><trkpt lat="45.1876025" lon="8.9795223"><ele>87.0</ele><time>2026-04-03T07:40:54.871Z</time></trkpt><trkpt lat="45.1875187" lon="8.979585"><ele>87.0</ele><time>2026-04-03T07:40:55.873Z</time></trkpt><trkpt lat="45.1874365" lon="8.979662"><ele>87.0</ele><time>2026-04-03T07:40:56.871Z</time></trkpt><trkpt lat="45.187357" lon="8.9797453"><ele>87.0</ele><time>2026-04-03T07:40:57.874Z</time></trkpt><trkpt lat="45.1872755" lon="8.979831"><ele>87.0</ele><time>2026-04-03T07:40:58.874Z</time></trkpt><trkpt lat="45.1871962" lon="8.9799246"><ele>87.0</ele><time>2026-04-03T07:40:59.873Z</time></trkpt><trkpt lat="45.1871222" lon="8.9800129"><ele>87.19999999999999</ele><time>2026-04-03T07:41:00.873Z</time></trkpt><trkpt lat="45.1870421" lon="8.9800941"><ele>87.4</ele><time>2026-04-03T07:41:01.872Z</time></trkpt><trkpt lat="45.1869578" lon="8.9801709"><ele>87.6</ele><time>2026-04-03T07:41:02.873Z</time></trkpt><trkpt lat="45.1868715" lon="8.9802419"><ele>87.80000000000001</ele><time>2026-04-03T07:41:03.875Z</time></trkpt><trkpt lat="45.1867872" lon="8.9803175"><ele>88.0</ele><time>2026-04-03T07:41:04.873Z</time></trkpt><trkpt lat="45.1867039" lon="8.9803905"><ele>88.0</ele><time>2026-04-03T07:41:05.874Z</time></trkpt><trkpt lat="45.1866226" lon="8.9804577"><ele>88.0</ele><time>2026-04-03T07:41:06.873Z</time></trkpt><trkpt lat="45.1865417" lon="8.9805195"><ele>88.0</ele><time>2026-04-03T07:41:07.871Z</time></trkpt><trkpt lat="45.1864625" lon="8.9805792"><ele>88.0</ele><time>2026-04-03T07:41:08.873Z</time></trkpt><trkpt lat="45.1863905" lon="8.9806332"><ele>88.0</ele><time>2026-04-03T07:41:09.874Z</time></trkpt><trkpt lat="45.1863282" lon="8.9806833"><ele>88.0</ele><time>2026-04-03T07:41:10.874Z</time></trkpt><trkpt lat="45.1862725" lon="8.980737"><ele>88.2</ele><time>2026-04-03T07:41:11.875Z</time></trkpt><trkpt lat="45.1861801" lon="8.9808318"><ele>88.4</ele><time>2026-04-03T07:41:13.875Z</time></trkpt><trkpt lat="45.1860974" lon="8.9809096"><ele>88.60000000000001</ele><time>2026-04-03T07:41:15.875Z</time></trkpt><trkpt lat="45.1860105" lon="8.9809799"><ele>88.80000000000001</ele><time>2026-04-03T07:41:17.873Z</time></trkpt><trkpt lat="45.1859" lon="8.9810693"><ele>89.0</ele><time>2026-04-03T07:41:19.873Z</time></trkpt><trkpt lat="45.1858313" lon="8.9811181"><ele>89.0</ele><time>2026-04-03T07:41:20.874Z</time></trkpt><trkpt lat="45.1857574" lon="8.981171"><ele>89.0</ele><time>2026-04-03T07:41:21.873Z</time></trkpt><trkpt lat="45.1856768" lon="8.9812295"><ele>89.0</ele><time>2026-04-03T07:41:22.874Z</time></trkpt><trkpt lat="45.1855897" lon="8.9812919"><ele>89.0</ele><time>2026-04-03T07:41:23.872Z</time></trkpt><trkpt lat="45.1854977" lon="8.9813579"><ele>89.0</ele><time>2026-04-03T07:41:24.873Z</time></trkpt><trkpt lat="45.1853967" lon="8.9814299"><ele>89.0</ele><time>2026-04-03T07:41:25.873Z</time></trkpt><trkpt lat="45.185292" lon="8.9814886"><ele>89.0</ele><time>2026-04-03T07:41:26.874Z</time></trkpt><trkpt lat="45.1851847" lon="8.9815339"><ele>89.0</ele><time>2026-04-03T07:41:27.873Z</time></trkpt><trkpt lat="45.1850714" lon="8.9815729"><ele>89.0</ele><time>2026-04-03T07:41:28.875Z</time></trkpt><trkpt lat="45.1849581" lon="8.9816104"><ele>89.0</ele><time>2026-04-03T07:41:29.874Z</time></trkpt><trkpt lat="45.1848471" lon="8.9816413"><ele>89.0</ele><time>2026-04-03T07:41:30.874Z</time></trkpt><trkpt lat="45.1847345" lon="8.9816712"><ele>89.0</ele><time>2026-04-03T07:41:31.873Z</time></trkpt><trkpt lat="45.1846197" lon="8.9817033"><ele>89.0</ele><time>2026-04-03T07:41:32.874Z</time></trkpt><trkpt lat="45.1845061" lon="8.9817325"><ele>89.25</ele><time>2026-04-03T07:41:33.874Z</time></trkpt><trkpt lat="45.1843928" lon="8.9817636"><ele>89.5</ele><time>2026-04-03T07:41:34.874Z</time></trkpt><trkpt lat="45.184281" lon="8.9817931"><ele>89.75</ele><time>2026-04-03T07:41:35.873Z</time></trkpt><trkpt lat="45.1841688" lon="8.9818243"><ele>90.0</ele><time>2026-04-03T07:41:36.872Z</time></trkpt><trkpt lat="45.1840597" lon="8.9818548"><ele>90.0</ele><time>2026-04-03T07:41:37.873Z</time></trkpt><trkpt lat="45.183949" lon="8.9818843"><ele>90.0</ele><time>2026-04-03T07:41:38.872Z</time></trkpt><trkpt lat="45.1838423" lon="8.9819143"><ele>90.0</ele><time>2026-04-03T07:41:39.872Z</time></trkpt><trkpt lat="45.1837355" lon="8.9819434"><ele>90.0</ele><time>2026-04-03T07:41:40.872Z</time></trkpt><trkpt lat="45.183633" lon="8.9819717"><ele>90.0</ele><time>2026-04-03T07:41:41.873Z</time></trkpt><trkpt lat="45.1835302" lon="8.9819968"><ele>90.0</ele><time>2026-04-03T07:41:42.872Z</time></trkpt><trkpt lat="45.1834275" lon="8.9820216"><ele>90.0</ele><time>2026-04-03T07:41:43.874Z</time></trkpt><trkpt lat="45.1833261" lon="8.9820431"><ele>90.0</ele><time>2026-04-03T07:41:44.874Z</time></trkpt><trkpt lat="45.1832214" lon="8.9820676"><ele>90.0</ele><time>2026-04-03T07:41:45.873Z</time></trkpt><trkpt lat="45.1831172" lon="8.9820918"><ele>90.0</ele><time>2026-04-03T07:41:46.873Z</time></trkpt><trkpt lat="45.1830131" lon="8.9821071"><ele>90.2</ele><time>2026-04-03T07:41:47.872Z</time></trkpt><trkpt lat="45.1829101" lon="8.9821201"><ele>90.4</ele><time>2026-04-03T07:41:48.875Z</time></trkpt><trkpt lat="45.1828134" lon="8.9821324"><ele>90.6</ele><time>2026-04-03T07:41:49.872Z</time></trkpt><trkpt lat="45.1827202" lon="8.9821451"><ele>90.8</ele><time>2026-04-03T07:41:50.871Z</time></trkpt><trkpt lat="45.1826293" lon="8.9821646"><ele>91.0</ele><time>2026-04-03T07:41:51.872Z</time></trkpt><trkpt lat="45.1825402" lon="8.9821862"><ele>91.0</ele><time>2026-04-03T07:41:52.872Z</time></trkpt><trkpt lat="45.1824575" lon="8.9822085"><ele>91.0</ele><time>2026-04-03T07:41:53.871Z</time></trkpt><trkpt lat="45.1823865" lon="8.9822392"><ele>91.0</ele><time>2026-04-03T07:41:54.872Z</time></trkpt><trkpt lat="45.1823194" lon="8.982275"><ele>91.0</ele><time>2026-04-03T07:41:55.871Z</time></trkpt><trkpt lat="45.1822533" lon="8.9823246"><ele>91.0</ele><time>2026-04-03T07:41:56.873Z</time></trkpt><trkpt lat="45.1821867" lon="8.9823833"><ele>91.0</ele><time>2026-04-03T07:41:57.872Z</time></trkpt><trkpt lat="45.1821215" lon="8.9824494"><ele>90.4</ele><time>2026-04-03T07:41:58.872Z</time></trkpt><trkpt lat="45.1820514" lon="8.982519"><ele>89.8</ele><time>2026-04-03T07:41:59.874Z</time></trkpt><trkpt lat="45.1819791" lon="8.9825907"><ele>89.2</ele><time>2026-04-03T07:42:00.873Z</time></trkpt><trkpt lat="45.1818965" lon="8.9826684"><ele>88.60000000000001</ele><time>2026-04-03T07:42:01.872Z</time></trkpt><trkpt lat="45.1818032" lon="8.9827589"><ele>88.0</ele><time>2026-04-03T07:42:02.874Z</time></trkpt><trkpt lat="45.1816995" lon="8.9828545"><ele>88.0</ele><time>2026-04-03T07:42:03.873Z</time></trkpt><trkpt lat="45.1815863" lon="8.9829588"><ele>88.0</ele><time>2026-04-03T07:42:04.873Z</time></trkpt><trkpt lat="45.1814657" lon="8.9830676"><ele>88.0</ele><time>2026-04-03T07:42:05.874Z</time></trkpt><trkpt lat="45.181343" lon="8.9831788"><ele>88.0</ele><time>2026-04-03T07:42:06.875Z</time></trkpt><trkpt lat="45.1812277" lon="8.9832879"><ele>88.0</ele><time>2026-04-03T07:42:07.871Z</time></trkpt><trkpt lat="45.181126" lon="8.9833866"><ele>88.0</ele><time>2026-04-03T07:42:08.872Z</time></trkpt><trkpt lat="45.1810307" lon="8.9834765"><ele>88.0</ele><time>2026-04-03T07:42:09.871Z</time></trkpt><trkpt lat="45.1809455" lon="8.9835634"><ele>88.0</ele><time>2026-04-03T07:42:10.872Z</time></trkpt><trkpt lat="45.1808696" lon="8.9836505"><ele>88.0</ele><time>2026-04-03T07:42:11.871Z</time></trkpt><trkpt lat="45.1807963" lon="8.9837325"><ele>88.0</ele><time>2026-04-03T07:42:12.871Z</time></trkpt><trkpt lat="45.1807196" lon="8.9838175"><ele>88.0</ele><time>2026-04-03T07:42:13.872Z</time></trkpt><trkpt lat="45.1806357" lon="8.983903"><ele>88.0</ele><time>2026-04-03T07:42:14.874Z</time></trkpt><trkpt lat="45.180553" lon="8.9839871"><ele>88.0</ele><time>2026-04-03T07:42:15.872Z</time></trkpt><trkpt lat="45.1804731" lon="8.9840717"><ele>88.0</ele><time>2026-04-03T07:42:16.871Z</time></trkpt><trkpt lat="45.1803928" lon="8.984156"><ele>88.0</ele><time>2026-04-03T07:42:17.871Z</time></trkpt><trkpt lat="45.1803151" lon="8.984238"><ele>88.0</ele><time>2026-04-03T07:42:18.874Z</time></trkpt><trkpt lat="45.1802361" lon="8.9843155"><ele>88.0</ele><time>2026-04-03T07:42:19.873Z</time></trkpt><trkpt lat="45.1801598" lon="8.9843999"><ele>88.0</ele><time>2026-04-03T07:42:20.872Z</time></trkpt><trkpt lat="45.1800863" lon="8.9844717"><ele>88.0</ele><time>2026-04-03T07:42:21.873Z</time></trkpt><trkpt lat="45.1800156" lon="8.9845279"><ele>88.0</ele><time>2026-04-03T07:42:22.872Z</time></trkpt><trkpt lat="45.1799493" lon="8.9845747"><ele>88.0</ele><time>2026-04-03T07:42:23.872Z</time></trkpt><trkpt lat="45.1798902" lon="8.9846108"><ele>88.0</ele><time>2026-04-03T07:42:24.874Z</time></trkpt><trkpt lat="45.179827" lon="8.9846481"><ele>88.0</ele><time>2026-04-03T07:42:25.873Z</time></trkpt><trkpt lat="45.1797645" lon="8.9846682"><ele>88.0</ele><time>2026-04-03T07:42:26.873Z</time></trkpt><trkpt lat="45.1796419" lon="8.9846858"><ele>88.0</ele><time>2026-04-03T07:42:28.872Z</time></trkpt><trkpt lat="45.1795252" lon="8.984686"><ele>88.0</ele><time>2026-04-03T07:42:30.872Z</time></trkpt><trkpt lat="45.1794135" lon="8.9846755"><ele>88.0</ele><time>2026-04-03T07:42:32.873Z</time></trkpt><trkpt lat="45.1793137" lon="8.9846544"><ele>88.0</ele><time>2026-04-03T07:42:34.873Z</time></trkpt><trkpt lat="45.1792433" lon="8.9846355"><ele>88.0</ele><time>2026-04-03T07:42:36.872Z</time></trkpt><trkpt lat="45.1791663" lon="8.9846353"><ele>88.0</ele><time>2026-04-03T07:42:51.871Z</time></trkpt><trkpt lat="45.1790894" lon="8.9847449"><ele>88.0</ele><time>2026-04-03T07:42:53.874Z</time></trkpt><trkpt lat="45.1790675" lon="8.9848545"><ele>88.0</ele><time>2026-04-03T07:42:54.873Z</time></trkpt><trkpt lat="45.1790406" lon="8.9849659"><ele>88.0</ele><time>2026-04-03T07:42:55.874Z</time></trkpt><trkpt lat="45.1790066" lon="8.9850938"><ele>88.0</ele><time>2026-04-03T07:42:56.874Z</time></trkpt><trkpt lat="45.1789703" lon="8.9852298"><ele>88.0</ele><time>2026-04-03T07:42:57.873Z</time></trkpt><trkpt lat="45.1789317" lon="8.9853778"><ele>88.25</ele><time>2026-04-03T07:42:58.873Z</time></trkpt><trkpt lat="45.1788921" lon="8.9855362"><ele>88.5</ele><time>2026-04-03T07:42:59.874Z</time></trkpt><trkpt lat="45.1788479" lon="8.9857045"><ele>88.75</ele><time>2026-04-03T07:43:00.874Z</time></trkpt><trkpt lat="45.1788043" lon="8.9858664"><ele>89.0</ele><time>2026-04-03T07:43:01.873Z</time></trkpt><trkpt lat="45.17876" lon="8.9860318"><ele>89.0</ele><time>2026-04-03T07:43:02.874Z</time></trkpt><trkpt lat="45.1787157" lon="8.9861972"><ele>89.0</ele><time>2026-04-03T07:43:03.875Z</time></trkpt><trkpt lat="45.1786727" lon="8.9863633"><ele>89.0</ele><time>2026-04-03T07:43:04.874Z</time></trkpt><trkpt lat="45.1786307" lon="8.9865304"><ele>89.0</ele><time>2026-04-03T07:43:05.873Z</time></trkpt><trkpt lat="45.1785871" lon="8.9866977"><ele>89.25</ele><time>2026-04-03T07:43:06.873Z</time></trkpt><trkpt lat="45.1785423" lon="8.9868651"><ele>89.5</ele><time>2026-04-03T07:43:07.872Z</time></trkpt><trkpt lat="45.1784975" lon="8.9870349"><ele>89.75</ele><time>2026-04-03T07:43:08.874Z</time></trkpt><trkpt lat="45.1784509" lon="8.9872055"><ele>90.0</ele><time>2026-04-03T07:43:09.873Z</time></trkpt><trkpt lat="45.1784054" lon="8.9873789"><ele>90.0</ele><time>2026-04-03T07:43:10.873Z</time></trkpt><trkpt lat="45.1783585" lon="8.9875473"><ele>90.0</ele><time>2026-04-03T07:43:11.874Z</time></trkpt><trkpt lat="45.1783123" lon="8.9877197"><ele>90.0</ele><time>2026-04-03T07:43:12.872Z</time></trkpt><trkpt lat="45.1782635" lon="8.9878891"><ele>90.0</ele><time>2026-04-03T07:43:13.872Z</time></trkpt><trkpt lat="45.1782173" lon="8.9880599"><ele>90.0</ele><time>2026-04-03T07:43:14.873Z</time></trkpt><trkpt lat="45.1781703" lon="8.9882316"><ele>90.0</ele><time>2026-04-03T07:43:15.873Z</time></trkpt><trkpt lat="45.1781232" lon="8.9883968"><ele>90.0</ele><time>2026-04-03T07:43:16.873Z</time></trkpt><trkpt lat="45.1780785" lon="8.9885589"><ele>90.0</ele><time>2026-04-03T07:43:17.872Z</time></trkpt><trkpt lat="45.1780382" lon="8.9887195"><ele>90.0</ele><time>2026-04-03T07:43:18.872Z</time></trkpt><trkpt lat="45.1779997" lon="8.9888639"><ele>90.0</ele><time>2026-04-03T07:43:19.872Z</time></trkpt><trkpt lat="45.1779672" lon="8.9889906"><ele>90.0</ele><time>2026-04-03T07:43:20.873Z</time></trkpt><trkpt lat="45.1779439" lon="8.9890892"><ele>90.0</ele><time>2026-04-03T07:43:21.874Z</time></trkpt><trkpt lat="45.1778779" lon="8.9891756"><ele>90.0</ele><time>2026-04-03T07:43:23.872Z</time></trkpt><trkpt lat="45.1777933" lon="8.9891451"><ele>90.0</ele><time>2026-04-03T07:43:25.875Z</time></trkpt><trkpt lat="45.177686" lon="8.9890656"><ele>90.0</ele><time>2026-04-03T07:43:27.873Z</time></trkpt><trkpt lat="45.1776164" lon="8.9890179"><ele>90.0</ele><time>2026-04-03T07:43:28.871Z</time></trkpt><trkpt lat="45.1775401" lon="8.9889651"><ele>90.0</ele><time>2026-04-03T07:43:29.872Z</time></trkpt><trkpt lat="45.1774581" lon="8.9889026"><ele>90.0</ele><time>2026-04-03T07:43:30.871Z</time></trkpt><trkpt lat="45.1773785" lon="8.9888213"><ele>89.6</ele><time>2026-04-03T07:43:31.871Z</time></trkpt><trkpt lat="45.1772969" lon="8.9887366"><ele>89.2</ele><time>2026-04-03T07:43:32.872Z</time></trkpt><trkpt lat="45.1772078" lon="8.9886523"><ele>88.80000000000001</ele><time>2026-04-03T07:43:33.871Z</time></trkpt><trkpt lat="45.1771142" lon="8.9885655"><ele>88.4</ele><time>2026-04-03T07:43:34.871Z</time></trkpt><trkpt lat="45.1770195" lon="8.9884842"><ele>88.0</ele><time>2026-04-03T07:43:35.871Z</time></trkpt><trkpt lat="45.1769196" lon="8.9884119"><ele>88.0</ele><time>2026-04-03T07:43:36.87Z</time></trkpt><trkpt lat="45.1768151" lon="8.9883662"><ele>88.0</ele><time>2026-04-03T07:43:37.87Z</time></trkpt><trkpt lat="45.1767054" lon="8.9883399"><ele>88.0</ele><time>2026-04-03T07:43:38.871Z</time></trkpt><trkpt lat="45.1765925" lon="8.9883193"><ele>88.0</ele><time>2026-04-03T07:43:39.87Z</time></trkpt><trkpt lat="45.1764767" lon="8.9883024"><ele>87.75</ele><time>2026-04-03T07:43:40.871Z</time></trkpt><trkpt lat="45.1763625" lon="8.9882869"><ele>87.5</ele><time>2026-04-03T07:43:41.871Z</time></trkpt><trkpt lat="45.1762482" lon="8.9882663"><ele>87.25</ele><time>2026-04-03T07:43:42.871Z</time></trkpt><trkpt lat="45.1761357" lon="8.9882479"><ele>87.0</ele><time>2026-04-03T07:43:43.871Z</time></trkpt><trkpt lat="45.1760211" lon="8.9882291"><ele>87.0</ele><time>2026-04-03T07:43:44.871Z</time></trkpt><trkpt lat="45.1759058" lon="8.988205"><ele>87.0</ele><time>2026-04-03T07:43:45.871Z</time></trkpt><trkpt lat="45.1757888" lon="8.9881826"><ele>87.0</ele><time>2026-04-03T07:43:46.871Z</time></trkpt><trkpt lat="45.1756704" lon="8.9881583"><ele>87.0</ele><time>2026-04-03T07:43:47.873Z</time></trkpt><trkpt lat="45.1755526" lon="8.9881355"><ele>87.5</ele><time>2026-04-03T07:43:48.873Z</time></trkpt><trkpt lat="45.1754367" lon="8.9881142"><ele>88.0</ele><time>2026-04-03T07:43:49.872Z</time></trkpt><trkpt lat="45.1753216" lon="8.9880925"><ele>88.5</ele><time>2026-04-03T07:43:50.872Z</time></trkpt><trkpt lat="45.1752051" lon="8.9880634"><ele>89.0</ele><time>2026-04-03T07:43:51.872Z</time></trkpt><trkpt lat="45.1750953" lon="8.9880336"><ele>89.0</ele><time>2026-04-03T07:43:52.871Z</time></trkpt><trkpt lat="45.1749886" lon="8.9880062"><ele>89.0</ele><time>2026-04-03T07:43:53.872Z</time></trkpt><trkpt lat="45.1748879" lon="8.9879786"><ele>89.0</ele><time>2026-04-03T07:43:54.87Z</time></trkpt><trkpt lat="45.1747887" lon="8.9879591"><ele>89.0</ele><time>2026-04-03T07:43:55.873Z</time></trkpt><trkpt lat="45.1746978" lon="8.9879521"><ele>89.0</ele><time>2026-04-03T07:43:56.872Z</time></trkpt><trkpt lat="45.1746226" lon="8.9879645"><ele>89.0</ele><time>2026-04-03T07:43:57.872Z</time></trkpt><trkpt lat="45.1745576" lon="8.9879897"><ele>89.0</ele><time>2026-04-03T07:43:58.872Z</time></trkpt><trkpt lat="45.1744553" lon="8.98807"><ele>89.0</ele><time>2026-04-03T07:44:00.872Z</time></trkpt><trkpt lat="45.1743979" lon="8.9881689"><ele>89.0</ele><time>2026-04-03T07:44:02.871Z</time></trkpt><trkpt lat="45.1743587" lon="8.9882716"><ele>89.0</ele><time>2026-04-03T07:44:04.873Z</time></trkpt><trkpt lat="45.1743156" lon="8.9883869"><ele>89.0</ele><time>2026-04-03T07:44:06.871Z</time></trkpt><trkpt lat="45.1742772" lon="8.9884987"><ele>89.16666666666667</ele><time>2026-04-03T07:44:08.87Z</time></trkpt><trkpt lat="45.1742463" lon="8.9885794"><ele>89.33333333333334</ele><time>2026-04-03T07:44:10.87Z</time></trkpt><trkpt lat="45.1742066" lon="8.9887359"><ele>89.5</ele><time>2026-04-03T07:44:14.87Z</time></trkpt><trkpt lat="45.1741701" lon="8.9888251"><ele>89.66666666666667</ele><time>2026-04-03T07:44:15.87Z</time></trkpt><trkpt lat="45.1741318" lon="8.9889179"><ele>89.83333333333333</ele><time>2026-04-03T07:44:16.87Z</time></trkpt><trkpt lat="45.1740888" lon="8.9890294"><ele>90.0</ele><time>2026-04-03T07:44:17.871Z</time></trkpt><trkpt lat="45.1740459" lon="8.9891493"><ele>89.83333333333333</ele><time>2026-04-03T07:44:18.871Z</time></trkpt><trkpt lat="45.1740012" lon="8.9892713"><ele>89.66666666666667</ele><time>2026-04-03T07:44:19.87Z</time></trkpt><trkpt lat="45.1739598" lon="8.9893876"><ele>89.5</ele><time>2026-04-03T07:44:20.871Z</time></trkpt><trkpt lat="45.1739224" lon="8.9894933"><ele>89.33333333333334</ele><time>2026-04-03T07:44:21.871Z</time></trkpt><trkpt lat="45.1738874" lon="8.9895923"><ele>89.16666666666667</ele><time>2026-04-03T07:44:22.871Z</time></trkpt><trkpt lat="45.1738616" lon="8.989676"><ele>89.0</ele><time>2026-04-03T07:44:23.87Z</time></trkpt><trkpt lat="45.1738322" lon="8.9897733"><ele>89.0</ele><time>2026-04-03T07:44:25.869Z</time></trkpt><trkpt lat="45.1737719" lon="8.9898033"><ele>89.0</ele><time>2026-04-03T07:44:27.87Z</time></trkpt><trkpt lat="45.1736719" lon="8.9897652"><ele>89.0</ele><time>2026-04-03T07:44:29.875Z</time></trkpt><trkpt lat="45.1735976" lon="8.9897303"><ele>89.0</ele><time>2026-04-03T07:44:30.873Z</time></trkpt><trkpt lat="45.173505" lon="8.9896969"><ele>89.0</ele><time>2026-04-03T07:44:31.873Z</time></trkpt><trkpt lat="45.1734054" lon="8.9896709"><ele>89.0</ele><time>2026-04-03T07:44:32.872Z</time></trkpt><trkpt lat="45.1732927" lon="8.9896629"><ele>89.0</ele><time>2026-04-03T07:44:33.874Z</time></trkpt><trkpt lat="45.1731691" lon="8.9896565"><ele>89.0</ele><time>2026-04-03T07:44:34.872Z</time></trkpt><trkpt lat="45.1730383" lon="8.9896486"><ele>89.0</ele><time>2026-04-03T07:44:35.873Z</time></trkpt><trkpt lat="45.1729027" lon="8.9896443"><ele>89.0</ele><time>2026-04-03T07:44:36.872Z</time></trkpt><trkpt lat="45.1727599" lon="8.9896377"><ele>89.0</ele><time>2026-04-03T07:44:37.873Z</time></trkpt><trkpt lat="45.172616" lon="8.9896319"><ele>89.0</ele><time>2026-04-03T07:44:38.872Z</time></trkpt><trkpt lat="45.1724758" lon="8.9896289"><ele>89.0</ele><time>2026-04-03T07:44:39.873Z</time></trkpt><trkpt lat="45.1723331" lon="8.9896195"><ele>89.0</ele><time>2026-04-03T07:44:40.873Z</time></trkpt><trkpt lat="45.1721926" lon="8.9895986"><ele>89.0</ele><time>2026-04-03T07:44:41.872Z</time></trkpt><trkpt lat="45.1720539" lon="8.9895645"><ele>89.0</ele><time>2026-04-03T07:44:42.872Z</time></trkpt><trkpt lat="45.1719168" lon="8.9895189"><ele>89.0</ele><time>2026-04-03T07:44:43.872Z</time></trkpt><trkpt lat="45.1717822" lon="8.9894689"><ele>89.0</ele><time>2026-04-03T07:44:44.873Z</time></trkpt><trkpt lat="45.1716515" lon="8.9894131"><ele>89.25</ele><time>2026-04-03T07:44:45.872Z</time></trkpt><trkpt lat="45.1715185" lon="8.98937"><ele>89.5</ele><time>2026-04-03T07:44:46.872Z</time></trkpt><trkpt lat="45.1713864" lon="8.9893383"><ele>89.75</ele><time>2026-04-03T07:44:47.872Z</time></trkpt><trkpt lat="45.1712503" lon="8.9893138"><ele>90.0</ele><time>2026-04-03T07:44:48.871Z</time></trkpt><trkpt lat="45.1711124" lon="8.989294"><ele>90.0</ele><time>2026-04-03T07:44:49.871Z</time></trkpt><trkpt lat="45.1709744" lon="8.9892694"><ele>90.0</ele><time>2026-04-03T07:44:50.87Z</time></trkpt><trkpt lat="45.1708425" lon="8.9892505"><ele>90.0</ele><time>2026-04-03T07:44:51.872Z</time></trkpt><trkpt lat="45.1707099" lon="8.9892329"><ele>90.0</ele><time>2026-04-03T07:44:52.87Z</time></trkpt><trkpt lat="45.1705796" lon="8.9892166"><ele>89.75</ele><time>2026-04-03T07:44:53.872Z</time></trkpt><trkpt lat="45.1704517" lon="8.9891926"><ele>89.5</ele><time>2026-04-03T07:44:54.871Z</time></trkpt><trkpt lat="45.1703229" lon="8.9891499"><ele>89.25</ele><time>2026-04-03T07:44:55.873Z</time></trkpt><trkpt lat="45.1701934" lon="8.9890969"><ele>89.0</ele><time>2026-04-03T07:44:56.872Z</time></trkpt><trkpt lat="45.1700628" lon="8.9890384"><ele>89.0</ele><time>2026-04-03T07:44:57.871Z</time></trkpt><trkpt lat="45.1699354" lon="8.988977"><ele>89.0</ele><time>2026-04-03T07:44:58.872Z</time></trkpt><trkpt lat="45.1698134" lon="8.9889262"><ele>89.0</ele><time>2026-04-03T07:44:59.871Z</time></trkpt><trkpt lat="45.1696999" lon="8.9888752"><ele>89.0</ele><time>2026-04-03T07:45:00.871Z</time></trkpt><trkpt lat="45.1695944" lon="8.9888294"><ele>88.83333333333334</ele><time>2026-04-03T07:45:01.873Z</time></trkpt><trkpt lat="45.1695008" lon="8.9887918"><ele>88.66666666666667</ele><time>2026-04-03T07:45:02.872Z</time></trkpt><trkpt lat="45.1694274" lon="8.9887638"><ele>88.5</ele><time>2026-04-03T07:45:03.872Z</time></trkpt><trkpt lat="45.1693644" lon="8.9887382"><ele>88.33333333333333</ele><time>2026-04-03T07:45:04.875Z</time></trkpt><trkpt lat="45.1692979" lon="8.988717"><ele>88.16666666666666</ele><time>2026-04-03T07:45:05.872Z</time></trkpt><trkpt lat="45.1692245" lon="8.9886929"><ele>88.0</ele><time>2026-04-03T07:45:06.871Z</time></trkpt><trkpt lat="45.1691394" lon="8.9886641"><ele>88.0</ele><time>2026-04-03T07:45:07.871Z</time></trkpt><trkpt lat="45.16905" lon="8.9886338"><ele>88.0</ele><time>2026-04-03T07:45:08.87Z</time></trkpt><trkpt lat="45.1689575" lon="8.9886101"><ele>88.0</ele><time>2026-04-03T07:45:09.871Z</time></trkpt><trkpt lat="45.1688697" lon="8.9885849"><ele>88.0</ele><time>2026-04-03T07:45:10.871Z</time></trkpt><trkpt lat="45.1687788" lon="8.9885614"><ele>88.0</ele><time>2026-04-03T07:45:11.872Z</time></trkpt><trkpt lat="45.1686823" lon="8.988536"><ele>87.60000000000001</ele><time>2026-04-03T07:45:12.873Z</time></trkpt><trkpt lat="45.1685802" lon="8.988509"><ele>87.2</ele><time>2026-04-03T07:45:13.871Z</time></trkpt><trkpt lat="45.1684713" lon="8.9884873"><ele>86.8</ele><time>2026-04-03T07:45:14.872Z</time></trkpt><trkpt lat="45.168361" lon="8.9884756"><ele>86.4</ele><time>2026-04-03T07:45:15.873Z</time></trkpt><trkpt lat="45.1682473" lon="8.9884637"><ele>86.0</ele><time>2026-04-03T07:45:16.874Z</time></trkpt><trkpt lat="45.1681394" lon="8.9884576"><ele>86.0</ele><time>2026-04-03T07:45:17.873Z</time></trkpt><trkpt lat="45.1680402" lon="8.9884542"><ele>86.0</ele><time>2026-04-03T07:45:18.872Z</time></trkpt><trkpt lat="45.1679475" lon="8.9884418"><ele>86.0</ele><time>2026-04-03T07:45:19.874Z</time></trkpt><trkpt lat="45.1678665" lon="8.9884103"><ele>86.0</ele><time>2026-04-03T07:45:20.873Z</time></trkpt><trkpt lat="45.1677916" lon="8.988358"><ele>86.0</ele><time>2026-04-03T07:45:21.872Z</time></trkpt><trkpt lat="45.1677157" lon="8.9882998"><ele>86.0</ele><time>2026-04-03T07:45:22.873Z</time></trkpt><trkpt lat="45.1676295" lon="8.9882351"><ele>86.19999999999999</ele><time>2026-04-03T07:45:23.872Z</time></trkpt><trkpt lat="45.1675313" lon="8.9882023"><ele>86.39999999999999</ele><time>2026-04-03T07:45:24.874Z</time></trkpt><trkpt lat="45.1674301" lon="8.9882194"><ele>86.6</ele><time>2026-04-03T07:45:25.871Z</time></trkpt><trkpt lat="45.1673393" lon="8.9882891"><ele>86.8</ele><time>2026-04-03T07:45:26.872Z</time></trkpt><trkpt lat="45.1672727" lon="8.9883983"><ele>87.0</ele><time>2026-04-03T07:45:27.871Z</time></trkpt><trkpt lat="45.1672409" lon="8.9885354"><ele>87.0</ele><time>2026-04-03T07:45:28.872Z</time></trkpt><trkpt lat="45.1672421" lon="8.9886835"><ele>87.0</ele><time>2026-04-03T07:45:29.87Z</time></trkpt><trkpt lat="45.1672603" lon="8.9888444"><ele>87.0</ele><time>2026-04-03T07:45:30.871Z</time></trkpt><trkpt lat="45.1672831" lon="8.9890206"><ele>87.0</ele><time>2026-04-03T07:45:31.872Z</time></trkpt><trkpt lat="45.1673067" lon="8.9892139"><ele>87.33333333333333</ele><time>2026-04-03T07:45:32.873Z</time></trkpt><trkpt lat="45.1673235" lon="8.9894201"><ele>87.66666666666666</ele><time>2026-04-03T07:45:33.871Z</time></trkpt><trkpt lat="45.1673394" lon="8.9896407"><ele>88.0</ele><time>2026-04-03T07:45:34.872Z</time></trkpt><trkpt lat="45.167356" lon="8.9898672"><ele>87.66666666666666</ele><time>2026-04-03T07:45:35.871Z</time></trkpt><trkpt lat="45.1673739" lon="8.9901055"><ele>87.33333333333333</ele><time>2026-04-03T07:45:36.872Z</time></trkpt><trkpt lat="45.1673855" lon="8.9903451"><ele>87.0</ele><time>2026-04-03T07:45:37.871Z</time></trkpt><trkpt lat="45.1673916" lon="8.9905927"><ele>86.66666666666667</ele><time>2026-04-03T07:45:38.871Z</time></trkpt><trkpt lat="45.167395" lon="8.9908479"><ele>86.33333333333334</ele><time>2026-04-03T07:45:39.871Z</time></trkpt><trkpt lat="45.1673939" lon="8.9911221"><ele>86.0</ele><time>2026-04-03T07:45:40.872Z</time></trkpt><trkpt lat="45.1673914" lon="8.9914058"><ele>85.66666666666667</ele><time>2026-04-03T07:45:41.871Z</time></trkpt><trkpt lat="45.1673889" lon="8.9916923"><ele>85.33333333333333</ele><time>2026-04-03T07:45:42.872Z</time></trkpt><trkpt lat="45.167391" lon="8.9919792"><ele>85.0</ele><time>2026-04-03T07:45:43.872Z</time></trkpt><trkpt lat="45.1673913" lon="8.9922701"><ele>85.0</ele><time>2026-04-03T07:45:44.87Z</time></trkpt><trkpt lat="45.1673926" lon="8.9925583"><ele>85.0</ele><time>2026-04-03T07:45:45.871Z</time></trkpt><trkpt lat="45.1673933" lon="8.9928466"><ele>85.0</ele><time>2026-04-03T07:45:46.87Z</time></trkpt><trkpt lat="45.1673945" lon="8.9931348"><ele>86.0</ele><time>2026-04-03T07:45:47.87Z</time></trkpt><trkpt lat="45.1673971" lon="8.9934224"><ele>87.0</ele><time>2026-04-03T07:45:48.872Z</time></trkpt><trkpt lat="45.1673983" lon="8.9937045"><ele>88.0</ele><time>2026-04-03T07:45:49.87Z</time></trkpt><trkpt lat="45.1673975" lon="8.9939834"><ele>87.66666666666666</ele><time>2026-04-03T07:45:50.871Z</time></trkpt><trkpt lat="45.1674005" lon="8.9942553"><ele>87.33333333333333</ele><time>2026-04-03T07:45:51.87Z</time></trkpt><trkpt lat="45.1674021" lon="8.9945173"><ele>87.0</ele><time>2026-04-03T07:45:52.872Z</time></trkpt><trkpt lat="45.1674048" lon="8.9947763"><ele>86.33333333333333</ele><time>2026-04-03T07:45:53.872Z</time></trkpt><trkpt lat="45.167404" lon="8.9950329"><ele>85.66666666666666</ele><time>2026-04-03T07:45:54.871Z</time></trkpt><trkpt lat="45.1674026" lon="8.9952873"><ele>85.0</ele><time>2026-04-03T07:45:55.872Z</time></trkpt><trkpt lat="45.1674039" lon="8.9955285"><ele>85.0</ele><time>2026-04-03T07:45:56.871Z</time></trkpt><trkpt lat="45.1674044" lon="8.995751"><ele>85.0</ele><time>2026-04-03T07:45:57.874Z</time></trkpt><trkpt lat="45.1674045" lon="8.9959629"><ele>85.0</ele><time>2026-04-03T07:45:58.872Z</time></trkpt><trkpt lat="45.1674057" lon="8.9961634"><ele>85.0</ele><time>2026-04-03T07:45:59.874Z</time></trkpt><trkpt lat="45.1674044" lon="8.996353"><ele>85.0</ele><time>2026-04-03T07:46:00.873Z</time></trkpt><trkpt lat="45.1673988" lon="8.9965347"><ele>85.0</ele><time>2026-04-03T07:46:01.872Z</time></trkpt><trkpt lat="45.1673924" lon="8.996702"><ele>85.0</ele><time>2026-04-03T07:46:02.874Z</time></trkpt><trkpt lat="45.1673852" lon="8.9968415"><ele>85.0</ele><time>2026-04-03T07:46:03.871Z</time></trkpt><trkpt lat="45.1673793" lon="8.9969545"><ele>85.0</ele><time>2026-04-03T07:46:04.872Z</time></trkpt><trkpt lat="45.1673766" lon="8.9971067"><ele>85.0</ele><time>2026-04-03T07:46:06.871Z</time></trkpt><trkpt lat="45.1673758" lon="8.9972507"><ele>85.0</ele><time>2026-04-03T07:46:09.873Z</time></trkpt><trkpt lat="45.1673813" lon="8.9973528"><ele>85.0</ele><time>2026-04-03T07:46:11.874Z</time></trkpt><trkpt lat="45.1673945" lon="8.9974585"><ele>85.0</ele><time>2026-04-03T07:46:19.872Z</time></trkpt><trkpt lat="45.167405" lon="8.9975538"><ele>85.0</ele><time>2026-04-03T07:46:20.875Z</time></trkpt><trkpt lat="45.1674143" lon="8.9976638"><ele>85.0</ele><time>2026-04-03T07:46:21.873Z</time></trkpt><trkpt lat="45.1674181" lon="8.997792"><ele>85.0</ele><time>2026-04-03T07:46:22.873Z</time></trkpt><trkpt lat="45.1674188" lon="8.9979381"><ele>85.0</ele><time>2026-04-03T07:46:23.871Z</time></trkpt><trkpt lat="45.16742" lon="8.9981"><ele>85.0</ele><time>2026-04-03T07:46:24.872Z</time></trkpt><trkpt lat="45.1674181" lon="8.9982811"><ele>85.0</ele><time>2026-04-03T07:46:25.872Z</time></trkpt><trkpt lat="45.1674188" lon="8.9984743"><ele>85.0</ele><time>2026-04-03T07:46:26.872Z</time></trkpt><trkpt lat="45.1674209" lon="8.9986783"><ele>85.0</ele><time>2026-04-03T07:46:27.872Z</time></trkpt><trkpt lat="45.1674232" lon="8.9989002"><ele>85.0</ele><time>2026-04-03T07:46:28.871Z</time></trkpt><trkpt lat="45.1674272" lon="8.9991319"><ele>84.66666666666666</ele><time>2026-04-03T07:46:29.872Z</time></trkpt><trkpt lat="45.1674297" lon="8.9993694"><ele>84.33333333333333</ele><time>2026-04-03T07:46:30.872Z</time></trkpt><trkpt lat="45.1674312" lon="8.9996146"><ele>84.0</ele><time>2026-04-03T07:46:31.871Z</time></trkpt><trkpt lat="45.1674336" lon="8.9998718"><ele>84.0</ele><time>2026-04-03T07:46:32.872Z</time></trkpt><trkpt lat="45.1674342" lon="9.0001379"><ele>84.0</ele><time>2026-04-03T07:46:33.871Z</time></trkpt><trkpt lat="45.167435" lon="9.000412"><ele>84.0</ele><time>2026-04-03T07:46:34.871Z</time></trkpt><trkpt lat="45.1674402" lon="9.0006891"><ele>84.33333333333333</ele><time>2026-04-03T07:46:35.872Z</time></trkpt><trkpt lat="45.1674426" lon="9.0009684"><ele>84.66666666666666</ele><time>2026-04-03T07:46:36.871Z</time></trkpt><trkpt lat="45.1674469" lon="9.0012465"><ele>85.0</ele><time>2026-04-03T07:46:37.87Z</time></trkpt><trkpt lat="45.1674507" lon="9.0015467"><ele>85.0</ele><time>2026-04-03T07:46:38.872Z</time></trkpt><trkpt lat="45.1674561" lon="9.0018429"><ele>85.0</ele><time>2026-04-03T07:46:39.871Z</time></trkpt><trkpt lat="45.1674582" lon="9.0021539"><ele>85.0</ele><time>2026-04-03T07:46:40.871Z</time></trkpt><trkpt lat="45.167459" lon="9.0024789"><ele>85.0</ele><time>2026-04-03T07:46:41.872Z</time></trkpt><trkpt lat="45.167459" lon="9.0028034"><ele>85.0</ele><time>2026-04-03T07:46:42.871Z</time></trkpt><trkpt lat="45.167457" lon="9.0031373"><ele>85.0</ele><time>2026-04-03T07:46:43.872Z</time></trkpt><trkpt lat="45.1674533" lon="9.0034705"><ele>85.0</ele><time>2026-04-03T07:46:44.872Z</time></trkpt><trkpt lat="45.1674535" lon="9.003806"><ele>85.0</ele><time>2026-04-03T07:46:45.872Z</time></trkpt><trkpt lat="45.1674545" lon="9.0041395"><ele>85.0</ele><time>2026-04-03T07:46:46.872Z</time></trkpt><trkpt lat="45.1674579" lon="9.004467"><ele>84.5</ele><time>2026-04-03T07:46:47.871Z</time></trkpt><trkpt lat="45.1674601" lon="9.0047909"><ele>84.0</ele><time>2026-04-03T07:46:48.87Z</time></trkpt><trkpt lat="45.1674615" lon="9.005108"><ele>84.0</ele><time>2026-04-03T07:46:49.872Z</time></trkpt><trkpt lat="45.1674629" lon="9.0054209"><ele>84.0</ele><time>2026-04-03T07:46:50.871Z</time></trkpt><trkpt lat="45.1674676" lon="9.0057287"><ele>84.0</ele><time>2026-04-03T07:46:51.871Z</time></trkpt><trkpt lat="45.1674696" lon="9.0060305"><ele>84.33333333333333</ele><time>2026-04-03T07:46:52.874Z</time></trkpt><trkpt lat="45.1674728" lon="9.0063291"><ele>84.66666666666666</ele><time>2026-04-03T07:46:53.875Z</time></trkpt><trkpt lat="45.1674755" lon="9.0066252"><ele>85.0</ele><time>2026-04-03T07:46:54.873Z</time></trkpt><trkpt lat="45.1674782" lon="9.006918"><ele>85.33333333333333</ele><time>2026-04-03T07:46:55.874Z</time></trkpt><trkpt lat="45.1674811" lon="9.0072077"><ele>85.66666666666667</ele><time>2026-04-03T07:46:56.872Z</time></trkpt><trkpt lat="45.1674844" lon="9.0074976"><ele>86.0</ele><time>2026-04-03T07:46:57.872Z</time></trkpt><trkpt lat="45.1674863" lon="9.0077894"><ele>86.33333333333334</ele><time>2026-04-03T07:46:58.874Z</time></trkpt><trkpt lat="45.1674842" lon="9.0080831"><ele>86.66666666666667</ele><time>2026-04-03T07:46:59.873Z</time></trkpt><trkpt lat="45.1674725" lon="9.0083811"><ele>87.0</ele><time>2026-04-03T07:47:00.873Z</time></trkpt><trkpt lat="45.1674491" lon="9.0086771"><ele>87.0</ele><time>2026-04-03T07:47:01.874Z</time></trkpt><trkpt lat="45.1674122" lon="9.0089749"><ele>87.0</ele><time>2026-04-03T07:47:02.874Z</time></trkpt><trkpt lat="45.167363" lon="9.0092731"><ele>87.0</ele><time>2026-04-03T07:47:03.872Z</time></trkpt><trkpt lat="45.1673085" lon="9.0095712"><ele>86.0</ele><time>2026-04-03T07:47:04.872Z</time></trkpt><trkpt lat="45.1672509" lon="9.0098656"><ele>85.0</ele><time>2026-04-03T07:47:05.872Z</time></trkpt><trkpt lat="45.1671813" lon="9.010142"><ele>84.0</ele><time>2026-04-03T07:47:06.873Z</time></trkpt><trkpt lat="45.1671037" lon="9.0104011"><ele>84.0</ele><time>2026-04-03T07:47:07.871Z</time></trkpt><trkpt lat="45.1670305" lon="9.010654"><ele>84.0</ele><time>2026-04-03T07:47:08.872Z</time></trkpt><trkpt lat="45.1669588" lon="9.0108982"><ele>84.0</ele><time>2026-04-03T07:47:09.872Z</time></trkpt><trkpt lat="45.1668915" lon="9.0111375"><ele>83.66666666666667</ele><time>2026-04-03T07:47:10.871Z</time></trkpt><trkpt lat="45.1668274" lon="9.0113628"><ele>83.33333333333334</ele><time>2026-04-03T07:47:11.871Z</time></trkpt><trkpt lat="45.1667674" lon="9.0115775"><ele>83.0</ele><time>2026-04-03T07:47:12.871Z</time></trkpt><trkpt lat="45.1667097" lon="9.0117687"><ele>83.0</ele><time>2026-04-03T07:47:13.872Z</time></trkpt><trkpt lat="45.166654" lon="9.0119374"><ele>83.0</ele><time>2026-04-03T07:47:14.871Z</time></trkpt><trkpt lat="45.1666003" lon="9.0120861"><ele>83.0</ele><time>2026-04-03T07:47:15.872Z</time></trkpt><trkpt lat="45.1665443" lon="9.0122091"><ele>83.0</ele><time>2026-04-03T07:47:16.872Z</time></trkpt><trkpt lat="45.1664834" lon="9.0123151"><ele>83.0</ele><time>2026-04-03T07:47:17.872Z</time></trkpt><trkpt lat="45.1664122" lon="9.0124042"><ele>83.0</ele><time>2026-04-03T07:47:18.871Z</time></trkpt><trkpt lat="45.1663354" lon="9.0124879"><ele>83.0</ele><time>2026-04-03T07:47:19.875Z</time></trkpt><trkpt lat="45.1662801" lon="9.0126008"><ele>83.0</ele><time>2026-04-03T07:47:20.872Z</time></trkpt><trkpt lat="45.1662511" lon="9.0127194"><ele>83.0</ele><time>2026-04-03T07:47:21.873Z</time></trkpt><trkpt lat="45.1662443" lon="9.0128507"><ele>83.0</ele><time>2026-04-03T07:47:22.872Z</time></trkpt><trkpt lat="45.1662527" lon="9.01298"><ele>83.4</ele><time>2026-04-03T07:47:23.871Z</time></trkpt><trkpt lat="45.166263" lon="9.0131158"><ele>83.80000000000001</ele><time>2026-04-03T07:47:24.871Z</time></trkpt><trkpt lat="45.1662599" lon="9.0132588"><ele>84.2</ele><time>2026-04-03T07:47:25.871Z</time></trkpt><trkpt lat="45.1662429" lon="9.0134054"><ele>84.6</ele><time>2026-04-03T07:47:26.871Z</time></trkpt><trkpt lat="45.1662096" lon="9.0135603"><ele>85.0</ele><time>2026-04-03T07:47:27.872Z</time></trkpt><trkpt lat="45.1661677" lon="9.0137213"><ele>85.0</ele><time>2026-04-03T07:47:28.871Z</time></trkpt><trkpt lat="45.1661241" lon="9.0138849"><ele>85.0</ele><time>2026-04-03T07:47:29.872Z</time></trkpt><trkpt lat="45.166076" lon="9.0140591"><ele>85.0</ele><time>2026-04-03T07:47:30.871Z</time></trkpt><trkpt lat="45.1660254" lon="9.0142407"><ele>85.0</ele><time>2026-04-03T07:47:31.871Z</time></trkpt><trkpt lat="45.1659698" lon="9.0144345"><ele>85.33333333333333</ele><time>2026-04-03T07:47:32.875Z</time></trkpt><trkpt lat="45.1659109" lon="9.0146365"><ele>85.66666666666667</ele><time>2026-04-03T07:47:33.872Z</time></trkpt><trkpt lat="45.1658552" lon="9.0148453"><ele>86.0</ele><time>2026-04-03T07:47:34.873Z</time></trkpt><trkpt lat="45.1657996" lon="9.0150554"><ele>85.33333333333334</ele><time>2026-04-03T07:47:35.873Z</time></trkpt><trkpt lat="45.1657441" lon="9.0152701"><ele>84.66666666666667</ele><time>2026-04-03T07:47:36.874Z</time></trkpt><trkpt lat="45.1656866" lon="9.0154921"><ele>84.0</ele><time>2026-04-03T07:47:37.874Z</time></trkpt><trkpt lat="45.1656269" lon="9.0157202"><ele>84.0</ele><time>2026-04-03T07:47:38.873Z</time></trkpt><trkpt lat="45.1655648" lon="9.015953"><ele>84.0</ele><time>2026-04-03T07:47:39.872Z</time></trkpt><trkpt lat="45.1655027" lon="9.0161872"><ele>84.0</ele><time>2026-04-03T07:47:40.872Z</time></trkpt><trkpt lat="45.165442" lon="9.0164129"><ele>84.0</ele><time>2026-04-03T07:47:41.873Z</time></trkpt><trkpt lat="45.1653812" lon="9.0166338"><ele>84.0</ele><time>2026-04-03T07:47:42.873Z</time></trkpt><trkpt lat="45.1653224" lon="9.0168521"><ele>84.0</ele><time>2026-04-03T07:47:43.875Z</time></trkpt><trkpt lat="45.1652625" lon="9.0170716"><ele>84.33333333333333</ele><time>2026-04-03T07:47:44.872Z</time></trkpt><trkpt lat="45.165202" lon="9.0172881"><ele>84.66666666666666</ele><time>2026-04-03T07:47:45.871Z</time></trkpt><trkpt lat="45.1651415" lon="9.0175071"><ele>85.0</ele><time>2026-04-03T07:47:46.873Z</time></trkpt><trkpt lat="45.1650868" lon="9.017707"><ele>85.5</ele><time>2026-04-03T07:47:47.873Z</time></trkpt><trkpt lat="45.1650365" lon="9.0178724"><ele>86.0</ele><time>2026-04-03T07:47:48.871Z</time></trkpt><trkpt lat="45.1649923" lon="9.0180333"><ele>86.5</ele><time>2026-04-03T07:47:49.871Z</time></trkpt><trkpt lat="45.1649446" lon="9.0181963"><ele>87.0</ele><time>2026-04-03T07:47:50.87Z</time></trkpt><trkpt lat="45.164898" lon="9.0183538"><ele>87.0</ele><time>2026-04-03T07:47:51.872Z</time></trkpt><trkpt lat="45.164855" lon="9.0184793"><ele>87.0</ele><time>2026-04-03T07:47:52.871Z</time></trkpt><trkpt lat="45.1648224" lon="9.0185616"><ele>87.0</ele><time>2026-04-03T07:47:53.871Z</time></trkpt><trkpt lat="45.1647867" lon="9.0186589"><ele>87.0</ele><time>2026-04-03T07:47:56.871Z</time></trkpt><trkpt lat="45.1647786" lon="9.0187535"><ele>87.0</ele><time>2026-04-03T07:48:04.871Z</time></trkpt><trkpt lat="45.1648552" lon="9.0186668"><ele>87.0</ele><time>2026-04-03T07:48:09.872Z</time></trkpt><trkpt lat="45.1648807" lon="9.0185535"><ele>87.0</ele><time>2026-04-03T07:48:10.87Z</time></trkpt><trkpt lat="45.1649095" lon="9.0184238"><ele>87.0</ele><time>2026-04-03T07:48:11.869Z</time></trkpt><trkpt lat="45.1649513" lon="9.0182713"><ele>87.0</ele><time>2026-04-03T07:48:12.872Z</time></trkpt><trkpt lat="45.1649977" lon="9.0181067"><ele>87.0</ele><time>2026-04-03T07:48:13.87Z</time></trkpt><trkpt lat="45.1650507" lon="9.0179229"><ele>87.0</ele><time>2026-04-03T07:48:14.871Z</time></trkpt><trkpt lat="45.1651062" lon="9.0177261"><ele>87.0</ele><time>2026-04-03T07:48:15.871Z</time></trkpt><trkpt lat="45.1651623" lon="9.0175277"><ele>87.0</ele><time>2026-04-03T07:48:16.872Z</time></trkpt><trkpt lat="45.1652182" lon="9.0173318"><ele>87.0</ele><time>2026-04-03T07:48:17.871Z</time></trkpt><trkpt lat="45.1652719" lon="9.0171364"><ele>86.5</ele><time>2026-04-03T07:48:18.87Z</time></trkpt><trkpt lat="45.1653243" lon="9.0169466"><ele>86.0</ele><time>2026-04-03T07:48:19.871Z</time></trkpt><trkpt lat="45.1653763" lon="9.0167598"><ele>85.5</ele><time>2026-04-03T07:48:20.871Z</time></trkpt><trkpt lat="45.1654284" lon="9.0165732"><ele>85.0</ele><time>2026-04-03T07:48:21.873Z</time></trkpt><trkpt lat="45.1654817" lon="9.0163874"><ele>84.75</ele><time>2026-04-03T07:48:22.874Z</time></trkpt><trkpt lat="45.1655338" lon="9.0162054"><ele>84.5</ele><time>2026-04-03T07:48:23.872Z</time></trkpt><trkpt lat="45.1655851" lon="9.0160226"><ele>84.25</ele><time>2026-04-03T07:48:24.874Z</time></trkpt><trkpt lat="45.1656359" lon="9.0158381"><ele>84.0</ele><time>2026-04-03T07:48:25.873Z</time></trkpt><trkpt lat="45.1656857" lon="9.0156579"><ele>84.0</ele><time>2026-04-03T07:48:26.874Z</time></trkpt><trkpt lat="45.1657357" lon="9.0154735"><ele>84.0</ele><time>2026-04-03T07:48:27.873Z</time></trkpt><trkpt lat="45.1657873" lon="9.0152834"><ele>84.0</ele><time>2026-04-03T07:48:28.873Z</time></trkpt><trkpt lat="45.1658393" lon="9.0150926"><ele>84.0</ele><time>2026-04-03T07:48:29.873Z</time></trkpt><trkpt lat="45.1658905" lon="9.0149051"><ele>84.5</ele><time>2026-04-03T07:48:30.873Z</time></trkpt><trkpt lat="45.1659367" lon="9.0147327"><ele>85.0</ele><time>2026-04-03T07:48:31.872Z</time></trkpt><trkpt lat="45.1659792" lon="9.0145706"><ele>85.5</ele><time>2026-04-03T07:48:32.872Z</time></trkpt><trkpt lat="45.1660215" lon="9.0144193"><ele>86.0</ele><time>2026-04-03T07:48:33.873Z</time></trkpt><trkpt lat="45.1660632" lon="9.0142632"><ele>85.8</ele><time>2026-04-03T07:48:34.872Z</time></trkpt><trkpt lat="45.1661058" lon="9.014108"><ele>85.6</ele><time>2026-04-03T07:48:35.872Z</time></trkpt><trkpt lat="45.1661444" lon="9.0139645"><ele>85.4</ele><time>2026-04-03T07:48:36.873Z</time></trkpt><trkpt lat="45.1661791" lon="9.0138331"><ele>85.2</ele><time>2026-04-03T07:48:37.873Z</time></trkpt><trkpt lat="45.1662087" lon="9.0137249"><ele>85.0</ele><time>2026-04-03T07:48:38.873Z</time></trkpt><trkpt lat="45.1662472" lon="9.0135808"><ele>85.0</ele><time>2026-04-03T07:48:40.872Z</time></trkpt><trkpt lat="45.1662805" lon="9.0134882"><ele>85.0</ele><time>2026-04-03T07:48:42.872Z</time></trkpt><trkpt lat="45.1663195" lon="9.0133934"><ele>85.0</ele><time>2026-04-03T07:48:45.872Z</time></trkpt><trkpt lat="45.1663618" lon="9.0133039"><ele>85.0</ele><time>2026-04-03T07:48:52.871Z</time></trkpt><trkpt lat="45.1664165" lon="9.0132013"><ele>85.0</ele><time>2026-04-03T07:48:54.871Z</time></trkpt><trkpt lat="45.1665054" lon="9.0130976"><ele>85.0</ele><time>2026-04-03T07:48:56.871Z</time></trkpt><trkpt lat="45.1665613" lon="9.0130428"><ele>84.66666666666666</ele><time>2026-04-03T07:48:57.871Z</time></trkpt><trkpt lat="45.1666142" lon="9.0129673"><ele>84.33333333333333</ele><time>2026-04-03T07:48:58.873Z</time></trkpt><trkpt lat="45.1666512" lon="9.0128703"><ele>84.0</ele><time>2026-04-03T07:48:59.87Z</time></trkpt><trkpt lat="45.1666682" lon="9.0127607"><ele>83.66666666666667</ele><time>2026-04-03T07:49:00.87Z</time></trkpt><trkpt lat="45.1666679" lon="9.0126409"><ele>83.33333333333334</ele><time>2026-04-03T07:49:01.872Z</time></trkpt><trkpt lat="45.1666532" lon="9.0125135"><ele>83.0</ele><time>2026-04-03T07:49:02.871Z</time></trkpt><trkpt lat="45.1666441" lon="9.0123776"><ele>83.0</ele><time>2026-04-03T07:49:03.871Z</time></trkpt><trkpt lat="45.1666519" lon="9.0122366"><ele>83.0</ele><time>2026-04-03T07:49:04.871Z</time></trkpt><trkpt lat="45.1666739" lon="9.0121012"><ele>83.0</ele><time>2026-04-03T07:49:05.87Z</time></trkpt><trkpt lat="45.1667063" lon="9.0119612"><ele>83.0</ele><time>2026-04-03T07:49:06.87Z</time></trkpt><trkpt lat="45.1667425" lon="9.011819"><ele>83.0</ele><time>2026-04-03T07:49:07.871Z</time></trkpt><trkpt lat="45.1667837" lon="9.0116698"><ele>83.0</ele><time>2026-04-03T07:49:08.871Z</time></trkpt><trkpt lat="45.166828" lon="9.011512"><ele>83.0</ele><time>2026-04-03T07:49:09.87Z</time></trkpt><trkpt lat="45.1668762" lon="9.0113452"><ele>83.0</ele><time>2026-04-03T07:49:10.875Z</time></trkpt><trkpt lat="45.1669241" lon="9.0111749"><ele>83.0</ele><time>2026-04-03T07:49:11.87Z</time></trkpt><trkpt lat="45.1669715" lon="9.0109982"><ele>83.25</ele><time>2026-04-03T07:49:12.87Z</time></trkpt><trkpt lat="45.1670221" lon="9.0108164"><ele>83.5</ele><time>2026-04-03T07:49:13.875Z</time></trkpt><trkpt lat="45.1670785" lon="9.0106177"><ele>83.75</ele><time>2026-04-03T07:49:14.873Z</time></trkpt><trkpt lat="45.1671359" lon="9.010413"><ele>84.0</ele><time>2026-04-03T07:49:15.871Z</time></trkpt><trkpt lat="45.1671936" lon="9.0102007"><ele>83.33333333333333</ele><time>2026-04-03T07:49:16.873Z</time></trkpt><trkpt lat="45.1672531" lon="9.0099827"><ele>82.66666666666666</ele><time>2026-04-03T07:49:17.87Z</time></trkpt><trkpt lat="45.1673135" lon="9.0097562"><ele>82.0</ele><time>2026-04-03T07:49:18.873Z</time></trkpt><trkpt lat="45.1673711" lon="9.0095187"><ele>83.33333333333333</ele><time>2026-04-03T07:49:19.871Z</time></trkpt><trkpt lat="45.1674218" lon="9.009273"><ele>84.66666666666667</ele><time>2026-04-03T07:49:20.873Z</time></trkpt><trkpt lat="45.1674587" lon="9.00902"><ele>86.0</ele><time>2026-04-03T07:49:21.872Z</time></trkpt><trkpt lat="45.1674869" lon="9.0087632"><ele>86.33333333333334</ele><time>2026-04-03T07:49:22.872Z</time></trkpt><trkpt lat="45.1675076" lon="9.0085075"><ele>86.66666666666667</ele><time>2026-04-03T07:49:23.873Z</time></trkpt><trkpt lat="45.1675188" lon="9.0082471"><ele>87.0</ele><time>2026-04-03T07:49:24.872Z</time></trkpt><trkpt lat="45.1675233" lon="9.0079846"><ele>87.0</ele><time>2026-04-03T07:49:25.872Z</time></trkpt><trkpt lat="45.167522" lon="9.0077258"><ele>87.0</ele><time>2026-04-03T07:49:26.872Z</time></trkpt><trkpt lat="45.1675176" lon="9.0074663"><ele>87.0</ele><time>2026-04-03T07:49:27.871Z</time></trkpt><trkpt lat="45.1675152" lon="9.0072112"><ele>86.66666666666667</ele><time>2026-04-03T07:49:28.872Z</time></trkpt><trkpt lat="45.1675137" lon="9.0069593"><ele>86.33333333333334</ele><time>2026-04-03T07:49:29.871Z</time></trkpt><trkpt lat="45.1675125" lon="9.0067085"><ele>86.0</ele><time>2026-04-03T07:49:30.873Z</time></trkpt><trkpt lat="45.1675096" lon="9.0064594"><ele>85.66666666666667</ele><time>2026-04-03T07:49:31.871Z</time></trkpt><trkpt lat="45.1675062" lon="9.0062128"><ele>85.33333333333333</ele><time>2026-04-03T07:49:32.87Z</time></trkpt><trkpt lat="45.1675042" lon="9.0059634"><ele>85.0</ele><time>2026-04-03T07:49:33.87Z</time></trkpt><trkpt lat="45.1675048" lon="9.0057077"><ele>84.66666666666666</ele><time>2026-04-03T07:49:34.872Z</time></trkpt><trkpt lat="45.1675064" lon="9.0054485"><ele>84.33333333333333</ele><time>2026-04-03T07:49:35.871Z</time></trkpt><trkpt lat="45.1675055" lon="9.0051878"><ele>84.0</ele><time>2026-04-03T07:49:36.872Z</time></trkpt><trkpt lat="45.1675029" lon="9.0049237"><ele>84.0</ele><time>2026-04-03T07:49:37.872Z</time></trkpt><trkpt lat="45.1675021" lon="9.0046555"><ele>84.0</ele><time>2026-04-03T07:49:38.873Z</time></trkpt><trkpt lat="45.1675017" lon="9.0043867"><ele>84.0</ele><time>2026-04-03T07:49:39.873Z</time></trkpt><trkpt lat="45.1675008" lon="9.0041132"><ele>84.33333333333333</ele><time>2026-04-03T07:49:40.872Z</time></trkpt><trkpt lat="45.1674995" lon="9.0038392"><ele>84.66666666666666</ele><time>2026-04-03T07:49:41.871Z</time></trkpt><trkpt lat="45.1674993" lon="9.0035607"><ele>85.0</ele><time>2026-04-03T07:49:42.873Z</time></trkpt><trkpt lat="45.1674997" lon="9.0032798"><ele>85.0</ele><time>2026-04-03T07:49:43.872Z</time></trkpt><trkpt lat="45.1675" lon="9.0029958"><ele>85.0</ele><time>2026-04-03T07:49:44.871Z</time></trkpt><trkpt lat="45.1674989" lon="9.0027119"><ele>85.0</ele><time>2026-04-03T07:49:45.873Z</time></trkpt><trkpt lat="45.1674963" lon="9.00243"><ele>85.0</ele><time>2026-04-03T07:49:46.871Z</time></trkpt><trkpt lat="45.167493" lon="9.0021473"><ele>85.0</ele><time>2026-04-03T07:49:47.871Z</time></trkpt><trkpt lat="45.1674908" lon="9.0018692"><ele>85.0</ele><time>2026-04-03T07:49:48.872Z</time></trkpt><trkpt lat="45.1674882" lon="9.0015895"><ele>85.0</ele><time>2026-04-03T07:49:49.871Z</time></trkpt><trkpt lat="45.1674862" lon="9.0012964"><ele>85.0</ele><time>2026-04-03T07:49:50.872Z</time></trkpt><trkpt lat="45.1674826" lon="9.0009987"><ele>85.0</ele><time>2026-04-03T07:49:51.872Z</time></trkpt><trkpt lat="45.1674824" lon="9.0006961"><ele>84.66666666666666</ele><time>2026-04-03T07:49:52.871Z</time></trkpt><trkpt lat="45.1674797" lon="9.0003917"><ele>84.33333333333333</ele><time>2026-04-03T07:49:53.872Z</time></trkpt><trkpt lat="45.1674792" lon="9.000086"><ele>84.0</ele><time>2026-04-03T07:49:54.873Z</time></trkpt><trkpt lat="45.1674787" lon="8.9997792"><ele>84.0</ele><time>2026-04-03T07:49:55.872Z</time></trkpt><trkpt lat="45.1674787" lon="8.9994695"><ele>84.0</ele><time>2026-04-03T07:49:56.871Z</time></trkpt><trkpt lat="45.1674773" lon="8.9991642"><ele>84.0</ele><time>2026-04-03T07:49:57.874Z</time></trkpt><trkpt lat="45.1674776" lon="8.9988566"><ele>84.33333333333333</ele><time>2026-04-03T07:49:58.874Z</time></trkpt><trkpt lat="45.1674747" lon="8.9985515"><ele>84.66666666666666</ele><time>2026-04-03T07:49:59.873Z</time></trkpt><trkpt lat="45.1674732" lon="8.9982504"><ele>85.0</ele><time>2026-04-03T07:50:00.873Z</time></trkpt><trkpt lat="45.1674697" lon="8.9979503"><ele>85.0</ele><time>2026-04-03T07:50:01.873Z</time></trkpt><trkpt lat="45.1674656" lon="8.9976552"><ele>85.0</ele><time>2026-04-03T07:50:02.873Z</time></trkpt><trkpt lat="45.1674637" lon="8.9973681"><ele>85.0</ele><time>2026-04-03T07:50:03.875Z</time></trkpt><trkpt lat="45.16746" lon="8.9970842"><ele>85.0</ele><time>2026-04-03T07:50:04.872Z</time></trkpt><trkpt lat="45.1674571" lon="8.9968033"><ele>85.0</ele><time>2026-04-03T07:50:05.874Z</time></trkpt><trkpt lat="45.1674557" lon="8.9965255"><ele>85.0</ele><time>2026-04-03T07:50:06.875Z</time></trkpt><trkpt lat="45.1674546" lon="8.9962508"><ele>85.0</ele><time>2026-04-03T07:50:07.874Z</time></trkpt><trkpt lat="45.1674537" lon="8.9959771"><ele>85.0</ele><time>2026-04-03T07:50:08.873Z</time></trkpt><trkpt lat="45.1674522" lon="8.9957069"><ele>85.0</ele><time>2026-04-03T07:50:09.874Z</time></trkpt><trkpt lat="45.167449" lon="8.9954326"><ele>85.0</ele><time>2026-04-03T07:50:10.872Z</time></trkpt><trkpt lat="45.167447" lon="8.9951595"><ele>85.0</ele><time>2026-04-03T07:50:11.873Z</time></trkpt><trkpt lat="45.1674446" lon="8.994889"><ele>85.0</ele><time>2026-04-03T07:50:12.872Z</time></trkpt><trkpt lat="45.1674414" lon="8.9946151"><ele>85.66666666666666</ele><time>2026-04-03T07:50:13.872Z</time></trkpt><trkpt lat="45.1674381" lon="8.9943419"><ele>86.33333333333333</ele><time>2026-04-03T07:50:14.872Z</time></trkpt><trkpt lat="45.1674368" lon="8.994065"><ele>87.0</ele><time>2026-04-03T07:50:15.873Z</time></trkpt><trkpt lat="45.1674342" lon="8.9937882"><ele>87.33333333333333</ele><time>2026-04-03T07:50:16.872Z</time></trkpt><trkpt lat="45.1674311" lon="8.9935056"><ele>87.66666666666666</ele><time>2026-04-03T07:50:17.872Z</time></trkpt><trkpt lat="45.1674287" lon="8.9932231"><ele>88.0</ele><time>2026-04-03T07:50:18.872Z</time></trkpt><trkpt lat="45.167426" lon="8.9929365"><ele>87.0</ele><time>2026-04-03T07:50:19.87Z</time></trkpt><trkpt lat="45.167423" lon="8.9926528"><ele>86.0</ele><time>2026-04-03T07:50:20.871Z</time></trkpt><trkpt lat="45.1674208" lon="8.9923673"><ele>85.0</ele><time>2026-04-03T07:50:21.872Z</time></trkpt><trkpt lat="45.1674203" lon="8.9920907"><ele>85.0</ele><time>2026-04-03T07:50:22.872Z</time></trkpt><trkpt lat="45.1674238" lon="8.9918282"><ele>85.0</ele><time>2026-04-03T07:50:23.872Z</time></trkpt><trkpt lat="45.1674303" lon="8.9915777"><ele>85.0</ele><time>2026-04-03T07:50:24.872Z</time></trkpt><trkpt lat="45.1674373" lon="8.9913348"><ele>85.33333333333333</ele><time>2026-04-03T07:50:25.872Z</time></trkpt><trkpt lat="45.1674425" lon="8.9911093"><ele>85.66666666666667</ele><time>2026-04-03T07:50:26.871Z</time></trkpt><trkpt lat="45.1674526" lon="8.990895"><ele>86.0</ele><time>2026-04-03T07:50:27.87Z</time></trkpt><trkpt lat="45.1674685" lon="8.9906889"><ele>86.0</ele><time>2026-04-03T07:50:28.871Z</time></trkpt><trkpt lat="45.167489" lon="8.9904838"><ele>86.0</ele><time>2026-04-03T07:50:29.872Z</time></trkpt><trkpt lat="45.167512" lon="8.990277"><ele>86.0</ele><time>2026-04-03T07:50:30.872Z</time></trkpt><trkpt lat="45.1675394" lon="8.9900712"><ele>86.0</ele><time>2026-04-03T07:50:31.871Z</time></trkpt><trkpt lat="45.1675684" lon="8.9898653"><ele>86.0</ele><time>2026-04-03T07:50:32.871Z</time></trkpt><trkpt lat="45.1675944" lon="8.9896628"><ele>86.0</ele><time>2026-04-03T07:50:33.872Z</time></trkpt><trkpt lat="45.1676198" lon="8.9894739"><ele>86.0</ele><time>2026-04-03T07:50:34.871Z</time></trkpt><trkpt lat="45.1676444" lon="8.9892951"><ele>86.0</ele><time>2026-04-03T07:50:35.872Z</time></trkpt><trkpt lat="45.1676692" lon="8.9891294"><ele>86.0</ele><time>2026-04-03T07:50:36.872Z</time></trkpt><trkpt lat="45.167693" lon="8.9889772"><ele>86.0</ele><time>2026-04-03T07:50:37.871Z</time></trkpt><trkpt lat="45.167726" lon="8.9888343"><ele>86.0</ele><time>2026-04-03T07:50:38.871Z</time></trkpt><trkpt lat="45.1677775" lon="8.9887169"><ele>86.0</ele><time>2026-04-03T07:50:39.871Z</time></trkpt><trkpt lat="45.1678493" lon="8.9886253"><ele>86.0</ele><time>2026-04-03T07:50:40.871Z</time></trkpt><trkpt lat="45.1679345" lon="8.9885582"><ele>86.0</ele><time>2026-04-03T07:50:41.871Z</time></trkpt><trkpt lat="45.1680298" lon="8.9885174"><ele>86.0</ele><time>2026-04-03T07:50:42.872Z</time></trkpt><trkpt lat="45.1681354" lon="8.9885027"><ele>86.0</ele><time>2026-04-03T07:50:43.872Z</time></trkpt><trkpt lat="45.16825" lon="8.9885082"><ele>86.0</ele><time>2026-04-03T07:50:44.873Z</time></trkpt><trkpt lat="45.1683777" lon="8.9885184"><ele>86.0</ele><time>2026-04-03T07:50:45.87Z</time></trkpt><trkpt lat="45.1685197" lon="8.9885339"><ele>86.0</ele><time>2026-04-03T07:50:46.872Z</time></trkpt><trkpt lat="45.1686671" lon="8.9885605"><ele>86.0</ele><time>2026-04-03T07:50:47.872Z</time></trkpt><trkpt lat="45.1688139" lon="8.9885947"><ele>86.0</ele><time>2026-04-03T07:50:48.872Z</time></trkpt><trkpt lat="45.1689669" lon="8.9886369"><ele>86.5</ele><time>2026-04-03T07:50:49.871Z</time></trkpt><trkpt lat="45.1691142" lon="8.9886803"><ele>87.0</ele><time>2026-04-03T07:50:50.87Z</time></trkpt><trkpt lat="45.1692498" lon="8.9887222"><ele>87.5</ele><time>2026-04-03T07:50:51.872Z</time></trkpt><trkpt lat="45.1693742" lon="8.9887685"><ele>88.0</ele><time>2026-04-03T07:50:52.871Z</time></trkpt><trkpt lat="45.169496" lon="8.9888165"><ele>88.0</ele><time>2026-04-03T07:50:53.873Z</time></trkpt><trkpt lat="45.169616" lon="8.9888691"><ele>88.0</ele><time>2026-04-03T07:50:54.873Z</time></trkpt><trkpt lat="45.1697383" lon="8.98892"><ele>88.0</ele><time>2026-04-03T07:50:55.872Z</time></trkpt><trkpt lat="45.1698604" lon="8.9889704"><ele>88.0</ele><time>2026-04-03T07:50:56.871Z</time></trkpt><trkpt lat="45.1699822" lon="8.9890199"><ele>88.0</ele><time>2026-04-03T07:50:57.87Z</time></trkpt><trkpt lat="45.1701046" lon="8.989074"><ele>88.0</ele><time>2026-04-03T07:50:58.873Z</time></trkpt><trkpt lat="45.1702265" lon="8.9891371"><ele>88.0</ele><time>2026-04-03T07:50:59.87Z</time></trkpt><trkpt lat="45.1703535" lon="8.9891883"><ele>88.0</ele><time>2026-04-03T07:51:00.872Z</time></trkpt><trkpt lat="45.170486" lon="8.9892263"><ele>88.0</ele><time>2026-04-03T07:51:01.871Z</time></trkpt><trkpt lat="45.1706192" lon="8.9892518"><ele>88.0</ele><time>2026-04-03T07:51:02.872Z</time></trkpt><trkpt lat="45.1707538" lon="8.9892691"><ele>88.0</ele><time>2026-04-03T07:51:03.871Z</time></trkpt><trkpt lat="45.1708904" lon="8.9892834"><ele>88.0</ele><time>2026-04-03T07:51:04.87Z</time></trkpt><trkpt lat="45.1710256" lon="8.9892984"><ele>88.25</ele><time>2026-04-03T07:51:05.871Z</time></trkpt><trkpt lat="45.17116" lon="8.9893191"><ele>88.5</ele><time>2026-04-03T07:51:06.872Z</time></trkpt><trkpt lat="45.1712949" lon="8.9893453"><ele>88.75</ele><time>2026-04-03T07:51:07.871Z</time></trkpt><trkpt lat="45.1714278" lon="8.9893786"><ele>89.0</ele><time>2026-04-03T07:51:08.87Z</time></trkpt><trkpt lat="45.171559" lon="8.989422"><ele>89.0</ele><time>2026-04-03T07:51:09.873Z</time></trkpt><trkpt lat="45.1716899" lon="8.989468"><ele>89.0</ele><time>2026-04-03T07:51:10.871Z</time></trkpt><trkpt lat="45.1718195" lon="8.9895121"><ele>89.0</ele><time>2026-04-03T07:51:11.871Z</time></trkpt><trkpt lat="45.1719506" lon="8.9895623"><ele>89.0</ele><time>2026-04-03T07:51:12.871Z</time></trkpt><trkpt lat="45.1720798" lon="8.9896053"><ele>89.0</ele><time>2026-04-03T07:51:13.872Z</time></trkpt><trkpt lat="45.1722112" lon="8.9896363"><ele>89.0</ele><time>2026-04-03T07:51:14.872Z</time></trkpt><trkpt lat="45.1723436" lon="8.9896521"><ele>89.0</ele><time>2026-04-03T07:51:15.872Z</time></trkpt><trkpt lat="45.172477" lon="8.9896609"><ele>89.0</ele><time>2026-04-03T07:51:16.871Z</time></trkpt><trkpt lat="45.1726093" lon="8.9896614"><ele>89.0</ele><time>2026-04-03T07:51:17.871Z</time></trkpt><trkpt lat="45.1727398" lon="8.9896681"><ele>89.0</ele><time>2026-04-03T07:51:18.871Z</time></trkpt><trkpt lat="45.1728702" lon="8.9896689"><ele>89.0</ele><time>2026-04-03T07:51:19.871Z</time></trkpt><trkpt lat="45.1729968" lon="8.9896749"><ele>89.0</ele><time>2026-04-03T07:51:20.871Z</time></trkpt><trkpt lat="45.1731214" lon="8.9896788"><ele>89.0</ele><time>2026-04-03T07:51:21.871Z</time></trkpt><trkpt lat="45.1732434" lon="8.9896859"><ele>89.0</ele><time>2026-04-03T07:51:22.872Z</time></trkpt><trkpt lat="45.1733589" lon="8.989698"><ele>89.0</ele><time>2026-04-03T07:51:23.873Z</time></trkpt><trkpt lat="45.1734668" lon="8.9897102"><ele>89.0</ele><time>2026-04-03T07:51:24.872Z</time></trkpt><trkpt lat="45.173564" lon="8.9897278"><ele>89.0</ele><time>2026-04-03T07:51:25.871Z</time></trkpt><trkpt lat="45.1736449" lon="8.9897443"><ele>89.0</ele><time>2026-04-03T07:51:26.87Z</time></trkpt><trkpt lat="45.1737074" lon="8.9897711"><ele>89.0</ele><time>2026-04-03T07:51:27.872Z</time></trkpt><trkpt lat="45.1737933" lon="8.9898258"><ele>89.0</ele><time>2026-04-03T07:51:29.87Z</time></trkpt><trkpt lat="45.1738658" lon="8.9897842"><ele>89.0</ele><time>2026-04-03T07:51:31.872Z</time></trkpt><trkpt lat="45.1739029" lon="8.9896364"><ele>89.0</ele><time>2026-04-03T07:51:33.875Z</time></trkpt><trkpt lat="45.1739325" lon="8.9895302"><ele>89.0</ele><time>2026-04-03T07:51:34.874Z</time></trkpt><trkpt lat="45.1739761" lon="8.9894079"><ele>88.75</ele><time>2026-04-03T07:51:35.872Z</time></trkpt><trkpt lat="45.174025" lon="8.9892715"><ele>88.5</ele><time>2026-04-03T07:51:36.871Z</time></trkpt><trkpt lat="45.1740766" lon="8.9891272"><ele>88.25</ele><time>2026-04-03T07:51:37.875Z</time></trkpt><trkpt lat="45.1741337" lon="8.9889723"><ele>88.0</ele><time>2026-04-03T07:51:38.87Z</time></trkpt><trkpt lat="45.1741933" lon="8.9888112"><ele>88.2</ele><time>2026-04-03T07:51:39.871Z</time></trkpt><trkpt lat="45.1742509" lon="8.9886493"><ele>88.4</ele><time>2026-04-03T07:51:40.87Z</time></trkpt><trkpt lat="45.1743029" lon="8.9885086"><ele>88.60000000000001</ele><time>2026-04-03T07:51:41.871Z</time></trkpt><trkpt lat="45.1743467" lon="8.9883954"><ele>88.80000000000001</ele><time>2026-04-03T07:51:42.87Z</time></trkpt><trkpt lat="45.1743814" lon="8.9883056"><ele>89.0</ele><time>2026-04-03T07:51:43.869Z</time></trkpt><trkpt lat="45.1744215" lon="8.9881725"><ele>89.0</ele><time>2026-04-03T07:51:45.87Z</time></trkpt><trkpt lat="45.1743661" lon="8.988084"><ele>89.0</ele><time>2026-04-03T07:51:47.869Z</time></trkpt><trkpt lat="45.1742617" lon="8.9880795"><ele>89.0</ele><time>2026-04-03T07:51:49.871Z</time></trkpt><trkpt lat="45.174199" lon="8.9880925"><ele>89.0</ele><time>2026-04-03T07:51:50.871Z</time></trkpt><trkpt lat="45.1740907" lon="8.9881223"><ele>89.0</ele><time>2026-04-03T07:51:52.872Z</time></trkpt><trkpt lat="45.1740273" lon="8.9880965"><ele>89.0</ele><time>2026-04-03T07:51:55.872Z</time></trkpt><trkpt lat="45.1739971" lon="8.9879737"><ele>88.4</ele><time>2026-04-03T07:51:58.871Z</time></trkpt><trkpt lat="45.1739358" lon="8.9878952"><ele>87.80000000000001</ele><time>2026-04-03T07:52:01.87Z</time></trkpt><trkpt lat="45.1738169" lon="8.9878735"><ele>87.19999999999999</ele><time>2026-04-03T07:52:03.87Z</time></trkpt><trkpt lat="45.1737394" lon="8.9878649"><ele>86.6</ele><time>2026-04-03T07:52:04.87Z</time></trkpt><trkpt lat="45.1736568" lon="8.9878577"><ele>86.0</ele><time>2026-04-03T07:52:05.871Z</time></trkpt><trkpt lat="45.1735698" lon="8.9878508"><ele>86.0</ele><time>2026-04-03T07:52:06.871Z</time></trkpt><trkpt lat="45.1734835" lon="8.9878427"><ele>86.0</ele><time>2026-04-03T07:52:07.87Z</time></trkpt><trkpt lat="45.1733964" lon="8.9878315"><ele>86.0</ele><time>2026-04-03T07:52:08.871Z</time></trkpt><trkpt lat="45.1733089" lon="8.9878182"><ele>86.0</ele><time>2026-04-03T07:52:09.87Z</time></trkpt><trkpt lat="45.1732211" lon="8.9878021"><ele>86.0</ele><time>2026-04-03T07:52:10.87Z</time></trkpt><trkpt lat="45.1731349" lon="8.9877875"><ele>86.0</ele><time>2026-04-03T07:52:11.87Z</time></trkpt><trkpt lat="45.1730495" lon="8.9877692"><ele>85.83333333333334</ele><time>2026-04-03T07:52:12.87Z</time></trkpt><trkpt lat="45.1729657" lon="8.9877506"><ele>85.66666666666667</ele><time>2026-04-03T07:52:13.87Z</time></trkpt><trkpt lat="45.1728827" lon="8.9877277"><ele>85.5</ele><time>2026-04-03T07:52:14.871Z</time></trkpt><trkpt lat="45.1727991" lon="8.9877036"><ele>85.33333333333333</ele><time>2026-04-03T07:52:15.871Z</time></trkpt><trkpt lat="45.1727173" lon="8.9876759"><ele>85.16666666666666</ele><time>2026-04-03T07:52:16.869Z</time></trkpt><trkpt lat="45.1726352" lon="8.9876501"><ele>85.0</ele><time>2026-04-03T07:52:17.87Z</time></trkpt><trkpt lat="45.1725523" lon="8.9876242"><ele>85.0</ele><time>2026-04-03T07:52:18.871Z</time></trkpt><trkpt lat="45.1724724" lon="8.9876026"><ele>85.0</ele><time>2026-04-03T07:52:19.87Z</time></trkpt><trkpt lat="45.1723992" lon="8.9875853"><ele>85.0</ele><time>2026-04-03T07:52:20.87Z</time></trkpt><trkpt lat="45.1723326" lon="8.9875721"><ele>85.0</ele><time>2026-04-03T07:52:21.875Z</time></trkpt><trkpt lat="45.1722682" lon="8.9875657"><ele>85.0</ele><time>2026-04-03T07:52:22.87Z</time></trkpt><trkpt lat="45.1721492" lon="8.9875602"><ele>85.0</ele><time>2026-04-03T07:52:24.871Z</time></trkpt><trkpt lat="45.1720362" lon="8.9875508"><ele>85.2</ele><time>2026-04-03T07:52:26.87Z</time></trkpt><trkpt lat="45.1719319" lon="8.9875314"><ele>85.4</ele><time>2026-04-03T07:52:28.87Z</time></trkpt><trkpt lat="45.1718293" lon="8.987477"><ele>85.6</ele><time>2026-04-03T07:52:30.87Z</time></trkpt><trkpt lat="45.1717409" lon="8.9873798"><ele>85.8</ele><time>2026-04-03T07:52:32.87Z</time></trkpt><trkpt lat="45.1716507" lon="8.9872617"><ele>86.0</ele><time>2026-04-03T07:52:34.869Z</time></trkpt><trkpt lat="45.1716024" lon="8.9871826"><ele>86.0</ele><time>2026-04-03T07:52:35.87Z</time></trkpt><trkpt lat="45.1715529" lon="8.9870953"><ele>86.0</ele><time>2026-04-03T07:52:36.87Z</time></trkpt><trkpt lat="45.1715022" lon="8.9869881"><ele>86.0</ele><time>2026-04-03T07:52:37.869Z</time></trkpt><trkpt lat="45.1714587" lon="8.9868617"><ele>86.0</ele><time>2026-04-03T07:52:38.87Z</time></trkpt><trkpt lat="45.1714271" lon="8.9867134"><ele>86.0</ele><time>2026-04-03T07:52:39.871Z</time></trkpt><trkpt lat="45.1714163" lon="8.9865507"><ele>86.0</ele><time>2026-04-03T07:52:40.872Z</time></trkpt><trkpt lat="45.1714157" lon="8.9863784"><ele>86.0</ele><time>2026-04-03T07:52:41.871Z</time></trkpt><trkpt lat="45.1714174" lon="8.9862028"><ele>86.0</ele><time>2026-04-03T07:52:42.872Z</time></trkpt><trkpt lat="45.1714193" lon="8.9860273"><ele>86.0</ele><time>2026-04-03T07:52:43.872Z</time></trkpt><trkpt lat="45.1714161" lon="8.9858545"><ele>86.0</ele><time>2026-04-03T07:52:44.871Z</time></trkpt><trkpt lat="45.1713995" lon="8.9856807"><ele>86.0</ele><time>2026-04-03T07:52:45.871Z</time></trkpt><trkpt lat="45.1713738" lon="8.9855101"><ele>86.0</ele><time>2026-04-03T07:52:46.871Z</time></trkpt><trkpt lat="45.1713483" lon="8.9853379"><ele>86.0</ele><time>2026-04-03T07:52:47.87Z</time></trkpt><trkpt lat="45.171328" lon="8.9851677"><ele>86.0</ele><time>2026-04-03T07:52:48.872Z</time></trkpt><trkpt lat="45.1713244" lon="8.9849915"><ele>86.0</ele><time>2026-04-03T07:52:49.872Z</time></trkpt><trkpt lat="45.1713276" lon="8.9848096"><ele>86.0</ele><time>2026-04-03T07:52:50.872Z</time></trkpt><trkpt lat="45.1713282" lon="8.984621"><ele>86.0</ele><time>2026-04-03T07:52:51.871Z</time></trkpt><trkpt lat="45.171327" lon="8.9844314"><ele>86.0</ele><time>2026-04-03T07:52:52.871Z</time></trkpt><trkpt lat="45.1713241" lon="8.9842414"><ele>86.0</ele><time>2026-04-03T07:52:53.871Z</time></trkpt><trkpt lat="45.1713183" lon="8.9840498"><ele>86.0</ele><time>2026-04-03T07:52:54.871Z</time></trkpt><trkpt lat="45.1713059" lon="8.9838563"><ele>86.0</ele><time>2026-04-03T07:52:55.87Z</time></trkpt><trkpt lat="45.1712855" lon="8.9836636"><ele>86.0</ele><time>2026-04-03T07:52:56.871Z</time></trkpt><trkpt lat="45.1712603" lon="8.9834733"><ele>86.0</ele><time>2026-04-03T07:52:57.871Z</time></trkpt><trkpt lat="45.1712386" lon="8.9832845"><ele>86.0</ele><time>2026-04-03T07:52:58.87Z</time></trkpt><trkpt lat="45.1712188" lon="8.9831029"><ele>86.0</ele><time>2026-04-03T07:52:59.87Z</time></trkpt><trkpt lat="45.1711958" lon="8.9829365"><ele>86.0</ele><time>2026-04-03T07:53:00.871Z</time></trkpt><trkpt lat="45.1711729" lon="8.982776"><ele>86.0</ele><time>2026-04-03T07:53:01.871Z</time></trkpt><trkpt lat="45.171149" lon="8.9826208"><ele>86.0</ele><time>2026-04-03T07:53:02.871Z</time></trkpt><trkpt lat="45.171113" lon="8.9824752"><ele>86.0</ele><time>2026-04-03T07:53:03.871Z</time></trkpt><trkpt lat="45.171061" lon="8.9823475"><ele>86.0</ele><time>2026-04-03T07:53:04.871Z</time></trkpt><trkpt lat="45.1709976" lon="8.9822413"><ele>85.8</ele><time>2026-04-03T07:53:05.871Z</time></trkpt><trkpt lat="45.1709231" lon="8.9821388"><ele>85.6</ele><time>2026-04-03T07:53:06.87Z</time></trkpt><trkpt lat="45.1708434" lon="8.9820336"><ele>85.4</ele><time>2026-04-03T07:53:07.871Z</time></trkpt><trkpt lat="45.170762" lon="8.9819216"><ele>85.2</ele><time>2026-04-03T07:53:08.87Z</time></trkpt><trkpt lat="45.170686" lon="8.9818024"><ele>85.0</ele><time>2026-04-03T07:53:09.871Z</time></trkpt><trkpt lat="45.1706175" lon="8.9816728"><ele>85.0</ele><time>2026-04-03T07:53:10.871Z</time></trkpt><trkpt lat="45.1705553" lon="8.981535"><ele>85.0</ele><time>2026-04-03T07:53:11.87Z</time></trkpt><trkpt lat="45.1704972" lon="8.9813966"><ele>85.0</ele><time>2026-04-03T07:53:12.872Z</time></trkpt><trkpt lat="45.1704494" lon="8.9812457"><ele>85.0</ele><time>2026-04-03T07:53:13.871Z</time></trkpt><trkpt lat="45.1704118" lon="8.9810926"><ele>85.0</ele><time>2026-04-03T07:53:14.87Z</time></trkpt><trkpt lat="45.1703776" lon="8.9809406"><ele>85.0</ele><time>2026-04-03T07:53:15.87Z</time></trkpt><trkpt lat="45.1703436" lon="8.9807901"><ele>85.0</ele><time>2026-04-03T07:53:16.87Z</time></trkpt><trkpt lat="45.170298" lon="8.9806471"><ele>85.0</ele><time>2026-04-03T07:53:17.87Z</time></trkpt><trkpt lat="45.1702399" lon="8.9805264"><ele>85.0</ele><time>2026-04-03T07:53:18.872Z</time></trkpt><trkpt lat="45.1701795" lon="8.9804218"><ele>85.0</ele><time>2026-04-03T07:53:19.871Z</time></trkpt><trkpt lat="45.1701171" lon="8.9803294"><ele>85.0</ele><time>2026-04-03T07:53:20.874Z</time></trkpt><trkpt lat="45.1700526" lon="8.9802401"><ele>85.0</ele><time>2026-04-03T07:53:21.871Z</time></trkpt><trkpt lat="45.1699912" lon="8.980159"><ele>85.0</ele><time>2026-04-03T07:53:22.873Z</time></trkpt><trkpt lat="45.169932" lon="8.9800824"><ele>85.0</ele><time>2026-04-03T07:53:23.874Z</time></trkpt><trkpt lat="45.1698804" lon="8.9800164"><ele>85.0</ele><time>2026-04-03T07:53:24.872Z</time></trkpt><trkpt lat="45.1697974" lon="8.9799129"><ele>85.16666666666666</ele><time>2026-04-03T07:53:26.873Z</time></trkpt><trkpt lat="45.1697033" lon="8.9797979"><ele>85.33333333333333</ele><time>2026-04-03T07:53:28.872Z</time></trkpt><trkpt lat="45.1696497" lon="8.9797288"><ele>85.5</ele><time>2026-04-03T07:53:29.872Z</time></trkpt><trkpt lat="45.1695954" lon="8.979658"><ele>85.66666666666667</ele><time>2026-04-03T07:53:30.871Z</time></trkpt><trkpt lat="45.1695357" lon="8.9795812"><ele>85.83333333333334</ele><time>2026-04-03T07:53:31.871Z</time></trkpt><trkpt lat="45.1694681" lon="8.9795032"><ele>86.0</ele><time>2026-04-03T07:53:32.872Z</time></trkpt><trkpt lat="45.1694001" lon="8.9794213"><ele>86.0</ele><time>2026-04-03T07:53:33.871Z</time></trkpt><trkpt lat="45.169338" lon="8.9793408"><ele>86.0</ele><time>2026-04-03T07:53:34.871Z</time></trkpt><trkpt lat="45.1692762" lon="8.9792625"><ele>86.0</ele><time>2026-04-03T07:53:35.873Z</time></trkpt><trkpt lat="45.1692133" lon="8.979185"><ele>86.0</ele><time>2026-04-03T07:53:36.871Z</time></trkpt><trkpt lat="45.1691511" lon="8.9791087"><ele>86.0</ele><time>2026-04-03T07:53:37.872Z</time></trkpt><trkpt lat="45.1690952" lon="8.9790399"><ele>86.0</ele><time>2026-04-03T07:53:38.872Z</time></trkpt><trkpt lat="45.1690439" lon="8.9789825"><ele>85.83333333333334</ele><time>2026-04-03T07:53:39.871Z</time></trkpt><trkpt lat="45.1689462" lon="8.9788735"><ele>85.66666666666667</ele><time>2026-04-03T07:53:41.87Z</time></trkpt><trkpt lat="45.1688935" lon="8.9788116"><ele>85.5</ele><time>2026-04-03T07:53:42.87Z</time></trkpt><trkpt lat="45.1688429" lon="8.9787483"><ele>85.33333333333333</ele><time>2026-04-03T07:53:43.871Z</time></trkpt><trkpt lat="45.168795" lon="8.978678"><ele>85.16666666666666</ele><time>2026-04-03T07:53:44.871Z</time></trkpt><trkpt lat="45.1687482" lon="8.978604"><ele>85.0</ele><time>2026-04-03T07:53:45.871Z</time></trkpt><trkpt lat="45.1687" lon="8.9785181"><ele>85.0</ele><time>2026-04-03T07:53:46.871Z</time></trkpt><trkpt lat="45.1686543" lon="8.9784242"><ele>85.0</ele><time>2026-04-03T07:53:47.871Z</time></trkpt><trkpt lat="45.1686057" lon="8.9783254"><ele>85.0</ele><time>2026-04-03T07:53:48.872Z</time></trkpt><trkpt lat="45.1685576" lon="8.9782215"><ele>85.0</ele><time>2026-04-03T07:53:49.872Z</time></trkpt><trkpt lat="45.1685089" lon="8.9781153"><ele>85.0</ele><time>2026-04-03T07:53:50.872Z</time></trkpt><trkpt lat="45.1684569" lon="8.9780037"><ele>85.0</ele><time>2026-04-03T07:53:51.871Z</time></trkpt><trkpt lat="45.1683999" lon="8.977876"><ele>85.25</ele><time>2026-04-03T07:53:52.871Z</time></trkpt><trkpt lat="45.1683389" lon="8.9777352"><ele>85.5</ele><time>2026-04-03T07:53:53.872Z</time></trkpt><trkpt lat="45.1682745" lon="8.9775871"><ele>85.75</ele><time>2026-04-03T07:53:54.871Z</time></trkpt><trkpt lat="45.1682071" lon="8.9774319"><ele>86.0</ele><time>2026-04-03T07:53:55.871Z</time></trkpt><trkpt lat="45.1681328" lon="8.9772678"><ele>86.0</ele><time>2026-04-03T07:53:56.871Z</time></trkpt><trkpt lat="45.1680575" lon="8.9771013"><ele>86.0</ele><time>2026-04-03T07:53:57.87Z</time></trkpt><trkpt lat="45.167983" lon="8.9769356"><ele>86.0</ele><time>2026-04-03T07:53:58.875Z</time></trkpt><trkpt lat="45.1679094" lon="8.9767706"><ele>86.0</ele><time>2026-04-03T07:53:59.871Z</time></trkpt><trkpt lat="45.1678355" lon="8.9765937"><ele>86.25</ele><time>2026-04-03T07:54:00.871Z</time></trkpt><trkpt lat="45.1677676" lon="8.9764106"><ele>86.5</ele><time>2026-04-03T07:54:01.871Z</time></trkpt><trkpt lat="45.1677041" lon="8.9762185"><ele>86.75</ele><time>2026-04-03T07:54:02.87Z</time></trkpt><trkpt lat="45.167645" lon="8.9760209"><ele>87.0</ele><time>2026-04-03T07:54:03.87Z</time></trkpt><trkpt lat="45.1675879" lon="8.9758235"><ele>87.0</ele><time>2026-04-03T07:54:04.871Z</time></trkpt><trkpt lat="45.1675405" lon="8.9756458"><ele>87.0</ele><time>2026-04-03T07:54:05.871Z</time></trkpt><trkpt lat="45.1675022" lon="8.9755031"><ele>87.0</ele><time>2026-04-03T07:54:06.87Z</time></trkpt><trkpt lat="45.1674716" lon="8.9753891"><ele>87.0</ele><time>2026-04-03T07:54:07.87Z</time></trkpt><trkpt lat="45.1674446" lon="8.9752905"><ele>87.0</ele><time>2026-04-03T07:54:08.87Z</time></trkpt><trkpt lat="45.1674164" lon="8.9752028"><ele>87.0</ele><time>2026-04-03T07:54:09.873Z</time></trkpt><trkpt lat="45.1673803" lon="8.9751146"><ele>87.0</ele><time>2026-04-03T07:54:10.871Z</time></trkpt><trkpt lat="45.1673349" lon="8.975027"><ele>87.0</ele><time>2026-04-03T07:54:11.871Z</time></trkpt><trkpt lat="45.1672775" lon="8.9749295"><ele>87.0</ele><time>2026-04-03T07:54:12.873Z</time></trkpt><trkpt lat="45.1672132" lon="8.9748187"><ele>87.0</ele><time>2026-04-03T07:54:13.872Z</time></trkpt><trkpt lat="45.1671425" lon="8.9746995"><ele>87.0</ele><time>2026-04-03T07:54:14.872Z</time></trkpt><trkpt lat="45.167069" lon="8.9745779"><ele>86.75</ele><time>2026-04-03T07:54:15.871Z</time></trkpt><trkpt lat="45.1669914" lon="8.9744554"><ele>86.5</ele><time>2026-04-03T07:54:16.872Z</time></trkpt><trkpt lat="45.1669138" lon="8.9743291"><ele>86.25</ele><time>2026-04-03T07:54:17.872Z</time></trkpt><trkpt lat="45.1668363" lon="8.9742015"><ele>86.0</ele><time>2026-04-03T07:54:18.872Z</time></trkpt><trkpt lat="45.166758" lon="8.9740745"><ele>86.0</ele><time>2026-04-03T07:54:19.873Z</time></trkpt><trkpt lat="45.1666809" lon="8.9739513"><ele>86.0</ele><time>2026-04-03T07:54:20.872Z</time></trkpt><trkpt lat="45.1666024" lon="8.9738289"><ele>86.0</ele><time>2026-04-03T07:54:21.871Z</time></trkpt><trkpt lat="45.1665239" lon="8.9737081"><ele>86.0</ele><time>2026-04-03T07:54:22.872Z</time></trkpt><trkpt lat="45.1664438" lon="8.9735877"><ele>86.0</ele><time>2026-04-03T07:54:23.872Z</time></trkpt><trkpt lat="45.1663633" lon="8.9734658"><ele>86.0</ele><time>2026-04-03T07:54:24.869Z</time></trkpt><trkpt lat="45.1662806" lon="8.9733413"><ele>86.0</ele><time>2026-04-03T07:54:25.871Z</time></trkpt><trkpt lat="45.1661963" lon="8.9732213"><ele>86.0</ele><time>2026-04-03T07:54:26.871Z</time></trkpt><trkpt lat="45.166109" lon="8.9731008"><ele>86.0</ele><time>2026-04-03T07:54:27.87Z</time></trkpt><trkpt lat="45.1660232" lon="8.9729828"><ele>86.0</ele><time>2026-04-03T07:54:28.872Z</time></trkpt><trkpt lat="45.1659435" lon="8.9728687"><ele>86.0</ele><time>2026-04-03T07:54:29.87Z</time></trkpt><trkpt lat="45.1658625" lon="8.9727517"><ele>86.0</ele><time>2026-04-03T07:54:30.87Z</time></trkpt><trkpt lat="45.1657821" lon="8.9726306"><ele>86.0</ele><time>2026-04-03T07:54:31.871Z</time></trkpt><trkpt lat="45.165703" lon="8.9725098"><ele>86.0</ele><time>2026-04-03T07:54:32.87Z</time></trkpt><trkpt lat="45.1656217" lon="8.972392"><ele>86.0</ele><time>2026-04-03T07:54:33.872Z</time></trkpt><trkpt lat="45.1655388" lon="8.9722778"><ele>86.0</ele><time>2026-04-03T07:54:34.87Z</time></trkpt><trkpt lat="45.1654596" lon="8.9721664"><ele>86.0</ele><time>2026-04-03T07:54:35.87Z</time></trkpt><trkpt lat="45.1653798" lon="8.9720598"><ele>86.0</ele><time>2026-04-03T07:54:36.87Z</time></trkpt><trkpt lat="45.1653082" lon="8.971957"><ele>86.0</ele><time>2026-04-03T07:54:37.87Z</time></trkpt><trkpt lat="45.1652393" lon="8.9718665"><ele>86.0</ele><time>2026-04-03T07:54:38.871Z</time></trkpt><trkpt lat="45.165179" lon="8.9717847"><ele>86.0</ele><time>2026-04-03T07:54:39.871Z</time></trkpt><trkpt lat="45.1651181" lon="8.9717093"><ele>86.0</ele><time>2026-04-03T07:54:40.871Z</time></trkpt><trkpt lat="45.1650562" lon="8.9716379"><ele>86.0</ele><time>2026-04-03T07:54:41.871Z</time></trkpt><trkpt lat="45.1649865" lon="8.9715602"><ele>86.0</ele><time>2026-04-03T07:54:42.872Z</time></trkpt><trkpt lat="45.1649111" lon="8.9714749"><ele>86.0</ele><time>2026-04-03T07:54:43.87Z</time></trkpt><trkpt lat="45.164832" lon="8.9713741"><ele>86.0</ele><time>2026-04-03T07:54:44.872Z</time></trkpt><trkpt lat="45.1647558" lon="8.9712675"><ele>85.8</ele><time>2026-04-03T07:54:45.871Z</time></trkpt><trkpt lat="45.1646835" lon="8.9711556"><ele>85.6</ele><time>2026-04-03T07:54:46.87Z</time></trkpt><trkpt lat="45.1646121" lon="8.9710457"><ele>85.4</ele><time>2026-04-03T07:54:47.872Z</time></trkpt><trkpt lat="45.1645418" lon="8.9709366"><ele>85.2</ele><time>2026-04-03T07:54:48.87Z</time></trkpt><trkpt lat="45.164471" lon="8.9708289"><ele>85.0</ele><time>2026-04-03T07:54:49.87Z</time></trkpt><trkpt lat="45.1643998" lon="8.9707191"><ele>85.4</ele><time>2026-04-03T07:54:50.869Z</time></trkpt><trkpt lat="45.1643275" lon="8.9706142"><ele>85.8</ele><time>2026-04-03T07:54:51.87Z</time></trkpt><trkpt lat="45.1642551" lon="8.9705119"><ele>86.19999999999999</ele><time>2026-04-03T07:54:52.872Z</time></trkpt><trkpt lat="45.1641825" lon="8.9704126"><ele>86.6</ele><time>2026-04-03T07:54:53.87Z</time></trkpt><trkpt lat="45.1641086" lon="8.9703107"><ele>87.0</ele><time>2026-04-03T07:54:54.871Z</time></trkpt><trkpt lat="45.1640364" lon="8.9702131"><ele>87.0</ele><time>2026-04-03T07:54:55.87Z</time></trkpt><trkpt lat="45.1639674" lon="8.9701147"><ele>87.0</ele><time>2026-04-03T07:54:56.87Z</time></trkpt><trkpt lat="45.163904" lon="8.970024"><ele>87.0</ele><time>2026-04-03T07:54:57.87Z</time></trkpt><trkpt lat="45.1638425" lon="8.9699341"><ele>87.0</ele><time>2026-04-03T07:54:58.87Z</time></trkpt><trkpt lat="45.1637791" lon="8.9698398"><ele>87.0</ele><time>2026-04-03T07:54:59.872Z</time></trkpt><trkpt lat="45.1637078" lon="8.9697471"><ele>87.0</ele><time>2026-04-03T07:55:00.874Z</time></trkpt><trkpt lat="45.1636304" lon="8.9696494"><ele>87.0</ele><time>2026-04-03T07:55:01.871Z</time></trkpt><trkpt lat="45.1635484" lon="8.9695522"><ele>87.0</ele><time>2026-04-03T07:55:02.871Z</time></trkpt><trkpt lat="45.1634673" lon="8.9694565"><ele>87.0</ele><time>2026-04-03T07:55:03.87Z</time></trkpt><trkpt lat="45.1633809" lon="8.9693622"><ele>87.0</ele><time>2026-04-03T07:55:04.871Z</time></trkpt><trkpt lat="45.1632997" lon="8.9692638"><ele>87.0</ele><time>2026-04-03T07:55:05.869Z</time></trkpt><trkpt lat="45.163222" lon="8.9691718"><ele>87.0</ele><time>2026-04-03T07:55:06.871Z</time></trkpt><trkpt lat="45.1631496" lon="8.9690861"><ele>87.0</ele><time>2026-04-03T07:55:07.875Z</time></trkpt><trkpt lat="45.163081" lon="8.9690034"><ele>87.0</ele><time>2026-04-03T07:55:08.872Z</time></trkpt><trkpt lat="45.1630116" lon="8.9689339"><ele>87.0</ele><time>2026-04-03T07:55:09.871Z</time></trkpt><trkpt lat="45.162947" lon="8.968869"><ele>87.0</ele><time>2026-04-03T07:55:10.871Z</time></trkpt><trkpt lat="45.1628882" lon="8.9688194"><ele>87.0</ele><time>2026-04-03T07:55:11.872Z</time></trkpt><trkpt lat="45.1628315" lon="8.9687749"><ele>87.0</ele><time>2026-04-03T07:55:12.874Z</time></trkpt><trkpt lat="45.1627373" lon="8.9686872"><ele>87.0</ele><time>2026-04-03T07:55:14.87Z</time></trkpt><trkpt lat="45.1626625" lon="8.9685934"><ele>87.0</ele><time>2026-04-03T07:55:16.872Z</time></trkpt><trkpt lat="45.1626023" lon="8.9684772"><ele>87.0</ele><time>2026-04-03T07:55:18.871Z</time></trkpt><trkpt lat="45.1625465" lon="8.9683342"><ele>87.19999999999999</ele><time>2026-04-03T07:55:20.872Z</time></trkpt><trkpt lat="45.1625136" lon="8.9681682"><ele>87.4</ele><time>2026-04-03T07:55:22.872Z</time></trkpt><trkpt lat="45.1625017" lon="8.9680765"><ele>87.6</ele><time>2026-04-03T07:55:23.871Z</time></trkpt><trkpt lat="45.162481" lon="8.9679159"><ele>87.80000000000001</ele><time>2026-04-03T07:55:25.872Z</time></trkpt><trkpt lat="45.1624656" lon="8.9677463"><ele>88.0</ele><time>2026-04-03T07:55:27.871Z</time></trkpt><trkpt lat="45.1624556" lon="8.9676427"><ele>88.0</ele><time>2026-04-03T07:55:28.872Z</time></trkpt><trkpt lat="45.1624427" lon="8.9675324"><ele>88.0</ele><time>2026-04-03T07:55:29.872Z</time></trkpt><trkpt lat="45.1624321" lon="8.9674218"><ele>88.0</ele><time>2026-04-03T07:55:30.871Z</time></trkpt><trkpt lat="45.1624228" lon="8.9673063"><ele>88.0</ele><time>2026-04-03T07:55:31.87Z</time></trkpt><trkpt lat="45.1624097" lon="8.96719"><ele>88.0</ele><time>2026-04-03T07:55:32.871Z</time></trkpt><trkpt lat="45.162397" lon="8.9670755"><ele>88.0</ele><time>2026-04-03T07:55:33.871Z</time></trkpt><trkpt lat="45.1623829" lon="8.9669695"><ele>87.85714285714286</ele><time>2026-04-03T07:55:34.871Z</time></trkpt><trkpt lat="45.1623662" lon="8.9668667"><ele>87.71428571428571</ele><time>2026-04-03T07:55:35.871Z</time></trkpt><trkpt lat="45.1623474" lon="8.9667652"><ele>87.57142857142857</ele><time>2026-04-03T07:55:36.871Z</time></trkpt><trkpt lat="45.1623243" lon="8.9666698"><ele>87.42857142857143</ele><time>2026-04-03T07:55:37.871Z</time></trkpt><trkpt lat="45.1623022" lon="8.9665775"><ele>87.28571428571429</ele><time>2026-04-03T07:55:38.871Z</time></trkpt><trkpt lat="45.1622777" lon="8.9664869"><ele>87.14285714285714</ele><time>2026-04-03T07:55:39.871Z</time></trkpt><trkpt lat="45.162254" lon="8.9664038"><ele>87.0</ele><time>2026-04-03T07:55:40.87Z</time></trkpt><trkpt lat="45.1622076" lon="8.9662763"><ele>86.8</ele><time>2026-04-03T07:55:42.87Z</time></trkpt><trkpt lat="45.1621566" lon="8.9662039"><ele>86.6</ele><time>2026-04-03T07:55:44.87Z</time></trkpt><trkpt lat="45.162081" lon="8.9661735"><ele>86.39999999999999</ele><time>2026-04-03T07:55:46.869Z</time></trkpt><trkpt lat="45.1619421" lon="8.9661527"><ele>86.19999999999999</ele><time>2026-04-03T07:55:48.871Z</time></trkpt><trkpt lat="45.1618547" lon="8.9661442"><ele>86.0</ele><time>2026-04-03T07:55:49.87Z</time></trkpt><trkpt lat="45.1617621" lon="8.96613"><ele>86.0</ele><time>2026-04-03T07:55:50.87Z</time></trkpt><trkpt lat="45.1616737" lon="8.9661243"><ele>86.0</ele><time>2026-04-03T07:55:51.87Z</time></trkpt><trkpt lat="45.1615886" lon="8.9661171"><ele>86.0</ele><time>2026-04-03T07:55:52.87Z</time></trkpt><trkpt lat="45.1615041" lon="8.9660977"><ele>86.0</ele><time>2026-04-03T07:55:53.872Z</time></trkpt><trkpt lat="45.1614178" lon="8.9660712"><ele>86.0</ele><time>2026-04-03T07:55:54.872Z</time></trkpt><trkpt lat="45.1613335" lon="8.9660406"><ele>86.0</ele><time>2026-04-03T07:55:55.871Z</time></trkpt><trkpt lat="45.1612462" lon="8.9659997"><ele>86.4</ele><time>2026-04-03T07:55:56.872Z</time></trkpt><trkpt lat="45.1611569" lon="8.9659582"><ele>86.8</ele><time>2026-04-03T07:55:57.871Z</time></trkpt><trkpt lat="45.1610658" lon="8.9659129"><ele>87.2</ele><time>2026-04-03T07:55:58.872Z</time></trkpt><trkpt lat="45.1609745" lon="8.9658688"><ele>87.60000000000001</ele><time>2026-04-03T07:55:59.872Z</time></trkpt><trkpt lat="45.1608815" lon="8.9658219"><ele>88.0</ele><time>2026-04-03T07:56:00.871Z</time></trkpt><trkpt lat="45.1607862" lon="8.9657782"><ele>87.83333333333333</ele><time>2026-04-03T07:56:01.872Z</time></trkpt><trkpt lat="45.1606929" lon="8.9657359"><ele>87.66666666666666</ele><time>2026-04-03T07:56:02.872Z</time></trkpt><trkpt lat="45.1606003" lon="8.9656877"><ele>87.5</ele><time>2026-04-03T07:56:03.871Z</time></trkpt><trkpt lat="45.1605188" lon="8.965642"><ele>87.33333333333333</ele><time>2026-04-03T07:56:04.871Z</time></trkpt><trkpt lat="45.1604515" lon="8.9655956"><ele>87.16666666666667</ele><time>2026-04-03T07:56:05.871Z</time></trkpt><trkpt lat="45.1603922" lon="8.9655363"><ele>87.0</ele><time>2026-04-03T07:56:06.87Z</time></trkpt><trkpt lat="45.160337" lon="8.9654632"><ele>87.0</ele><time>2026-04-03T07:56:07.87Z</time></trkpt><trkpt lat="45.1602769" lon="8.9653793"><ele>87.0</ele><time>2026-04-03T07:56:08.871Z</time></trkpt><trkpt lat="45.1602137" lon="8.965296"><ele>87.0</ele><time>2026-04-03T07:56:09.87Z</time></trkpt><trkpt lat="45.160146" lon="8.9652138"><ele>87.0</ele><time>2026-04-03T07:56:10.871Z</time></trkpt><trkpt lat="45.1600734" lon="8.9651391"><ele>87.0</ele><time>2026-04-03T07:56:11.869Z</time></trkpt><trkpt lat="45.1600005" lon="8.9650749"><ele>87.0</ele><time>2026-04-03T07:56:12.871Z</time></trkpt><trkpt lat="45.1599238" lon="8.9650097"><ele>86.6</ele><time>2026-04-03T07:56:13.87Z</time></trkpt><trkpt lat="45.1598453" lon="8.9649431"><ele>86.19999999999999</ele><time>2026-04-03T07:56:14.87Z</time></trkpt><trkpt lat="45.159766" lon="8.9648754"><ele>85.8</ele><time>2026-04-03T07:56:15.87Z</time></trkpt><trkpt lat="45.1596852" lon="8.964802"><ele>85.4</ele><time>2026-04-03T07:56:16.871Z</time></trkpt><trkpt lat="45.1596026" lon="8.9647318"><ele>85.0</ele><time>2026-04-03T07:56:17.871Z</time></trkpt><trkpt lat="45.1595259" lon="8.9646532"><ele>85.0</ele><time>2026-04-03T07:56:18.87Z</time></trkpt><trkpt lat="45.1594518" lon="8.9645708"><ele>85.0</ele><time>2026-04-03T07:56:19.869Z</time></trkpt><trkpt lat="45.1593759" lon="8.9644868"><ele>85.0</ele><time>2026-04-03T07:56:20.872Z</time></trkpt><trkpt lat="45.1593041" lon="8.9644122"><ele>85.0</ele><time>2026-04-03T07:56:21.87Z</time></trkpt><trkpt lat="45.159232" lon="8.9643377"><ele>85.0</ele><time>2026-04-03T07:56:22.87Z</time></trkpt><trkpt lat="45.1591577" lon="8.9642667"><ele>85.0</ele><time>2026-04-03T07:56:23.87Z</time></trkpt><trkpt lat="45.1590786" lon="8.9642054"><ele>85.0</ele><time>2026-04-03T07:56:24.87Z</time></trkpt><trkpt lat="45.1589953" lon="8.9641569"><ele>85.0</ele><time>2026-04-03T07:56:25.87Z</time></trkpt><trkpt lat="45.1589119" lon="8.9641141"><ele>85.0</ele><time>2026-04-03T07:56:26.869Z</time></trkpt><trkpt lat="45.1588298" lon="8.9640798"><ele>85.0</ele><time>2026-04-03T07:56:27.87Z</time></trkpt><trkpt lat="45.1587476" lon="8.964049"><ele>85.0</ele><time>2026-04-03T07:56:28.87Z</time></trkpt><trkpt lat="45.1586655" lon="8.9640203"><ele>85.0</ele><time>2026-04-03T07:56:29.87Z</time></trkpt><trkpt lat="45.158584" lon="8.9640018"><ele>85.0</ele><time>2026-04-03T07:56:30.87Z</time></trkpt><trkpt lat="45.1585005" lon="8.9639899"><ele>85.0</ele><time>2026-04-03T07:56:31.87Z</time></trkpt><trkpt lat="45.1584249" lon="8.9639803"><ele>85.0</ele><time>2026-04-03T07:56:32.87Z</time></trkpt><trkpt lat="45.1583566" lon="8.9639732"><ele>85.0</ele><time>2026-04-03T07:56:33.869Z</time></trkpt><trkpt lat="45.1582355" lon="8.9639587"><ele>85.0</ele><time>2026-04-03T07:56:35.871Z</time></trkpt><trkpt lat="45.1581449" lon="8.9639477"><ele>85.5</ele><time>2026-04-03T07:56:37.871Z</time></trkpt><trkpt lat="45.1580798" lon="8.9639464"><ele>86.0</ele><time>2026-04-03T07:56:44.872Z</time></trkpt><trkpt lat="45.1580139" lon="8.9639319"><ele>86.5</ele><time>2026-04-03T07:56:47.872Z</time></trkpt><trkpt lat="45.1579492" lon="8.9638406"><ele>87.0</ele><time>2026-04-03T07:56:52.871Z</time></trkpt><trkpt lat="45.1579228" lon="8.9637498"><ele>87.5</ele><time>2026-04-03T07:56:53.87Z</time></trkpt><trkpt lat="45.1579028" lon="8.9636366"><ele>88.0</ele><time>2026-04-03T07:56:54.87Z</time></trkpt><trkpt lat="45.1578748" lon="8.9635036"><ele>88.0</ele><time>2026-04-03T07:56:55.871Z</time></trkpt><trkpt lat="45.1578488" lon="8.963365"><ele>88.0</ele><time>2026-04-03T07:56:56.871Z</time></trkpt><trkpt lat="45.1578233" lon="8.9632305"><ele>88.0</ele><time>2026-04-03T07:56:57.875Z</time></trkpt><trkpt lat="45.1578024" lon="8.9631012"><ele>88.0</ele><time>2026-04-03T07:56:58.87Z</time></trkpt><trkpt lat="45.1577865" lon="8.9629776"><ele>88.0</ele><time>2026-04-03T07:56:59.87Z</time></trkpt><trkpt lat="45.1577773" lon="8.9628872"><ele>88.0</ele><time>2026-04-03T07:57:00.871Z</time></trkpt><trkpt lat="45.157767" lon="8.9627766"><ele>87.83333333333333</ele><time>2026-04-03T07:57:02.87Z</time></trkpt><trkpt lat="45.1577993" lon="8.9626111"><ele>87.66666666666666</ele><time>2026-04-03T07:57:04.871Z</time></trkpt><trkpt lat="45.157806" lon="8.962505"><ele>87.5</ele><time>2026-04-03T07:57:05.875Z</time></trkpt><trkpt lat="45.1577752" lon="8.9623975"><ele>87.33333333333333</ele><time>2026-04-03T07:57:06.87Z</time></trkpt><trkpt lat="45.1577162" lon="8.9623248"><ele>87.16666666666667</ele><time>2026-04-03T07:57:07.87Z</time></trkpt><trkpt lat="45.1576432" lon="8.9623005"><ele>87.0</ele><time>2026-04-03T07:57:08.871Z</time></trkpt><trkpt lat="45.1575674" lon="8.9623264"><ele>87.0</ele><time>2026-04-03T07:57:09.871Z</time></trkpt><trkpt lat="45.1574942" lon="8.9623958"><ele>87.0</ele><time>2026-04-03T07:57:10.869Z</time></trkpt><trkpt lat="45.1574217" lon="8.9624962"><ele>87.0</ele><time>2026-04-03T07:57:11.87Z</time></trkpt><trkpt lat="45.1573376" lon="8.9625804"><ele>87.0</ele><time>2026-04-03T07:57:12.869Z</time></trkpt><trkpt lat="45.15723" lon="8.9626531"><ele>87.0</ele><time>2026-04-03T07:57:13.87Z</time></trkpt><trkpt lat="45.1571098" lon="8.9627215"><ele>87.66666666666667</ele><time>2026-04-03T07:57:14.868Z</time></trkpt><trkpt lat="45.1569733" lon="8.9627915"><ele>88.33333333333334</ele><time>2026-04-03T07:57:15.87Z</time></trkpt><trkpt lat="45.1568253" lon="8.9628588"><ele>89.0</ele><time>2026-04-03T07:57:16.871Z</time></trkpt><trkpt lat="45.1566752" lon="8.9629254"><ele>89.0</ele><time>2026-04-03T07:57:17.87Z</time></trkpt><trkpt lat="45.1565177" lon="8.9629905"><ele>89.0</ele><time>2026-04-03T07:57:18.87Z</time></trkpt><trkpt lat="45.1563567" lon="8.9630587"><ele>89.0</ele><time>2026-04-03T07:57:19.873Z</time></trkpt><trkpt lat="45.1561849" lon="8.9631306"><ele>89.0</ele><time>2026-04-03T07:57:20.872Z</time></trkpt><trkpt lat="45.1560106" lon="8.9631985"><ele>89.0</ele><time>2026-04-03T07:57:21.87Z</time></trkpt><trkpt lat="45.1558305" lon="8.9632565"><ele>89.0</ele><time>2026-04-03T07:57:22.871Z</time></trkpt><trkpt lat="45.155645" lon="8.9632937"><ele>89.66666666666667</ele><time>2026-04-03T07:57:23.87Z</time></trkpt><trkpt lat="45.1554566" lon="8.963314"><ele>90.33333333333333</ele><time>2026-04-03T07:57:24.872Z</time></trkpt><trkpt lat="45.1552674" lon="8.9633205"><ele>91.0</ele><time>2026-04-03T07:57:25.872Z</time></trkpt><trkpt lat="45.1550772" lon="8.963314"><ele>91.0</ele><time>2026-04-03T07:57:26.87Z</time></trkpt><trkpt lat="45.1548833" lon="8.9632909"><ele>91.0</ele><time>2026-04-03T07:57:27.872Z</time></trkpt><trkpt lat="45.1546952" lon="8.9632478"><ele>91.0</ele><time>2026-04-03T07:57:28.872Z</time></trkpt><trkpt lat="45.154508" lon="8.9631885"><ele>90.33333333333333</ele><time>2026-04-03T07:57:29.871Z</time></trkpt><trkpt lat="45.1543245" lon="8.9631144"><ele>89.66666666666667</ele><time>2026-04-03T07:57:30.871Z</time></trkpt><trkpt lat="45.1541422" lon="8.9630278"><ele>89.0</ele><time>2026-04-03T07:57:31.871Z</time></trkpt><trkpt lat="45.1539657" lon="8.9629278"><ele>88.66666666666667</ele><time>2026-04-03T07:57:32.872Z</time></trkpt><trkpt lat="45.1537961" lon="8.9628091"><ele>88.33333333333333</ele><time>2026-04-03T07:57:33.872Z</time></trkpt><trkpt lat="45.1536325" lon="8.9626679"><ele>88.0</ele><time>2026-04-03T07:57:34.871Z</time></trkpt><trkpt lat="45.1534767" lon="8.9625144"><ele>88.0</ele><time>2026-04-03T07:57:35.87Z</time></trkpt><trkpt lat="45.1533268" lon="8.962348"><ele>88.0</ele><time>2026-04-03T07:57:36.871Z</time></trkpt><trkpt lat="45.1531817" lon="8.9621694"><ele>88.0</ele><time>2026-04-03T07:57:37.871Z</time></trkpt><trkpt lat="45.1530402" lon="8.9619931"><ele>88.0</ele><time>2026-04-03T07:57:38.869Z</time></trkpt><trkpt lat="45.1528993" lon="8.9618122"><ele>88.0</ele><time>2026-04-03T07:57:39.871Z</time></trkpt><trkpt lat="45.1527594" lon="8.9616329"><ele>88.0</ele><time>2026-04-03T07:57:40.869Z</time></trkpt><trkpt lat="45.1526219" lon="8.9614571"><ele>87.66666666666666</ele><time>2026-04-03T07:57:41.871Z</time></trkpt><trkpt lat="45.1524849" lon="8.9612788"><ele>87.33333333333333</ele><time>2026-04-03T07:57:42.871Z</time></trkpt><trkpt lat="45.1523479" lon="8.9611028"><ele>87.0</ele><time>2026-04-03T07:57:43.87Z</time></trkpt><trkpt lat="45.1522125" lon="8.9609323"><ele>86.33333333333333</ele><time>2026-04-03T07:57:44.871Z</time></trkpt><trkpt lat="45.1520764" lon="8.9607631"><ele>85.66666666666666</ele><time>2026-04-03T07:57:45.87Z</time></trkpt><trkpt lat="45.151943" lon="8.9605949"><ele>85.0</ele><time>2026-04-03T07:57:46.87Z</time></trkpt><trkpt lat="45.1518119" lon="8.9604247"><ele>85.0</ele><time>2026-04-03T07:57:47.869Z</time></trkpt><trkpt lat="45.1516805" lon="8.9602579"><ele>85.0</ele><time>2026-04-03T07:57:48.87Z</time></trkpt><trkpt lat="45.1515514" lon="8.9600915"><ele>85.0</ele><time>2026-04-03T07:57:49.871Z</time></trkpt><trkpt lat="45.1514242" lon="8.9599296"><ele>85.0</ele><time>2026-04-03T07:57:50.868Z</time></trkpt><trkpt lat="45.1512963" lon="8.9597709"><ele>85.0</ele><time>2026-04-03T07:57:51.87Z</time></trkpt><trkpt lat="45.1511678" lon="8.9596093"><ele>85.0</ele><time>2026-04-03T07:57:52.871Z</time></trkpt><trkpt lat="45.1510431" lon="8.959452"><ele>85.0</ele><time>2026-04-03T07:57:53.871Z</time></trkpt><trkpt lat="45.1509204" lon="8.9592861"><ele>85.0</ele><time>2026-04-03T07:57:54.871Z</time></trkpt><trkpt lat="45.1508" lon="8.959126"><ele>85.0</ele><time>2026-04-03T07:57:55.871Z</time></trkpt><trkpt lat="45.1506793" lon="8.9589661"><ele>85.0</ele><time>2026-04-03T07:57:56.871Z</time></trkpt><trkpt lat="45.1505609" lon="8.9588137"><ele>85.0</ele><time>2026-04-03T07:57:57.87Z</time></trkpt><trkpt lat="45.1504413" lon="8.9586594"><ele>85.0</ele><time>2026-04-03T07:57:58.87Z</time></trkpt><trkpt lat="45.1503178" lon="8.9585067"><ele>85.0</ele><time>2026-04-03T07:57:59.871Z</time></trkpt><trkpt lat="45.1501926" lon="8.9583516"><ele>85.0</ele><time>2026-04-03T07:58:00.869Z</time></trkpt><trkpt lat="45.15007" lon="8.9581897"><ele>85.0</ele><time>2026-04-03T07:58:01.87Z</time></trkpt><trkpt lat="45.1499472" lon="8.958028"><ele>84.66666666666666</ele><time>2026-04-03T07:58:02.871Z</time></trkpt><trkpt lat="45.1498243" lon="8.9578709"><ele>84.33333333333333</ele><time>2026-04-03T07:58:03.871Z</time></trkpt><trkpt lat="45.1496997" lon="8.9577131"><ele>84.0</ele><time>2026-04-03T07:58:04.87Z</time></trkpt><trkpt lat="45.1495766" lon="8.9575553"><ele>84.0</ele><time>2026-04-03T07:58:05.87Z</time></trkpt><trkpt lat="45.1494529" lon="8.9573951"><ele>84.0</ele><time>2026-04-03T07:58:06.874Z</time></trkpt><trkpt lat="45.1493294" lon="8.9572372"><ele>84.0</ele><time>2026-04-03T07:58:07.874Z</time></trkpt><trkpt lat="45.1492064" lon="8.9570803"><ele>84.0</ele><time>2026-04-03T07:58:08.872Z</time></trkpt><trkpt lat="45.1490831" lon="8.9569183"><ele>84.0</ele><time>2026-04-03T07:58:09.873Z</time></trkpt><trkpt lat="45.1489585" lon="8.9567575"><ele>84.0</ele><time>2026-04-03T07:58:10.87Z</time></trkpt><trkpt lat="45.1488334" lon="8.9565943"><ele>84.33333333333333</ele><time>2026-04-03T07:58:11.872Z</time></trkpt><trkpt lat="45.1487086" lon="8.9564323"><ele>84.66666666666666</ele><time>2026-04-03T07:58:12.873Z</time></trkpt><trkpt lat="45.1485836" lon="8.9562696"><ele>85.0</ele><time>2026-04-03T07:58:13.87Z</time></trkpt><trkpt lat="45.1484601" lon="8.9561073"><ele>85.0</ele><time>2026-04-03T07:58:14.872Z</time></trkpt><trkpt lat="45.148342" lon="8.9559412"><ele>85.0</ele><time>2026-04-03T07:58:15.872Z</time></trkpt><trkpt lat="45.1482245" lon="8.9557657"><ele>85.0</ele><time>2026-04-03T07:58:16.872Z</time></trkpt><trkpt lat="45.1481068" lon="8.9555807"><ele>84.33333333333333</ele><time>2026-04-03T07:58:17.871Z</time></trkpt><trkpt lat="45.1479936" lon="8.9553787"><ele>83.66666666666667</ele><time>2026-04-03T07:58:18.872Z</time></trkpt><trkpt lat="45.1478888" lon="8.9551642"><ele>83.0</ele><time>2026-04-03T07:58:19.87Z</time></trkpt><trkpt lat="45.1477899" lon="8.9549461"><ele>83.0</ele><time>2026-04-03T07:58:20.87Z</time></trkpt><trkpt lat="45.1476967" lon="8.954724"><ele>83.0</ele><time>2026-04-03T07:58:21.871Z</time></trkpt><trkpt lat="45.147612" lon="8.9545002"><ele>83.0</ele><time>2026-04-03T07:58:22.87Z</time></trkpt><trkpt lat="45.1475329" lon="8.9542736"><ele>83.33333333333334</ele><time>2026-04-03T07:58:23.871Z</time></trkpt><trkpt lat="45.1474577" lon="8.9540454"><ele>83.66666666666667</ele><time>2026-04-03T07:58:24.87Z</time></trkpt><trkpt lat="45.1473889" lon="8.9538147"><ele>84.0</ele><time>2026-04-03T07:58:25.869Z</time></trkpt><trkpt lat="45.1473276" lon="8.9535824"><ele>84.0</ele><time>2026-04-03T07:58:26.869Z</time></trkpt><trkpt lat="45.1472738" lon="8.9533417"><ele>84.0</ele><time>2026-04-03T07:58:27.871Z</time></trkpt><trkpt lat="45.1472265" lon="8.9530995"><ele>84.0</ele><time>2026-04-03T07:58:28.87Z</time></trkpt><trkpt lat="45.1471817" lon="8.9528549"><ele>84.0</ele><time>2026-04-03T07:58:29.87Z</time></trkpt><trkpt lat="45.1471367" lon="8.9526065"><ele>84.0</ele><time>2026-04-03T07:58:30.871Z</time></trkpt><trkpt lat="45.1470928" lon="8.9523623"><ele>84.0</ele><time>2026-04-03T07:58:31.869Z</time></trkpt><trkpt lat="45.1470489" lon="8.9521144"><ele>84.33333333333333</ele><time>2026-04-03T07:58:32.87Z</time></trkpt><trkpt lat="45.1470045" lon="8.9518676"><ele>84.66666666666666</ele><time>2026-04-03T07:58:33.868Z</time></trkpt><trkpt lat="45.146964" lon="8.9516292"><ele>85.0</ele><time>2026-04-03T07:58:34.869Z</time></trkpt><trkpt lat="45.1469215" lon="8.9513859"><ele>86.0</ele><time>2026-04-03T07:58:35.87Z</time></trkpt><trkpt lat="45.1468795" lon="8.9511406"><ele>87.0</ele><time>2026-04-03T07:58:36.871Z</time></trkpt><trkpt lat="45.1468353" lon="8.9508915"><ele>88.0</ele><time>2026-04-03T07:58:37.87Z</time></trkpt><trkpt lat="45.1467923" lon="8.9506417"><ele>88.33333333333333</ele><time>2026-04-03T07:58:38.87Z</time></trkpt><trkpt lat="45.1467473" lon="8.9503918"><ele>88.66666666666667</ele><time>2026-04-03T07:58:39.87Z</time></trkpt><trkpt lat="45.1467016" lon="8.9501412"><ele>89.0</ele><time>2026-04-03T07:58:40.869Z</time></trkpt><trkpt lat="45.1466559" lon="8.9498901"><ele>89.0</ele><time>2026-04-03T07:58:41.869Z</time></trkpt><trkpt lat="45.1466101" lon="8.9496404"><ele>89.0</ele><time>2026-04-03T07:58:42.872Z</time></trkpt><trkpt lat="45.1465673" lon="8.9493901"><ele>89.0</ele><time>2026-04-03T07:58:43.871Z</time></trkpt><trkpt lat="45.1465234" lon="8.9491385"><ele>90.0</ele><time>2026-04-03T07:58:44.869Z</time></trkpt><trkpt lat="45.1464828" lon="8.9488872"><ele>91.0</ele><time>2026-04-03T07:58:45.87Z</time></trkpt><trkpt lat="45.1464395" lon="8.9486365"><ele>92.0</ele><time>2026-04-03T07:58:46.87Z</time></trkpt><trkpt lat="45.1463953" lon="8.9483884"><ele>91.33333333333334</ele><time>2026-04-03T07:58:47.871Z</time></trkpt><trkpt lat="45.1463493" lon="8.9481406"><ele>90.66666666666667</ele><time>2026-04-03T07:58:48.869Z</time></trkpt><trkpt lat="45.1463047" lon="8.9478941"><ele>90.0</ele><time>2026-04-03T07:58:49.87Z</time></trkpt><trkpt lat="45.1462605" lon="8.9476461"><ele>89.33333333333333</ele><time>2026-04-03T07:58:50.869Z</time></trkpt><trkpt lat="45.1462164" lon="8.9473971"><ele>88.66666666666666</ele><time>2026-04-03T07:58:51.869Z</time></trkpt><trkpt lat="45.1461713" lon="8.9471478"><ele>88.0</ele><time>2026-04-03T07:58:52.87Z</time></trkpt><trkpt lat="45.146128" lon="8.9469024"><ele>87.0</ele><time>2026-04-03T07:58:53.87Z</time></trkpt><trkpt lat="45.1460843" lon="8.9466623"><ele>86.0</ele><time>2026-04-03T07:58:54.869Z</time></trkpt><trkpt lat="45.1460427" lon="8.946425"><ele>85.0</ele><time>2026-04-03T07:58:55.869Z</time></trkpt><trkpt lat="45.1459998" lon="8.9461985"><ele>85.0</ele><time>2026-04-03T07:58:56.87Z</time></trkpt><trkpt lat="45.1459616" lon="8.9459849"><ele>85.0</ele><time>2026-04-03T07:58:57.869Z</time></trkpt><trkpt lat="45.1459279" lon="8.945787"><ele>85.0</ele><time>2026-04-03T07:58:58.87Z</time></trkpt><trkpt lat="45.1458969" lon="8.9456021"><ele>85.0</ele><time>2026-04-03T07:58:59.869Z</time></trkpt><trkpt lat="45.1458739" lon="8.9454419"><ele>85.0</ele><time>2026-04-03T07:59:00.868Z</time></trkpt><trkpt lat="45.1458633" lon="8.9453054"><ele>85.0</ele><time>2026-04-03T07:59:01.871Z</time></trkpt><trkpt lat="45.1458685" lon="8.9451836"><ele>85.0</ele><time>2026-04-03T07:59:02.871Z</time></trkpt><trkpt lat="45.1458908" lon="8.9450791"><ele>85.0</ele><time>2026-04-03T07:59:03.869Z</time></trkpt><trkpt lat="45.1459248" lon="8.9449846"><ele>85.0</ele><time>2026-04-03T07:59:04.871Z</time></trkpt><trkpt lat="45.1459518" lon="8.9448915"><ele>85.0</ele><time>2026-04-03T07:59:05.87Z</time></trkpt><trkpt lat="45.1459549" lon="8.9447953"><ele>84.83333333333333</ele><time>2026-04-03T07:59:06.871Z</time></trkpt><trkpt lat="45.1459298" lon="8.9446997"><ele>84.66666666666666</ele><time>2026-04-03T07:59:07.87Z</time></trkpt><trkpt lat="45.1458783" lon="8.9446158"><ele>84.5</ele><time>2026-04-03T07:59:08.87Z</time></trkpt><trkpt lat="45.1458105" lon="8.9445364"><ele>84.33333333333333</ele><time>2026-04-03T07:59:09.869Z</time></trkpt><trkpt lat="45.1457435" lon="8.9444435"><ele>84.16666666666667</ele><time>2026-04-03T07:59:10.87Z</time></trkpt><trkpt lat="45.1456856" lon="8.9443252"><ele>84.0</ele><time>2026-04-03T07:59:11.87Z</time></trkpt><trkpt lat="45.1456357" lon="8.9441891"><ele>84.0</ele><time>2026-04-03T07:59:12.87Z</time></trkpt><trkpt lat="45.1455852" lon="8.9440505"><ele>84.0</ele><time>2026-04-03T07:59:13.871Z</time></trkpt><trkpt lat="45.1455328" lon="8.9439144"><ele>84.0</ele><time>2026-04-03T07:59:14.871Z</time></trkpt><trkpt lat="45.145475" lon="8.9437783"><ele>84.0</ele><time>2026-04-03T07:59:15.871Z</time></trkpt><trkpt lat="45.1454141" lon="8.9436452"><ele>84.0</ele><time>2026-04-03T07:59:16.87Z</time></trkpt><trkpt lat="45.1453531" lon="8.943511"><ele>84.0</ele><time>2026-04-03T07:59:17.87Z</time></trkpt><trkpt lat="45.1452892" lon="8.9433848"><ele>84.0</ele><time>2026-04-03T07:59:18.869Z</time></trkpt><trkpt lat="45.1452215" lon="8.9432568"><ele>84.0</ele><time>2026-04-03T07:59:19.869Z</time></trkpt><trkpt lat="45.1451532" lon="8.9431295"><ele>84.0</ele><time>2026-04-03T07:59:20.87Z</time></trkpt><trkpt lat="45.1450836" lon="8.942999"><ele>83.75</ele><time>2026-04-03T07:59:21.869Z</time></trkpt><trkpt lat="45.1450142" lon="8.9428703"><ele>83.5</ele><time>2026-04-03T07:59:22.87Z</time></trkpt><trkpt lat="45.1449425" lon="8.9427394"><ele>83.25</ele><time>2026-04-03T07:59:23.871Z</time></trkpt><trkpt lat="45.1448703" lon="8.9426055"><ele>83.0</ele><time>2026-04-03T07:59:24.87Z</time></trkpt><trkpt lat="45.1447973" lon="8.9424698"><ele>81.5</ele><time>2026-04-03T07:59:25.869Z</time></trkpt><trkpt lat="45.1447232" lon="8.9423329"><ele>80.0</ele><time>2026-04-03T07:59:26.869Z</time></trkpt><trkpt lat="45.1446514" lon="8.9422003"><ele>78.5</ele><time>2026-04-03T07:59:27.87Z</time></trkpt><trkpt lat="45.1445851" lon="8.9420752"><ele>77.0</ele><time>2026-04-03T07:59:28.869Z</time></trkpt><trkpt lat="45.1445206" lon="8.9419564"><ele>77.0</ele><time>2026-04-03T07:59:29.868Z</time></trkpt><trkpt lat="45.1444605" lon="8.9418445"><ele>77.0</ele><time>2026-04-03T07:59:30.87Z</time></trkpt><trkpt lat="45.1444025" lon="8.9417351"><ele>77.0</ele><time>2026-04-03T07:59:31.87Z</time></trkpt><trkpt lat="45.1443436" lon="8.9416246"><ele>77.0</ele><time>2026-04-03T07:59:32.87Z</time></trkpt><trkpt lat="45.1442831" lon="8.9415062"><ele>77.0</ele><time>2026-04-03T07:59:33.868Z</time></trkpt><trkpt lat="45.1442214" lon="8.9413905"><ele>77.0</ele><time>2026-04-03T07:59:34.87Z</time></trkpt><trkpt lat="45.144157" lon="8.9412723"><ele>77.0</ele><time>2026-04-03T07:59:35.869Z</time></trkpt><trkpt lat="45.1440894" lon="8.941147"><ele>77.0</ele><time>2026-04-03T07:59:36.871Z</time></trkpt><trkpt lat="45.1440236" lon="8.9410188"><ele>77.0</ele><time>2026-04-03T07:59:37.87Z</time></trkpt><trkpt lat="45.1439581" lon="8.9408962"><ele>77.0</ele><time>2026-04-03T07:59:38.869Z</time></trkpt><trkpt lat="45.1438937" lon="8.9407754"><ele>77.75</ele><time>2026-04-03T07:59:39.869Z</time></trkpt><trkpt lat="45.1438253" lon="8.9406514"><ele>78.5</ele><time>2026-04-03T07:59:40.868Z</time></trkpt><trkpt lat="45.1437567" lon="8.940524"><ele>79.25</ele><time>2026-04-03T07:59:41.87Z</time></trkpt><trkpt lat="45.1436863" lon="8.9403973"><ele>80.0</ele><time>2026-04-03T07:59:42.87Z</time></trkpt><trkpt lat="45.1436154" lon="8.9402651"><ele>80.0</ele><time>2026-04-03T07:59:43.869Z</time></trkpt><trkpt lat="45.1435484" lon="8.9401349"><ele>80.0</ele><time>2026-04-03T07:59:44.869Z</time></trkpt><trkpt lat="45.1434804" lon="8.9400077"><ele>80.0</ele><time>2026-04-03T07:59:45.869Z</time></trkpt><trkpt lat="45.143409" lon="8.9398738"><ele>80.0</ele><time>2026-04-03T07:59:46.871Z</time></trkpt><trkpt lat="45.1433313" lon="8.9397345"><ele>80.25</ele><time>2026-04-03T07:59:47.871Z</time></trkpt><trkpt lat="45.1432547" lon="8.9395896"><ele>80.5</ele><time>2026-04-03T07:59:48.87Z</time></trkpt><trkpt lat="45.1431778" lon="8.9394426"><ele>80.75</ele><time>2026-04-03T07:59:49.873Z</time></trkpt><trkpt lat="45.1430968" lon="8.9392939"><ele>81.0</ele><time>2026-04-03T07:59:50.871Z</time></trkpt><trkpt lat="45.1430159" lon="8.9391444"><ele>81.25</ele><time>2026-04-03T07:59:51.87Z</time></trkpt><trkpt lat="45.1429392" lon="8.9389989"><ele>81.5</ele><time>2026-04-03T07:59:52.872Z</time></trkpt><trkpt lat="45.1428613" lon="8.9388481"><ele>81.75</ele><time>2026-04-03T07:59:53.87Z</time></trkpt><trkpt lat="45.1427833" lon="8.9386988"><ele>82.0</ele><time>2026-04-03T07:59:54.871Z</time></trkpt><trkpt lat="45.142704" lon="8.9385522"><ele>82.0</ele><time>2026-04-03T07:59:55.868Z</time></trkpt><trkpt lat="45.1426237" lon="8.9384051"><ele>82.0</ele><time>2026-04-03T07:59:56.869Z</time></trkpt><trkpt lat="45.1425441" lon="8.9382582"><ele>82.0</ele><time>2026-04-03T07:59:57.871Z</time></trkpt><trkpt lat="45.142466" lon="8.9381174"><ele>82.0</ele><time>2026-04-03T07:59:58.873Z</time></trkpt><trkpt lat="45.1423894" lon="8.9379812"><ele>81.8</ele><time>2026-04-03T07:59:59.872Z</time></trkpt><trkpt lat="45.1423198" lon="8.9378542"><ele>81.6</ele><time>2026-04-03T08:00:00.872Z</time></trkpt><trkpt lat="45.1422562" lon="8.9377328"><ele>81.39999999999999</ele><time>2026-04-03T08:00:01.871Z</time></trkpt><trkpt lat="45.142214" lon="8.9376411"><ele>81.19999999999999</ele><time>2026-04-03T08:00:02.872Z</time></trkpt><trkpt lat="45.1421992" lon="8.9375164"><ele>81.0</ele><time>2026-04-03T08:00:04.87Z</time></trkpt><trkpt lat="45.142182" lon="8.9374303"><ele>81.0</ele><time>2026-04-03T08:00:07.871Z</time></trkpt><trkpt lat="45.142119" lon="8.9374535"><ele>81.0</ele><time>2026-04-03T08:00:11.869Z</time></trkpt><trkpt lat="45.1421386" lon="8.9375621"><ele>81.0</ele><time>2026-04-03T08:00:13.87Z</time></trkpt><trkpt lat="45.1422217" lon="8.9377115"><ele>81.0</ele><time>2026-04-03T08:00:15.869Z</time></trkpt><trkpt lat="45.1422817" lon="8.9378198"><ele>81.0</ele><time>2026-04-03T08:00:16.868Z</time></trkpt><trkpt lat="45.1423457" lon="8.937944"><ele>81.25</ele><time>2026-04-03T08:00:17.869Z</time></trkpt><trkpt lat="45.1424214" lon="8.9380864"><ele>81.5</ele><time>2026-04-03T08:00:18.869Z</time></trkpt><trkpt lat="45.1425026" lon="8.938237"><ele>81.75</ele><time>2026-04-03T08:00:19.87Z</time></trkpt><trkpt lat="45.1425929" lon="8.9384028"><ele>82.0</ele><time>2026-04-03T08:00:20.869Z</time></trkpt><trkpt lat="45.1426866" lon="8.9385751"><ele>82.0</ele><time>2026-04-03T08:00:21.87Z</time></trkpt><trkpt lat="45.14278" lon="8.9387497"><ele>82.0</ele><time>2026-04-03T08:00:22.869Z</time></trkpt><trkpt lat="45.1428733" lon="8.9389245"><ele>82.0</ele><time>2026-04-03T08:00:23.87Z</time></trkpt><trkpt lat="45.1429649" lon="8.9390956"><ele>81.75</ele><time>2026-04-03T08:00:24.871Z</time></trkpt><trkpt lat="45.143054" lon="8.9392626"><ele>81.5</ele><time>2026-04-03T08:00:25.869Z</time></trkpt><trkpt lat="45.1431426" lon="8.9394309"><ele>81.25</ele><time>2026-04-03T08:00:26.87Z</time></trkpt><trkpt lat="45.1432297" lon="8.9395964"><ele>81.0</ele><time>2026-04-03T08:00:27.869Z</time></trkpt><trkpt lat="45.143315" lon="8.9397558"><ele>81.0</ele><time>2026-04-03T08:00:28.87Z</time></trkpt><trkpt lat="45.1433988" lon="8.9399082"><ele>81.0</ele><time>2026-04-03T08:00:29.87Z</time></trkpt><trkpt lat="45.1434755" lon="8.9400529"><ele>81.0</ele><time>2026-04-03T08:00:30.87Z</time></trkpt><trkpt lat="45.1435479" lon="8.9401931"><ele>81.0</ele><time>2026-04-03T08:00:31.87Z</time></trkpt><trkpt lat="45.1436166" lon="8.9403167"><ele>80.8</ele><time>2026-04-03T08:00:32.869Z</time></trkpt><trkpt lat="45.143679" lon="8.9404366"><ele>80.6</ele><time>2026-04-03T08:00:33.872Z</time></trkpt><trkpt lat="45.1437416" lon="8.9405551"><ele>80.4</ele><time>2026-04-03T08:00:34.87Z</time></trkpt><trkpt lat="45.1438021" lon="8.9406665"><ele>80.2</ele><time>2026-04-03T08:00:35.87Z</time></trkpt><trkpt lat="45.1438554" lon="8.9407598"><ele>80.0</ele><time>2026-04-03T08:00:36.869Z</time></trkpt><trkpt lat="45.1438942" lon="8.9408324"><ele>80.0</ele><time>2026-04-03T08:00:37.869Z</time></trkpt><trkpt lat="45.1438961" lon="8.9409244"><ele>80.0</ele><time>2026-04-03T08:00:39.868Z</time></trkpt><trkpt lat="45.1438172" lon="8.9409554"><ele>80.0</ele><time>2026-04-03T08:00:41.87Z</time></trkpt><trkpt lat="45.1437551" lon="8.9409341"><ele>80.0</ele><time>2026-04-03T08:00:42.874Z</time></trkpt><trkpt lat="45.1436744" lon="8.9409045"><ele>80.0</ele><time>2026-04-03T08:00:43.869Z</time></trkpt><trkpt lat="45.1435769" lon="8.9408682"><ele>80.0</ele><time>2026-04-03T08:00:44.871Z</time></trkpt><trkpt lat="45.1434666" lon="8.9408244"><ele>80.0</ele><time>2026-04-03T08:00:45.871Z</time></trkpt><trkpt lat="45.1433492" lon="8.9407787"><ele>80.0</ele><time>2026-04-03T08:00:46.871Z</time></trkpt><trkpt lat="45.1432269" lon="8.9407316"><ele>80.0</ele><time>2026-04-03T08:00:47.869Z</time></trkpt><trkpt lat="45.143103" lon="8.9406772"><ele>80.0</ele><time>2026-04-03T08:00:48.87Z</time></trkpt><trkpt lat="45.1429786" lon="8.9406217"><ele>80.25</ele><time>2026-04-03T08:00:49.872Z</time></trkpt><trkpt lat="45.1428556" lon="8.9405642"><ele>80.5</ele><time>2026-04-03T08:00:50.871Z</time></trkpt><trkpt lat="45.1427298" lon="8.9405159"><ele>80.75</ele><time>2026-04-03T08:00:51.871Z</time></trkpt><trkpt lat="45.1426025" lon="8.9404749"><ele>81.0</ele><time>2026-04-03T08:00:52.871Z</time></trkpt><trkpt lat="45.1424743" lon="8.9404354"><ele>80.75</ele><time>2026-04-03T08:00:53.871Z</time></trkpt><trkpt lat="45.1423467" lon="8.9403975"><ele>80.5</ele><time>2026-04-03T08:00:54.871Z</time></trkpt><trkpt lat="45.1422184" lon="8.940355"><ele>80.25</ele><time>2026-04-03T08:00:55.87Z</time></trkpt><trkpt lat="45.142087" lon="8.9403164"><ele>80.0</ele><time>2026-04-03T08:00:56.87Z</time></trkpt><trkpt lat="45.1419567" lon="8.9402881"><ele>80.0</ele><time>2026-04-03T08:00:57.87Z</time></trkpt><trkpt lat="45.1418297" lon="8.9402635"><ele>80.0</ele><time>2026-04-03T08:00:58.87Z</time></trkpt><trkpt lat="45.141708" lon="8.9402355"><ele>80.0</ele><time>2026-04-03T08:00:59.87Z</time></trkpt><trkpt lat="45.1415902" lon="8.9402015"><ele>80.0</ele><time>2026-04-03T08:01:00.869Z</time></trkpt><trkpt lat="45.141476" lon="8.9401505"><ele>80.0</ele><time>2026-04-03T08:01:01.87Z</time></trkpt><trkpt lat="45.1413588" lon="8.9400853"><ele>80.0</ele><time>2026-04-03T08:01:02.87Z</time></trkpt><trkpt lat="45.1412412" lon="8.9400065"><ele>80.0</ele><time>2026-04-03T08:01:03.87Z</time></trkpt><trkpt lat="45.1411215" lon="8.9399146"><ele>80.0</ele><time>2026-04-03T08:01:04.869Z</time></trkpt><trkpt lat="45.1410057" lon="8.9398069"><ele>80.0</ele><time>2026-04-03T08:01:05.869Z</time></trkpt><trkpt lat="45.1408976" lon="8.9396934"><ele>80.0</ele><time>2026-04-03T08:01:06.87Z</time></trkpt><trkpt lat="45.1407972" lon="8.9395686"><ele>80.0</ele><time>2026-04-03T08:01:07.87Z</time></trkpt><trkpt lat="45.1407051" lon="8.9394458"><ele>80.0</ele><time>2026-04-03T08:01:08.868Z</time></trkpt><trkpt lat="45.1406131" lon="8.9393294"><ele>80.5</ele><time>2026-04-03T08:01:09.868Z</time></trkpt><trkpt lat="45.1405136" lon="8.9392243"><ele>81.0</ele><time>2026-04-03T08:01:10.869Z</time></trkpt><trkpt lat="45.1404009" lon="8.9391384"><ele>81.5</ele><time>2026-04-03T08:01:11.868Z</time></trkpt><trkpt lat="45.1402678" lon="8.9390699"><ele>82.0</ele><time>2026-04-03T08:01:12.87Z</time></trkpt><trkpt lat="45.140124" lon="8.9390142"><ele>82.0</ele><time>2026-04-03T08:01:13.869Z</time></trkpt><trkpt lat="45.1399755" lon="8.9389723"><ele>82.0</ele><time>2026-04-03T08:01:14.869Z</time></trkpt><trkpt lat="45.1398329" lon="8.9389371"><ele>82.0</ele><time>2026-04-03T08:01:15.869Z</time></trkpt><trkpt lat="45.1396942" lon="8.9389065"><ele>82.0</ele><time>2026-04-03T08:01:16.869Z</time></trkpt><trkpt lat="45.1395635" lon="8.9388758"><ele>82.25</ele><time>2026-04-03T08:01:17.87Z</time></trkpt><trkpt lat="45.1394375" lon="8.9388504"><ele>82.5</ele><time>2026-04-03T08:01:18.868Z</time></trkpt><trkpt lat="45.1393129" lon="8.9388235"><ele>82.75</ele><time>2026-04-03T08:01:19.87Z</time></trkpt><trkpt lat="45.1391935" lon="8.9388021"><ele>83.0</ele><time>2026-04-03T08:01:20.87Z</time></trkpt><trkpt lat="45.1390759" lon="8.9387794"><ele>83.0</ele><time>2026-04-03T08:01:21.871Z</time></trkpt><trkpt lat="45.1389616" lon="8.9387541"><ele>83.0</ele><time>2026-04-03T08:01:22.869Z</time></trkpt><trkpt lat="45.1388496" lon="8.9387283"><ele>83.0</ele><time>2026-04-03T08:01:23.872Z</time></trkpt><trkpt lat="45.1387425" lon="8.9387069"><ele>83.0</ele><time>2026-04-03T08:01:24.871Z</time></trkpt><trkpt lat="45.1386391" lon="8.9386905"><ele>83.0</ele><time>2026-04-03T08:01:25.869Z</time></trkpt><trkpt lat="45.1385316" lon="8.938672"><ele>83.0</ele><time>2026-04-03T08:01:26.87Z</time></trkpt><trkpt lat="45.1384128" lon="8.9386525"><ele>83.0</ele><time>2026-04-03T08:01:27.872Z</time></trkpt><trkpt lat="45.138278" lon="8.9386238"><ele>83.0</ele><time>2026-04-03T08:01:28.871Z</time></trkpt><trkpt lat="45.1381256" lon="8.9385884"><ele>83.0</ele><time>2026-04-03T08:01:29.871Z</time></trkpt><trkpt lat="45.137965" lon="8.9385526"><ele>82.66666666666667</ele><time>2026-04-03T08:01:30.871Z</time></trkpt><trkpt lat="45.1377962" lon="8.9385166"><ele>82.33333333333333</ele><time>2026-04-03T08:01:31.87Z</time></trkpt><trkpt lat="45.1376181" lon="8.938475"><ele>82.0</ele><time>2026-04-03T08:01:32.87Z</time></trkpt><trkpt lat="45.1374372" lon="8.9384342"><ele>82.0</ele><time>2026-04-03T08:01:33.871Z</time></trkpt><trkpt lat="45.1372544" lon="8.9383959"><ele>82.0</ele><time>2026-04-03T08:01:34.872Z</time></trkpt><trkpt lat="45.1370674" lon="8.9383517"><ele>82.0</ele><time>2026-04-03T08:01:35.87Z</time></trkpt><trkpt lat="45.1368817" lon="8.9383083"><ele>82.0</ele><time>2026-04-03T08:01:36.869Z</time></trkpt><trkpt lat="45.1366939" lon="8.9382671"><ele>82.0</ele><time>2026-04-03T08:01:37.869Z</time></trkpt><trkpt lat="45.1365158" lon="8.9382297"><ele>82.0</ele><time>2026-04-03T08:01:38.87Z</time></trkpt><trkpt lat="45.1363388" lon="8.938189"><ele>82.0</ele><time>2026-04-03T08:01:39.87Z</time></trkpt><trkpt lat="45.1361625" lon="8.9381517"><ele>82.0</ele><time>2026-04-03T08:01:40.869Z</time></trkpt><trkpt lat="45.1359891" lon="8.938115"><ele>82.0</ele><time>2026-04-03T08:01:41.87Z</time></trkpt><trkpt lat="45.1358145" lon="8.9380782"><ele>82.0</ele><time>2026-04-03T08:01:42.868Z</time></trkpt><trkpt lat="45.1356421" lon="8.9380357"><ele>82.0</ele><time>2026-04-03T08:01:43.869Z</time></trkpt><trkpt lat="45.1354718" lon="8.9379972"><ele>82.0</ele><time>2026-04-03T08:01:44.869Z</time></trkpt><trkpt lat="45.1352996" lon="8.9379586"><ele>82.0</ele><time>2026-04-03T08:01:45.869Z</time></trkpt><trkpt lat="45.1351252" lon="8.93792"><ele>82.0</ele><time>2026-04-03T08:01:46.868Z</time></trkpt><trkpt lat="45.1349529" lon="8.9378828"><ele>82.0</ele><time>2026-04-03T08:01:47.869Z</time></trkpt><trkpt lat="45.1347848" lon="8.937846"><ele>83.0</ele><time>2026-04-03T08:01:48.869Z</time></trkpt><trkpt lat="45.1346267" lon="8.937812"><ele>84.0</ele><time>2026-04-03T08:01:49.87Z</time></trkpt><trkpt lat="45.134472" lon="8.9377783"><ele>85.0</ele><time>2026-04-03T08:01:50.869Z</time></trkpt><trkpt lat="45.1343255" lon="8.9377497"><ele>85.0</ele><time>2026-04-03T08:01:51.87Z</time></trkpt><trkpt lat="45.1341926" lon="8.9377233"><ele>85.0</ele><time>2026-04-03T08:01:52.869Z</time></trkpt><trkpt lat="45.1340733" lon="8.9376993"><ele>85.0</ele><time>2026-04-03T08:01:53.869Z</time></trkpt><trkpt lat="45.13397" lon="8.9376855"><ele>85.0</ele><time>2026-04-03T08:01:54.869Z</time></trkpt><trkpt lat="45.1338878" lon="8.9376827"><ele>85.0</ele><time>2026-04-03T08:01:55.87Z</time></trkpt><trkpt lat="45.1337882" lon="8.937688"><ele>84.6</ele><time>2026-04-03T08:01:57.87Z</time></trkpt><trkpt lat="45.1337127" lon="8.9376147"><ele>84.2</ele><time>2026-04-03T08:02:00.869Z</time></trkpt><trkpt lat="45.1336731" lon="8.9374977"><ele>83.80000000000001</ele><time>2026-04-03T08:02:02.874Z</time></trkpt><trkpt lat="45.1336312" lon="8.9373718"><ele>83.4</ele><time>2026-04-03T08:02:04.87Z</time></trkpt><trkpt lat="45.133574" lon="8.9373084"><ele>83.0</ele><time>2026-04-03T08:02:06.868Z</time></trkpt><trkpt lat="45.1334654" lon="8.9372688"><ele>83.0</ele><time>2026-04-03T08:02:08.87Z</time></trkpt><trkpt lat="45.1333634" lon="8.9372396"><ele>83.0</ele><time>2026-04-03T08:02:10.871Z</time></trkpt><trkpt lat="45.1332477" lon="8.9371968"><ele>83.0</ele><time>2026-04-03T08:02:12.872Z</time></trkpt><trkpt lat="45.1331258" lon="8.9371438"><ele>83.0</ele><time>2026-04-03T08:02:14.872Z</time></trkpt><trkpt lat="45.1330521" lon="8.9371135"><ele>83.0</ele><time>2026-04-03T08:02:15.871Z</time></trkpt><trkpt lat="45.1329792" lon="8.9370828"><ele>83.0</ele><time>2026-04-03T08:02:16.87Z</time></trkpt><trkpt lat="45.132908" lon="8.9370491"><ele>83.0</ele><time>2026-04-03T08:02:17.871Z</time></trkpt><trkpt lat="45.132838" lon="8.9370157"><ele>83.0</ele><time>2026-04-03T08:02:18.872Z</time></trkpt><trkpt lat="45.1327732" lon="8.9369856"><ele>83.0</ele><time>2026-04-03T08:02:19.87Z</time></trkpt><trkpt lat="45.1327119" lon="8.9369575"><ele>83.0</ele><time>2026-04-03T08:02:20.872Z</time></trkpt><trkpt lat="45.1326488" lon="8.9369367"><ele>83.0</ele><time>2026-04-03T08:02:21.872Z</time></trkpt><trkpt lat="45.1325856" lon="8.9369121"><ele>83.0</ele><time>2026-04-03T08:02:22.871Z</time></trkpt><trkpt lat="45.1325178" lon="8.9368882"><ele>83.0</ele><time>2026-04-03T08:02:23.871Z</time></trkpt><trkpt lat="45.1324499" lon="8.9368621"><ele>83.0</ele><time>2026-04-03T08:02:24.871Z</time></trkpt><trkpt lat="45.13238" lon="8.9368344"><ele>83.0</ele><time>2026-04-03T08:02:25.869Z</time></trkpt><trkpt lat="45.1323069" lon="8.936809"><ele>83.0</ele><time>2026-04-03T08:02:26.87Z</time></trkpt><trkpt lat="45.1322328" lon="8.9367862"><ele>83.0</ele><time>2026-04-03T08:02:27.87Z</time></trkpt><trkpt lat="45.1321595" lon="8.9367642"><ele>83.0</ele><time>2026-04-03T08:02:28.87Z</time></trkpt><trkpt lat="45.132087" lon="8.9367459"><ele>83.0</ele><time>2026-04-03T08:02:29.871Z</time></trkpt><trkpt lat="45.1320138" lon="8.9367281"><ele>83.28571428571428</ele><time>2026-04-03T08:02:30.869Z</time></trkpt><trkpt lat="45.1319427" lon="8.93671"><ele>83.57142857142858</ele><time>2026-04-03T08:02:31.868Z</time></trkpt><trkpt lat="45.1318733" lon="8.9366913"><ele>83.85714285714286</ele><time>2026-04-03T08:02:32.869Z</time></trkpt><trkpt lat="45.131804" lon="8.9366748"><ele>84.14285714285714</ele><time>2026-04-03T08:02:33.87Z</time></trkpt><trkpt lat="45.1317335" lon="8.9366632"><ele>84.42857142857142</ele><time>2026-04-03T08:02:34.869Z</time></trkpt><trkpt lat="45.1316652" lon="8.9366521"><ele>84.71428571428572</ele><time>2026-04-03T08:02:35.87Z</time></trkpt><trkpt lat="45.1315978" lon="8.9366335"><ele>85.0</ele><time>2026-04-03T08:02:36.87Z</time></trkpt><trkpt lat="45.1315294" lon="8.9366099"><ele>85.16666666666666</ele><time>2026-04-03T08:02:37.87Z</time></trkpt><trkpt lat="45.1314619" lon="8.9365939"><ele>85.33333333333333</ele><time>2026-04-03T08:02:38.869Z</time></trkpt><trkpt lat="45.1313926" lon="8.9365833"><ele>85.5</ele><time>2026-04-03T08:02:39.869Z</time></trkpt><trkpt lat="45.1313281" lon="8.9365741"><ele>85.66666666666667</ele><time>2026-04-03T08:02:40.869Z</time></trkpt><trkpt lat="45.131259" lon="8.9365626"><ele>85.83333333333334</ele><time>2026-04-03T08:02:41.868Z</time></trkpt><trkpt lat="45.1311925" lon="8.9365443"><ele>86.0</ele><time>2026-04-03T08:02:42.869Z</time></trkpt><trkpt lat="45.1310708" lon="8.9365294"><ele>86.0</ele><time>2026-04-03T08:02:44.869Z</time></trkpt><trkpt lat="45.13095" lon="8.9365106"><ele>86.0</ele><time>2026-04-03T08:02:46.87Z</time></trkpt><trkpt lat="45.1308855" lon="8.9364901"><ele>86.0</ele><time>2026-04-03T08:02:47.869Z</time></trkpt><trkpt lat="45.130823" lon="8.9364619"><ele>86.0</ele><time>2026-04-03T08:02:48.869Z</time></trkpt><trkpt lat="45.1307032" lon="8.9364015"><ele>86.0</ele><time>2026-04-03T08:02:50.871Z</time></trkpt><trkpt lat="45.1306382" lon="8.9363757"><ele>86.0</ele><time>2026-04-03T08:02:51.87Z</time></trkpt><trkpt lat="45.1305727" lon="8.9363473"><ele>85.19999999999999</ele><time>2026-04-03T08:02:52.871Z</time></trkpt><trkpt lat="45.1304579" lon="8.9363106"><ele>84.39999999999999</ele><time>2026-04-03T08:02:54.87Z</time></trkpt><trkpt lat="45.1303619" lon="8.9362802"><ele>83.6</ele><time>2026-04-03T08:02:56.869Z</time></trkpt><trkpt lat="45.1302751" lon="8.9362348"><ele>82.8</ele><time>2026-04-03T08:02:58.869Z</time></trkpt><trkpt lat="45.1301766" lon="8.9361841"><ele>82.0</ele><time>2026-04-03T08:03:00.872Z</time></trkpt><trkpt lat="45.130055" lon="8.9361332"><ele>82.0</ele><time>2026-04-03T08:03:02.871Z</time></trkpt><trkpt lat="45.1299893" lon="8.9361044"><ele>82.0</ele><time>2026-04-03T08:03:03.872Z</time></trkpt><trkpt lat="45.129885" lon="8.9360589"><ele>82.0</ele><time>2026-04-03T08:03:05.871Z</time></trkpt><trkpt lat="45.129819" lon="8.9360294"><ele>82.0</ele><time>2026-04-03T08:03:07.871Z</time></trkpt><trkpt lat="45.129745" lon="8.9359935"><ele>82.0</ele><time>2026-04-03T08:03:10.872Z</time></trkpt><trkpt lat="45.1296744" lon="8.935963"><ele>82.0</ele><time>2026-04-03T08:03:12.872Z</time></trkpt><trkpt lat="45.1296076" lon="8.9359296"><ele>82.16666666666666</ele><time>2026-04-03T08:03:14.87Z</time></trkpt><trkpt lat="45.129532" lon="8.9358946"><ele>82.33333333333333</ele><time>2026-04-03T08:03:17.87Z</time></trkpt><trkpt lat="45.1294696" lon="8.9358585"><ele>82.5</ele><time>2026-04-03T08:03:19.87Z</time></trkpt><trkpt lat="45.1293944" lon="8.9358173"><ele>82.66666666666667</ele><time>2026-04-03T08:03:21.872Z</time></trkpt><trkpt lat="45.129299" lon="8.9357743"><ele>82.83333333333334</ele><time>2026-04-03T08:03:23.87Z</time></trkpt><trkpt lat="45.1291977" lon="8.9357231"><ele>83.0</ele><time>2026-04-03T08:03:25.869Z</time></trkpt><trkpt lat="45.1290879" lon="8.9356527"><ele>82.83333333333334</ele><time>2026-04-03T08:03:27.869Z</time></trkpt><trkpt lat="45.1289949" lon="8.935584"><ele>82.66666666666667</ele><time>2026-04-03T08:03:29.869Z</time></trkpt><trkpt lat="45.1289143" lon="8.935524"><ele>82.5</ele><time>2026-04-03T08:03:32.869Z</time></trkpt><trkpt lat="45.1288495" lon="8.9354673"><ele>82.33333333333333</ele><time>2026-04-03T08:03:34.87Z</time></trkpt><trkpt lat="45.1287764" lon="8.9354006"><ele>82.16666666666666</ele><time>2026-04-03T08:03:36.869Z</time></trkpt><trkpt lat="45.1287106" lon="8.9353373"><ele>82.0</ele><time>2026-04-03T08:03:38.869Z</time></trkpt><trkpt lat="45.1286475" lon="8.9352801"><ele>82.0</ele><time>2026-04-03T08:03:40.87Z</time></trkpt><trkpt lat="45.1285857" lon="8.9352201"><ele>82.0</ele><time>2026-04-03T08:03:42.872Z</time></trkpt><trkpt lat="45.1285061" lon="8.9351578"><ele>82.0</ele><time>2026-04-03T08:03:44.874Z</time></trkpt><trkpt lat="45.128413" lon="8.9350706"><ele>82.0</ele><time>2026-04-03T08:03:46.872Z</time></trkpt><trkpt lat="45.1283544" lon="8.9350255"><ele>82.0</ele><time>2026-04-03T08:03:47.87Z</time></trkpt><trkpt lat="45.1282817" lon="8.9349689"><ele>82.0</ele><time>2026-04-03T08:03:48.872Z</time></trkpt><trkpt lat="45.1282022" lon="8.9349052"><ele>82.39999999999999</ele><time>2026-04-03T08:03:49.87Z</time></trkpt><trkpt lat="45.128118" lon="8.9348336"><ele>82.8</ele><time>2026-04-03T08:03:50.872Z</time></trkpt><trkpt lat="45.1280289" lon="8.9347527"><ele>83.2</ele><time>2026-04-03T08:03:51.868Z</time></trkpt><trkpt lat="45.1279389" lon="8.9346684"><ele>83.6</ele><time>2026-04-03T08:03:52.869Z</time></trkpt><trkpt lat="45.1278551" lon="8.9345928"><ele>84.0</ele><time>2026-04-03T08:03:53.871Z</time></trkpt><trkpt lat="45.1277801" lon="8.9345208"><ele>84.0</ele><time>2026-04-03T08:03:54.873Z</time></trkpt><trkpt lat="45.1277001" lon="8.934452"><ele>84.0</ele><time>2026-04-03T08:03:55.871Z</time></trkpt><trkpt lat="45.1276163" lon="8.9343832"><ele>84.0</ele><time>2026-04-03T08:03:56.87Z</time></trkpt><trkpt lat="45.127528" lon="8.9343056"><ele>84.0</ele><time>2026-04-03T08:03:57.871Z</time></trkpt><trkpt lat="45.1274408" lon="8.9342286"><ele>84.0</ele><time>2026-04-03T08:03:58.871Z</time></trkpt><trkpt lat="45.127353" lon="8.9341522"><ele>84.4</ele><time>2026-04-03T08:03:59.87Z</time></trkpt><trkpt lat="45.1272664" lon="8.9340799"><ele>84.80000000000001</ele><time>2026-04-03T08:04:00.871Z</time></trkpt><trkpt lat="45.127181" lon="8.9340106"><ele>85.19999999999999</ele><time>2026-04-03T08:04:01.871Z</time></trkpt><trkpt lat="45.1270984" lon="8.9339352"><ele>85.6</ele><time>2026-04-03T08:04:02.87Z</time></trkpt><trkpt lat="45.1270184" lon="8.9338482"><ele>86.0</ele><time>2026-04-03T08:04:03.871Z</time></trkpt><trkpt lat="45.126941" lon="8.9337535"><ele>86.0</ele><time>2026-04-03T08:04:04.869Z</time></trkpt><trkpt lat="45.1268702" lon="8.9336609"><ele>86.0</ele><time>2026-04-03T08:04:05.871Z</time></trkpt><trkpt lat="45.1268024" lon="8.9335549"><ele>86.0</ele><time>2026-04-03T08:04:06.869Z</time></trkpt><trkpt lat="45.1267383" lon="8.9334503"><ele>86.0</ele><time>2026-04-03T08:04:07.87Z</time></trkpt><trkpt lat="45.1266831" lon="8.9333596"><ele>86.0</ele><time>2026-04-03T08:04:08.869Z</time></trkpt><trkpt lat="45.1266302" lon="8.9332696"><ele>85.83333333333334</ele><time>2026-04-03T08:04:09.868Z</time></trkpt><trkpt lat="45.1265692" lon="8.9331777"><ele>85.66666666666667</ele><time>2026-04-03T08:04:10.87Z</time></trkpt><trkpt lat="45.1265061" lon="8.9330857"><ele>85.5</ele><time>2026-04-03T08:04:11.869Z</time></trkpt><trkpt lat="45.1264434" lon="8.9329972"><ele>85.33333333333333</ele><time>2026-04-03T08:04:12.869Z</time></trkpt><trkpt lat="45.1263871" lon="8.9329113"><ele>85.16666666666666</ele><time>2026-04-03T08:04:13.87Z</time></trkpt><trkpt lat="45.1263356" lon="8.9328364"><ele>85.0</ele><time>2026-04-03T08:04:14.87Z</time></trkpt><trkpt lat="45.126285" lon="8.9327652"><ele>85.0</ele><time>2026-04-03T08:04:15.87Z</time></trkpt><trkpt lat="45.1262267" lon="8.9326881"><ele>85.0</ele><time>2026-04-03T08:04:16.869Z</time></trkpt><trkpt lat="45.1261645" lon="8.9326079"><ele>85.0</ele><time>2026-04-03T08:04:17.869Z</time></trkpt><trkpt lat="45.126098" lon="8.9325312"><ele>85.0</ele><time>2026-04-03T08:04:18.868Z</time></trkpt><trkpt lat="45.1260272" lon="8.9324496"><ele>85.0</ele><time>2026-04-03T08:04:19.869Z</time></trkpt><trkpt lat="45.1259539" lon="8.9323702"><ele>85.0</ele><time>2026-04-03T08:04:20.869Z</time></trkpt><trkpt lat="45.1258854" lon="8.9323037"><ele>85.66666666666666</ele><time>2026-04-03T08:04:21.869Z</time></trkpt><trkpt lat="45.1258175" lon="8.9322422"><ele>86.33333333333333</ele><time>2026-04-03T08:04:22.87Z</time></trkpt><trkpt lat="45.1257503" lon="8.9321921"><ele>87.0</ele><time>2026-04-03T08:04:23.869Z</time></trkpt><trkpt lat="45.125684" lon="8.932146"><ele>87.66666666666667</ele><time>2026-04-03T08:04:24.869Z</time></trkpt><trkpt lat="45.1256213" lon="8.9320977"><ele>88.33333333333334</ele><time>2026-04-03T08:04:25.869Z</time></trkpt><trkpt lat="45.1255583" lon="8.9320387"><ele>89.0</ele><time>2026-04-03T08:04:26.868Z</time></trkpt><trkpt lat="45.1254977" lon="8.9319737"><ele>89.0</ele><time>2026-04-03T08:04:27.868Z</time></trkpt><trkpt lat="45.1254396" lon="8.9319007"><ele>89.0</ele><time>2026-04-03T08:04:28.868Z</time></trkpt><trkpt lat="45.1253863" lon="8.9318286"><ele>89.0</ele><time>2026-04-03T08:04:29.869Z</time></trkpt><trkpt lat="45.1253341" lon="8.9317535"><ele>89.0</ele><time>2026-04-03T08:04:30.869Z</time></trkpt><trkpt lat="45.1252763" lon="8.9316732"><ele>89.0</ele><time>2026-04-03T08:04:31.868Z</time></trkpt><trkpt lat="45.1252189" lon="8.9315946"><ele>89.0</ele><time>2026-04-03T08:04:32.867Z</time></trkpt><trkpt lat="45.1251577" lon="8.9315122"><ele>88.80000000000001</ele><time>2026-04-03T08:04:33.868Z</time></trkpt><trkpt lat="45.1250948" lon="8.9314216"><ele>88.60000000000001</ele><time>2026-04-03T08:04:34.869Z</time></trkpt><trkpt lat="45.1250268" lon="8.9313335"><ele>88.4</ele><time>2026-04-03T08:04:35.869Z</time></trkpt><trkpt lat="45.1249565" lon="8.9312425"><ele>88.2</ele><time>2026-04-03T08:04:36.869Z</time></trkpt><trkpt lat="45.1248827" lon="8.9311503"><ele>88.0</ele><time>2026-04-03T08:04:37.87Z</time></trkpt><trkpt lat="45.1248062" lon="8.9310589"><ele>88.0</ele><time>2026-04-03T08:04:38.869Z</time></trkpt><trkpt lat="45.1247285" lon="8.9309673"><ele>88.0</ele><time>2026-04-03T08:04:39.868Z</time></trkpt><trkpt lat="45.1246566" lon="8.9308761"><ele>88.0</ele><time>2026-04-03T08:04:40.869Z</time></trkpt><trkpt lat="45.1245855" lon="8.9307864"><ele>88.0</ele><time>2026-04-03T08:04:41.867Z</time></trkpt><trkpt lat="45.1245128" lon="8.9307012"><ele>88.0</ele><time>2026-04-03T08:04:42.872Z</time></trkpt><trkpt lat="45.124449" lon="8.9306345"><ele>87.75</ele><time>2026-04-03T08:04:43.871Z</time></trkpt><trkpt lat="45.1243667" lon="8.9305551"><ele>87.5</ele><time>2026-04-03T08:04:45.868Z</time></trkpt><trkpt lat="45.124275" lon="8.9304739"><ele>87.25</ele><time>2026-04-03T08:05:01.868Z</time></trkpt><trkpt lat="45.1241862" lon="8.9303424"><ele>87.0</ele><time>2026-04-03T08:05:03.869Z</time></trkpt><trkpt lat="45.1240959" lon="8.9302169"><ele>87.0</ele><time>2026-04-03T08:05:05.868Z</time></trkpt><trkpt lat="45.1240455" lon="8.9301463"><ele>87.0</ele><time>2026-04-03T08:05:06.868Z</time></trkpt><trkpt lat="45.1239902" lon="8.9300712"><ele>87.0</ele><time>2026-04-03T08:05:07.867Z</time></trkpt><trkpt lat="45.1239309" lon="8.9299949"><ele>87.0</ele><time>2026-04-03T08:05:08.868Z</time></trkpt><trkpt lat="45.1238709" lon="8.9299218"><ele>87.0</ele><time>2026-04-03T08:05:09.868Z</time></trkpt><trkpt lat="45.1238134" lon="8.9298639"><ele>87.0</ele><time>2026-04-03T08:05:10.868Z</time></trkpt><trkpt lat="45.1237547" lon="8.9298067"><ele>87.0</ele><time>2026-04-03T08:05:11.868Z</time></trkpt><trkpt lat="45.1236966" lon="8.9297461"><ele>87.0</ele><time>2026-04-03T08:05:12.868Z</time></trkpt><trkpt lat="45.1236439" lon="8.929683"><ele>87.0</ele><time>2026-04-03T08:05:13.868Z</time></trkpt><trkpt lat="45.1235873" lon="8.9296167"><ele>87.0</ele><time>2026-04-03T08:05:14.87Z</time></trkpt><trkpt lat="45.123532" lon="8.9295556"><ele>87.0</ele><time>2026-04-03T08:05:15.868Z</time></trkpt><trkpt lat="45.1234764" lon="8.9294917"><ele>87.0</ele><time>2026-04-03T08:05:16.868Z</time></trkpt><trkpt lat="45.1234213" lon="8.9294291"><ele>87.0</ele><time>2026-04-03T08:05:17.868Z</time></trkpt><trkpt lat="45.1233673" lon="8.9293625"><ele>87.0</ele><time>2026-04-03T08:05:18.867Z</time></trkpt><trkpt lat="45.1233088" lon="8.9292926"><ele>87.0</ele><time>2026-04-03T08:05:19.869Z</time></trkpt><trkpt lat="45.1232486" lon="8.9292273"><ele>87.0</ele><time>2026-04-03T08:05:20.869Z</time></trkpt><trkpt lat="45.123188" lon="8.9291637"><ele>87.0</ele><time>2026-04-03T08:05:21.869Z</time></trkpt><trkpt lat="45.1231272" lon="8.9290996"><ele>87.0</ele><time>2026-04-03T08:05:22.869Z</time></trkpt><trkpt lat="45.1230756" lon="8.9290318"><ele>87.0</ele><time>2026-04-03T08:05:23.868Z</time></trkpt><trkpt lat="45.1230257" lon="8.9289594"><ele>87.0</ele><time>2026-04-03T08:05:24.869Z</time></trkpt><trkpt lat="45.1229435" lon="8.928844"><ele>86.39999999999999</ele><time>2026-04-03T08:05:26.873Z</time></trkpt><trkpt lat="45.1228465" lon="8.9287874"><ele>85.8</ele><time>2026-04-03T08:05:28.87Z</time></trkpt><trkpt lat="45.1227503" lon="8.9287961"><ele>85.2</ele><time>2026-04-03T08:05:30.869Z</time></trkpt><trkpt lat="45.122652" lon="8.9287785"><ele>84.6</ele><time>2026-04-03T08:05:32.873Z</time></trkpt><trkpt lat="45.1225516" lon="8.9286835"><ele>84.0</ele><time>2026-04-03T08:05:34.871Z</time></trkpt><trkpt lat="45.1225" lon="8.9286098"><ele>84.0</ele><time>2026-04-03T08:05:35.871Z</time></trkpt><trkpt lat="45.1224408" lon="8.9285371"><ele>84.0</ele><time>2026-04-03T08:05:36.871Z</time></trkpt><trkpt lat="45.1223812" lon="8.928457"><ele>84.0</ele><time>2026-04-03T08:05:37.87Z</time></trkpt><trkpt lat="45.1223267" lon="8.9283728"><ele>84.0</ele><time>2026-04-03T08:05:38.871Z</time></trkpt><trkpt lat="45.1222707" lon="8.9282948"><ele>84.0</ele><time>2026-04-03T08:05:39.869Z</time></trkpt><trkpt lat="45.1222087" lon="8.9282234"><ele>84.0</ele><time>2026-04-03T08:05:40.869Z</time></trkpt><trkpt lat="45.1221388" lon="8.9281626"><ele>84.0</ele><time>2026-04-03T08:05:41.868Z</time></trkpt><trkpt lat="45.1220681" lon="8.9281111"><ele>84.0</ele><time>2026-04-03T08:05:42.869Z</time></trkpt><trkpt lat="45.1219923" lon="8.928069"><ele>84.0</ele><time>2026-04-03T08:05:43.869Z</time></trkpt><trkpt lat="45.1219187" lon="8.9280441"><ele>84.0</ele><time>2026-04-03T08:05:44.868Z</time></trkpt><trkpt lat="45.1218405" lon="8.9280136"><ele>84.0</ele><time>2026-04-03T08:05:45.868Z</time></trkpt><trkpt lat="45.1217561" lon="8.9279818"><ele>84.0</ele><time>2026-04-03T08:05:46.874Z</time></trkpt><trkpt lat="45.121667" lon="8.9279524"><ele>84.0</ele><time>2026-04-03T08:05:47.868Z</time></trkpt><trkpt lat="45.1215645" lon="8.9279196"><ele>84.0</ele><time>2026-04-03T08:05:48.869Z</time></trkpt><trkpt lat="45.1214408" lon="8.9278795"><ele>84.0</ele><time>2026-04-03T08:05:49.869Z</time></trkpt><trkpt lat="45.1213075" lon="8.9278386"><ele>84.0</ele><time>2026-04-03T08:05:50.868Z</time></trkpt><trkpt lat="45.1211793" lon="8.9277972"><ele>84.0</ele><time>2026-04-03T08:05:51.868Z</time></trkpt><trkpt lat="45.1210561" lon="8.9277527"><ele>84.0</ele><time>2026-04-03T08:05:52.868Z</time></trkpt><trkpt lat="45.120942" lon="8.9277108"><ele>84.0</ele><time>2026-04-03T08:05:53.869Z</time></trkpt><trkpt lat="45.1208331" lon="8.927674"><ele>84.0</ele><time>2026-04-03T08:05:54.869Z</time></trkpt><trkpt lat="45.1207312" lon="8.9276401"><ele>83.80000000000001</ele><time>2026-04-03T08:05:55.869Z</time></trkpt><trkpt lat="45.1206336" lon="8.9276095"><ele>83.60000000000001</ele><time>2026-04-03T08:05:56.868Z</time></trkpt><trkpt lat="45.1205433" lon="8.9275761"><ele>83.4</ele><time>2026-04-03T08:05:57.869Z</time></trkpt><trkpt lat="45.1204598" lon="8.9275452"><ele>83.2</ele><time>2026-04-03T08:05:58.868Z</time></trkpt><trkpt lat="45.1203823" lon="8.9275202"><ele>83.0</ele><time>2026-04-03T08:05:59.867Z</time></trkpt><trkpt lat="45.1202692" lon="8.9274988"><ele>83.0</ele><time>2026-04-03T08:06:01.869Z</time></trkpt><trkpt lat="45.1201676" lon="8.927496"><ele>83.0</ele><time>2026-04-03T08:06:03.868Z</time></trkpt><trkpt lat="45.1200451" lon="8.927509"><ele>83.0</ele><time>2026-04-03T08:06:05.87Z</time></trkpt><trkpt lat="45.1199766" lon="8.9275192"><ele>83.0</ele><time>2026-04-03T08:06:06.868Z</time></trkpt><trkpt lat="45.1199132" lon="8.9275264"><ele>83.0</ele><time>2026-04-03T08:06:07.869Z</time></trkpt><trkpt lat="45.1198488" lon="8.9275298"><ele>83.0</ele><time>2026-04-03T08:06:08.868Z</time></trkpt><trkpt lat="45.1197807" lon="8.927517"><ele>83.33333333333334</ele><time>2026-04-03T08:06:09.868Z</time></trkpt><trkpt lat="45.1197144" lon="8.9274889"><ele>83.66666666666667</ele><time>2026-04-03T08:06:10.867Z</time></trkpt><trkpt lat="45.1196448" lon="8.9274512"><ele>84.0</ele><time>2026-04-03T08:06:11.87Z</time></trkpt><trkpt lat="45.1195736" lon="8.9274076"><ele>84.33333333333333</ele><time>2026-04-03T08:06:12.87Z</time></trkpt><trkpt lat="45.1194995" lon="8.9273686"><ele>84.66666666666666</ele><time>2026-04-03T08:06:13.868Z</time></trkpt><trkpt lat="45.1194215" lon="8.9273268"><ele>85.0</ele><time>2026-04-03T08:06:14.868Z</time></trkpt><trkpt lat="45.1193421" lon="8.9272835"><ele>85.0</ele><time>2026-04-03T08:06:15.867Z</time></trkpt><trkpt lat="45.1192632" lon="8.9272424"><ele>85.0</ele><time>2026-04-03T08:06:16.867Z</time></trkpt><trkpt lat="45.1191831" lon="8.9272007"><ele>85.0</ele><time>2026-04-03T08:06:17.87Z</time></trkpt><trkpt lat="45.1191005" lon="8.9271554"><ele>85.0</ele><time>2026-04-03T08:06:18.87Z</time></trkpt><trkpt lat="45.1190156" lon="8.9271099"><ele>85.0</ele><time>2026-04-03T08:06:19.87Z</time></trkpt><trkpt lat="45.1189272" lon="8.927066"><ele>85.0</ele><time>2026-04-03T08:06:20.871Z</time></trkpt><trkpt lat="45.1188372" lon="8.9270211"><ele>85.0</ele><time>2026-04-03T08:06:21.868Z</time></trkpt><trkpt lat="45.1187489" lon="8.9269695"><ele>85.0</ele><time>2026-04-03T08:06:22.871Z</time></trkpt><trkpt lat="45.1186643" lon="8.9269213"><ele>85.0</ele><time>2026-04-03T08:06:23.869Z</time></trkpt><trkpt lat="45.1185813" lon="8.9268731"><ele>85.0</ele><time>2026-04-03T08:06:24.87Z</time></trkpt><trkpt lat="45.1184974" lon="8.9268207"><ele>85.0</ele><time>2026-04-03T08:06:25.868Z</time></trkpt><trkpt lat="45.1184176" lon="8.9267644"><ele>85.0</ele><time>2026-04-03T08:06:26.871Z</time></trkpt><trkpt lat="45.118339" lon="8.9266998"><ele>85.0</ele><time>2026-04-03T08:06:27.87Z</time></trkpt><trkpt lat="45.1182585" lon="8.9266221"><ele>85.0</ele><time>2026-04-03T08:06:28.869Z</time></trkpt><trkpt lat="45.1181774" lon="8.9265333"><ele>85.0</ele><time>2026-04-03T08:06:29.871Z</time></trkpt><trkpt lat="45.1180932" lon="8.9264312"><ele>85.0</ele><time>2026-04-03T08:06:30.869Z</time></trkpt><trkpt lat="45.1180158" lon="8.926326"><ele>84.75</ele><time>2026-04-03T08:06:31.868Z</time></trkpt><trkpt lat="45.1179371" lon="8.9262109"><ele>84.5</ele><time>2026-04-03T08:06:32.869Z</time></trkpt><trkpt lat="45.1178606" lon="8.9260879"><ele>84.25</ele><time>2026-04-03T08:06:33.87Z</time></trkpt><trkpt lat="45.1177784" lon="8.9259518"><ele>84.0</ele><time>2026-04-03T08:06:34.868Z</time></trkpt><trkpt lat="45.1176828" lon="8.9257916"><ele>84.0</ele><time>2026-04-03T08:06:35.87Z</time></trkpt><trkpt lat="45.1175778" lon="8.925609"><ele>84.0</ele><time>2026-04-03T08:06:36.869Z</time></trkpt><trkpt lat="45.1174696" lon="8.9254223"><ele>84.0</ele><time>2026-04-03T08:06:37.869Z</time></trkpt><trkpt lat="45.1173614" lon="8.9252348"><ele>83.66666666666667</ele><time>2026-04-03T08:06:38.867Z</time></trkpt><trkpt lat="45.1172563" lon="8.9250533"><ele>83.33333333333334</ele><time>2026-04-03T08:06:39.869Z</time></trkpt><trkpt lat="45.1171508" lon="8.9248623"><ele>83.0</ele><time>2026-04-03T08:06:40.869Z</time></trkpt><trkpt lat="45.1170475" lon="8.9246777"><ele>83.0</ele><time>2026-04-03T08:06:41.868Z</time></trkpt><trkpt lat="45.1169459" lon="8.9245035"><ele>83.0</ele><time>2026-04-03T08:06:42.869Z</time></trkpt><trkpt lat="45.1168432" lon="8.9243434"><ele>83.0</ele><time>2026-04-03T08:06:43.868Z</time></trkpt><trkpt lat="45.1167373" lon="8.9241947"><ele>83.0</ele><time>2026-04-03T08:06:44.869Z</time></trkpt><trkpt lat="45.1166297" lon="8.9240498"><ele>83.0</ele><time>2026-04-03T08:06:45.869Z</time></trkpt><trkpt lat="45.1165182" lon="8.9239108"><ele>83.0</ele><time>2026-04-03T08:06:46.868Z</time></trkpt><trkpt lat="45.116402" lon="8.9237678"><ele>83.0</ele><time>2026-04-03T08:06:47.869Z</time></trkpt><trkpt lat="45.1162857" lon="8.9236308"><ele>83.0</ele><time>2026-04-03T08:06:48.87Z</time></trkpt><trkpt lat="45.116167" lon="8.9234913"><ele>83.0</ele><time>2026-04-03T08:06:49.87Z</time></trkpt><trkpt lat="45.1160512" lon="8.9233485"><ele>83.0</ele><time>2026-04-03T08:06:50.869Z</time></trkpt><trkpt lat="45.1159362" lon="8.9232038"><ele>83.0</ele><time>2026-04-03T08:06:51.87Z</time></trkpt><trkpt lat="45.1158289" lon="8.9230563"><ele>83.0</ele><time>2026-04-03T08:06:52.869Z</time></trkpt><trkpt lat="45.1157265" lon="8.9229003"><ele>83.0</ele><time>2026-04-03T08:06:53.868Z</time></trkpt><trkpt lat="45.1156327" lon="8.9227343"><ele>83.0</ele><time>2026-04-03T08:06:54.87Z</time></trkpt><trkpt lat="45.1155431" lon="8.9225581"><ele>83.0</ele><time>2026-04-03T08:06:55.869Z</time></trkpt><trkpt lat="45.1154544" lon="8.9223752"><ele>83.33333333333334</ele><time>2026-04-03T08:06:56.868Z</time></trkpt><trkpt lat="45.1153681" lon="8.9221921"><ele>83.66666666666667</ele><time>2026-04-03T08:06:57.869Z</time></trkpt><trkpt lat="45.1152797" lon="8.9220047"><ele>84.0</ele><time>2026-04-03T08:06:58.869Z</time></trkpt><trkpt lat="45.1151893" lon="8.9218221"><ele>84.0</ele><time>2026-04-03T08:06:59.869Z</time></trkpt><trkpt lat="45.1150941" lon="8.9216375"><ele>84.0</ele><time>2026-04-03T08:07:00.868Z</time></trkpt><trkpt lat="45.1149933" lon="8.9214538"><ele>84.0</ele><time>2026-04-03T08:07:01.868Z</time></trkpt><trkpt lat="45.114887" lon="8.9212734"><ele>83.33333333333333</ele><time>2026-04-03T08:07:02.869Z</time></trkpt><trkpt lat="45.1147773" lon="8.9210953"><ele>82.66666666666666</ele><time>2026-04-03T08:07:03.868Z</time></trkpt><trkpt lat="45.1146665" lon="8.9209155"><ele>82.0</ele><time>2026-04-03T08:07:04.871Z</time></trkpt><trkpt lat="45.1145559" lon="8.9207491"><ele>82.0</ele><time>2026-04-03T08:07:05.872Z</time></trkpt><trkpt lat="45.1144427" lon="8.920587"><ele>82.0</ele><time>2026-04-03T08:07:06.869Z</time></trkpt><trkpt lat="45.1143349" lon="8.920437"><ele>82.0</ele><time>2026-04-03T08:07:07.869Z</time></trkpt><trkpt lat="45.1142281" lon="8.9202928"><ele>82.0</ele><time>2026-04-03T08:07:08.87Z</time></trkpt><trkpt lat="45.1141199" lon="8.9201605"><ele>82.0</ele><time>2026-04-03T08:07:09.871Z</time></trkpt><trkpt lat="45.1140033" lon="8.9200396"><ele>82.0</ele><time>2026-04-03T08:07:10.87Z</time></trkpt><trkpt lat="45.113883" lon="8.9199278"><ele>82.0</ele><time>2026-04-03T08:07:11.871Z</time></trkpt><trkpt lat="45.1137552" lon="8.9198251"><ele>82.0</ele><time>2026-04-03T08:07:12.87Z</time></trkpt><trkpt lat="45.113623" lon="8.9197316"><ele>82.0</ele><time>2026-04-03T08:07:13.87Z</time></trkpt><trkpt lat="45.1134903" lon="8.9196512"><ele>82.0</ele><time>2026-04-03T08:07:14.868Z</time></trkpt><trkpt lat="45.1133586" lon="8.919578"><ele>82.0</ele><time>2026-04-03T08:07:15.869Z</time></trkpt><trkpt lat="45.1132328" lon="8.9195097"><ele>82.25</ele><time>2026-04-03T08:07:16.869Z</time></trkpt><trkpt lat="45.1131111" lon="8.9194355"><ele>82.5</ele><time>2026-04-03T08:07:17.868Z</time></trkpt><trkpt lat="45.1129959" lon="8.919358"><ele>82.75</ele><time>2026-04-03T08:07:18.869Z</time></trkpt><trkpt lat="45.1128857" lon="8.9192735"><ele>83.0</ele><time>2026-04-03T08:07:19.871Z</time></trkpt><trkpt lat="45.1127989" lon="8.9191894"><ele>83.0</ele><time>2026-04-03T08:07:20.871Z</time></trkpt><trkpt lat="45.112731" lon="8.9191067"><ele>83.0</ele><time>2026-04-03T08:07:21.869Z</time></trkpt><trkpt lat="45.1126765" lon="8.9190298"><ele>83.0</ele><time>2026-04-03T08:07:22.87Z</time></trkpt><trkpt lat="45.1126008" lon="8.9188995"><ele>83.0</ele><time>2026-04-03T08:07:24.869Z</time></trkpt><trkpt lat="45.1125319" lon="8.9187738"><ele>83.0</ele><time>2026-04-03T08:07:26.87Z</time></trkpt><trkpt lat="45.112463" lon="8.9186454"><ele>83.0</ele><time>2026-04-03T08:07:28.87Z</time></trkpt><trkpt lat="45.1123915" lon="8.9185247"><ele>83.0</ele><time>2026-04-03T08:07:30.87Z</time></trkpt><trkpt lat="45.112322" lon="8.9183982"><ele>83.0</ele><time>2026-04-03T08:07:32.87Z</time></trkpt><trkpt lat="45.1122453" lon="8.9182569"><ele>83.0</ele><time>2026-04-03T08:07:34.869Z</time></trkpt><trkpt lat="45.1121746" lon="8.9181249"><ele>83.0</ele><time>2026-04-03T08:07:36.868Z</time></trkpt><trkpt lat="45.1121115" lon="8.9180041"><ele>83.0</ele><time>2026-04-03T08:07:38.869Z</time></trkpt><trkpt lat="45.1120429" lon="8.9178794"><ele>83.0</ele><time>2026-04-03T08:07:40.868Z</time></trkpt><trkpt lat="45.1119644" lon="8.9177333"><ele>83.0</ele><time>2026-04-03T08:07:42.869Z</time></trkpt><trkpt lat="45.1119214" lon="8.9176474"><ele>83.0</ele><time>2026-04-03T08:07:43.868Z</time></trkpt><trkpt lat="45.1118676" lon="8.9175485"><ele>83.0</ele><time>2026-04-03T08:07:44.87Z</time></trkpt><trkpt lat="45.1117974" lon="8.9174271"><ele>83.0</ele><time>2026-04-03T08:07:45.87Z</time></trkpt><trkpt lat="45.1117214" lon="8.9173098"><ele>83.0</ele><time>2026-04-03T08:07:46.869Z</time></trkpt><trkpt lat="45.1116494" lon="8.9172073"><ele>83.0</ele><time>2026-04-03T08:07:47.869Z</time></trkpt><trkpt lat="45.111576" lon="8.9171137"><ele>83.0</ele><time>2026-04-03T08:07:48.869Z</time></trkpt><trkpt lat="45.1114983" lon="8.9170315"><ele>83.0</ele><time>2026-04-03T08:07:49.869Z</time></trkpt><trkpt lat="45.1114163" lon="8.9169605"><ele>83.0</ele><time>2026-04-03T08:07:50.869Z</time></trkpt><trkpt lat="45.1113292" lon="8.9168937"><ele>83.0</ele><time>2026-04-03T08:07:51.868Z</time></trkpt><trkpt lat="45.1112438" lon="8.9168291"><ele>83.0</ele><time>2026-04-03T08:07:52.869Z</time></trkpt><trkpt lat="45.1111574" lon="8.9167732"><ele>83.0</ele><time>2026-04-03T08:07:53.869Z</time></trkpt><trkpt lat="45.1110748" lon="8.9167199"><ele>83.16666666666667</ele><time>2026-04-03T08:07:54.868Z</time></trkpt><trkpt lat="45.1110003" lon="8.9166739"><ele>83.33333333333334</ele><time>2026-04-03T08:07:55.868Z</time></trkpt><trkpt lat="45.1109327" lon="8.9166311"><ele>83.5</ele><time>2026-04-03T08:07:56.868Z</time></trkpt><trkpt lat="45.1108617" lon="8.9165805"><ele>83.66666666666667</ele><time>2026-04-03T08:07:57.869Z</time></trkpt><trkpt lat="45.1107902" lon="8.9165241"><ele>83.83333333333333</ele><time>2026-04-03T08:07:58.868Z</time></trkpt><trkpt lat="45.1107175" lon="8.9164635"><ele>84.0</ele><time>2026-04-03T08:07:59.867Z</time></trkpt><trkpt lat="45.1106395" lon="8.9163954"><ele>84.0</ele><time>2026-04-03T08:08:00.87Z</time></trkpt><trkpt lat="45.11056" lon="8.9163246"><ele>84.0</ele><time>2026-04-03T08:08:01.868Z</time></trkpt><trkpt lat="45.1104617" lon="8.916236"><ele>84.0</ele><time>2026-04-03T08:08:02.868Z</time></trkpt><trkpt lat="45.1103622" lon="8.9161443"><ele>84.0</ele><time>2026-04-03T08:08:03.87Z</time></trkpt><trkpt lat="45.1102647" lon="8.9160556"><ele>84.0</ele><time>2026-04-03T08:08:04.87Z</time></trkpt><trkpt lat="45.1101747" lon="8.9159666"><ele>84.0</ele><time>2026-04-03T08:08:05.868Z</time></trkpt><trkpt lat="45.1100878" lon="8.9158742"><ele>84.0</ele><time>2026-04-03T08:08:06.87Z</time></trkpt><trkpt lat="45.1100021" lon="8.9157802"><ele>84.0</ele><time>2026-04-03T08:08:07.869Z</time></trkpt><trkpt lat="45.1099166" lon="8.9156901"><ele>84.0</ele><time>2026-04-03T08:08:08.87Z</time></trkpt><trkpt lat="45.1098349" lon="8.9156025"><ele>84.0</ele><time>2026-04-03T08:08:09.87Z</time></trkpt><trkpt lat="45.1097527" lon="8.9155137"><ele>84.0</ele><time>2026-04-03T08:08:10.872Z</time></trkpt><trkpt lat="45.1096661" lon="8.9154185"><ele>84.0</ele><time>2026-04-03T08:08:11.869Z</time></trkpt><trkpt lat="45.109575" lon="8.9153197"><ele>84.0</ele><time>2026-04-03T08:08:12.869Z</time></trkpt><trkpt lat="45.1094846" lon="8.9152197"><ele>84.0</ele><time>2026-04-03T08:08:13.87Z</time></trkpt><trkpt lat="45.1093963" lon="8.9151214"><ele>84.0</ele><time>2026-04-03T08:08:14.869Z</time></trkpt><trkpt lat="45.1093106" lon="8.9150214"><ele>84.0</ele><time>2026-04-03T08:08:15.869Z</time></trkpt><trkpt lat="45.1092288" lon="8.9149239"><ele>84.0</ele><time>2026-04-03T08:08:16.868Z</time></trkpt><trkpt lat="45.109147" lon="8.9148199"><ele>84.0</ele><time>2026-04-03T08:08:17.869Z</time></trkpt><trkpt lat="45.1090679" lon="8.9147293"><ele>84.0</ele><time>2026-04-03T08:08:18.869Z</time></trkpt><trkpt lat="45.1089936" lon="8.9146393"><ele>84.0</ele><time>2026-04-03T08:08:19.869Z</time></trkpt><trkpt lat="45.1089204" lon="8.9145507"><ele>84.0</ele><time>2026-04-03T08:08:20.869Z</time></trkpt><trkpt lat="45.1088463" lon="8.9144579"><ele>84.0</ele><time>2026-04-03T08:08:21.869Z</time></trkpt><trkpt lat="45.1087641" lon="8.9143611"><ele>84.0</ele><time>2026-04-03T08:08:22.869Z</time></trkpt><trkpt lat="45.108681" lon="8.9142636"><ele>84.0</ele><time>2026-04-03T08:08:23.869Z</time></trkpt><trkpt lat="45.1085939" lon="8.9141591"><ele>84.6</ele><time>2026-04-03T08:08:24.868Z</time></trkpt><trkpt lat="45.1085075" lon="8.9140563"><ele>85.2</ele><time>2026-04-03T08:08:25.868Z</time></trkpt><trkpt lat="45.1084241" lon="8.913948"><ele>85.8</ele><time>2026-04-03T08:08:26.868Z</time></trkpt><trkpt lat="45.1083456" lon="8.9138485"><ele>86.39999999999999</ele><time>2026-04-03T08:08:27.867Z</time></trkpt><trkpt lat="45.1082614" lon="8.9137445"><ele>87.0</ele><time>2026-04-03T08:08:28.869Z</time></trkpt><trkpt lat="45.1081719" lon="8.9136556"><ele>87.0</ele><time>2026-04-03T08:08:29.868Z</time></trkpt><trkpt lat="45.1080799" lon="8.9135807"><ele>87.0</ele><time>2026-04-03T08:08:30.868Z</time></trkpt><trkpt lat="45.1079916" lon="8.9135159"><ele>87.0</ele><time>2026-04-03T08:08:31.868Z</time></trkpt><trkpt lat="45.1079095" lon="8.9134487"><ele>87.0</ele><time>2026-04-03T08:08:32.869Z</time></trkpt><trkpt lat="45.1078371" lon="8.9133805"><ele>87.0</ele><time>2026-04-03T08:08:33.869Z</time></trkpt><trkpt lat="45.1077773" lon="8.9133044"><ele>87.0</ele><time>2026-04-03T08:08:34.869Z</time></trkpt><trkpt lat="45.1077359" lon="8.913223"><ele>87.0</ele><time>2026-04-03T08:08:35.869Z</time></trkpt><trkpt lat="45.1076926" lon="8.9131127"><ele>87.0</ele><time>2026-04-03T08:08:37.868Z</time></trkpt><trkpt lat="45.1076538" lon="8.9130025"><ele>87.0</ele><time>2026-04-03T08:08:39.868Z</time></trkpt><trkpt lat="45.1076235" lon="8.9129182"><ele>87.0</ele><time>2026-04-03T08:08:41.869Z</time></trkpt><trkpt lat="45.1075997" lon="8.9128344"><ele>87.0</ele><time>2026-04-03T08:08:44.869Z</time></trkpt><trkpt lat="45.1075034" lon="8.9127895"><ele>87.0</ele><time>2026-04-03T08:08:46.875Z</time></trkpt><trkpt lat="45.1074355" lon="8.9127797"><ele>87.0</ele><time>2026-04-03T08:08:47.868Z</time></trkpt><trkpt lat="45.1073159" lon="8.9127499"><ele>87.0</ele><time>2026-04-03T08:08:49.868Z</time></trkpt><trkpt lat="45.107197" lon="8.9127178"><ele>87.0</ele><time>2026-04-03T08:08:51.87Z</time></trkpt><trkpt lat="45.1071313" lon="8.9126901"><ele>87.0</ele><time>2026-04-03T08:08:52.869Z</time></trkpt><trkpt lat="45.1070542" lon="8.9126519"><ele>87.0</ele><time>2026-04-03T08:08:53.87Z</time></trkpt><trkpt lat="45.1069675" lon="8.9126079"><ele>87.0</ele><time>2026-04-03T08:08:54.87Z</time></trkpt><trkpt lat="45.1068745" lon="8.9125597"><ele>87.0</ele><time>2026-04-03T08:08:55.87Z</time></trkpt><trkpt lat="45.1067767" lon="8.91251"><ele>87.0</ele><time>2026-04-03T08:08:56.869Z</time></trkpt><trkpt lat="45.1066794" lon="8.9124569"><ele>87.0</ele><time>2026-04-03T08:08:57.87Z</time></trkpt><trkpt lat="45.1065806" lon="8.9124045"><ele>87.0</ele><time>2026-04-03T08:08:58.869Z</time></trkpt><trkpt lat="45.1064823" lon="8.9123514"><ele>87.0</ele><time>2026-04-03T08:08:59.869Z</time></trkpt><trkpt lat="45.106386" lon="8.9123001"><ele>87.0</ele><time>2026-04-03T08:09:00.87Z</time></trkpt><trkpt lat="45.1062939" lon="8.9122527"><ele>87.0</ele><time>2026-04-03T08:09:01.868Z</time></trkpt><trkpt lat="45.1062002" lon="8.9122076"><ele>87.0</ele><time>2026-04-03T08:09:02.868Z</time></trkpt><trkpt lat="45.1061058" lon="8.9121628"><ele>87.0</ele><time>2026-04-03T08:09:03.868Z</time></trkpt><trkpt lat="45.1060118" lon="8.9121137"><ele>87.0</ele><time>2026-04-03T08:09:04.868Z</time></trkpt><trkpt lat="45.1059163" lon="8.9120661"><ele>87.0</ele><time>2026-04-03T08:09:05.867Z</time></trkpt><trkpt lat="45.1058218" lon="8.9120141"><ele>87.0</ele><time>2026-04-03T08:09:06.868Z</time></trkpt><trkpt lat="45.1057265" lon="8.9119638"><ele>87.0</ele><time>2026-04-03T08:09:07.868Z</time></trkpt><trkpt lat="45.1056294" lon="8.9119122"><ele>87.0</ele><time>2026-04-03T08:09:08.869Z</time></trkpt><trkpt lat="45.1055335" lon="8.9118626"><ele>87.0</ele><time>2026-04-03T08:09:09.871Z</time></trkpt><trkpt lat="45.1054372" lon="8.9118158"><ele>87.0</ele><time>2026-04-03T08:09:10.869Z</time></trkpt><trkpt lat="45.1053481" lon="8.9117668"><ele>87.0</ele><time>2026-04-03T08:09:11.868Z</time></trkpt><trkpt lat="45.1052552" lon="8.9117172"><ele>87.0</ele><time>2026-04-03T08:09:12.868Z</time></trkpt><trkpt lat="45.1051657" lon="8.9116675"><ele>87.0</ele><time>2026-04-03T08:09:13.867Z</time></trkpt><trkpt lat="45.1050761" lon="8.911619"><ele>87.0</ele><time>2026-04-03T08:09:14.868Z</time></trkpt><trkpt lat="45.104983" lon="8.911569"><ele>87.0</ele><time>2026-04-03T08:09:15.869Z</time></trkpt><trkpt lat="45.1048896" lon="8.9115224"><ele>87.0</ele><time>2026-04-03T08:09:16.868Z</time></trkpt><trkpt lat="45.1047962" lon="8.9114754"><ele>87.0</ele><time>2026-04-03T08:09:17.867Z</time></trkpt><trkpt lat="45.1047056" lon="8.9114314"><ele>86.8</ele><time>2026-04-03T08:09:18.87Z</time></trkpt><trkpt lat="45.1046181" lon="8.9113881"><ele>86.6</ele><time>2026-04-03T08:09:19.869Z</time></trkpt><trkpt lat="45.1045331" lon="8.9113413"><ele>86.39999999999999</ele><time>2026-04-03T08:09:20.868Z</time></trkpt><trkpt lat="45.104455" lon="8.9113009"><ele>86.19999999999999</ele><time>2026-04-03T08:09:21.868Z</time></trkpt><trkpt lat="45.1043805" lon="8.9112616"><ele>86.0</ele><time>2026-04-03T08:09:22.867Z</time></trkpt><trkpt lat="45.1042751" lon="8.9112044"><ele>86.0</ele><time>2026-04-03T08:09:24.868Z</time></trkpt><trkpt lat="45.1042356" lon="8.9110808"><ele>86.0</ele><time>2026-04-03T08:09:26.87Z</time></trkpt><trkpt lat="45.1042603" lon="8.9108959"><ele>86.0</ele><time>2026-04-03T08:09:28.869Z</time></trkpt><trkpt lat="45.1042787" lon="8.9107852"><ele>86.0</ele><time>2026-04-03T08:09:29.867Z</time></trkpt><trkpt lat="45.1042973" lon="8.9106649"><ele>86.0</ele><time>2026-04-03T08:09:30.867Z</time></trkpt><trkpt lat="45.104322" lon="8.9105469"><ele>86.33333333333334</ele><time>2026-04-03T08:09:31.869Z</time></trkpt><trkpt lat="45.1043414" lon="8.9104294"><ele>86.66666666666667</ele><time>2026-04-03T08:09:32.868Z</time></trkpt><trkpt lat="45.1043539" lon="8.9103185"><ele>87.0</ele><time>2026-04-03T08:09:33.868Z</time></trkpt><trkpt lat="45.1043648" lon="8.9102178"><ele>87.33333333333333</ele><time>2026-04-03T08:09:34.868Z</time></trkpt><trkpt lat="45.1043737" lon="8.9101263"><ele>87.66666666666666</ele><time>2026-04-03T08:09:35.868Z</time></trkpt><trkpt lat="45.104377" lon="8.909983"><ele>88.0</ele><time>2026-04-03T08:09:37.867Z</time></trkpt><trkpt lat="45.1043731" lon="8.9098881"><ele>88.0</ele><time>2026-04-03T08:09:40.869Z</time></trkpt><trkpt lat="45.104348" lon="8.9097729"><ele>88.0</ele><time>2026-04-03T08:09:46.871Z</time></trkpt><trkpt lat="45.1043182" lon="8.9096528"><ele>88.0</ele><time>2026-04-03T08:09:48.869Z</time></trkpt><trkpt lat="45.1042692" lon="8.9095148"><ele>88.0</ele><time>2026-04-03T08:09:50.869Z</time></trkpt><trkpt lat="45.1042135" lon="8.9093888"><ele>88.0</ele><time>2026-04-03T08:09:52.869Z</time></trkpt><trkpt lat="45.1041484" lon="8.9092665"><ele>87.83333333333333</ele><time>2026-04-03T08:09:54.87Z</time></trkpt><trkpt lat="45.1040791" lon="8.9091449"><ele>87.66666666666666</ele><time>2026-04-03T08:09:56.869Z</time></trkpt><trkpt lat="45.104006" lon="8.9090174"><ele>87.5</ele><time>2026-04-03T08:09:58.869Z</time></trkpt><trkpt lat="45.1039707" lon="8.9089375"><ele>87.33333333333333</ele><time>2026-04-03T08:09:59.869Z</time></trkpt><trkpt lat="45.103937" lon="8.9088459"><ele>87.16666666666667</ele><time>2026-04-03T08:10:00.867Z</time></trkpt><trkpt lat="45.1039025" lon="8.9087516"><ele>87.0</ele><time>2026-04-03T08:10:01.869Z</time></trkpt><trkpt lat="45.1038674" lon="8.9086567"><ele>87.0</ele><time>2026-04-03T08:10:02.869Z</time></trkpt><trkpt lat="45.1038339" lon="8.9085632"><ele>87.0</ele><time>2026-04-03T08:10:03.869Z</time></trkpt><trkpt lat="45.1038" lon="8.9084651"><ele>87.0</ele><time>2026-04-03T08:10:04.869Z</time></trkpt><trkpt lat="45.1037656" lon="8.9083672"><ele>87.0</ele><time>2026-04-03T08:10:05.868Z</time></trkpt><trkpt lat="45.1037334" lon="8.9082713"><ele>87.0</ele><time>2026-04-03T08:10:06.87Z</time></trkpt><trkpt lat="45.1037065" lon="8.9081873"><ele>87.0</ele><time>2026-04-03T08:10:07.87Z</time></trkpt><trkpt lat="45.103662" lon="8.9080457"><ele>86.8</ele><time>2026-04-03T08:10:09.869Z</time></trkpt><trkpt lat="45.1036202" lon="8.9079236"><ele>86.6</ele><time>2026-04-03T08:10:11.868Z</time></trkpt><trkpt lat="45.1035685" lon="8.9078114"><ele>86.39999999999999</ele><time>2026-04-03T08:10:13.869Z</time></trkpt><trkpt lat="45.1035055" lon="8.9076842"><ele>86.19999999999999</ele><time>2026-04-03T08:10:15.867Z</time></trkpt><trkpt lat="45.1034519" lon="8.9075339"><ele>86.0</ele><time>2026-04-03T08:10:17.869Z</time></trkpt><trkpt lat="45.1034284" lon="8.9074421"><ele>86.0</ele><time>2026-04-03T08:10:18.869Z</time></trkpt><trkpt lat="45.1034063" lon="8.9073399"><ele>86.0</ele><time>2026-04-03T08:10:19.868Z</time></trkpt><trkpt lat="45.1033902" lon="8.907234"><ele>86.0</ele><time>2026-04-03T08:10:20.868Z</time></trkpt><trkpt lat="45.1033721" lon="8.9071222"><ele>86.0</ele><time>2026-04-03T08:10:21.868Z</time></trkpt><trkpt lat="45.1033565" lon="8.9070075"><ele>86.0</ele><time>2026-04-03T08:10:22.867Z</time></trkpt><trkpt lat="45.1033436" lon="8.9068974"><ele>86.0</ele><time>2026-04-03T08:10:23.867Z</time></trkpt><trkpt lat="45.1033324" lon="8.9067885"><ele>86.33333333333334</ele><time>2026-04-03T08:10:24.867Z</time></trkpt><trkpt lat="45.1033193" lon="8.9066835"><ele>86.66666666666667</ele><time>2026-04-03T08:10:25.866Z</time></trkpt><trkpt lat="45.1033035" lon="8.9065781"><ele>87.0</ele><time>2026-04-03T08:10:26.867Z</time></trkpt><trkpt lat="45.103289" lon="8.9064741"><ele>87.33333333333333</ele><time>2026-04-03T08:10:27.867Z</time></trkpt><trkpt lat="45.1032759" lon="8.9063777"><ele>87.66666666666666</ele><time>2026-04-03T08:10:28.867Z</time></trkpt><trkpt lat="45.1032518" lon="8.9062127"><ele>88.0</ele><time>2026-04-03T08:10:30.867Z</time></trkpt><trkpt lat="45.103233" lon="8.9060901"><ele>88.0</ele><time>2026-04-03T08:10:32.866Z</time></trkpt><trkpt lat="45.1032237" lon="8.9059879"><ele>88.0</ele><time>2026-04-03T08:10:36.867Z</time></trkpt><trkpt lat="45.103208" lon="8.9058873"><ele>88.0</ele><time>2026-04-03T08:10:57.867Z</time></trkpt><trkpt lat="45.103197" lon="8.9057974"><ele>88.0</ele><time>2026-04-03T08:11:00.867Z</time></trkpt><trkpt lat="45.1031867" lon="8.9056988"><ele>88.0</ele><time>2026-04-03T08:11:02.867Z</time></trkpt><trkpt lat="45.1031763" lon="8.9055974"><ele>88.0</ele><time>2026-04-03T08:11:04.867Z</time></trkpt><trkpt lat="45.1031652" lon="8.9055086"><ele>88.0</ele><time>2026-04-03T08:11:06.868Z</time></trkpt><trkpt lat="45.1031491" lon="8.905414"><ele>87.83333333333333</ele><time>2026-04-03T08:11:09.867Z</time></trkpt><trkpt lat="45.1031414" lon="8.9053225"><ele>87.66666666666666</ele><time>2026-04-03T08:11:56.867Z</time></trkpt><trkpt lat="45.1031079" lon="8.9051861"><ele>87.5</ele><time>2026-04-03T08:11:58.869Z</time></trkpt><trkpt lat="45.1030365" lon="8.9051438"><ele>87.33333333333333</ele><time>2026-04-03T08:12:00.871Z</time></trkpt><trkpt lat="45.1029222" lon="8.9052295"><ele>87.16666666666667</ele><time>2026-04-03T08:12:02.868Z</time></trkpt><trkpt lat="45.1028608" lon="8.9052866"><ele>87.0</ele><time>2026-04-03T08:12:03.869Z</time></trkpt><trkpt lat="45.1027925" lon="8.905352"><ele>87.0</ele><time>2026-04-03T08:12:04.868Z</time></trkpt><trkpt lat="45.1027232" lon="8.9054167"><ele>87.0</ele><time>2026-04-03T08:12:05.868Z</time></trkpt><trkpt lat="45.1026559" lon="8.9054802"><ele>87.0</ele><time>2026-04-03T08:12:06.869Z</time></trkpt><trkpt lat="45.1025916" lon="8.9055461"><ele>87.0</ele><time>2026-04-03T08:12:07.869Z</time></trkpt><trkpt lat="45.1025281" lon="8.9056104"><ele>87.0</ele><time>2026-04-03T08:12:08.869Z</time></trkpt><trkpt lat="45.1024608" lon="8.9056755"><ele>87.0</ele><time>2026-04-03T08:12:09.868Z</time></trkpt><trkpt lat="45.1023968" lon="8.9057356"><ele>86.66666666666667</ele><time>2026-04-03T08:12:10.843Z</time></trkpt><trkpt lat="45.1023337" lon="8.905803"><ele>86.33333333333333</ele><time>2026-04-03T08:12:11.842Z</time></trkpt><trkpt lat="45.1022787" lon="8.9058753"><ele>86.0</ele><time>2026-04-03T08:12:12.837Z</time></trkpt><trkpt lat="45.102235" lon="8.9059567"><ele>85.66666666666666</ele><time>2026-04-03T08:12:13.837Z</time></trkpt><trkpt lat="45.1022046" lon="8.9060536"><ele>85.33333333333333</ele><time>2026-04-03T08:12:14.84Z</time></trkpt><trkpt lat="45.1021841" lon="8.9061529"><ele>85.0</ele><time>2026-04-03T08:12:15.839Z</time></trkpt><trkpt lat="45.1021661" lon="8.9062691"><ele>85.0</ele><time>2026-04-03T08:12:16.84Z</time></trkpt><trkpt lat="45.1021506" lon="8.9063894"><ele>85.0</ele><time>2026-04-03T08:12:17.84Z</time></trkpt><trkpt lat="45.1021344" lon="8.9065133"><ele>85.0</ele><time>2026-04-03T08:12:18.84Z</time></trkpt><trkpt lat="45.1021136" lon="8.9066422"><ele>85.0</ele><time>2026-04-03T08:12:19.839Z</time></trkpt><trkpt lat="45.1020849" lon="8.906769"><ele>85.0</ele><time>2026-04-03T08:12:20.84Z</time></trkpt><trkpt lat="45.1020545" lon="8.9068894"><ele>85.0</ele><time>2026-04-03T08:12:21.84Z</time></trkpt><trkpt lat="45.1020272" lon="8.9070043"><ele>85.0</ele><time>2026-04-03T08:12:22.84Z</time></trkpt><trkpt lat="45.1020063" lon="8.907104"><ele>85.0</ele><time>2026-04-03T08:12:23.84Z</time></trkpt><trkpt lat="45.1019905" lon="8.9071972"><ele>85.0</ele><time>2026-04-03T08:12:24.84Z</time></trkpt><trkpt lat="45.1019725" lon="8.9073277"><ele>85.0</ele><time>2026-04-03T08:12:26.839Z</time></trkpt><trkpt lat="45.1019511" lon="8.9074521"><ele>85.0</ele><time>2026-04-03T08:12:28.84Z</time></trkpt><trkpt lat="45.101884" lon="8.9076033"><ele>85.0</ele><time>2026-04-03T08:12:30.84Z</time></trkpt><trkpt lat="45.1018323" lon="8.9076922"><ele>85.0</ele><time>2026-04-03T08:12:31.84Z</time></trkpt><trkpt lat="45.1017656" lon="8.907781"><ele>85.0</ele><time>2026-04-03T08:12:32.839Z</time></trkpt><trkpt lat="45.1016907" lon="8.9078502"><ele>85.0</ele><time>2026-04-03T08:12:33.84Z</time></trkpt><trkpt lat="45.1016155" lon="8.9079106"><ele>85.0</ele><time>2026-04-03T08:12:34.839Z</time></trkpt><trkpt lat="45.101542" lon="8.907972"><ele>85.0</ele><time>2026-04-03T08:12:35.839Z</time></trkpt><trkpt lat="45.1014731" lon="8.9080297"><ele>85.16666666666666</ele><time>2026-04-03T08:12:36.84Z</time></trkpt><trkpt lat="45.1014065" lon="8.908084"><ele>85.33333333333333</ele><time>2026-04-03T08:12:37.84Z</time></trkpt><trkpt lat="45.1013391" lon="8.9081335"><ele>85.5</ele><time>2026-04-03T08:12:38.839Z</time></trkpt><trkpt lat="45.1012719" lon="8.9081764"><ele>85.66666666666667</ele><time>2026-04-03T08:12:39.84Z</time></trkpt><trkpt lat="45.1012" lon="8.9082239"><ele>85.83333333333334</ele><time>2026-04-03T08:12:40.839Z</time></trkpt><trkpt lat="45.1011306" lon="8.9082704"><ele>86.0</ele><time>2026-04-03T08:12:41.84Z</time></trkpt><trkpt lat="45.1010608" lon="8.9083172"><ele>86.0</ele><time>2026-04-03T08:12:42.84Z</time></trkpt><trkpt lat="45.1009899" lon="8.9083648"><ele>86.0</ele><time>2026-04-03T08:12:43.84Z</time></trkpt><trkpt lat="45.1009183" lon="8.9084053"><ele>86.0</ele><time>2026-04-03T08:12:44.84Z</time></trkpt><trkpt lat="45.1008414" lon="8.9084365"><ele>86.0</ele><time>2026-04-03T08:12:45.839Z</time></trkpt><trkpt lat="45.1007585" lon="8.9084536"><ele>86.0</ele><time>2026-04-03T08:12:46.839Z</time></trkpt><trkpt lat="45.1006742" lon="8.9084566"><ele>86.0</ele><time>2026-04-03T08:12:47.839Z</time></trkpt><trkpt lat="45.1005842" lon="8.908448"><ele>85.16666666666667</ele><time>2026-04-03T08:12:48.839Z</time></trkpt><trkpt lat="45.1004967" lon="8.9084318"><ele>84.33333333333334</ele><time>2026-04-03T08:12:49.84Z</time></trkpt><trkpt lat="45.1004115" lon="8.9084092"><ele>83.5</ele><time>2026-04-03T08:12:50.84Z</time></trkpt><trkpt lat="45.100328" lon="8.9083814"><ele>82.66666666666667</ele><time>2026-04-03T08:12:51.84Z</time></trkpt><trkpt lat="45.1002456" lon="8.9083522"><ele>81.83333333333333</ele><time>2026-04-03T08:12:52.84Z</time></trkpt><trkpt lat="45.1001602" lon="8.9083232"><ele>81.0</ele><time>2026-04-03T08:12:53.839Z</time></trkpt><trkpt lat="45.1000726" lon="8.9082929"><ele>80.5</ele><time>2026-04-03T08:12:54.84Z</time></trkpt><trkpt lat="45.099982" lon="8.9082643"><ele>80.0</ele><time>2026-04-03T08:12:55.84Z</time></trkpt><trkpt lat="45.0998731" lon="8.9082311"><ele>79.5</ele><time>2026-04-03T08:12:56.84Z</time></trkpt><trkpt lat="45.0997556" lon="8.9082046"><ele>79.0</ele><time>2026-04-03T08:12:57.839Z</time></trkpt><trkpt lat="45.0996294" lon="8.9081797"><ele>78.0</ele><time>2026-04-03T08:12:58.839Z</time></trkpt><trkpt lat="45.0995035" lon="8.9081582"><ele>77.0</ele><time>2026-04-03T08:12:59.839Z</time></trkpt><trkpt lat="45.0993792" lon="8.9081378"><ele>76.0</ele><time>2026-04-03T08:13:00.84Z</time></trkpt><trkpt lat="45.0992594" lon="8.9081154"><ele>75.0</ele><time>2026-04-03T08:13:01.839Z</time></trkpt><trkpt lat="45.0991441" lon="8.9080928"><ele>74.75</ele><time>2026-04-03T08:13:02.839Z</time></trkpt><trkpt lat="45.0990343" lon="8.9080719"><ele>74.5</ele><time>2026-04-03T08:13:03.84Z</time></trkpt><trkpt lat="45.0989159" lon="8.9080503"><ele>74.25</ele><time>2026-04-03T08:13:04.84Z</time></trkpt><trkpt lat="45.0988023" lon="8.9080304"><ele>74.0</ele><time>2026-04-03T08:13:05.84Z</time></trkpt><trkpt lat="45.0986925" lon="8.9080119"><ele>74.0</ele><time>2026-04-03T08:13:06.84Z</time></trkpt><trkpt lat="45.098586" lon="8.9079937"><ele>74.0</ele><time>2026-04-03T08:13:07.84Z</time></trkpt><trkpt lat="45.0984831" lon="8.9079749"><ele>74.0</ele><time>2026-04-03T08:13:08.84Z</time></trkpt><trkpt lat="45.0983839" lon="8.9079557"><ele>74.0</ele><time>2026-04-03T08:13:09.839Z</time></trkpt><trkpt lat="45.0982907" lon="8.9079375"><ele>74.0</ele><time>2026-04-03T08:13:10.84Z</time></trkpt><trkpt lat="45.0982048" lon="8.9079193"><ele>73.83333333333334</ele><time>2026-04-03T08:13:11.84Z</time></trkpt><trkpt lat="45.0981204" lon="8.9079019"><ele>73.66666666666667</ele><time>2026-04-03T08:13:12.839Z</time></trkpt><trkpt lat="45.0980446" lon="8.9078841"><ele>73.5</ele><time>2026-04-03T08:13:13.84Z</time></trkpt><trkpt lat="45.0979768" lon="8.907867"><ele>73.33333333333333</ele><time>2026-04-03T08:13:14.84Z</time></trkpt><trkpt lat="45.0978621" lon="8.907829"><ele>73.16666666666666</ele><time>2026-04-03T08:13:16.84Z</time></trkpt><trkpt lat="45.0978028" lon="8.9077982"><ele>73.0</ele><time>2026-04-03T08:13:17.84Z</time></trkpt><trkpt lat="45.0977335" lon="8.9077671"><ele>73.0</ele><time>2026-04-03T08:13:18.839Z</time></trkpt><trkpt lat="45.097638" lon="8.9077546"><ele>73.0</ele><time>2026-04-03T08:13:19.84Z</time></trkpt><trkpt lat="45.0975081" lon="8.9077561"><ele>73.0</ele><time>2026-04-03T08:13:20.84Z</time></trkpt><trkpt lat="45.0973711" lon="8.9077521"><ele>73.0</ele><time>2026-04-03T08:13:21.84Z</time></trkpt><trkpt lat="45.0972165" lon="8.9077354"><ele>72.25</ele><time>2026-04-03T08:13:22.839Z</time></trkpt><trkpt lat="45.0970717" lon="8.9077118"><ele>71.5</ele><time>2026-04-03T08:13:23.839Z</time></trkpt><trkpt lat="45.0969319" lon="8.9076854"><ele>70.75</ele><time>2026-04-03T08:13:24.84Z</time></trkpt><trkpt lat="45.0967955" lon="8.9076578"><ele>70.0</ele><time>2026-04-03T08:13:25.84Z</time></trkpt><trkpt lat="45.0966618" lon="8.907631"><ele>70.0</ele><time>2026-04-03T08:13:26.84Z</time></trkpt><trkpt lat="45.0965328" lon="8.9076071"><ele>70.0</ele><time>2026-04-03T08:13:27.84Z</time></trkpt><trkpt lat="45.0963967" lon="8.9075805"><ele>70.0</ele><time>2026-04-03T08:13:28.84Z</time></trkpt><trkpt lat="45.0962656" lon="8.9075547"><ele>70.0</ele><time>2026-04-03T08:13:29.839Z</time></trkpt><trkpt lat="45.0961338" lon="8.9075284"><ele>70.5</ele><time>2026-04-03T08:13:30.84Z</time></trkpt><trkpt lat="45.0960014" lon="8.9075018"><ele>71.0</ele><time>2026-04-03T08:13:31.84Z</time></trkpt><trkpt lat="45.0958658" lon="8.9074763"><ele>71.5</ele><time>2026-04-03T08:13:32.84Z</time></trkpt><trkpt lat="45.0957279" lon="8.907451"><ele>72.0</ele><time>2026-04-03T08:13:33.839Z</time></trkpt><trkpt lat="45.0955876" lon="8.9074256"><ele>72.0</ele><time>2026-04-03T08:13:34.84Z</time></trkpt><trkpt lat="45.0954579" lon="8.9074014"><ele>72.0</ele><time>2026-04-03T08:13:35.839Z</time></trkpt><trkpt lat="45.0953276" lon="8.9073777"><ele>72.0</ele><time>2026-04-03T08:13:36.84Z</time></trkpt><trkpt lat="45.095209" lon="8.9073559"><ele>72.0</ele><time>2026-04-03T08:13:37.84Z</time></trkpt><trkpt lat="45.0950928" lon="8.9073345"><ele>72.0</ele><time>2026-04-03T08:13:38.84Z</time></trkpt><trkpt lat="45.0949767" lon="8.9073129"><ele>72.0</ele><time>2026-04-03T08:13:39.839Z</time></trkpt><trkpt lat="45.0948587" lon="8.9072901"><ele>72.0</ele><time>2026-04-03T08:13:40.84Z</time></trkpt><trkpt lat="45.0947384" lon="8.9072673"><ele>72.0</ele><time>2026-04-03T08:13:41.839Z</time></trkpt><trkpt lat="45.0946115" lon="8.9072428"><ele>72.0</ele><time>2026-04-03T08:13:42.84Z</time></trkpt><trkpt lat="45.0944813" lon="8.907217"><ele>72.0</ele><time>2026-04-03T08:13:43.84Z</time></trkpt><trkpt lat="45.094336" lon="8.9071888"><ele>72.0</ele><time>2026-04-03T08:13:44.84Z</time></trkpt><trkpt lat="45.0941906" lon="8.9071627"><ele>72.0</ele><time>2026-04-03T08:13:45.84Z</time></trkpt><trkpt lat="45.0940409" lon="8.9071364"><ele>72.33333333333333</ele><time>2026-04-03T08:13:46.84Z</time></trkpt><trkpt lat="45.0938905" lon="8.9071099"><ele>72.66666666666666</ele><time>2026-04-03T08:13:47.839Z</time></trkpt><trkpt lat="45.0937391" lon="8.9070828"><ele>73.0</ele><time>2026-04-03T08:13:48.84Z</time></trkpt><trkpt lat="45.0935861" lon="8.9070554"><ele>73.0</ele><time>2026-04-03T08:13:49.84Z</time></trkpt><trkpt lat="45.0934316" lon="8.9070273"><ele>73.0</ele><time>2026-04-03T08:13:50.84Z</time></trkpt><trkpt lat="45.0932812" lon="8.9069993"><ele>73.0</ele><time>2026-04-03T08:13:51.84Z</time></trkpt><trkpt lat="45.093121" lon="8.9069683"><ele>72.33333333333333</ele><time>2026-04-03T08:13:52.84Z</time></trkpt><trkpt lat="45.0929704" lon="8.906939"><ele>71.66666666666667</ele><time>2026-04-03T08:13:53.839Z</time></trkpt><trkpt lat="45.0928216" lon="8.9069109"><ele>71.0</ele><time>2026-04-03T08:13:54.839Z</time></trkpt><trkpt lat="45.0926748" lon="8.9068842"><ele>71.0</ele><time>2026-04-03T08:13:55.839Z</time></trkpt><trkpt lat="45.0925304" lon="8.9068579"><ele>71.0</ele><time>2026-04-03T08:13:56.84Z</time></trkpt><trkpt lat="45.0923884" lon="8.9068297"><ele>71.0</ele><time>2026-04-03T08:13:57.84Z</time></trkpt><trkpt lat="45.0922462" lon="8.9068025"><ele>71.0</ele><time>2026-04-03T08:13:58.84Z</time></trkpt><trkpt lat="45.0921081" lon="8.9067778"><ele>71.25</ele><time>2026-04-03T08:13:59.839Z</time></trkpt><trkpt lat="45.0919595" lon="8.906752"><ele>71.5</ele><time>2026-04-03T08:14:00.839Z</time></trkpt><trkpt lat="45.0918146" lon="8.9067267"><ele>71.75</ele><time>2026-04-03T08:14:01.839Z</time></trkpt><trkpt lat="45.0916671" lon="8.9066999"><ele>72.0</ele><time>2026-04-03T08:14:02.84Z</time></trkpt><trkpt lat="45.0915175" lon="8.9066721"><ele>72.33333333333333</ele><time>2026-04-03T08:14:03.84Z</time></trkpt><trkpt lat="45.0913656" lon="8.9066426"><ele>72.66666666666666</ele><time>2026-04-03T08:14:04.84Z</time></trkpt><trkpt lat="45.091212" lon="8.9066115"><ele>73.0</ele><time>2026-04-03T08:14:05.84Z</time></trkpt><trkpt lat="45.0910556" lon="8.9065813"><ele>73.0</ele><time>2026-04-03T08:14:06.839Z</time></trkpt><trkpt lat="45.090902" lon="8.9065534"><ele>73.0</ele><time>2026-04-03T08:14:07.84Z</time></trkpt><trkpt lat="45.0907371" lon="8.9065222"><ele>73.0</ele><time>2026-04-03T08:14:08.84Z</time></trkpt><trkpt lat="45.0905755" lon="8.9064902"><ele>72.33333333333333</ele><time>2026-04-03T08:14:09.839Z</time></trkpt><trkpt lat="45.0904133" lon="8.9064568"><ele>71.66666666666667</ele><time>2026-04-03T08:14:10.84Z</time></trkpt><trkpt lat="45.090252" lon="8.9064247"><ele>71.0</ele><time>2026-04-03T08:14:11.84Z</time></trkpt><trkpt lat="45.0900928" lon="8.9063937"><ele>71.0</ele><time>2026-04-03T08:14:12.84Z</time></trkpt><trkpt lat="45.0899353" lon="8.9063635"><ele>71.0</ele><time>2026-04-03T08:14:13.84Z</time></trkpt><trkpt lat="45.0897784" lon="8.9063336"><ele>71.0</ele><time>2026-04-03T08:14:14.84Z</time></trkpt><trkpt lat="45.0896268" lon="8.9063045"><ele>71.33333333333334</ele><time>2026-04-03T08:14:15.84Z</time></trkpt><trkpt lat="45.0894648" lon="8.9062734"><ele>71.66666666666667</ele><time>2026-04-03T08:14:16.84Z</time></trkpt><trkpt lat="45.0893078" lon="8.906244"><ele>72.0</ele><time>2026-04-03T08:14:17.839Z</time></trkpt><trkpt lat="45.0891499" lon="8.9062156"><ele>72.0</ele><time>2026-04-03T08:14:18.839Z</time></trkpt><trkpt lat="45.0889909" lon="8.9061868"><ele>72.0</ele><time>2026-04-03T08:14:19.84Z</time></trkpt><trkpt lat="45.0888309" lon="8.9061577"><ele>72.0</ele><time>2026-04-03T08:14:20.839Z</time></trkpt><trkpt lat="45.0886714" lon="8.906128"><ele>72.0</ele><time>2026-04-03T08:14:21.84Z</time></trkpt><trkpt lat="45.0885122" lon="8.9060993"><ele>72.0</ele><time>2026-04-03T08:14:22.839Z</time></trkpt><trkpt lat="45.0883601" lon="8.9060721"><ele>72.0</ele><time>2026-04-03T08:14:23.839Z</time></trkpt><trkpt lat="45.0881997" lon="8.9060434"><ele>72.0</ele><time>2026-04-03T08:14:24.84Z</time></trkpt><trkpt lat="45.0880462" lon="8.9060159"><ele>72.0</ele><time>2026-04-03T08:14:25.84Z</time></trkpt><trkpt lat="45.0878941" lon="8.9059882"><ele>72.0</ele><time>2026-04-03T08:14:26.839Z</time></trkpt><trkpt lat="45.0877427" lon="8.9059597"><ele>72.0</ele><time>2026-04-03T08:14:27.839Z</time></trkpt><trkpt lat="45.0875919" lon="8.9059308"><ele>72.0</ele><time>2026-04-03T08:14:28.84Z</time></trkpt><trkpt lat="45.0874415" lon="8.9059025"><ele>72.0</ele><time>2026-04-03T08:14:29.84Z</time></trkpt><trkpt lat="45.0872904" lon="8.9058751"><ele>71.33333333333333</ele><time>2026-04-03T08:14:30.84Z</time></trkpt><trkpt lat="45.0871439" lon="8.9058489"><ele>70.66666666666666</ele><time>2026-04-03T08:14:31.839Z</time></trkpt><trkpt lat="45.0869869" lon="8.9058214"><ele>70.0</ele><time>2026-04-03T08:14:32.839Z</time></trkpt><trkpt lat="45.0868336" lon="8.9057938"><ele>70.0</ele><time>2026-04-03T08:14:33.84Z</time></trkpt><trkpt lat="45.0866802" lon="8.9057643"><ele>70.0</ele><time>2026-04-03T08:14:34.839Z</time></trkpt><trkpt lat="45.0865268" lon="8.9057349"><ele>70.0</ele><time>2026-04-03T08:14:35.839Z</time></trkpt><trkpt lat="45.0863729" lon="8.9057049"><ele>70.0</ele><time>2026-04-03T08:14:36.84Z</time></trkpt><trkpt lat="45.0862192" lon="8.9056753"><ele>70.0</ele><time>2026-04-03T08:14:37.839Z</time></trkpt><trkpt lat="45.0860649" lon="8.9056463"><ele>70.0</ele><time>2026-04-03T08:14:38.84Z</time></trkpt><trkpt lat="45.0859148" lon="8.9056187"><ele>70.33333333333333</ele><time>2026-04-03T08:14:39.84Z</time></trkpt><trkpt lat="45.0857522" lon="8.9055874"><ele>70.66666666666667</ele><time>2026-04-03T08:14:40.839Z</time></trkpt><trkpt lat="45.0855899" lon="8.9055567"><ele>71.0</ele><time>2026-04-03T08:14:41.84Z</time></trkpt><trkpt lat="45.0854222" lon="8.9055258"><ele>71.0</ele><time>2026-04-03T08:14:42.84Z</time></trkpt><trkpt lat="45.0852485" lon="8.9054943"><ele>71.0</ele><time>2026-04-03T08:14:43.84Z</time></trkpt><trkpt lat="45.0850713" lon="8.9054624"><ele>71.0</ele><time>2026-04-03T08:14:44.839Z</time></trkpt><trkpt lat="45.0848888" lon="8.9054301"><ele>70.66666666666667</ele><time>2026-04-03T08:14:45.84Z</time></trkpt><trkpt lat="45.084704" lon="8.9053964"><ele>70.33333333333333</ele><time>2026-04-03T08:14:46.84Z</time></trkpt><trkpt lat="45.0845211" lon="8.9053627"><ele>70.0</ele><time>2026-04-03T08:14:47.84Z</time></trkpt><trkpt lat="45.0843232" lon="8.9053261"><ele>70.0</ele><time>2026-04-03T08:14:48.84Z</time></trkpt><trkpt lat="45.0841288" lon="8.9052902"><ele>70.0</ele><time>2026-04-03T08:14:49.84Z</time></trkpt><trkpt lat="45.0839343" lon="8.9052542"><ele>70.0</ele><time>2026-04-03T08:14:50.839Z</time></trkpt><trkpt lat="45.0837395" lon="8.9052172"><ele>70.0</ele><time>2026-04-03T08:14:51.839Z</time></trkpt><trkpt lat="45.0835465" lon="8.9051806"><ele>70.0</ele><time>2026-04-03T08:14:52.84Z</time></trkpt><trkpt lat="45.083353" lon="8.9051451"><ele>70.0</ele><time>2026-04-03T08:14:53.84Z</time></trkpt><trkpt lat="45.0831614" lon="8.9051114"><ele>70.0</ele><time>2026-04-03T08:14:54.84Z</time></trkpt><trkpt lat="45.0829766" lon="8.9050796"><ele>70.0</ele><time>2026-04-03T08:14:55.84Z</time></trkpt><trkpt lat="45.0827807" lon="8.9050461"><ele>70.0</ele><time>2026-04-03T08:14:56.839Z</time></trkpt><trkpt lat="45.082591" lon="8.9050126"><ele>70.33333333333333</ele><time>2026-04-03T08:14:57.839Z</time></trkpt><trkpt lat="45.0824024" lon="8.9049769"><ele>70.66666666666667</ele><time>2026-04-03T08:14:58.839Z</time></trkpt><trkpt lat="45.0822143" lon="8.9049384"><ele>71.0</ele><time>2026-04-03T08:14:59.84Z</time></trkpt><trkpt lat="45.0820268" lon="8.9048985"><ele>71.0</ele><time>2026-04-03T08:15:00.84Z</time></trkpt><trkpt lat="45.0818393" lon="8.9048587"><ele>71.0</ele><time>2026-04-03T08:15:01.84Z</time></trkpt><trkpt lat="45.0816518" lon="8.904821"><ele>71.0</ele><time>2026-04-03T08:15:02.84Z</time></trkpt><trkpt lat="45.0814706" lon="8.9047862"><ele>70.33333333333334</ele><time>2026-04-03T08:15:03.84Z</time></trkpt><trkpt lat="45.0812779" lon="8.90475"><ele>69.66666666666667</ele><time>2026-04-03T08:15:04.839Z</time></trkpt><trkpt lat="45.0810913" lon="8.9047142"><ele>69.0</ele><time>2026-04-03T08:15:05.839Z</time></trkpt><trkpt lat="45.0809057" lon="8.9046786"><ele>69.33333333333333</ele><time>2026-04-03T08:15:06.84Z</time></trkpt><trkpt lat="45.0807206" lon="8.9046424"><ele>69.66666666666666</ele><time>2026-04-03T08:15:07.84Z</time></trkpt><trkpt lat="45.080536" lon="8.9046071"><ele>70.0</ele><time>2026-04-03T08:15:08.84Z</time></trkpt><trkpt lat="45.0803513" lon="8.9045738"><ele>70.0</ele><time>2026-04-03T08:15:09.839Z</time></trkpt><trkpt lat="45.0801671" lon="8.9045417"><ele>70.0</ele><time>2026-04-03T08:15:10.839Z</time></trkpt><trkpt lat="45.079989" lon="8.9045109"><ele>70.0</ele><time>2026-04-03T08:15:11.84Z</time></trkpt><trkpt lat="45.0797999" lon="8.9044776"><ele>69.66666666666666</ele><time>2026-04-03T08:15:12.84Z</time></trkpt><trkpt lat="45.0796169" lon="8.9044442"><ele>69.33333333333333</ele><time>2026-04-03T08:15:13.84Z</time></trkpt><trkpt lat="45.079434" lon="8.9044106"><ele>69.0</ele><time>2026-04-03T08:15:14.84Z</time></trkpt><trkpt lat="45.0792519" lon="8.9043772"><ele>69.66666666666667</ele><time>2026-04-03T08:15:15.839Z</time></trkpt><trkpt lat="45.0790697" lon="8.9043434"><ele>70.33333333333334</ele><time>2026-04-03T08:15:16.84Z</time></trkpt><trkpt lat="45.0788887" lon="8.9043095"><ele>71.0</ele><time>2026-04-03T08:15:17.84Z</time></trkpt><trkpt lat="45.078707" lon="8.9042759"><ele>71.0</ele><time>2026-04-03T08:15:18.84Z</time></trkpt><trkpt lat="45.0785307" lon="8.9042429"><ele>71.0</ele><time>2026-04-03T08:15:19.84Z</time></trkpt><trkpt lat="45.0783437" lon="8.9042079"><ele>71.0</ele><time>2026-04-03T08:15:20.839Z</time></trkpt><trkpt lat="45.0781622" lon="8.9041729"><ele>71.0</ele><time>2026-04-03T08:15:21.84Z</time></trkpt><trkpt lat="45.0779805" lon="8.9041378"><ele>71.0</ele><time>2026-04-03T08:15:22.839Z</time></trkpt><trkpt lat="45.0777991" lon="8.9041036"><ele>71.0</ele><time>2026-04-03T08:15:23.84Z</time></trkpt><trkpt lat="45.0776174" lon="8.9040707"><ele>71.0</ele><time>2026-04-03T08:15:24.84Z</time></trkpt><trkpt lat="45.0774372" lon="8.9040374"><ele>71.0</ele><time>2026-04-03T08:15:25.84Z</time></trkpt><trkpt lat="45.0772577" lon="8.9040019"><ele>71.0</ele><time>2026-04-03T08:15:26.84Z</time></trkpt><trkpt lat="45.0770839" lon="8.903968"><ele>71.0</ele><time>2026-04-03T08:15:27.84Z</time></trkpt><trkpt lat="45.0768985" lon="8.9039327"><ele>71.0</ele><time>2026-04-03T08:15:28.84Z</time></trkpt><trkpt lat="45.0767183" lon="8.9039"><ele>71.0</ele><time>2026-04-03T08:15:29.839Z</time></trkpt><trkpt lat="45.0765372" lon="8.9038676"><ele>71.0</ele><time>2026-04-03T08:15:30.839Z</time></trkpt><trkpt lat="45.0763554" lon="8.9038341"><ele>71.0</ele><time>2026-04-03T08:15:31.84Z</time></trkpt><trkpt lat="45.076173" lon="8.9037997"><ele>71.0</ele><time>2026-04-03T08:15:32.839Z</time></trkpt><trkpt lat="45.0759906" lon="8.9037649"><ele>71.0</ele><time>2026-04-03T08:15:33.84Z</time></trkpt><trkpt lat="45.0758077" lon="8.9037304"><ele>71.0</ele><time>2026-04-03T08:15:34.84Z</time></trkpt><trkpt lat="45.0756304" lon="8.9036981"><ele>71.0</ele><time>2026-04-03T08:15:35.839Z</time></trkpt><trkpt lat="45.0754404" lon="8.903664"><ele>71.0</ele><time>2026-04-03T08:15:36.84Z</time></trkpt><trkpt lat="45.075257" lon="8.9036312"><ele>71.0</ele><time>2026-04-03T08:15:37.84Z</time></trkpt><trkpt lat="45.0750738" lon="8.903598"><ele>71.0</ele><time>2026-04-03T08:15:38.839Z</time></trkpt><trkpt lat="45.0748931" lon="8.9035648"><ele>71.0</ele><time>2026-04-03T08:15:39.84Z</time></trkpt><trkpt lat="45.0747156" lon="8.9035315"><ele>71.0</ele><time>2026-04-03T08:15:40.84Z</time></trkpt><trkpt lat="45.0745407" lon="8.9034979"><ele>71.0</ele><time>2026-04-03T08:15:41.84Z</time></trkpt><trkpt lat="45.0743669" lon="8.9034639"><ele>71.0</ele><time>2026-04-03T08:15:42.84Z</time></trkpt><trkpt lat="45.0742017" lon="8.9034323"><ele>71.0</ele><time>2026-04-03T08:15:43.84Z</time></trkpt><trkpt lat="45.0740277" lon="8.9034013"><ele>71.0</ele><time>2026-04-03T08:15:44.84Z</time></trkpt><trkpt lat="45.0738609" lon="8.9033718"><ele>70.66666666666667</ele><time>2026-04-03T08:15:45.84Z</time></trkpt><trkpt lat="45.0736997" lon="8.9033422"><ele>70.33333333333333</ele><time>2026-04-03T08:15:46.84Z</time></trkpt><trkpt lat="45.0735302" lon="8.9033088"><ele>70.0</ele><time>2026-04-03T08:15:47.84Z</time></trkpt><trkpt lat="45.0733643" lon="8.9032779"><ele>69.66666666666666</ele><time>2026-04-03T08:15:48.839Z</time></trkpt><trkpt lat="45.0731993" lon="8.9032471"><ele>69.33333333333333</ele><time>2026-04-03T08:15:49.839Z</time></trkpt><trkpt lat="45.0730321" lon="8.9032167"><ele>69.0</ele><time>2026-04-03T08:15:50.839Z</time></trkpt><trkpt lat="45.0728705" lon="8.9031875"><ele>69.0</ele><time>2026-04-03T08:15:51.839Z</time></trkpt><trkpt lat="45.072699" lon="8.9031562"><ele>69.0</ele><time>2026-04-03T08:15:52.84Z</time></trkpt><trkpt lat="45.072532" lon="8.9031261"><ele>69.0</ele><time>2026-04-03T08:15:53.839Z</time></trkpt><trkpt lat="45.0723729" lon="8.903097"><ele>69.66666666666667</ele><time>2026-04-03T08:15:54.84Z</time></trkpt><trkpt lat="45.0722068" lon="8.9030675"><ele>70.33333333333334</ele><time>2026-04-03T08:15:55.84Z</time></trkpt><trkpt lat="45.0720546" lon="8.9030399"><ele>71.0</ele><time>2026-04-03T08:15:56.84Z</time></trkpt><trkpt lat="45.0719068" lon="8.9030118"><ele>71.0</ele><time>2026-04-03T08:15:57.84Z</time></trkpt><trkpt lat="45.0717626" lon="8.9029812"><ele>71.0</ele><time>2026-04-03T08:15:58.839Z</time></trkpt><trkpt lat="45.0716235" lon="8.90295"><ele>71.0</ele><time>2026-04-03T08:15:59.84Z</time></trkpt><trkpt lat="45.0714766" lon="8.9029175"><ele>71.0</ele><time>2026-04-03T08:16:00.84Z</time></trkpt><trkpt lat="45.0713294" lon="8.9028889"><ele>70.66666666666667</ele><time>2026-04-03T08:16:01.84Z</time></trkpt><trkpt lat="45.0711809" lon="8.9028621"><ele>70.33333333333333</ele><time>2026-04-03T08:16:02.839Z</time></trkpt><trkpt lat="45.0710178" lon="8.9028321"><ele>70.0</ele><time>2026-04-03T08:16:03.839Z</time></trkpt><trkpt lat="45.0708517" lon="8.902801"><ele>69.66666666666666</ele><time>2026-04-03T08:16:04.839Z</time></trkpt><trkpt lat="45.0706811" lon="8.9027682"><ele>69.33333333333333</ele><time>2026-04-03T08:16:05.84Z</time></trkpt><trkpt lat="45.0705091" lon="8.9027355"><ele>69.0</ele><time>2026-04-03T08:16:06.84Z</time></trkpt><trkpt lat="45.0703291" lon="8.9027029"><ele>69.0</ele><time>2026-04-03T08:16:07.839Z</time></trkpt><trkpt lat="45.0701388" lon="8.902668"><ele>69.0</ele><time>2026-04-03T08:16:08.84Z</time></trkpt><trkpt lat="45.0699501" lon="8.9026331"><ele>69.0</ele><time>2026-04-03T08:16:09.84Z</time></trkpt><trkpt lat="45.0697618" lon="8.9025975"><ele>69.66666666666667</ele><time>2026-04-03T08:16:10.839Z</time></trkpt><trkpt lat="45.0695736" lon="8.9025617"><ele>70.33333333333334</ele><time>2026-04-03T08:16:11.84Z</time></trkpt><trkpt lat="45.0693855" lon="8.9025275"><ele>71.0</ele><time>2026-04-03T08:16:12.84Z</time></trkpt><trkpt lat="45.0691981" lon="8.9024941"><ele>71.33333333333334</ele><time>2026-04-03T08:16:13.84Z</time></trkpt><trkpt lat="45.0690168" lon="8.9024619"><ele>71.66666666666667</ele><time>2026-04-03T08:16:14.839Z</time></trkpt><trkpt lat="45.0688354" lon="8.9024301"><ele>72.0</ele><time>2026-04-03T08:16:15.84Z</time></trkpt><trkpt lat="45.0686587" lon="8.9024042"><ele>72.0</ele><time>2026-04-03T08:16:16.839Z</time></trkpt><trkpt lat="45.0684999" lon="8.902388"><ele>72.0</ele><time>2026-04-03T08:16:17.84Z</time></trkpt><trkpt lat="45.0683528" lon="8.9023804"><ele>72.0</ele><time>2026-04-03T08:16:18.84Z</time></trkpt><trkpt lat="45.0682244" lon="8.9023764"><ele>72.0</ele><time>2026-04-03T08:16:19.84Z</time></trkpt><trkpt lat="45.0681072" lon="8.9023715"><ele>72.0</ele><time>2026-04-03T08:16:20.839Z</time></trkpt><trkpt lat="45.0679942" lon="8.9023671"><ele>72.0</ele><time>2026-04-03T08:16:21.839Z</time></trkpt><trkpt lat="45.0678874" lon="8.90237"><ele>72.0</ele><time>2026-04-03T08:16:22.84Z</time></trkpt><trkpt lat="45.0677803" lon="8.9023837"><ele>72.0</ele><time>2026-04-03T08:16:23.84Z</time></trkpt><trkpt lat="45.0676743" lon="8.9024056"><ele>72.0</ele><time>2026-04-03T08:16:24.84Z</time></trkpt><trkpt lat="45.0675693" lon="8.9024324"><ele>72.0</ele><time>2026-04-03T08:16:25.84Z</time></trkpt><trkpt lat="45.0674615" lon="8.9024633"><ele>72.0</ele><time>2026-04-03T08:16:26.839Z</time></trkpt><trkpt lat="45.0673507" lon="8.9024962"><ele>72.0</ele><time>2026-04-03T08:16:27.84Z</time></trkpt><trkpt lat="45.0672367" lon="8.9025309"><ele>72.0</ele><time>2026-04-03T08:16:28.84Z</time></trkpt><trkpt lat="45.0671218" lon="8.9025674"><ele>72.25</ele><time>2026-04-03T08:16:29.84Z</time></trkpt><trkpt lat="45.0670091" lon="8.9026069"><ele>72.5</ele><time>2026-04-03T08:16:30.84Z</time></trkpt><trkpt lat="45.0668935" lon="8.9026529"><ele>72.75</ele><time>2026-04-03T08:16:31.84Z</time></trkpt><trkpt lat="45.0667732" lon="8.9027057"><ele>73.0</ele><time>2026-04-03T08:16:32.84Z</time></trkpt><trkpt lat="45.0666551" lon="8.9027559"><ele>72.75</ele><time>2026-04-03T08:16:33.839Z</time></trkpt><trkpt lat="45.0665357" lon="8.9028061"><ele>72.5</ele><time>2026-04-03T08:16:34.84Z</time></trkpt><trkpt lat="45.0664143" lon="8.9028541"><ele>72.25</ele><time>2026-04-03T08:16:35.84Z</time></trkpt><trkpt lat="45.0662933" lon="8.9029028"><ele>72.0</ele><time>2026-04-03T08:16:36.839Z</time></trkpt><trkpt lat="45.0661719" lon="8.9029528"><ele>72.0</ele><time>2026-04-03T08:16:37.84Z</time></trkpt><trkpt lat="45.0660512" lon="8.9030047"><ele>72.0</ele><time>2026-04-03T08:16:38.84Z</time></trkpt><trkpt lat="45.0659341" lon="8.903057"><ele>72.0</ele><time>2026-04-03T08:16:39.84Z</time></trkpt><trkpt lat="45.0658083" lon="8.9031128"><ele>72.0</ele><time>2026-04-03T08:16:40.839Z</time></trkpt><trkpt lat="45.0656868" lon="8.9031663"><ele>71.5</ele><time>2026-04-03T08:16:41.84Z</time></trkpt><trkpt lat="45.0655675" lon="8.9032162"><ele>71.0</ele><time>2026-04-03T08:16:42.84Z</time></trkpt><trkpt lat="45.0654411" lon="8.903267"><ele>70.5</ele><time>2026-04-03T08:16:43.84Z</time></trkpt><trkpt lat="45.0653189" lon="8.9033155"><ele>70.0</ele><time>2026-04-03T08:16:44.84Z</time></trkpt><trkpt lat="45.0651966" lon="8.9033647"><ele>70.0</ele><time>2026-04-03T08:16:45.839Z</time></trkpt><trkpt lat="45.0650774" lon="8.9034116"><ele>70.0</ele><time>2026-04-03T08:16:46.84Z</time></trkpt><trkpt lat="45.0649547" lon="8.9034598"><ele>70.0</ele><time>2026-04-03T08:16:47.84Z</time></trkpt><trkpt lat="45.0648285" lon="8.9035133"><ele>70.0</ele><time>2026-04-03T08:16:48.839Z</time></trkpt><trkpt lat="45.0647073" lon="8.9035687"><ele>69.0</ele><time>2026-04-03T08:16:49.839Z</time></trkpt><trkpt lat="45.0645924" lon="8.903622"><ele>68.0</ele><time>2026-04-03T08:16:50.84Z</time></trkpt><trkpt lat="45.0644679" lon="8.903679"><ele>67.0</ele><time>2026-04-03T08:16:51.839Z</time></trkpt><trkpt lat="45.0643455" lon="8.9037334"><ele>66.0</ele><time>2026-04-03T08:16:52.839Z</time></trkpt><trkpt lat="45.0642224" lon="8.9037872"><ele>66.5</ele><time>2026-04-03T08:16:53.84Z</time></trkpt><trkpt lat="45.0641022" lon="8.9038382"><ele>67.0</ele><time>2026-04-03T08:16:54.84Z</time></trkpt><trkpt lat="45.0639765" lon="8.9038908"><ele>67.5</ele><time>2026-04-03T08:16:55.84Z</time></trkpt><trkpt lat="45.0638453" lon="8.9039442"><ele>68.0</ele><time>2026-04-03T08:16:56.839Z</time></trkpt><trkpt lat="45.0637174" lon="8.9039944"><ele>68.0</ele><time>2026-04-03T08:16:57.84Z</time></trkpt><trkpt lat="45.0635942" lon="8.9040431"><ele>68.0</ele><time>2026-04-03T08:16:58.84Z</time></trkpt><trkpt lat="45.0634614" lon="8.9040959"><ele>68.0</ele><time>2026-04-03T08:16:59.84Z</time></trkpt><trkpt lat="45.0633344" lon="8.9041503"><ele>68.0</ele><time>2026-04-03T08:17:00.84Z</time></trkpt><trkpt lat="45.0632066" lon="8.9042062"><ele>67.0</ele><time>2026-04-03T08:17:01.839Z</time></trkpt><trkpt lat="45.0630821" lon="8.9042614"><ele>66.0</ele><time>2026-04-03T08:17:02.84Z</time></trkpt><trkpt lat="45.0629522" lon="8.904316"><ele>65.0</ele><time>2026-04-03T08:17:03.84Z</time></trkpt><trkpt lat="45.0628178" lon="8.9043713"><ele>64.0</ele><time>2026-04-03T08:17:04.84Z</time></trkpt><trkpt lat="45.0626871" lon="8.9044265"><ele>64.0</ele><time>2026-04-03T08:17:05.839Z</time></trkpt><trkpt lat="45.0625578" lon="8.9044809"><ele>64.0</ele><time>2026-04-03T08:17:06.839Z</time></trkpt><trkpt lat="45.0624182" lon="8.9045382"><ele>64.0</ele><time>2026-04-03T08:17:07.839Z</time></trkpt><trkpt lat="45.0622821" lon="8.9045954"><ele>64.0</ele><time>2026-04-03T08:17:08.839Z</time></trkpt><trkpt lat="45.0621446" lon="8.9046528"><ele>64.5</ele><time>2026-04-03T08:17:09.84Z</time></trkpt><trkpt lat="45.0620146" lon="8.9047075"><ele>65.0</ele><time>2026-04-03T08:17:10.839Z</time></trkpt><trkpt lat="45.0618808" lon="8.9047647"><ele>65.5</ele><time>2026-04-03T08:17:11.839Z</time></trkpt><trkpt lat="45.0617428" lon="8.9048252"><ele>66.0</ele><time>2026-04-03T08:17:12.84Z</time></trkpt><trkpt lat="45.0615955" lon="8.9048904"><ele>67.0</ele><time>2026-04-03T08:17:13.84Z</time></trkpt><trkpt lat="45.0614459" lon="8.9049556"><ele>68.0</ele><time>2026-04-03T08:17:14.84Z</time></trkpt><trkpt lat="45.0612777" lon="8.9050251"><ele>69.0</ele><time>2026-04-03T08:17:15.839Z</time></trkpt><trkpt lat="45.0611075" lon="8.9050944"><ele>69.0</ele><time>2026-04-03T08:17:16.84Z</time></trkpt><trkpt lat="45.0609395" lon="8.9051643"><ele>69.0</ele><time>2026-04-03T08:17:17.839Z</time></trkpt><trkpt lat="45.0607777" lon="8.9052327"><ele>69.0</ele><time>2026-04-03T08:17:18.84Z</time></trkpt><trkpt lat="45.0606121" lon="8.9053049"><ele>68.33333333333333</ele><time>2026-04-03T08:17:19.84Z</time></trkpt><trkpt lat="45.0604408" lon="8.9053778"><ele>67.66666666666666</ele><time>2026-04-03T08:17:20.839Z</time></trkpt><trkpt lat="45.0602758" lon="8.9054464"><ele>67.0</ele><time>2026-04-03T08:17:21.839Z</time></trkpt><trkpt lat="45.060115" lon="8.905512"><ele>68.66666666666666</ele><time>2026-04-03T08:17:22.839Z</time></trkpt><trkpt lat="45.0599448" lon="8.905583"><ele>70.33333333333333</ele><time>2026-04-03T08:17:23.84Z</time></trkpt><trkpt lat="45.0597817" lon="8.9056549"><ele>72.0</ele><time>2026-04-03T08:17:24.84Z</time></trkpt><trkpt lat="45.0596192" lon="8.9057258"><ele>72.0</ele><time>2026-04-03T08:17:25.84Z</time></trkpt><trkpt lat="45.059458" lon="8.9057953"><ele>72.0</ele><time>2026-04-03T08:17:26.839Z</time></trkpt><trkpt lat="45.0592951" lon="8.905866"><ele>72.0</ele><time>2026-04-03T08:17:27.84Z</time></trkpt><trkpt lat="45.0591274" lon="8.9059387"><ele>72.66666666666667</ele><time>2026-04-03T08:17:28.84Z</time></trkpt><trkpt lat="45.0589654" lon="8.9060078"><ele>73.33333333333334</ele><time>2026-04-03T08:17:29.839Z</time></trkpt><trkpt lat="45.0588087" lon="8.9060725"><ele>74.0</ele><time>2026-04-03T08:17:30.839Z</time></trkpt><trkpt lat="45.0586443" lon="8.9061401"><ele>74.0</ele><time>2026-04-03T08:17:31.839Z</time></trkpt><trkpt lat="45.0584876" lon="8.9062052"><ele>74.0</ele><time>2026-04-03T08:17:32.839Z</time></trkpt><trkpt lat="45.0583334" lon="8.9062702"><ele>74.0</ele><time>2026-04-03T08:17:33.839Z</time></trkpt><trkpt lat="45.0581829" lon="8.9063336"><ele>73.66666666666667</ele><time>2026-04-03T08:17:34.84Z</time></trkpt><trkpt lat="45.0580237" lon="8.9063992"><ele>73.33333333333333</ele><time>2026-04-03T08:17:35.84Z</time></trkpt><trkpt lat="45.0578564" lon="8.9064671"><ele>73.0</ele><time>2026-04-03T08:17:36.84Z</time></trkpt><trkpt lat="45.0576892" lon="8.9065359"><ele>73.0</ele><time>2026-04-03T08:17:37.84Z</time></trkpt><trkpt lat="45.0575228" lon="8.9066044"><ele>73.0</ele><time>2026-04-03T08:17:38.84Z</time></trkpt><trkpt lat="45.0573427" lon="8.9066803"><ele>73.0</ele><time>2026-04-03T08:17:39.84Z</time></trkpt><trkpt lat="45.0571643" lon="8.9067521"><ele>73.0</ele><time>2026-04-03T08:17:40.84Z</time></trkpt><trkpt lat="45.0569834" lon="8.9068265"><ele>73.0</ele><time>2026-04-03T08:17:41.839Z</time></trkpt><trkpt lat="45.0568075" lon="8.9069012"><ele>73.0</ele><time>2026-04-03T08:17:42.84Z</time></trkpt><trkpt lat="45.056624" lon="8.9069802"><ele>73.33333333333333</ele><time>2026-04-03T08:17:43.84Z</time></trkpt><trkpt lat="45.0564343" lon="8.9070616"><ele>73.66666666666667</ele><time>2026-04-03T08:17:44.839Z</time></trkpt><trkpt lat="45.0562559" lon="8.907137"><ele>74.0</ele><time>2026-04-03T08:17:45.84Z</time></trkpt><trkpt lat="45.0560914" lon="8.9072067"><ele>74.0</ele><time>2026-04-03T08:17:46.84Z</time></trkpt><trkpt lat="45.0559261" lon="8.9072779"><ele>74.0</ele><time>2026-04-03T08:17:47.84Z</time></trkpt><trkpt lat="45.0557712" lon="8.9073448"><ele>74.0</ele><time>2026-04-03T08:17:48.84Z</time></trkpt><trkpt lat="45.0556149" lon="8.9074124"><ele>73.66666666666667</ele><time>2026-04-03T08:17:49.84Z</time></trkpt><trkpt lat="45.0554609" lon="8.9074792"><ele>73.33333333333333</ele><time>2026-04-03T08:17:50.84Z</time></trkpt><trkpt lat="45.0552995" lon="8.9075485"><ele>73.0</ele><time>2026-04-03T08:17:51.84Z</time></trkpt><trkpt lat="45.0551322" lon="8.9076197"><ele>72.33333333333333</ele><time>2026-04-03T08:17:52.84Z</time></trkpt><trkpt lat="45.0549722" lon="8.9076874"><ele>71.66666666666667</ele><time>2026-04-03T08:17:53.84Z</time></trkpt><trkpt lat="45.0548175" lon="8.9077515"><ele>71.0</ele><time>2026-04-03T08:17:54.84Z</time></trkpt><trkpt lat="45.0546517" lon="8.9078193"><ele>71.0</ele><time>2026-04-03T08:17:55.839Z</time></trkpt><trkpt lat="45.0544899" lon="8.9078868"><ele>71.0</ele><time>2026-04-03T08:17:56.84Z</time></trkpt><trkpt lat="45.0543281" lon="8.907955"><ele>71.0</ele><time>2026-04-03T08:17:57.84Z</time></trkpt><trkpt lat="45.054172" lon="8.9080217"><ele>71.66666666666667</ele><time>2026-04-03T08:17:58.84Z</time></trkpt><trkpt lat="45.0540086" lon="8.9080909"><ele>72.33333333333333</ele><time>2026-04-03T08:17:59.84Z</time></trkpt><trkpt lat="45.0538371" lon="8.9081632"><ele>73.0</ele><time>2026-04-03T08:18:00.84Z</time></trkpt><trkpt lat="45.0536677" lon="8.9082336"><ele>73.0</ele><time>2026-04-03T08:18:01.839Z</time></trkpt><trkpt lat="45.0535035" lon="8.9082998"><ele>73.0</ele><time>2026-04-03T08:18:02.84Z</time></trkpt><trkpt lat="45.0533306" lon="8.9083656"><ele>73.0</ele><time>2026-04-03T08:18:03.84Z</time></trkpt><trkpt lat="45.053163" lon="8.9084245"><ele>72.66666666666666</ele><time>2026-04-03T08:18:04.84Z</time></trkpt><trkpt lat="45.0529947" lon="8.9084776"><ele>72.33333333333333</ele><time>2026-04-03T08:18:05.84Z</time></trkpt><trkpt lat="45.0528319" lon="8.908524"><ele>72.0</ele><time>2026-04-03T08:18:06.839Z</time></trkpt><trkpt lat="45.0526625" lon="8.9085658"><ele>72.0</ele><time>2026-04-03T08:18:07.84Z</time></trkpt><trkpt lat="45.0524856" lon="8.9086025"><ele>72.0</ele><time>2026-04-03T08:18:08.84Z</time></trkpt><trkpt lat="45.0523112" lon="8.9086315"><ele>72.0</ele><time>2026-04-03T08:18:09.84Z</time></trkpt><trkpt lat="45.0521394" lon="8.908653"><ele>72.33333333333333</ele><time>2026-04-03T08:18:10.84Z</time></trkpt><trkpt lat="45.0519534" lon="8.9086687"><ele>72.66666666666666</ele><time>2026-04-03T08:18:11.84Z</time></trkpt><trkpt lat="45.0517704" lon="8.9086757"><ele>73.0</ele><time>2026-04-03T08:18:12.84Z</time></trkpt><trkpt lat="45.0515851" lon="8.9086774"><ele>72.33333333333333</ele><time>2026-04-03T08:18:13.84Z</time></trkpt><trkpt lat="45.0514038" lon="8.9086735"><ele>71.66666666666667</ele><time>2026-04-03T08:18:14.839Z</time></trkpt><trkpt lat="45.0512149" lon="8.9086608"><ele>71.0</ele><time>2026-04-03T08:18:15.84Z</time></trkpt><trkpt lat="45.0510184" lon="8.908637"><ele>71.0</ele><time>2026-04-03T08:18:16.84Z</time></trkpt><trkpt lat="45.0508263" lon="8.9086067"><ele>71.0</ele><time>2026-04-03T08:18:17.839Z</time></trkpt><trkpt lat="45.0506387" lon="8.9085774"><ele>71.0</ele><time>2026-04-03T08:18:18.84Z</time></trkpt><trkpt lat="45.0504382" lon="8.9085468"><ele>71.33333333333334</ele><time>2026-04-03T08:18:19.839Z</time></trkpt><trkpt lat="45.050245" lon="8.9085176"><ele>71.66666666666667</ele><time>2026-04-03T08:18:20.84Z</time></trkpt><trkpt lat="45.0500551" lon="8.9084887"><ele>72.0</ele><time>2026-04-03T08:18:21.84Z</time></trkpt><trkpt lat="45.0498741" lon="8.9084613"><ele>72.0</ele><time>2026-04-03T08:18:22.839Z</time></trkpt><trkpt lat="45.0496901" lon="8.9084336"><ele>72.0</ele><time>2026-04-03T08:18:23.839Z</time></trkpt><trkpt lat="45.0495035" lon="8.9084047"><ele>72.0</ele><time>2026-04-03T08:18:24.84Z</time></trkpt><trkpt lat="45.0493296" lon="8.9083785"><ele>72.0</ele><time>2026-04-03T08:18:25.84Z</time></trkpt><trkpt lat="45.0491706" lon="8.908355"><ele>72.0</ele><time>2026-04-03T08:18:26.84Z</time></trkpt><trkpt lat="45.04901" lon="8.908331"><ele>72.0</ele><time>2026-04-03T08:18:27.84Z</time></trkpt><trkpt lat="45.0488581" lon="8.9083079"><ele>72.25</ele><time>2026-04-03T08:18:28.84Z</time></trkpt><trkpt lat="45.0487072" lon="8.9082858"><ele>72.5</ele><time>2026-04-03T08:18:29.84Z</time></trkpt><trkpt lat="45.0485627" lon="8.9082639"><ele>72.75</ele><time>2026-04-03T08:18:30.84Z</time></trkpt><trkpt lat="45.0484133" lon="8.9082399"><ele>73.0</ele><time>2026-04-03T08:18:31.839Z</time></trkpt><trkpt lat="45.0482619" lon="8.9082148"><ele>73.75</ele><time>2026-04-03T08:18:32.84Z</time></trkpt><trkpt lat="45.0481265" lon="8.9081926"><ele>74.5</ele><time>2026-04-03T08:18:33.839Z</time></trkpt><trkpt lat="45.0480098" lon="8.9081718"><ele>75.25</ele><time>2026-04-03T08:18:34.84Z</time></trkpt><trkpt lat="45.0479002" lon="8.90815"><ele>76.0</ele><time>2026-04-03T08:18:35.839Z</time></trkpt><trkpt lat="45.0478153" lon="8.9081322"><ele>76.0</ele><time>2026-04-03T08:18:36.84Z</time></trkpt><trkpt lat="45.0477522" lon="8.9081199"><ele>76.0</ele><time>2026-04-03T08:18:37.84Z</time></trkpt><trkpt lat="45.0476859" lon="8.9081004"><ele>76.0</ele><time>2026-04-03T08:18:40.839Z</time></trkpt><trkpt lat="45.0476082" lon="8.9080877"><ele>76.0</ele><time>2026-04-03T08:26:07.863Z</time></trkpt><trkpt lat="45.0474815" lon="8.9080927"><ele>76.0</ele><time>2026-04-03T08:26:09.863Z</time></trkpt><trkpt lat="45.047399" lon="8.9080823"><ele>76.0</ele><time>2026-04-03T08:26:10.864Z</time></trkpt><trkpt lat="45.0473035" lon="8.9080684"><ele>75.75</ele><time>2026-04-03T08:26:11.864Z</time></trkpt><trkpt lat="45.0471977" lon="8.908054"><ele>75.5</ele><time>2026-04-03T08:26:12.864Z</time></trkpt><trkpt lat="45.0470843" lon="8.9080377"><ele>75.25</ele><time>2026-04-03T08:26:13.864Z</time></trkpt><trkpt lat="45.0469637" lon="8.9080205"><ele>75.0</ele><time>2026-04-03T08:26:14.864Z</time></trkpt><trkpt lat="45.0468416" lon="8.9080048"><ele>75.0</ele><time>2026-04-03T08:26:15.864Z</time></trkpt><trkpt lat="45.0467055" lon="8.9079842"><ele>75.0</ele><time>2026-04-03T08:26:16.864Z</time></trkpt><trkpt lat="45.0465683" lon="8.9079663"><ele>75.0</ele><time>2026-04-03T08:26:17.863Z</time></trkpt><trkpt lat="45.04642" lon="8.907943"><ele>75.0</ele><time>2026-04-03T08:26:18.863Z</time></trkpt><trkpt lat="45.0462691" lon="8.9079197"><ele>75.0</ele><time>2026-04-03T08:26:19.864Z</time></trkpt><trkpt lat="45.0461175" lon="8.9078923"><ele>75.0</ele><time>2026-04-03T08:26:20.864Z</time></trkpt><trkpt lat="45.0459659" lon="8.9078689"><ele>75.0</ele><time>2026-04-03T08:26:21.864Z</time></trkpt><trkpt lat="45.0458133" lon="8.9078493"><ele>74.66666666666667</ele><time>2026-04-03T08:26:22.864Z</time></trkpt><trkpt lat="45.0456582" lon="8.9078278"><ele>74.33333333333334</ele><time>2026-04-03T08:26:23.863Z</time></trkpt><trkpt lat="45.0454999" lon="8.9078061"><ele>74.0</ele><time>2026-04-03T08:26:24.864Z</time></trkpt><trkpt lat="45.0453366" lon="8.9077815"><ele>74.0</ele><time>2026-04-03T08:26:25.864Z</time></trkpt><trkpt lat="45.0451726" lon="8.9077531"><ele>74.0</ele><time>2026-04-03T08:26:26.863Z</time></trkpt><trkpt lat="45.0450007" lon="8.9077233"><ele>74.0</ele><time>2026-04-03T08:26:27.864Z</time></trkpt><trkpt lat="45.0448225" lon="8.9076933"><ele>74.33333333333334</ele><time>2026-04-03T08:26:28.864Z</time></trkpt><trkpt lat="45.0446443" lon="8.9076678"><ele>74.66666666666667</ele><time>2026-04-03T08:26:29.864Z</time></trkpt><trkpt lat="45.0444642" lon="8.90764"><ele>75.0</ele><time>2026-04-03T08:26:30.863Z</time></trkpt><trkpt lat="45.0442833" lon="8.9076119"><ele>74.0</ele><time>2026-04-03T08:26:31.864Z</time></trkpt><trkpt lat="45.0441029" lon="8.9075839"><ele>73.0</ele><time>2026-04-03T08:26:32.863Z</time></trkpt><trkpt lat="45.0439249" lon="8.9075565"><ele>72.0</ele><time>2026-04-03T08:26:33.864Z</time></trkpt><trkpt lat="45.0437542" lon="8.9075287"><ele>72.0</ele><time>2026-04-03T08:26:34.864Z</time></trkpt><trkpt lat="45.0435907" lon="8.9075049"><ele>72.0</ele><time>2026-04-03T08:26:35.864Z</time></trkpt><trkpt lat="45.04343" lon="8.9074773"><ele>72.0</ele><time>2026-04-03T08:26:36.864Z</time></trkpt><trkpt lat="45.0432707" lon="8.9074562"><ele>72.0</ele><time>2026-04-03T08:26:37.863Z</time></trkpt><trkpt lat="45.043115" lon="8.9074321"><ele>72.0</ele><time>2026-04-03T08:26:38.863Z</time></trkpt><trkpt lat="45.0429605" lon="8.9074008"><ele>72.0</ele><time>2026-04-03T08:26:39.863Z</time></trkpt><trkpt lat="45.0428107" lon="8.9073646"><ele>72.0</ele><time>2026-04-03T08:26:40.864Z</time></trkpt><trkpt lat="45.042667" lon="8.9073212"><ele>72.0</ele><time>2026-04-03T08:26:41.863Z</time></trkpt><trkpt lat="45.0425265" lon="8.9072742"><ele>72.0</ele><time>2026-04-03T08:26:42.863Z</time></trkpt><trkpt lat="45.0423894" lon="8.9072241"><ele>72.0</ele><time>2026-04-03T08:26:43.864Z</time></trkpt><trkpt lat="45.0422519" lon="8.9071626"><ele>72.5</ele><time>2026-04-03T08:26:44.863Z</time></trkpt><trkpt lat="45.0421243" lon="8.9070977"><ele>73.0</ele><time>2026-04-03T08:26:45.863Z</time></trkpt><trkpt lat="45.0420112" lon="8.9070325"><ele>73.5</ele><time>2026-04-03T08:26:46.864Z</time></trkpt><trkpt lat="45.0419233" lon="8.9069768"><ele>74.0</ele><time>2026-04-03T08:26:47.864Z</time></trkpt><trkpt lat="45.0418358" lon="8.9069095"><ele>74.0</ele><time>2026-04-03T08:26:49.864Z</time></trkpt><trkpt lat="45.0417353" lon="8.9068709"><ele>74.0</ele><time>2026-04-03T08:28:14.864Z</time></trkpt><trkpt lat="45.0416668" lon="8.9068385"><ele>74.0</ele><time>2026-04-03T08:28:15.864Z</time></trkpt><trkpt lat="45.0415925" lon="8.9068015"><ele>74.0</ele><time>2026-04-03T08:28:16.864Z</time></trkpt><trkpt lat="45.0415048" lon="8.9067515"><ele>74.0</ele><time>2026-04-03T08:28:17.864Z</time></trkpt><trkpt lat="45.0414124" lon="8.9066976"><ele>73.75</ele><time>2026-04-03T08:28:18.864Z</time></trkpt><trkpt lat="45.0413109" lon="8.9066431"><ele>73.5</ele><time>2026-04-03T08:28:19.864Z</time></trkpt><trkpt lat="45.0412062" lon="8.9065864"><ele>73.25</ele><time>2026-04-03T08:28:20.864Z</time></trkpt><trkpt lat="45.0410975" lon="8.9065343"><ele>73.0</ele><time>2026-04-03T08:28:21.864Z</time></trkpt><trkpt lat="45.0409844" lon="8.9064904"><ele>73.0</ele><time>2026-04-03T08:28:22.863Z</time></trkpt><trkpt lat="45.0408674" lon="8.9064556"><ele>73.0</ele><time>2026-04-03T08:28:23.863Z</time></trkpt><trkpt lat="45.0407467" lon="8.9064266"><ele>73.0</ele><time>2026-04-03T08:28:24.863Z</time></trkpt><trkpt lat="45.04062" lon="8.906397"><ele>73.0</ele><time>2026-04-03T08:28:25.863Z</time></trkpt><trkpt lat="45.0404896" lon="8.9063713"><ele>73.25</ele><time>2026-04-03T08:28:26.863Z</time></trkpt><trkpt lat="45.0403541" lon="8.9063505"><ele>73.5</ele><time>2026-04-03T08:28:27.863Z</time></trkpt><trkpt lat="45.0402146" lon="8.9063372"><ele>73.75</ele><time>2026-04-03T08:28:28.863Z</time></trkpt><trkpt lat="45.0400727" lon="8.9063386"><ele>74.0</ele><time>2026-04-03T08:28:29.864Z</time></trkpt><trkpt lat="45.0399303" lon="8.9063495"><ele>74.33333333333334</ele><time>2026-04-03T08:28:30.864Z</time></trkpt><trkpt lat="45.039783" lon="8.9063722"><ele>74.66666666666667</ele><time>2026-04-03T08:28:31.863Z</time></trkpt><trkpt lat="45.0396315" lon="8.9063993"><ele>75.0</ele><time>2026-04-03T08:28:32.864Z</time></trkpt><trkpt lat="45.0394813" lon="8.9064367"><ele>75.0</ele><time>2026-04-03T08:28:33.864Z</time></trkpt><trkpt lat="45.0393365" lon="8.9064829"><ele>75.0</ele><time>2026-04-03T08:28:34.864Z</time></trkpt><trkpt lat="45.039195" lon="8.9065388"><ele>75.0</ele><time>2026-04-03T08:28:35.864Z</time></trkpt><trkpt lat="45.039054" lon="8.906604"><ele>75.0</ele><time>2026-04-03T08:28:36.863Z</time></trkpt><trkpt lat="45.0389169" lon="8.9066742"><ele>75.33333333333333</ele><time>2026-04-03T08:28:37.863Z</time></trkpt><trkpt lat="45.0387795" lon="8.9067485"><ele>75.66666666666666</ele><time>2026-04-03T08:28:38.864Z</time></trkpt><trkpt lat="45.0386378" lon="8.9068242"><ele>76.0</ele><time>2026-04-03T08:28:39.863Z</time></trkpt><trkpt lat="45.0384957" lon="8.9069003"><ele>76.0</ele><time>2026-04-03T08:28:40.863Z</time></trkpt><trkpt lat="45.0383523" lon="8.9069809"><ele>76.0</ele><time>2026-04-03T08:28:41.864Z</time></trkpt><trkpt lat="45.0382053" lon="8.9070617"><ele>76.0</ele><time>2026-04-03T08:28:42.864Z</time></trkpt><trkpt lat="45.0380554" lon="8.9071437"><ele>76.0</ele><time>2026-04-03T08:28:43.863Z</time></trkpt><trkpt lat="45.0379051" lon="8.9072308"><ele>76.0</ele><time>2026-04-03T08:28:44.864Z</time></trkpt><trkpt lat="45.0377504" lon="8.9073205"><ele>76.0</ele><time>2026-04-03T08:28:45.864Z</time></trkpt><trkpt lat="45.0375928" lon="8.9074052"><ele>76.0</ele><time>2026-04-03T08:28:46.864Z</time></trkpt><trkpt lat="45.0374335" lon="8.9074876"><ele>76.0</ele><time>2026-04-03T08:28:47.864Z</time></trkpt><trkpt lat="45.0372737" lon="8.9075701"><ele>76.0</ele><time>2026-04-03T08:28:48.863Z</time></trkpt><trkpt lat="45.0371133" lon="8.9076554"><ele>76.0</ele><time>2026-04-03T08:28:49.863Z</time></trkpt><trkpt lat="45.0369522" lon="8.9077421"><ele>76.0</ele><time>2026-04-03T08:28:50.863Z</time></trkpt><trkpt lat="45.0367912" lon="8.9078272"><ele>76.0</ele><time>2026-04-03T08:28:51.863Z</time></trkpt><trkpt lat="45.0366299" lon="8.9079121"><ele>76.0</ele><time>2026-04-03T08:28:52.864Z</time></trkpt><trkpt lat="45.036468" lon="8.9079975"><ele>76.0</ele><time>2026-04-03T08:28:53.863Z</time></trkpt><trkpt lat="45.0363066" lon="8.9080838"><ele>76.0</ele><time>2026-04-03T08:28:54.864Z</time></trkpt><trkpt lat="45.0361455" lon="8.9081684"><ele>76.0</ele><time>2026-04-03T08:28:55.863Z</time></trkpt><trkpt lat="45.0359848" lon="8.9082543"><ele>76.0</ele><time>2026-04-03T08:28:56.864Z</time></trkpt><trkpt lat="45.0358222" lon="8.9083414"><ele>76.0</ele><time>2026-04-03T08:28:57.863Z</time></trkpt><trkpt lat="45.0356588" lon="8.9084283"><ele>75.33333333333333</ele><time>2026-04-03T08:28:58.864Z</time></trkpt><trkpt lat="45.0354972" lon="8.9085159"><ele>74.66666666666667</ele><time>2026-04-03T08:28:59.863Z</time></trkpt><trkpt lat="45.0353352" lon="8.9086021"><ele>74.0</ele><time>2026-04-03T08:29:00.864Z</time></trkpt><trkpt lat="45.0351748" lon="8.9086906"><ele>74.0</ele><time>2026-04-03T08:29:01.863Z</time></trkpt><trkpt lat="45.0350143" lon="8.9087795"><ele>74.0</ele><time>2026-04-03T08:29:02.864Z</time></trkpt><trkpt lat="45.0348526" lon="8.9088648"><ele>74.0</ele><time>2026-04-03T08:29:03.864Z</time></trkpt><trkpt lat="45.0346894" lon="8.9089496"><ele>74.33333333333334</ele><time>2026-04-03T08:29:04.864Z</time></trkpt><trkpt lat="45.0345274" lon="8.90904"><ele>74.66666666666667</ele><time>2026-04-03T08:29:05.864Z</time></trkpt><trkpt lat="45.0343638" lon="8.9091282"><ele>75.0</ele><time>2026-04-03T08:29:06.864Z</time></trkpt><trkpt lat="45.0342012" lon="8.9092166"><ele>74.66666666666667</ele><time>2026-04-03T08:29:07.863Z</time></trkpt><trkpt lat="45.0340388" lon="8.9093043"><ele>74.33333333333334</ele><time>2026-04-03T08:29:08.864Z</time></trkpt><trkpt lat="45.0338785" lon="8.9093931"><ele>74.0</ele><time>2026-04-03T08:29:09.863Z</time></trkpt><trkpt lat="45.0337172" lon="8.9094816"><ele>74.0</ele><time>2026-04-03T08:29:10.864Z</time></trkpt><trkpt lat="45.0335572" lon="8.9095698"><ele>74.0</ele><time>2026-04-03T08:29:11.864Z</time></trkpt><trkpt lat="45.0333983" lon="8.909655"><ele>74.0</ele><time>2026-04-03T08:29:12.864Z</time></trkpt><trkpt lat="45.033239" lon="8.9097418"><ele>73.66666666666667</ele><time>2026-04-03T08:29:13.864Z</time></trkpt><trkpt lat="45.0330808" lon="8.9098283"><ele>73.33333333333333</ele><time>2026-04-03T08:29:14.863Z</time></trkpt><trkpt lat="45.0329234" lon="8.9099142"><ele>73.0</ele><time>2026-04-03T08:29:15.864Z</time></trkpt><trkpt lat="45.032767" lon="8.9099975"><ele>73.0</ele><time>2026-04-03T08:29:16.863Z</time></trkpt><trkpt lat="45.032609" lon="8.9100803"><ele>73.0</ele><time>2026-04-03T08:29:17.864Z</time></trkpt><trkpt lat="45.0324478" lon="8.9101663"><ele>73.0</ele><time>2026-04-03T08:29:18.864Z</time></trkpt><trkpt lat="45.0322866" lon="8.9102515"><ele>73.0</ele><time>2026-04-03T08:29:19.863Z</time></trkpt><trkpt lat="45.0321232" lon="8.9103363"><ele>73.0</ele><time>2026-04-03T08:29:20.864Z</time></trkpt><trkpt lat="45.0319618" lon="8.9104241"><ele>73.0</ele><time>2026-04-03T08:29:21.864Z</time></trkpt><trkpt lat="45.0317978" lon="8.9105163"><ele>73.33333333333333</ele><time>2026-04-03T08:29:22.863Z</time></trkpt><trkpt lat="45.0316315" lon="8.9106059"><ele>73.66666666666667</ele><time>2026-04-03T08:29:23.864Z</time></trkpt><trkpt lat="45.0314658" lon="8.9106942"><ele>74.0</ele><time>2026-04-03T08:29:24.864Z</time></trkpt><trkpt lat="45.0312991" lon="8.910785"><ele>74.0</ele><time>2026-04-03T08:29:25.864Z</time></trkpt><trkpt lat="45.0311323" lon="8.9108773"><ele>74.0</ele><time>2026-04-03T08:29:26.863Z</time></trkpt><trkpt lat="45.0309621" lon="8.9109713"><ele>74.0</ele><time>2026-04-03T08:29:27.863Z</time></trkpt><trkpt lat="45.0307939" lon="8.9110632"><ele>75.0</ele><time>2026-04-03T08:29:28.864Z</time></trkpt><trkpt lat="45.0306327" lon="8.9111517"><ele>76.0</ele><time>2026-04-03T08:29:29.864Z</time></trkpt><trkpt lat="45.0304801" lon="8.9112353"><ele>77.0</ele><time>2026-04-03T08:29:30.864Z</time></trkpt><trkpt lat="45.0303302" lon="8.9113165"><ele>77.0</ele><time>2026-04-03T08:29:31.864Z</time></trkpt><trkpt lat="45.0301808" lon="8.9113971"><ele>77.0</ele><time>2026-04-03T08:29:32.864Z</time></trkpt><trkpt lat="45.0300318" lon="8.9114777"><ele>77.0</ele><time>2026-04-03T08:29:33.864Z</time></trkpt><trkpt lat="45.0298851" lon="8.9115589"><ele>77.0</ele><time>2026-04-03T08:29:34.863Z</time></trkpt><trkpt lat="45.0297394" lon="8.9116443"><ele>77.0</ele><time>2026-04-03T08:29:35.863Z</time></trkpt><trkpt lat="45.029594" lon="8.9117264"><ele>77.0</ele><time>2026-04-03T08:29:36.863Z</time></trkpt><trkpt lat="45.0294572" lon="8.911806"><ele>76.75</ele><time>2026-04-03T08:29:37.864Z</time></trkpt><trkpt lat="45.0293264" lon="8.9118779"><ele>76.5</ele><time>2026-04-03T08:29:38.863Z</time></trkpt><trkpt lat="45.0292063" lon="8.911939"><ele>76.25</ele><time>2026-04-03T08:29:39.864Z</time></trkpt><trkpt lat="45.0290992" lon="8.9119924"><ele>76.0</ele><time>2026-04-03T08:29:40.863Z</time></trkpt><trkpt lat="45.0290067" lon="8.9120407"><ele>76.39999999999999</ele><time>2026-04-03T08:29:41.863Z</time></trkpt><trkpt lat="45.0289209" lon="8.9120855"><ele>76.8</ele><time>2026-04-03T08:29:42.863Z</time></trkpt><trkpt lat="45.0288487" lon="8.9121232"><ele>77.19999999999999</ele><time>2026-04-03T08:29:43.863Z</time></trkpt><trkpt lat="45.0287885" lon="8.9121576"><ele>77.6</ele><time>2026-04-03T08:29:44.864Z</time></trkpt><trkpt lat="45.0286745" lon="8.9122213"><ele>78.0</ele><time>2026-04-03T08:29:46.863Z</time></trkpt><trkpt lat="45.028567" lon="8.9122776"><ele>78.0</ele><time>2026-04-03T08:29:48.864Z</time></trkpt><trkpt lat="45.0284685" lon="8.912323"><ele>78.0</ele><time>2026-04-03T08:29:50.864Z</time></trkpt><trkpt lat="45.0284082" lon="8.9123515"><ele>78.0</ele><time>2026-04-03T08:29:51.863Z</time></trkpt><trkpt lat="45.0283368" lon="8.9123883"><ele>78.0</ele><time>2026-04-03T08:29:52.864Z</time></trkpt><trkpt lat="45.0282555" lon="8.9124369"><ele>78.0</ele><time>2026-04-03T08:29:53.863Z</time></trkpt><trkpt lat="45.0281625" lon="8.9124889"><ele>78.0</ele><time>2026-04-03T08:29:54.864Z</time></trkpt><trkpt lat="45.0280626" lon="8.9125433"><ele>77.25</ele><time>2026-04-03T08:29:55.863Z</time></trkpt><trkpt lat="45.0279547" lon="8.9125993"><ele>76.5</ele><time>2026-04-03T08:29:56.863Z</time></trkpt><trkpt lat="45.0278406" lon="8.9126507"><ele>75.75</ele><time>2026-04-03T08:29:57.864Z</time></trkpt><trkpt lat="45.0277239" lon="8.9127006"><ele>75.0</ele><time>2026-04-03T08:29:58.863Z</time></trkpt><trkpt lat="45.0276069" lon="8.9127386"><ele>75.0</ele><time>2026-04-03T08:29:59.864Z</time></trkpt><trkpt lat="45.0274918" lon="8.9127535"><ele>75.0</ele><time>2026-04-03T08:30:00.864Z</time></trkpt><trkpt lat="45.0273855" lon="8.9127232"><ele>75.0</ele><time>2026-04-03T08:30:01.864Z</time></trkpt><trkpt lat="45.0272885" lon="8.9126716"><ele>75.0</ele><time>2026-04-03T08:30:02.863Z</time></trkpt><trkpt lat="45.0272091" lon="8.9126006"><ele>75.0</ele><time>2026-04-03T08:30:03.864Z</time></trkpt><trkpt lat="45.0271354" lon="8.9125398"><ele>74.85714285714285</ele><time>2026-04-03T08:30:04.864Z</time></trkpt><trkpt lat="45.0270615" lon="8.9125313"><ele>74.71428571428571</ele><time>2026-04-03T08:30:05.863Z</time></trkpt><trkpt lat="45.0269919" lon="8.9125581"><ele>74.57142857142857</ele><time>2026-04-03T08:30:06.863Z</time></trkpt><trkpt lat="45.026937" lon="8.9126228"><ele>74.42857142857142</ele><time>2026-04-03T08:30:07.864Z</time></trkpt><trkpt lat="45.0268973" lon="8.912712"><ele>74.28571428571428</ele><time>2026-04-03T08:30:08.864Z</time></trkpt><trkpt lat="45.0268613" lon="8.9128091"><ele>74.14285714285714</ele><time>2026-04-03T08:30:09.864Z</time></trkpt><trkpt lat="45.0268274" lon="8.9129034"><ele>74.0</ele><time>2026-04-03T08:30:10.864Z</time></trkpt><trkpt lat="45.0267926" lon="8.912985"><ele>73.83333333333334</ele><time>2026-04-03T08:30:11.863Z</time></trkpt><trkpt lat="45.0267229" lon="8.9131109"><ele>73.66666666666667</ele><time>2026-04-03T08:30:13.864Z</time></trkpt><trkpt lat="45.0266415" lon="8.9132235"><ele>73.5</ele><time>2026-04-03T08:30:15.863Z</time></trkpt><trkpt lat="45.0265878" lon="8.913278"><ele>73.33333333333333</ele><time>2026-04-03T08:30:16.863Z</time></trkpt><trkpt lat="45.0265265" lon="8.9133286"><ele>73.16666666666666</ele><time>2026-04-03T08:30:17.863Z</time></trkpt><trkpt lat="45.0264654" lon="8.9133808"><ele>73.0</ele><time>2026-04-03T08:30:18.864Z</time></trkpt><trkpt lat="45.0263993" lon="8.9134352"><ele>73.0</ele><time>2026-04-03T08:30:19.864Z</time></trkpt><trkpt lat="45.0263206" lon="8.9134985"><ele>73.0</ele><time>2026-04-03T08:30:20.863Z</time></trkpt><trkpt lat="45.0262245" lon="8.913568"><ele>73.0</ele><time>2026-04-03T08:30:21.863Z</time></trkpt><trkpt lat="45.0261149" lon="8.913629"><ele>73.0</ele><time>2026-04-03T08:30:22.864Z</time></trkpt><trkpt lat="45.0259948" lon="8.9136832"><ele>73.0</ele><time>2026-04-03T08:30:23.863Z</time></trkpt><trkpt lat="45.0258732" lon="8.9137403"><ele>73.25</ele><time>2026-04-03T08:30:24.864Z</time></trkpt><trkpt lat="45.0257503" lon="8.9138034"><ele>73.5</ele><time>2026-04-03T08:30:25.863Z</time></trkpt><trkpt lat="45.0256253" lon="8.9138689"><ele>73.75</ele><time>2026-04-03T08:30:26.864Z</time></trkpt><trkpt lat="45.0254923" lon="8.91394"><ele>74.0</ele><time>2026-04-03T08:30:27.864Z</time></trkpt><trkpt lat="45.025358" lon="8.9140154"><ele>74.0</ele><time>2026-04-03T08:30:28.863Z</time></trkpt><trkpt lat="45.0252194" lon="8.9140911"><ele>74.0</ele><time>2026-04-03T08:30:29.864Z</time></trkpt><trkpt lat="45.0250791" lon="8.914165"><ele>74.0</ele><time>2026-04-03T08:30:30.864Z</time></trkpt><trkpt lat="45.0249387" lon="8.9142371"><ele>74.0</ele><time>2026-04-03T08:30:31.864Z</time></trkpt><trkpt lat="45.0247995" lon="8.9143101"><ele>73.75</ele><time>2026-04-03T08:30:32.864Z</time></trkpt><trkpt lat="45.0246604" lon="8.9143876"><ele>73.5</ele><time>2026-04-03T08:30:33.864Z</time></trkpt><trkpt lat="45.0245234" lon="8.9144639"><ele>73.25</ele><time>2026-04-03T08:30:34.863Z</time></trkpt><trkpt lat="45.0243846" lon="8.9145373"><ele>73.0</ele><time>2026-04-03T08:30:35.864Z</time></trkpt><trkpt lat="45.0242487" lon="8.9146125"><ele>73.25</ele><time>2026-04-03T08:30:36.863Z</time></trkpt><trkpt lat="45.0241148" lon="8.9146842"><ele>73.5</ele><time>2026-04-03T08:30:37.864Z</time></trkpt><trkpt lat="45.0239836" lon="8.9147569"><ele>73.75</ele><time>2026-04-03T08:30:38.863Z</time></trkpt><trkpt lat="45.0238528" lon="8.9148275"><ele>74.0</ele><time>2026-04-03T08:30:39.863Z</time></trkpt><trkpt lat="45.0237241" lon="8.9149002"><ele>74.0</ele><time>2026-04-03T08:30:40.863Z</time></trkpt><trkpt lat="45.0235965" lon="8.9149747"><ele>74.0</ele><time>2026-04-03T08:30:41.864Z</time></trkpt><trkpt lat="45.0234698" lon="8.9150462"><ele>74.0</ele><time>2026-04-03T08:30:42.864Z</time></trkpt><trkpt lat="45.0233419" lon="8.9151178"><ele>74.0</ele><time>2026-04-03T08:30:43.864Z</time></trkpt><trkpt lat="45.0232121" lon="8.9151899"><ele>74.0</ele><time>2026-04-03T08:30:44.864Z</time></trkpt><trkpt lat="45.0230816" lon="8.9152603"><ele>74.0</ele><time>2026-04-03T08:30:45.864Z</time></trkpt><trkpt lat="45.0229453" lon="8.9153274"><ele>74.0</ele><time>2026-04-03T08:30:46.863Z</time></trkpt><trkpt lat="45.0228071" lon="8.915401"><ele>74.0</ele><time>2026-04-03T08:30:47.864Z</time></trkpt><trkpt lat="45.0226654" lon="8.9154803"><ele>74.0</ele><time>2026-04-03T08:30:48.863Z</time></trkpt><trkpt lat="45.022521" lon="8.9155593"><ele>74.0</ele><time>2026-04-03T08:30:49.864Z</time></trkpt><trkpt lat="45.0223705" lon="8.9156418"><ele>74.0</ele><time>2026-04-03T08:30:50.864Z</time></trkpt><trkpt lat="45.0222199" lon="8.915727"><ele>74.33333333333334</ele><time>2026-04-03T08:30:51.864Z</time></trkpt><trkpt lat="45.0220691" lon="8.915812"><ele>74.66666666666667</ele><time>2026-04-03T08:30:52.864Z</time></trkpt><trkpt lat="45.0219159" lon="8.9158942"><ele>75.0</ele><time>2026-04-03T08:30:53.864Z</time></trkpt><trkpt lat="45.0217609" lon="8.9159719"><ele>74.66666666666667</ele><time>2026-04-03T08:30:54.864Z</time></trkpt><trkpt lat="45.0216053" lon="8.9160472"><ele>74.33333333333334</ele><time>2026-04-03T08:30:55.864Z</time></trkpt><trkpt lat="45.0214502" lon="8.9161287"><ele>74.0</ele><time>2026-04-03T08:30:56.864Z</time></trkpt><trkpt lat="45.0212965" lon="8.916211"><ele>74.0</ele><time>2026-04-03T08:30:57.864Z</time></trkpt><trkpt lat="45.0211443" lon="8.9162935"><ele>74.0</ele><time>2026-04-03T08:30:58.864Z</time></trkpt><trkpt lat="45.0209891" lon="8.9163762"><ele>74.0</ele><time>2026-04-03T08:30:59.864Z</time></trkpt><trkpt lat="45.0208378" lon="8.916459"><ele>74.33333333333334</ele><time>2026-04-03T08:31:00.863Z</time></trkpt><trkpt lat="45.0206861" lon="8.916543"><ele>74.66666666666667</ele><time>2026-04-03T08:31:01.864Z</time></trkpt><trkpt lat="45.0205307" lon="8.916627"><ele>75.0</ele><time>2026-04-03T08:31:02.863Z</time></trkpt><trkpt lat="45.0203739" lon="8.9167115"><ele>75.0</ele><time>2026-04-03T08:31:03.863Z</time></trkpt><trkpt lat="45.0202188" lon="8.9167949"><ele>75.0</ele><time>2026-04-03T08:31:04.864Z</time></trkpt><trkpt lat="45.0200613" lon="8.9168796"><ele>75.0</ele><time>2026-04-03T08:31:05.863Z</time></trkpt><trkpt lat="45.0199017" lon="8.916966"><ele>75.0</ele><time>2026-04-03T08:31:06.864Z</time></trkpt><trkpt lat="45.0197396" lon="8.9170518"><ele>75.0</ele><time>2026-04-03T08:31:07.864Z</time></trkpt><trkpt lat="45.0195755" lon="8.9171412"><ele>75.0</ele><time>2026-04-03T08:31:08.863Z</time></trkpt><trkpt lat="45.0194109" lon="8.9172306"><ele>75.0</ele><time>2026-04-03T08:31:09.863Z</time></trkpt><trkpt lat="45.0192433" lon="8.9173196"><ele>75.0</ele><time>2026-04-03T08:31:10.864Z</time></trkpt><trkpt lat="45.0190762" lon="8.9174099"><ele>75.0</ele><time>2026-04-03T08:31:11.864Z</time></trkpt><trkpt lat="45.018907" lon="8.9174986"><ele>75.33333333333333</ele><time>2026-04-03T08:31:12.864Z</time></trkpt><trkpt lat="45.0187385" lon="8.9175889"><ele>75.66666666666666</ele><time>2026-04-03T08:31:13.864Z</time></trkpt><trkpt lat="45.0185699" lon="8.9176786"><ele>76.0</ele><time>2026-04-03T08:31:14.863Z</time></trkpt><trkpt lat="45.0184011" lon="8.9177684"><ele>76.0</ele><time>2026-04-03T08:31:15.863Z</time></trkpt><trkpt lat="45.0182306" lon="8.9178606"><ele>76.0</ele><time>2026-04-03T08:31:16.863Z</time></trkpt><trkpt lat="45.0180587" lon="8.9179526"><ele>76.0</ele><time>2026-04-03T08:31:17.863Z</time></trkpt><trkpt lat="45.0178862" lon="8.9180483"><ele>76.0</ele><time>2026-04-03T08:31:18.864Z</time></trkpt><trkpt lat="45.0177128" lon="8.9181424"><ele>76.0</ele><time>2026-04-03T08:31:19.864Z</time></trkpt><trkpt lat="45.0175381" lon="8.9182394"><ele>76.0</ele><time>2026-04-03T08:31:20.864Z</time></trkpt><trkpt lat="45.0173618" lon="8.9183355"><ele>77.33333333333333</ele><time>2026-04-03T08:31:21.863Z</time></trkpt><trkpt lat="45.017188" lon="8.9184315"><ele>78.66666666666667</ele><time>2026-04-03T08:31:22.864Z</time></trkpt><trkpt lat="45.0170145" lon="8.9185293"><ele>80.0</ele><time>2026-04-03T08:31:23.864Z</time></trkpt><trkpt lat="45.0168409" lon="8.9186238"><ele>80.0</ele><time>2026-04-03T08:31:24.864Z</time></trkpt><trkpt lat="45.0166646" lon="8.9187176"><ele>80.0</ele><time>2026-04-03T08:31:25.864Z</time></trkpt><trkpt lat="45.0164874" lon="8.9188108"><ele>80.0</ele><time>2026-04-03T08:31:26.864Z</time></trkpt><trkpt lat="45.0163113" lon="8.9189042"><ele>80.0</ele><time>2026-04-03T08:31:27.864Z</time></trkpt><trkpt lat="45.0161359" lon="8.918995"><ele>80.0</ele><time>2026-04-03T08:31:28.864Z</time></trkpt><trkpt lat="45.0159625" lon="8.9190849"><ele>80.0</ele><time>2026-04-03T08:31:29.863Z</time></trkpt><trkpt lat="45.0157898" lon="8.9191751"><ele>79.33333333333334</ele><time>2026-04-03T08:31:30.864Z</time></trkpt><trkpt lat="45.0156205" lon="8.9192674"><ele>78.66666666666667</ele><time>2026-04-03T08:31:31.863Z</time></trkpt><trkpt lat="45.0154518" lon="8.9193592"><ele>78.0</ele><time>2026-04-03T08:31:32.864Z</time></trkpt><trkpt lat="45.0152841" lon="8.9194469"><ele>78.0</ele><time>2026-04-03T08:31:33.863Z</time></trkpt><trkpt lat="45.0151151" lon="8.919538"><ele>78.0</ele><time>2026-04-03T08:31:34.864Z</time></trkpt><trkpt lat="45.0149471" lon="8.9196302"><ele>78.0</ele><time>2026-04-03T08:31:35.864Z</time></trkpt><trkpt lat="45.0147798" lon="8.9197202"><ele>78.0</ele><time>2026-04-03T08:31:36.864Z</time></trkpt><trkpt lat="45.0146109" lon="8.9198117"><ele>78.0</ele><time>2026-04-03T08:31:37.864Z</time></trkpt><trkpt lat="45.0144443" lon="8.9199026"><ele>78.0</ele><time>2026-04-03T08:31:38.864Z</time></trkpt><trkpt lat="45.0142789" lon="8.9199948"><ele>77.66666666666667</ele><time>2026-04-03T08:31:39.864Z</time></trkpt><trkpt lat="45.0141123" lon="8.9200873"><ele>77.33333333333334</ele><time>2026-04-03T08:31:40.864Z</time></trkpt><trkpt lat="45.0139454" lon="8.920176"><ele>77.0</ele><time>2026-04-03T08:31:41.864Z</time></trkpt><trkpt lat="45.0137805" lon="8.9202649"><ele>77.0</ele><time>2026-04-03T08:31:42.864Z</time></trkpt><trkpt lat="45.0136146" lon="8.920355"><ele>77.0</ele><time>2026-04-03T08:31:43.864Z</time></trkpt><trkpt lat="45.01345" lon="8.9204433"><ele>77.0</ele><time>2026-04-03T08:31:44.863Z</time></trkpt><trkpt lat="45.0132883" lon="8.9205345"><ele>77.33333333333334</ele><time>2026-04-03T08:31:45.864Z</time></trkpt><trkpt lat="45.0131271" lon="8.9206331"><ele>77.66666666666667</ele><time>2026-04-03T08:31:46.864Z</time></trkpt><trkpt lat="45.0129719" lon="8.9207438"><ele>78.0</ele><time>2026-04-03T08:31:47.863Z</time></trkpt><trkpt lat="45.0128261" lon="8.9208697"><ele>77.33333333333333</ele><time>2026-04-03T08:31:48.863Z</time></trkpt><trkpt lat="45.0126886" lon="8.9210148"><ele>76.66666666666666</ele><time>2026-04-03T08:31:49.864Z</time></trkpt><trkpt lat="45.0125629" lon="8.9211766"><ele>76.0</ele><time>2026-04-03T08:31:50.864Z</time></trkpt><trkpt lat="45.0124509" lon="8.9213556"><ele>77.33333333333333</ele><time>2026-04-03T08:31:51.863Z</time></trkpt><trkpt lat="45.0123542" lon="8.9215483"><ele>78.66666666666667</ele><time>2026-04-03T08:31:52.864Z</time></trkpt><trkpt lat="45.0122672" lon="8.9217463"><ele>80.0</ele><time>2026-04-03T08:31:53.864Z</time></trkpt><trkpt lat="45.012186" lon="8.9219475"><ele>80.33333333333334</ele><time>2026-04-03T08:31:54.863Z</time></trkpt><trkpt lat="45.0121064" lon="8.9221526"><ele>80.66666666666667</ele><time>2026-04-03T08:31:55.864Z</time></trkpt><trkpt lat="45.012029" lon="8.9223529"><ele>81.0</ele><time>2026-04-03T08:31:56.863Z</time></trkpt><trkpt lat="45.0119529" lon="8.9225594"><ele>80.33333333333333</ele><time>2026-04-03T08:31:57.864Z</time></trkpt><trkpt lat="45.0118722" lon="8.9227666"><ele>79.66666666666666</ele><time>2026-04-03T08:31:58.863Z</time></trkpt><trkpt lat="45.0117867" lon="8.9229755"><ele>79.0</ele><time>2026-04-03T08:31:59.864Z</time></trkpt><trkpt lat="45.0116888" lon="8.9231785"><ele>79.0</ele><time>2026-04-03T08:32:00.864Z</time></trkpt><trkpt lat="45.0115774" lon="8.9233706"><ele>79.0</ele><time>2026-04-03T08:32:01.864Z</time></trkpt><trkpt lat="45.0114496" lon="8.923543"><ele>79.0</ele><time>2026-04-03T08:32:02.863Z</time></trkpt><trkpt lat="45.011311" lon="8.9236985"><ele>79.0</ele><time>2026-04-03T08:32:03.864Z</time></trkpt><trkpt lat="45.011164" lon="8.9238399"><ele>79.0</ele><time>2026-04-03T08:32:04.864Z</time></trkpt><trkpt lat="45.011014" lon="8.9239736"><ele>79.0</ele><time>2026-04-03T08:32:05.864Z</time></trkpt><trkpt lat="45.0108622" lon="8.9241052"><ele>78.33333333333333</ele><time>2026-04-03T08:32:06.863Z</time></trkpt><trkpt lat="45.0107106" lon="8.9242394"><ele>77.66666666666667</ele><time>2026-04-03T08:32:07.864Z</time></trkpt><trkpt lat="45.0105651" lon="8.9243853"><ele>77.0</ele><time>2026-04-03T08:32:08.864Z</time></trkpt><trkpt lat="45.0104338" lon="8.9245396"><ele>77.0</ele><time>2026-04-03T08:32:09.864Z</time></trkpt><trkpt lat="45.0103166" lon="8.9247"><ele>77.0</ele><time>2026-04-03T08:32:10.864Z</time></trkpt><trkpt lat="45.0102114" lon="8.9248576"><ele>77.0</ele><time>2026-04-03T08:32:11.863Z</time></trkpt><trkpt lat="45.0101184" lon="8.925006"><ele>77.0</ele><time>2026-04-03T08:32:12.863Z</time></trkpt><trkpt lat="45.0100452" lon="8.9251333"><ele>77.0</ele><time>2026-04-03T08:32:13.863Z</time></trkpt><trkpt lat="45.0099841" lon="8.9252426"><ele>77.0</ele><time>2026-04-03T08:32:14.864Z</time></trkpt><trkpt lat="45.0099138" lon="8.9253393"><ele>77.0</ele><time>2026-04-03T08:32:15.863Z</time></trkpt><trkpt lat="45.0098229" lon="8.9254137"><ele>77.0</ele><time>2026-04-03T08:32:16.864Z</time></trkpt><trkpt lat="45.0097207" lon="8.9254614"><ele>77.4</ele><time>2026-04-03T08:32:17.864Z</time></trkpt><trkpt lat="45.009627" lon="8.9255246"><ele>77.80000000000001</ele><time>2026-04-03T08:32:18.863Z</time></trkpt><trkpt lat="45.0095598" lon="8.9256358"><ele>78.2</ele><time>2026-04-03T08:32:19.864Z</time></trkpt><trkpt lat="45.0095198" lon="8.9257671"><ele>78.60000000000001</ele><time>2026-04-03T08:32:20.864Z</time></trkpt><trkpt lat="45.0095113" lon="8.9259108"><ele>79.0</ele><time>2026-04-03T08:32:21.863Z</time></trkpt><trkpt lat="45.0095407" lon="8.9260492"><ele>79.0</ele><time>2026-04-03T08:32:22.864Z</time></trkpt><trkpt lat="45.0095989" lon="8.9261587"><ele>79.0</ele><time>2026-04-03T08:32:23.863Z</time></trkpt><trkpt lat="45.0096683" lon="8.9262347"><ele>79.0</ele><time>2026-04-03T08:32:24.863Z</time></trkpt><trkpt lat="45.0097405" lon="8.9262862"><ele>79.0</ele><time>2026-04-03T08:32:25.863Z</time></trkpt><trkpt lat="45.0098167" lon="8.926301"><ele>79.0</ele><time>2026-04-03T08:32:26.863Z</time></trkpt><trkpt lat="45.0098912" lon="8.9262803"><ele>79.0</ele><time>2026-04-03T08:32:27.864Z</time></trkpt><trkpt lat="45.0099642" lon="8.9262505"><ele>78.25</ele><time>2026-04-03T08:32:28.864Z</time></trkpt><trkpt lat="45.0100502" lon="8.9262195"><ele>77.5</ele><time>2026-04-03T08:32:29.864Z</time></trkpt><trkpt lat="45.010154" lon="8.9262208"><ele>76.75</ele><time>2026-04-03T08:32:30.864Z</time></trkpt><trkpt lat="45.0102759" lon="8.9262651"><ele>76.0</ele><time>2026-04-03T08:32:31.864Z</time></trkpt><trkpt lat="45.0104079" lon="8.9263467"><ele>76.0</ele><time>2026-04-03T08:32:32.864Z</time></trkpt><trkpt lat="45.0105476" lon="8.92644"><ele>76.0</ele><time>2026-04-03T08:32:33.864Z</time></trkpt><trkpt lat="45.0106867" lon="8.9265092"><ele>76.0</ele><time>2026-04-03T08:32:34.863Z</time></trkpt><trkpt lat="45.0108219" lon="8.9265586"><ele>76.0</ele><time>2026-04-03T08:32:35.864Z</time></trkpt><trkpt lat="45.0109483" lon="8.9265941"><ele>75.8</ele><time>2026-04-03T08:32:36.864Z</time></trkpt><trkpt lat="45.0110694" lon="8.9266198"><ele>75.6</ele><time>2026-04-03T08:32:37.863Z</time></trkpt><trkpt lat="45.0111821" lon="8.926632"><ele>75.4</ele><time>2026-04-03T08:32:38.862Z</time></trkpt><trkpt lat="45.0112832" lon="8.9266388"><ele>75.2</ele><time>2026-04-03T08:32:39.864Z</time></trkpt><trkpt lat="45.0113698" lon="8.9266428"><ele>75.0</ele><time>2026-04-03T08:32:40.864Z</time></trkpt><trkpt lat="45.0114415" lon="8.9266448"><ele>75.0</ele><time>2026-04-03T08:32:41.863Z</time></trkpt><trkpt lat="45.0115579" lon="8.9266468"><ele>75.0</ele><time>2026-04-03T08:32:43.863Z</time></trkpt><trkpt lat="45.0116407" lon="8.9266524"><ele>75.0</ele><time>2026-04-03T08:32:45.864Z</time></trkpt><trkpt lat="45.0117055" lon="8.9266575"><ele>75.0</ele><time>2026-04-03T08:32:48.863Z</time></trkpt><trkpt lat="45.0118158" lon="8.9266825"><ele>75.0</ele><time>2026-04-03T08:33:09.864Z</time></trkpt><trkpt lat="45.0118973" lon="8.9266898"><ele>75.5</ele><time>2026-04-03T08:33:10.863Z</time></trkpt><trkpt lat="45.0119723" lon="8.9266908"><ele>76.0</ele><time>2026-04-03T08:33:11.864Z</time></trkpt><trkpt lat="45.0120788" lon="8.9266905"><ele>76.5</ele><time>2026-04-03T08:33:12.863Z</time></trkpt><trkpt lat="45.0122193" lon="8.9266965"><ele>77.0</ele><time>2026-04-03T08:33:13.863Z</time></trkpt><trkpt lat="45.0123589" lon="8.9267095"><ele>77.25</ele><time>2026-04-03T08:33:14.863Z</time></trkpt><trkpt lat="45.0125026" lon="8.9267227"><ele>77.5</ele><time>2026-04-03T08:33:15.863Z</time></trkpt><trkpt lat="45.0126403" lon="8.9267279"><ele>77.75</ele><time>2026-04-03T08:33:16.864Z</time></trkpt><trkpt lat="45.012777" lon="8.9267288"><ele>78.0</ele><time>2026-04-03T08:33:17.836Z</time></trkpt><trkpt lat="45.0129141" lon="8.9267126"><ele>78.0</ele><time>2026-04-03T08:33:18.837Z</time></trkpt><trkpt lat="45.0130511" lon="8.9266816"><ele>78.0</ele><time>2026-04-03T08:33:19.834Z</time></trkpt><trkpt lat="45.0131848" lon="8.9266317"><ele>78.0</ele><time>2026-04-03T08:33:20.836Z</time></trkpt><trkpt lat="45.0133147" lon="8.9265627"><ele>78.0</ele><time>2026-04-03T08:33:21.836Z</time></trkpt><trkpt lat="45.0134366" lon="8.9264678"><ele>78.0</ele><time>2026-04-03T08:33:22.835Z</time></trkpt><trkpt lat="45.0135494" lon="8.9263463"><ele>78.0</ele><time>2026-04-03T08:33:23.835Z</time></trkpt><trkpt lat="45.0136425" lon="8.9262101"><ele>78.0</ele><time>2026-04-03T08:33:24.834Z</time></trkpt><trkpt lat="45.0137235" lon="8.92605"><ele>78.0</ele><time>2026-04-03T08:33:25.835Z</time></trkpt><trkpt lat="45.0137941" lon="8.9258765"><ele>78.0</ele><time>2026-04-03T08:33:26.835Z</time></trkpt><trkpt lat="45.0138608" lon="8.9256912"><ele>78.0</ele><time>2026-04-03T08:33:27.835Z</time></trkpt><trkpt lat="45.013926" lon="8.9255012"><ele>78.0</ele><time>2026-04-03T08:33:28.834Z</time></trkpt><trkpt lat="45.0139942" lon="8.9253063"><ele>78.0</ele><time>2026-04-03T08:33:29.834Z</time></trkpt><trkpt lat="45.0140693" lon="8.9251008"><ele>78.0</ele><time>2026-04-03T08:33:30.834Z</time></trkpt><trkpt lat="45.0141529" lon="8.9248682"><ele>78.0</ele><time>2026-04-03T08:33:31.834Z</time></trkpt><trkpt lat="45.0142337" lon="8.9246413"><ele>78.0</ele><time>2026-04-03T08:33:32.835Z</time></trkpt><trkpt lat="45.0143178" lon="8.9244058"><ele>78.0</ele><time>2026-04-03T08:33:33.835Z</time></trkpt><trkpt lat="45.0144012" lon="8.9241734"><ele>78.0</ele><time>2026-04-03T08:33:34.835Z</time></trkpt><trkpt lat="45.014482" lon="8.9239489"><ele>78.0</ele><time>2026-04-03T08:33:35.835Z</time></trkpt><trkpt lat="45.0145611" lon="8.9237304"><ele>78.0</ele><time>2026-04-03T08:33:36.835Z</time></trkpt><trkpt lat="45.0146386" lon="8.9235159"><ele>78.0</ele><time>2026-04-03T08:33:37.835Z</time></trkpt><trkpt lat="45.0147172" lon="8.923311"><ele>77.66666666666667</ele><time>2026-04-03T08:33:38.835Z</time></trkpt><trkpt lat="45.0148048" lon="8.9231131"><ele>77.33333333333334</ele><time>2026-04-03T08:33:39.835Z</time></trkpt><trkpt lat="45.0149018" lon="8.9229502"><ele>77.0</ele><time>2026-04-03T08:33:40.834Z</time></trkpt><trkpt lat="45.0150229" lon="8.9228175"><ele>77.0</ele><time>2026-04-03T08:33:41.834Z</time></trkpt><trkpt lat="45.015163" lon="8.9227352"><ele>77.0</ele><time>2026-04-03T08:33:42.834Z</time></trkpt><trkpt lat="45.0153137" lon="8.9227055"><ele>77.0</ele><time>2026-04-03T08:33:43.834Z</time></trkpt><trkpt lat="45.0154637" lon="8.9227312"><ele>77.0</ele><time>2026-04-03T08:33:44.835Z</time></trkpt><trkpt lat="45.0156035" lon="8.9228147"><ele>77.0</ele><time>2026-04-03T08:33:45.834Z</time></trkpt><trkpt lat="45.0157182" lon="8.9229481"><ele>77.0</ele><time>2026-04-03T08:33:46.835Z</time></trkpt><trkpt lat="45.0158052" lon="8.9231287"><ele>77.0</ele><time>2026-04-03T08:33:47.835Z</time></trkpt><trkpt lat="45.0158507" lon="8.9233249"><ele>77.0</ele><time>2026-04-03T08:33:48.835Z</time></trkpt><trkpt lat="45.0158603" lon="8.9235386"><ele>77.0</ele><time>2026-04-03T08:33:49.835Z</time></trkpt><trkpt lat="45.0158287" lon="8.923748"><ele>77.0</ele><time>2026-04-03T08:33:50.834Z</time></trkpt><trkpt lat="45.0157555" lon="8.9239379"><ele>77.0</ele><time>2026-04-03T08:33:51.835Z</time></trkpt><trkpt lat="45.0156463" lon="8.924093"><ele>77.0</ele><time>2026-04-03T08:33:52.834Z</time></trkpt><trkpt lat="45.0155121" lon="8.9242014"><ele>77.0</ele><time>2026-04-03T08:33:53.834Z</time></trkpt><trkpt lat="45.0153596" lon="8.9242515"><ele>77.0</ele><time>2026-04-03T08:33:54.834Z</time></trkpt><trkpt lat="45.0151958" lon="8.9242361"><ele>77.0</ele><time>2026-04-03T08:33:55.834Z</time></trkpt><trkpt lat="45.0150431" lon="8.9241712"><ele>77.0</ele><time>2026-04-03T08:33:56.835Z</time></trkpt><trkpt lat="45.0148821" lon="8.9240776"><ele>77.33333333333334</ele><time>2026-04-03T08:33:57.835Z</time></trkpt><trkpt lat="45.0147069" lon="8.9239647"><ele>77.66666666666667</ele><time>2026-04-03T08:33:58.835Z</time></trkpt><trkpt lat="45.0145221" lon="8.9238432"><ele>78.0</ele><time>2026-04-03T08:33:59.835Z</time></trkpt><trkpt lat="45.0143263" lon="8.9237144"><ele>77.5</ele><time>2026-04-03T08:34:00.835Z</time></trkpt><trkpt lat="45.0141182" lon="8.9235755"><ele>77.0</ele><time>2026-04-03T08:34:01.835Z</time></trkpt><trkpt lat="45.0139064" lon="8.9234323"><ele>76.0</ele><time>2026-04-03T08:34:02.835Z</time></trkpt><trkpt lat="45.0136843" lon="8.9232776"><ele>75.0</ele><time>2026-04-03T08:34:03.834Z</time></trkpt><trkpt lat="45.0134747" lon="8.923128"><ele>75.5</ele><time>2026-04-03T08:34:04.834Z</time></trkpt><trkpt lat="45.0132579" lon="8.9229711"><ele>76.0</ele><time>2026-04-03T08:34:05.835Z</time></trkpt><trkpt lat="45.0130411" lon="8.9228143"><ele>76.0</ele><time>2026-04-03T08:34:06.834Z</time></trkpt><trkpt lat="45.0128242" lon="8.9226569"><ele>76.0</ele><time>2026-04-03T08:34:07.834Z</time></trkpt><trkpt lat="45.0126063" lon="8.9224997"><ele>78.5</ele><time>2026-04-03T08:34:08.835Z</time></trkpt><trkpt lat="45.0123868" lon="8.9223414"><ele>81.0</ele><time>2026-04-03T08:34:09.835Z</time></trkpt><trkpt lat="45.012165" lon="8.9221808"><ele>81.0</ele><time>2026-04-03T08:34:10.834Z</time></trkpt><trkpt lat="45.0119344" lon="8.9220152"><ele>81.0</ele><time>2026-04-03T08:34:11.835Z</time></trkpt><trkpt lat="45.0117156" lon="8.9218582"><ele>80.0</ele><time>2026-04-03T08:34:12.835Z</time></trkpt><trkpt lat="45.0114798" lon="8.9216881"><ele>79.0</ele><time>2026-04-03T08:34:13.835Z</time></trkpt><trkpt lat="45.0112311" lon="8.9215093"><ele>79.0</ele><time>2026-04-03T08:34:14.835Z</time></trkpt><trkpt lat="45.0109697" lon="8.9213225"><ele>79.0</ele><time>2026-04-03T08:34:15.834Z</time></trkpt><trkpt lat="45.010696" lon="8.9211321"><ele>78.5</ele><time>2026-04-03T08:34:16.835Z</time></trkpt><trkpt lat="45.010409" lon="8.9209465"><ele>78.0</ele><time>2026-04-03T08:34:17.834Z</time></trkpt><trkpt lat="45.0101117" lon="8.9207649"><ele>78.0</ele><time>2026-04-03T08:34:18.835Z</time></trkpt><trkpt lat="45.0097922" lon="8.9205723"><ele>78.0</ele><time>2026-04-03T08:34:19.835Z</time></trkpt><trkpt lat="45.0094981" lon="8.9203786"><ele>78.0</ele><time>2026-04-03T08:34:20.835Z</time></trkpt><trkpt lat="45.0091941" lon="8.9201671"><ele>78.0</ele><time>2026-04-03T08:34:21.834Z</time></trkpt><trkpt lat="45.0088914" lon="8.9199495"><ele>78.5</ele><time>2026-04-03T08:34:22.834Z</time></trkpt><trkpt lat="45.0085895" lon="8.9197308"><ele>79.0</ele><time>2026-04-03T08:34:23.834Z</time></trkpt><trkpt lat="45.0082872" lon="8.9195126"><ele>78.5</ele><time>2026-04-03T08:34:24.834Z</time></trkpt><trkpt lat="45.007984" lon="8.9192948"><ele>78.0</ele><time>2026-04-03T08:34:25.834Z</time></trkpt><trkpt lat="45.0076875" lon="8.9190827"><ele>77.5</ele><time>2026-04-03T08:34:26.835Z</time></trkpt><trkpt lat="45.0073867" lon="8.9188664"><ele>77.0</ele><time>2026-04-03T08:34:27.835Z</time></trkpt><trkpt lat="45.0070943" lon="8.9186594"><ele>77.0</ele><time>2026-04-03T08:34:28.834Z</time></trkpt><trkpt lat="45.0068076" lon="8.9184526"><ele>77.0</ele><time>2026-04-03T08:34:29.834Z</time></trkpt><trkpt lat="45.006521" lon="8.9182393"><ele>78.0</ele><time>2026-04-03T08:34:30.835Z</time></trkpt><trkpt lat="45.0062331" lon="8.918012"><ele>79.0</ele><time>2026-04-03T08:34:31.835Z</time></trkpt><trkpt lat="45.0059435" lon="8.9177882"><ele>78.0</ele><time>2026-04-03T08:34:32.835Z</time></trkpt><trkpt lat="45.0056589" lon="8.9175764"><ele>77.0</ele><time>2026-04-03T08:34:33.835Z</time></trkpt><trkpt lat="45.0053747" lon="8.9173655"><ele>76.5</ele><time>2026-04-03T08:34:34.835Z</time></trkpt><trkpt lat="45.0050821" lon="8.9171532"><ele>76.0</ele><time>2026-04-03T08:34:35.835Z</time></trkpt><trkpt lat="45.0048087" lon="8.9169563"><ele>76.0</ele><time>2026-04-03T08:34:36.835Z</time></trkpt><trkpt lat="45.0045284" lon="8.9167546"><ele>76.0</ele><time>2026-04-03T08:34:37.835Z</time></trkpt><trkpt lat="45.0042496" lon="8.9165539"><ele>77.5</ele><time>2026-04-03T08:34:38.835Z</time></trkpt><trkpt lat="45.0039708" lon="8.9163533"><ele>79.0</ele><time>2026-04-03T08:34:39.835Z</time></trkpt><trkpt lat="45.0036911" lon="8.9161524"><ele>79.0</ele><time>2026-04-03T08:34:40.835Z</time></trkpt><trkpt lat="45.0034092" lon="8.915951"><ele>79.0</ele><time>2026-04-03T08:34:41.835Z</time></trkpt><trkpt lat="45.0031255" lon="8.9157488"><ele>78.0</ele><time>2026-04-03T08:34:42.834Z</time></trkpt><trkpt lat="45.0028328" lon="8.9155389"><ele>77.0</ele><time>2026-04-03T08:34:43.835Z</time></trkpt><trkpt lat="45.0025542" lon="8.9153409"><ele>76.5</ele><time>2026-04-03T08:34:44.835Z</time></trkpt><trkpt lat="45.0022715" lon="8.9151389"><ele>76.0</ele><time>2026-04-03T08:34:45.835Z</time></trkpt><trkpt lat="45.0019847" lon="8.9149349"><ele>76.0</ele><time>2026-04-03T08:34:46.835Z</time></trkpt><trkpt lat="45.0016962" lon="8.9147277"><ele>76.0</ele><time>2026-04-03T08:34:47.835Z</time></trkpt><trkpt lat="45.0014003" lon="8.9145188"><ele>76.0</ele><time>2026-04-03T08:34:48.835Z</time></trkpt><trkpt lat="45.0011029" lon="8.9143177"><ele>76.0</ele><time>2026-04-03T08:34:49.834Z</time></trkpt><trkpt lat="45.0008051" lon="8.9141087"><ele>77.5</ele><time>2026-04-03T08:34:50.835Z</time></trkpt><trkpt lat="45.0004978" lon="8.9138815"><ele>79.0</ele><time>2026-04-03T08:34:51.835Z</time></trkpt><trkpt lat="45.0002047" lon="8.9136724"><ele>79.0</ele><time>2026-04-03T08:34:52.834Z</time></trkpt><trkpt lat="44.9999021" lon="8.9134545"><ele>79.0</ele><time>2026-04-03T08:34:53.835Z</time></trkpt><trkpt lat="44.9996002" lon="8.9132371"><ele>79.5</ele><time>2026-04-03T08:34:54.835Z</time></trkpt><trkpt lat="44.9993047" lon="8.9130262"><ele>80.0</ele><time>2026-04-03T08:34:55.835Z</time></trkpt><trkpt lat="44.9989939" lon="8.9128049"><ele>80.0</ele><time>2026-04-03T08:34:56.835Z</time></trkpt><trkpt lat="44.9986966" lon="8.9125932"><ele>80.0</ele><time>2026-04-03T08:34:57.835Z</time></trkpt><trkpt lat="44.9983982" lon="8.9123793"><ele>79.5</ele><time>2026-04-03T08:34:58.835Z</time></trkpt><trkpt lat="44.9980923" lon="8.9121595"><ele>79.0</ele><time>2026-04-03T08:34:59.835Z</time></trkpt><trkpt lat="44.9978022" lon="8.9119501"><ele>79.0</ele><time>2026-04-03T08:35:00.835Z</time></trkpt><trkpt lat="44.9975101" lon="8.9117444"><ele>79.0</ele><time>2026-04-03T08:35:01.835Z</time></trkpt><trkpt lat="44.9972171" lon="8.9115354"><ele>79.0</ele><time>2026-04-03T08:35:02.835Z</time></trkpt><trkpt lat="44.996935" lon="8.9113286"><ele>79.0</ele><time>2026-04-03T08:35:03.835Z</time></trkpt><trkpt lat="44.9966437" lon="8.9111234"><ele>79.0</ele><time>2026-04-03T08:35:04.835Z</time></trkpt><trkpt lat="44.9963585" lon="8.9109182"><ele>79.0</ele><time>2026-04-03T08:35:05.834Z</time></trkpt><trkpt lat="44.9960721" lon="8.9107141"><ele>78.5</ele><time>2026-04-03T08:35:06.834Z</time></trkpt><trkpt lat="44.9957833" lon="8.9105078"><ele>78.0</ele><time>2026-04-03T08:35:07.834Z</time></trkpt><trkpt lat="44.9954954" lon="8.9103027"><ele>78.0</ele><time>2026-04-03T08:35:08.835Z</time></trkpt><trkpt lat="44.9952098" lon="8.910099"><ele>78.0</ele><time>2026-04-03T08:35:09.835Z</time></trkpt><trkpt lat="44.9949191" lon="8.9098932"><ele>78.0</ele><time>2026-04-03T08:35:10.835Z</time></trkpt><trkpt lat="44.9946283" lon="8.9096858"><ele>78.0</ele><time>2026-04-03T08:35:11.835Z</time></trkpt><trkpt lat="44.994338" lon="8.9094783"><ele>78.5</ele><time>2026-04-03T08:35:12.835Z</time></trkpt><trkpt lat="44.9940436" lon="8.9092679"><ele>79.0</ele><time>2026-04-03T08:35:13.834Z</time></trkpt><trkpt lat="44.9937528" lon="8.9090599"><ele>79.0</ele><time>2026-04-03T08:35:14.835Z</time></trkpt><trkpt lat="44.9934556" lon="8.9088439"><ele>79.0</ele><time>2026-04-03T08:35:15.835Z</time></trkpt><trkpt lat="44.9931784" lon="8.9086475"><ele>79.0</ele><time>2026-04-03T08:35:16.835Z</time></trkpt><trkpt lat="44.9928883" lon="8.90845"><ele>79.0</ele><time>2026-04-03T08:35:17.835Z</time></trkpt><trkpt lat="44.9925942" lon="8.9082416"><ele>79.5</ele><time>2026-04-03T08:35:18.835Z</time></trkpt><trkpt lat="44.9923024" lon="8.9080288"><ele>80.0</ele><time>2026-04-03T08:35:19.835Z</time></trkpt><trkpt lat="44.9920097" lon="8.9078247"><ele>80.0</ele><time>2026-04-03T08:35:20.834Z</time></trkpt><trkpt lat="44.9917223" lon="8.9076205"><ele>80.0</ele><time>2026-04-03T08:35:21.834Z</time></trkpt><trkpt lat="44.9914336" lon="8.9074156"><ele>81.5</ele><time>2026-04-03T08:35:22.835Z</time></trkpt><trkpt lat="44.9911372" lon="8.9072038"><ele>83.0</ele><time>2026-04-03T08:35:23.835Z</time></trkpt><trkpt lat="44.9908601" lon="8.907005"><ele>82.5</ele><time>2026-04-03T08:35:24.834Z</time></trkpt><trkpt lat="44.9905719" lon="8.9067979"><ele>82.0</ele><time>2026-04-03T08:35:25.835Z</time></trkpt><trkpt lat="44.9902851" lon="8.9065939"><ele>82.0</ele><time>2026-04-03T08:35:26.834Z</time></trkpt><trkpt lat="44.9900015" lon="8.9063902"><ele>82.0</ele><time>2026-04-03T08:35:27.834Z</time></trkpt><trkpt lat="44.989716" lon="8.9061844"><ele>82.0</ele><time>2026-04-03T08:35:28.835Z</time></trkpt><trkpt lat="44.9894321" lon="8.9059795"><ele>82.0</ele><time>2026-04-03T08:35:29.835Z</time></trkpt><trkpt lat="44.9891468" lon="8.9057729"><ele>82.0</ele><time>2026-04-03T08:35:30.835Z</time></trkpt><trkpt lat="44.9888639" lon="8.9055719"><ele>82.0</ele><time>2026-04-03T08:35:31.835Z</time></trkpt><trkpt lat="44.9885792" lon="8.9053781"><ele>81.5</ele><time>2026-04-03T08:35:32.835Z</time></trkpt><trkpt lat="44.9882964" lon="8.9051902"><ele>81.0</ele><time>2026-04-03T08:35:33.835Z</time></trkpt><trkpt lat="44.9880103" lon="8.9049998"><ele>81.0</ele><time>2026-04-03T08:35:34.834Z</time></trkpt><trkpt lat="44.9877269" lon="8.9048056"><ele>81.0</ele><time>2026-04-03T08:35:35.835Z</time></trkpt><trkpt lat="44.9874443" lon="8.9046077"><ele>80.5</ele><time>2026-04-03T08:35:36.834Z</time></trkpt><trkpt lat="44.9871606" lon="8.9044042"><ele>80.0</ele><time>2026-04-03T08:35:37.835Z</time></trkpt><trkpt lat="44.9868808" lon="8.9042007"><ele>79.5</ele><time>2026-04-03T08:35:38.835Z</time></trkpt><trkpt lat="44.9865953" lon="8.9039927"><ele>79.0</ele><time>2026-04-03T08:35:39.835Z</time></trkpt><trkpt lat="44.9863254" lon="8.9037964"><ele>79.0</ele><time>2026-04-03T08:35:40.834Z</time></trkpt><trkpt lat="44.9860466" lon="8.9035972"><ele>79.0</ele><time>2026-04-03T08:35:41.835Z</time></trkpt><trkpt lat="44.9857679" lon="8.9034004"><ele>80.0</ele><time>2026-04-03T08:35:42.835Z</time></trkpt><trkpt lat="44.9854954" lon="8.903208"><ele>81.0</ele><time>2026-04-03T08:35:43.835Z</time></trkpt><trkpt lat="44.9852084" lon="8.9030044"><ele>81.0</ele><time>2026-04-03T08:35:44.834Z</time></trkpt><trkpt lat="44.9849302" lon="8.9028054"><ele>81.0</ele><time>2026-04-03T08:35:45.835Z</time></trkpt><trkpt lat="44.9846528" lon="8.9026064"><ele>80.5</ele><time>2026-04-03T08:35:46.835Z</time></trkpt><trkpt lat="44.984375" lon="8.9024078"><ele>80.0</ele><time>2026-04-03T08:35:47.834Z</time></trkpt><trkpt lat="44.9840963" lon="8.9022101"><ele>81.0</ele><time>2026-04-03T08:35:48.835Z</time></trkpt><trkpt lat="44.9838176" lon="8.9020131"><ele>82.0</ele><time>2026-04-03T08:35:49.834Z</time></trkpt><trkpt lat="44.9835388" lon="8.9018141"><ele>82.5</ele><time>2026-04-03T08:35:50.835Z</time></trkpt><trkpt lat="44.9832695" lon="8.9016195"><ele>83.0</ele><time>2026-04-03T08:35:51.834Z</time></trkpt><trkpt lat="44.982982" lon="8.9014121"><ele>83.0</ele><time>2026-04-03T08:35:52.835Z</time></trkpt><trkpt lat="44.9827043" lon="8.9012117"><ele>83.0</ele><time>2026-04-03T08:35:53.835Z</time></trkpt><trkpt lat="44.9824271" lon="8.9010114"><ele>82.5</ele><time>2026-04-03T08:35:54.835Z</time></trkpt><trkpt lat="44.9821486" lon="8.900811"><ele>82.0</ele><time>2026-04-03T08:35:55.835Z</time></trkpt><trkpt lat="44.9818683" lon="8.9006098"><ele>82.0</ele><time>2026-04-03T08:35:56.834Z</time></trkpt><trkpt lat="44.9815859" lon="8.9004082"><ele>82.0</ele><time>2026-04-03T08:35:57.835Z</time></trkpt><trkpt lat="44.9813017" lon="8.9002056"><ele>82.0</ele><time>2026-04-03T08:35:58.835Z</time></trkpt><trkpt lat="44.9810262" lon="8.9000088"><ele>82.0</ele><time>2026-04-03T08:35:59.835Z</time></trkpt><trkpt lat="44.9807324" lon="8.8997977"><ele>82.5</ele><time>2026-04-03T08:36:00.835Z</time></trkpt><trkpt lat="44.9804476" lon="8.8995925"><ele>83.0</ele><time>2026-04-03T08:36:01.834Z</time></trkpt><trkpt lat="44.980163" lon="8.8993867"><ele>83.0</ele><time>2026-04-03T08:36:02.835Z</time></trkpt><trkpt lat="44.9798777" lon="8.8991807"><ele>83.0</ele><time>2026-04-03T08:36:03.834Z</time></trkpt><trkpt lat="44.9795921" lon="8.8989762"><ele>83.0</ele><time>2026-04-03T08:36:04.835Z</time></trkpt><trkpt lat="44.979307" lon="8.8987719"><ele>83.0</ele><time>2026-04-03T08:36:05.834Z</time></trkpt><trkpt lat="44.9790213" lon="8.8985692"><ele>83.5</ele><time>2026-04-03T08:36:06.835Z</time></trkpt><trkpt lat="44.9787455" lon="8.8983725"><ele>84.0</ele><time>2026-04-03T08:36:07.834Z</time></trkpt><trkpt lat="44.9784524" lon="8.898163"><ele>84.5</ele><time>2026-04-03T08:36:08.834Z</time></trkpt><trkpt lat="44.9781693" lon="8.8979599"><ele>85.0</ele><time>2026-04-03T08:36:09.834Z</time></trkpt><trkpt lat="44.977887" lon="8.8977579"><ele>85.0</ele><time>2026-04-03T08:36:10.835Z</time></trkpt><trkpt lat="44.9776039" lon="8.8975565"><ele>85.0</ele><time>2026-04-03T08:36:11.835Z</time></trkpt><trkpt lat="44.9773207" lon="8.8973559"><ele>85.0</ele><time>2026-04-03T08:36:12.835Z</time></trkpt><trkpt lat="44.9770383" lon="8.8971528"><ele>85.0</ele><time>2026-04-03T08:36:13.835Z</time></trkpt><trkpt lat="44.9767575" lon="8.8969472"><ele>84.0</ele><time>2026-04-03T08:36:14.834Z</time></trkpt><trkpt lat="44.9764873" lon="8.8967408"><ele>83.0</ele><time>2026-04-03T08:36:15.834Z</time></trkpt><trkpt lat="44.9762055" lon="8.8965053"><ele>83.0</ele><time>2026-04-03T08:36:16.835Z</time></trkpt><trkpt lat="44.9759401" lon="8.8962604"><ele>83.0</ele><time>2026-04-03T08:36:17.834Z</time></trkpt><trkpt lat="44.975681" lon="8.896002"><ele>82.5</ele><time>2026-04-03T08:36:18.835Z</time></trkpt><trkpt lat="44.9754259" lon="8.895735"><ele>82.0</ele><time>2026-04-03T08:36:19.835Z</time></trkpt><trkpt lat="44.9751738" lon="8.8954653"><ele>82.0</ele><time>2026-04-03T08:36:20.835Z</time></trkpt><trkpt lat="44.9749214" lon="8.8951962"><ele>82.0</ele><time>2026-04-03T08:36:21.835Z</time></trkpt><trkpt lat="44.9746695" lon="8.8949295"><ele>82.0</ele><time>2026-04-03T08:36:22.834Z</time></trkpt><trkpt lat="44.9744247" lon="8.8946704"><ele>82.0</ele><time>2026-04-03T08:36:23.835Z</time></trkpt><trkpt lat="44.9741632" lon="8.8943934"><ele>83.0</ele><time>2026-04-03T08:36:24.835Z</time></trkpt><trkpt lat="44.9739093" lon="8.8941233"><ele>84.0</ele><time>2026-04-03T08:36:25.834Z</time></trkpt><trkpt lat="44.9736561" lon="8.8938529"><ele>84.0</ele><time>2026-04-03T08:36:26.835Z</time></trkpt><trkpt lat="44.9734025" lon="8.8935837"><ele>84.0</ele><time>2026-04-03T08:36:27.834Z</time></trkpt><trkpt lat="44.9731491" lon="8.893314"><ele>84.5</ele><time>2026-04-03T08:36:28.835Z</time></trkpt><trkpt lat="44.9728955" lon="8.8930447"><ele>85.0</ele><time>2026-04-03T08:36:29.835Z</time></trkpt><trkpt lat="44.9726412" lon="8.8927739"><ele>84.5</ele><time>2026-04-03T08:36:30.834Z</time></trkpt><trkpt lat="44.972397" lon="8.8925121"><ele>84.0</ele><time>2026-04-03T08:36:31.834Z</time></trkpt><trkpt lat="44.9721351" lon="8.8922321"><ele>84.0</ele><time>2026-04-03T08:36:32.835Z</time></trkpt><trkpt lat="44.9718802" lon="8.8919616"><ele>84.0</ele><time>2026-04-03T08:36:33.835Z</time></trkpt><trkpt lat="44.9716252" lon="8.8916917"><ele>83.0</ele><time>2026-04-03T08:36:34.834Z</time></trkpt><trkpt lat="44.9713706" lon="8.8914227"><ele>82.0</ele><time>2026-04-03T08:36:35.835Z</time></trkpt><trkpt lat="44.9711164" lon="8.8911543"><ele>83.5</ele><time>2026-04-03T08:36:36.834Z</time></trkpt><trkpt lat="44.9708622" lon="8.8908855"><ele>85.0</ele><time>2026-04-03T08:36:37.834Z</time></trkpt><trkpt lat="44.9706089" lon="8.8906165"><ele>85.0</ele><time>2026-04-03T08:36:38.835Z</time></trkpt><trkpt lat="44.9703632" lon="8.8903541"><ele>85.0</ele><time>2026-04-03T08:36:39.834Z</time></trkpt><trkpt lat="44.970101" lon="8.8900733"><ele>86.0</ele><time>2026-04-03T08:36:40.835Z</time></trkpt><trkpt lat="44.9698469" lon="8.8898014"><ele>87.0</ele><time>2026-04-03T08:36:41.835Z</time></trkpt><trkpt lat="44.9695939" lon="8.8895293"><ele>87.0</ele><time>2026-04-03T08:36:42.835Z</time></trkpt><trkpt lat="44.9693508" lon="8.8892644"><ele>87.0</ele><time>2026-04-03T08:36:43.835Z</time></trkpt><trkpt lat="44.9691168" lon="8.889004"><ele>88.0</ele><time>2026-04-03T08:36:44.835Z</time></trkpt><trkpt lat="44.968888" lon="8.8887449"><ele>89.0</ele><time>2026-04-03T08:36:45.835Z</time></trkpt><trkpt lat="44.9686597" lon="8.8884893"><ele>88.5</ele><time>2026-04-03T08:36:46.834Z</time></trkpt><trkpt lat="44.9684367" lon="8.8882456"><ele>88.0</ele><time>2026-04-03T08:36:47.835Z</time></trkpt><trkpt lat="44.9681989" lon="8.8879911"><ele>88.0</ele><time>2026-04-03T08:36:48.835Z</time></trkpt><trkpt lat="44.9679697" lon="8.8877486"><ele>88.0</ele><time>2026-04-03T08:36:49.835Z</time></trkpt><trkpt lat="44.9677443" lon="8.8875089"><ele>89.0</ele><time>2026-04-03T08:36:50.835Z</time></trkpt><trkpt lat="44.9675221" lon="8.8872729"><ele>90.0</ele><time>2026-04-03T08:36:51.835Z</time></trkpt><trkpt lat="44.9673033" lon="8.8870405"><ele>90.0</ele><time>2026-04-03T08:36:52.835Z</time></trkpt><trkpt lat="44.9670849" lon="8.8868084"><ele>90.0</ele><time>2026-04-03T08:36:53.835Z</time></trkpt><trkpt lat="44.9668677" lon="8.8865772"><ele>89.5</ele><time>2026-04-03T08:36:54.835Z</time></trkpt><trkpt lat="44.9666573" lon="8.8863526"><ele>89.0</ele><time>2026-04-03T08:36:55.835Z</time></trkpt><trkpt lat="44.9664333" lon="8.8861141"><ele>87.0</ele><time>2026-04-03T08:36:56.834Z</time></trkpt><trkpt lat="44.9662155" lon="8.8858817"><ele>85.0</ele><time>2026-04-03T08:36:57.835Z</time></trkpt><trkpt lat="44.9659954" lon="8.8856469"><ele>86.0</ele><time>2026-04-03T08:36:58.835Z</time></trkpt><trkpt lat="44.9657689" lon="8.8854078"><ele>87.0</ele><time>2026-04-03T08:36:59.834Z</time></trkpt><trkpt lat="44.9655356" lon="8.885167"><ele>87.5</ele><time>2026-04-03T08:37:00.834Z</time></trkpt><trkpt lat="44.9652951" lon="8.8849255"><ele>88.0</ele><time>2026-04-03T08:37:01.835Z</time></trkpt><trkpt lat="44.9650509" lon="8.8846812"><ele>87.5</ele><time>2026-04-03T08:37:02.834Z</time></trkpt><trkpt lat="44.9648115" lon="8.88444"><ele>87.0</ele><time>2026-04-03T08:37:03.835Z</time></trkpt><trkpt lat="44.9645567" lon="8.8841789"><ele>87.0</ele><time>2026-04-03T08:37:04.835Z</time></trkpt><trkpt lat="44.9643107" lon="8.8839218"><ele>87.0</ele><time>2026-04-03T08:37:05.835Z</time></trkpt><trkpt lat="44.964067" lon="8.8836626"><ele>86.0</ele><time>2026-04-03T08:37:06.835Z</time></trkpt><trkpt lat="44.9638241" lon="8.8834032"><ele>85.0</ele><time>2026-04-03T08:37:07.834Z</time></trkpt><trkpt lat="44.9635808" lon="8.8831437"><ele>87.5</ele><time>2026-04-03T08:37:08.834Z</time></trkpt><trkpt lat="44.9633381" lon="8.882885"><ele>90.0</ele><time>2026-04-03T08:37:09.835Z</time></trkpt><trkpt lat="44.9630963" lon="8.8826277"><ele>90.0</ele><time>2026-04-03T08:37:10.835Z</time></trkpt><trkpt lat="44.9628634" lon="8.8823784"><ele>90.0</ele><time>2026-04-03T08:37:11.834Z</time></trkpt><trkpt lat="44.9626153" lon="8.8821132"><ele>90.0</ele><time>2026-04-03T08:37:12.835Z</time></trkpt><trkpt lat="44.9623751" lon="8.8818567"><ele>90.0</ele><time>2026-04-03T08:37:13.835Z</time></trkpt><trkpt lat="44.9621357" lon="8.8816019"><ele>90.5</ele><time>2026-04-03T08:37:14.834Z</time></trkpt><trkpt lat="44.9618959" lon="8.8813464"><ele>91.0</ele><time>2026-04-03T08:37:15.835Z</time></trkpt><trkpt lat="44.9616555" lon="8.8810942"><ele>89.5</ele><time>2026-04-03T08:37:16.835Z</time></trkpt><trkpt lat="44.9614142" lon="8.8808396"><ele>88.0</ele><time>2026-04-03T08:37:17.835Z</time></trkpt><trkpt lat="44.9611742" lon="8.8805851"><ele>88.0</ele><time>2026-04-03T08:37:18.835Z</time></trkpt><trkpt lat="44.960944" lon="8.8803408"><ele>88.0</ele><time>2026-04-03T08:37:19.834Z</time></trkpt><trkpt lat="44.960703" lon="8.8800868"><ele>88.5</ele><time>2026-04-03T08:37:20.835Z</time></trkpt><trkpt lat="44.9604758" lon="8.8798462"><ele>89.0</ele><time>2026-04-03T08:37:21.834Z</time></trkpt><trkpt lat="44.9602519" lon="8.8796078"><ele>89.0</ele><time>2026-04-03T08:37:22.835Z</time></trkpt><trkpt lat="44.9600307" lon="8.8793716"><ele>89.0</ele><time>2026-04-03T08:37:23.834Z</time></trkpt><trkpt lat="44.959812" lon="8.8791396"><ele>88.0</ele><time>2026-04-03T08:37:24.835Z</time></trkpt><trkpt lat="44.9595943" lon="8.8789094"><ele>87.0</ele><time>2026-04-03T08:37:25.835Z</time></trkpt><trkpt lat="44.9593773" lon="8.8786783"><ele>88.0</ele><time>2026-04-03T08:37:26.835Z</time></trkpt><trkpt lat="44.959168" lon="8.878454"><ele>89.0</ele><time>2026-04-03T08:37:27.834Z</time></trkpt><trkpt lat="44.9589441" lon="8.8782153"><ele>89.5</ele><time>2026-04-03T08:37:28.835Z</time></trkpt><trkpt lat="44.9587268" lon="8.877985"><ele>90.0</ele><time>2026-04-03T08:37:29.835Z</time></trkpt><trkpt lat="44.9585104" lon="8.8777548"><ele>90.0</ele><time>2026-04-03T08:37:30.835Z</time></trkpt><trkpt lat="44.9582941" lon="8.8775245"><ele>90.0</ele><time>2026-04-03T08:37:31.834Z</time></trkpt><trkpt lat="44.9580773" lon="8.8772952"><ele>90.0</ele><time>2026-04-03T08:37:32.834Z</time></trkpt><trkpt lat="44.9578597" lon="8.877066"><ele>90.0</ele><time>2026-04-03T08:37:33.835Z</time></trkpt><trkpt lat="44.957641" lon="8.8768349"><ele>89.5</ele><time>2026-04-03T08:37:34.834Z</time></trkpt><trkpt lat="44.9574269" lon="8.8766066"><ele>89.0</ele><time>2026-04-03T08:37:35.835Z</time></trkpt><trkpt lat="44.9571975" lon="8.8763616"><ele>89.0</ele><time>2026-04-03T08:37:36.835Z</time></trkpt><trkpt lat="44.9569735" lon="8.8761231"><ele>89.0</ele><time>2026-04-03T08:37:37.835Z</time></trkpt><trkpt lat="44.9567487" lon="8.8758841"><ele>89.5</ele><time>2026-04-03T08:37:38.834Z</time></trkpt><trkpt lat="44.9565222" lon="8.8756425"><ele>90.0</ele><time>2026-04-03T08:37:39.835Z</time></trkpt><trkpt lat="44.956295" lon="8.8753982"><ele>90.0</ele><time>2026-04-03T08:37:40.835Z</time></trkpt><trkpt lat="44.9560691" lon="8.8751478"><ele>90.0</ele><time>2026-04-03T08:37:41.835Z</time></trkpt><trkpt lat="44.9558446" lon="8.8748858"><ele>90.0</ele><time>2026-04-03T08:37:42.835Z</time></trkpt><trkpt lat="44.9556321" lon="8.8746224"><ele>90.0</ele><time>2026-04-03T08:37:43.835Z</time></trkpt><trkpt lat="44.9554111" lon="8.8743316"><ele>90.0</ele><time>2026-04-03T08:37:44.835Z</time></trkpt><trkpt lat="44.9552028" lon="8.8740396"><ele>90.0</ele><time>2026-04-03T08:37:45.835Z</time></trkpt><trkpt lat="44.9550002" lon="8.8737346"><ele>89.5</ele><time>2026-04-03T08:37:46.835Z</time></trkpt><trkpt lat="44.9548052" lon="8.8734168"><ele>89.0</ele><time>2026-04-03T08:37:47.835Z</time></trkpt><trkpt lat="44.9546183" lon="8.8730851"><ele>89.0</ele><time>2026-04-03T08:37:48.835Z</time></trkpt><trkpt lat="44.9544389" lon="8.8727442"><ele>89.0</ele><time>2026-04-03T08:37:49.835Z</time></trkpt><trkpt lat="44.9542657" lon="8.8723955"><ele>89.5</ele><time>2026-04-03T08:37:50.835Z</time></trkpt><trkpt lat="44.9541057" lon="8.872052"><ele>90.0</ele><time>2026-04-03T08:37:51.834Z</time></trkpt><trkpt lat="44.9539444" lon="8.87168"><ele>90.5</ele><time>2026-04-03T08:37:52.835Z</time></trkpt><trkpt lat="44.9537974" lon="8.8713181"><ele>91.0</ele><time>2026-04-03T08:37:53.835Z</time></trkpt><trkpt lat="44.9536546" lon="8.8709565"><ele>90.5</ele><time>2026-04-03T08:37:54.835Z</time></trkpt><trkpt lat="44.9535135" lon="8.8705981"><ele>90.0</ele><time>2026-04-03T08:37:55.834Z</time></trkpt><trkpt lat="44.9533743" lon="8.8702429"><ele>90.0</ele><time>2026-04-03T08:37:56.834Z</time></trkpt><trkpt lat="44.9532378" lon="8.8698886"><ele>90.0</ele><time>2026-04-03T08:37:57.835Z</time></trkpt><trkpt lat="44.9531033" lon="8.8695363"><ele>89.0</ele><time>2026-04-03T08:37:58.835Z</time></trkpt><trkpt lat="44.9529743" lon="8.8691963"><ele>88.0</ele><time>2026-04-03T08:37:59.835Z</time></trkpt><trkpt lat="44.9528358" lon="8.8688368"><ele>88.0</ele><time>2026-04-03T08:38:00.835Z</time></trkpt><trkpt lat="44.9527015" lon="8.8684898"><ele>88.0</ele><time>2026-04-03T08:38:01.834Z</time></trkpt><trkpt lat="44.9525676" lon="8.868143"><ele>89.5</ele><time>2026-04-03T08:38:02.834Z</time></trkpt><trkpt lat="44.9524338" lon="8.8677967"><ele>91.0</ele><time>2026-04-03T08:38:03.835Z</time></trkpt><trkpt lat="44.9522984" lon="8.8674489"><ele>91.5</ele><time>2026-04-03T08:38:04.835Z</time></trkpt><trkpt lat="44.95216" lon="8.867102"><ele>92.0</ele><time>2026-04-03T08:38:05.835Z</time></trkpt><trkpt lat="44.9520184" lon="8.8667573"><ele>92.0</ele><time>2026-04-03T08:38:06.835Z</time></trkpt><trkpt lat="44.9518771" lon="8.8664262"><ele>92.0</ele><time>2026-04-03T08:38:07.835Z</time></trkpt><trkpt lat="44.9517201" lon="8.8660797"><ele>93.5</ele><time>2026-04-03T08:38:08.835Z</time></trkpt><trkpt lat="44.9515603" lon="8.8657476"><ele>95.0</ele><time>2026-04-03T08:38:09.834Z</time></trkpt><trkpt lat="44.9513927" lon="8.865419"><ele>93.5</ele><time>2026-04-03T08:38:10.834Z</time></trkpt><trkpt lat="44.9512171" lon="8.8650967"><ele>92.0</ele><time>2026-04-03T08:38:11.835Z</time></trkpt><trkpt lat="44.9510332" lon="8.8647826"><ele>92.0</ele><time>2026-04-03T08:38:12.835Z</time></trkpt><trkpt lat="44.9508425" lon="8.8644768"><ele>92.0</ele><time>2026-04-03T08:38:13.834Z</time></trkpt><trkpt lat="44.9506457" lon="8.8641781"><ele>91.5</ele><time>2026-04-03T08:38:14.835Z</time></trkpt><trkpt lat="44.9504493" lon="8.8638969"><ele>91.0</ele><time>2026-04-03T08:38:15.834Z</time></trkpt><trkpt lat="44.9502322" lon="8.8636055"><ele>90.5</ele><time>2026-04-03T08:38:16.835Z</time></trkpt><trkpt lat="44.9500122" lon="8.8633309"><ele>90.0</ele><time>2026-04-03T08:38:17.835Z</time></trkpt><trkpt lat="44.9497809" lon="8.8630635"><ele>90.0</ele><time>2026-04-03T08:38:18.835Z</time></trkpt><trkpt lat="44.9495387" lon="8.8628036"><ele>90.0</ele><time>2026-04-03T08:38:19.835Z</time></trkpt><trkpt lat="44.9492866" lon="8.8625519"><ele>90.5</ele><time>2026-04-03T08:38:20.835Z</time></trkpt><trkpt lat="44.9490261" lon="8.8623106"><ele>91.0</ele><time>2026-04-03T08:38:21.834Z</time></trkpt><trkpt lat="44.9487577" lon="8.8620833"><ele>91.0</ele><time>2026-04-03T08:38:22.834Z</time></trkpt><trkpt lat="44.9484911" lon="8.861877"><ele>91.0</ele><time>2026-04-03T08:38:23.835Z</time></trkpt><trkpt lat="44.9482016" lon="8.8616717"><ele>91.0</ele><time>2026-04-03T08:38:24.835Z</time></trkpt><trkpt lat="44.9479171" lon="8.8614842"><ele>91.0</ele><time>2026-04-03T08:38:25.835Z</time></trkpt><trkpt lat="44.9476304" lon="8.8613022"><ele>91.5</ele><time>2026-04-03T08:38:26.835Z</time></trkpt><trkpt lat="44.9473431" lon="8.8611234"><ele>92.0</ele><time>2026-04-03T08:38:27.834Z</time></trkpt><trkpt lat="44.9470566" lon="8.8609445"><ele>92.5</ele><time>2026-04-03T08:38:28.835Z</time></trkpt><trkpt lat="44.9467711" lon="8.8607638"><ele>93.0</ele><time>2026-04-03T08:38:29.835Z</time></trkpt><trkpt lat="44.9464864" lon="8.8605819"><ele>93.0</ele><time>2026-04-03T08:38:30.835Z</time></trkpt><trkpt lat="44.9462111" lon="8.8604061"><ele>93.0</ele><time>2026-04-03T08:38:31.835Z</time></trkpt><trkpt lat="44.9459178" lon="8.8602206"><ele>93.0</ele><time>2026-04-03T08:38:32.834Z</time></trkpt><trkpt lat="44.9456345" lon="8.8600435"><ele>93.0</ele><time>2026-04-03T08:38:33.834Z</time></trkpt><trkpt lat="44.945352" lon="8.8598675"><ele>93.0</ele><time>2026-04-03T08:38:34.835Z</time></trkpt><trkpt lat="44.9450705" lon="8.8596911"><ele>93.0</ele><time>2026-04-03T08:38:35.835Z</time></trkpt><trkpt lat="44.9447901" lon="8.8595152"><ele>93.0</ele><time>2026-04-03T08:38:36.835Z</time></trkpt><trkpt lat="44.9445104" lon="8.8593394"><ele>93.0</ele><time>2026-04-03T08:38:37.834Z</time></trkpt><trkpt lat="44.9442311" lon="8.8591642"><ele>94.5</ele><time>2026-04-03T08:38:38.835Z</time></trkpt><trkpt lat="44.9439625" lon="8.8589961"><ele>96.0</ele><time>2026-04-03T08:38:39.834Z</time></trkpt><trkpt lat="44.9436765" lon="8.8588171"><ele>96.0</ele><time>2026-04-03T08:38:40.835Z</time></trkpt><trkpt lat="44.9433996" lon="8.8586433"><ele>96.0</ele><time>2026-04-03T08:38:41.835Z</time></trkpt><trkpt lat="44.9431218" lon="8.8584674"><ele>97.0</ele><time>2026-04-03T08:38:42.834Z</time></trkpt><trkpt lat="44.9428429" lon="8.8582901"><ele>98.0</ele><time>2026-04-03T08:38:43.834Z</time></trkpt><trkpt lat="44.9425631" lon="8.8581119"><ele>96.5</ele><time>2026-04-03T08:38:44.834Z</time></trkpt><trkpt lat="44.9422822" lon="8.8579324"><ele>95.0</ele><time>2026-04-03T08:38:45.835Z</time></trkpt><trkpt lat="44.9420016" lon="8.8577529"><ele>95.0</ele><time>2026-04-03T08:38:46.834Z</time></trkpt><trkpt lat="44.9417285" lon="8.8575802"><ele>95.0</ele><time>2026-04-03T08:38:47.835Z</time></trkpt><trkpt lat="44.9414331" lon="8.8573942"><ele>94.5</ele><time>2026-04-03T08:38:48.835Z</time></trkpt><trkpt lat="44.9411592" lon="8.8572219"><ele>94.0</ele><time>2026-04-03T08:38:49.835Z</time></trkpt><trkpt lat="44.9408755" lon="8.8570429"><ele>94.0</ele><time>2026-04-03T08:38:50.835Z</time></trkpt><trkpt lat="44.9405858" lon="8.8568608"><ele>94.0</ele><time>2026-04-03T08:38:51.835Z</time></trkpt><trkpt lat="44.9403026" lon="8.8566827"><ele>94.5</ele><time>2026-04-03T08:38:52.835Z</time></trkpt><trkpt lat="44.9400188" lon="8.8565041"><ele>95.0</ele><time>2026-04-03T08:38:53.835Z</time></trkpt><trkpt lat="44.9397339" lon="8.8563248"><ele>95.0</ele><time>2026-04-03T08:38:54.835Z</time></trkpt><trkpt lat="44.9394581" lon="8.8561508"><ele>95.0</ele><time>2026-04-03T08:38:55.835Z</time></trkpt><trkpt lat="44.9391573" lon="8.8559616"><ele>95.5</ele><time>2026-04-03T08:38:56.835Z</time></trkpt><trkpt lat="44.9388633" lon="8.8557782"><ele>96.0</ele><time>2026-04-03T08:38:57.835Z</time></trkpt><trkpt lat="44.9385557" lon="8.8555859"><ele>95.0</ele><time>2026-04-03T08:38:58.834Z</time></trkpt><trkpt lat="44.9382391" lon="8.8553865"><ele>94.0</ele><time>2026-04-03T08:38:59.835Z</time></trkpt><trkpt lat="44.9379239" lon="8.8551906"><ele>95.0</ele><time>2026-04-03T08:39:00.835Z</time></trkpt><trkpt lat="44.9376148" lon="8.8549965"><ele>96.0</ele><time>2026-04-03T08:39:01.835Z</time></trkpt><trkpt lat="44.9373003" lon="8.8547975"><ele>96.5</ele><time>2026-04-03T08:39:02.835Z</time></trkpt><trkpt lat="44.9369865" lon="8.8545981"><ele>97.0</ele><time>2026-04-03T08:39:03.835Z</time></trkpt><trkpt lat="44.9366666" lon="8.8543937"><ele>97.5</ele><time>2026-04-03T08:39:04.834Z</time></trkpt><trkpt lat="44.9363536" lon="8.8541941"><ele>98.0</ele><time>2026-04-03T08:39:05.835Z</time></trkpt><trkpt lat="44.9360422" lon="8.8539933"><ele>97.0</ele><time>2026-04-03T08:39:06.835Z</time></trkpt><trkpt lat="44.9357316" lon="8.8537867"><ele>96.0</ele><time>2026-04-03T08:39:07.835Z</time></trkpt><trkpt lat="44.9354215" lon="8.853575"><ele>96.0</ele><time>2026-04-03T08:39:08.834Z</time></trkpt><trkpt lat="44.9351229" lon="8.8533742"><ele>96.0</ele><time>2026-04-03T08:39:09.834Z</time></trkpt><trkpt lat="44.9348058" lon="8.8531681"><ele>98.0</ele><time>2026-04-03T08:39:10.834Z</time></trkpt><trkpt lat="44.9345053" lon="8.8529784"><ele>100.0</ele><time>2026-04-03T08:39:11.835Z</time></trkpt><trkpt lat="44.9341861" lon="8.8527783"><ele>100.5</ele><time>2026-04-03T08:39:12.834Z</time></trkpt><trkpt lat="44.9338835" lon="8.852588"><ele>101.0</ele><time>2026-04-03T08:39:13.835Z</time></trkpt><trkpt lat="44.9335929" lon="8.8524065"><ele>101.5</ele><time>2026-04-03T08:39:14.835Z</time></trkpt><trkpt lat="44.9333125" lon="8.8522309"><ele>102.0</ele><time>2026-04-03T08:39:15.835Z</time></trkpt><trkpt lat="44.9330435" lon="8.8520621"><ele>102.0</ele><time>2026-04-03T08:39:16.834Z</time></trkpt><trkpt lat="44.9327836" lon="8.8518985"><ele>102.0</ele><time>2026-04-03T08:39:17.835Z</time></trkpt><trkpt lat="44.9325232" lon="8.8517348"><ele>101.5</ele><time>2026-04-03T08:39:18.835Z</time></trkpt><trkpt lat="44.9322672" lon="8.8515793"><ele>101.0</ele><time>2026-04-03T08:39:19.834Z</time></trkpt><trkpt lat="44.9319809" lon="8.8514177"><ele>101.0</ele><time>2026-04-03T08:39:20.834Z</time></trkpt><trkpt lat="44.9316911" lon="8.8512546"><ele>101.0</ele><time>2026-04-03T08:39:21.835Z</time></trkpt><trkpt lat="44.9314012" lon="8.8510799"><ele>100.0</ele><time>2026-04-03T08:39:22.835Z</time></trkpt><trkpt lat="44.9310983" lon="8.8508847"><ele>99.0</ele><time>2026-04-03T08:39:23.835Z</time></trkpt><trkpt lat="44.9307973" lon="8.8506928"><ele>99.0</ele><time>2026-04-03T08:39:24.835Z</time></trkpt><trkpt lat="44.9304946" lon="8.8505064"><ele>99.0</ele><time>2026-04-03T08:39:25.835Z</time></trkpt><trkpt lat="44.9301925" lon="8.8503201"><ele>100.0</ele><time>2026-04-03T08:39:26.834Z</time></trkpt><trkpt lat="44.9298848" lon="8.8501422"><ele>101.0</ele><time>2026-04-03T08:39:27.834Z</time></trkpt><trkpt lat="44.929579" lon="8.8499366"><ele>101.0</ele><time>2026-04-03T08:39:28.835Z</time></trkpt><trkpt lat="44.9292791" lon="8.8497483"><ele>101.0</ele><time>2026-04-03T08:39:29.834Z</time></trkpt><trkpt lat="44.9289607" lon="8.8495491"><ele>101.0</ele><time>2026-04-03T08:39:30.835Z</time></trkpt><trkpt lat="44.9286494" lon="8.8493522"><ele>101.0</ele><time>2026-04-03T08:39:31.835Z</time></trkpt><trkpt lat="44.9283386" lon="8.8491552"><ele>100.0</ele><time>2026-04-03T08:39:32.835Z</time></trkpt><trkpt lat="44.9280362" lon="8.8489625"><ele>99.0</ele><time>2026-04-03T08:39:33.835Z</time></trkpt><trkpt lat="44.9277211" lon="8.8487631"><ele>99.5</ele><time>2026-04-03T08:39:34.835Z</time></trkpt><trkpt lat="44.9274215" lon="8.8485746"><ele>100.0</ele><time>2026-04-03T08:39:35.835Z</time></trkpt><trkpt lat="44.927111" lon="8.8483793"><ele>100.0</ele><time>2026-04-03T08:39:36.834Z</time></trkpt><trkpt lat="44.9268049" lon="8.8481865"><ele>100.0</ele><time>2026-04-03T08:39:37.834Z</time></trkpt><trkpt lat="44.926493" lon="8.8479946"><ele>100.0</ele><time>2026-04-03T08:39:38.834Z</time></trkpt><trkpt lat="44.9261733" lon="8.847799"><ele>100.0</ele><time>2026-04-03T08:39:39.835Z</time></trkpt><trkpt lat="44.9258569" lon="8.8476048"><ele>100.0</ele><time>2026-04-03T08:39:40.834Z</time></trkpt><trkpt lat="44.9255562" lon="8.8474153"><ele>100.0</ele><time>2026-04-03T08:39:41.835Z</time></trkpt><trkpt lat="44.925257" lon="8.8472332"><ele>101.0</ele><time>2026-04-03T08:39:42.835Z</time></trkpt><trkpt lat="44.9249527" lon="8.8470396"><ele>102.0</ele><time>2026-04-03T08:39:43.835Z</time></trkpt><trkpt lat="44.9246294" lon="8.8468289"><ele>102.5</ele><time>2026-04-03T08:39:44.834Z</time></trkpt><trkpt lat="44.9243275" lon="8.8466407"><ele>103.0</ele><time>2026-04-03T08:39:45.834Z</time></trkpt><trkpt lat="44.9240147" lon="8.8464501"><ele>103.0</ele><time>2026-04-03T08:39:46.835Z</time></trkpt><trkpt lat="44.923689" lon="8.8462627"><ele>103.0</ele><time>2026-04-03T08:39:47.835Z</time></trkpt><trkpt lat="44.9233708" lon="8.8460925"><ele>103.0</ele><time>2026-04-03T08:39:48.834Z</time></trkpt><trkpt lat="44.9230599" lon="8.8459387"><ele>103.0</ele><time>2026-04-03T08:39:49.835Z</time></trkpt><trkpt lat="44.9227381" lon="8.8457894"><ele>104.0</ele><time>2026-04-03T08:39:50.835Z</time></trkpt><trkpt lat="44.9224145" lon="8.8456467"><ele>105.0</ele><time>2026-04-03T08:39:51.835Z</time></trkpt><trkpt lat="44.9220793" lon="8.8455054"><ele>105.0</ele><time>2026-04-03T08:39:52.835Z</time></trkpt><trkpt lat="44.9217629" lon="8.8453803"><ele>105.0</ele><time>2026-04-03T08:39:53.835Z</time></trkpt><trkpt lat="44.9214369" lon="8.8452619"><ele>106.0</ele><time>2026-04-03T08:39:54.834Z</time></trkpt><trkpt lat="44.9210994" lon="8.84515"><ele>107.0</ele><time>2026-04-03T08:39:55.835Z</time></trkpt><trkpt lat="44.9207736" lon="8.8450525"><ele>107.0</ele><time>2026-04-03T08:39:56.834Z</time></trkpt><trkpt lat="44.9204593" lon="8.8449665"><ele>107.0</ele><time>2026-04-03T08:39:57.835Z</time></trkpt><trkpt lat="44.9201326" lon="8.8448861"><ele>106.0</ele><time>2026-04-03T08:39:58.834Z</time></trkpt><trkpt lat="44.9198035" lon="8.8448155"><ele>105.0</ele><time>2026-04-03T08:39:59.834Z</time></trkpt><trkpt lat="44.9194646" lon="8.8447516"><ele>105.5</ele><time>2026-04-03T08:40:00.835Z</time></trkpt><trkpt lat="44.9191459" lon="8.8446959"><ele>106.0</ele><time>2026-04-03T08:40:01.835Z</time></trkpt><trkpt lat="44.9188135" lon="8.8446468"><ele>106.0</ele><time>2026-04-03T08:40:02.834Z</time></trkpt><trkpt lat="44.9184707" lon="8.8446047"><ele>106.0</ele><time>2026-04-03T08:40:03.835Z</time></trkpt><trkpt lat="44.9181367" lon="8.8445703"><ele>106.0</ele><time>2026-04-03T08:40:04.834Z</time></trkpt><trkpt lat="44.9178116" lon="8.8445402"><ele>106.0</ele><time>2026-04-03T08:40:05.834Z</time></trkpt><trkpt lat="44.9174737" lon="8.8445094"><ele>106.0</ele><time>2026-04-03T08:40:06.835Z</time></trkpt><trkpt lat="44.9171364" lon="8.8444782"><ele>106.0</ele><time>2026-04-03T08:40:07.835Z</time></trkpt><trkpt lat="44.9167868" lon="8.8444454"><ele>108.0</ele><time>2026-04-03T08:40:08.835Z</time></trkpt><trkpt lat="44.9164599" lon="8.8444148"><ele>110.0</ele><time>2026-04-03T08:40:09.834Z</time></trkpt><trkpt lat="44.9161229" lon="8.8443849"><ele>108.0</ele><time>2026-04-03T08:40:10.835Z</time></trkpt><trkpt lat="44.9157791" lon="8.8443535"><ele>106.0</ele><time>2026-04-03T08:40:11.834Z</time></trkpt><trkpt lat="44.9154445" lon="8.844323"><ele>106.5</ele><time>2026-04-03T08:40:12.834Z</time></trkpt><trkpt lat="44.9151222" lon="8.844293"><ele>107.0</ele><time>2026-04-03T08:40:13.835Z</time></trkpt><trkpt lat="44.9147898" lon="8.8442607"><ele>107.0</ele><time>2026-04-03T08:40:14.835Z</time></trkpt><trkpt lat="44.9144559" lon="8.8442284"><ele>107.0</ele><time>2026-04-03T08:40:15.834Z</time></trkpt><trkpt lat="44.9141165" lon="8.844193"><ele>106.0</ele><time>2026-04-03T08:40:16.835Z</time></trkpt><trkpt lat="44.9138104" lon="8.8441632"><ele>105.0</ele><time>2026-04-03T08:40:17.834Z</time></trkpt><trkpt lat="44.913507" lon="8.844138"><ele>105.5</ele><time>2026-04-03T08:40:18.834Z</time></trkpt><trkpt lat="44.9131972" lon="8.8441074"><ele>106.0</ele><time>2026-04-03T08:40:19.834Z</time></trkpt><trkpt lat="44.9128975" lon="8.8440794"><ele>106.0</ele><time>2026-04-03T08:40:20.835Z</time></trkpt><trkpt lat="44.9126077" lon="8.8440522"><ele>106.0</ele><time>2026-04-03T08:40:21.835Z</time></trkpt><trkpt lat="44.9123171" lon="8.8440249"><ele>105.5</ele><time>2026-04-03T08:40:22.834Z</time></trkpt><trkpt lat="44.9120393" lon="8.8439977"><ele>105.0</ele><time>2026-04-03T08:40:23.835Z</time></trkpt><trkpt lat="44.9117655" lon="8.84397"><ele>105.0</ele><time>2026-04-03T08:40:24.835Z</time></trkpt><trkpt lat="44.9115162" lon="8.8439445"><ele>105.0</ele><time>2026-04-03T08:40:25.835Z</time></trkpt><trkpt lat="44.9112609" lon="8.8439192"><ele>105.0</ele><time>2026-04-03T08:40:26.835Z</time></trkpt><trkpt lat="44.9109972" lon="8.8438946"><ele>105.0</ele><time>2026-04-03T08:40:27.834Z</time></trkpt><trkpt lat="44.9107423" lon="8.843871"><ele>106.0</ele><time>2026-04-03T08:40:28.835Z</time></trkpt><trkpt lat="44.9104968" lon="8.8438485"><ele>107.0</ele><time>2026-04-03T08:40:29.834Z</time></trkpt><trkpt lat="44.9102457" lon="8.8438261"><ele>107.5</ele><time>2026-04-03T08:40:30.835Z</time></trkpt><trkpt lat="44.9099964" lon="8.8438035"><ele>108.0</ele><time>2026-04-03T08:40:31.834Z</time></trkpt><trkpt lat="44.909741" lon="8.8437801"><ele>108.0</ele><time>2026-04-03T08:40:32.835Z</time></trkpt><trkpt lat="44.9095024" lon="8.8437582"><ele>108.0</ele><time>2026-04-03T08:40:33.834Z</time></trkpt><trkpt lat="44.9092561" lon="8.8437359"><ele>108.0</ele><time>2026-04-03T08:40:34.835Z</time></trkpt><trkpt lat="44.9090022" lon="8.8437141"><ele>108.0</ele><time>2026-04-03T08:40:35.835Z</time></trkpt><trkpt lat="44.9087539" lon="8.8436932"><ele>108.0</ele><time>2026-04-03T08:40:36.835Z</time></trkpt><trkpt lat="44.9085119" lon="8.8436717"><ele>108.0</ele><time>2026-04-03T08:40:37.835Z</time></trkpt><trkpt lat="44.9082608" lon="8.8436467"><ele>108.5</ele><time>2026-04-03T08:40:38.835Z</time></trkpt><trkpt lat="44.9080067" lon="8.8436201"><ele>109.0</ele><time>2026-04-03T08:40:39.835Z</time></trkpt><trkpt lat="44.9077435" lon="8.8435916"><ele>109.0</ele><time>2026-04-03T08:40:40.834Z</time></trkpt><trkpt lat="44.9074951" lon="8.8435673"><ele>109.0</ele><time>2026-04-03T08:40:41.835Z</time></trkpt><trkpt lat="44.9072383" lon="8.8435446"><ele>109.0</ele><time>2026-04-03T08:40:42.834Z</time></trkpt><trkpt lat="44.9069728" lon="8.8435222"><ele>109.0</ele><time>2026-04-03T08:40:43.835Z</time></trkpt><trkpt lat="44.9067139" lon="8.8435001"><ele>109.0</ele><time>2026-04-03T08:40:44.835Z</time></trkpt><trkpt lat="44.9064622" lon="8.8434783"><ele>109.0</ele><time>2026-04-03T08:40:45.834Z</time></trkpt><trkpt lat="44.9062022" lon="8.8434548"><ele>109.0</ele><time>2026-04-03T08:40:46.835Z</time></trkpt><trkpt lat="44.9059404" lon="8.84343"><ele>109.0</ele><time>2026-04-03T08:40:47.835Z</time></trkpt><trkpt lat="44.9056658" lon="8.8434036"><ele>109.0</ele><time>2026-04-03T08:40:48.835Z</time></trkpt><trkpt lat="44.905403" lon="8.8433769"><ele>109.0</ele><time>2026-04-03T08:40:49.835Z</time></trkpt><trkpt lat="44.9051282" lon="8.8433483"><ele>109.0</ele><time>2026-04-03T08:40:50.834Z</time></trkpt><trkpt lat="44.9048407" lon="8.8433205"><ele>109.0</ele><time>2026-04-03T08:40:51.835Z</time></trkpt><trkpt lat="44.9045591" lon="8.8432943"><ele>109.0</ele><time>2026-04-03T08:40:52.834Z</time></trkpt><trkpt lat="44.9042857" lon="8.8432689"><ele>109.0</ele><time>2026-04-03T08:40:53.834Z</time></trkpt><trkpt lat="44.9040034" lon="8.8432418"><ele>110.0</ele><time>2026-04-03T08:40:54.835Z</time></trkpt><trkpt lat="44.9037215" lon="8.843215"><ele>111.0</ele><time>2026-04-03T08:40:55.835Z</time></trkpt><trkpt lat="44.9034306" lon="8.8431877"><ele>110.0</ele><time>2026-04-03T08:40:56.834Z</time></trkpt><trkpt lat="44.9031571" lon="8.8431629"><ele>109.0</ele><time>2026-04-03T08:40:57.835Z</time></trkpt><trkpt lat="44.9028739" lon="8.8431366"><ele>109.0</ele><time>2026-04-03T08:40:58.834Z</time></trkpt><trkpt lat="44.902582" lon="8.8431097"><ele>109.0</ele><time>2026-04-03T08:40:59.834Z</time></trkpt><trkpt lat="44.9022998" lon="8.8430839"><ele>109.5</ele><time>2026-04-03T08:41:00.835Z</time></trkpt><trkpt lat="44.9020257" lon="8.8430569"><ele>110.0</ele><time>2026-04-03T08:41:01.835Z</time></trkpt><trkpt lat="44.901741" lon="8.8430256"><ele>110.0</ele><time>2026-04-03T08:41:02.834Z</time></trkpt><trkpt lat="44.9014544" lon="8.8429907"><ele>110.0</ele><time>2026-04-03T08:41:03.835Z</time></trkpt><trkpt lat="44.9011566" lon="8.8429525"><ele>110.0</ele><time>2026-04-03T08:41:04.834Z</time></trkpt><trkpt lat="44.9008758" lon="8.8429166"><ele>110.0</ele><time>2026-04-03T08:41:05.834Z</time></trkpt><trkpt lat="44.9005856" lon="8.8428789"><ele>110.0</ele><time>2026-04-03T08:41:06.835Z</time></trkpt><trkpt lat="44.9002859" lon="8.8428363"><ele>110.0</ele><time>2026-04-03T08:41:07.835Z</time></trkpt><trkpt lat="44.8999975" lon="8.8427921"><ele>111.5</ele><time>2026-04-03T08:41:08.835Z</time></trkpt><trkpt lat="44.8997209" lon="8.8427474"><ele>113.0</ele><time>2026-04-03T08:41:09.835Z</time></trkpt><trkpt lat="44.8994361" lon="8.8426995"><ele>113.5</ele><time>2026-04-03T08:41:10.834Z</time></trkpt><trkpt lat="44.8991518" lon="8.8426511"><ele>114.0</ele><time>2026-04-03T08:41:11.835Z</time></trkpt><trkpt lat="44.8988593" lon="8.8426021"><ele>114.0</ele><time>2026-04-03T08:41:12.835Z</time></trkpt><trkpt lat="44.8985847" lon="8.8425571"><ele>114.0</ele><time>2026-04-03T08:41:13.834Z</time></trkpt><trkpt lat="44.898301" lon="8.8425103"><ele>114.5</ele><time>2026-04-03T08:41:14.835Z</time></trkpt><trkpt lat="44.8980089" lon="8.8424618"><ele>115.0</ele><time>2026-04-03T08:41:15.834Z</time></trkpt><trkpt lat="44.8977263" lon="8.8424141"><ele>115.5</ele><time>2026-04-03T08:41:16.835Z</time></trkpt><trkpt lat="44.8974528" lon="8.8423665"><ele>116.0</ele><time>2026-04-03T08:41:17.834Z</time></trkpt><trkpt lat="44.8971706" lon="8.842317"><ele>116.0</ele><time>2026-04-03T08:41:18.834Z</time></trkpt><trkpt lat="44.8968878" lon="8.8422691"><ele>116.0</ele><time>2026-04-03T08:41:19.835Z</time></trkpt><trkpt lat="44.8965962" lon="8.8422214"><ele>115.0</ele><time>2026-04-03T08:41:20.835Z</time></trkpt><trkpt lat="44.8963231" lon="8.8421777"><ele>114.0</ele><time>2026-04-03T08:41:21.834Z</time></trkpt><trkpt lat="44.89604" lon="8.8421318"><ele>115.5</ele><time>2026-04-03T08:41:22.834Z</time></trkpt><trkpt lat="44.8957486" lon="8.8420832"><ele>117.0</ele><time>2026-04-03T08:41:23.834Z</time></trkpt><trkpt lat="44.895466" lon="8.8420373"><ele>117.0</ele><time>2026-04-03T08:41:24.835Z</time></trkpt><trkpt lat="44.8951936" lon="8.8419944"><ele>117.0</ele><time>2026-04-03T08:41:25.835Z</time></trkpt><trkpt lat="44.8949122" lon="8.8419498"><ele>116.5</ele><time>2026-04-03T08:41:26.834Z</time></trkpt><trkpt lat="44.8946306" lon="8.8419048"><ele>116.0</ele><time>2026-04-03T08:41:27.835Z</time></trkpt><trkpt lat="44.89434" lon="8.8418574"><ele>117.0</ele><time>2026-04-03T08:41:28.835Z</time></trkpt><trkpt lat="44.8940664" lon="8.8418116"><ele>118.0</ele><time>2026-04-03T08:41:29.834Z</time></trkpt><trkpt lat="44.8937831" lon="8.8417639"><ele>118.0</ele><time>2026-04-03T08:41:30.834Z</time></trkpt><trkpt lat="44.8934883" lon="8.8417149"><ele>118.0</ele><time>2026-04-03T08:41:31.835Z</time></trkpt><trkpt lat="44.8931996" lon="8.8416671"><ele>117.5</ele><time>2026-04-03T08:41:32.835Z</time></trkpt><trkpt lat="44.8929172" lon="8.8416202"><ele>117.0</ele><time>2026-04-03T08:41:33.835Z</time></trkpt><trkpt lat="44.8926235" lon="8.8415647"><ele>116.5</ele><time>2026-04-03T08:41:34.834Z</time></trkpt><trkpt lat="44.8923281" lon="8.8414998"><ele>116.0</ele><time>2026-04-03T08:41:35.834Z</time></trkpt><trkpt lat="44.8920224" lon="8.841427"><ele>115.5</ele><time>2026-04-03T08:41:36.835Z</time></trkpt><trkpt lat="44.8917348" lon="8.8413548"><ele>115.0</ele><time>2026-04-03T08:41:37.834Z</time></trkpt><trkpt lat="44.8914371" lon="8.8412769"><ele>115.0</ele><time>2026-04-03T08:41:38.834Z</time></trkpt><trkpt lat="44.8911299" lon="8.8411925"><ele>115.0</ele><time>2026-04-03T08:41:39.834Z</time></trkpt><trkpt lat="44.8908329" lon="8.841107"><ele>116.0</ele><time>2026-04-03T08:41:40.834Z</time></trkpt><trkpt lat="44.8905465" lon="8.8410206"><ele>117.0</ele><time>2026-04-03T08:41:41.835Z</time></trkpt><trkpt lat="44.8902531" lon="8.8409274"><ele>117.5</ele><time>2026-04-03T08:41:42.835Z</time></trkpt><trkpt lat="44.8899607" lon="8.840829"><ele>118.0</ele><time>2026-04-03T08:41:43.835Z</time></trkpt><trkpt lat="44.889662" lon="8.8407223"><ele>118.0</ele><time>2026-04-03T08:41:44.835Z</time></trkpt><trkpt lat="44.8893821" lon="8.8406181"><ele>118.0</ele><time>2026-04-03T08:41:45.835Z</time></trkpt><trkpt lat="44.8890949" lon="8.8405075"><ele>117.5</ele><time>2026-04-03T08:41:46.835Z</time></trkpt><trkpt lat="44.8887994" lon="8.8403899"><ele>117.0</ele><time>2026-04-03T08:41:47.834Z</time></trkpt><trkpt lat="44.8885122" lon="8.8402731"><ele>117.0</ele><time>2026-04-03T08:41:48.835Z</time></trkpt><trkpt lat="44.8882332" lon="8.840154"><ele>117.0</ele><time>2026-04-03T08:41:49.834Z</time></trkpt><trkpt lat="44.8879444" lon="8.8400254"><ele>117.0</ele><time>2026-04-03T08:41:50.834Z</time></trkpt><trkpt lat="44.8876551" lon="8.8398924"><ele>117.0</ele><time>2026-04-03T08:41:51.835Z</time></trkpt><trkpt lat="44.8873566" lon="8.8397529"><ele>117.0</ele><time>2026-04-03T08:41:52.835Z</time></trkpt><trkpt lat="44.8870771" lon="8.8396206"><ele>117.0</ele><time>2026-04-03T08:41:53.834Z</time></trkpt><trkpt lat="44.8867882" lon="8.8394822"><ele>117.0</ele><time>2026-04-03T08:41:54.834Z</time></trkpt><trkpt lat="44.8864893" lon="8.83934"><ele>117.0</ele><time>2026-04-03T08:41:55.834Z</time></trkpt><trkpt lat="44.8861978" lon="8.8392009"><ele>118.0</ele><time>2026-04-03T08:41:56.835Z</time></trkpt><trkpt lat="44.8859142" lon="8.8390662"><ele>119.0</ele><time>2026-04-03T08:41:57.835Z</time></trkpt><trkpt lat="44.8856192" lon="8.8389266"><ele>119.0</ele><time>2026-04-03T08:41:58.834Z</time></trkpt><trkpt lat="44.8853225" lon="8.8387864"><ele>119.0</ele><time>2026-04-03T08:41:59.835Z</time></trkpt><trkpt lat="44.8850162" lon="8.8386412"><ele>119.0</ele><time>2026-04-03T08:42:00.835Z</time></trkpt><trkpt lat="44.8847305" lon="8.838506"><ele>119.0</ele><time>2026-04-03T08:42:01.835Z</time></trkpt><trkpt lat="44.8844385" lon="8.8383691"><ele>118.0</ele><time>2026-04-03T08:42:02.835Z</time></trkpt><trkpt lat="44.8841435" lon="8.8382307"><ele>117.0</ele><time>2026-04-03T08:42:03.835Z</time></trkpt><trkpt lat="44.8838643" lon="8.8380999"><ele>117.0</ele><time>2026-04-03T08:42:04.834Z</time></trkpt><trkpt lat="44.883605" lon="8.8379774"><ele>117.0</ele><time>2026-04-03T08:42:05.835Z</time></trkpt><trkpt lat="44.8833448" lon="8.837854"><ele>118.5</ele><time>2026-04-03T08:42:06.835Z</time></trkpt><trkpt lat="44.883091" lon="8.8377324"><ele>120.0</ele><time>2026-04-03T08:42:07.835Z</time></trkpt><trkpt lat="44.8828322" lon="8.8376093"><ele>120.0</ele><time>2026-04-03T08:42:08.835Z</time></trkpt><trkpt lat="44.8825915" lon="8.8374956"><ele>120.0</ele><time>2026-04-03T08:42:09.835Z</time></trkpt><trkpt lat="44.882344" lon="8.837379"><ele>120.0</ele><time>2026-04-03T08:42:10.835Z</time></trkpt><trkpt lat="44.8820882" lon="8.8372584"><ele>120.0</ele><time>2026-04-03T08:42:11.835Z</time></trkpt><trkpt lat="44.8818394" lon="8.8371417"><ele>119.0</ele><time>2026-04-03T08:42:12.835Z</time></trkpt><trkpt lat="44.8815967" lon="8.8370278"><ele>118.0</ele><time>2026-04-03T08:42:13.834Z</time></trkpt><trkpt lat="44.8813442" lon="8.8369098"><ele>119.5</ele><time>2026-04-03T08:42:14.835Z</time></trkpt><trkpt lat="44.8810905" lon="8.8367908"><ele>121.0</ele><time>2026-04-03T08:42:15.835Z</time></trkpt><trkpt lat="44.8808275" lon="8.8366675"><ele>121.0</ele><time>2026-04-03T08:42:16.834Z</time></trkpt><trkpt lat="44.8805796" lon="8.8365504"><ele>121.0</ele><time>2026-04-03T08:42:17.835Z</time></trkpt><trkpt lat="44.8803226" lon="8.8364281"><ele>122.0</ele><time>2026-04-03T08:42:18.835Z</time></trkpt><trkpt lat="44.8800567" lon="8.8363007"><ele>123.0</ele><time>2026-04-03T08:42:19.835Z</time></trkpt><trkpt lat="44.879799" lon="8.8361768"><ele>123.0</ele><time>2026-04-03T08:42:20.835Z</time></trkpt><trkpt lat="44.8795472" lon="8.8360561"><ele>123.0</ele><time>2026-04-03T08:42:21.835Z</time></trkpt><trkpt lat="44.879287" lon="8.8359318"><ele>123.5</ele><time>2026-04-03T08:42:22.835Z</time></trkpt><trkpt lat="44.8790256" lon="8.8358077"><ele>124.0</ele><time>2026-04-03T08:42:23.835Z</time></trkpt><trkpt lat="44.878754" lon="8.8356776"><ele>124.0</ele><time>2026-04-03T08:42:24.835Z</time></trkpt><trkpt lat="44.8784971" lon="8.8355565"><ele>124.0</ele><time>2026-04-03T08:42:25.835Z</time></trkpt><trkpt lat="44.8782274" lon="8.8354297"><ele>123.5</ele><time>2026-04-03T08:42:26.834Z</time></trkpt><trkpt lat="44.8779439" lon="8.8352975"><ele>123.0</ele><time>2026-04-03T08:42:27.835Z</time></trkpt><trkpt lat="44.877665" lon="8.835168"><ele>123.0</ele><time>2026-04-03T08:42:28.835Z</time></trkpt><trkpt lat="44.8773929" lon="8.8350445"><ele>123.0</ele><time>2026-04-03T08:42:29.834Z</time></trkpt><trkpt lat="44.877109" lon="8.8349192"><ele>123.0</ele><time>2026-04-03T08:42:30.835Z</time></trkpt><trkpt lat="44.8768244" lon="8.834796"><ele>123.0</ele><time>2026-04-03T08:42:31.834Z</time></trkpt><trkpt lat="44.87653" lon="8.8346704"><ele>122.5</ele><time>2026-04-03T08:42:32.834Z</time></trkpt><trkpt lat="44.8762525" lon="8.8345522"><ele>122.0</ele><time>2026-04-03T08:42:33.835Z</time></trkpt><trkpt lat="44.8759713" lon="8.8344315"><ele>122.0</ele><time>2026-04-03T08:42:34.835Z</time></trkpt><trkpt lat="44.8756751" lon="8.8343032"><ele>122.0</ele><time>2026-04-03T08:42:35.834Z</time></trkpt><trkpt lat="44.8753786" lon="8.8341743"><ele>123.0</ele><time>2026-04-03T08:42:36.834Z</time></trkpt><trkpt lat="44.8750881" lon="8.834047"><ele>124.0</ele><time>2026-04-03T08:42:37.834Z</time></trkpt><trkpt lat="44.8747851" lon="8.8339162"><ele>124.0</ele><time>2026-04-03T08:42:38.834Z</time></trkpt><trkpt lat="44.8744832" lon="8.8337847"><ele>124.0</ele><time>2026-04-03T08:42:39.835Z</time></trkpt><trkpt lat="44.8741716" lon="8.833648"><ele>124.5</ele><time>2026-04-03T08:42:40.835Z</time></trkpt><trkpt lat="44.8738827" lon="8.8335209"><ele>125.0</ele><time>2026-04-03T08:42:41.835Z</time></trkpt><trkpt lat="44.8735876" lon="8.8333902"><ele>124.5</ele><time>2026-04-03T08:42:42.834Z</time></trkpt><trkpt lat="44.873287" lon="8.8332578"><ele>124.0</ele><time>2026-04-03T08:42:43.834Z</time></trkpt><trkpt lat="44.8730065" lon="8.8331349"><ele>124.0</ele><time>2026-04-03T08:42:44.834Z</time></trkpt><trkpt lat="44.8727264" lon="8.8330138"><ele>124.0</ele><time>2026-04-03T08:42:45.835Z</time></trkpt><trkpt lat="44.8724459" lon="8.8328934"><ele>124.0</ele><time>2026-04-03T08:42:46.835Z</time></trkpt><trkpt lat="44.8721671" lon="8.8327733"><ele>124.0</ele><time>2026-04-03T08:42:47.835Z</time></trkpt><trkpt lat="44.8718866" lon="8.8326505"><ele>123.5</ele><time>2026-04-03T08:42:48.835Z</time></trkpt><trkpt lat="44.8716096" lon="8.8325284"><ele>123.0</ele><time>2026-04-03T08:42:49.834Z</time></trkpt><trkpt lat="44.8713325" lon="8.8324066"><ele>123.0</ele><time>2026-04-03T08:42:50.835Z</time></trkpt><trkpt lat="44.8710494" lon="8.8322832"><ele>123.0</ele><time>2026-04-03T08:42:51.834Z</time></trkpt><trkpt lat="44.870772" lon="8.8321623"><ele>123.0</ele><time>2026-04-03T08:42:52.835Z</time></trkpt><trkpt lat="44.8705039" lon="8.8320455"><ele>123.0</ele><time>2026-04-03T08:42:53.834Z</time></trkpt><trkpt lat="44.8702262" lon="8.831925"><ele>123.5</ele><time>2026-04-03T08:42:54.835Z</time></trkpt><trkpt lat="44.8699453" lon="8.8318032"><ele>124.0</ele><time>2026-04-03T08:42:55.834Z</time></trkpt><trkpt lat="44.8696665" lon="8.8316831"><ele>124.0</ele><time>2026-04-03T08:42:56.834Z</time></trkpt><trkpt lat="44.8693904" lon="8.8315643"><ele>124.0</ele><time>2026-04-03T08:42:57.835Z</time></trkpt><trkpt lat="44.8691111" lon="8.831443"><ele>125.0</ele><time>2026-04-03T08:42:58.835Z</time></trkpt><trkpt lat="44.868819" lon="8.8313165"><ele>126.0</ele><time>2026-04-03T08:42:59.834Z</time></trkpt><trkpt lat="44.8685398" lon="8.8311959"><ele>126.0</ele><time>2026-04-03T08:43:00.835Z</time></trkpt><trkpt lat="44.8682618" lon="8.8310767"><ele>126.0</ele><time>2026-04-03T08:43:01.834Z</time></trkpt><trkpt lat="44.8679765" lon="8.8309585"><ele>125.5</ele><time>2026-04-03T08:43:02.835Z</time></trkpt><trkpt lat="44.8676918" lon="8.8308472"><ele>125.0</ele><time>2026-04-03T08:43:03.835Z</time></trkpt><trkpt lat="44.8673918" lon="8.8307394"><ele>124.5</ele><time>2026-04-03T08:43:04.835Z</time></trkpt><trkpt lat="44.8671067" lon="8.8306474"><ele>124.0</ele><time>2026-04-03T08:43:05.835Z</time></trkpt><trkpt lat="44.8668047" lon="8.8305596"><ele>124.5</ele><time>2026-04-03T08:43:06.834Z</time></trkpt><trkpt lat="44.8664913" lon="8.8304763"><ele>125.0</ele><time>2026-04-03T08:43:07.834Z</time></trkpt><trkpt lat="44.8661946" lon="8.8304025"><ele>126.0</ele><time>2026-04-03T08:43:08.835Z</time></trkpt><trkpt lat="44.8658883" lon="8.8303328"><ele>127.0</ele><time>2026-04-03T08:43:09.835Z</time></trkpt><trkpt lat="44.8655766" lon="8.8302695"><ele>127.0</ele><time>2026-04-03T08:43:10.834Z</time></trkpt><trkpt lat="44.8652588" lon="8.8302139"><ele>127.0</ele><time>2026-04-03T08:43:11.835Z</time></trkpt><trkpt lat="44.8649431" lon="8.8301666"><ele>126.5</ele><time>2026-04-03T08:43:12.835Z</time></trkpt><trkpt lat="44.864625" lon="8.8301264"><ele>126.0</ele><time>2026-04-03T08:43:13.835Z</time></trkpt><trkpt lat="44.8643087" lon="8.8300938"><ele>126.0</ele><time>2026-04-03T08:43:14.835Z</time></trkpt><trkpt lat="44.8639773" lon="8.8300672"><ele>126.0</ele><time>2026-04-03T08:43:15.835Z</time></trkpt><trkpt lat="44.8636548" lon="8.8300483"><ele>126.5</ele><time>2026-04-03T08:43:16.835Z</time></trkpt><trkpt lat="44.8633399" lon="8.8300316"><ele>127.0</ele><time>2026-04-03T08:43:17.835Z</time></trkpt><trkpt lat="44.8630059" lon="8.8300187"><ele>127.0</ele><time>2026-04-03T08:43:18.834Z</time></trkpt><trkpt lat="44.8626719" lon="8.8300045"><ele>127.0</ele><time>2026-04-03T08:43:19.834Z</time></trkpt><trkpt lat="44.8623554" lon="8.829986"><ele>127.0</ele><time>2026-04-03T08:43:20.835Z</time></trkpt><trkpt lat="44.862052" lon="8.8299703"><ele>127.0</ele><time>2026-04-03T08:43:21.834Z</time></trkpt><trkpt lat="44.861739" lon="8.8299535"><ele>127.0</ele><time>2026-04-03T08:43:22.835Z</time></trkpt><trkpt lat="44.8614215" lon="8.8299345"><ele>127.0</ele><time>2026-04-03T08:43:23.835Z</time></trkpt><trkpt lat="44.8611264" lon="8.8299158"><ele>128.0</ele><time>2026-04-03T08:43:24.835Z</time></trkpt><trkpt lat="44.860824" lon="8.8298959"><ele>129.0</ele><time>2026-04-03T08:43:25.835Z</time></trkpt><trkpt lat="44.860528" lon="8.8298782"><ele>129.0</ele><time>2026-04-03T08:43:26.835Z</time></trkpt><trkpt lat="44.8602301" lon="8.8298628"><ele>129.0</ele><time>2026-04-03T08:43:27.835Z</time></trkpt><trkpt lat="44.8599203" lon="8.8298495"><ele>129.0</ele><time>2026-04-03T08:43:28.835Z</time></trkpt><trkpt lat="44.8596249" lon="8.8298368"><ele>129.0</ele><time>2026-04-03T08:43:29.835Z</time></trkpt><trkpt lat="44.8593218" lon="8.8298221"><ele>128.5</ele><time>2026-04-03T08:43:30.835Z</time></trkpt><trkpt lat="44.8590095" lon="8.8298055"><ele>128.0</ele><time>2026-04-03T08:43:31.835Z</time></trkpt><trkpt lat="44.8587117" lon="8.8297899"><ele>128.5</ele><time>2026-04-03T08:43:32.834Z</time></trkpt><trkpt lat="44.8584224" lon="8.8297738"><ele>129.0</ele><time>2026-04-03T08:43:33.835Z</time></trkpt><trkpt lat="44.8581235" lon="8.8297577"><ele>129.0</ele><time>2026-04-03T08:43:34.834Z</time></trkpt><trkpt lat="44.857823" lon="8.8297405"><ele>129.0</ele><time>2026-04-03T08:43:35.835Z</time></trkpt><trkpt lat="44.8575266" lon="8.8297241"><ele>129.5</ele><time>2026-04-03T08:43:36.835Z</time></trkpt><trkpt lat="44.8572321" lon="8.8297074"><ele>130.0</ele><time>2026-04-03T08:43:37.835Z</time></trkpt><trkpt lat="44.8569345" lon="8.82969"><ele>129.5</ele><time>2026-04-03T08:43:38.834Z</time></trkpt><trkpt lat="44.8566279" lon="8.829673"><ele>129.0</ele><time>2026-04-03T08:43:39.835Z</time></trkpt><trkpt lat="44.8563375" lon="8.8296576"><ele>129.0</ele><time>2026-04-03T08:43:40.834Z</time></trkpt><trkpt lat="44.8560397" lon="8.8296421"><ele>129.0</ele><time>2026-04-03T08:43:41.834Z</time></trkpt><trkpt lat="44.8557423" lon="8.8296269"><ele>130.0</ele><time>2026-04-03T08:43:42.835Z</time></trkpt><trkpt lat="44.8554478" lon="8.8296108"><ele>131.0</ele><time>2026-04-03T08:43:43.834Z</time></trkpt><trkpt lat="44.8551473" lon="8.8295949"><ele>131.5</ele><time>2026-04-03T08:43:44.835Z</time></trkpt><trkpt lat="44.8548481" lon="8.8295787"><ele>132.0</ele><time>2026-04-03T08:43:45.835Z</time></trkpt><trkpt lat="44.8545492" lon="8.8295617"><ele>133.0</ele><time>2026-04-03T08:43:46.835Z</time></trkpt><trkpt lat="44.8542403" lon="8.8295437"><ele>134.0</ele><time>2026-04-03T08:43:47.835Z</time></trkpt><trkpt lat="44.8539511" lon="8.8295251"><ele>134.0</ele><time>2026-04-03T08:43:48.835Z</time></trkpt><trkpt lat="44.8536525" lon="8.8295063"><ele>134.0</ele><time>2026-04-03T08:43:49.834Z</time></trkpt><trkpt lat="44.8533548" lon="8.8294879"><ele>135.0</ele><time>2026-04-03T08:43:50.835Z</time></trkpt><trkpt lat="44.8530578" lon="8.8294689"><ele>136.0</ele><time>2026-04-03T08:43:51.835Z</time></trkpt><trkpt lat="44.8527618" lon="8.8294498"><ele>135.0</ele><time>2026-04-03T08:43:52.834Z</time></trkpt><trkpt lat="44.8524653" lon="8.8294316"><ele>134.0</ele><time>2026-04-03T08:43:53.835Z</time></trkpt><trkpt lat="44.8521655" lon="8.8294151"><ele>134.0</ele><time>2026-04-03T08:43:54.835Z</time></trkpt><trkpt lat="44.8518536" lon="8.8294011"><ele>134.0</ele><time>2026-04-03T08:43:55.835Z</time></trkpt><trkpt lat="44.851558" lon="8.8293888"><ele>134.0</ele><time>2026-04-03T08:43:56.834Z</time></trkpt><trkpt lat="44.8512501" lon="8.8293758"><ele>134.0</ele><time>2026-04-03T08:43:57.835Z</time></trkpt><trkpt lat="44.8509421" lon="8.8293617"><ele>135.0</ele><time>2026-04-03T08:43:58.835Z</time></trkpt><trkpt lat="44.8506331" lon="8.8293468"><ele>136.0</ele><time>2026-04-03T08:43:59.835Z</time></trkpt><trkpt lat="44.8503245" lon="8.8293304"><ele>136.0</ele><time>2026-04-03T08:44:00.835Z</time></trkpt><trkpt lat="44.8500153" lon="8.8293133"><ele>136.0</ele><time>2026-04-03T08:44:01.834Z</time></trkpt><trkpt lat="44.8497078" lon="8.8292957"><ele>136.0</ele><time>2026-04-03T08:44:02.835Z</time></trkpt><trkpt lat="44.849392" lon="8.8292774"><ele>136.0</ele><time>2026-04-03T08:44:03.835Z</time></trkpt><trkpt lat="44.8490965" lon="8.8292601"><ele>136.0</ele><time>2026-04-03T08:44:04.834Z</time></trkpt><trkpt lat="44.8487934" lon="8.8292431"><ele>136.0</ele><time>2026-04-03T08:44:05.835Z</time></trkpt><trkpt lat="44.848491" lon="8.8292259"><ele>136.5</ele><time>2026-04-03T08:44:06.835Z</time></trkpt><trkpt lat="44.8481904" lon="8.8292083"><ele>137.0</ele><time>2026-04-03T08:44:07.835Z</time></trkpt><trkpt lat="44.8478913" lon="8.8291897"><ele>138.0</ele><time>2026-04-03T08:44:08.834Z</time></trkpt><trkpt lat="44.847592" lon="8.8291709"><ele>139.0</ele><time>2026-04-03T08:44:09.835Z</time></trkpt><trkpt lat="44.8472932" lon="8.829153"><ele>139.0</ele><time>2026-04-03T08:44:10.835Z</time></trkpt><trkpt lat="44.8469845" lon="8.8291354"><ele>139.0</ele><time>2026-04-03T08:44:11.834Z</time></trkpt><trkpt lat="44.8466951" lon="8.8291206"><ele>137.5</ele><time>2026-04-03T08:44:12.835Z</time></trkpt><trkpt lat="44.8463967" lon="8.8291053"><ele>136.0</ele><time>2026-04-03T08:44:13.835Z</time></trkpt><trkpt lat="44.8460984" lon="8.8290907"><ele>137.0</ele><time>2026-04-03T08:44:14.835Z</time></trkpt><trkpt lat="44.8458017" lon="8.8290751"><ele>138.0</ele><time>2026-04-03T08:44:15.835Z</time></trkpt><trkpt lat="44.8455062" lon="8.8290591"><ele>138.0</ele><time>2026-04-03T08:44:16.835Z</time></trkpt><trkpt lat="44.8452117" lon="8.8290424"><ele>138.0</ele><time>2026-04-03T08:44:17.835Z</time></trkpt><trkpt lat="44.8449178" lon="8.8290267"><ele>138.0</ele><time>2026-04-03T08:44:18.835Z</time></trkpt><trkpt lat="44.8446152" lon="8.8290124"><ele>138.0</ele><time>2026-04-03T08:44:19.835Z</time></trkpt><trkpt lat="44.8443298" lon="8.8289978"><ele>138.0</ele><time>2026-04-03T08:44:20.835Z</time></trkpt><trkpt lat="44.8440324" lon="8.8289816"><ele>138.0</ele><time>2026-04-03T08:44:21.835Z</time></trkpt><trkpt lat="44.843731" lon="8.8289656"><ele>138.0</ele><time>2026-04-03T08:44:22.834Z</time></trkpt><trkpt lat="44.8434264" lon="8.8289508"><ele>138.0</ele><time>2026-04-03T08:44:23.834Z</time></trkpt><trkpt lat="44.8431189" lon="8.8289347"><ele>138.0</ele><time>2026-04-03T08:44:24.835Z</time></trkpt><trkpt lat="44.8428079" lon="8.8289177"><ele>138.0</ele><time>2026-04-03T08:44:25.835Z</time></trkpt><trkpt lat="44.8424943" lon="8.8289007"><ele>138.5</ele><time>2026-04-03T08:44:26.835Z</time></trkpt><trkpt lat="44.8421686" lon="8.8288826"><ele>139.0</ele><time>2026-04-03T08:44:27.835Z</time></trkpt><trkpt lat="44.8418624" lon="8.828865"><ele>139.5</ele><time>2026-04-03T08:44:28.834Z</time></trkpt><trkpt lat="44.8415457" lon="8.8288469"><ele>140.0</ele><time>2026-04-03T08:44:29.834Z</time></trkpt><trkpt lat="44.8412295" lon="8.8288293"><ele>140.0</ele><time>2026-04-03T08:44:30.835Z</time></trkpt><trkpt lat="44.8409133" lon="8.8288132"><ele>140.0</ele><time>2026-04-03T08:44:31.834Z</time></trkpt><trkpt lat="44.8405996" lon="8.8287979"><ele>140.0</ele><time>2026-04-03T08:44:32.835Z</time></trkpt><trkpt lat="44.8402876" lon="8.8287831"><ele>140.0</ele><time>2026-04-03T08:44:33.835Z</time></trkpt><trkpt lat="44.8399776" lon="8.8287677"><ele>139.5</ele><time>2026-04-03T08:44:34.835Z</time></trkpt><trkpt lat="44.8396599" lon="8.8287505"><ele>139.0</ele><time>2026-04-03T08:44:35.834Z</time></trkpt><trkpt lat="44.8393624" lon="8.8287327"><ele>139.5</ele><time>2026-04-03T08:44:36.834Z</time></trkpt><trkpt lat="44.8390559" lon="8.8287133"><ele>140.0</ele><time>2026-04-03T08:44:37.835Z</time></trkpt><trkpt lat="44.8387493" lon="8.8286943"><ele>141.5</ele><time>2026-04-03T08:44:38.835Z</time></trkpt><trkpt lat="44.8384424" lon="8.8286763"><ele>143.0</ele><time>2026-04-03T08:44:39.835Z</time></trkpt><trkpt lat="44.8381349" lon="8.828659"><ele>143.0</ele><time>2026-04-03T08:44:40.834Z</time></trkpt><trkpt lat="44.8378279" lon="8.8286431"><ele>143.0</ele><time>2026-04-03T08:44:41.834Z</time></trkpt><trkpt lat="44.837518" lon="8.8286278"><ele>142.0</ele><time>2026-04-03T08:44:42.834Z</time></trkpt><trkpt lat="44.8371989" lon="8.8286127"><ele>141.0</ele><time>2026-04-03T08:44:43.834Z</time></trkpt><trkpt lat="44.836899" lon="8.8285986"><ele>141.5</ele><time>2026-04-03T08:44:44.834Z</time></trkpt><trkpt lat="44.8365893" lon="8.8285832"><ele>142.0</ele><time>2026-04-03T08:44:45.835Z</time></trkpt><trkpt lat="44.8362727" lon="8.8285648"><ele>142.0</ele><time>2026-04-03T08:44:46.835Z</time></trkpt><trkpt lat="44.8359432" lon="8.8285443"><ele>142.0</ele><time>2026-04-03T08:44:47.835Z</time></trkpt><trkpt lat="44.8355881" lon="8.8285238"><ele>142.0</ele><time>2026-04-03T08:44:48.834Z</time></trkpt><trkpt lat="44.8352206" lon="8.8285033"><ele>142.0</ele><time>2026-04-03T08:44:49.835Z</time></trkpt><trkpt lat="44.834838" lon="8.8284831"><ele>144.0</ele><time>2026-04-03T08:44:50.834Z</time></trkpt><trkpt lat="44.8344339" lon="8.8284604"><ele>146.0</ele><time>2026-04-03T08:44:51.835Z</time></trkpt><trkpt lat="44.8340536" lon="8.8284366"><ele>146.0</ele><time>2026-04-03T08:44:52.834Z</time></trkpt><trkpt lat="44.8336666" lon="8.8284116"><ele>146.0</ele><time>2026-04-03T08:44:53.835Z</time></trkpt><trkpt lat="44.8332862" lon="8.8283869"><ele>146.0</ele><time>2026-04-03T08:44:54.835Z</time></trkpt><trkpt lat="44.8329048" lon="8.8283627"><ele>146.0</ele><time>2026-04-03T08:44:55.835Z</time></trkpt><trkpt lat="44.8325308" lon="8.828343"><ele>146.0</ele><time>2026-04-03T08:44:56.835Z</time></trkpt><trkpt lat="44.8321572" lon="8.8283258"><ele>146.0</ele><time>2026-04-03T08:44:57.835Z</time></trkpt><trkpt lat="44.8317872" lon="8.8283085"><ele>146.0</ele><time>2026-04-03T08:44:58.835Z</time></trkpt><trkpt lat="44.8314091" lon="8.8282902"><ele>146.0</ele><time>2026-04-03T08:44:59.835Z</time></trkpt><trkpt lat="44.8310592" lon="8.8282716"><ele>145.0</ele><time>2026-04-03T08:45:00.835Z</time></trkpt><trkpt lat="44.8306997" lon="8.8282521"><ele>144.0</ele><time>2026-04-03T08:45:01.834Z</time></trkpt><trkpt lat="44.830344" lon="8.8282313"><ele>144.5</ele><time>2026-04-03T08:45:02.835Z</time></trkpt><trkpt lat="44.829991" lon="8.8281996"><ele>145.0</ele><time>2026-04-03T08:45:03.835Z</time></trkpt><trkpt lat="44.8296517" lon="8.8281661"><ele>145.0</ele><time>2026-04-03T08:45:04.834Z</time></trkpt><trkpt lat="44.8293237" lon="8.8281418"><ele>145.0</ele><time>2026-04-03T08:45:05.834Z</time></trkpt><trkpt lat="44.8289988" lon="8.8281219"><ele>144.5</ele><time>2026-04-03T08:45:06.835Z</time></trkpt><trkpt lat="44.8286666" lon="8.8281019"><ele>144.0</ele><time>2026-04-03T08:45:07.834Z</time></trkpt><trkpt lat="44.8283565" lon="8.8280834"><ele>145.0</ele><time>2026-04-03T08:45:08.835Z</time></trkpt><trkpt lat="44.8280368" lon="8.8280691"><ele>146.0</ele><time>2026-04-03T08:45:09.834Z</time></trkpt><trkpt lat="44.8277152" lon="8.8280698"><ele>147.0</ele><time>2026-04-03T08:45:10.835Z</time></trkpt><trkpt lat="44.8273835" lon="8.8280822"><ele>148.0</ele><time>2026-04-03T08:45:11.835Z</time></trkpt><trkpt lat="44.8270456" lon="8.8281157"><ele>149.5</ele><time>2026-04-03T08:45:12.835Z</time></trkpt><trkpt lat="44.8267047" lon="8.8281469"><ele>151.0</ele><time>2026-04-03T08:45:13.835Z</time></trkpt><trkpt lat="44.8263599" lon="8.8281736"><ele>151.0</ele><time>2026-04-03T08:45:14.835Z</time></trkpt><trkpt lat="44.8260038" lon="8.8282011"><ele>151.0</ele><time>2026-04-03T08:45:15.835Z</time></trkpt><trkpt lat="44.8256707" lon="8.8282308"><ele>151.0</ele><time>2026-04-03T08:45:16.835Z</time></trkpt><trkpt lat="44.8253272" lon="8.8282656"><ele>151.0</ele><time>2026-04-03T08:45:17.835Z</time></trkpt><trkpt lat="44.8249851" lon="8.8283003"><ele>151.0</ele><time>2026-04-03T08:45:18.835Z</time></trkpt><trkpt lat="44.8246433" lon="8.8283333"><ele>151.0</ele><time>2026-04-03T08:45:19.835Z</time></trkpt><trkpt lat="44.8243035" lon="8.8283665"><ele>152.0</ele><time>2026-04-03T08:45:20.835Z</time></trkpt><trkpt lat="44.8239643" lon="8.8283983"><ele>153.0</ele><time>2026-04-03T08:45:21.834Z</time></trkpt><trkpt lat="44.8236276" lon="8.828427"><ele>153.0</ele><time>2026-04-03T08:45:22.835Z</time></trkpt><trkpt lat="44.8232848" lon="8.8284587"><ele>153.0</ele><time>2026-04-03T08:45:23.834Z</time></trkpt><trkpt lat="44.8229724" lon="8.8284909"><ele>153.0</ele><time>2026-04-03T08:45:24.835Z</time></trkpt><trkpt lat="44.8226494" lon="8.8285206"><ele>153.0</ele><time>2026-04-03T08:45:25.835Z</time></trkpt><trkpt lat="44.8223233" lon="8.828549"><ele>153.0</ele><time>2026-04-03T08:45:26.835Z</time></trkpt><trkpt lat="44.8220007" lon="8.8285788"><ele>153.0</ele><time>2026-04-03T08:45:27.834Z</time></trkpt><trkpt lat="44.8216796" lon="8.8286082"><ele>153.0</ele><time>2026-04-03T08:45:28.835Z</time></trkpt><trkpt lat="44.8213582" lon="8.8286382"><ele>153.0</ele><time>2026-04-03T08:45:29.834Z</time></trkpt><trkpt lat="44.8210384" lon="8.8286701"><ele>153.5</ele><time>2026-04-03T08:45:30.835Z</time></trkpt><trkpt lat="44.8207062" lon="8.8287042"><ele>154.0</ele><time>2026-04-03T08:45:31.834Z</time></trkpt><trkpt lat="44.8203939" lon="8.8287336"><ele>154.0</ele><time>2026-04-03T08:45:32.835Z</time></trkpt><trkpt lat="44.8200714" lon="8.8287617"><ele>154.0</ele><time>2026-04-03T08:45:33.835Z</time></trkpt><trkpt lat="44.8197476" lon="8.8287897"><ele>154.0</ele><time>2026-04-03T08:45:34.835Z</time></trkpt><trkpt lat="44.8194181" lon="8.8288251"><ele>154.0</ele><time>2026-04-03T08:45:35.835Z</time></trkpt><trkpt lat="44.8190779" lon="8.828855"><ele>155.0</ele><time>2026-04-03T08:45:36.834Z</time></trkpt><trkpt lat="44.8187379" lon="8.828886"><ele>156.0</ele><time>2026-04-03T08:45:37.834Z</time></trkpt><trkpt lat="44.8184003" lon="8.8289179"><ele>156.0</ele><time>2026-04-03T08:45:38.835Z</time></trkpt><trkpt lat="44.8180541" lon="8.8289484"><ele>156.0</ele><time>2026-04-03T08:45:39.835Z</time></trkpt><trkpt lat="44.8177378" lon="8.828977"><ele>157.0</ele><time>2026-04-03T08:45:40.835Z</time></trkpt><trkpt lat="44.8174205" lon="8.8290061"><ele>158.0</ele><time>2026-04-03T08:45:41.835Z</time></trkpt><trkpt lat="44.8171068" lon="8.8290345"><ele>158.5</ele><time>2026-04-03T08:45:42.834Z</time></trkpt><trkpt lat="44.8167925" lon="8.8290643"><ele>159.0</ele><time>2026-04-03T08:45:43.835Z</time></trkpt><trkpt lat="44.8164771" lon="8.8290953"><ele>159.0</ele><time>2026-04-03T08:45:44.834Z</time></trkpt><trkpt lat="44.8161617" lon="8.829126"><ele>159.0</ele><time>2026-04-03T08:45:45.834Z</time></trkpt><trkpt lat="44.8158464" lon="8.8291571"><ele>159.5</ele><time>2026-04-03T08:45:46.835Z</time></trkpt><trkpt lat="44.8155198" lon="8.8291885"><ele>160.0</ele><time>2026-04-03T08:45:47.834Z</time></trkpt><trkpt lat="44.8152117" lon="8.8292166"><ele>159.0</ele><time>2026-04-03T08:45:48.834Z</time></trkpt><trkpt lat="44.8148914" lon="8.8292435"><ele>158.0</ele><time>2026-04-03T08:45:49.835Z</time></trkpt><trkpt lat="44.81457" lon="8.829267"><ele>159.5</ele><time>2026-04-03T08:45:50.835Z</time></trkpt><trkpt lat="44.8142522" lon="8.829284"><ele>161.0</ele><time>2026-04-03T08:45:51.835Z</time></trkpt><trkpt lat="44.8139448" lon="8.8292962"><ele>161.0</ele><time>2026-04-03T08:45:52.835Z</time></trkpt><trkpt lat="44.813644" lon="8.8293139"><ele>161.0</ele><time>2026-04-03T08:45:53.835Z</time></trkpt><trkpt lat="44.8133483" lon="8.8293402"><ele>161.0</ele><time>2026-04-03T08:45:54.834Z</time></trkpt><trkpt lat="44.8130442" lon="8.8293776"><ele>161.0</ele><time>2026-04-03T08:45:55.835Z</time></trkpt><trkpt lat="44.8127533" lon="8.8294197"><ele>161.0</ele><time>2026-04-03T08:45:56.835Z</time></trkpt><trkpt lat="44.8124461" lon="8.8294626"><ele>161.0</ele><time>2026-04-03T08:45:57.835Z</time></trkpt><trkpt lat="44.8121329" lon="8.8295019"><ele>161.5</ele><time>2026-04-03T08:45:58.835Z</time></trkpt><trkpt lat="44.8118124" lon="8.8295368"><ele>162.0</ele><time>2026-04-03T08:45:59.834Z</time></trkpt><trkpt lat="44.8114845" lon="8.8295668"><ele>162.0</ele><time>2026-04-03T08:46:00.835Z</time></trkpt><trkpt lat="44.8111497" lon="8.8295982"><ele>162.0</ele><time>2026-04-03T08:46:01.835Z</time></trkpt><trkpt lat="44.8108119" lon="8.8296283"><ele>162.0</ele><time>2026-04-03T08:46:02.834Z</time></trkpt><trkpt lat="44.8104602" lon="8.8296589"><ele>162.0</ele><time>2026-04-03T08:46:03.834Z</time></trkpt><trkpt lat="44.8101271" lon="8.8296875"><ele>162.0</ele><time>2026-04-03T08:46:04.835Z</time></trkpt><trkpt lat="44.80978" lon="8.8297168"><ele>162.0</ele><time>2026-04-03T08:46:05.834Z</time></trkpt><trkpt lat="44.8094325" lon="8.8297505"><ele>161.5</ele><time>2026-04-03T08:46:06.835Z</time></trkpt><trkpt lat="44.8090869" lon="8.8297943"><ele>161.0</ele><time>2026-04-03T08:46:07.835Z</time></trkpt><trkpt lat="44.8087427" lon="8.8298474"><ele>162.0</ele><time>2026-04-03T08:46:08.834Z</time></trkpt><trkpt lat="44.8084004" lon="8.8299089"><ele>163.0</ele><time>2026-04-03T08:46:09.835Z</time></trkpt><trkpt lat="44.8080602" lon="8.8299754"><ele>163.0</ele><time>2026-04-03T08:46:10.834Z</time></trkpt><trkpt lat="44.8077118" lon="8.8300481"><ele>163.0</ele><time>2026-04-03T08:46:11.835Z</time></trkpt><trkpt lat="44.8073863" lon="8.8301176"><ele>164.0</ele><time>2026-04-03T08:46:12.835Z</time></trkpt><trkpt lat="44.8070512" lon="8.8301951"><ele>165.0</ele><time>2026-04-03T08:46:13.835Z</time></trkpt><trkpt lat="44.8067189" lon="8.8302783"><ele>165.0</ele><time>2026-04-03T08:46:14.835Z</time></trkpt><trkpt lat="44.8063891" lon="8.8303678"><ele>165.0</ele><time>2026-04-03T08:46:15.835Z</time></trkpt><trkpt lat="44.8060619" lon="8.830463"><ele>165.0</ele><time>2026-04-03T08:46:16.835Z</time></trkpt><trkpt lat="44.8057527" lon="8.8305541"><ele>165.0</ele><time>2026-04-03T08:46:17.835Z</time></trkpt><trkpt lat="44.8054429" lon="8.8306581"><ele>166.0</ele><time>2026-04-03T08:46:18.834Z</time></trkpt><trkpt lat="44.8051306" lon="8.8307637"><ele>167.0</ele><time>2026-04-03T08:46:19.835Z</time></trkpt><trkpt lat="44.8048563" lon="8.8308539"><ele>167.0</ele><time>2026-04-03T08:46:20.834Z</time></trkpt><trkpt lat="44.8045821" lon="8.8309432"><ele>167.0</ele><time>2026-04-03T08:46:21.835Z</time></trkpt><trkpt lat="44.8043125" lon="8.8310321"><ele>167.0</ele><time>2026-04-03T08:46:22.835Z</time></trkpt><trkpt lat="44.8040468" lon="8.8311187"><ele>167.0</ele><time>2026-04-03T08:46:23.834Z</time></trkpt><trkpt lat="44.8037842" lon="8.8312036"><ele>167.0</ele><time>2026-04-03T08:46:24.834Z</time></trkpt><trkpt lat="44.803525" lon="8.8312881"><ele>167.0</ele><time>2026-04-03T08:46:25.835Z</time></trkpt><trkpt lat="44.8032678" lon="8.8313742"><ele>168.0</ele><time>2026-04-03T08:46:26.834Z</time></trkpt><trkpt lat="44.803001" lon="8.8314647"><ele>169.0</ele><time>2026-04-03T08:46:27.834Z</time></trkpt><trkpt lat="44.8027462" lon="8.8315518"><ele>169.5</ele><time>2026-04-03T08:46:28.835Z</time></trkpt><trkpt lat="44.8024786" lon="8.8316412"><ele>170.0</ele><time>2026-04-03T08:46:29.835Z</time></trkpt><trkpt lat="44.8022031" lon="8.8317287"><ele>169.0</ele><time>2026-04-03T08:46:30.835Z</time></trkpt><trkpt lat="44.8019244" lon="8.8318162"><ele>168.0</ele><time>2026-04-03T08:46:31.834Z</time></trkpt><trkpt lat="44.8016409" lon="8.8319074"><ele>168.0</ele><time>2026-04-03T08:46:32.835Z</time></trkpt><trkpt lat="44.8013646" lon="8.831999"><ele>168.0</ele><time>2026-04-03T08:46:33.835Z</time></trkpt><trkpt lat="44.80109" lon="8.8320879"><ele>169.0</ele><time>2026-04-03T08:46:34.834Z</time></trkpt><trkpt lat="44.800811" lon="8.832169"><ele>170.0</ele><time>2026-04-03T08:46:35.835Z</time></trkpt><trkpt lat="44.8005514" lon="8.8322337"><ele>170.0</ele><time>2026-04-03T08:46:36.834Z</time></trkpt><trkpt lat="44.800286" lon="8.8322964"><ele>170.0</ele><time>2026-04-03T08:46:37.834Z</time></trkpt><trkpt lat="44.8000218" lon="8.83236"><ele>169.0</ele><time>2026-04-03T08:46:38.835Z</time></trkpt><trkpt lat="44.7997585" lon="8.8324235"><ele>168.0</ele><time>2026-04-03T08:46:39.835Z</time></trkpt><trkpt lat="44.799495" lon="8.8324799"><ele>168.5</ele><time>2026-04-03T08:46:40.835Z</time></trkpt><trkpt lat="44.7992335" lon="8.8325308"><ele>169.0</ele><time>2026-04-03T08:46:41.835Z</time></trkpt><trkpt lat="44.7989757" lon="8.8325803"><ele>169.0</ele><time>2026-04-03T08:46:42.835Z</time></trkpt><trkpt lat="44.7987182" lon="8.8326303"><ele>169.0</ele><time>2026-04-03T08:46:43.834Z</time></trkpt><trkpt lat="44.7984833" lon="8.8326746"><ele>170.0</ele><time>2026-04-03T08:46:44.834Z</time></trkpt><trkpt lat="44.7982425" lon="8.8327177"><ele>171.0</ele><time>2026-04-03T08:46:45.834Z</time></trkpt><trkpt lat="44.7980146" lon="8.8327561"><ele>171.0</ele><time>2026-04-03T08:46:46.835Z</time></trkpt><trkpt lat="44.7977974" lon="8.8327919"><ele>171.0</ele><time>2026-04-03T08:46:47.835Z</time></trkpt><trkpt lat="44.7975726" lon="8.8328295"><ele>171.0</ele><time>2026-04-03T08:46:48.835Z</time></trkpt><trkpt lat="44.7973538" lon="8.8328676"><ele>171.33333333333334</ele><time>2026-04-03T08:46:49.834Z</time></trkpt><trkpt lat="44.7971317" lon="8.8329071"><ele>171.66666666666669</ele><time>2026-04-03T08:46:50.834Z</time></trkpt><trkpt lat="44.7969087" lon="8.8329462"><ele>172.0</ele><time>2026-04-03T08:46:51.835Z</time></trkpt><trkpt lat="44.7966814" lon="8.8329847"><ele>171.0</ele><time>2026-04-03T08:46:52.835Z</time></trkpt><trkpt lat="44.7964482" lon="8.8330235"><ele>170.0</ele><time>2026-04-03T08:46:53.835Z</time></trkpt><trkpt lat="44.7962129" lon="8.8330682"><ele>171.0</ele><time>2026-04-03T08:46:54.834Z</time></trkpt><trkpt lat="44.7959699" lon="8.8331124"><ele>172.0</ele><time>2026-04-03T08:46:55.834Z</time></trkpt><trkpt lat="44.7957219" lon="8.8331591"><ele>172.0</ele><time>2026-04-03T08:46:56.835Z</time></trkpt><trkpt lat="44.7954759" lon="8.8332065"><ele>172.0</ele><time>2026-04-03T08:46:57.835Z</time></trkpt><trkpt lat="44.7952362" lon="8.8332519"><ele>172.5</ele><time>2026-04-03T08:46:58.834Z</time></trkpt><trkpt lat="44.7949989" lon="8.8332945"><ele>173.0</ele><time>2026-04-03T08:46:59.835Z</time></trkpt><trkpt lat="44.7947777" lon="8.8333323"><ele>173.0</ele><time>2026-04-03T08:47:00.835Z</time></trkpt><trkpt lat="44.7945546" lon="8.8333714"><ele>173.0</ele><time>2026-04-03T08:47:01.835Z</time></trkpt><trkpt lat="44.7943337" lon="8.8334111"><ele>173.0</ele><time>2026-04-03T08:47:02.834Z</time></trkpt><trkpt lat="44.7941221" lon="8.8334485"><ele>173.33333333333331</ele><time>2026-04-03T08:47:03.835Z</time></trkpt><trkpt lat="44.7939005" lon="8.8334874"><ele>173.66666666666666</ele><time>2026-04-03T08:47:04.835Z</time></trkpt><trkpt lat="44.7936854" lon="8.8335241"><ele>174.0</ele><time>2026-04-03T08:47:05.835Z</time></trkpt><trkpt lat="44.793469" lon="8.8335599"><ele>174.0</ele><time>2026-04-03T08:47:06.834Z</time></trkpt><trkpt lat="44.7932515" lon="8.8335953"><ele>174.0</ele><time>2026-04-03T08:47:07.835Z</time></trkpt><trkpt lat="44.7930284" lon="8.8336329"><ele>174.0</ele><time>2026-04-03T08:47:08.835Z</time></trkpt><trkpt lat="44.7928003" lon="8.833673"><ele>175.0</ele><time>2026-04-03T08:47:09.834Z</time></trkpt><trkpt lat="44.792564" lon="8.8337126"><ele>176.0</ele><time>2026-04-03T08:47:10.834Z</time></trkpt><trkpt lat="44.7923238" lon="8.8337559"><ele>176.0</ele><time>2026-04-03T08:47:11.834Z</time></trkpt><trkpt lat="44.7920711" lon="8.8338019"><ele>176.0</ele><time>2026-04-03T08:47:12.834Z</time></trkpt><trkpt lat="44.7918074" lon="8.8338513"><ele>175.0</ele><time>2026-04-03T08:47:13.834Z</time></trkpt><trkpt lat="44.7915411" lon="8.8339005"><ele>174.0</ele><time>2026-04-03T08:47:14.834Z</time></trkpt><trkpt lat="44.7912668" lon="8.8339507"><ele>174.5</ele><time>2026-04-03T08:47:15.834Z</time></trkpt><trkpt lat="44.7910041" lon="8.8339976"><ele>175.0</ele><time>2026-04-03T08:47:16.834Z</time></trkpt><trkpt lat="44.7907304" lon="8.8340456"><ele>175.0</ele><time>2026-04-03T08:47:17.835Z</time></trkpt><trkpt lat="44.7904505" lon="8.8340943"><ele>175.0</ele><time>2026-04-03T08:47:18.835Z</time></trkpt><trkpt lat="44.7901863" lon="8.8341413"><ele>174.0</ele><time>2026-04-03T08:47:19.835Z</time></trkpt><trkpt lat="44.7899058" lon="8.8341926"><ele>173.0</ele><time>2026-04-03T08:47:20.835Z</time></trkpt><trkpt lat="44.7896289" lon="8.8342421"><ele>173.0</ele><time>2026-04-03T08:47:21.835Z</time></trkpt><trkpt lat="44.7893519" lon="8.8342915"><ele>173.0</ele><time>2026-04-03T08:47:22.835Z</time></trkpt><trkpt lat="44.7890665" lon="8.8343424"><ele>175.0</ele><time>2026-04-03T08:47:23.834Z</time></trkpt><trkpt lat="44.7887954" lon="8.8343901"><ele>177.0</ele><time>2026-04-03T08:47:24.835Z</time></trkpt><trkpt lat="44.7885186" lon="8.8344401"><ele>177.5</ele><time>2026-04-03T08:47:25.834Z</time></trkpt><trkpt lat="44.7882446" lon="8.8344911"><ele>178.0</ele><time>2026-04-03T08:47:26.835Z</time></trkpt><trkpt lat="44.7879679" lon="8.8345441"><ele>178.0</ele><time>2026-04-03T08:47:27.834Z</time></trkpt><trkpt lat="44.7876879" lon="8.8345962"><ele>178.0</ele><time>2026-04-03T08:47:28.835Z</time></trkpt><trkpt lat="44.7874107" lon="8.8346458"><ele>178.5</ele><time>2026-04-03T08:47:29.835Z</time></trkpt><trkpt lat="44.7871346" lon="8.8346939"><ele>179.0</ele><time>2026-04-03T08:47:30.835Z</time></trkpt><trkpt lat="44.7868454" lon="8.8347411"><ele>179.0</ele><time>2026-04-03T08:47:31.834Z</time></trkpt><trkpt lat="44.7865636" lon="8.8347862"><ele>179.0</ele><time>2026-04-03T08:47:32.835Z</time></trkpt><trkpt lat="44.7862646" lon="8.8348371"><ele>178.5</ele><time>2026-04-03T08:47:33.835Z</time></trkpt><trkpt lat="44.7859553" lon="8.8348925"><ele>178.0</ele><time>2026-04-03T08:47:34.834Z</time></trkpt><trkpt lat="44.7856542" lon="8.834949"><ele>178.0</ele><time>2026-04-03T08:47:35.834Z</time></trkpt><trkpt lat="44.7853342" lon="8.8350086"><ele>178.0</ele><time>2026-04-03T08:47:36.834Z</time></trkpt><trkpt lat="44.7850199" lon="8.8350646"><ele>178.5</ele><time>2026-04-03T08:47:37.835Z</time></trkpt><trkpt lat="44.7847049" lon="8.8351172"><ele>179.0</ele><time>2026-04-03T08:47:38.835Z</time></trkpt><trkpt lat="44.7843892" lon="8.8351704"><ele>179.0</ele><time>2026-04-03T08:47:39.835Z</time></trkpt><trkpt lat="44.784079" lon="8.835225"><ele>179.0</ele><time>2026-04-03T08:47:40.835Z</time></trkpt><trkpt lat="44.7837701" lon="8.8352801"><ele>180.0</ele><time>2026-04-03T08:47:41.835Z</time></trkpt><trkpt lat="44.7834628" lon="8.8353353"><ele>181.0</ele><time>2026-04-03T08:47:42.835Z</time></trkpt><trkpt lat="44.7831515" lon="8.8353904"><ele>181.0</ele><time>2026-04-03T08:47:43.834Z</time></trkpt><trkpt lat="44.7828358" lon="8.8354466"><ele>181.0</ele><time>2026-04-03T08:47:44.835Z</time></trkpt><trkpt lat="44.7825228" lon="8.8355024"><ele>180.5</ele><time>2026-04-03T08:47:45.835Z</time></trkpt><trkpt lat="44.782211" lon="8.8355585"><ele>180.0</ele><time>2026-04-03T08:47:46.835Z</time></trkpt><trkpt lat="44.7818986" lon="8.8356146"><ele>180.5</ele><time>2026-04-03T08:47:47.835Z</time></trkpt><trkpt lat="44.7815888" lon="8.8356699"><ele>181.0</ele><time>2026-04-03T08:47:48.835Z</time></trkpt><trkpt lat="44.7812876" lon="8.8357237"><ele>182.5</ele><time>2026-04-03T08:47:49.834Z</time></trkpt><trkpt lat="44.7809925" lon="8.8357765"><ele>184.0</ele><time>2026-04-03T08:47:50.834Z</time></trkpt><trkpt lat="44.7807143" lon="8.8358274"><ele>184.0</ele><time>2026-04-03T08:47:51.834Z</time></trkpt><trkpt lat="44.780425" lon="8.8358802"><ele>184.0</ele><time>2026-04-03T08:47:52.835Z</time></trkpt><trkpt lat="44.7801492" lon="8.8359276"><ele>183.5</ele><time>2026-04-03T08:47:53.835Z</time></trkpt><trkpt lat="44.779878" lon="8.8359701"><ele>183.0</ele><time>2026-04-03T08:47:54.835Z</time></trkpt><trkpt lat="44.7796117" lon="8.8360068"><ele>182.0</ele><time>2026-04-03T08:47:55.835Z</time></trkpt><trkpt lat="44.7793504" lon="8.8360382"><ele>181.0</ele><time>2026-04-03T08:47:56.834Z</time></trkpt><trkpt lat="44.7790909" lon="8.8360651"><ele>181.0</ele><time>2026-04-03T08:47:57.835Z</time></trkpt><trkpt lat="44.7788319" lon="8.8360878"><ele>181.0</ele><time>2026-04-03T08:47:58.835Z</time></trkpt><trkpt lat="44.7785809" lon="8.8361079"><ele>182.0</ele><time>2026-04-03T08:47:59.835Z</time></trkpt><trkpt lat="44.7783134" lon="8.8361285"><ele>183.0</ele><time>2026-04-03T08:48:00.834Z</time></trkpt><trkpt lat="44.7780536" lon="8.8361498"><ele>183.0</ele><time>2026-04-03T08:48:01.835Z</time></trkpt><trkpt lat="44.7777936" lon="8.8361743"><ele>183.0</ele><time>2026-04-03T08:48:02.835Z</time></trkpt><trkpt lat="44.7775338" lon="8.8362016"><ele>183.5</ele><time>2026-04-03T08:48:03.835Z</time></trkpt><trkpt lat="44.7772742" lon="8.8362287"><ele>184.0</ele><time>2026-04-03T08:48:04.835Z</time></trkpt><trkpt lat="44.7770153" lon="8.8362496"><ele>183.0</ele><time>2026-04-03T08:48:05.835Z</time></trkpt><trkpt lat="44.7767569" lon="8.8362692"><ele>182.0</ele><time>2026-04-03T08:48:06.834Z</time></trkpt><trkpt lat="44.7765106" lon="8.8362972"><ele>182.0</ele><time>2026-04-03T08:48:07.834Z</time></trkpt><trkpt lat="44.7762536" lon="8.8363246"><ele>182.0</ele><time>2026-04-03T08:48:08.834Z</time></trkpt><trkpt lat="44.7760084" lon="8.8363386"><ele>182.5</ele><time>2026-04-03T08:48:09.835Z</time></trkpt><trkpt lat="44.7757656" lon="8.8363585"><ele>183.0</ele><time>2026-04-03T08:48:10.834Z</time></trkpt><trkpt lat="44.7755213" lon="8.8363888"><ele>183.0</ele><time>2026-04-03T08:48:11.834Z</time></trkpt><trkpt lat="44.7752832" lon="8.8364131"><ele>183.0</ele><time>2026-04-03T08:48:12.835Z</time></trkpt><trkpt lat="44.7750615" lon="8.8364312"><ele>183.0</ele><time>2026-04-03T08:48:13.835Z</time></trkpt><trkpt lat="44.7748549" lon="8.8364481"><ele>183.0</ele><time>2026-04-03T08:48:14.835Z</time></trkpt><trkpt lat="44.7746652" lon="8.8364636"><ele>183.0</ele><time>2026-04-03T08:48:15.835Z</time></trkpt><trkpt lat="44.7744717" lon="8.8364793"><ele>183.33333333333334</ele><time>2026-04-03T08:48:16.834Z</time></trkpt><trkpt lat="44.7742883" lon="8.836495"><ele>183.66666666666669</ele><time>2026-04-03T08:48:17.834Z</time></trkpt><trkpt lat="44.7741078" lon="8.8365129"><ele>184.0</ele><time>2026-04-03T08:48:18.835Z</time></trkpt><trkpt lat="44.7739226" lon="8.8365299"><ele>184.0</ele><time>2026-04-03T08:48:19.834Z</time></trkpt><trkpt lat="44.7737377" lon="8.8365469"><ele>184.0</ele><time>2026-04-03T08:48:20.835Z</time></trkpt><trkpt lat="44.7735477" lon="8.8365636"><ele>184.0</ele><time>2026-04-03T08:48:21.834Z</time></trkpt><trkpt lat="44.7733507" lon="8.8365799"><ele>184.66666666666669</ele><time>2026-04-03T08:48:22.834Z</time></trkpt><trkpt lat="44.7731524" lon="8.8365978"><ele>185.33333333333334</ele><time>2026-04-03T08:48:23.835Z</time></trkpt><trkpt lat="44.7729306" lon="8.8366193"><ele>186.0</ele><time>2026-04-03T08:48:24.834Z</time></trkpt><trkpt lat="44.7727092" lon="8.8366429"><ele>187.0</ele><time>2026-04-03T08:48:25.835Z</time></trkpt><trkpt lat="44.7724855" lon="8.8366643"><ele>188.0</ele><time>2026-04-03T08:48:26.834Z</time></trkpt><trkpt lat="44.772254" lon="8.8366854"><ele>188.0</ele><time>2026-04-03T08:48:27.835Z</time></trkpt><trkpt lat="44.7720207" lon="8.8367061"><ele>188.0</ele><time>2026-04-03T08:48:28.835Z</time></trkpt><trkpt lat="44.7717886" lon="8.8367277"><ele>188.0</ele><time>2026-04-03T08:48:29.834Z</time></trkpt><trkpt lat="44.7715596" lon="8.8367506"><ele>188.0</ele><time>2026-04-03T08:48:30.835Z</time></trkpt><trkpt lat="44.7713395" lon="8.8367719"><ele>188.0</ele><time>2026-04-03T08:48:31.835Z</time></trkpt><trkpt lat="44.7711044" lon="8.8367942"><ele>188.0</ele><time>2026-04-03T08:48:32.835Z</time></trkpt><trkpt lat="44.7708762" lon="8.8368147"><ele>189.0</ele><time>2026-04-03T08:48:33.835Z</time></trkpt><trkpt lat="44.7706459" lon="8.8368347"><ele>190.0</ele><time>2026-04-03T08:48:34.835Z</time></trkpt><trkpt lat="44.7704085" lon="8.8368563"><ele>189.0</ele><time>2026-04-03T08:48:35.835Z</time></trkpt><trkpt lat="44.7701667" lon="8.8368804"><ele>188.0</ele><time>2026-04-03T08:48:36.835Z</time></trkpt><trkpt lat="44.7699178" lon="8.8369052"><ele>188.0</ele><time>2026-04-03T08:48:37.835Z</time></trkpt><trkpt lat="44.769661" lon="8.83693"><ele>188.0</ele><time>2026-04-03T08:48:38.834Z</time></trkpt><trkpt lat="44.7694091" lon="8.8369533"><ele>188.0</ele><time>2026-04-03T08:48:39.834Z</time></trkpt><trkpt lat="44.7691439" lon="8.8369761"><ele>188.0</ele><time>2026-04-03T08:48:40.835Z</time></trkpt><trkpt lat="44.7688972" lon="8.8369945"><ele>188.0</ele><time>2026-04-03T08:48:41.835Z</time></trkpt><trkpt lat="44.7686566" lon="8.8370144"><ele>188.0</ele><time>2026-04-03T08:48:42.835Z</time></trkpt><trkpt lat="44.7684187" lon="8.8370371"><ele>187.0</ele><time>2026-04-03T08:48:43.835Z</time></trkpt><trkpt lat="44.7681811" lon="8.837061"><ele>186.0</ele><time>2026-04-03T08:48:44.835Z</time></trkpt><trkpt lat="44.7679432" lon="8.837084"><ele>186.0</ele><time>2026-04-03T08:48:45.835Z</time></trkpt><trkpt lat="44.7677044" lon="8.837107"><ele>186.0</ele><time>2026-04-03T08:48:46.835Z</time></trkpt><trkpt lat="44.7674715" lon="8.8371282"><ele>188.0</ele><time>2026-04-03T08:48:47.834Z</time></trkpt><trkpt lat="44.7672225" lon="8.8371512"><ele>190.0</ele><time>2026-04-03T08:48:48.835Z</time></trkpt><trkpt lat="44.7669822" lon="8.837173"><ele>190.5</ele><time>2026-04-03T08:48:49.835Z</time></trkpt><trkpt lat="44.7667499" lon="8.8371946"><ele>191.0</ele><time>2026-04-03T08:48:50.835Z</time></trkpt><trkpt lat="44.7665292" lon="8.8372151"><ele>191.0</ele><time>2026-04-03T08:48:51.834Z</time></trkpt><trkpt lat="44.7663181" lon="8.8372344"><ele>191.0</ele><time>2026-04-03T08:48:52.834Z</time></trkpt><trkpt lat="44.766113" lon="8.8372515"><ele>191.0</ele><time>2026-04-03T08:48:53.835Z</time></trkpt><trkpt lat="44.7659117" lon="8.837268"><ele>190.66666666666666</ele><time>2026-04-03T08:48:54.835Z</time></trkpt><trkpt lat="44.7657203" lon="8.8372826"><ele>190.33333333333334</ele><time>2026-04-03T08:48:55.835Z</time></trkpt><trkpt lat="44.7655171" lon="8.8372984"><ele>190.0</ele><time>2026-04-03T08:48:56.835Z</time></trkpt><trkpt lat="44.765319" lon="8.8373148"><ele>190.0</ele><time>2026-04-03T08:48:57.834Z</time></trkpt><trkpt lat="44.7651175" lon="8.8373325"><ele>190.0</ele><time>2026-04-03T08:48:58.834Z</time></trkpt><trkpt lat="44.7649091" lon="8.8373522"><ele>190.0</ele><time>2026-04-03T08:48:59.834Z</time></trkpt><trkpt lat="44.7646929" lon="8.8373731"><ele>190.0</ele><time>2026-04-03T08:49:00.835Z</time></trkpt><trkpt lat="44.7644722" lon="8.8373944"><ele>190.0</ele><time>2026-04-03T08:49:01.834Z</time></trkpt><trkpt lat="44.7642476" lon="8.8374154"><ele>190.0</ele><time>2026-04-03T08:49:02.834Z</time></trkpt><trkpt lat="44.7640281" lon="8.8374354"><ele>190.5</ele><time>2026-04-03T08:49:03.835Z</time></trkpt><trkpt lat="44.7637899" lon="8.8374574"><ele>191.0</ele><time>2026-04-03T08:49:04.835Z</time></trkpt><trkpt lat="44.7635535" lon="8.8374817"><ele>191.5</ele><time>2026-04-03T08:49:05.834Z</time></trkpt><trkpt lat="44.7633161" lon="8.8375066"><ele>192.0</ele><time>2026-04-03T08:49:06.835Z</time></trkpt><trkpt lat="44.7630747" lon="8.8375319"><ele>192.0</ele><time>2026-04-03T08:49:07.834Z</time></trkpt><trkpt lat="44.7628304" lon="8.8375568"><ele>192.0</ele><time>2026-04-03T08:49:08.835Z</time></trkpt><trkpt lat="44.7625827" lon="8.8375817"><ele>192.0</ele><time>2026-04-03T08:49:09.835Z</time></trkpt><trkpt lat="44.7623306" lon="8.8376064"><ele>192.0</ele><time>2026-04-03T08:49:10.834Z</time></trkpt><trkpt lat="44.7620778" lon="8.8376301"><ele>192.5</ele><time>2026-04-03T08:49:11.834Z</time></trkpt><trkpt lat="44.7617993" lon="8.8376542"><ele>193.0</ele><time>2026-04-03T08:49:12.835Z</time></trkpt><trkpt lat="44.761524" lon="8.8376763"><ele>193.0</ele><time>2026-04-03T08:49:13.835Z</time></trkpt><trkpt lat="44.7612448" lon="8.8376986"><ele>193.0</ele><time>2026-04-03T08:49:14.835Z</time></trkpt><trkpt lat="44.760964" lon="8.8377264"><ele>193.5</ele><time>2026-04-03T08:49:15.834Z</time></trkpt><trkpt lat="44.7606828" lon="8.8377616"><ele>194.0</ele><time>2026-04-03T08:49:16.835Z</time></trkpt><trkpt lat="44.7604026" lon="8.8378062"><ele>194.5</ele><time>2026-04-03T08:49:17.835Z</time></trkpt><trkpt lat="44.7601223" lon="8.8378565"><ele>195.0</ele><time>2026-04-03T08:49:18.835Z</time></trkpt><trkpt lat="44.7598521" lon="8.837909"><ele>195.0</ele><time>2026-04-03T08:49:19.834Z</time></trkpt><trkpt lat="44.7595679" lon="8.8379654"><ele>195.0</ele><time>2026-04-03T08:49:20.835Z</time></trkpt><trkpt lat="44.7593024" lon="8.8380199"><ele>194.5</ele><time>2026-04-03T08:49:21.834Z</time></trkpt><trkpt lat="44.7590487" lon="8.8380744"><ele>194.0</ele><time>2026-04-03T08:49:22.835Z</time></trkpt><trkpt lat="44.7588026" lon="8.838132"><ele>194.0</ele><time>2026-04-03T08:49:23.835Z</time></trkpt><trkpt lat="44.7585605" lon="8.838193"><ele>194.0</ele><time>2026-04-03T08:49:24.835Z</time></trkpt><trkpt lat="44.7583215" lon="8.8382556"><ele>192.5</ele><time>2026-04-03T08:49:25.835Z</time></trkpt><trkpt lat="44.758085" lon="8.8383204"><ele>191.0</ele><time>2026-04-03T08:49:26.835Z</time></trkpt><trkpt lat="44.7578561" lon="8.8383866"><ele>192.0</ele><time>2026-04-03T08:49:27.834Z</time></trkpt><trkpt lat="44.7576118" lon="8.8384603"><ele>193.0</ele><time>2026-04-03T08:49:28.835Z</time></trkpt><trkpt lat="44.7573735" lon="8.8385336"><ele>193.5</ele><time>2026-04-03T08:49:29.835Z</time></trkpt><trkpt lat="44.7571324" lon="8.8386065"><ele>194.0</ele><time>2026-04-03T08:49:30.835Z</time></trkpt><trkpt lat="44.7568884" lon="8.8386785"><ele>194.5</ele><time>2026-04-03T08:49:31.835Z</time></trkpt><trkpt lat="44.7566398" lon="8.8387506"><ele>195.0</ele><time>2026-04-03T08:49:32.834Z</time></trkpt><trkpt lat="44.7563893" lon="8.838824"><ele>195.0</ele><time>2026-04-03T08:49:33.835Z</time></trkpt><trkpt lat="44.7561375" lon="8.8388988"><ele>195.0</ele><time>2026-04-03T08:49:34.835Z</time></trkpt><trkpt lat="44.755893" lon="8.8389733"><ele>195.5</ele><time>2026-04-03T08:49:35.835Z</time></trkpt><trkpt lat="44.7556293" lon="8.8390533"><ele>196.0</ele><time>2026-04-03T08:49:36.834Z</time></trkpt><trkpt lat="44.7553682" lon="8.8391322"><ele>197.0</ele><time>2026-04-03T08:49:37.835Z</time></trkpt><trkpt lat="44.755104" lon="8.8392112"><ele>198.0</ele><time>2026-04-03T08:49:38.834Z</time></trkpt><trkpt lat="44.7548364" lon="8.8392914"><ele>198.0</ele><time>2026-04-03T08:49:39.835Z</time></trkpt><trkpt lat="44.7545673" lon="8.8393737"><ele>198.0</ele><time>2026-04-03T08:49:40.834Z</time></trkpt><trkpt lat="44.7542961" lon="8.8394572"><ele>198.0</ele><time>2026-04-03T08:49:41.835Z</time></trkpt><trkpt lat="44.7540187" lon="8.8395425"><ele>198.0</ele><time>2026-04-03T08:49:42.834Z</time></trkpt><trkpt lat="44.7537442" lon="8.8396265"><ele>198.0</ele><time>2026-04-03T08:49:43.835Z</time></trkpt><trkpt lat="44.7534477" lon="8.8397176"><ele>198.0</ele><time>2026-04-03T08:49:44.834Z</time></trkpt><trkpt lat="44.7531578" lon="8.8398059"><ele>198.0</ele><time>2026-04-03T08:49:45.834Z</time></trkpt><trkpt lat="44.75287" lon="8.8398941"><ele>198.0</ele><time>2026-04-03T08:49:46.835Z</time></trkpt><trkpt lat="44.7525845" lon="8.8399807"><ele>198.0</ele><time>2026-04-03T08:49:47.834Z</time></trkpt><trkpt lat="44.7523011" lon="8.8400681"><ele>198.0</ele><time>2026-04-03T08:49:48.834Z</time></trkpt><trkpt lat="44.7520211" lon="8.8401579"><ele>199.0</ele><time>2026-04-03T08:49:49.835Z</time></trkpt><trkpt lat="44.751745" lon="8.8402513"><ele>200.0</ele><time>2026-04-03T08:49:50.835Z</time></trkpt><trkpt lat="44.7514811" lon="8.8403466"><ele>200.0</ele><time>2026-04-03T08:49:51.835Z</time></trkpt><trkpt lat="44.7512024" lon="8.8404539"><ele>200.0</ele><time>2026-04-03T08:49:52.835Z</time></trkpt><trkpt lat="44.7509356" lon="8.8405624"><ele>200.0</ele><time>2026-04-03T08:49:53.835Z</time></trkpt><trkpt lat="44.7506705" lon="8.8406725"><ele>200.0</ele><time>2026-04-03T08:49:54.834Z</time></trkpt><trkpt lat="44.7504078" lon="8.8407842"><ele>200.0</ele><time>2026-04-03T08:49:55.835Z</time></trkpt><trkpt lat="44.7501447" lon="8.8408976"><ele>200.0</ele><time>2026-04-03T08:49:56.835Z</time></trkpt><trkpt lat="44.7498835" lon="8.8410144"><ele>200.0</ele><time>2026-04-03T08:49:57.835Z</time></trkpt><trkpt lat="44.749622" lon="8.8411373"><ele>200.0</ele><time>2026-04-03T08:49:58.835Z</time></trkpt><trkpt lat="44.7493682" lon="8.8412601"><ele>201.5</ele><time>2026-04-03T08:49:59.835Z</time></trkpt><trkpt lat="44.749093" lon="8.8413945"><ele>203.0</ele><time>2026-04-03T08:50:00.834Z</time></trkpt><trkpt lat="44.7488219" lon="8.841528"><ele>203.0</ele><time>2026-04-03T08:50:01.835Z</time></trkpt><trkpt lat="44.7485471" lon="8.8416641"><ele>203.0</ele><time>2026-04-03T08:50:02.835Z</time></trkpt><trkpt lat="44.7482699" lon="8.8418024"><ele>203.0</ele><time>2026-04-03T08:50:03.835Z</time></trkpt><trkpt lat="44.7479898" lon="8.8419398"><ele>203.0</ele><time>2026-04-03T08:50:04.835Z</time></trkpt><trkpt lat="44.747709" lon="8.8420771"><ele>203.0</ele><time>2026-04-03T08:50:05.835Z</time></trkpt><trkpt lat="44.7474264" lon="8.8422155"><ele>203.0</ele><time>2026-04-03T08:50:06.834Z</time></trkpt><trkpt lat="44.7471532" lon="8.8423501"><ele>202.5</ele><time>2026-04-03T08:50:07.834Z</time></trkpt><trkpt lat="44.7468617" lon="8.8424933"><ele>202.0</ele><time>2026-04-03T08:50:08.835Z</time></trkpt><trkpt lat="44.7465796" lon="8.8426317"><ele>202.0</ele><time>2026-04-03T08:50:09.835Z</time></trkpt><trkpt lat="44.7462959" lon="8.8427703"><ele>202.0</ele><time>2026-04-03T08:50:10.834Z</time></trkpt><trkpt lat="44.7460019" lon="8.8429133"><ele>202.5</ele><time>2026-04-03T08:50:11.835Z</time></trkpt><trkpt lat="44.7456932" lon="8.8430619"><ele>203.0</ele><time>2026-04-03T08:50:12.834Z</time></trkpt><trkpt lat="44.7453673" lon="8.8432219"><ele>203.5</ele><time>2026-04-03T08:50:13.835Z</time></trkpt><trkpt lat="44.7450287" lon="8.8433855"><ele>204.0</ele><time>2026-04-03T08:50:14.834Z</time></trkpt><trkpt lat="44.7446994" lon="8.8435432"><ele>204.0</ele><time>2026-04-03T08:50:15.835Z</time></trkpt><trkpt lat="44.744352" lon="8.8437053"><ele>204.0</ele><time>2026-04-03T08:50:16.835Z</time></trkpt><trkpt lat="44.7440216" lon="8.8438574"><ele>204.0</ele><time>2026-04-03T08:50:17.835Z</time></trkpt><trkpt lat="44.7436996" lon="8.8440105"><ele>204.0</ele><time>2026-04-03T08:50:18.835Z</time></trkpt><trkpt lat="44.7433933" lon="8.8441758"><ele>204.5</ele><time>2026-04-03T08:50:19.835Z</time></trkpt><trkpt lat="44.7431039" lon="8.8443541"><ele>205.0</ele><time>2026-04-03T08:50:20.834Z</time></trkpt><trkpt lat="44.7428266" lon="8.8445413"><ele>205.0</ele><time>2026-04-03T08:50:21.834Z</time></trkpt><trkpt lat="44.7425589" lon="8.8447372"><ele>205.0</ele><time>2026-04-03T08:50:22.834Z</time></trkpt><trkpt lat="44.742307" lon="8.8449355"><ele>205.5</ele><time>2026-04-03T08:50:23.834Z</time></trkpt><trkpt lat="44.7420468" lon="8.8451581"><ele>206.0</ele><time>2026-04-03T08:50:24.835Z</time></trkpt><trkpt lat="44.7418004" lon="8.8453841"><ele>206.0</ele><time>2026-04-03T08:50:25.835Z</time></trkpt><trkpt lat="44.7415591" lon="8.8456201"><ele>206.0</ele><time>2026-04-03T08:50:26.835Z</time></trkpt><trkpt lat="44.7413236" lon="8.8458686"><ele>206.5</ele><time>2026-04-03T08:50:27.834Z</time></trkpt><trkpt lat="44.7410997" lon="8.8461352"><ele>207.0</ele><time>2026-04-03T08:50:28.834Z</time></trkpt><trkpt lat="44.7408819" lon="8.8464171"><ele>206.0</ele><time>2026-04-03T08:50:29.835Z</time></trkpt><trkpt lat="44.7406701" lon="8.8467022"><ele>205.0</ele><time>2026-04-03T08:50:30.835Z</time></trkpt><trkpt lat="44.7404676" lon="8.8469815"><ele>205.0</ele><time>2026-04-03T08:50:31.835Z</time></trkpt><trkpt lat="44.7402534" lon="8.8472824"><ele>205.0</ele><time>2026-04-03T08:50:32.835Z</time></trkpt><trkpt lat="44.7400472" lon="8.847577"><ele>205.0</ele><time>2026-04-03T08:50:33.835Z</time></trkpt><trkpt lat="44.7398419" lon="8.8478721"><ele>205.0</ele><time>2026-04-03T08:50:34.835Z</time></trkpt><trkpt lat="44.7396363" lon="8.8481675"><ele>206.0</ele><time>2026-04-03T08:50:35.835Z</time></trkpt><trkpt lat="44.73943" lon="8.8484617"><ele>207.0</ele><time>2026-04-03T08:50:36.835Z</time></trkpt><trkpt lat="44.7392229" lon="8.848755"><ele>205.0</ele><time>2026-04-03T08:50:37.835Z</time></trkpt><trkpt lat="44.7390163" lon="8.8490489"><ele>203.0</ele><time>2026-04-03T08:50:38.834Z</time></trkpt><trkpt lat="44.7388157" lon="8.8493328"><ele>202.0</ele><time>2026-04-03T08:50:39.835Z</time></trkpt><trkpt lat="44.7385976" lon="8.8496321"><ele>201.0</ele><time>2026-04-03T08:50:40.834Z</time></trkpt><trkpt lat="44.7383814" lon="8.8499156"><ele>197.0</ele><time>2026-04-03T08:50:41.835Z</time></trkpt><trkpt lat="44.7381572" lon="8.8501886"><ele>193.0</ele><time>2026-04-03T08:50:42.834Z</time></trkpt><trkpt lat="44.7379226" lon="8.8504482"><ele>193.0</ele><time>2026-04-03T08:50:43.835Z</time></trkpt><trkpt lat="44.7376779" lon="8.8507008"><ele>193.0</ele><time>2026-04-03T08:50:44.835Z</time></trkpt><trkpt lat="44.7374322" lon="8.8509384"><ele>192.5</ele><time>2026-04-03T08:50:45.835Z</time></trkpt><trkpt lat="44.7371792" lon="8.8511661"><ele>192.0</ele><time>2026-04-03T08:50:46.835Z</time></trkpt><trkpt lat="44.7369294" lon="8.8513767"><ele>192.0</ele><time>2026-04-03T08:50:47.835Z</time></trkpt><trkpt lat="44.7366583" lon="8.851594"><ele>192.0</ele><time>2026-04-03T08:50:48.835Z</time></trkpt><trkpt lat="44.7364047" lon="8.8517924"><ele>192.0</ele><time>2026-04-03T08:50:49.834Z</time></trkpt><trkpt lat="44.7361369" lon="8.8519998"><ele>192.0</ele><time>2026-04-03T08:50:50.834Z</time></trkpt><trkpt lat="44.7358756" lon="8.8522007"><ele>193.0</ele><time>2026-04-03T08:50:51.834Z</time></trkpt><trkpt lat="44.7356143" lon="8.8524016"><ele>194.0</ele><time>2026-04-03T08:50:52.835Z</time></trkpt><trkpt lat="44.7353582" lon="8.8525978"><ele>193.0</ele><time>2026-04-03T08:50:53.834Z</time></trkpt><trkpt lat="44.7350979" lon="8.8527973"><ele>192.0</ele><time>2026-04-03T08:50:54.835Z</time></trkpt><trkpt lat="44.7348412" lon="8.8529952"><ele>192.0</ele><time>2026-04-03T08:50:55.834Z</time></trkpt><trkpt lat="44.7345761" lon="8.8531993"><ele>192.0</ele><time>2026-04-03T08:50:56.835Z</time></trkpt><trkpt lat="44.7343209" lon="8.8533948"><ele>192.5</ele><time>2026-04-03T08:50:57.834Z</time></trkpt><trkpt lat="44.7340724" lon="8.8535848"><ele>193.0</ele><time>2026-04-03T08:50:58.835Z</time></trkpt><trkpt lat="44.7338118" lon="8.8537864"><ele>193.0</ele><time>2026-04-03T08:50:59.835Z</time></trkpt><trkpt lat="44.7335621" lon="8.8539799"><ele>193.0</ele><time>2026-04-03T08:51:00.835Z</time></trkpt><trkpt lat="44.7333104" lon="8.8541755"><ele>193.0</ele><time>2026-04-03T08:51:01.835Z</time></trkpt><trkpt lat="44.7330576" lon="8.8543702"><ele>193.0</ele><time>2026-04-03T08:51:02.835Z</time></trkpt><trkpt lat="44.7328099" lon="8.8545598"><ele>194.5</ele><time>2026-04-03T08:51:03.835Z</time></trkpt><trkpt lat="44.732547" lon="8.854759"><ele>196.0</ele><time>2026-04-03T08:51:04.835Z</time></trkpt><trkpt lat="44.732295" lon="8.8549475"><ele>195.5</ele><time>2026-04-03T08:51:05.834Z</time></trkpt><trkpt lat="44.7320437" lon="8.8551369"><ele>195.0</ele><time>2026-04-03T08:51:06.834Z</time></trkpt><trkpt lat="44.7318038" lon="8.8553221"><ele>196.0</ele><time>2026-04-03T08:51:07.834Z</time></trkpt><trkpt lat="44.7315704" lon="8.8555037"><ele>197.0</ele><time>2026-04-03T08:51:08.835Z</time></trkpt><trkpt lat="44.731349" lon="8.8556714"><ele>197.0</ele><time>2026-04-03T08:51:09.835Z</time></trkpt><trkpt lat="44.7311128" lon="8.8558433"><ele>197.0</ele><time>2026-04-03T08:51:10.834Z</time></trkpt><trkpt lat="44.7308788" lon="8.8559949"><ele>195.0</ele><time>2026-04-03T08:51:11.834Z</time></trkpt><trkpt lat="44.7306137" lon="8.8561303"><ele>193.0</ele><time>2026-04-03T08:51:12.834Z</time></trkpt><trkpt lat="44.7303516" lon="8.8562225"><ele>195.0</ele><time>2026-04-03T08:51:13.834Z</time></trkpt><trkpt lat="44.7300746" lon="8.8562859"><ele>197.0</ele><time>2026-04-03T08:51:14.834Z</time></trkpt><trkpt lat="44.7297865" lon="8.8563177"><ele>197.0</ele><time>2026-04-03T08:51:15.834Z</time></trkpt><trkpt lat="44.7295032" lon="8.8563205"><ele>197.0</ele><time>2026-04-03T08:51:16.835Z</time></trkpt><trkpt lat="44.729219" lon="8.8563069"><ele>199.5</ele><time>2026-04-03T08:51:17.835Z</time></trkpt><trkpt lat="44.7289408" lon="8.8562901"><ele>202.0</ele><time>2026-04-03T08:51:18.834Z</time></trkpt><trkpt lat="44.7286565" lon="8.856284"><ele>204.5</ele><time>2026-04-03T08:51:19.835Z</time></trkpt><trkpt lat="44.7283686" lon="8.8563101"><ele>207.0</ele><time>2026-04-03T08:51:20.834Z</time></trkpt><trkpt lat="44.7280912" lon="8.8563753"><ele>207.0</ele><time>2026-04-03T08:51:21.835Z</time></trkpt><trkpt lat="44.7278231" lon="8.8564897"><ele>207.0</ele><time>2026-04-03T08:51:22.835Z</time></trkpt><trkpt lat="44.7275641" lon="8.8566471"><ele>206.5</ele><time>2026-04-03T08:51:23.835Z</time></trkpt><trkpt lat="44.7273113" lon="8.8568198"><ele>206.0</ele><time>2026-04-03T08:51:24.835Z</time></trkpt><trkpt lat="44.7270668" lon="8.8569882"><ele>207.5</ele><time>2026-04-03T08:51:25.835Z</time></trkpt><trkpt lat="44.7268355" lon="8.857158"><ele>209.0</ele><time>2026-04-03T08:51:26.835Z</time></trkpt><trkpt lat="44.7266329" lon="8.8573422"><ele>209.0</ele><time>2026-04-03T08:51:27.835Z</time></trkpt><trkpt lat="44.7264361" lon="8.8575648"><ele>209.0</ele><time>2026-04-03T08:51:28.835Z</time></trkpt><trkpt lat="44.7262676" lon="8.8577872"><ele>210.66666666666669</ele><time>2026-04-03T08:51:29.835Z</time></trkpt><trkpt lat="44.7261085" lon="8.8580203"><ele>212.33333333333331</ele><time>2026-04-03T08:51:30.835Z</time></trkpt><trkpt lat="44.7259638" lon="8.8582477"><ele>214.0</ele><time>2026-04-03T08:51:31.835Z</time></trkpt><trkpt lat="44.7258238" lon="8.8584733"><ele>210.33333333333331</ele><time>2026-04-03T08:51:32.835Z</time></trkpt><trkpt lat="44.7256851" lon="8.8586932"><ele>206.66666666666669</ele><time>2026-04-03T08:51:33.835Z</time></trkpt><trkpt lat="44.7255499" lon="8.8589063"><ele>203.0</ele><time>2026-04-03T08:51:34.834Z</time></trkpt><trkpt lat="44.7254166" lon="8.859117"><ele>203.33333333333334</ele><time>2026-04-03T08:51:35.835Z</time></trkpt><trkpt lat="44.7252841" lon="8.8593307"><ele>203.66666666666669</ele><time>2026-04-03T08:51:36.834Z</time></trkpt><trkpt lat="44.7251614" lon="8.8595285"><ele>204.0</ele><time>2026-04-03T08:51:37.834Z</time></trkpt><trkpt lat="44.7250445" lon="8.8597168"><ele>204.0</ele><time>2026-04-03T08:51:38.835Z</time></trkpt><trkpt lat="44.7249234" lon="8.8599127"><ele>204.0</ele><time>2026-04-03T08:51:39.834Z</time></trkpt><trkpt lat="44.7248056" lon="8.8601019"><ele>204.0</ele><time>2026-04-03T08:51:40.834Z</time></trkpt><trkpt lat="44.7246845" lon="8.860295"><ele>202.66666666666669</ele><time>2026-04-03T08:51:41.834Z</time></trkpt><trkpt lat="44.7245618" lon="8.860489"><ele>201.33333333333334</ele><time>2026-04-03T08:51:42.834Z</time></trkpt><trkpt lat="44.7244449" lon="8.8606755"><ele>200.0</ele><time>2026-04-03T08:51:43.835Z</time></trkpt><trkpt lat="44.7243251" lon="8.8608671"><ele>202.33333333333334</ele><time>2026-04-03T08:51:44.835Z</time></trkpt><trkpt lat="44.7242161" lon="8.861042"><ele>204.66666666666669</ele><time>2026-04-03T08:51:45.835Z</time></trkpt><trkpt lat="44.7241054" lon="8.861221"><ele>207.0</ele><time>2026-04-03T08:51:46.835Z</time></trkpt><trkpt lat="44.7239894" lon="8.8614079"><ele>207.0</ele><time>2026-04-03T08:51:47.834Z</time></trkpt><trkpt lat="44.7238724" lon="8.8615925"><ele>207.0</ele><time>2026-04-03T08:51:48.835Z</time></trkpt><trkpt lat="44.7237497" lon="8.8617706"><ele>207.0</ele><time>2026-04-03T08:51:49.834Z</time></trkpt><trkpt lat="44.7236067" lon="8.8619481"><ele>210.33333333333331</ele><time>2026-04-03T08:51:50.835Z</time></trkpt><trkpt lat="44.7234463" lon="8.8621155"><ele>213.66666666666666</ele><time>2026-04-03T08:51:51.834Z</time></trkpt><trkpt lat="44.7232669" lon="8.8622717"><ele>217.0</ele><time>2026-04-03T08:51:52.835Z</time></trkpt><trkpt lat="44.7230901" lon="8.862399"><ele>217.0</ele><time>2026-04-03T08:51:53.835Z</time></trkpt><trkpt lat="44.7229001" lon="8.8625087"><ele>217.0</ele><time>2026-04-03T08:51:54.835Z</time></trkpt><trkpt lat="44.7226934" lon="8.8626047"><ele>217.0</ele><time>2026-04-03T08:51:55.835Z</time></trkpt><trkpt lat="44.7224834" lon="8.8626895"><ele>217.0</ele><time>2026-04-03T08:51:56.835Z</time></trkpt><trkpt lat="44.7222765" lon="8.8627703"><ele>217.0</ele><time>2026-04-03T08:51:57.835Z</time></trkpt><trkpt lat="44.7220656" lon="8.8628524"><ele>217.0</ele><time>2026-04-03T08:51:58.835Z</time></trkpt><trkpt lat="44.7218565" lon="8.8629307"><ele>217.0</ele><time>2026-04-03T08:51:59.835Z</time></trkpt><trkpt lat="44.7216352" lon="8.8630001"><ele>217.0</ele><time>2026-04-03T08:52:00.834Z</time></trkpt><trkpt lat="44.7214197" lon="8.8630522"><ele>217.0</ele><time>2026-04-03T08:52:01.834Z</time></trkpt><trkpt lat="44.7211942" lon="8.8631015"><ele>216.5</ele><time>2026-04-03T08:52:02.834Z</time></trkpt><trkpt lat="44.7209637" lon="8.8631529"><ele>216.0</ele><time>2026-04-03T08:52:03.835Z</time></trkpt><trkpt lat="44.7207427" lon="8.8632027"><ele>216.0</ele><time>2026-04-03T08:52:04.835Z</time></trkpt><trkpt lat="44.7205303" lon="8.8632511"><ele>216.0</ele><time>2026-04-03T08:52:05.834Z</time></trkpt><trkpt lat="44.7203103" lon="8.8633009"><ele>216.0</ele><time>2026-04-03T08:52:06.835Z</time></trkpt><trkpt lat="44.7200899" lon="8.8633519"><ele>215.66666666666669</ele><time>2026-04-03T08:52:07.835Z</time></trkpt><trkpt lat="44.7198628" lon="8.8634052"><ele>215.33333333333334</ele><time>2026-04-03T08:52:08.834Z</time></trkpt><trkpt lat="44.7196491" lon="8.8634548"><ele>215.0</ele><time>2026-04-03T08:52:09.835Z</time></trkpt><trkpt lat="44.7194279" lon="8.8635044"><ele>216.0</ele><time>2026-04-03T08:52:10.834Z</time></trkpt><trkpt lat="44.7191989" lon="8.8635541"><ele>217.0</ele><time>2026-04-03T08:52:11.834Z</time></trkpt><trkpt lat="44.7189748" lon="8.8636039"><ele>217.0</ele><time>2026-04-03T08:52:12.835Z</time></trkpt><trkpt lat="44.7187556" lon="8.8636534"><ele>217.0</ele><time>2026-04-03T08:52:13.834Z</time></trkpt><trkpt lat="44.7185257" lon="8.8637058"><ele>216.5</ele><time>2026-04-03T08:52:14.835Z</time></trkpt><trkpt lat="44.7182935" lon="8.8637587"><ele>216.0</ele><time>2026-04-03T08:52:15.835Z</time></trkpt><trkpt lat="44.7180518" lon="8.8638138"><ele>216.0</ele><time>2026-04-03T08:52:16.835Z</time></trkpt><trkpt lat="44.7178239" lon="8.8638653"><ele>216.0</ele><time>2026-04-03T08:52:17.835Z</time></trkpt><trkpt lat="44.7175887" lon="8.8639169"><ele>216.0</ele><time>2026-04-03T08:52:18.835Z</time></trkpt><trkpt lat="44.7173468" lon="8.8639691"><ele>216.0</ele><time>2026-04-03T08:52:19.834Z</time></trkpt><trkpt lat="44.717112" lon="8.8640199"><ele>213.5</ele><time>2026-04-03T08:52:20.834Z</time></trkpt><trkpt lat="44.7168845" lon="8.8640657"><ele>211.0</ele><time>2026-04-03T08:52:21.834Z</time></trkpt><trkpt lat="44.7166481" lon="8.8640958"><ele>211.0</ele><time>2026-04-03T08:52:22.835Z</time></trkpt><trkpt lat="44.7164111" lon="8.8640948"><ele>211.0</ele><time>2026-04-03T08:52:23.835Z</time></trkpt><trkpt lat="44.7161691" lon="8.8640612"><ele>211.0</ele><time>2026-04-03T08:52:24.834Z</time></trkpt><trkpt lat="44.7159483" lon="8.8640132"><ele>211.0</ele><time>2026-04-03T08:52:25.835Z</time></trkpt><trkpt lat="44.7157267" lon="8.8639603"><ele>211.0</ele><time>2026-04-03T08:52:26.835Z</time></trkpt><trkpt lat="44.7155033" lon="8.8639067"><ele>211.0</ele><time>2026-04-03T08:52:27.835Z</time></trkpt><trkpt lat="44.7152913" lon="8.8638562"><ele>211.0</ele><time>2026-04-03T08:52:28.835Z</time></trkpt><trkpt lat="44.7150906" lon="8.8638073"><ele>211.0</ele><time>2026-04-03T08:52:29.835Z</time></trkpt><trkpt lat="44.7148868" lon="8.8637594"><ele>212.33333333333331</ele><time>2026-04-03T08:52:30.835Z</time></trkpt><trkpt lat="44.7146871" lon="8.8637152"><ele>213.66666666666669</ele><time>2026-04-03T08:52:31.835Z</time></trkpt><trkpt lat="44.7144854" lon="8.863674"><ele>215.0</ele><time>2026-04-03T08:52:32.835Z</time></trkpt><trkpt lat="44.714295" lon="8.8636555"><ele>215.0</ele><time>2026-04-03T08:52:33.835Z</time></trkpt><trkpt lat="44.714099" lon="8.863677"><ele>215.0</ele><time>2026-04-03T08:52:34.835Z</time></trkpt><trkpt lat="44.7139116" lon="8.863738"><ele>215.0</ele><time>2026-04-03T08:52:35.835Z</time></trkpt><trkpt lat="44.713746" lon="8.8638285"><ele>215.0</ele><time>2026-04-03T08:52:36.835Z</time></trkpt><trkpt lat="44.7136003" lon="8.8639455"><ele>215.0</ele><time>2026-04-03T08:52:37.835Z</time></trkpt><trkpt lat="44.713464" lon="8.8640924"><ele>215.0</ele><time>2026-04-03T08:52:38.835Z</time></trkpt><trkpt lat="44.7133414" lon="8.8642646"><ele>215.33333333333334</ele><time>2026-04-03T08:52:39.835Z</time></trkpt><trkpt lat="44.7132274" lon="8.8644688"><ele>215.66666666666669</ele><time>2026-04-03T08:52:40.835Z</time></trkpt><trkpt lat="44.7131206" lon="8.8646784"><ele>216.0</ele><time>2026-04-03T08:52:41.834Z</time></trkpt><trkpt lat="44.713023" lon="8.8648886"><ele>216.0</ele><time>2026-04-03T08:52:42.835Z</time></trkpt><trkpt lat="44.7129174" lon="8.8651089"><ele>216.0</ele><time>2026-04-03T08:52:43.834Z</time></trkpt><trkpt lat="44.7128184" lon="8.8653128"><ele>216.0</ele><time>2026-04-03T08:52:44.834Z</time></trkpt><trkpt lat="44.712728" lon="8.8654957"><ele>215.0</ele><time>2026-04-03T08:52:45.835Z</time></trkpt><trkpt lat="44.7126424" lon="8.8656763"><ele>214.0</ele><time>2026-04-03T08:52:46.835Z</time></trkpt><trkpt lat="44.7125636" lon="8.8658597"><ele>213.0</ele><time>2026-04-03T08:52:47.834Z</time></trkpt><trkpt lat="44.7124884" lon="8.8660662"><ele>213.0</ele><time>2026-04-03T08:52:48.835Z</time></trkpt><trkpt lat="44.7124255" lon="8.8662932"><ele>213.0</ele><time>2026-04-03T08:52:49.834Z</time></trkpt><trkpt lat="44.7123641" lon="8.8665637"><ele>213.0</ele><time>2026-04-03T08:52:50.834Z</time></trkpt><trkpt lat="44.7123009" lon="8.8668646"><ele>213.0</ele><time>2026-04-03T08:52:51.835Z</time></trkpt><trkpt lat="44.7122403" lon="8.867158"><ele>213.0</ele><time>2026-04-03T08:52:52.835Z</time></trkpt><trkpt lat="44.7121812" lon="8.8674423"><ele>213.0</ele><time>2026-04-03T08:52:53.834Z</time></trkpt><trkpt lat="44.7121187" lon="8.8677298"><ele>213.0</ele><time>2026-04-03T08:52:54.834Z</time></trkpt><trkpt lat="44.7120511" lon="8.8680067"><ele>213.0</ele><time>2026-04-03T08:52:55.835Z</time></trkpt><trkpt lat="44.7119684" lon="8.8682898"><ele>213.0</ele><time>2026-04-03T08:52:56.835Z</time></trkpt><trkpt lat="44.7118707" lon="8.8685522"><ele>213.0</ele><time>2026-04-03T08:52:57.834Z</time></trkpt><trkpt lat="44.7117426" lon="8.8688311"><ele>213.0</ele><time>2026-04-03T08:52:58.835Z</time></trkpt><trkpt lat="44.711585" lon="8.8691256"><ele>215.5</ele><time>2026-04-03T08:52:59.834Z</time></trkpt><trkpt lat="44.7114228" lon="8.8694107"><ele>218.0</ele><time>2026-04-03T08:53:00.834Z</time></trkpt><trkpt lat="44.7112663" lon="8.8696926"><ele>218.0</ele><time>2026-04-03T08:53:01.834Z</time></trkpt><trkpt lat="44.7111157" lon="8.8699923"><ele>218.0</ele><time>2026-04-03T08:53:02.835Z</time></trkpt><trkpt lat="44.710985" lon="8.8703085"><ele>217.5</ele><time>2026-04-03T08:53:03.835Z</time></trkpt><trkpt lat="44.7108771" lon="8.8706612"><ele>217.0</ele><time>2026-04-03T08:53:04.835Z</time></trkpt><trkpt lat="44.7108058" lon="8.8710137"><ele>219.0</ele><time>2026-04-03T08:53:05.835Z</time></trkpt><trkpt lat="44.7107603" lon="8.8713945"><ele>221.0</ele><time>2026-04-03T08:53:06.835Z</time></trkpt><trkpt lat="44.7107384" lon="8.8717991"><ele>221.5</ele><time>2026-04-03T08:53:07.835Z</time></trkpt><trkpt lat="44.710727" lon="8.8721969"><ele>222.0</ele><time>2026-04-03T08:53:08.835Z</time></trkpt><trkpt lat="44.7107139" lon="8.8725853"><ele>219.5</ele><time>2026-04-03T08:53:09.835Z</time></trkpt><trkpt lat="44.7106789" lon="8.8729841"><ele>217.0</ele><time>2026-04-03T08:53:10.835Z</time></trkpt><trkpt lat="44.7106102" lon="8.8733762"><ele>216.0</ele><time>2026-04-03T08:53:11.835Z</time></trkpt><trkpt lat="44.7105056" lon="8.8737681"><ele>215.0</ele><time>2026-04-03T08:53:12.835Z</time></trkpt><trkpt lat="44.7103752" lon="8.8741208"><ele>212.0</ele><time>2026-04-03T08:53:13.835Z</time></trkpt><trkpt lat="44.7102128" lon="8.874464"><ele>209.0</ele><time>2026-04-03T08:53:14.834Z</time></trkpt><trkpt lat="44.7100218" lon="8.8747942"><ele>209.0</ele><time>2026-04-03T08:53:15.834Z</time></trkpt><trkpt lat="44.7098247" lon="8.8751025"><ele>209.0</ele><time>2026-04-03T08:53:16.834Z</time></trkpt><trkpt lat="44.7096317" lon="8.8753999"><ele>210.0</ele><time>2026-04-03T08:53:17.835Z</time></trkpt><trkpt lat="44.7094379" lon="8.8757018"><ele>211.0</ele><time>2026-04-03T08:53:18.835Z</time></trkpt><trkpt lat="44.709251" lon="8.875993"><ele>212.0</ele><time>2026-04-03T08:53:19.835Z</time></trkpt><trkpt lat="44.7090673" lon="8.8762779"><ele>213.0</ele><time>2026-04-03T08:53:20.834Z</time></trkpt><trkpt lat="44.7088993" lon="8.8765392"><ele>212.5</ele><time>2026-04-03T08:53:21.835Z</time></trkpt><trkpt lat="44.708728" lon="8.876802"><ele>212.0</ele><time>2026-04-03T08:53:22.835Z</time></trkpt><trkpt lat="44.708556" lon="8.8770605"><ele>212.0</ele><time>2026-04-03T08:53:23.834Z</time></trkpt><trkpt lat="44.7083942" lon="8.8772943"><ele>212.0</ele><time>2026-04-03T08:53:24.834Z</time></trkpt><trkpt lat="44.7082405" lon="8.8775031"><ele>212.0</ele><time>2026-04-03T08:53:25.835Z</time></trkpt><trkpt lat="44.7080862" lon="8.8777034"><ele>212.0</ele><time>2026-04-03T08:53:26.835Z</time></trkpt><trkpt lat="44.7079408" lon="8.8778912"><ele>212.0</ele><time>2026-04-03T08:53:27.835Z</time></trkpt><trkpt lat="44.7078015" lon="8.8780734"><ele>212.0</ele><time>2026-04-03T08:53:28.835Z</time></trkpt><trkpt lat="44.707679" lon="8.8782353"><ele>212.0</ele><time>2026-04-03T08:53:29.835Z</time></trkpt><trkpt lat="44.7075583" lon="8.8783943"><ele>212.0</ele><time>2026-04-03T08:53:30.835Z</time></trkpt><trkpt lat="44.7074344" lon="8.8785504"><ele>212.0</ele><time>2026-04-03T08:53:31.834Z</time></trkpt><trkpt lat="44.7073179" lon="8.8787031"><ele>211.66666666666669</ele><time>2026-04-03T08:53:32.835Z</time></trkpt><trkpt lat="44.707212" lon="8.878861"><ele>211.33333333333331</ele><time>2026-04-03T08:53:33.834Z</time></trkpt><trkpt lat="44.7071013" lon="8.8790244"><ele>211.0</ele><time>2026-04-03T08:53:34.835Z</time></trkpt><trkpt lat="44.7069897" lon="8.8791793"><ele>211.25</ele><time>2026-04-03T08:53:35.835Z</time></trkpt><trkpt lat="44.7068746" lon="8.8793252"><ele>211.5</ele><time>2026-04-03T08:53:36.835Z</time></trkpt><trkpt lat="44.7067669" lon="8.879457"><ele>211.75</ele><time>2026-04-03T08:53:37.835Z</time></trkpt><trkpt lat="44.7066604" lon="8.8795997"><ele>212.0</ele><time>2026-04-03T08:53:38.835Z</time></trkpt><trkpt lat="44.706549" lon="8.8797489"><ele>212.0</ele><time>2026-04-03T08:53:39.834Z</time></trkpt><trkpt lat="44.7064404" lon="8.8798925"><ele>212.0</ele><time>2026-04-03T08:53:40.834Z</time></trkpt><trkpt lat="44.7063363" lon="8.8800301"><ele>212.0</ele><time>2026-04-03T08:53:41.835Z</time></trkpt><trkpt lat="44.7062291" lon="8.8801721"><ele>212.0</ele><time>2026-04-03T08:53:42.835Z</time></trkpt><trkpt lat="44.7061278" lon="8.880308"><ele>213.25</ele><time>2026-04-03T08:53:43.835Z</time></trkpt><trkpt lat="44.7060312" lon="8.8804372"><ele>214.5</ele><time>2026-04-03T08:53:44.834Z</time></trkpt><trkpt lat="44.7059471" lon="8.8805428"><ele>215.75</ele><time>2026-04-03T08:53:45.834Z</time></trkpt><trkpt lat="44.7058602" lon="8.8806412"><ele>217.0</ele><time>2026-04-03T08:53:46.834Z</time></trkpt><trkpt lat="44.705767" lon="8.8807416"><ele>217.0</ele><time>2026-04-03T08:53:47.835Z</time></trkpt><trkpt lat="44.7056711" lon="8.8808371"><ele>217.0</ele><time>2026-04-03T08:53:48.834Z</time></trkpt><trkpt lat="44.7055725" lon="8.8809313"><ele>217.0</ele><time>2026-04-03T08:53:49.835Z</time></trkpt><trkpt lat="44.7054663" lon="8.8810309"><ele>217.0</ele><time>2026-04-03T08:53:50.834Z</time></trkpt><trkpt lat="44.7053569" lon="8.8811314"><ele>218.5</ele><time>2026-04-03T08:53:51.835Z</time></trkpt><trkpt lat="44.7052429" lon="8.8812373"><ele>220.0</ele><time>2026-04-03T08:53:52.835Z</time></trkpt><trkpt lat="44.7051362" lon="8.8813362"><ele>221.5</ele><time>2026-04-03T08:53:53.834Z</time></trkpt><trkpt lat="44.705034" lon="8.8814343"><ele>223.0</ele><time>2026-04-03T08:53:54.835Z</time></trkpt><trkpt lat="44.7049381" lon="8.8815294"><ele>223.0</ele><time>2026-04-03T08:53:55.835Z</time></trkpt><trkpt lat="44.7048541" lon="8.8816223"><ele>223.0</ele><time>2026-04-03T08:53:56.835Z</time></trkpt><trkpt lat="44.7047724" lon="8.8817128"><ele>223.0</ele><time>2026-04-03T08:53:57.835Z</time></trkpt><trkpt lat="44.704688" lon="8.881816"><ele>223.0</ele><time>2026-04-03T08:53:58.834Z</time></trkpt><trkpt lat="44.7046073" lon="8.8819241"><ele>223.0</ele><time>2026-04-03T08:53:59.835Z</time></trkpt><trkpt lat="44.704528" lon="8.8820377"><ele>222.60000000000002</ele><time>2026-04-03T08:54:00.834Z</time></trkpt><trkpt lat="44.7044605" lon="8.8821445"><ele>222.20000000000002</ele><time>2026-04-03T08:54:01.835Z</time></trkpt><trkpt lat="44.7043973" lon="8.8822542"><ele>221.8</ele><time>2026-04-03T08:54:02.835Z</time></trkpt><trkpt lat="44.7043375" lon="8.8823666"><ele>221.4</ele><time>2026-04-03T08:54:03.835Z</time></trkpt><trkpt lat="44.7042831" lon="8.8824735"><ele>221.0</ele><time>2026-04-03T08:54:04.834Z</time></trkpt><trkpt lat="44.7042337" lon="8.8825759"><ele>222.8</ele><time>2026-04-03T08:54:05.835Z</time></trkpt><trkpt lat="44.7041813" lon="8.8826837"><ele>224.60000000000002</ele><time>2026-04-03T08:54:06.834Z</time></trkpt><trkpt lat="44.704125" lon="8.8827964"><ele>226.4</ele><time>2026-04-03T08:54:07.835Z</time></trkpt><trkpt lat="44.7040626" lon="8.8829163"><ele>228.2</ele><time>2026-04-03T08:54:08.834Z</time></trkpt><trkpt lat="44.7040004" lon="8.8830335"><ele>230.0</ele><time>2026-04-03T08:54:09.834Z</time></trkpt><trkpt lat="44.7039331" lon="8.8831662"><ele>230.0</ele><time>2026-04-03T08:54:10.835Z</time></trkpt><trkpt lat="44.7038553" lon="8.883321"><ele>230.0</ele><time>2026-04-03T08:54:11.835Z</time></trkpt><trkpt lat="44.7037761" lon="8.8834823"><ele>230.0</ele><time>2026-04-03T08:54:12.835Z</time></trkpt><trkpt lat="44.7036987" lon="8.8836492"><ele>230.0</ele><time>2026-04-03T08:54:13.834Z</time></trkpt><trkpt lat="44.7036214" lon="8.8838261"><ele>229.5</ele><time>2026-04-03T08:54:14.835Z</time></trkpt><trkpt lat="44.7035516" lon="8.8839975"><ele>229.0</ele><time>2026-04-03T08:54:15.835Z</time></trkpt><trkpt lat="44.7034844" lon="8.884176"><ele>228.5</ele><time>2026-04-03T08:54:16.835Z</time></trkpt><trkpt lat="44.7034245" lon="8.8843474"><ele>228.0</ele><time>2026-04-03T08:54:17.834Z</time></trkpt><trkpt lat="44.703365" lon="8.8845257"><ele>228.0</ele><time>2026-04-03T08:54:18.835Z</time></trkpt><trkpt lat="44.7033066" lon="8.8847146"><ele>228.0</ele><time>2026-04-03T08:54:19.835Z</time></trkpt><trkpt lat="44.703251" lon="8.8849061"><ele>228.0</ele><time>2026-04-03T08:54:20.835Z</time></trkpt><trkpt lat="44.7031955" lon="8.885104"><ele>228.0</ele><time>2026-04-03T08:54:21.835Z</time></trkpt><trkpt lat="44.7031374" lon="8.8853256"><ele>229.0</ele><time>2026-04-03T08:54:22.834Z</time></trkpt><trkpt lat="44.7030815" lon="8.8855617"><ele>230.0</ele><time>2026-04-03T08:54:23.834Z</time></trkpt><trkpt lat="44.7030243" lon="8.8858176"><ele>231.0</ele><time>2026-04-03T08:54:24.835Z</time></trkpt><trkpt lat="44.7029713" lon="8.8860575"><ele>232.33333333333331</ele><time>2026-04-03T08:54:25.835Z</time></trkpt><trkpt lat="44.702918" lon="8.8863023"><ele>233.66666666666666</ele><time>2026-04-03T08:54:26.834Z</time></trkpt><trkpt lat="44.7028652" lon="8.8865596"><ele>235.0</ele><time>2026-04-03T08:54:27.835Z</time></trkpt><trkpt lat="44.7028153" lon="8.8868121"><ele>235.0</ele><time>2026-04-03T08:54:28.835Z</time></trkpt><trkpt lat="44.7027684" lon="8.887062"><ele>235.0</ele><time>2026-04-03T08:54:29.835Z</time></trkpt><trkpt lat="44.7027163" lon="8.8873252"><ele>235.0</ele><time>2026-04-03T08:54:30.835Z</time></trkpt><trkpt lat="44.7026555" lon="8.8875907"><ele>234.0</ele><time>2026-04-03T08:54:31.835Z</time></trkpt><trkpt lat="44.7025775" lon="8.8878615"><ele>233.0</ele><time>2026-04-03T08:54:32.834Z</time></trkpt><trkpt lat="44.7024886" lon="8.8881052"><ele>232.0</ele><time>2026-04-03T08:54:33.835Z</time></trkpt><trkpt lat="44.7023845" lon="8.8883566"><ele>234.0</ele><time>2026-04-03T08:54:34.835Z</time></trkpt><trkpt lat="44.7022692" lon="8.888627"><ele>236.0</ele><time>2026-04-03T08:54:35.834Z</time></trkpt><trkpt lat="44.7021565" lon="8.8888965"><ele>238.0</ele><time>2026-04-03T08:54:36.835Z</time></trkpt><trkpt lat="44.7020456" lon="8.8891597"><ele>238.0</ele><time>2026-04-03T08:54:37.834Z</time></trkpt><trkpt lat="44.7019284" lon="8.8894344"><ele>238.0</ele><time>2026-04-03T08:54:38.835Z</time></trkpt><trkpt lat="44.7018102" lon="8.8897123"><ele>235.5</ele><time>2026-04-03T08:54:39.835Z</time></trkpt><trkpt lat="44.7016852" lon="8.8900018"><ele>233.0</ele><time>2026-04-03T08:54:40.835Z</time></trkpt><trkpt lat="44.701567" lon="8.8902773"><ele>233.0</ele><time>2026-04-03T08:54:41.835Z</time></trkpt><trkpt lat="44.7014414" lon="8.8905588"><ele>233.0</ele><time>2026-04-03T08:54:42.835Z</time></trkpt><trkpt lat="44.7012943" lon="8.8908396"><ele>233.0</ele><time>2026-04-03T08:54:43.835Z</time></trkpt><trkpt lat="44.7011317" lon="8.8910916"><ele>233.0</ele><time>2026-04-03T08:54:44.834Z</time></trkpt><trkpt lat="44.7009573" lon="8.8913218"><ele>233.0</ele><time>2026-04-03T08:54:45.834Z</time></trkpt><trkpt lat="44.7007668" lon="8.8915425"><ele>233.0</ele><time>2026-04-03T08:54:46.835Z</time></trkpt><trkpt lat="44.7005725" lon="8.8917576"><ele>230.0</ele><time>2026-04-03T08:54:47.835Z</time></trkpt><trkpt lat="44.7003682" lon="8.891982"><ele>227.0</ele><time>2026-04-03T08:54:48.835Z</time></trkpt><trkpt lat="44.7001764" lon="8.8921924"><ele>227.0</ele><time>2026-04-03T08:54:49.835Z</time></trkpt><trkpt lat="44.6999763" lon="8.8924121"><ele>227.0</ele><time>2026-04-03T08:54:50.835Z</time></trkpt><trkpt lat="44.6997795" lon="8.8926302"><ele>227.0</ele><time>2026-04-03T08:54:51.835Z</time></trkpt><trkpt lat="44.6995793" lon="8.8928525"><ele>227.0</ele><time>2026-04-03T08:54:52.835Z</time></trkpt><trkpt lat="44.6993894" lon="8.8930614"><ele>227.0</ele><time>2026-04-03T08:54:53.835Z</time></trkpt><trkpt lat="44.6991941" lon="8.893274"><ele>227.0</ele><time>2026-04-03T08:54:54.835Z</time></trkpt><trkpt lat="44.6990017" lon="8.8934806"><ele>231.0</ele><time>2026-04-03T08:54:55.834Z</time></trkpt><trkpt lat="44.6987949" lon="8.893693"><ele>235.0</ele><time>2026-04-03T08:54:56.834Z</time></trkpt><trkpt lat="44.6985879" lon="8.893882"><ele>231.0</ele><time>2026-04-03T08:54:57.835Z</time></trkpt><trkpt lat="44.6983665" lon="8.8940479"><ele>227.0</ele><time>2026-04-03T08:54:58.835Z</time></trkpt><trkpt lat="44.6981276" lon="8.8941913"><ele>228.0</ele><time>2026-04-03T08:54:59.834Z</time></trkpt><trkpt lat="44.6978916" lon="8.8943019"><ele>229.0</ele><time>2026-04-03T08:55:00.835Z</time></trkpt><trkpt lat="44.6976473" lon="8.8943926"><ele>231.0</ele><time>2026-04-03T08:55:01.835Z</time></trkpt><trkpt lat="44.6973983" lon="8.8944784"><ele>233.0</ele><time>2026-04-03T08:55:02.834Z</time></trkpt><trkpt lat="44.6971514" lon="8.8945793"><ele>232.0</ele><time>2026-04-03T08:55:03.834Z</time></trkpt><trkpt lat="44.6969027" lon="8.8947097"><ele>231.0</ele><time>2026-04-03T08:55:04.834Z</time></trkpt><trkpt lat="44.6966745" lon="8.8948623"><ele>231.0</ele><time>2026-04-03T08:55:05.835Z</time></trkpt><trkpt lat="44.6964512" lon="8.8950391"><ele>231.0</ele><time>2026-04-03T08:55:06.835Z</time></trkpt><trkpt lat="44.6962212" lon="8.8952346"><ele>232.0</ele><time>2026-04-03T08:55:07.835Z</time></trkpt><trkpt lat="44.6959989" lon="8.8954267"><ele>233.0</ele><time>2026-04-03T08:55:08.835Z</time></trkpt><trkpt lat="44.6957798" lon="8.8956146"><ele>233.0</ele><time>2026-04-03T08:55:09.835Z</time></trkpt><trkpt lat="44.6955564" lon="8.8958077"><ele>233.0</ele><time>2026-04-03T08:55:10.835Z</time></trkpt><trkpt lat="44.6953345" lon="8.8960026"><ele>233.0</ele><time>2026-04-03T08:55:11.834Z</time></trkpt><trkpt lat="44.6951043" lon="8.8962068"><ele>233.0</ele><time>2026-04-03T08:55:12.835Z</time></trkpt><trkpt lat="44.6948879" lon="8.8963977"><ele>233.0</ele><time>2026-04-03T08:55:13.835Z</time></trkpt><trkpt lat="44.6946622" lon="8.8965958"><ele>233.0</ele><time>2026-04-03T08:55:14.834Z</time></trkpt><trkpt lat="44.6944379" lon="8.8967902"><ele>236.0</ele><time>2026-04-03T08:55:15.835Z</time></trkpt><trkpt lat="44.6942092" lon="8.8969883"><ele>239.0</ele><time>2026-04-03T08:55:16.835Z</time></trkpt><trkpt lat="44.6939925" lon="8.8971782"><ele>239.0</ele><time>2026-04-03T08:55:17.835Z</time></trkpt><trkpt lat="44.6937693" lon="8.8973746"><ele>239.0</ele><time>2026-04-03T08:55:18.835Z</time></trkpt><trkpt lat="44.6935514" lon="8.8975668"><ele>231.5</ele><time>2026-04-03T08:55:19.835Z</time></trkpt><trkpt lat="44.69332" lon="8.8977692"><ele>224.0</ele><time>2026-04-03T08:55:20.834Z</time></trkpt><trkpt lat="44.6930978" lon="8.8979613"><ele>224.0</ele><time>2026-04-03T08:55:21.835Z</time></trkpt><trkpt lat="44.6928737" lon="8.8981559"><ele>224.0</ele><time>2026-04-03T08:55:22.835Z</time></trkpt><trkpt lat="44.6926427" lon="8.8983563"><ele>222.5</ele><time>2026-04-03T08:55:23.835Z</time></trkpt><trkpt lat="44.6924247" lon="8.8985454"><ele>221.0</ele><time>2026-04-03T08:55:24.835Z</time></trkpt><trkpt lat="44.6922021" lon="8.8987382"><ele>221.0</ele><time>2026-04-03T08:55:25.834Z</time></trkpt><trkpt lat="44.6919807" lon="8.8989285"><ele>221.0</ele><time>2026-04-03T08:55:26.835Z</time></trkpt><trkpt lat="44.6917567" lon="8.8991222"><ele>223.0</ele><time>2026-04-03T08:55:27.835Z</time></trkpt><trkpt lat="44.6915252" lon="8.8993225"><ele>225.0</ele><time>2026-04-03T08:55:28.834Z</time></trkpt><trkpt lat="44.6913053" lon="8.8995114"><ele>226.0</ele><time>2026-04-03T08:55:29.834Z</time></trkpt><trkpt lat="44.6910827" lon="8.8997007"><ele>227.0</ele><time>2026-04-03T08:55:30.835Z</time></trkpt><trkpt lat="44.690851" lon="8.8998956"><ele>227.0</ele><time>2026-04-03T08:55:31.835Z</time></trkpt><trkpt lat="44.6906241" lon="8.9000766"><ele>227.0</ele><time>2026-04-03T08:55:32.835Z</time></trkpt><trkpt lat="44.6903997" lon="8.9002346"><ele>231.0</ele><time>2026-04-03T08:55:33.835Z</time></trkpt><trkpt lat="44.6901595" lon="8.9003821"><ele>235.0</ele><time>2026-04-03T08:55:34.835Z</time></trkpt><trkpt lat="44.6899198" lon="8.9005114"><ele>235.0</ele><time>2026-04-03T08:55:35.835Z</time></trkpt><trkpt lat="44.6896641" lon="8.9006263"><ele>235.0</ele><time>2026-04-03T08:55:36.835Z</time></trkpt><trkpt lat="44.6894197" lon="8.9007147"><ele>234.5</ele><time>2026-04-03T08:55:37.835Z</time></trkpt><trkpt lat="44.6891618" lon="8.9007991"><ele>234.0</ele><time>2026-04-03T08:55:38.835Z</time></trkpt><trkpt lat="44.6889056" lon="8.9008819"><ele>238.0</ele><time>2026-04-03T08:55:39.835Z</time></trkpt><trkpt lat="44.6886424" lon="8.9009655"><ele>242.0</ele><time>2026-04-03T08:55:40.834Z</time></trkpt><trkpt lat="44.6883916" lon="8.9010441"><ele>243.5</ele><time>2026-04-03T08:55:41.835Z</time></trkpt><trkpt lat="44.6881324" lon="8.901125"><ele>245.0</ele><time>2026-04-03T08:55:42.835Z</time></trkpt><trkpt lat="44.6878787" lon="8.9012042"><ele>247.0</ele><time>2026-04-03T08:55:43.835Z</time></trkpt><trkpt lat="44.6876117" lon="8.9012896"><ele>249.0</ele><time>2026-04-03T08:55:44.835Z</time></trkpt><trkpt lat="44.687356" lon="8.9013746"><ele>249.0</ele><time>2026-04-03T08:55:45.835Z</time></trkpt><trkpt lat="44.6870982" lon="8.9014652"><ele>249.0</ele><time>2026-04-03T08:55:46.834Z</time></trkpt><trkpt lat="44.6868478" lon="8.901566"><ele>255.0</ele><time>2026-04-03T08:55:47.835Z</time></trkpt><trkpt lat="44.6866065" lon="8.9016886"><ele>261.0</ele><time>2026-04-03T08:55:48.835Z</time></trkpt><trkpt lat="44.6863772" lon="8.9018362"><ele>261.0</ele><time>2026-04-03T08:55:49.835Z</time></trkpt><trkpt lat="44.6861591" lon="8.9019972"><ele>261.0</ele><time>2026-04-03T08:55:50.834Z</time></trkpt><trkpt lat="44.6859479" lon="8.9021596"><ele>254.0</ele><time>2026-04-03T08:55:51.835Z</time></trkpt><trkpt lat="44.6857264" lon="8.9023302"><ele>247.0</ele><time>2026-04-03T08:55:52.834Z</time></trkpt><trkpt lat="44.6855119" lon="8.902495"><ele>251.5</ele><time>2026-04-03T08:55:53.834Z</time></trkpt><trkpt lat="44.6852971" lon="8.9026592"><ele>256.0</ele><time>2026-04-03T08:55:54.835Z</time></trkpt><trkpt lat="44.6850754" lon="8.9028276"><ele>256.0</ele><time>2026-04-03T08:55:55.835Z</time></trkpt><trkpt lat="44.6848625" lon="8.9029891"><ele>256.0</ele><time>2026-04-03T08:55:56.834Z</time></trkpt><trkpt lat="44.6846422" lon="8.903156"><ele>259.5</ele><time>2026-04-03T08:55:57.835Z</time></trkpt><trkpt lat="44.6844204" lon="8.9033231"><ele>263.0</ele><time>2026-04-03T08:55:58.834Z</time></trkpt><trkpt lat="44.6841984" lon="8.9034899"><ele>263.0</ele><time>2026-04-03T08:55:59.835Z</time></trkpt><trkpt lat="44.6839709" lon="8.9036607"><ele>263.0</ele><time>2026-04-03T08:56:00.834Z</time></trkpt><trkpt lat="44.6837433" lon="8.9038284"><ele>256.5</ele><time>2026-04-03T08:56:01.835Z</time></trkpt><trkpt lat="44.6835108" lon="8.9039828"><ele>250.0</ele><time>2026-04-03T08:56:02.834Z</time></trkpt><trkpt lat="44.6832717" lon="8.9041148"><ele>250.0</ele><time>2026-04-03T08:56:03.834Z</time></trkpt><trkpt lat="44.6830208" lon="8.904218"><ele>250.0</ele><time>2026-04-03T08:56:04.835Z</time></trkpt><trkpt lat="44.6827761" lon="8.9042799"><ele>258.0</ele><time>2026-04-03T08:56:05.835Z</time></trkpt><trkpt lat="44.6825232" lon="8.9043077"><ele>266.0</ele><time>2026-04-03T08:56:06.835Z</time></trkpt><trkpt lat="44.6822783" lon="8.9042989"><ele>266.0</ele><time>2026-04-03T08:56:07.835Z</time></trkpt><trkpt lat="44.6820209" lon="8.9042571"><ele>266.0</ele><time>2026-04-03T08:56:08.835Z</time></trkpt><trkpt lat="44.6817769" lon="8.9041826"><ele>256.0</ele><time>2026-04-03T08:56:09.834Z</time></trkpt><trkpt lat="44.6815314" lon="8.9040844"><ele>246.0</ele><time>2026-04-03T08:56:10.835Z</time></trkpt><trkpt lat="44.6812877" lon="8.9039887"><ele>252.0</ele><time>2026-04-03T08:56:11.835Z</time></trkpt><trkpt lat="44.6810427" lon="8.903917"><ele>258.0</ele><time>2026-04-03T08:56:12.834Z</time></trkpt><trkpt lat="44.6807917" lon="8.9038747"><ele>258.0</ele><time>2026-04-03T08:56:13.834Z</time></trkpt><trkpt lat="44.6805435" lon="8.9038595"><ele>258.0</ele><time>2026-04-03T08:56:14.835Z</time></trkpt><trkpt lat="44.6802994" lon="8.9038776"><ele>259.0</ele><time>2026-04-03T08:56:15.835Z</time></trkpt><trkpt lat="44.6800449" lon="8.9039326"><ele>260.0</ele><time>2026-04-03T08:56:16.835Z</time></trkpt><trkpt lat="44.6798003" lon="8.9040069"><ele>260.0</ele><time>2026-04-03T08:56:17.835Z</time></trkpt><trkpt lat="44.6795546" lon="8.9040873"><ele>260.0</ele><time>2026-04-03T08:56:18.834Z</time></trkpt><trkpt lat="44.679302" lon="8.9041733"><ele>265.5</ele><time>2026-04-03T08:56:19.835Z</time></trkpt><trkpt lat="44.6790609" lon="8.9042557"><ele>271.0</ele><time>2026-04-03T08:56:20.835Z</time></trkpt><trkpt lat="44.6788131" lon="8.9043392"><ele>266.5</ele><time>2026-04-03T08:56:21.834Z</time></trkpt><trkpt lat="44.6785643" lon="8.9044228"><ele>262.0</ele><time>2026-04-03T08:56:22.834Z</time></trkpt><trkpt lat="44.6783178" lon="8.9045054"><ele>262.0</ele><time>2026-04-03T08:56:23.835Z</time></trkpt><trkpt lat="44.6780669" lon="8.9045907"><ele>262.0</ele><time>2026-04-03T08:56:24.835Z</time></trkpt><trkpt lat="44.677819" lon="8.9046761"><ele>259.0</ele><time>2026-04-03T08:56:25.835Z</time></trkpt><trkpt lat="44.6775713" lon="8.9047618"><ele>256.0</ele><time>2026-04-03T08:56:26.834Z</time></trkpt><trkpt lat="44.6773242" lon="8.9048443"><ele>256.0</ele><time>2026-04-03T08:56:27.835Z</time></trkpt><trkpt lat="44.6770706" lon="8.9049257"><ele>256.0</ele><time>2026-04-03T08:56:28.834Z</time></trkpt><trkpt lat="44.6768281" lon="8.9049995"><ele>254.5</ele><time>2026-04-03T08:56:29.835Z</time></trkpt><trkpt lat="44.676579" lon="8.9050678"><ele>253.0</ele><time>2026-04-03T08:56:30.835Z</time></trkpt><trkpt lat="44.6763371" lon="8.9051184"><ele>261.5</ele><time>2026-04-03T08:56:31.835Z</time></trkpt><trkpt lat="44.6760765" lon="8.9051517"><ele>270.0</ele><time>2026-04-03T08:56:32.835Z</time></trkpt><trkpt lat="44.6758247" lon="8.9051592"><ele>270.0</ele><time>2026-04-03T08:56:33.835Z</time></trkpt><trkpt lat="44.6755679" lon="8.9051415"><ele>270.0</ele><time>2026-04-03T08:56:34.835Z</time></trkpt><trkpt lat="44.6753143" lon="8.9051037"><ele>263.5</ele><time>2026-04-03T08:56:35.834Z</time></trkpt><trkpt lat="44.6750603" lon="8.9050655"><ele>257.0</ele><time>2026-04-03T08:56:36.834Z</time></trkpt><trkpt lat="44.6748069" lon="8.9050385"><ele>257.0</ele><time>2026-04-03T08:56:37.835Z</time></trkpt><trkpt lat="44.6745549" lon="8.9050281"><ele>257.0</ele><time>2026-04-03T08:56:38.835Z</time></trkpt><trkpt lat="44.6743092" lon="8.9050397"><ele>257.5</ele><time>2026-04-03T08:56:39.835Z</time></trkpt><trkpt lat="44.6740497" lon="8.9050755"><ele>258.0</ele><time>2026-04-03T08:56:40.835Z</time></trkpt><trkpt lat="44.6738003" lon="8.9051301"><ele>260.5</ele><time>2026-04-03T08:56:41.835Z</time></trkpt><trkpt lat="44.6735522" lon="8.9051973"><ele>263.0</ele><time>2026-04-03T08:56:42.835Z</time></trkpt><trkpt lat="44.6733039" lon="8.9052686"><ele>263.0</ele><time>2026-04-03T08:56:43.835Z</time></trkpt><trkpt lat="44.6730548" lon="8.9053381"><ele>263.0</ele><time>2026-04-03T08:56:44.835Z</time></trkpt><trkpt lat="44.6728048" lon="8.9054082"><ele>263.0</ele><time>2026-04-03T08:56:45.835Z</time></trkpt><trkpt lat="44.6725556" lon="8.9054761"><ele>263.0</ele><time>2026-04-03T08:56:46.834Z</time></trkpt><trkpt lat="44.6723136" lon="8.9055437"><ele>263.0</ele><time>2026-04-03T08:56:47.835Z</time></trkpt><trkpt lat="44.6720557" lon="8.905618"><ele>263.0</ele><time>2026-04-03T08:56:48.834Z</time></trkpt><trkpt lat="44.6718077" lon="8.9056926"><ele>263.0</ele><time>2026-04-03T08:56:49.835Z</time></trkpt><trkpt lat="44.6715596" lon="8.9057741"><ele>263.0</ele><time>2026-04-03T08:56:50.834Z</time></trkpt><trkpt lat="44.6713127" lon="8.9058666"><ele>264.5</ele><time>2026-04-03T08:56:51.835Z</time></trkpt><trkpt lat="44.6710691" lon="8.9059721"><ele>266.0</ele><time>2026-04-03T08:56:52.835Z</time></trkpt><trkpt lat="44.670825" lon="8.9060836"><ele>266.0</ele><time>2026-04-03T08:56:53.834Z</time></trkpt><trkpt lat="44.6705827" lon="8.9062004"><ele>266.0</ele><time>2026-04-03T08:56:54.835Z</time></trkpt><trkpt lat="44.6703496" lon="8.9063209"><ele>265.0</ele><time>2026-04-03T08:56:55.834Z</time></trkpt><trkpt lat="44.6701023" lon="8.9064544"><ele>264.0</ele><time>2026-04-03T08:56:56.835Z</time></trkpt><trkpt lat="44.6698631" lon="8.9065859"><ele>264.0</ele><time>2026-04-03T08:56:57.834Z</time></trkpt><trkpt lat="44.6696253" lon="8.9067178"><ele>264.0</ele><time>2026-04-03T08:56:58.835Z</time></trkpt><trkpt lat="44.6693877" lon="8.9068514"><ele>265.0</ele><time>2026-04-03T08:56:59.835Z</time></trkpt><trkpt lat="44.6691499" lon="8.9069838"><ele>266.0</ele><time>2026-04-03T08:57:00.834Z</time></trkpt><trkpt lat="44.6689116" lon="8.9071176"><ele>266.0</ele><time>2026-04-03T08:57:01.835Z</time></trkpt><trkpt lat="44.6686741" lon="8.9072553"><ele>266.0</ele><time>2026-04-03T08:57:02.835Z</time></trkpt><trkpt lat="44.6684471" lon="8.9074028"><ele>266.0</ele><time>2026-04-03T08:57:03.835Z</time></trkpt><trkpt lat="44.6682135" lon="8.9075823"><ele>266.0</ele><time>2026-04-03T08:57:04.835Z</time></trkpt><trkpt lat="44.6679938" lon="8.9077743"><ele>266.0</ele><time>2026-04-03T08:57:05.834Z</time></trkpt><trkpt lat="44.6677775" lon="8.907975"><ele>266.0</ele><time>2026-04-03T08:57:06.834Z</time></trkpt><trkpt lat="44.6675632" lon="8.9081806"><ele>265.5</ele><time>2026-04-03T08:57:07.835Z</time></trkpt><trkpt lat="44.6673498" lon="8.9083875"><ele>265.0</ele><time>2026-04-03T08:57:08.835Z</time></trkpt><trkpt lat="44.6671366" lon="8.9085955"><ele>264.0</ele><time>2026-04-03T08:57:09.835Z</time></trkpt><trkpt lat="44.6669201" lon="8.908808"><ele>263.0</ele><time>2026-04-03T08:57:10.835Z</time></trkpt><trkpt lat="44.6667053" lon="8.9090194"><ele>264.0</ele><time>2026-04-03T08:57:11.835Z</time></trkpt><trkpt lat="44.6664714" lon="8.909247"><ele>265.0</ele><time>2026-04-03T08:57:12.835Z</time></trkpt><trkpt lat="44.666242" lon="8.9094627"><ele>263.0</ele><time>2026-04-03T08:57:13.835Z</time></trkpt><trkpt lat="44.6660147" lon="8.9096649"><ele>261.0</ele><time>2026-04-03T08:57:14.835Z</time></trkpt><trkpt lat="44.6657942" lon="8.9098574"><ele>261.0</ele><time>2026-04-03T08:57:15.835Z</time></trkpt><trkpt lat="44.6655852" lon="8.9100484"><ele>261.0</ele><time>2026-04-03T08:57:16.834Z</time></trkpt><trkpt lat="44.6653883" lon="8.9102374"><ele>262.5</ele><time>2026-04-03T08:57:17.835Z</time></trkpt><trkpt lat="44.6651973" lon="8.9104215"><ele>264.0</ele><time>2026-04-03T08:57:18.834Z</time></trkpt><trkpt lat="44.6650157" lon="8.910601"><ele>264.0</ele><time>2026-04-03T08:57:19.834Z</time></trkpt><trkpt lat="44.6648239" lon="8.9108098"><ele>264.0</ele><time>2026-04-03T08:57:20.835Z</time></trkpt><trkpt lat="44.664637" lon="8.9110236"><ele>263.0</ele><time>2026-04-03T08:57:21.835Z</time></trkpt><trkpt lat="44.66445" lon="8.9112575"><ele>262.0</ele><time>2026-04-03T08:57:22.835Z</time></trkpt><trkpt lat="44.6642681" lon="8.911513"><ele>266.0</ele><time>2026-04-03T08:57:23.835Z</time></trkpt><trkpt lat="44.6640901" lon="8.9117791"><ele>270.0</ele><time>2026-04-03T08:57:24.834Z</time></trkpt><trkpt lat="44.6639117" lon="8.9120476"><ele>270.0</ele><time>2026-04-03T08:57:25.835Z</time></trkpt><trkpt lat="44.663733" lon="8.9123152"><ele>270.0</ele><time>2026-04-03T08:57:26.835Z</time></trkpt><trkpt lat="44.663561" lon="8.9125766"><ele>275.0</ele><time>2026-04-03T08:57:27.834Z</time></trkpt><trkpt lat="44.6633771" lon="8.912858"><ele>280.0</ele><time>2026-04-03T08:57:28.834Z</time></trkpt><trkpt lat="44.6631974" lon="8.9131294"><ele>280.0</ele><time>2026-04-03T08:57:29.835Z</time></trkpt><trkpt lat="44.6630166" lon="8.9133985"><ele>280.0</ele><time>2026-04-03T08:57:30.835Z</time></trkpt><trkpt lat="44.6628362" lon="8.9136671"><ele>271.0</ele><time>2026-04-03T08:57:31.835Z</time></trkpt><trkpt lat="44.6626579" lon="8.9139344"><ele>262.0</ele><time>2026-04-03T08:57:32.835Z</time></trkpt><trkpt lat="44.6624813" lon="8.9142002"><ele>259.5</ele><time>2026-04-03T08:57:33.835Z</time></trkpt><trkpt lat="44.6623071" lon="8.9144615"><ele>257.0</ele><time>2026-04-03T08:57:34.834Z</time></trkpt><trkpt lat="44.6621406" lon="8.9147131"><ele>257.0</ele><time>2026-04-03T08:57:35.834Z</time></trkpt><trkpt lat="44.6619686" lon="8.9149754"><ele>257.0</ele><time>2026-04-03T08:57:36.835Z</time></trkpt><trkpt lat="44.6618137" lon="8.9152307"><ele>261.0</ele><time>2026-04-03T08:57:37.835Z</time></trkpt><trkpt lat="44.6616747" lon="8.9154922"><ele>265.0</ele><time>2026-04-03T08:57:38.835Z</time></trkpt><trkpt lat="44.6615549" lon="8.9157616"><ele>260.0</ele><time>2026-04-03T08:57:39.834Z</time></trkpt><trkpt lat="44.6614446" lon="8.9160379"><ele>255.0</ele><time>2026-04-03T08:57:40.835Z</time></trkpt><trkpt lat="44.6613367" lon="8.9163165"><ele>255.0</ele><time>2026-04-03T08:57:41.835Z</time></trkpt><trkpt lat="44.6612286" lon="8.9165935"><ele>255.0</ele><time>2026-04-03T08:57:42.834Z</time></trkpt><trkpt lat="44.6611253" lon="8.9168496"><ele>255.0</ele><time>2026-04-03T08:57:43.835Z</time></trkpt><trkpt lat="44.6610131" lon="8.9171037"><ele>254.66666666666669</ele><time>2026-04-03T08:57:44.835Z</time></trkpt><trkpt lat="44.6608931" lon="8.9173296"><ele>254.33333333333334</ele><time>2026-04-03T08:57:45.835Z</time></trkpt><trkpt lat="44.660748" lon="8.9175315"><ele>254.0</ele><time>2026-04-03T08:57:46.835Z</time></trkpt><trkpt lat="44.6605796" lon="8.9177029"><ele>254.0</ele><time>2026-04-03T08:57:47.834Z</time></trkpt><trkpt lat="44.6604002" lon="8.9178644"><ele>254.0</ele><time>2026-04-03T08:57:48.835Z</time></trkpt><trkpt lat="44.6602183" lon="8.91803"><ele>254.0</ele><time>2026-04-03T08:57:49.835Z</time></trkpt><trkpt lat="44.6600366" lon="8.9182006"><ele>257.0</ele><time>2026-04-03T08:57:50.834Z</time></trkpt><trkpt lat="44.6598655" lon="8.9183673"><ele>260.0</ele><time>2026-04-03T08:57:51.835Z</time></trkpt><trkpt lat="44.6596904" lon="8.9185419"><ele>263.0</ele><time>2026-04-03T08:57:52.835Z</time></trkpt><trkpt lat="44.6595255" lon="8.9187085"><ele>266.33333333333337</ele><time>2026-04-03T08:57:53.835Z</time></trkpt><trkpt lat="44.6593665" lon="8.9188715"><ele>269.6666666666667</ele><time>2026-04-03T08:57:54.835Z</time></trkpt><trkpt lat="44.659211" lon="8.9190253"><ele>273.0</ele><time>2026-04-03T08:57:55.835Z</time></trkpt><trkpt lat="44.6590621" lon="8.9191814"><ele>268.0</ele><time>2026-04-03T08:57:56.835Z</time></trkpt><trkpt lat="44.6589279" lon="8.9193646"><ele>263.0</ele><time>2026-04-03T08:57:57.834Z</time></trkpt><trkpt lat="44.6588137" lon="8.9195805"><ele>258.0</ele><time>2026-04-03T08:57:58.835Z</time></trkpt><trkpt lat="44.6587177" lon="8.9198109"><ele>258.0</ele><time>2026-04-03T08:57:59.834Z</time></trkpt><trkpt lat="44.6586221" lon="8.9200622"><ele>258.0</ele><time>2026-04-03T08:58:00.835Z</time></trkpt><trkpt lat="44.6585348" lon="8.9203075"><ele>258.0</ele><time>2026-04-03T08:58:01.835Z</time></trkpt><trkpt lat="44.6584581" lon="8.9205618"><ele>260.3333333333333</ele><time>2026-04-03T08:58:02.835Z</time></trkpt><trkpt lat="44.6583954" lon="8.9208274"><ele>262.66666666666663</ele><time>2026-04-03T08:58:03.835Z</time></trkpt><trkpt lat="44.6583432" lon="8.9211006"><ele>265.0</ele><time>2026-04-03T08:58:04.834Z</time></trkpt><trkpt lat="44.6583024" lon="8.9213768"><ele>265.66666666666663</ele><time>2026-04-03T08:58:05.835Z</time></trkpt><trkpt lat="44.6582753" lon="8.921656"><ele>266.3333333333333</ele><time>2026-04-03T08:58:06.835Z</time></trkpt><trkpt lat="44.6582617" lon="8.9219284"><ele>267.0</ele><time>2026-04-03T08:58:07.834Z</time></trkpt><trkpt lat="44.658261" lon="8.9222181"><ele>268.3333333333333</ele><time>2026-04-03T08:58:08.834Z</time></trkpt><trkpt lat="44.6582672" lon="8.9224985"><ele>269.66666666666663</ele><time>2026-04-03T08:58:09.835Z</time></trkpt><trkpt lat="44.658275" lon="8.9227799"><ele>271.0</ele><time>2026-04-03T08:58:10.835Z</time></trkpt><trkpt lat="44.6582816" lon="8.9230546"><ele>271.0</ele><time>2026-04-03T08:58:11.834Z</time></trkpt><trkpt lat="44.6582895" lon="8.9233164"><ele>271.0</ele><time>2026-04-03T08:58:12.835Z</time></trkpt><trkpt lat="44.658299" lon="8.9235722"><ele>271.0</ele><time>2026-04-03T08:58:13.835Z</time></trkpt><trkpt lat="44.6583094" lon="8.9238247"><ele>271.3333333333333</ele><time>2026-04-03T08:58:14.835Z</time></trkpt><trkpt lat="44.6583175" lon="8.9240678"><ele>271.6666666666667</ele><time>2026-04-03T08:58:15.835Z</time></trkpt><trkpt lat="44.6583253" lon="8.9243268"><ele>272.0</ele><time>2026-04-03T08:58:16.835Z</time></trkpt><trkpt lat="44.6583332" lon="8.9245745"><ele>272.0</ele><time>2026-04-03T08:58:17.834Z</time></trkpt><trkpt lat="44.6583414" lon="8.9248157"><ele>272.0</ele><time>2026-04-03T08:58:18.835Z</time></trkpt><trkpt lat="44.6583598" lon="8.9250487"><ele>272.0</ele><time>2026-04-03T08:58:19.835Z</time></trkpt><trkpt lat="44.6584003" lon="8.925276"><ele>274.33333333333337</ele><time>2026-04-03T08:58:20.834Z</time></trkpt><trkpt lat="44.6584641" lon="8.9254872"><ele>276.6666666666667</ele><time>2026-04-03T08:58:21.835Z</time></trkpt><trkpt lat="44.658553" lon="8.9256703"><ele>279.0</ele><time>2026-04-03T08:58:22.834Z</time></trkpt><trkpt lat="44.6586618" lon="8.9258255"><ele>272.6666666666667</ele><time>2026-04-03T08:58:23.834Z</time></trkpt><trkpt lat="44.6587962" lon="8.9259733"><ele>266.33333333333337</ele><time>2026-04-03T08:58:24.834Z</time></trkpt><trkpt lat="44.6589438" lon="8.9261156"><ele>260.0</ele><time>2026-04-03T08:58:25.834Z</time></trkpt><trkpt lat="44.6590975" lon="8.9262614"><ele>260.0</ele><time>2026-04-03T08:58:26.834Z</time></trkpt><trkpt lat="44.6592559" lon="8.9264114"><ele>260.0</ele><time>2026-04-03T08:58:27.835Z</time></trkpt><trkpt lat="44.6594194" lon="8.9265644"><ele>260.0</ele><time>2026-04-03T08:58:28.835Z</time></trkpt><trkpt lat="44.6595873" lon="8.92672"><ele>262.0</ele><time>2026-04-03T08:58:29.834Z</time></trkpt><trkpt lat="44.6597588" lon="8.926877"><ele>264.0</ele><time>2026-04-03T08:58:30.834Z</time></trkpt><trkpt lat="44.6599226" lon="8.9270292"><ele>266.0</ele><time>2026-04-03T08:58:31.834Z</time></trkpt><trkpt lat="44.6600897" lon="8.927185"><ele>266.0</ele><time>2026-04-03T08:58:32.835Z</time></trkpt><trkpt lat="44.6602414" lon="8.9273263"><ele>266.0</ele><time>2026-04-03T08:58:33.835Z</time></trkpt><trkpt lat="44.6603859" lon="8.9274582"><ele>266.0</ele><time>2026-04-03T08:58:34.834Z</time></trkpt><trkpt lat="44.6605252" lon="8.9275821"><ele>266.0</ele><time>2026-04-03T08:58:35.835Z</time></trkpt><trkpt lat="44.6606635" lon="8.9276978"><ele>266.0</ele><time>2026-04-03T08:58:36.835Z</time></trkpt><trkpt lat="44.6608082" lon="8.9277985"><ele>266.0</ele><time>2026-04-03T08:58:37.835Z</time></trkpt><trkpt lat="44.6609643" lon="8.9278721"><ele>264.6666666666667</ele><time>2026-04-03T08:58:38.834Z</time></trkpt><trkpt lat="44.6611274" lon="8.9279185"><ele>263.3333333333333</ele><time>2026-04-03T08:58:39.834Z</time></trkpt><trkpt lat="44.6613108" lon="8.9279434"><ele>262.0</ele><time>2026-04-03T08:58:40.835Z</time></trkpt><trkpt lat="44.6615018" lon="8.9279556"><ele>262.0</ele><time>2026-04-03T08:58:41.835Z</time></trkpt><trkpt lat="44.6617006" lon="8.9279639"><ele>262.0</ele><time>2026-04-03T08:58:42.835Z</time></trkpt><trkpt lat="44.66191" lon="8.9279717"><ele>262.0</ele><time>2026-04-03T08:58:43.835Z</time></trkpt><trkpt lat="44.6621247" lon="8.9279779"><ele>261.0</ele><time>2026-04-03T08:58:44.835Z</time></trkpt><trkpt lat="44.662343" lon="8.9279839"><ele>260.0</ele><time>2026-04-03T08:58:45.835Z</time></trkpt><trkpt lat="44.662556" lon="8.9279901"><ele>259.0</ele><time>2026-04-03T08:58:46.835Z</time></trkpt><trkpt lat="44.6627767" lon="8.9279985"><ele>266.0</ele><time>2026-04-03T08:58:47.835Z</time></trkpt><trkpt lat="44.6630095" lon="8.9280102"><ele>273.0</ele><time>2026-04-03T08:58:48.835Z</time></trkpt><trkpt lat="44.6632362" lon="8.928033"><ele>273.0</ele><time>2026-04-03T08:58:49.835Z</time></trkpt><trkpt lat="44.6634587" lon="8.9280756"><ele>273.0</ele><time>2026-04-03T08:58:50.834Z</time></trkpt><trkpt lat="44.6636888" lon="8.9281457"><ele>280.5</ele><time>2026-04-03T08:58:51.835Z</time></trkpt><trkpt lat="44.6639074" lon="8.9282421"><ele>288.0</ele><time>2026-04-03T08:58:52.835Z</time></trkpt><trkpt lat="44.6641187" lon="8.9283655"><ele>282.5</ele><time>2026-04-03T08:58:53.835Z</time></trkpt><trkpt lat="44.6643166" lon="8.9285105"><ele>277.0</ele><time>2026-04-03T08:58:54.835Z</time></trkpt><trkpt lat="44.6645088" lon="8.9286803"><ele>277.0</ele><time>2026-04-03T08:58:55.835Z</time></trkpt><trkpt lat="44.6646978" lon="8.9288745"><ele>277.0</ele><time>2026-04-03T08:58:56.835Z</time></trkpt><trkpt lat="44.6648716" lon="8.9290869"><ele>273.5</ele><time>2026-04-03T08:58:57.834Z</time></trkpt><trkpt lat="44.6650324" lon="8.9293202"><ele>270.0</ele><time>2026-04-03T08:58:58.834Z</time></trkpt><trkpt lat="44.66518" lon="8.9295806"><ele>277.5</ele><time>2026-04-03T08:58:59.835Z</time></trkpt><trkpt lat="44.6653112" lon="8.9298595"><ele>285.0</ele><time>2026-04-03T08:59:00.834Z</time></trkpt><trkpt lat="44.6654236" lon="8.9301544"><ele>286.0</ele><time>2026-04-03T08:59:01.835Z</time></trkpt><trkpt lat="44.6655234" lon="8.9304725"><ele>287.0</ele><time>2026-04-03T08:59:02.834Z</time></trkpt><trkpt lat="44.6656146" lon="8.9308012"><ele>287.5</ele><time>2026-04-03T08:59:03.835Z</time></trkpt><trkpt lat="44.6656988" lon="8.9311679"><ele>288.0</ele><time>2026-04-03T08:59:04.835Z</time></trkpt><trkpt lat="44.6657635" lon="8.9315176"><ele>288.5</ele><time>2026-04-03T08:59:05.835Z</time></trkpt><trkpt lat="44.665813" lon="8.9318681"><ele>289.0</ele><time>2026-04-03T08:59:06.835Z</time></trkpt><trkpt lat="44.6658465" lon="8.9322095"><ele>289.0</ele><time>2026-04-03T08:59:07.835Z</time></trkpt><trkpt lat="44.6658636" lon="8.9325375"><ele>289.0</ele><time>2026-04-03T08:59:08.835Z</time></trkpt><trkpt lat="44.6658662" lon="8.9328637"><ele>289.0</ele><time>2026-04-03T08:59:09.835Z</time></trkpt><trkpt lat="44.6658545" lon="8.9331768"><ele>289.0</ele><time>2026-04-03T08:59:10.834Z</time></trkpt><trkpt lat="44.6658368" lon="8.9334764"><ele>289.0</ele><time>2026-04-03T08:59:11.835Z</time></trkpt><trkpt lat="44.6658142" lon="8.9337945"><ele>289.0</ele><time>2026-04-03T08:59:12.835Z</time></trkpt><trkpt lat="44.6657914" lon="8.9341044"><ele>289.0</ele><time>2026-04-03T08:59:13.835Z</time></trkpt><trkpt lat="44.6657718" lon="8.9344032"><ele>289.0</ele><time>2026-04-03T08:59:14.835Z</time></trkpt><trkpt lat="44.6657551" lon="8.9347217"><ele>288.66666666666663</ele><time>2026-04-03T08:59:15.835Z</time></trkpt><trkpt lat="44.6657365" lon="8.9350351"><ele>288.3333333333333</ele><time>2026-04-03T08:59:16.835Z</time></trkpt><trkpt lat="44.6657091" lon="8.9353473"><ele>288.0</ele><time>2026-04-03T08:59:17.835Z</time></trkpt><trkpt lat="44.6656835" lon="8.9356525"><ele>285.5</ele><time>2026-04-03T08:59:18.835Z</time></trkpt><trkpt lat="44.6656637" lon="8.9359671"><ele>283.0</ele><time>2026-04-03T08:59:19.835Z</time></trkpt><trkpt lat="44.6656451" lon="8.9362886"><ele>283.0</ele><time>2026-04-03T08:59:20.834Z</time></trkpt><trkpt lat="44.6656234" lon="8.9366004"><ele>283.0</ele><time>2026-04-03T08:59:21.835Z</time></trkpt><trkpt lat="44.6655999" lon="8.9368985"><ele>283.0</ele><time>2026-04-03T08:59:22.835Z</time></trkpt><trkpt lat="44.6655755" lon="8.9371773"><ele>283.0</ele><time>2026-04-03T08:59:23.834Z</time></trkpt><trkpt lat="44.6655494" lon="8.9374318"><ele>283.0</ele><time>2026-04-03T08:59:24.834Z</time></trkpt><trkpt lat="44.6655207" lon="8.9376662"><ele>283.0</ele><time>2026-04-03T08:59:25.834Z</time></trkpt><trkpt lat="44.6654894" lon="8.937887"><ele>284.0</ele><time>2026-04-03T08:59:26.835Z</time></trkpt><trkpt lat="44.6654566" lon="8.9380778"><ele>285.0</ele><time>2026-04-03T08:59:27.835Z</time></trkpt><trkpt lat="44.6654214" lon="8.9382587"><ele>286.0</ele><time>2026-04-03T08:59:28.835Z</time></trkpt><trkpt lat="44.6653906" lon="8.9384199"><ele>287.0</ele><time>2026-04-03T08:59:29.835Z</time></trkpt><trkpt lat="44.6653614" lon="8.9385713"><ele>286.6</ele><time>2026-04-03T08:59:30.834Z</time></trkpt><trkpt lat="44.6653324" lon="8.9387156"><ele>286.2</ele><time>2026-04-03T08:59:31.835Z</time></trkpt><trkpt lat="44.6653031" lon="8.93885"><ele>285.8</ele><time>2026-04-03T08:59:32.835Z</time></trkpt><trkpt lat="44.6652719" lon="8.9389834"><ele>285.4</ele><time>2026-04-03T08:59:33.835Z</time></trkpt><trkpt lat="44.6652388" lon="8.9391219"><ele>285.0</ele><time>2026-04-03T08:59:34.835Z</time></trkpt><trkpt lat="44.6652017" lon="8.9392677"><ele>285.0</ele><time>2026-04-03T08:59:35.834Z</time></trkpt><trkpt lat="44.6651572" lon="8.939434"><ele>285.0</ele><time>2026-04-03T08:59:36.835Z</time></trkpt><trkpt lat="44.6651103" lon="8.9396058"><ele>285.0</ele><time>2026-04-03T08:59:37.835Z</time></trkpt><trkpt lat="44.6650623" lon="8.9397816"><ele>285.0</ele><time>2026-04-03T08:59:38.834Z</time></trkpt><trkpt lat="44.6650123" lon="8.9399685"><ele>285.6666666666667</ele><time>2026-04-03T08:59:39.834Z</time></trkpt><trkpt lat="44.6649619" lon="8.9401583"><ele>286.33333333333337</ele><time>2026-04-03T08:59:40.835Z</time></trkpt><trkpt lat="44.6649114" lon="8.9403569"><ele>287.0</ele><time>2026-04-03T08:59:41.835Z</time></trkpt><trkpt lat="44.6648601" lon="8.9405649"><ele>287.0</ele><time>2026-04-03T08:59:42.835Z</time></trkpt><trkpt lat="44.6648027" lon="8.9407771"><ele>287.0</ele><time>2026-04-03T08:59:43.835Z</time></trkpt><trkpt lat="44.6647333" lon="8.9410122"><ele>287.0</ele><time>2026-04-03T08:59:44.835Z</time></trkpt><trkpt lat="44.6646612" lon="8.9412575"><ele>288.33333333333337</ele><time>2026-04-03T08:59:45.834Z</time></trkpt><trkpt lat="44.6645922" lon="8.9414974"><ele>289.6666666666667</ele><time>2026-04-03T08:59:46.835Z</time></trkpt><trkpt lat="44.6645188" lon="8.9417598"><ele>291.0</ele><time>2026-04-03T08:59:47.835Z</time></trkpt><trkpt lat="44.6644485" lon="8.9420192"><ele>290.0</ele><time>2026-04-03T08:59:48.835Z</time></trkpt><trkpt lat="44.6643806" lon="8.9422761"><ele>289.0</ele><time>2026-04-03T08:59:49.834Z</time></trkpt><trkpt lat="44.6643175" lon="8.942528"><ele>288.0</ele><time>2026-04-03T08:59:50.835Z</time></trkpt><trkpt lat="44.664262" lon="8.9427839"><ele>288.0</ele><time>2026-04-03T08:59:51.835Z</time></trkpt><trkpt lat="44.6642153" lon="8.9430536"><ele>288.0</ele><time>2026-04-03T08:59:52.835Z</time></trkpt><trkpt lat="44.6641841" lon="8.9433183"><ele>288.0</ele><time>2026-04-03T08:59:53.834Z</time></trkpt><trkpt lat="44.6641662" lon="8.9435837"><ele>287.3333333333333</ele><time>2026-04-03T08:59:54.835Z</time></trkpt><trkpt lat="44.664159" lon="8.9438494"><ele>286.66666666666663</ele><time>2026-04-03T08:59:55.834Z</time></trkpt><trkpt lat="44.6641617" lon="8.9441077"><ele>286.0</ele><time>2026-04-03T08:59:56.834Z</time></trkpt><trkpt lat="44.6641772" lon="8.9443671"><ele>284.0</ele><time>2026-04-03T08:59:57.835Z</time></trkpt><trkpt lat="44.6642042" lon="8.9446191"><ele>282.0</ele><time>2026-04-03T08:59:58.835Z</time></trkpt><trkpt lat="44.6642414" lon="8.9448793"><ele>280.0</ele><time>2026-04-03T08:59:59.834Z</time></trkpt><trkpt lat="44.6642837" lon="8.9451551"><ele>278.0</ele><time>2026-04-03T09:00:00.834Z</time></trkpt><trkpt lat="44.6643249" lon="8.9454228"><ele>276.0</ele><time>2026-04-03T09:00:01.834Z</time></trkpt><trkpt lat="44.6643616" lon="8.9456817"><ele>274.0</ele><time>2026-04-03T09:00:02.835Z</time></trkpt><trkpt lat="44.6643995" lon="8.9459514"><ele>274.0</ele><time>2026-04-03T09:00:03.835Z</time></trkpt><trkpt lat="44.6644409" lon="8.9462099"><ele>274.0</ele><time>2026-04-03T09:00:04.834Z</time></trkpt><trkpt lat="44.6644732" lon="8.9464752"><ele>274.0</ele><time>2026-04-03T09:00:05.835Z</time></trkpt><trkpt lat="44.6644787" lon="8.9467384"><ele>274.0</ele><time>2026-04-03T09:00:06.834Z</time></trkpt><trkpt lat="44.6644655" lon="8.9470139"><ele>274.0</ele><time>2026-04-03T09:00:07.835Z</time></trkpt><trkpt lat="44.6644353" lon="8.9473002"><ele>274.0</ele><time>2026-04-03T09:00:08.835Z</time></trkpt><trkpt lat="44.6643883" lon="8.9475706"><ele>278.3333333333333</ele><time>2026-04-03T09:00:09.835Z</time></trkpt><trkpt lat="44.6643281" lon="8.9478143"><ele>282.6666666666667</ele><time>2026-04-03T09:00:10.835Z</time></trkpt><trkpt lat="44.6642493" lon="8.9480658"><ele>287.0</ele><time>2026-04-03T09:00:11.835Z</time></trkpt><trkpt lat="44.6641572" lon="8.9482948"><ele>291.33333333333337</ele><time>2026-04-03T09:00:12.835Z</time></trkpt><trkpt lat="44.6640555" lon="8.9485088"><ele>295.6666666666667</ele><time>2026-04-03T09:00:13.835Z</time></trkpt><trkpt lat="44.6639479" lon="8.9487079"><ele>300.0</ele><time>2026-04-03T09:00:14.834Z</time></trkpt><trkpt lat="44.6638354" lon="8.9489001"><ele>300.0</ele><time>2026-04-03T09:00:15.835Z</time></trkpt><trkpt lat="44.6637193" lon="8.949092"><ele>300.0</ele><time>2026-04-03T09:00:16.834Z</time></trkpt><trkpt lat="44.6636091" lon="8.9492741"><ele>300.0</ele><time>2026-04-03T09:00:17.835Z</time></trkpt><trkpt lat="44.6635036" lon="8.9494497"><ele>296.25</ele><time>2026-04-03T09:00:18.834Z</time></trkpt><trkpt lat="44.6634032" lon="8.9496166"><ele>292.5</ele><time>2026-04-03T09:00:19.835Z</time></trkpt><trkpt lat="44.6633145" lon="8.9497642"><ele>288.75</ele><time>2026-04-03T09:00:20.834Z</time></trkpt><trkpt lat="44.6632309" lon="8.9498975"><ele>285.0</ele><time>2026-04-03T09:00:21.834Z</time></trkpt><trkpt lat="44.6631504" lon="8.9500095"><ele>285.4</ele><time>2026-04-03T09:00:22.835Z</time></trkpt><trkpt lat="44.6630691" lon="8.9501125"><ele>285.8</ele><time>2026-04-03T09:00:23.834Z</time></trkpt><trkpt lat="44.6629819" lon="8.9502175"><ele>286.2</ele><time>2026-04-03T09:00:24.834Z</time></trkpt><trkpt lat="44.6628977" lon="8.9503147"><ele>286.6</ele><time>2026-04-03T09:00:25.835Z</time></trkpt><trkpt lat="44.6628185" lon="8.9503996"><ele>287.0</ele><time>2026-04-03T09:00:26.835Z</time></trkpt><trkpt lat="44.662729" lon="8.950485"><ele>287.0</ele><time>2026-04-03T09:00:27.835Z</time></trkpt><trkpt lat="44.662637" lon="8.9505666"><ele>287.0</ele><time>2026-04-03T09:00:28.835Z</time></trkpt><trkpt lat="44.662541" lon="8.9506431"><ele>287.0</ele><time>2026-04-03T09:00:29.834Z</time></trkpt><trkpt lat="44.6624523" lon="8.9507064"><ele>287.0</ele><time>2026-04-03T09:00:30.834Z</time></trkpt><trkpt lat="44.6623699" lon="8.9507592"><ele>287.0</ele><time>2026-04-03T09:00:31.835Z</time></trkpt><trkpt lat="44.6622886" lon="8.9508045"><ele>287.0</ele><time>2026-04-03T09:00:32.835Z</time></trkpt><trkpt lat="44.6622116" lon="8.9508424"><ele>287.0</ele><time>2026-04-03T09:00:33.835Z</time></trkpt><trkpt lat="44.6621318" lon="8.9508781"><ele>287.0</ele><time>2026-04-03T09:00:34.835Z</time></trkpt><trkpt lat="44.6620436" lon="8.9509131"><ele>287.0</ele><time>2026-04-03T09:00:35.835Z</time></trkpt><trkpt lat="44.661964" lon="8.9509402"><ele>287.0</ele><time>2026-04-03T09:00:36.835Z</time></trkpt><trkpt lat="44.6618988" lon="8.9509614"><ele>287.0</ele><time>2026-04-03T09:00:37.835Z</time></trkpt><trkpt lat="44.6617973" lon="8.9509862"><ele>288.4</ele><time>2026-04-03T09:00:39.835Z</time></trkpt><trkpt lat="44.6616835" lon="8.9510082"><ele>289.79999999999995</ele><time>2026-04-03T09:00:41.834Z</time></trkpt><trkpt lat="44.661575" lon="8.9510207"><ele>291.2</ele><time>2026-04-03T09:00:43.835Z</time></trkpt><trkpt lat="44.6614904" lon="8.9510242"><ele>292.59999999999997</ele><time>2026-04-03T09:00:45.835Z</time></trkpt><trkpt lat="44.6613883" lon="8.9510151"><ele>294.0</ele><time>2026-04-03T09:00:47.835Z</time></trkpt><trkpt lat="44.6613123" lon="8.9510099"><ele>294.0</ele><time>2026-04-03T09:00:48.835Z</time></trkpt><trkpt lat="44.6612403" lon="8.9510058"><ele>294.0</ele><time>2026-04-03T09:00:49.835Z</time></trkpt><trkpt lat="44.661169" lon="8.9509966"><ele>294.0</ele><time>2026-04-03T09:00:50.835Z</time></trkpt><trkpt lat="44.6610889" lon="8.9509739"><ele>294.0</ele><time>2026-04-03T09:00:51.835Z</time></trkpt><trkpt lat="44.6610029" lon="8.9509559"><ele>294.0</ele><time>2026-04-03T09:00:52.835Z</time></trkpt><trkpt lat="44.6609193" lon="8.9509315"><ele>294.0</ele><time>2026-04-03T09:00:53.834Z</time></trkpt><trkpt lat="44.6608337" lon="8.9508973"><ele>293.0</ele><time>2026-04-03T09:00:54.835Z</time></trkpt><trkpt lat="44.6607371" lon="8.9508581"><ele>292.0</ele><time>2026-04-03T09:00:55.834Z</time></trkpt><trkpt lat="44.6606408" lon="8.9508088"><ele>291.0</ele><time>2026-04-03T09:00:56.835Z</time></trkpt><trkpt lat="44.6605536" lon="8.9507615"><ele>290.0</ele><time>2026-04-03T09:00:57.834Z</time></trkpt><trkpt lat="44.6604639" lon="8.9507088"><ele>289.0</ele><time>2026-04-03T09:00:58.835Z</time></trkpt><trkpt lat="44.6603722" lon="8.950645"><ele>289.0</ele><time>2026-04-03T09:00:59.835Z</time></trkpt><trkpt lat="44.6602859" lon="8.950584"><ele>289.0</ele><time>2026-04-03T09:01:00.835Z</time></trkpt><trkpt lat="44.6602058" lon="8.9505281"><ele>289.0</ele><time>2026-04-03T09:01:01.834Z</time></trkpt><trkpt lat="44.6601219" lon="8.9504712"><ele>289.0</ele><time>2026-04-03T09:01:02.835Z</time></trkpt><trkpt lat="44.6600366" lon="8.9504123"><ele>289.0</ele><time>2026-04-03T09:01:03.834Z</time></trkpt><trkpt lat="44.6599479" lon="8.9503484"><ele>288.66666666666663</ele><time>2026-04-03T09:01:04.835Z</time></trkpt><trkpt lat="44.6598661" lon="8.9502883"><ele>288.3333333333333</ele><time>2026-04-03T09:01:05.835Z</time></trkpt><trkpt lat="44.6597876" lon="8.9502302"><ele>288.0</ele><time>2026-04-03T09:01:06.835Z</time></trkpt><trkpt lat="44.6597107" lon="8.9501743"><ele>287.6666666666667</ele><time>2026-04-03T09:01:07.835Z</time></trkpt><trkpt lat="44.6596323" lon="8.9501206"><ele>287.33333333333337</ele><time>2026-04-03T09:01:08.834Z</time></trkpt><trkpt lat="44.659551" lon="8.9500622"><ele>287.0</ele><time>2026-04-03T09:01:09.834Z</time></trkpt><trkpt lat="44.6594573" lon="8.9499985"><ele>287.75</ele><time>2026-04-03T09:01:10.834Z</time></trkpt><trkpt lat="44.6593576" lon="8.9499216"><ele>288.5</ele><time>2026-04-03T09:01:11.834Z</time></trkpt><trkpt lat="44.6592333" lon="8.9498369"><ele>289.25</ele><time>2026-04-03T09:01:12.835Z</time></trkpt><trkpt lat="44.6591106" lon="8.9497544"><ele>290.0</ele><time>2026-04-03T09:01:13.835Z</time></trkpt><trkpt lat="44.6589969" lon="8.9496688"><ele>290.0</ele><time>2026-04-03T09:01:14.835Z</time></trkpt><trkpt lat="44.6588858" lon="8.9495844"><ele>290.0</ele><time>2026-04-03T09:01:15.834Z</time></trkpt><trkpt lat="44.6587826" lon="8.9495188"><ele>290.0</ele><time>2026-04-03T09:01:16.834Z</time></trkpt><trkpt lat="44.6586858" lon="8.9494529"><ele>290.0</ele><time>2026-04-03T09:01:17.834Z</time></trkpt><trkpt lat="44.6585864" lon="8.9493836"><ele>290.4</ele><time>2026-04-03T09:01:18.835Z</time></trkpt><trkpt lat="44.6584882" lon="8.9493146"><ele>290.8</ele><time>2026-04-03T09:01:19.835Z</time></trkpt><trkpt lat="44.6583878" lon="8.9492434"><ele>291.2</ele><time>2026-04-03T09:01:20.834Z</time></trkpt><trkpt lat="44.6582952" lon="8.9491781"><ele>291.6</ele><time>2026-04-03T09:01:21.834Z</time></trkpt><trkpt lat="44.6582006" lon="8.9491117"><ele>292.0</ele><time>2026-04-03T09:01:22.835Z</time></trkpt><trkpt lat="44.6581119" lon="8.9490501"><ele>292.0</ele><time>2026-04-03T09:01:23.835Z</time></trkpt><trkpt lat="44.6580464" lon="8.9490035"><ele>292.0</ele><time>2026-04-03T09:01:24.835Z</time></trkpt><trkpt lat="44.6579609" lon="8.9489452"><ele>292.0</ele><time>2026-04-03T09:01:26.835Z</time></trkpt><trkpt lat="44.657828" lon="8.9488545"><ele>292.0</ele><time>2026-04-03T09:01:28.834Z</time></trkpt><trkpt lat="44.6577392" lon="8.9487934"><ele>292.0</ele><time>2026-04-03T09:01:29.834Z</time></trkpt><trkpt lat="44.6576391" lon="8.9487224"><ele>294.2</ele><time>2026-04-03T09:01:30.834Z</time></trkpt><trkpt lat="44.6575345" lon="8.9486456"><ele>296.4</ele><time>2026-04-03T09:01:31.835Z</time></trkpt><trkpt lat="44.6574347" lon="8.9485729"><ele>298.6</ele><time>2026-04-03T09:01:32.834Z</time></trkpt><trkpt lat="44.6573403" lon="8.9485058"><ele>300.8</ele><time>2026-04-03T09:01:33.835Z</time></trkpt><trkpt lat="44.6572458" lon="8.9484397"><ele>303.0</ele><time>2026-04-03T09:01:34.835Z</time></trkpt><trkpt lat="44.6571559" lon="8.9483773"><ele>302.8333333333333</ele><time>2026-04-03T09:01:35.835Z</time></trkpt><trkpt lat="44.6570692" lon="8.9483168"><ele>302.6666666666667</ele><time>2026-04-03T09:01:36.835Z</time></trkpt><trkpt lat="44.6569947" lon="8.9482634"><ele>302.5</ele><time>2026-04-03T09:01:37.835Z</time></trkpt><trkpt lat="44.656918" lon="8.948211"><ele>302.33333333333337</ele><time>2026-04-03T09:01:38.834Z</time></trkpt><trkpt lat="44.6568411" lon="8.9481581"><ele>302.1666666666667</ele><time>2026-04-03T09:01:39.835Z</time></trkpt><trkpt lat="44.6567707" lon="8.9481079"><ele>302.0</ele><time>2026-04-03T09:01:40.835Z</time></trkpt><trkpt lat="44.6567062" lon="8.9480578"><ele>302.0</ele><time>2026-04-03T09:01:41.835Z</time></trkpt><trkpt lat="44.6566402" lon="8.9480088"><ele>302.0</ele><time>2026-04-03T09:01:42.835Z</time></trkpt><trkpt lat="44.6565727" lon="8.9479588"><ele>302.0</ele><time>2026-04-03T09:01:43.835Z</time></trkpt><trkpt lat="44.6565016" lon="8.9479024"><ele>302.0</ele><time>2026-04-03T09:01:44.835Z</time></trkpt><trkpt lat="44.6564342" lon="8.9478539"><ele>302.0</ele><time>2026-04-03T09:01:45.834Z</time></trkpt><trkpt lat="44.656369" lon="8.9477978"><ele>302.0</ele><time>2026-04-03T09:01:46.835Z</time></trkpt><trkpt lat="44.6563011" lon="8.9477397"><ele>302.0</ele><time>2026-04-03T09:01:47.835Z</time></trkpt><trkpt lat="44.6562313" lon="8.9476807"><ele>302.0</ele><time>2026-04-03T09:01:48.835Z</time></trkpt><trkpt lat="44.6561566" lon="8.9476171"><ele>302.0</ele><time>2026-04-03T09:01:49.835Z</time></trkpt><trkpt lat="44.6560736" lon="8.9475477"><ele>302.0</ele><time>2026-04-03T09:01:50.835Z</time></trkpt><trkpt lat="44.6559878" lon="8.9474738"><ele>302.0</ele><time>2026-04-03T09:01:51.834Z</time></trkpt><trkpt lat="44.6558968" lon="8.9473955"><ele>302.0</ele><time>2026-04-03T09:01:52.835Z</time></trkpt><trkpt lat="44.6558111" lon="8.9473218"><ele>302.0</ele><time>2026-04-03T09:01:53.835Z</time></trkpt><trkpt lat="44.6557207" lon="8.947247"><ele>302.0</ele><time>2026-04-03T09:01:54.835Z</time></trkpt><trkpt lat="44.6556245" lon="8.947178"><ele>302.0</ele><time>2026-04-03T09:01:55.834Z</time></trkpt><trkpt lat="44.6555252" lon="8.9471246"><ele>302.0</ele><time>2026-04-03T09:01:56.835Z</time></trkpt><trkpt lat="44.6554237" lon="8.9470849"><ele>302.0</ele><time>2026-04-03T09:01:57.835Z</time></trkpt><trkpt lat="44.6553158" lon="8.9470559"><ele>302.0</ele><time>2026-04-03T09:01:58.835Z</time></trkpt><trkpt lat="44.6552108" lon="8.9470424"><ele>302.0</ele><time>2026-04-03T09:01:59.834Z</time></trkpt><trkpt lat="44.6551089" lon="8.9470464"><ele>302.0</ele><time>2026-04-03T09:02:00.835Z</time></trkpt><trkpt lat="44.6550181" lon="8.947062"><ele>302.0</ele><time>2026-04-03T09:02:01.835Z</time></trkpt><trkpt lat="44.6549284" lon="8.9470865"><ele>303.6</ele><time>2026-04-03T09:02:02.835Z</time></trkpt><trkpt lat="44.6548369" lon="8.9471205"><ele>305.2</ele><time>2026-04-03T09:02:03.835Z</time></trkpt><trkpt lat="44.6547466" lon="8.9471659"><ele>306.8</ele><time>2026-04-03T09:02:04.835Z</time></trkpt><trkpt lat="44.6546589" lon="8.9472198"><ele>308.4</ele><time>2026-04-03T09:02:05.835Z</time></trkpt><trkpt lat="44.6545683" lon="8.9472798"><ele>310.0</ele><time>2026-04-03T09:02:06.835Z</time></trkpt><trkpt lat="44.6544734" lon="8.9473445"><ele>314.0</ele><time>2026-04-03T09:02:07.835Z</time></trkpt><trkpt lat="44.6543707" lon="8.9474152"><ele>318.0</ele><time>2026-04-03T09:02:08.835Z</time></trkpt><trkpt lat="44.6542674" lon="8.9474858"><ele>322.0</ele><time>2026-04-03T09:02:09.834Z</time></trkpt><trkpt lat="44.654159" lon="8.9475611"><ele>326.0</ele><time>2026-04-03T09:02:10.834Z</time></trkpt><trkpt lat="44.6540426" lon="8.9476408"><ele>326.0</ele><time>2026-04-03T09:02:11.835Z</time></trkpt><trkpt lat="44.653928" lon="8.94772"><ele>326.0</ele><time>2026-04-03T09:02:12.835Z</time></trkpt><trkpt lat="44.653815" lon="8.9477976"><ele>326.0</ele><time>2026-04-03T09:02:13.835Z</time></trkpt><trkpt lat="44.6536964" lon="8.9478779"><ele>326.0</ele><time>2026-04-03T09:02:14.835Z</time></trkpt><trkpt lat="44.6535743" lon="8.9479592"><ele>320.0</ele><time>2026-04-03T09:02:15.835Z</time></trkpt><trkpt lat="44.6534454" lon="8.9480451"><ele>314.0</ele><time>2026-04-03T09:02:16.835Z</time></trkpt><trkpt lat="44.6533266" lon="8.9481268"><ele>308.0</ele><time>2026-04-03T09:02:17.834Z</time></trkpt><trkpt lat="44.6532053" lon="8.9482119"><ele>302.0</ele><time>2026-04-03T09:02:18.835Z</time></trkpt><trkpt lat="44.6530794" lon="8.948299"><ele>304.5</ele><time>2026-04-03T09:02:19.834Z</time></trkpt><trkpt lat="44.6529556" lon="8.9483837"><ele>307.0</ele><time>2026-04-03T09:02:20.835Z</time></trkpt><trkpt lat="44.6528345" lon="8.9484668"><ele>309.5</ele><time>2026-04-03T09:02:21.835Z</time></trkpt><trkpt lat="44.6527075" lon="8.9485546"><ele>312.0</ele><time>2026-04-03T09:02:22.835Z</time></trkpt><trkpt lat="44.6525786" lon="8.9486439"><ele>312.0</ele><time>2026-04-03T09:02:23.834Z</time></trkpt><trkpt lat="44.6524427" lon="8.948738"><ele>312.0</ele><time>2026-04-03T09:02:24.835Z</time></trkpt><trkpt lat="44.6523133" lon="8.9488276"><ele>312.0</ele><time>2026-04-03T09:02:25.835Z</time></trkpt><trkpt lat="44.6521873" lon="8.9489162"><ele>312.0</ele><time>2026-04-03T09:02:26.834Z</time></trkpt><trkpt lat="44.6520591" lon="8.9490087"><ele>312.6</ele><time>2026-04-03T09:02:27.834Z</time></trkpt><trkpt lat="44.6519419" lon="8.9490957"><ele>313.2</ele><time>2026-04-03T09:02:28.835Z</time></trkpt><trkpt lat="44.6518378" lon="8.9491817"><ele>313.8</ele><time>2026-04-03T09:02:29.835Z</time></trkpt><trkpt lat="44.6517551" lon="8.94926"><ele>314.4</ele><time>2026-04-03T09:02:30.835Z</time></trkpt><trkpt lat="44.6516979" lon="8.9493188"><ele>315.0</ele><time>2026-04-03T09:02:31.834Z</time></trkpt><trkpt lat="44.6516221" lon="8.9494043"><ele>315.0</ele><time>2026-04-03T09:02:33.835Z</time></trkpt><trkpt lat="44.6515482" lon="8.9494909"><ele>315.0</ele><time>2026-04-03T09:02:36.835Z</time></trkpt><trkpt lat="44.6514614" lon="8.9496102"><ele>315.0</ele><time>2026-04-03T09:02:38.834Z</time></trkpt><trkpt lat="44.6514095" lon="8.9496944"><ele>315.0</ele><time>2026-04-03T09:02:39.835Z</time></trkpt><trkpt lat="44.6513517" lon="8.9497985"><ele>315.0</ele><time>2026-04-03T09:02:40.835Z</time></trkpt><trkpt lat="44.6512957" lon="8.9499107"><ele>315.0</ele><time>2026-04-03T09:02:41.834Z</time></trkpt><trkpt lat="44.6512427" lon="8.9500369"><ele>315.0</ele><time>2026-04-03T09:02:42.835Z</time></trkpt><trkpt lat="44.6511936" lon="8.9501705"><ele>315.0</ele><time>2026-04-03T09:02:43.835Z</time></trkpt><trkpt lat="44.6511506" lon="8.9503032"><ele>315.0</ele><time>2026-04-03T09:02:44.835Z</time></trkpt><trkpt lat="44.651114" lon="8.9504332"><ele>315.0</ele><time>2026-04-03T09:02:45.835Z</time></trkpt><trkpt lat="44.6510818" lon="8.9505676"><ele>310.4</ele><time>2026-04-03T09:02:46.835Z</time></trkpt><trkpt lat="44.6510538" lon="8.9507033"><ele>305.8</ele><time>2026-04-03T09:02:47.835Z</time></trkpt><trkpt lat="44.6510315" lon="8.9508475"><ele>301.2</ele><time>2026-04-03T09:02:48.835Z</time></trkpt><trkpt lat="44.6510184" lon="8.9509864"><ele>296.6</ele><time>2026-04-03T09:02:49.834Z</time></trkpt><trkpt lat="44.651012" lon="8.9511322"><ele>292.0</ele><time>2026-04-03T09:02:50.835Z</time></trkpt><trkpt lat="44.6510113" lon="8.951284"><ele>292.0</ele><time>2026-04-03T09:02:51.835Z</time></trkpt><trkpt lat="44.6510112" lon="8.9514324"><ele>292.0</ele><time>2026-04-03T09:02:52.835Z</time></trkpt><trkpt lat="44.6510112" lon="8.9515771"><ele>292.0</ele><time>2026-04-03T09:02:53.835Z</time></trkpt><trkpt lat="44.6510102" lon="8.9517261"><ele>292.0</ele><time>2026-04-03T09:02:54.835Z</time></trkpt><trkpt lat="44.6510077" lon="8.9518751"><ele>292.0</ele><time>2026-04-03T09:02:55.834Z</time></trkpt><trkpt lat="44.6510066" lon="8.9520217"><ele>291.8</ele><time>2026-04-03T09:02:56.835Z</time></trkpt><trkpt lat="44.6510082" lon="8.9521528"><ele>291.6</ele><time>2026-04-03T09:02:57.835Z</time></trkpt><trkpt lat="44.651009" lon="8.9522853"><ele>291.40000000000003</ele><time>2026-04-03T09:02:58.835Z</time></trkpt><trkpt lat="44.6510093" lon="8.9524228"><ele>291.2</ele><time>2026-04-03T09:02:59.835Z</time></trkpt><trkpt lat="44.6510106" lon="8.9525531"><ele>291.0</ele><time>2026-04-03T09:03:00.835Z</time></trkpt><trkpt lat="44.6510116" lon="8.9526701"><ele>291.0</ele><time>2026-04-03T09:03:01.835Z</time></trkpt><trkpt lat="44.6510122" lon="8.9527795"><ele>291.0</ele><time>2026-04-03T09:03:02.835Z</time></trkpt><trkpt lat="44.6510133" lon="8.9528784"><ele>291.0</ele><time>2026-04-03T09:03:03.835Z</time></trkpt><trkpt lat="44.6510141" lon="8.9529692"><ele>291.0</ele><time>2026-04-03T09:03:04.834Z</time></trkpt><trkpt lat="44.6510179" lon="8.953128"><ele>291.0</ele><time>2026-04-03T09:03:06.834Z</time></trkpt><trkpt lat="44.6510157" lon="8.9533071"><ele>291.6</ele><time>2026-04-03T09:03:08.834Z</time></trkpt><trkpt lat="44.6510167" lon="8.9534004"><ele>292.20000000000005</ele><time>2026-04-03T09:03:09.835Z</time></trkpt><trkpt lat="44.6510181" lon="8.9535545"><ele>292.79999999999995</ele><time>2026-04-03T09:03:11.834Z</time></trkpt><trkpt lat="44.6510177" lon="8.9536675"><ele>293.4</ele><time>2026-04-03T09:03:13.834Z</time></trkpt><trkpt lat="44.6510182" lon="8.9537851"><ele>294.0</ele><time>2026-04-03T09:03:15.835Z</time></trkpt><trkpt lat="44.6510206" lon="8.9539616"><ele>294.0</ele><time>2026-04-03T09:03:17.835Z</time></trkpt><trkpt lat="44.6510211" lon="8.9540722"><ele>294.0</ele><time>2026-04-03T09:03:18.834Z</time></trkpt><trkpt lat="44.6510212" lon="8.9541916"><ele>294.0</ele><time>2026-04-03T09:03:19.835Z</time></trkpt><trkpt lat="44.6510215" lon="8.9543189"><ele>294.0</ele><time>2026-04-03T09:03:20.835Z</time></trkpt><trkpt lat="44.6510222" lon="8.9544382"><ele>294.0</ele><time>2026-04-03T09:03:21.835Z</time></trkpt><trkpt lat="44.6510217" lon="8.9545621"><ele>294.0</ele><time>2026-04-03T09:03:22.834Z</time></trkpt><trkpt lat="44.6510229" lon="8.9546882"><ele>293.4</ele><time>2026-04-03T09:03:23.834Z</time></trkpt><trkpt lat="44.6510248" lon="8.9548072"><ele>292.79999999999995</ele><time>2026-04-03T09:03:24.835Z</time></trkpt><trkpt lat="44.6510269" lon="8.9549101"><ele>292.20000000000005</ele><time>2026-04-03T09:03:25.835Z</time></trkpt><trkpt lat="44.6510297" lon="8.9550627"><ele>291.6</ele><time>2026-04-03T09:03:27.835Z</time></trkpt><trkpt lat="44.6510279" lon="8.9551795"><ele>291.0</ele><time>2026-04-03T09:03:29.835Z</time></trkpt><trkpt lat="44.6510261" lon="8.9553294"><ele>291.0</ele><time>2026-04-03T09:03:31.835Z</time></trkpt><trkpt lat="44.6510256" lon="8.9554247"><ele>291.0</ele><time>2026-04-03T09:03:32.835Z</time></trkpt><trkpt lat="44.6510263" lon="8.9555232"><ele>291.0</ele><time>2026-04-03T09:03:33.834Z</time></trkpt><trkpt lat="44.6510261" lon="8.9556279"><ele>291.0</ele><time>2026-04-03T09:03:34.835Z</time></trkpt><trkpt lat="44.6510264" lon="8.9557328"><ele>291.0</ele><time>2026-04-03T09:03:35.835Z</time></trkpt><trkpt lat="44.6510267" lon="8.9558385"><ele>291.0</ele><time>2026-04-03T09:03:36.835Z</time></trkpt><trkpt lat="44.6510267" lon="8.9559342"><ele>291.0</ele><time>2026-04-03T09:03:37.835Z</time></trkpt><trkpt lat="44.6510264" lon="8.9560273"><ele>291.0</ele><time>2026-04-03T09:03:38.835Z</time></trkpt><trkpt lat="44.6510277" lon="8.9561257"><ele>291.0</ele><time>2026-04-03T09:03:39.834Z</time></trkpt><trkpt lat="44.651029" lon="8.9562239"><ele>291.0</ele><time>2026-04-03T09:03:40.834Z</time></trkpt><trkpt lat="44.6510286" lon="8.9563234"><ele>291.0</ele><time>2026-04-03T09:03:41.835Z</time></trkpt><trkpt lat="44.6510261" lon="8.956428"><ele>291.0</ele><time>2026-04-03T09:03:42.835Z</time></trkpt><trkpt lat="44.6510201" lon="8.9565337"><ele>291.0</ele><time>2026-04-03T09:03:43.835Z</time></trkpt><trkpt lat="44.6510114" lon="8.9566453"><ele>291.0</ele><time>2026-04-03T09:03:44.835Z</time></trkpt><trkpt lat="44.6509976" lon="8.9567498"><ele>292.0</ele><time>2026-04-03T09:03:45.835Z</time></trkpt><trkpt lat="44.650975" lon="8.9568597"><ele>293.0</ele><time>2026-04-03T09:03:46.835Z</time></trkpt><trkpt lat="44.6509465" lon="8.9569725"><ele>294.0</ele><time>2026-04-03T09:03:47.835Z</time></trkpt><trkpt lat="44.6509148" lon="8.9570827"><ele>295.0</ele><time>2026-04-03T09:03:48.835Z</time></trkpt><trkpt lat="44.6508826" lon="8.9571874"><ele>296.0</ele><time>2026-04-03T09:03:49.835Z</time></trkpt><trkpt lat="44.6508461" lon="8.957294"><ele>297.0</ele><time>2026-04-03T09:03:50.835Z</time></trkpt><trkpt lat="44.6508082" lon="8.9573976"><ele>297.0</ele><time>2026-04-03T09:03:51.835Z</time></trkpt><trkpt lat="44.6507662" lon="8.9575001"><ele>297.0</ele><time>2026-04-03T09:03:52.835Z</time></trkpt><trkpt lat="44.6507247" lon="8.9575924"><ele>297.0</ele><time>2026-04-03T09:03:53.835Z</time></trkpt><trkpt lat="44.6506796" lon="8.9576839"><ele>297.0</ele><time>2026-04-03T09:03:54.835Z</time></trkpt><trkpt lat="44.6506321" lon="8.957773"><ele>297.0</ele><time>2026-04-03T09:03:55.834Z</time></trkpt><trkpt lat="44.6505808" lon="8.9578542"><ele>297.0</ele><time>2026-04-03T09:03:56.834Z</time></trkpt><trkpt lat="44.650526" lon="8.9579345"><ele>295.8333333333333</ele><time>2026-04-03T09:03:57.834Z</time></trkpt><trkpt lat="44.650465" lon="8.9580186"><ele>294.6666666666667</ele><time>2026-04-03T09:03:58.834Z</time></trkpt><trkpt lat="44.6504023" lon="8.9581034"><ele>293.5</ele><time>2026-04-03T09:03:59.835Z</time></trkpt><trkpt lat="44.6503368" lon="8.9581914"><ele>292.33333333333337</ele><time>2026-04-03T09:04:00.834Z</time></trkpt><trkpt lat="44.6502752" lon="8.958274"><ele>291.1666666666667</ele><time>2026-04-03T09:04:01.834Z</time></trkpt><trkpt lat="44.6502159" lon="8.9583518"><ele>290.0</ele><time>2026-04-03T09:04:02.834Z</time></trkpt><trkpt lat="44.6501598" lon="8.9584257"><ele>294.0</ele><time>2026-04-03T09:04:03.835Z</time></trkpt><trkpt lat="44.650107" lon="8.9584963"><ele>298.0</ele><time>2026-04-03T09:04:04.835Z</time></trkpt><trkpt lat="44.650057" lon="8.9585648"><ele>302.0</ele><time>2026-04-03T09:04:05.834Z</time></trkpt><trkpt lat="44.6499748" lon="8.958669"><ele>306.0</ele><time>2026-04-03T09:04:07.834Z</time></trkpt><trkpt lat="44.6498859" lon="8.9587599"><ele>310.0</ele><time>2026-04-03T09:04:09.834Z</time></trkpt><trkpt lat="44.6498223" lon="8.9588091"><ele>314.0</ele><time>2026-04-03T09:04:10.834Z</time></trkpt><trkpt lat="44.6497479" lon="8.9588585"><ele>314.0</ele><time>2026-04-03T09:04:11.835Z</time></trkpt><trkpt lat="44.6496741" lon="8.9588987"><ele>314.0</ele><time>2026-04-03T09:04:12.834Z</time></trkpt><trkpt lat="44.6496019" lon="8.9589279"><ele>314.0</ele><time>2026-04-03T09:04:13.835Z</time></trkpt><trkpt lat="44.6495218" lon="8.9589495"><ele>314.0</ele><time>2026-04-03T09:04:14.834Z</time></trkpt><trkpt lat="44.6494328" lon="8.9589667"><ele>314.0</ele><time>2026-04-03T09:04:15.835Z</time></trkpt><trkpt lat="44.6493316" lon="8.958983"><ele>314.0</ele><time>2026-04-03T09:04:16.835Z</time></trkpt><trkpt lat="44.6492319" lon="8.958997"><ele>313.4</ele><time>2026-04-03T09:04:17.835Z</time></trkpt><trkpt lat="44.6491287" lon="8.9590124"><ele>312.79999999999995</ele><time>2026-04-03T09:04:18.834Z</time></trkpt><trkpt lat="44.6490213" lon="8.9590275"><ele>312.20000000000005</ele><time>2026-04-03T09:04:19.834Z</time></trkpt><trkpt lat="44.6489175" lon="8.9590419"><ele>311.6</ele><time>2026-04-03T09:04:20.834Z</time></trkpt><trkpt lat="44.6488161" lon="8.9590562"><ele>311.0</ele><time>2026-04-03T09:04:21.834Z</time></trkpt><trkpt lat="44.6487154" lon="8.9590704"><ele>309.40000000000003</ele><time>2026-04-03T09:04:22.835Z</time></trkpt><trkpt lat="44.6486144" lon="8.9590838"><ele>307.8</ele><time>2026-04-03T09:04:23.834Z</time></trkpt><trkpt lat="44.6485102" lon="8.9590977"><ele>306.20000000000005</ele><time>2026-04-03T09:04:24.834Z</time></trkpt><trkpt lat="44.6484133" lon="8.9591108"><ele>304.6</ele><time>2026-04-03T09:04:25.835Z</time></trkpt><trkpt lat="44.6483118" lon="8.9591226"><ele>303.0</ele><time>2026-04-03T09:04:26.834Z</time></trkpt><trkpt lat="44.6482049" lon="8.9591349"><ele>303.0</ele><time>2026-04-03T09:04:27.834Z</time></trkpt><trkpt lat="44.6480979" lon="8.9591478"><ele>303.0</ele><time>2026-04-03T09:04:28.834Z</time></trkpt><trkpt lat="44.6479926" lon="8.9591608"><ele>303.0</ele><time>2026-04-03T09:04:29.835Z</time></trkpt><trkpt lat="44.6478827" lon="8.959174"><ele>303.0</ele><time>2026-04-03T09:04:30.835Z</time></trkpt><trkpt lat="44.6477733" lon="8.9591871"><ele>303.0</ele><time>2026-04-03T09:04:31.835Z</time></trkpt><trkpt lat="44.6476663" lon="8.9592016"><ele>305.0</ele><time>2026-04-03T09:04:32.835Z</time></trkpt><trkpt lat="44.6475669" lon="8.9592156"><ele>307.0</ele><time>2026-04-03T09:04:33.835Z</time></trkpt><trkpt lat="44.6474664" lon="8.9592307"><ele>309.0</ele><time>2026-04-03T09:04:34.835Z</time></trkpt><trkpt lat="44.6473634" lon="8.959247"><ele>311.0</ele><time>2026-04-03T09:04:35.834Z</time></trkpt><trkpt lat="44.6472638" lon="8.9592613"><ele>313.0</ele><time>2026-04-03T09:04:36.834Z</time></trkpt><trkpt lat="44.6471685" lon="8.9592739"><ele>313.0</ele><time>2026-04-03T09:04:37.835Z</time></trkpt><trkpt lat="44.6470693" lon="8.9592862"><ele>313.0</ele><time>2026-04-03T09:04:38.834Z</time></trkpt><trkpt lat="44.6469694" lon="8.9592986"><ele>313.0</ele><time>2026-04-03T09:04:39.834Z</time></trkpt><trkpt lat="44.6468668" lon="8.959313"><ele>313.0</ele><time>2026-04-03T09:04:40.835Z</time></trkpt><trkpt lat="44.646776" lon="8.9593262"><ele>313.0</ele><time>2026-04-03T09:04:41.835Z</time></trkpt><trkpt lat="44.6466905" lon="8.9593389"><ele>312.3333333333333</ele><time>2026-04-03T09:04:42.835Z</time></trkpt><trkpt lat="44.6466085" lon="8.9593495"><ele>311.66666666666663</ele><time>2026-04-03T09:04:43.835Z</time></trkpt><trkpt lat="44.64653" lon="8.9593607"><ele>311.0</ele><time>2026-04-03T09:04:44.835Z</time></trkpt><trkpt lat="44.6464463" lon="8.9593703"><ele>310.3333333333333</ele><time>2026-04-03T09:04:45.835Z</time></trkpt><trkpt lat="44.6463574" lon="8.9593757"><ele>309.6666666666667</ele><time>2026-04-03T09:04:46.835Z</time></trkpt><trkpt lat="44.6462709" lon="8.9593895"><ele>309.0</ele><time>2026-04-03T09:04:47.835Z</time></trkpt><trkpt lat="44.6461983" lon="8.9594013"><ele>309.0</ele><time>2026-04-03T09:04:48.835Z</time></trkpt><trkpt lat="44.6461292" lon="8.9594046"><ele>309.0</ele><time>2026-04-03T09:04:49.835Z</time></trkpt><trkpt lat="44.646053" lon="8.9594048"><ele>309.0</ele><time>2026-04-03T09:04:50.834Z</time></trkpt><trkpt lat="44.6459742" lon="8.9594041"><ele>309.0</ele><time>2026-04-03T09:04:51.834Z</time></trkpt><trkpt lat="44.6459102" lon="8.959402"><ele>309.0</ele><time>2026-04-03T09:04:52.834Z</time></trkpt><trkpt lat="44.6458039" lon="8.9593811"><ele>309.0</ele><time>2026-04-03T09:04:54.835Z</time></trkpt><trkpt lat="44.6457373" lon="8.9593677"><ele>307.8</ele><time>2026-04-03T09:04:55.835Z</time></trkpt><trkpt lat="44.6456565" lon="8.9593525"><ele>306.59999999999997</ele><time>2026-04-03T09:04:56.835Z</time></trkpt><trkpt lat="44.6455679" lon="8.9593285"><ele>305.4</ele><time>2026-04-03T09:04:57.835Z</time></trkpt><trkpt lat="44.6454735" lon="8.9592984"><ele>304.2</ele><time>2026-04-03T09:04:58.835Z</time></trkpt><trkpt lat="44.6453775" lon="8.9592671"><ele>303.0</ele><time>2026-04-03T09:04:59.835Z</time></trkpt><trkpt lat="44.6452805" lon="8.9592312"><ele>300.6</ele><time>2026-04-03T09:05:00.835Z</time></trkpt><trkpt lat="44.6451866" lon="8.9591973"><ele>298.20000000000005</ele><time>2026-04-03T09:05:01.834Z</time></trkpt><trkpt lat="44.6450914" lon="8.9591667"><ele>295.8</ele><time>2026-04-03T09:05:02.834Z</time></trkpt><trkpt lat="44.6450013" lon="8.9591377"><ele>293.40000000000003</ele><time>2026-04-03T09:05:03.835Z</time></trkpt><trkpt lat="44.6449145" lon="8.9591089"><ele>291.0</ele><time>2026-04-03T09:05:04.835Z</time></trkpt><trkpt lat="44.6448353" lon="8.9590828"><ele>291.0</ele><time>2026-04-03T09:05:05.835Z</time></trkpt><trkpt lat="44.6447688" lon="8.9590601"><ele>291.0</ele><time>2026-04-03T09:05:06.835Z</time></trkpt><trkpt lat="44.6446759" lon="8.9590289"><ele>291.0</ele><time>2026-04-03T09:05:08.835Z</time></trkpt><trkpt lat="44.6446059" lon="8.9590064"><ele>291.0</ele><time>2026-04-03T09:05:10.835Z</time></trkpt><trkpt lat="44.6445329" lon="8.95898"><ele>291.0</ele><time>2026-04-03T09:05:12.834Z</time></trkpt><trkpt lat="44.6444509" lon="8.9589527"><ele>291.0</ele><time>2026-04-03T09:05:15.834Z</time></trkpt><trkpt lat="44.6443721" lon="8.9589175"><ele>291.8</ele><time>2026-04-03T09:05:18.834Z</time></trkpt><trkpt lat="44.6442746" lon="8.958877"><ele>292.6</ele><time>2026-04-03T09:05:20.835Z</time></trkpt><trkpt lat="44.6441458" lon="8.9588242"><ele>293.4</ele><time>2026-04-03T09:05:22.835Z</time></trkpt><trkpt lat="44.64406" lon="8.9587852"><ele>294.2</ele><time>2026-04-03T09:05:23.835Z</time></trkpt><trkpt lat="44.6439622" lon="8.9587359"><ele>295.0</ele><time>2026-04-03T09:05:24.835Z</time></trkpt><trkpt lat="44.6438645" lon="8.9586849"><ele>295.0</ele><time>2026-04-03T09:05:25.835Z</time></trkpt><trkpt lat="44.6437627" lon="8.9586308"><ele>295.0</ele><time>2026-04-03T09:05:26.835Z</time></trkpt><trkpt lat="44.6436637" lon="8.9585761"><ele>295.0</ele><time>2026-04-03T09:05:27.835Z</time></trkpt><trkpt lat="44.6435643" lon="8.9585239"><ele>295.0</ele><time>2026-04-03T09:05:28.835Z</time></trkpt><trkpt lat="44.6434752" lon="8.9584741"><ele>295.0</ele><time>2026-04-03T09:05:29.835Z</time></trkpt><trkpt lat="44.6433817" lon="8.9584159"><ele>298.6</ele><time>2026-04-03T09:05:30.834Z</time></trkpt><trkpt lat="44.6432836" lon="8.958352"><ele>302.2</ele><time>2026-04-03T09:05:31.835Z</time></trkpt><trkpt lat="44.643193" lon="8.958295"><ele>305.8</ele><time>2026-04-03T09:05:32.835Z</time></trkpt><trkpt lat="44.6431214" lon="8.9582487"><ele>309.4</ele><time>2026-04-03T09:05:33.834Z</time></trkpt><trkpt lat="44.6430613" lon="8.9582109"><ele>313.0</ele><time>2026-04-03T09:05:34.834Z</time></trkpt><trkpt lat="44.6429452" lon="8.9581301"><ele>313.0</ele><time>2026-04-03T09:05:36.834Z</time></trkpt><trkpt lat="44.6428773" lon="8.9580842"><ele>313.0</ele><time>2026-04-03T09:05:37.834Z</time></trkpt><trkpt lat="44.6428008" lon="8.9580349"><ele>313.0</ele><time>2026-04-03T09:05:38.835Z</time></trkpt><trkpt lat="44.64272" lon="8.9579839"><ele>313.0</ele><time>2026-04-03T09:05:39.835Z</time></trkpt><trkpt lat="44.642645" lon="8.9579371"><ele>313.0</ele><time>2026-04-03T09:05:40.835Z</time></trkpt><trkpt lat="44.6425752" lon="8.9578913"><ele>313.0</ele><time>2026-04-03T09:05:41.834Z</time></trkpt><trkpt lat="44.6425072" lon="8.957841"><ele>311.85714285714283</ele><time>2026-04-03T09:05:42.835Z</time></trkpt><trkpt lat="44.6424411" lon="8.9577883"><ele>310.7142857142857</ele><time>2026-04-03T09:05:43.835Z</time></trkpt><trkpt lat="44.6423754" lon="8.9577312"><ele>309.57142857142856</ele><time>2026-04-03T09:05:44.835Z</time></trkpt><trkpt lat="44.6423159" lon="8.9576724"><ele>308.42857142857144</ele><time>2026-04-03T09:05:45.834Z</time></trkpt><trkpt lat="44.6422581" lon="8.9576075"><ele>307.2857142857143</ele><time>2026-04-03T09:05:46.835Z</time></trkpt><trkpt lat="44.6422034" lon="8.95754"><ele>306.14285714285717</ele><time>2026-04-03T09:05:47.835Z</time></trkpt><trkpt lat="44.6421509" lon="8.9574704"><ele>305.0</ele><time>2026-04-03T09:05:48.835Z</time></trkpt><trkpt lat="44.6420729" lon="8.9573633"><ele>305.0</ele><time>2026-04-03T09:05:50.835Z</time></trkpt><trkpt lat="44.6420302" lon="8.9572974"><ele>305.0</ele><time>2026-04-03T09:05:56.835Z</time></trkpt><trkpt lat="44.6419542" lon="8.9571653"><ele>305.0</ele><time>2026-04-03T09:06:02.834Z</time></trkpt><trkpt lat="44.6418973" lon="8.9570733"><ele>305.0</ele><time>2026-04-03T09:06:03.835Z</time></trkpt><trkpt lat="44.6418389" lon="8.9569621"><ele>305.0</ele><time>2026-04-03T09:06:04.835Z</time></trkpt><trkpt lat="44.6417854" lon="8.9568698"><ele>305.2</ele><time>2026-04-03T09:06:05.835Z</time></trkpt><trkpt lat="44.6417107" lon="8.9567421"><ele>305.4</ele><time>2026-04-03T09:06:07.835Z</time></trkpt><trkpt lat="44.6416404" lon="8.9566004"><ele>305.6</ele><time>2026-04-03T09:06:09.835Z</time></trkpt><trkpt lat="44.6415972" lon="8.9565178"><ele>305.8</ele><time>2026-04-03T09:06:10.834Z</time></trkpt><trkpt lat="44.6415437" lon="8.9564244"><ele>306.0</ele><time>2026-04-03T09:06:11.834Z</time></trkpt><trkpt lat="44.6414851" lon="8.956324"><ele>306.0</ele><time>2026-04-03T09:06:12.835Z</time></trkpt><trkpt lat="44.641425" lon="8.9562235"><ele>306.0</ele><time>2026-04-03T09:06:13.834Z</time></trkpt><trkpt lat="44.6413621" lon="8.9561175"><ele>306.0</ele><time>2026-04-03T09:06:14.835Z</time></trkpt><trkpt lat="44.6412961" lon="8.9560075"><ele>306.0</ele><time>2026-04-03T09:06:15.835Z</time></trkpt><trkpt lat="44.6412244" lon="8.9558884"><ele>306.0</ele><time>2026-04-03T09:06:16.835Z</time></trkpt><trkpt lat="44.6411542" lon="8.9557704"><ele>305.25</ele><time>2026-04-03T09:06:17.835Z</time></trkpt><trkpt lat="44.641079" lon="8.9556411"><ele>304.5</ele><time>2026-04-03T09:06:18.835Z</time></trkpt><trkpt lat="44.6409986" lon="8.9555031"><ele>303.75</ele><time>2026-04-03T09:06:19.835Z</time></trkpt><trkpt lat="44.6409169" lon="8.9553662"><ele>303.0</ele><time>2026-04-03T09:06:20.834Z</time></trkpt><trkpt lat="44.6408368" lon="8.9552316"><ele>303.0</ele><time>2026-04-03T09:06:21.835Z</time></trkpt><trkpt lat="44.6407549" lon="8.9550962"><ele>303.0</ele><time>2026-04-03T09:06:22.835Z</time></trkpt><trkpt lat="44.6406734" lon="8.9549651"><ele>303.0</ele><time>2026-04-03T09:06:23.834Z</time></trkpt><trkpt lat="44.6405853" lon="8.9548295"><ele>303.0</ele><time>2026-04-03T09:06:24.834Z</time></trkpt><trkpt lat="44.640501" lon="8.954701"><ele>303.0</ele><time>2026-04-03T09:06:25.835Z</time></trkpt><trkpt lat="44.6404158" lon="8.9545633"><ele>303.0</ele><time>2026-04-03T09:06:26.835Z</time></trkpt><trkpt lat="44.6403317" lon="8.9544195"><ele>303.0</ele><time>2026-04-03T09:06:27.835Z</time></trkpt><trkpt lat="44.6402558" lon="8.9542877"><ele>303.0</ele><time>2026-04-03T09:06:28.835Z</time></trkpt><trkpt lat="44.6401878" lon="8.9541717"><ele>302.0</ele><time>2026-04-03T09:06:29.834Z</time></trkpt><trkpt lat="44.6401233" lon="8.9540626"><ele>301.0</ele><time>2026-04-03T09:06:30.834Z</time></trkpt><trkpt lat="44.6400637" lon="8.9539638"><ele>300.0</ele><time>2026-04-03T09:06:31.834Z</time></trkpt><trkpt lat="44.6399993" lon="8.9538631"><ele>299.0</ele><time>2026-04-03T09:06:32.834Z</time></trkpt><trkpt lat="44.639938" lon="8.9537612"><ele>298.0</ele><time>2026-04-03T09:06:33.834Z</time></trkpt><trkpt lat="44.6398745" lon="8.9536536"><ele>298.0</ele><time>2026-04-03T09:06:34.835Z</time></trkpt><trkpt lat="44.6398081" lon="8.9535421"><ele>298.0</ele><time>2026-04-03T09:06:35.834Z</time></trkpt><trkpt lat="44.6397432" lon="8.9534309"><ele>298.0</ele><time>2026-04-03T09:06:36.835Z</time></trkpt><trkpt lat="44.6396792" lon="8.9533213"><ele>298.0</ele><time>2026-04-03T09:06:37.835Z</time></trkpt><trkpt lat="44.6396108" lon="8.9532041"><ele>298.0</ele><time>2026-04-03T09:06:38.835Z</time></trkpt><trkpt lat="44.639541" lon="8.9530866"><ele>297.6</ele><time>2026-04-03T09:06:39.835Z</time></trkpt><trkpt lat="44.6394693" lon="8.952968"><ele>297.20000000000005</ele><time>2026-04-03T09:06:40.835Z</time></trkpt><trkpt lat="44.6394023" lon="8.9528587"><ele>296.8</ele><time>2026-04-03T09:06:41.834Z</time></trkpt><trkpt lat="44.6393323" lon="8.9527452"><ele>296.40000000000003</ele><time>2026-04-03T09:06:42.834Z</time></trkpt><trkpt lat="44.6392584" lon="8.9526281"><ele>296.0</ele><time>2026-04-03T09:06:43.835Z</time></trkpt><trkpt lat="44.639184" lon="8.952517"><ele>297.40000000000003</ele><time>2026-04-03T09:06:44.835Z</time></trkpt><trkpt lat="44.6391122" lon="8.9524185"><ele>298.8</ele><time>2026-04-03T09:06:45.835Z</time></trkpt><trkpt lat="44.6390368" lon="8.9523213"><ele>300.20000000000005</ele><time>2026-04-03T09:06:46.835Z</time></trkpt><trkpt lat="44.6389574" lon="8.9522295"><ele>301.6</ele><time>2026-04-03T09:06:47.835Z</time></trkpt><trkpt lat="44.6388638" lon="8.9521395"><ele>303.0</ele><time>2026-04-03T09:06:48.835Z</time></trkpt><trkpt lat="44.6387654" lon="8.952054"><ele>303.0</ele><time>2026-04-03T09:06:49.835Z</time></trkpt><trkpt lat="44.6386557" lon="8.9519599"><ele>303.0</ele><time>2026-04-03T09:06:50.835Z</time></trkpt><trkpt lat="44.6385442" lon="8.9518691"><ele>303.0</ele><time>2026-04-03T09:06:51.834Z</time></trkpt><trkpt lat="44.6384324" lon="8.9517842"><ele>303.0</ele><time>2026-04-03T09:06:52.834Z</time></trkpt><trkpt lat="44.638332" lon="8.9517084"><ele>305.25</ele><time>2026-04-03T09:06:53.835Z</time></trkpt><trkpt lat="44.6382294" lon="8.951632"><ele>307.5</ele><time>2026-04-03T09:06:54.835Z</time></trkpt><trkpt lat="44.6381175" lon="8.9515565"><ele>309.75</ele><time>2026-04-03T09:06:55.835Z</time></trkpt><trkpt lat="44.637993" lon="8.9514744"><ele>312.0</ele><time>2026-04-03T09:06:56.835Z</time></trkpt><trkpt lat="44.6378649" lon="8.9513863"><ele>309.75</ele><time>2026-04-03T09:06:57.835Z</time></trkpt><trkpt lat="44.6377345" lon="8.9512935"><ele>307.5</ele><time>2026-04-03T09:06:58.834Z</time></trkpt><trkpt lat="44.6376056" lon="8.9512009"><ele>305.25</ele><time>2026-04-03T09:06:59.834Z</time></trkpt><trkpt lat="44.637493" lon="8.9511166"><ele>303.0</ele><time>2026-04-03T09:07:00.834Z</time></trkpt><trkpt lat="44.6373878" lon="8.951028"><ele>303.0</ele><time>2026-04-03T09:07:01.834Z</time></trkpt><trkpt lat="44.6372758" lon="8.9509325"><ele>303.0</ele><time>2026-04-03T09:07:02.834Z</time></trkpt><trkpt lat="44.6371524" lon="8.9508427"><ele>303.0</ele><time>2026-04-03T09:07:03.835Z</time></trkpt><trkpt lat="44.6370181" lon="8.9507513"><ele>303.0</ele><time>2026-04-03T09:07:04.835Z</time></trkpt><trkpt lat="44.6368921" lon="8.9506615"><ele>304.0</ele><time>2026-04-03T09:07:05.835Z</time></trkpt><trkpt lat="44.6367723" lon="8.9505707"><ele>305.0</ele><time>2026-04-03T09:07:06.835Z</time></trkpt><trkpt lat="44.6366522" lon="8.9504765"><ele>306.0</ele><time>2026-04-03T09:07:07.834Z</time></trkpt><trkpt lat="44.6365387" lon="8.9503893"><ele>307.0</ele><time>2026-04-03T09:07:08.835Z</time></trkpt><trkpt lat="44.636433" lon="8.9503094"><ele>307.0</ele><time>2026-04-03T09:07:09.835Z</time></trkpt><trkpt lat="44.636326" lon="8.9502302"><ele>307.0</ele><time>2026-04-03T09:07:10.835Z</time></trkpt><trkpt lat="44.6362209" lon="8.9501532"><ele>307.0</ele><time>2026-04-03T09:07:11.834Z</time></trkpt><trkpt lat="44.6361176" lon="8.9500804"><ele>307.0</ele><time>2026-04-03T09:07:12.835Z</time></trkpt><trkpt lat="44.6360232" lon="8.9500143"><ele>307.5</ele><time>2026-04-03T09:07:13.835Z</time></trkpt><trkpt lat="44.6359309" lon="8.9499482"><ele>308.0</ele><time>2026-04-03T09:07:14.834Z</time></trkpt><trkpt lat="44.6358466" lon="8.9498869"><ele>308.5</ele><time>2026-04-03T09:07:15.834Z</time></trkpt><trkpt lat="44.6357781" lon="8.9498349"><ele>309.0</ele><time>2026-04-03T09:07:16.834Z</time></trkpt><trkpt lat="44.6357129" lon="8.9497848"><ele>309.5</ele><time>2026-04-03T09:07:17.834Z</time></trkpt><trkpt lat="44.6356488" lon="8.9497338"><ele>310.0</ele><time>2026-04-03T09:07:18.835Z</time></trkpt><trkpt lat="44.6355862" lon="8.9496824"><ele>310.0</ele><time>2026-04-03T09:07:19.834Z</time></trkpt><trkpt lat="44.6355231" lon="8.9496295"><ele>310.0</ele><time>2026-04-03T09:07:20.835Z</time></trkpt><trkpt lat="44.6354664" lon="8.9495787"><ele>310.0</ele><time>2026-04-03T09:07:21.835Z</time></trkpt><trkpt lat="44.6354118" lon="8.9495273"><ele>310.0</ele><time>2026-04-03T09:07:22.835Z</time></trkpt><trkpt lat="44.6353564" lon="8.949473"><ele>310.0</ele><time>2026-04-03T09:07:23.834Z</time></trkpt><trkpt lat="44.635304" lon="8.949416"><ele>310.0</ele><time>2026-04-03T09:07:24.835Z</time></trkpt><trkpt lat="44.6352546" lon="8.949356"><ele>310.0</ele><time>2026-04-03T09:07:25.835Z</time></trkpt><trkpt lat="44.6352045" lon="8.9492904"><ele>309.42857142857144</ele><time>2026-04-03T09:07:26.835Z</time></trkpt><trkpt lat="44.6351556" lon="8.949225"><ele>308.85714285714283</ele><time>2026-04-03T09:07:27.835Z</time></trkpt><trkpt lat="44.6351061" lon="8.9491565"><ele>308.2857142857143</ele><time>2026-04-03T09:07:28.835Z</time></trkpt><trkpt lat="44.6350606" lon="8.9490894"><ele>307.7142857142857</ele><time>2026-04-03T09:07:29.834Z</time></trkpt><trkpt lat="44.6350148" lon="8.9490182"><ele>307.14285714285717</ele><time>2026-04-03T09:07:30.835Z</time></trkpt><trkpt lat="44.6349682" lon="8.9489464"><ele>306.57142857142856</ele><time>2026-04-03T09:07:31.835Z</time></trkpt><trkpt lat="44.6349265" lon="8.9488758"><ele>306.0</ele><time>2026-04-03T09:07:32.834Z</time></trkpt><trkpt lat="44.6348885" lon="8.9488039"><ele>306.0</ele><time>2026-04-03T09:07:33.835Z</time></trkpt><trkpt lat="44.6348499" lon="8.9487295"><ele>306.0</ele><time>2026-04-03T09:07:34.835Z</time></trkpt><trkpt lat="44.6348098" lon="8.9486468"><ele>306.0</ele><time>2026-04-03T09:07:35.835Z</time></trkpt><trkpt lat="44.6347683" lon="8.9485433"><ele>306.0</ele><time>2026-04-03T09:07:36.834Z</time></trkpt><trkpt lat="44.6347313" lon="8.9484499"><ele>306.0</ele><time>2026-04-03T09:07:37.834Z</time></trkpt><trkpt lat="44.6346965" lon="8.9483636"><ele>306.0</ele><time>2026-04-03T09:07:38.835Z</time></trkpt><trkpt lat="44.6346646" lon="8.9482848"><ele>306.0</ele><time>2026-04-03T09:07:39.835Z</time></trkpt><trkpt lat="44.6346146" lon="8.9481628"><ele>306.40000000000003</ele><time>2026-04-03T09:07:41.835Z</time></trkpt><trkpt lat="44.6345834" lon="8.9480798"><ele>306.8</ele><time>2026-04-03T09:07:45.835Z</time></trkpt><trkpt lat="44.634533" lon="8.9479583"><ele>307.20000000000005</ele><time>2026-04-03T09:07:49.835Z</time></trkpt><trkpt lat="44.6344659" lon="8.9477901"><ele>307.6</ele><time>2026-04-03T09:07:51.835Z</time></trkpt><trkpt lat="44.6344245" lon="8.9476837"><ele>308.0</ele><time>2026-04-03T09:07:52.834Z</time></trkpt><trkpt lat="44.6343836" lon="8.9475785"><ele>307.33333333333337</ele><time>2026-04-03T09:07:53.835Z</time></trkpt><trkpt lat="44.6343404" lon="8.9474698"><ele>306.6666666666667</ele><time>2026-04-03T09:07:54.835Z</time></trkpt><trkpt lat="44.634297" lon="8.9473585"><ele>306.0</ele><time>2026-04-03T09:07:55.835Z</time></trkpt><trkpt lat="44.6342546" lon="8.947254"><ele>305.3333333333333</ele><time>2026-04-03T09:07:56.834Z</time></trkpt><trkpt lat="44.6342122" lon="8.9471559"><ele>304.66666666666663</ele><time>2026-04-03T09:07:57.834Z</time></trkpt><trkpt lat="44.63417" lon="8.9470617"><ele>304.0</ele><time>2026-04-03T09:07:58.834Z</time></trkpt><trkpt lat="44.6341291" lon="8.9469752"><ele>304.0</ele><time>2026-04-03T09:07:59.835Z</time></trkpt><trkpt lat="44.6340884" lon="8.946894"><ele>304.0</ele><time>2026-04-03T09:08:00.834Z</time></trkpt><trkpt lat="44.6340138" lon="8.9467545"><ele>304.0</ele><time>2026-04-03T09:08:02.835Z</time></trkpt><trkpt lat="44.6339713" lon="8.9466761"><ele>304.0</ele><time>2026-04-03T09:08:03.834Z</time></trkpt><trkpt lat="44.6339238" lon="8.9465924"><ele>304.0</ele><time>2026-04-03T09:08:04.835Z</time></trkpt><trkpt lat="44.6338801" lon="8.946516"><ele>304.0</ele><time>2026-04-03T09:08:05.834Z</time></trkpt><trkpt lat="44.6338384" lon="8.9464447"><ele>303.8333333333333</ele><time>2026-04-03T09:08:06.835Z</time></trkpt><trkpt lat="44.6337965" lon="8.9463757"><ele>303.66666666666663</ele><time>2026-04-03T09:08:07.835Z</time></trkpt><trkpt lat="44.6337497" lon="8.946298"><ele>303.5</ele><time>2026-04-03T09:08:08.835Z</time></trkpt><trkpt lat="44.6337042" lon="8.9462076"><ele>303.3333333333333</ele><time>2026-04-03T09:08:09.834Z</time></trkpt><trkpt lat="44.6336437" lon="8.946098"><ele>303.1666666666667</ele><time>2026-04-03T09:08:10.834Z</time></trkpt><trkpt lat="44.6335722" lon="8.9459767"><ele>303.0</ele><time>2026-04-03T09:08:11.835Z</time></trkpt><trkpt lat="44.633494" lon="8.9458545"><ele>306.75</ele><time>2026-04-03T09:08:12.835Z</time></trkpt><trkpt lat="44.6334152" lon="8.9457294"><ele>310.5</ele><time>2026-04-03T09:08:13.835Z</time></trkpt><trkpt lat="44.6333315" lon="8.9455937"><ele>314.25</ele><time>2026-04-03T09:08:14.834Z</time></trkpt><trkpt lat="44.6332377" lon="8.9454488"><ele>318.0</ele><time>2026-04-03T09:08:15.835Z</time></trkpt><trkpt lat="44.6331428" lon="8.9452953"><ele>318.0</ele><time>2026-04-03T09:08:16.835Z</time></trkpt><trkpt lat="44.6330561" lon="8.9451504"><ele>318.0</ele><time>2026-04-03T09:08:17.834Z</time></trkpt><trkpt lat="44.6329704" lon="8.945005"><ele>318.0</ele><time>2026-04-03T09:08:18.835Z</time></trkpt><trkpt lat="44.6328839" lon="8.9448664"><ele>318.0</ele><time>2026-04-03T09:08:19.835Z</time></trkpt><trkpt lat="44.6328043" lon="8.944742"><ele>320.25</ele><time>2026-04-03T09:08:20.835Z</time></trkpt><trkpt lat="44.6327273" lon="8.9446212"><ele>322.5</ele><time>2026-04-03T09:08:21.834Z</time></trkpt><trkpt lat="44.6326519" lon="8.9445022"><ele>324.75</ele><time>2026-04-03T09:08:22.835Z</time></trkpt><trkpt lat="44.6325777" lon="8.9443866"><ele>327.0</ele><time>2026-04-03T09:08:23.834Z</time></trkpt><trkpt lat="44.6325036" lon="8.9442706"><ele>323.20000000000005</ele><time>2026-04-03T09:08:24.835Z</time></trkpt><trkpt lat="44.632437" lon="8.9441632"><ele>319.40000000000003</ele><time>2026-04-03T09:08:25.834Z</time></trkpt><trkpt lat="44.6323719" lon="8.9440581"><ele>315.6</ele><time>2026-04-03T09:08:26.834Z</time></trkpt><trkpt lat="44.6323067" lon="8.9439557"><ele>311.8</ele><time>2026-04-03T09:08:27.835Z</time></trkpt><trkpt lat="44.6322485" lon="8.9438657"><ele>308.0</ele><time>2026-04-03T09:08:28.835Z</time></trkpt><trkpt lat="44.632199" lon="8.9437919"><ele>308.0</ele><time>2026-04-03T09:08:29.835Z</time></trkpt><trkpt lat="44.6321505" lon="8.9437265"><ele>308.0</ele><time>2026-04-03T09:08:30.835Z</time></trkpt><trkpt lat="44.6321045" lon="8.9436656"><ele>308.0</ele><time>2026-04-03T09:08:31.834Z</time></trkpt><trkpt lat="44.6320226" lon="8.9435629"><ele>308.0</ele><time>2026-04-03T09:08:33.835Z</time></trkpt><trkpt lat="44.6319355" lon="8.943467"><ele>308.0</ele><time>2026-04-03T09:08:35.835Z</time></trkpt><trkpt lat="44.6318816" lon="8.9434167"><ele>308.0</ele><time>2026-04-03T09:08:36.835Z</time></trkpt><trkpt lat="44.6318235" lon="8.9433622"><ele>308.42857142857144</ele><time>2026-04-03T09:08:37.835Z</time></trkpt><trkpt lat="44.6317641" lon="8.9433063"><ele>308.8571428571429</ele><time>2026-04-03T09:08:38.835Z</time></trkpt><trkpt lat="44.6317036" lon="8.9432512"><ele>309.2857142857143</ele><time>2026-04-03T09:08:39.835Z</time></trkpt><trkpt lat="44.631639" lon="8.9431978"><ele>309.7142857142857</ele><time>2026-04-03T09:08:40.835Z</time></trkpt><trkpt lat="44.6315743" lon="8.9431523"><ele>310.14285714285717</ele><time>2026-04-03T09:08:41.835Z</time></trkpt><trkpt lat="44.6315047" lon="8.9431056"><ele>310.57142857142856</ele><time>2026-04-03T09:08:42.835Z</time></trkpt><trkpt lat="44.6314327" lon="8.9430599"><ele>311.0</ele><time>2026-04-03T09:08:43.835Z</time></trkpt><trkpt lat="44.6313613" lon="8.9430191"><ele>311.0</ele><time>2026-04-03T09:08:44.835Z</time></trkpt><trkpt lat="44.6312899" lon="8.9429828"><ele>311.0</ele><time>2026-04-03T09:08:45.835Z</time></trkpt><trkpt lat="44.6312166" lon="8.9429478"><ele>311.0</ele><time>2026-04-03T09:08:46.835Z</time></trkpt><trkpt lat="44.6311422" lon="8.9429171"><ele>311.0</ele><time>2026-04-03T09:08:47.835Z</time></trkpt><trkpt lat="44.6310646" lon="8.9428923"><ele>311.0</ele><time>2026-04-03T09:08:48.835Z</time></trkpt><trkpt lat="44.6309887" lon="8.9428717"><ele>311.0</ele><time>2026-04-03T09:08:49.835Z</time></trkpt><trkpt lat="44.6309079" lon="8.9428506"><ele>314.0</ele><time>2026-04-03T09:08:50.834Z</time></trkpt><trkpt lat="44.6308251" lon="8.9428303"><ele>317.0</ele><time>2026-04-03T09:08:51.835Z</time></trkpt><trkpt lat="44.6307418" lon="8.9428115"><ele>320.0</ele><time>2026-04-03T09:08:52.834Z</time></trkpt><trkpt lat="44.6306578" lon="8.942792"><ele>323.0</ele><time>2026-04-03T09:08:53.834Z</time></trkpt><trkpt lat="44.6305758" lon="8.9427746"><ele>326.0</ele><time>2026-04-03T09:08:54.835Z</time></trkpt><trkpt lat="44.6304934" lon="8.9427598"><ele>329.0</ele><time>2026-04-03T09:08:55.834Z</time></trkpt><trkpt lat="44.6304112" lon="8.9427454"><ele>329.0</ele><time>2026-04-03T09:08:56.835Z</time></trkpt><trkpt lat="44.6303303" lon="8.9427291"><ele>329.0</ele><time>2026-04-03T09:08:57.834Z</time></trkpt><trkpt lat="44.6302499" lon="8.9427128"><ele>329.0</ele><time>2026-04-03T09:08:58.835Z</time></trkpt><trkpt lat="44.6301683" lon="8.9426965"><ele>329.0</ele><time>2026-04-03T09:08:59.834Z</time></trkpt><trkpt lat="44.6300912" lon="8.942682"><ele>329.0</ele><time>2026-04-03T09:09:00.835Z</time></trkpt><trkpt lat="44.6300147" lon="8.9426714"><ele>329.0</ele><time>2026-04-03T09:09:01.835Z</time></trkpt><trkpt lat="44.6299412" lon="8.9426644"><ele>330.83333333333337</ele><time>2026-04-03T09:09:02.834Z</time></trkpt><trkpt lat="44.6298686" lon="8.9426595"><ele>332.6666666666667</ele><time>2026-04-03T09:09:03.835Z</time></trkpt><trkpt lat="44.6297938" lon="8.9426598"><ele>334.5</ele><time>2026-04-03T09:09:04.835Z</time></trkpt><trkpt lat="44.6297179" lon="8.9426667"><ele>336.3333333333333</ele><time>2026-04-03T09:09:05.834Z</time></trkpt><trkpt lat="44.6296405" lon="8.9426776"><ele>338.16666666666663</ele><time>2026-04-03T09:09:06.835Z</time></trkpt><trkpt lat="44.6295611" lon="8.9426891"><ele>340.0</ele><time>2026-04-03T09:09:07.834Z</time></trkpt><trkpt lat="44.629481" lon="8.9427039"><ele>338.8333333333333</ele><time>2026-04-03T09:09:08.834Z</time></trkpt><trkpt lat="44.6294006" lon="8.9427236"><ele>337.66666666666663</ele><time>2026-04-03T09:09:09.835Z</time></trkpt><trkpt lat="44.6293217" lon="8.9427487"><ele>336.5</ele><time>2026-04-03T09:09:10.835Z</time></trkpt><trkpt lat="44.6292439" lon="8.9427781"><ele>335.3333333333333</ele><time>2026-04-03T09:09:11.834Z</time></trkpt><trkpt lat="44.6291665" lon="8.9428097"><ele>334.1666666666667</ele><time>2026-04-03T09:09:12.835Z</time></trkpt><trkpt lat="44.6290922" lon="8.9428438"><ele>333.0</ele><time>2026-04-03T09:09:13.835Z</time></trkpt><trkpt lat="44.6290178" lon="8.9428826"><ele>333.0</ele><time>2026-04-03T09:09:14.834Z</time></trkpt><trkpt lat="44.628945" lon="8.9429256"><ele>333.0</ele><time>2026-04-03T09:09:15.834Z</time></trkpt><trkpt lat="44.6288775" lon="8.9429685"><ele>333.0</ele><time>2026-04-03T09:09:16.834Z</time></trkpt><trkpt lat="44.6288149" lon="8.9430097"><ele>333.0</ele><time>2026-04-03T09:09:17.835Z</time></trkpt><trkpt lat="44.628753" lon="8.9430535"><ele>333.0</ele><time>2026-04-03T09:09:18.835Z</time></trkpt><trkpt lat="44.6286924" lon="8.9430999"><ele>333.0</ele><time>2026-04-03T09:09:19.835Z</time></trkpt><trkpt lat="44.6286316" lon="8.94315"><ele>333.0</ele><time>2026-04-03T09:09:20.834Z</time></trkpt><trkpt lat="44.6285705" lon="8.9432022"><ele>334.1666666666667</ele><time>2026-04-03T09:09:21.835Z</time></trkpt><trkpt lat="44.6285093" lon="8.9432588"><ele>335.3333333333333</ele><time>2026-04-03T09:09:22.835Z</time></trkpt><trkpt lat="44.6284476" lon="8.9433183"><ele>336.5</ele><time>2026-04-03T09:09:23.835Z</time></trkpt><trkpt lat="44.6283874" lon="8.9433797"><ele>337.66666666666663</ele><time>2026-04-03T09:09:24.835Z</time></trkpt><trkpt lat="44.6283277" lon="8.943446"><ele>338.8333333333333</ele><time>2026-04-03T09:09:25.835Z</time></trkpt><trkpt lat="44.6282692" lon="8.9435139"><ele>340.0</ele><time>2026-04-03T09:09:26.835Z</time></trkpt><trkpt lat="44.6282113" lon="8.943587"><ele>340.0</ele><time>2026-04-03T09:09:27.835Z</time></trkpt><trkpt lat="44.6281546" lon="8.9436667"><ele>340.0</ele><time>2026-04-03T09:09:28.835Z</time></trkpt><trkpt lat="44.6281035" lon="8.943747"><ele>340.0</ele><time>2026-04-03T09:09:29.835Z</time></trkpt><trkpt lat="44.6280529" lon="8.943833"><ele>340.0</ele><time>2026-04-03T09:09:30.834Z</time></trkpt><trkpt lat="44.6280063" lon="8.943922"><ele>340.0</ele><time>2026-04-03T09:09:31.835Z</time></trkpt><trkpt lat="44.6279587" lon="8.9440146"><ele>340.0</ele><time>2026-04-03T09:09:32.834Z</time></trkpt><trkpt lat="44.6279151" lon="8.9441064"><ele>340.0</ele><time>2026-04-03T09:09:33.835Z</time></trkpt><trkpt lat="44.6278732" lon="8.9442031"><ele>340.0</ele><time>2026-04-03T09:09:34.834Z</time></trkpt><trkpt lat="44.6278323" lon="8.9443074"><ele>340.0</ele><time>2026-04-03T09:09:35.835Z</time></trkpt><trkpt lat="44.6277894" lon="8.9444208"><ele>340.0</ele><time>2026-04-03T09:09:36.834Z</time></trkpt><trkpt lat="44.6277446" lon="8.9445436"><ele>340.0</ele><time>2026-04-03T09:09:37.834Z</time></trkpt><trkpt lat="44.6276992" lon="8.9446781"><ele>339.2</ele><time>2026-04-03T09:09:38.835Z</time></trkpt><trkpt lat="44.6276519" lon="8.9448187"><ele>338.4</ele><time>2026-04-03T09:09:39.835Z</time></trkpt><trkpt lat="44.627607" lon="8.9449538"><ele>337.6</ele><time>2026-04-03T09:09:40.835Z</time></trkpt><trkpt lat="44.6275623" lon="8.9450904"><ele>336.8</ele><time>2026-04-03T09:09:41.834Z</time></trkpt><trkpt lat="44.6275193" lon="8.9452214"><ele>336.0</ele><time>2026-04-03T09:09:42.835Z</time></trkpt><trkpt lat="44.6274774" lon="8.9453512"><ele>336.0</ele><time>2026-04-03T09:09:43.835Z</time></trkpt><trkpt lat="44.6274365" lon="8.9454765"><ele>336.0</ele><time>2026-04-03T09:09:44.835Z</time></trkpt><trkpt lat="44.6273939" lon="8.9456004"><ele>336.0</ele><time>2026-04-03T09:09:45.834Z</time></trkpt><trkpt lat="44.6273485" lon="8.9457218"><ele>336.0</ele><time>2026-04-03T09:09:46.835Z</time></trkpt><trkpt lat="44.6273036" lon="8.9458329"><ele>336.0</ele><time>2026-04-03T09:09:47.835Z</time></trkpt><trkpt lat="44.6272569" lon="8.9459357"><ele>331.2</ele><time>2026-04-03T09:09:48.834Z</time></trkpt><trkpt lat="44.6272064" lon="8.9460385"><ele>326.40000000000003</ele><time>2026-04-03T09:09:49.835Z</time></trkpt><trkpt lat="44.6271503" lon="8.9461438"><ele>321.6</ele><time>2026-04-03T09:09:50.835Z</time></trkpt><trkpt lat="44.6270905" lon="8.9462533"><ele>316.8</ele><time>2026-04-03T09:09:51.834Z</time></trkpt><trkpt lat="44.627025" lon="8.9463707"><ele>312.0</ele><time>2026-04-03T09:09:52.835Z</time></trkpt><trkpt lat="44.6269576" lon="8.9464917"><ele>312.0</ele><time>2026-04-03T09:09:53.834Z</time></trkpt><trkpt lat="44.6268886" lon="8.9466145"><ele>312.0</ele><time>2026-04-03T09:09:54.835Z</time></trkpt><trkpt lat="44.6268191" lon="8.9467393"><ele>312.0</ele><time>2026-04-03T09:09:55.835Z</time></trkpt><trkpt lat="44.6267463" lon="8.9468683"><ele>312.0</ele><time>2026-04-03T09:09:56.835Z</time></trkpt><trkpt lat="44.6266721" lon="8.9470035"><ele>318.25</ele><time>2026-04-03T09:09:57.835Z</time></trkpt><trkpt lat="44.6265988" lon="8.9471414"><ele>324.5</ele><time>2026-04-03T09:09:58.834Z</time></trkpt><trkpt lat="44.6265271" lon="8.9472762"><ele>330.75</ele><time>2026-04-03T09:09:59.835Z</time></trkpt><trkpt lat="44.6264569" lon="8.9474045"><ele>337.0</ele><time>2026-04-03T09:10:00.835Z</time></trkpt><trkpt lat="44.6263879" lon="8.947527"><ele>334.20000000000005</ele><time>2026-04-03T09:10:01.834Z</time></trkpt><trkpt lat="44.6263187" lon="8.9476458"><ele>331.4</ele><time>2026-04-03T09:10:02.834Z</time></trkpt><trkpt lat="44.6262512" lon="8.9477606"><ele>328.6</ele><time>2026-04-03T09:10:03.835Z</time></trkpt><trkpt lat="44.6261885" lon="8.9478685"><ele>325.79999999999995</ele><time>2026-04-03T09:10:04.835Z</time></trkpt><trkpt lat="44.6261249" lon="8.9479705"><ele>323.0</ele><time>2026-04-03T09:10:05.835Z</time></trkpt><trkpt lat="44.6260558" lon="8.9480727"><ele>323.0</ele><time>2026-04-03T09:10:06.835Z</time></trkpt><trkpt lat="44.6259852" lon="8.9481906"><ele>323.0</ele><time>2026-04-03T09:10:07.834Z</time></trkpt><trkpt lat="44.6259041" lon="8.9483221"><ele>323.0</ele><time>2026-04-03T09:10:08.834Z</time></trkpt><trkpt lat="44.6258267" lon="8.9484481"><ele>323.0</ele><time>2026-04-03T09:10:09.835Z</time></trkpt><trkpt lat="44.6257565" lon="8.9485589"><ele>328.1666666666667</ele><time>2026-04-03T09:10:10.835Z</time></trkpt><trkpt lat="44.6256971" lon="8.9486495"><ele>333.33333333333337</ele><time>2026-04-03T09:10:11.835Z</time></trkpt><trkpt lat="44.6256448" lon="8.948725"><ele>338.5</ele><time>2026-04-03T09:10:12.835Z</time></trkpt><trkpt lat="44.6255611" lon="8.9488371"><ele>343.6666666666667</ele><time>2026-04-03T09:10:14.835Z</time></trkpt><trkpt lat="44.6255179" lon="8.9489023"><ele>348.8333333333333</ele><time>2026-04-03T09:10:16.834Z</time></trkpt><trkpt lat="44.6254768" lon="8.9489709"><ele>354.0</ele><time>2026-04-03T09:10:19.834Z</time></trkpt><trkpt lat="44.6254195" lon="8.9490553"><ele>354.0</ele><time>2026-04-03T09:10:23.834Z</time></trkpt><trkpt lat="44.6253408" lon="8.9491518"><ele>354.0</ele><time>2026-04-03T09:10:25.835Z</time></trkpt><trkpt lat="44.625272" lon="8.9492579"><ele>354.0</ele><time>2026-04-03T09:10:27.835Z</time></trkpt><trkpt lat="44.6252099" lon="8.9493504"><ele>354.0</ele><time>2026-04-03T09:10:29.835Z</time></trkpt><trkpt lat="44.6251425" lon="8.9494563"><ele>354.0</ele><time>2026-04-03T09:10:31.835Z</time></trkpt><trkpt lat="44.6250813" lon="8.9495556"><ele>356.0</ele><time>2026-04-03T09:10:33.834Z</time></trkpt><trkpt lat="44.6250153" lon="8.949687"><ele>358.0</ele><time>2026-04-03T09:10:35.835Z</time></trkpt><trkpt lat="44.6249676" lon="8.9497662"><ele>360.0</ele><time>2026-04-03T09:10:36.835Z</time></trkpt><trkpt lat="44.6249109" lon="8.9498454"><ele>362.0</ele><time>2026-04-03T09:10:37.835Z</time></trkpt><trkpt lat="44.6248436" lon="8.9499271"><ele>364.0</ele><time>2026-04-03T09:10:38.834Z</time></trkpt><trkpt lat="44.6247738" lon="8.9500079"><ele>366.0</ele><time>2026-04-03T09:10:39.834Z</time></trkpt><trkpt lat="44.624701" lon="8.9500902"><ele>366.0</ele><time>2026-04-03T09:10:40.835Z</time></trkpt><trkpt lat="44.624631" lon="8.9501687"><ele>366.0</ele><time>2026-04-03T09:10:41.835Z</time></trkpt><trkpt lat="44.6245566" lon="8.9502504"><ele>366.0</ele><time>2026-04-03T09:10:42.835Z</time></trkpt><trkpt lat="44.6244759" lon="8.9503388"><ele>366.0</ele><time>2026-04-03T09:10:43.835Z</time></trkpt><trkpt lat="44.6243957" lon="8.950426"><ele>366.0</ele><time>2026-04-03T09:10:44.835Z</time></trkpt><trkpt lat="44.6243181" lon="8.95051"><ele>364.8</ele><time>2026-04-03T09:10:45.835Z</time></trkpt><trkpt lat="44.6242376" lon="8.9505963"><ele>363.6</ele><time>2026-04-03T09:10:46.834Z</time></trkpt><trkpt lat="44.624154" lon="8.9506857"><ele>362.4</ele><time>2026-04-03T09:10:47.835Z</time></trkpt><trkpt lat="44.6240648" lon="8.9507798"><ele>361.2</ele><time>2026-04-03T09:10:48.835Z</time></trkpt><trkpt lat="44.6239789" lon="8.9508664"><ele>360.0</ele><time>2026-04-03T09:10:49.834Z</time></trkpt><trkpt lat="44.6238846" lon="8.9509534"><ele>360.0</ele><time>2026-04-03T09:10:50.834Z</time></trkpt><trkpt lat="44.6237812" lon="8.9510364"><ele>360.0</ele><time>2026-04-03T09:10:51.835Z</time></trkpt><trkpt lat="44.6236782" lon="8.9511094"><ele>360.0</ele><time>2026-04-03T09:10:52.835Z</time></trkpt><trkpt lat="44.6235764" lon="8.9511728"><ele>360.0</ele><time>2026-04-03T09:10:53.834Z</time></trkpt><trkpt lat="44.6234746" lon="8.9512293"><ele>354.8</ele><time>2026-04-03T09:10:54.834Z</time></trkpt><trkpt lat="44.6233739" lon="8.9512784"><ele>349.6</ele><time>2026-04-03T09:10:55.835Z</time></trkpt><trkpt lat="44.6232681" lon="8.9513221"><ele>344.4</ele><time>2026-04-03T09:10:56.834Z</time></trkpt><trkpt lat="44.6231645" lon="8.9513552"><ele>339.2</ele><time>2026-04-03T09:10:57.835Z</time></trkpt><trkpt lat="44.6230515" lon="8.9513809"><ele>334.0</ele><time>2026-04-03T09:10:58.835Z</time></trkpt><trkpt lat="44.6229301" lon="8.9513987"><ele>333.25</ele><time>2026-04-03T09:10:59.835Z</time></trkpt><trkpt lat="44.6228072" lon="8.9514076"><ele>332.5</ele><time>2026-04-03T09:11:00.835Z</time></trkpt><trkpt lat="44.6226854" lon="8.9514061"><ele>331.75</ele><time>2026-04-03T09:11:01.834Z</time></trkpt><trkpt lat="44.6225554" lon="8.9513934"><ele>331.0</ele><time>2026-04-03T09:11:02.835Z</time></trkpt><trkpt lat="44.622424" lon="8.9513703"><ele>331.0</ele><time>2026-04-03T09:11:03.835Z</time></trkpt><trkpt lat="44.622289" lon="8.9513357"><ele>331.0</ele><time>2026-04-03T09:11:04.835Z</time></trkpt><trkpt lat="44.6221676" lon="8.9512959"><ele>331.0</ele><time>2026-04-03T09:11:05.834Z</time></trkpt><trkpt lat="44.6220471" lon="8.9512461"><ele>331.0</ele><time>2026-04-03T09:11:06.835Z</time></trkpt><trkpt lat="44.621931" lon="8.9511873"><ele>336.5</ele><time>2026-04-03T09:11:07.834Z</time></trkpt><trkpt lat="44.6218235" lon="8.9511231"><ele>342.0</ele><time>2026-04-03T09:11:08.835Z</time></trkpt><trkpt lat="44.6217228" lon="8.951054"><ele>347.5</ele><time>2026-04-03T09:11:09.835Z</time></trkpt><trkpt lat="44.6216204" lon="8.9509728"><ele>353.0</ele><time>2026-04-03T09:11:10.835Z</time></trkpt><trkpt lat="44.6215205" lon="8.9508816"><ele>354.4</ele><time>2026-04-03T09:11:11.834Z</time></trkpt><trkpt lat="44.6214256" lon="8.9507797"><ele>355.79999999999995</ele><time>2026-04-03T09:11:12.835Z</time></trkpt><trkpt lat="44.6213459" lon="8.950683"><ele>357.2</ele><time>2026-04-03T09:11:13.834Z</time></trkpt><trkpt lat="44.6212742" lon="8.9505893"><ele>358.6</ele><time>2026-04-03T09:11:14.835Z</time></trkpt><trkpt lat="44.6212066" lon="8.9504984"><ele>360.0</ele><time>2026-04-03T09:11:15.835Z</time></trkpt><trkpt lat="44.621147" lon="8.9504142"><ele>360.0</ele><time>2026-04-03T09:11:16.835Z</time></trkpt><trkpt lat="44.6210894" lon="8.9503324"><ele>360.0</ele><time>2026-04-03T09:11:17.835Z</time></trkpt><trkpt lat="44.6210258" lon="8.9502416"><ele>360.0</ele><time>2026-04-03T09:11:18.835Z</time></trkpt><trkpt lat="44.6209582" lon="8.9501433"><ele>360.0</ele><time>2026-04-03T09:11:19.834Z</time></trkpt><trkpt lat="44.6208853" lon="8.9500355"><ele>360.0</ele><time>2026-04-03T09:11:20.834Z</time></trkpt><trkpt lat="44.6208143" lon="8.9499293"><ele>352.25</ele><time>2026-04-03T09:11:21.834Z</time></trkpt><trkpt lat="44.6207366" lon="8.9498138"><ele>344.5</ele><time>2026-04-03T09:11:22.835Z</time></trkpt><trkpt lat="44.6206518" lon="8.9496899"><ele>336.75</ele><time>2026-04-03T09:11:23.834Z</time></trkpt><trkpt lat="44.6205662" lon="8.9495631"><ele>329.0</ele><time>2026-04-03T09:11:24.835Z</time></trkpt><trkpt lat="44.6204803" lon="8.9494351"><ele>329.0</ele><time>2026-04-03T09:11:25.835Z</time></trkpt><trkpt lat="44.6203913" lon="8.949301"><ele>329.0</ele><time>2026-04-03T09:11:26.835Z</time></trkpt><trkpt lat="44.6203045" lon="8.9491619"><ele>329.0</ele><time>2026-04-03T09:11:27.835Z</time></trkpt><trkpt lat="44.6202233" lon="8.9490118"><ele>329.0</ele><time>2026-04-03T09:11:28.834Z</time></trkpt><trkpt lat="44.6201571" lon="8.9488692"><ele>330.0</ele><time>2026-04-03T09:11:29.834Z</time></trkpt><trkpt lat="44.6200963" lon="8.9487245"><ele>331.0</ele><time>2026-04-03T09:11:30.835Z</time></trkpt><trkpt lat="44.6200388" lon="8.9485777"><ele>332.0</ele><time>2026-04-03T09:11:31.834Z</time></trkpt><trkpt lat="44.6199846" lon="8.9484336"><ele>333.0</ele><time>2026-04-03T09:11:32.834Z</time></trkpt><trkpt lat="44.6199331" lon="8.9482956"><ele>333.0</ele><time>2026-04-03T09:11:33.835Z</time></trkpt><trkpt lat="44.6198805" lon="8.9481534"><ele>333.0</ele><time>2026-04-03T09:11:34.835Z</time></trkpt><trkpt lat="44.619828" lon="8.9480119"><ele>333.0</ele><time>2026-04-03T09:11:35.834Z</time></trkpt><trkpt lat="44.6197715" lon="8.947864"><ele>333.0</ele><time>2026-04-03T09:11:36.834Z</time></trkpt><trkpt lat="44.6197168" lon="8.9477247"><ele>333.0</ele><time>2026-04-03T09:11:37.835Z</time></trkpt><trkpt lat="44.6196604" lon="8.9475837"><ele>333.0</ele><time>2026-04-03T09:11:38.834Z</time></trkpt><trkpt lat="44.6196001" lon="8.9474445"><ele>333.0</ele><time>2026-04-03T09:11:39.835Z</time></trkpt><trkpt lat="44.6195368" lon="8.9473171"><ele>333.0</ele><time>2026-04-03T09:11:40.835Z</time></trkpt><trkpt lat="44.6194687" lon="8.9472054"><ele>333.0</ele><time>2026-04-03T09:11:41.834Z</time></trkpt><trkpt lat="44.6193895" lon="8.9471027"><ele>334.4</ele><time>2026-04-03T09:11:42.835Z</time></trkpt><trkpt lat="44.6193012" lon="8.9470144"><ele>335.79999999999995</ele><time>2026-04-03T09:11:43.835Z</time></trkpt><trkpt lat="44.6192015" lon="8.9469413"><ele>337.2</ele><time>2026-04-03T09:11:44.834Z</time></trkpt><trkpt lat="44.6191003" lon="8.9468892"><ele>338.6</ele><time>2026-04-03T09:11:45.834Z</time></trkpt><trkpt lat="44.6189887" lon="8.9468516"><ele>340.0</ele><time>2026-04-03T09:11:46.835Z</time></trkpt><trkpt lat="44.6188701" lon="8.9468359"><ele>340.0</ele><time>2026-04-03T09:11:47.835Z</time></trkpt><trkpt lat="44.6187471" lon="8.9468445"><ele>340.0</ele><time>2026-04-03T09:11:48.834Z</time></trkpt><trkpt lat="44.6186288" lon="8.9468745"><ele>340.0</ele><time>2026-04-03T09:11:49.834Z</time></trkpt><trkpt lat="44.6185044" lon="8.9469249"><ele>340.0</ele><time>2026-04-03T09:11:50.835Z</time></trkpt><trkpt lat="44.6183837" lon="8.9469921"><ele>338.75</ele><time>2026-04-03T09:11:51.835Z</time></trkpt><trkpt lat="44.6182624" lon="8.9470712"><ele>337.5</ele><time>2026-04-03T09:11:52.834Z</time></trkpt><trkpt lat="44.618144" lon="8.9471537"><ele>336.25</ele><time>2026-04-03T09:11:53.835Z</time></trkpt><trkpt lat="44.6180241" lon="8.9472391"><ele>335.0</ele><time>2026-04-03T09:11:54.835Z</time></trkpt><trkpt lat="44.6178996" lon="8.9473292"><ele>335.75</ele><time>2026-04-03T09:11:55.835Z</time></trkpt><trkpt lat="44.6177808" lon="8.9474162"><ele>336.5</ele><time>2026-04-03T09:11:56.835Z</time></trkpt><trkpt lat="44.6176612" lon="8.9475051"><ele>337.25</ele><time>2026-04-03T09:11:57.835Z</time></trkpt><trkpt lat="44.617546" lon="8.9475908"><ele>338.0</ele><time>2026-04-03T09:11:58.835Z</time></trkpt><trkpt lat="44.6174389" lon="8.9476703"><ele>338.0</ele><time>2026-04-03T09:11:59.834Z</time></trkpt><trkpt lat="44.6173354" lon="8.9477457"><ele>338.0</ele><time>2026-04-03T09:12:00.835Z</time></trkpt><trkpt lat="44.617245" lon="8.9478111"><ele>338.0</ele><time>2026-04-03T09:12:01.834Z</time></trkpt><trkpt lat="44.6171572" lon="8.947875"><ele>338.0</ele><time>2026-04-03T09:12:02.834Z</time></trkpt><trkpt lat="44.6170748" lon="8.9479352"><ele>338.0</ele><time>2026-04-03T09:12:03.835Z</time></trkpt><trkpt lat="44.6169946" lon="8.9479963"><ele>336.33333333333337</ele><time>2026-04-03T09:12:04.835Z</time></trkpt><trkpt lat="44.6169226" lon="8.9480519"><ele>334.6666666666667</ele><time>2026-04-03T09:12:05.835Z</time></trkpt><trkpt lat="44.616854" lon="8.9481051"><ele>333.0</ele><time>2026-04-03T09:12:06.835Z</time></trkpt><trkpt lat="44.6167885" lon="8.9481543"><ele>331.3333333333333</ele><time>2026-04-03T09:12:07.834Z</time></trkpt><trkpt lat="44.6167265" lon="8.9482003"><ele>329.66666666666663</ele><time>2026-04-03T09:12:08.834Z</time></trkpt><trkpt lat="44.6166697" lon="8.9482429"><ele>328.0</ele><time>2026-04-03T09:12:09.835Z</time></trkpt><trkpt lat="44.616565" lon="8.9483297"><ele>329.79999999999995</ele><time>2026-04-03T09:12:11.834Z</time></trkpt><trkpt lat="44.6164773" lon="8.9484132"><ele>331.6</ele><time>2026-04-03T09:12:13.835Z</time></trkpt><trkpt lat="44.6163986" lon="8.9484958"><ele>333.4</ele><time>2026-04-03T09:12:15.835Z</time></trkpt><trkpt lat="44.6163242" lon="8.9485808"><ele>335.20000000000005</ele><time>2026-04-03T09:12:17.835Z</time></trkpt><trkpt lat="44.6162564" lon="8.9486593"><ele>337.0</ele><time>2026-04-03T09:12:19.835Z</time></trkpt><trkpt lat="44.6161952" lon="8.9487312"><ele>335.8333333333333</ele><time>2026-04-03T09:12:21.835Z</time></trkpt><trkpt lat="44.616131" lon="8.9488178"><ele>334.66666666666663</ele><time>2026-04-03T09:12:23.835Z</time></trkpt><trkpt lat="44.6160699" lon="8.9489063"><ele>333.5</ele><time>2026-04-03T09:12:25.835Z</time></trkpt><trkpt lat="44.6160221" lon="8.9489783"><ele>332.3333333333333</ele><time>2026-04-03T09:12:27.835Z</time></trkpt><trkpt lat="44.6159774" lon="8.9490467"><ele>331.1666666666667</ele><time>2026-04-03T09:12:31.834Z</time></trkpt><trkpt lat="44.61593" lon="8.9491288"><ele>330.0</ele><time>2026-04-03T09:12:36.834Z</time></trkpt><trkpt lat="44.615873" lon="8.9492337"><ele>330.0</ele><time>2026-04-03T09:12:38.834Z</time></trkpt><trkpt lat="44.6158088" lon="8.9493724"><ele>330.0</ele><time>2026-04-03T09:12:40.835Z</time></trkpt><trkpt lat="44.6157545" lon="8.9495002"><ele>330.0</ele><time>2026-04-03T09:12:42.835Z</time></trkpt><trkpt lat="44.6157103" lon="8.9496103"><ele>330.0</ele><time>2026-04-03T09:12:44.834Z</time></trkpt><trkpt lat="44.6156647" lon="8.9497233"><ele>330.0</ele><time>2026-04-03T09:12:46.834Z</time></trkpt><trkpt lat="44.615607" lon="8.9498774"><ele>330.0</ele><time>2026-04-03T09:12:48.835Z</time></trkpt><trkpt lat="44.615576" lon="8.9499758"><ele>330.0</ele><time>2026-04-03T09:12:49.835Z</time></trkpt><trkpt lat="44.6155419" lon="8.950087"><ele>330.0</ele><time>2026-04-03T09:12:50.835Z</time></trkpt><trkpt lat="44.6155097" lon="8.9502007"><ele>330.0</ele><time>2026-04-03T09:12:51.835Z</time></trkpt><trkpt lat="44.61548" lon="8.9503137"><ele>330.0</ele><time>2026-04-03T09:12:52.835Z</time></trkpt><trkpt lat="44.6154485" lon="8.9504286"><ele>330.0</ele><time>2026-04-03T09:12:53.835Z</time></trkpt><trkpt lat="44.6154152" lon="8.9505511"><ele>329.4</ele><time>2026-04-03T09:12:54.834Z</time></trkpt><trkpt lat="44.6153808" lon="8.9506763"><ele>328.8</ele><time>2026-04-03T09:12:55.834Z</time></trkpt><trkpt lat="44.6153431" lon="8.9508123"><ele>328.20000000000005</ele><time>2026-04-03T09:12:56.835Z</time></trkpt><trkpt lat="44.6153098" lon="8.9509406"><ele>327.6</ele><time>2026-04-03T09:12:57.835Z</time></trkpt><trkpt lat="44.6152752" lon="8.951075"><ele>327.0</ele><time>2026-04-03T09:12:58.835Z</time></trkpt><trkpt lat="44.6152396" lon="8.9512149"><ele>327.0</ele><time>2026-04-03T09:12:59.834Z</time></trkpt><trkpt lat="44.6152039" lon="8.9513507"><ele>327.0</ele><time>2026-04-03T09:13:00.835Z</time></trkpt><trkpt lat="44.6151686" lon="8.9514834"><ele>327.0</ele><time>2026-04-03T09:13:01.834Z</time></trkpt><trkpt lat="44.6151332" lon="8.951617"><ele>327.0</ele><time>2026-04-03T09:13:02.834Z</time></trkpt><trkpt lat="44.6150996" lon="8.9517478"><ele>327.0</ele><time>2026-04-03T09:13:03.835Z</time></trkpt><trkpt lat="44.6150645" lon="8.9518817"><ele>328.6</ele><time>2026-04-03T09:13:04.835Z</time></trkpt><trkpt lat="44.6150298" lon="8.952009"><ele>330.20000000000005</ele><time>2026-04-03T09:13:05.835Z</time></trkpt><trkpt lat="44.6149914" lon="8.9521457"><ele>331.8</ele><time>2026-04-03T09:13:06.834Z</time></trkpt><trkpt lat="44.6149455" lon="8.9522988"><ele>333.4</ele><time>2026-04-03T09:13:07.835Z</time></trkpt><trkpt lat="44.6148981" lon="8.9524485"><ele>335.0</ele><time>2026-04-03T09:13:08.834Z</time></trkpt><trkpt lat="44.614846" lon="8.9525966"><ele>336.0</ele><time>2026-04-03T09:13:09.834Z</time></trkpt><trkpt lat="44.614788" lon="8.9527482"><ele>337.0</ele><time>2026-04-03T09:13:10.835Z</time></trkpt><trkpt lat="44.6147243" lon="8.9529032"><ele>338.0</ele><time>2026-04-03T09:13:11.835Z</time></trkpt><trkpt lat="44.6146562" lon="8.9530569"><ele>339.0</ele><time>2026-04-03T09:13:12.835Z</time></trkpt><trkpt lat="44.6145875" lon="8.9532011"><ele>339.0</ele><time>2026-04-03T09:13:13.835Z</time></trkpt><trkpt lat="44.6145144" lon="8.9533475"><ele>339.0</ele><time>2026-04-03T09:13:14.834Z</time></trkpt><trkpt lat="44.6144359" lon="8.9534888"><ele>339.0</ele><time>2026-04-03T09:13:15.834Z</time></trkpt><trkpt lat="44.614362" lon="8.9536175"><ele>339.0</ele><time>2026-04-03T09:13:16.835Z</time></trkpt><trkpt lat="44.6142935" lon="8.9537362"><ele>337.2</ele><time>2026-04-03T09:13:17.835Z</time></trkpt><trkpt lat="44.6142253" lon="8.9538546"><ele>335.4</ele><time>2026-04-03T09:13:18.835Z</time></trkpt><trkpt lat="44.614155" lon="8.9539739"><ele>333.6</ele><time>2026-04-03T09:13:19.834Z</time></trkpt><trkpt lat="44.6140792" lon="8.9540967"><ele>331.8</ele><time>2026-04-03T09:13:20.835Z</time></trkpt><trkpt lat="44.614001" lon="8.954212"><ele>330.0</ele><time>2026-04-03T09:13:21.834Z</time></trkpt><trkpt lat="44.6139136" lon="8.9543291"><ele>330.0</ele><time>2026-04-03T09:13:22.835Z</time></trkpt><trkpt lat="44.6138176" lon="8.9544454"><ele>330.0</ele><time>2026-04-03T09:13:23.834Z</time></trkpt><trkpt lat="44.6137211" lon="8.9545535"><ele>330.0</ele><time>2026-04-03T09:13:24.835Z</time></trkpt><trkpt lat="44.6136258" lon="8.9546558"><ele>330.0</ele><time>2026-04-03T09:13:25.835Z</time></trkpt><trkpt lat="44.613526" lon="8.9547615"><ele>329.0</ele><time>2026-04-03T09:13:26.835Z</time></trkpt><trkpt lat="44.6134257" lon="8.9548674"><ele>328.0</ele><time>2026-04-03T09:13:27.835Z</time></trkpt><trkpt lat="44.613322" lon="8.9549776"><ele>327.0</ele><time>2026-04-03T09:13:28.835Z</time></trkpt><trkpt lat="44.6132233" lon="8.9550815"><ele>326.0</ele><time>2026-04-03T09:13:29.835Z</time></trkpt><trkpt lat="44.6131199" lon="8.9551889"><ele>325.75</ele><time>2026-04-03T09:13:30.834Z</time></trkpt><trkpt lat="44.6130102" lon="8.955298"><ele>325.5</ele><time>2026-04-03T09:13:31.835Z</time></trkpt><trkpt lat="44.6129031" lon="8.9554015"><ele>325.25</ele><time>2026-04-03T09:13:32.835Z</time></trkpt><trkpt lat="44.6127941" lon="8.9555007"><ele>325.0</ele><time>2026-04-03T09:13:33.835Z</time></trkpt><trkpt lat="44.6126766" lon="8.955602"><ele>325.25</ele><time>2026-04-03T09:13:34.834Z</time></trkpt><trkpt lat="44.6125566" lon="8.955705"><ele>325.5</ele><time>2026-04-03T09:13:35.834Z</time></trkpt><trkpt lat="44.6124305" lon="8.9558098"><ele>325.75</ele><time>2026-04-03T09:13:36.835Z</time></trkpt><trkpt lat="44.6123079" lon="8.9559058"><ele>326.0</ele><time>2026-04-03T09:13:37.835Z</time></trkpt><trkpt lat="44.6121802" lon="8.9560008"><ele>326.0</ele><time>2026-04-03T09:13:38.834Z</time></trkpt><trkpt lat="44.6120465" lon="8.9560965"><ele>326.0</ele><time>2026-04-03T09:13:39.834Z</time></trkpt><trkpt lat="44.6119088" lon="8.9561836"><ele>326.0</ele><time>2026-04-03T09:13:40.835Z</time></trkpt><trkpt lat="44.6117748" lon="8.9562639"><ele>326.0</ele><time>2026-04-03T09:13:41.835Z</time></trkpt><trkpt lat="44.6116377" lon="8.9563439"><ele>326.25</ele><time>2026-04-03T09:13:42.835Z</time></trkpt><trkpt lat="44.6114994" lon="8.9564204"><ele>326.5</ele><time>2026-04-03T09:13:43.835Z</time></trkpt><trkpt lat="44.6113543" lon="8.9564902"><ele>326.75</ele><time>2026-04-03T09:13:44.835Z</time></trkpt><trkpt lat="44.6112159" lon="8.9565387"><ele>327.0</ele><time>2026-04-03T09:13:45.834Z</time></trkpt><trkpt lat="44.6110758" lon="8.9565736"><ele>327.0</ele><time>2026-04-03T09:13:46.835Z</time></trkpt><trkpt lat="44.61094" lon="8.9565975"><ele>327.0</ele><time>2026-04-03T09:13:47.834Z</time></trkpt><trkpt lat="44.6108172" lon="8.9566146"><ele>327.0</ele><time>2026-04-03T09:13:48.834Z</time></trkpt><trkpt lat="44.6106952" lon="8.9566294"><ele>327.0</ele><time>2026-04-03T09:13:49.835Z</time></trkpt><trkpt lat="44.6105707" lon="8.9566434"><ele>327.0</ele><time>2026-04-03T09:13:50.834Z</time></trkpt><trkpt lat="44.6104467" lon="8.9566554"><ele>327.0</ele><time>2026-04-03T09:13:51.835Z</time></trkpt><trkpt lat="44.610319" lon="8.9566683"><ele>327.0</ele><time>2026-04-03T09:13:52.835Z</time></trkpt><trkpt lat="44.6101977" lon="8.9566787"><ele>327.0</ele><time>2026-04-03T09:13:53.835Z</time></trkpt><trkpt lat="44.6100699" lon="8.9566911"><ele>327.25</ele><time>2026-04-03T09:13:54.835Z</time></trkpt><trkpt lat="44.6099423" lon="8.9567024"><ele>327.5</ele><time>2026-04-03T09:13:55.835Z</time></trkpt><trkpt lat="44.6098156" lon="8.9567123"><ele>327.75</ele><time>2026-04-03T09:13:56.835Z</time></trkpt><trkpt lat="44.6096877" lon="8.9567222"><ele>328.0</ele><time>2026-04-03T09:13:57.834Z</time></trkpt><trkpt lat="44.6095578" lon="8.9567311"><ele>328.5</ele><time>2026-04-03T09:13:58.835Z</time></trkpt><trkpt lat="44.6094213" lon="8.9567406"><ele>329.0</ele><time>2026-04-03T09:13:59.835Z</time></trkpt><trkpt lat="44.6092784" lon="8.9567491"><ele>329.5</ele><time>2026-04-03T09:14:00.835Z</time></trkpt><trkpt lat="44.6091328" lon="8.9567569"><ele>330.0</ele><time>2026-04-03T09:14:01.835Z</time></trkpt><trkpt lat="44.6089809" lon="8.9567653"><ele>330.0</ele><time>2026-04-03T09:14:02.835Z</time></trkpt><trkpt lat="44.6088192" lon="8.9567783"><ele>330.0</ele><time>2026-04-03T09:14:03.835Z</time></trkpt><trkpt lat="44.6086555" lon="8.9567908"><ele>330.0</ele><time>2026-04-03T09:14:04.835Z</time></trkpt><trkpt lat="44.6084951" lon="8.956804"><ele>330.0</ele><time>2026-04-03T09:14:05.835Z</time></trkpt><trkpt lat="44.6083311" lon="8.9568185"><ele>330.0</ele><time>2026-04-03T09:14:06.835Z</time></trkpt><trkpt lat="44.608172" lon="8.9568316"><ele>330.0</ele><time>2026-04-03T09:14:07.835Z</time></trkpt><trkpt lat="44.6079975" lon="8.9568443"><ele>330.0</ele><time>2026-04-03T09:14:08.834Z</time></trkpt><trkpt lat="44.6078375" lon="8.9568559"><ele>330.0</ele><time>2026-04-03T09:14:09.835Z</time></trkpt><trkpt lat="44.6076712" lon="8.9568694"><ele>330.0</ele><time>2026-04-03T09:14:10.835Z</time></trkpt><trkpt lat="44.6075066" lon="8.9568837"><ele>329.0</ele><time>2026-04-03T09:14:11.834Z</time></trkpt><trkpt lat="44.6073431" lon="8.9568989"><ele>328.0</ele><time>2026-04-03T09:14:12.834Z</time></trkpt><trkpt lat="44.6071849" lon="8.9569137"><ele>327.0</ele><time>2026-04-03T09:14:13.834Z</time></trkpt><trkpt lat="44.6070247" lon="8.9569257"><ele>329.0</ele><time>2026-04-03T09:14:14.834Z</time></trkpt><trkpt lat="44.6068733" lon="8.9569302"><ele>331.0</ele><time>2026-04-03T09:14:15.835Z</time></trkpt><trkpt lat="44.6067128" lon="8.9569233"><ele>333.0</ele><time>2026-04-03T09:14:16.835Z</time></trkpt><trkpt lat="44.6065553" lon="8.9569008"><ele>333.0</ele><time>2026-04-03T09:14:17.835Z</time></trkpt><trkpt lat="44.6063979" lon="8.9568573"><ele>333.0</ele><time>2026-04-03T09:14:18.835Z</time></trkpt><trkpt lat="44.606234" lon="8.9567887"><ele>333.0</ele><time>2026-04-03T09:14:19.835Z</time></trkpt><trkpt lat="44.6060801" lon="8.956705"><ele>333.6666666666667</ele><time>2026-04-03T09:14:20.834Z</time></trkpt><trkpt lat="44.6059281" lon="8.9566113"><ele>334.33333333333337</ele><time>2026-04-03T09:14:21.835Z</time></trkpt><trkpt lat="44.6057784" lon="8.9565009"><ele>335.0</ele><time>2026-04-03T09:14:22.835Z</time></trkpt><trkpt lat="44.605635" lon="8.9563692"><ele>335.0</ele><time>2026-04-03T09:14:23.834Z</time></trkpt><trkpt lat="44.6054908" lon="8.9562094"><ele>335.0</ele><time>2026-04-03T09:14:24.834Z</time></trkpt><trkpt lat="44.605361" lon="8.9560416"><ele>335.0</ele><time>2026-04-03T09:14:25.835Z</time></trkpt><trkpt lat="44.605239" lon="8.9558587"><ele>336.33333333333337</ele><time>2026-04-03T09:14:26.834Z</time></trkpt><trkpt lat="44.6051294" lon="8.9556629"><ele>337.6666666666667</ele><time>2026-04-03T09:14:27.835Z</time></trkpt><trkpt lat="44.605026" lon="8.9554484"><ele>339.0</ele><time>2026-04-03T09:14:28.834Z</time></trkpt><trkpt lat="44.6049324" lon="8.9552346"><ele>337.3333333333333</ele><time>2026-04-03T09:14:29.835Z</time></trkpt><trkpt lat="44.6048372" lon="8.9550073"><ele>335.66666666666663</ele><time>2026-04-03T09:14:30.834Z</time></trkpt><trkpt lat="44.6047419" lon="8.954779"><ele>334.0</ele><time>2026-04-03T09:14:31.834Z</time></trkpt><trkpt lat="44.604634" lon="8.9545199"><ele>334.0</ele><time>2026-04-03T09:14:32.835Z</time></trkpt><trkpt lat="44.6045202" lon="8.9542477"><ele>334.0</ele><time>2026-04-03T09:14:33.835Z</time></trkpt><trkpt lat="44.6043955" lon="8.9539545"><ele>335.0</ele><time>2026-04-03T09:14:34.835Z</time></trkpt><trkpt lat="44.604266" lon="8.9536522"><ele>336.0</ele><time>2026-04-03T09:14:35.835Z</time></trkpt><trkpt lat="44.6041328" lon="8.9533428"><ele>337.0</ele><time>2026-04-03T09:14:36.834Z</time></trkpt><trkpt lat="44.6039963" lon="8.9530296"><ele>338.0</ele><time>2026-04-03T09:14:37.834Z</time></trkpt><trkpt lat="44.603857" lon="8.9527276"><ele>336.5</ele><time>2026-04-03T09:14:38.834Z</time></trkpt><trkpt lat="44.6037076" lon="8.9524403"><ele>335.0</ele><time>2026-04-03T09:14:39.834Z</time></trkpt><trkpt lat="44.6035397" lon="8.9521674"><ele>339.5</ele><time>2026-04-03T09:14:40.834Z</time></trkpt><trkpt lat="44.6033677" lon="8.951936"><ele>344.0</ele><time>2026-04-03T09:14:41.835Z</time></trkpt><trkpt lat="44.603179" lon="8.951727"><ele>339.5</ele><time>2026-04-03T09:14:42.835Z</time></trkpt><trkpt lat="44.6029818" lon="8.9515484"><ele>335.0</ele><time>2026-04-03T09:14:43.835Z</time></trkpt><trkpt lat="44.6027822" lon="8.9514014"><ele>334.6666666666667</ele><time>2026-04-03T09:14:44.835Z</time></trkpt><trkpt lat="44.6025795" lon="8.9512886"><ele>334.3333333333333</ele><time>2026-04-03T09:14:45.835Z</time></trkpt><trkpt lat="44.6023744" lon="8.9512095"><ele>334.0</ele><time>2026-04-03T09:14:46.835Z</time></trkpt><trkpt lat="44.602175" lon="8.9511584"><ele>333.66666666666663</ele><time>2026-04-03T09:14:47.834Z</time></trkpt><trkpt lat="44.6019608" lon="8.9511289"><ele>333.3333333333333</ele><time>2026-04-03T09:14:48.835Z</time></trkpt><trkpt lat="44.6017514" lon="8.951128"><ele>333.0</ele><time>2026-04-03T09:14:49.834Z</time></trkpt><trkpt lat="44.6015411" lon="8.9511556"><ele>333.0</ele><time>2026-04-03T09:14:50.835Z</time></trkpt><trkpt lat="44.6013313" lon="8.9512121"><ele>333.0</ele><time>2026-04-03T09:14:51.835Z</time></trkpt><trkpt lat="44.6011237" lon="8.9512967"><ele>333.0</ele><time>2026-04-03T09:14:52.834Z</time></trkpt><trkpt lat="44.6009185" lon="8.9514095"><ele>333.0</ele><time>2026-04-03T09:14:53.835Z</time></trkpt><trkpt lat="44.6007183" lon="8.9515505"><ele>333.0</ele><time>2026-04-03T09:14:54.834Z</time></trkpt><trkpt lat="44.6005302" lon="8.951714"><ele>333.0</ele><time>2026-04-03T09:14:55.834Z</time></trkpt><trkpt lat="44.6003401" lon="8.9519131"><ele>336.5</ele><time>2026-04-03T09:14:56.835Z</time></trkpt><trkpt lat="44.60016" lon="8.9521183"><ele>340.0</ele><time>2026-04-03T09:14:57.835Z</time></trkpt><trkpt lat="44.5999772" lon="8.9523203"><ele>340.0</ele><time>2026-04-03T09:14:58.834Z</time></trkpt><trkpt lat="44.5997828" lon="8.952515"><ele>340.0</ele><time>2026-04-03T09:14:59.835Z</time></trkpt><trkpt lat="44.5995749" lon="8.9527007"><ele>340.0</ele><time>2026-04-03T09:15:00.835Z</time></trkpt><trkpt lat="44.599359" lon="8.9528826"><ele>340.0</ele><time>2026-04-03T09:15:01.834Z</time></trkpt><trkpt lat="44.5991385" lon="8.9530627"><ele>340.0</ele><time>2026-04-03T09:15:02.835Z</time></trkpt><trkpt lat="44.5989226" lon="8.9532385"><ele>340.0</ele><time>2026-04-03T09:15:03.835Z</time></trkpt><trkpt lat="44.5986926" lon="8.953427"><ele>340.0</ele><time>2026-04-03T09:15:04.834Z</time></trkpt><trkpt lat="44.5984727" lon="8.9536076"><ele>340.0</ele><time>2026-04-03T09:15:05.835Z</time></trkpt><trkpt lat="44.5982577" lon="8.9537844"><ele>340.0</ele><time>2026-04-03T09:15:06.835Z</time></trkpt><trkpt lat="44.5980463" lon="8.9539562"><ele>340.0</ele><time>2026-04-03T09:15:07.835Z</time></trkpt><trkpt lat="44.5978353" lon="8.9541163"><ele>339.0</ele><time>2026-04-03T09:15:08.834Z</time></trkpt><trkpt lat="44.5976231" lon="8.9542575"><ele>338.0</ele><time>2026-04-03T09:15:09.834Z</time></trkpt><trkpt lat="44.5974084" lon="8.9543703"><ele>338.0</ele><time>2026-04-03T09:15:10.835Z</time></trkpt><trkpt lat="44.5971988" lon="8.9544479"><ele>338.0</ele><time>2026-04-03T09:15:11.835Z</time></trkpt><trkpt lat="44.5969776" lon="8.9544909"><ele>338.0</ele><time>2026-04-03T09:15:12.835Z</time></trkpt><trkpt lat="44.5967662" lon="8.9544913"><ele>337.33333333333337</ele><time>2026-04-03T09:15:13.835Z</time></trkpt><trkpt lat="44.5965609" lon="8.9544526"><ele>336.6666666666667</ele><time>2026-04-03T09:15:14.834Z</time></trkpt><trkpt lat="44.5963611" lon="8.9543806"><ele>336.0</ele><time>2026-04-03T09:15:15.834Z</time></trkpt><trkpt lat="44.5961667" lon="8.9542791"><ele>337.3333333333333</ele><time>2026-04-03T09:15:16.835Z</time></trkpt><trkpt lat="44.59598" lon="8.9541525"><ele>338.66666666666663</ele><time>2026-04-03T09:15:17.834Z</time></trkpt><trkpt lat="44.5958018" lon="8.9540097"><ele>340.0</ele><time>2026-04-03T09:15:18.835Z</time></trkpt><trkpt lat="44.595642" lon="8.9538662"><ele>340.0</ele><time>2026-04-03T09:15:19.835Z</time></trkpt><trkpt lat="44.5954954" lon="8.9536995"><ele>340.0</ele><time>2026-04-03T09:15:20.835Z</time></trkpt><trkpt lat="44.5953832" lon="8.953506"><ele>340.0</ele><time>2026-04-03T09:15:21.835Z</time></trkpt><trkpt lat="44.5953013" lon="8.9532817"><ele>340.0</ele><time>2026-04-03T09:15:22.834Z</time></trkpt><trkpt lat="44.5952525" lon="8.9530352"><ele>340.0</ele><time>2026-04-03T09:15:23.835Z</time></trkpt><trkpt lat="44.5952369" lon="8.9527662"><ele>340.0</ele><time>2026-04-03T09:15:24.834Z</time></trkpt><trkpt lat="44.595246" lon="8.9524699"><ele>340.0</ele><time>2026-04-03T09:15:25.835Z</time></trkpt><trkpt lat="44.5952657" lon="8.9521455"><ele>340.0</ele><time>2026-04-03T09:15:26.835Z</time></trkpt><trkpt lat="44.5952859" lon="8.9518028"><ele>339.5</ele><time>2026-04-03T09:15:27.834Z</time></trkpt><trkpt lat="44.595306" lon="8.9514222"><ele>339.0</ele><time>2026-04-03T09:15:28.834Z</time></trkpt><trkpt lat="44.5953258" lon="8.9510458"><ele>353.0</ele><time>2026-04-03T09:15:29.835Z</time></trkpt><trkpt lat="44.5953468" lon="8.9506683"><ele>367.0</ele><time>2026-04-03T09:15:30.835Z</time></trkpt><trkpt lat="44.595368" lon="8.9502948"><ele>365.5</ele><time>2026-04-03T09:15:31.835Z</time></trkpt><trkpt lat="44.595388" lon="8.9499269"><ele>364.0</ele><time>2026-04-03T09:15:32.835Z</time></trkpt><trkpt lat="44.5954068" lon="8.9495751"><ele>364.0</ele><time>2026-04-03T09:15:33.834Z</time></trkpt><trkpt lat="44.5954229" lon="8.9492461"><ele>364.0</ele><time>2026-04-03T09:15:34.835Z</time></trkpt><trkpt lat="44.5954358" lon="8.9489568"><ele>364.0</ele><time>2026-04-03T09:15:35.835Z</time></trkpt><trkpt lat="44.5954451" lon="8.9486783"><ele>362.5</ele><time>2026-04-03T09:15:36.835Z</time></trkpt><trkpt lat="44.5954448" lon="8.9484453"><ele>361.0</ele><time>2026-04-03T09:15:37.835Z</time></trkpt><trkpt lat="44.595432" lon="8.9482608"><ele>359.5</ele><time>2026-04-03T09:15:38.835Z</time></trkpt><trkpt lat="44.5954109" lon="8.9481253"><ele>358.0</ele><time>2026-04-03T09:15:39.835Z</time></trkpt><trkpt lat="44.5953842" lon="8.9480198"><ele>358.0</ele><time>2026-04-03T09:15:40.835Z</time></trkpt><trkpt lat="44.5953541" lon="8.9479294"><ele>358.0</ele><time>2026-04-03T09:15:41.834Z</time></trkpt><trkpt lat="44.595294" lon="8.9477931"><ele>358.0</ele><time>2026-04-03T09:15:43.835Z</time></trkpt><trkpt lat="44.595237" lon="8.9476866"><ele>358.0</ele><time>2026-04-03T09:15:45.835Z</time></trkpt><trkpt lat="44.5951779" lon="8.9475738"><ele>358.0</ele><time>2026-04-03T09:15:47.834Z</time></trkpt><trkpt lat="44.5951262" lon="8.9474979"><ele>355.16666666666663</ele><time>2026-04-03T09:15:48.835Z</time></trkpt><trkpt lat="44.5950594" lon="8.947421"><ele>352.3333333333333</ele><time>2026-04-03T09:15:49.835Z</time></trkpt><trkpt lat="44.5949995" lon="8.9473449"><ele>349.5</ele><time>2026-04-03T09:15:50.835Z</time></trkpt><trkpt lat="44.5949278" lon="8.9472484"><ele>346.6666666666667</ele><time>2026-04-03T09:15:52.835Z</time></trkpt><trkpt lat="44.5948678" lon="8.947166"><ele>343.83333333333337</ele><time>2026-04-03T09:15:56.834Z</time></trkpt><trkpt lat="44.5948143" lon="8.9470927"><ele>341.0</ele><time>2026-04-03T09:15:59.835Z</time></trkpt><trkpt lat="44.5947665" lon="8.9470313"><ele>341.0</ele><time>2026-04-03T09:16:09.835Z</time></trkpt><trkpt lat="44.5947047" lon="8.9469523"><ele>341.0</ele><time>2026-04-03T09:16:12.835Z</time></trkpt><trkpt lat="44.5946481" lon="8.946883"><ele>341.0</ele><time>2026-04-03T09:16:14.834Z</time></trkpt><trkpt lat="44.5945751" lon="8.9468129"><ele>341.0</ele><time>2026-04-03T09:16:17.834Z</time></trkpt><trkpt lat="44.5945175" lon="8.9467537"><ele>341.0</ele><time>2026-04-03T09:16:20.835Z</time></trkpt><trkpt lat="44.5944551" lon="8.9466492"><ele>341.0</ele><time>2026-04-03T09:16:28.835Z</time></trkpt><trkpt lat="44.5943686" lon="8.9465358"><ele>341.6666666666667</ele><time>2026-04-03T09:16:30.835Z</time></trkpt><trkpt lat="44.594327" lon="8.946469"><ele>342.33333333333337</ele><time>2026-04-03T09:16:31.835Z</time></trkpt><trkpt lat="44.5942688" lon="8.9463456"><ele>343.0</ele><time>2026-04-03T09:16:33.835Z</time></trkpt><trkpt lat="44.5942218" lon="8.9462212"><ele>343.6666666666667</ele><time>2026-04-03T09:16:35.835Z</time></trkpt><trkpt lat="44.5941954" lon="8.9461348"><ele>344.3333333333333</ele><time>2026-04-03T09:16:36.835Z</time></trkpt><trkpt lat="44.5941709" lon="8.946041"><ele>345.0</ele><time>2026-04-03T09:16:37.835Z</time></trkpt><trkpt lat="44.5941513" lon="8.9459458"><ele>345.2</ele><time>2026-04-03T09:16:38.835Z</time></trkpt><trkpt lat="44.5941372" lon="8.9458327"><ele>345.4</ele><time>2026-04-03T09:16:39.834Z</time></trkpt><trkpt lat="44.5941275" lon="8.9457018"><ele>345.6</ele><time>2026-04-03T09:16:40.835Z</time></trkpt><trkpt lat="44.5941238" lon="8.9455648"><ele>345.8</ele><time>2026-04-03T09:16:41.834Z</time></trkpt><trkpt lat="44.5941207" lon="8.9454275"><ele>346.0</ele><time>2026-04-03T09:16:42.835Z</time></trkpt><trkpt lat="44.5941159" lon="8.9452832"><ele>346.0</ele><time>2026-04-03T09:16:43.835Z</time></trkpt><trkpt lat="44.5941127" lon="8.9451314"><ele>346.0</ele><time>2026-04-03T09:16:44.835Z</time></trkpt><trkpt lat="44.5941096" lon="8.9449832"><ele>346.0</ele><time>2026-04-03T09:16:45.835Z</time></trkpt><trkpt lat="44.5941085" lon="8.9448398"><ele>346.0</ele><time>2026-04-03T09:16:46.835Z</time></trkpt><trkpt lat="44.5941062" lon="8.9447048"><ele>346.0</ele><time>2026-04-03T09:16:47.835Z</time></trkpt><trkpt lat="44.5941037" lon="8.9445634"><ele>346.0</ele><time>2026-04-03T09:16:48.834Z</time></trkpt><trkpt lat="44.5941027" lon="8.9444302"><ele>346.0</ele><time>2026-04-03T09:16:49.835Z</time></trkpt><trkpt lat="44.594101" lon="8.9443029"><ele>346.0</ele><time>2026-04-03T09:16:50.834Z</time></trkpt><trkpt lat="44.5940985" lon="8.9441814"><ele>346.0</ele><time>2026-04-03T09:16:51.834Z</time></trkpt><trkpt lat="44.5940963" lon="8.9440614"><ele>346.0</ele><time>2026-04-03T09:16:52.835Z</time></trkpt><trkpt lat="44.5940946" lon="8.9439394"><ele>346.0</ele><time>2026-04-03T09:16:53.835Z</time></trkpt><trkpt lat="44.5940927" lon="8.9438138"><ele>346.0</ele><time>2026-04-03T09:16:54.835Z</time></trkpt><trkpt lat="44.5940917" lon="8.9436856"><ele>346.0</ele><time>2026-04-03T09:16:55.835Z</time></trkpt><trkpt lat="44.5940884" lon="8.9435449"><ele>346.0</ele><time>2026-04-03T09:16:56.835Z</time></trkpt><trkpt lat="44.5940889" lon="8.9434075"><ele>346.0</ele><time>2026-04-03T09:16:57.834Z</time></trkpt><trkpt lat="44.5940869" lon="8.943275"><ele>346.0</ele><time>2026-04-03T09:16:58.835Z</time></trkpt><trkpt lat="44.5940836" lon="8.9431439"><ele>346.3333333333333</ele><time>2026-04-03T09:16:59.835Z</time></trkpt><trkpt lat="44.5940779" lon="8.9430149"><ele>346.66666666666663</ele><time>2026-04-03T09:17:00.835Z</time></trkpt><trkpt lat="44.5940692" lon="8.9429011"><ele>347.0</ele><time>2026-04-03T09:17:01.834Z</time></trkpt><trkpt lat="44.5940583" lon="8.9428131"><ele>347.3333333333333</ele><time>2026-04-03T09:17:02.834Z</time></trkpt><trkpt lat="44.5940371" lon="8.9426952"><ele>347.6666666666667</ele><time>2026-04-03T09:17:04.834Z</time></trkpt><trkpt lat="44.5940027" lon="8.942548"><ele>348.0</ele><time>2026-04-03T09:17:06.835Z</time></trkpt><trkpt lat="44.5939695" lon="8.9424272"><ele>348.0</ele><time>2026-04-03T09:17:07.835Z</time></trkpt><trkpt lat="44.5939294" lon="8.9423081"><ele>348.0</ele><time>2026-04-03T09:17:08.835Z</time></trkpt><trkpt lat="44.593882" lon="8.9421943"><ele>348.0</ele><time>2026-04-03T09:17:09.835Z</time></trkpt><trkpt lat="44.59383" lon="8.9420861"><ele>348.0</ele><time>2026-04-03T09:17:10.835Z</time></trkpt><trkpt lat="44.5937793" lon="8.9419902"><ele>348.0</ele><time>2026-04-03T09:17:11.835Z</time></trkpt><trkpt lat="44.5937263" lon="8.9419041"><ele>348.0</ele><time>2026-04-03T09:17:12.834Z</time></trkpt><trkpt lat="44.5936748" lon="8.9418328"><ele>348.3333333333333</ele><time>2026-04-03T09:17:13.834Z</time></trkpt><trkpt lat="44.5936198" lon="8.9417668"><ele>348.6666666666667</ele><time>2026-04-03T09:17:14.834Z</time></trkpt><trkpt lat="44.5935587" lon="8.9416995"><ele>349.0</ele><time>2026-04-03T09:17:15.834Z</time></trkpt><trkpt lat="44.5934899" lon="8.9416286"><ele>349.33333333333337</ele><time>2026-04-03T09:17:16.835Z</time></trkpt><trkpt lat="44.5934138" lon="8.9415625"><ele>349.6666666666667</ele><time>2026-04-03T09:17:17.834Z</time></trkpt><trkpt lat="44.5933369" lon="8.9415041"><ele>350.0</ele><time>2026-04-03T09:17:18.835Z</time></trkpt><trkpt lat="44.5932643" lon="8.9414545"><ele>350.0</ele><time>2026-04-03T09:17:19.835Z</time></trkpt><trkpt lat="44.593185" lon="8.9414061"><ele>350.0</ele><time>2026-04-03T09:17:20.835Z</time></trkpt><trkpt lat="44.5931021" lon="8.9413614"><ele>350.0</ele><time>2026-04-03T09:17:21.835Z</time></trkpt><trkpt lat="44.5930166" lon="8.9413169"><ele>350.0</ele><time>2026-04-03T09:17:22.835Z</time></trkpt><trkpt lat="44.5929307" lon="8.9412712"><ele>350.0</ele><time>2026-04-03T09:17:23.835Z</time></trkpt><trkpt lat="44.5928433" lon="8.9412243"><ele>353.6</ele><time>2026-04-03T09:17:24.835Z</time></trkpt><trkpt lat="44.5927531" lon="8.9411757"><ele>357.2</ele><time>2026-04-03T09:17:25.834Z</time></trkpt><trkpt lat="44.592658" lon="8.9411235"><ele>360.79999999999995</ele><time>2026-04-03T09:17:26.835Z</time></trkpt><trkpt lat="44.5925652" lon="8.9410726"><ele>364.4</ele><time>2026-04-03T09:17:27.835Z</time></trkpt><trkpt lat="44.592466" lon="8.9410174"><ele>368.0</ele><time>2026-04-03T09:17:28.835Z</time></trkpt><trkpt lat="44.5923723" lon="8.9409657"><ele>368.0</ele><time>2026-04-03T09:17:29.835Z</time></trkpt><trkpt lat="44.5922822" lon="8.9409142"><ele>368.0</ele><time>2026-04-03T09:17:30.834Z</time></trkpt><trkpt lat="44.5921916" lon="8.9408659"><ele>368.0</ele><time>2026-04-03T09:17:31.834Z</time></trkpt><trkpt lat="44.5920992" lon="8.9408203"><ele>368.0</ele><time>2026-04-03T09:17:32.834Z</time></trkpt><trkpt lat="44.5920063" lon="8.9407788"><ele>368.0</ele><time>2026-04-03T09:17:33.835Z</time></trkpt><trkpt lat="44.5919086" lon="8.9407411"><ele>368.0</ele><time>2026-04-03T09:17:34.835Z</time></trkpt><trkpt lat="44.5918119" lon="8.940707"><ele>368.0</ele><time>2026-04-03T09:17:35.835Z</time></trkpt><trkpt lat="44.5917112" lon="8.9406773"><ele>368.0</ele><time>2026-04-03T09:17:36.835Z</time></trkpt><trkpt lat="44.5916125" lon="8.9406532"><ele>368.0</ele><time>2026-04-03T09:17:37.834Z</time></trkpt><trkpt lat="44.5915059" lon="8.9406365"><ele>368.0</ele><time>2026-04-03T09:17:38.834Z</time></trkpt><trkpt lat="44.5913898" lon="8.9406245"><ele>368.0</ele><time>2026-04-03T09:17:39.835Z</time></trkpt><trkpt lat="44.5912695" lon="8.9406162"><ele>368.0</ele><time>2026-04-03T09:17:40.835Z</time></trkpt><trkpt lat="44.5911508" lon="8.9406106"><ele>368.0</ele><time>2026-04-03T09:17:41.835Z</time></trkpt><trkpt lat="44.5910385" lon="8.9406074"><ele>368.0</ele><time>2026-04-03T09:17:42.834Z</time></trkpt><trkpt lat="44.590941" lon="8.9406028"><ele>368.0</ele><time>2026-04-03T09:17:43.834Z</time></trkpt><trkpt lat="44.5908498" lon="8.9406004"><ele>369.33333333333337</ele><time>2026-04-03T09:17:44.834Z</time></trkpt><trkpt lat="44.5907771" lon="8.9405972"><ele>370.6666666666667</ele><time>2026-04-03T09:17:45.835Z</time></trkpt><trkpt lat="44.5907118" lon="8.9405955"><ele>372.0</ele><time>2026-04-03T09:17:46.834Z</time></trkpt><trkpt lat="44.5906399" lon="8.9405929"><ele>373.3333333333333</ele><time>2026-04-03T09:17:47.834Z</time></trkpt><trkpt lat="44.5905555" lon="8.9405893"><ele>374.66666666666663</ele><time>2026-04-03T09:17:48.835Z</time></trkpt><trkpt lat="44.5904602" lon="8.9405863"><ele>376.0</ele><time>2026-04-03T09:17:49.835Z</time></trkpt><trkpt lat="44.5903544" lon="8.9405845"><ele>375.5</ele><time>2026-04-03T09:17:50.834Z</time></trkpt><trkpt lat="44.5902445" lon="8.9405823"><ele>375.0</ele><time>2026-04-03T09:17:51.834Z</time></trkpt><trkpt lat="44.5901178" lon="8.9405788"><ele>374.5</ele><time>2026-04-03T09:17:52.835Z</time></trkpt><trkpt lat="44.5899838" lon="8.9405726"><ele>374.0</ele><time>2026-04-03T09:17:53.834Z</time></trkpt><trkpt lat="44.5898361" lon="8.9405672"><ele>374.0</ele><time>2026-04-03T09:17:54.834Z</time></trkpt><trkpt lat="44.5896835" lon="8.9405657"><ele>374.0</ele><time>2026-04-03T09:17:55.835Z</time></trkpt><trkpt lat="44.5895369" lon="8.9405648"><ele>374.0</ele><time>2026-04-03T09:17:56.834Z</time></trkpt><trkpt lat="44.5893988" lon="8.9405615"><ele>374.0</ele><time>2026-04-03T09:17:57.835Z</time></trkpt><trkpt lat="44.5892709" lon="8.9405572"><ele>374.6</ele><time>2026-04-03T09:17:58.835Z</time></trkpt><trkpt lat="44.5891559" lon="8.9405528"><ele>375.2</ele><time>2026-04-03T09:17:59.835Z</time></trkpt><trkpt lat="44.5890469" lon="8.9405512"><ele>375.8</ele><time>2026-04-03T09:18:00.834Z</time></trkpt><trkpt lat="44.5889491" lon="8.9405526"><ele>376.40000000000003</ele><time>2026-04-03T09:18:01.835Z</time></trkpt><trkpt lat="44.5888535" lon="8.9405624"><ele>377.0</ele><time>2026-04-03T09:18:02.835Z</time></trkpt><trkpt lat="44.5887592" lon="8.9405816"><ele>375.8</ele><time>2026-04-03T09:18:03.834Z</time></trkpt><trkpt lat="44.5886674" lon="8.9406079"><ele>374.6</ele><time>2026-04-03T09:18:04.835Z</time></trkpt><trkpt lat="44.5885718" lon="8.94064"><ele>373.40000000000003</ele><time>2026-04-03T09:18:05.835Z</time></trkpt><trkpt lat="44.5884668" lon="8.9406747"><ele>372.20000000000005</ele><time>2026-04-03T09:18:06.835Z</time></trkpt><trkpt lat="44.5883573" lon="8.9407115"><ele>371.0</ele><time>2026-04-03T09:18:07.835Z</time></trkpt><trkpt lat="44.5882383" lon="8.9407527"><ele>371.0</ele><time>2026-04-03T09:18:08.834Z</time></trkpt><trkpt lat="44.5881207" lon="8.9407924"><ele>371.0</ele><time>2026-04-03T09:18:09.835Z</time></trkpt><trkpt lat="44.5880011" lon="8.9408339"><ele>371.0</ele><time>2026-04-03T09:18:10.834Z</time></trkpt><trkpt lat="44.5878814" lon="8.9408765"><ele>371.0</ele><time>2026-04-03T09:18:11.835Z</time></trkpt><trkpt lat="44.5877639" lon="8.940918"><ele>378.0</ele><time>2026-04-03T09:18:12.835Z</time></trkpt><trkpt lat="44.5876528" lon="8.9409566"><ele>385.0</ele><time>2026-04-03T09:18:13.834Z</time></trkpt><trkpt lat="44.5875471" lon="8.9409949"><ele>392.0</ele><time>2026-04-03T09:18:14.835Z</time></trkpt><trkpt lat="44.5874471" lon="8.9410317"><ele>399.0</ele><time>2026-04-03T09:18:15.835Z</time></trkpt><trkpt lat="44.5873408" lon="8.9410675"><ele>406.0</ele><time>2026-04-03T09:18:16.835Z</time></trkpt><trkpt lat="44.5872358" lon="8.9411031"><ele>406.0</ele><time>2026-04-03T09:18:17.835Z</time></trkpt><trkpt lat="44.5871262" lon="8.9411412"><ele>406.0</ele><time>2026-04-03T09:18:18.835Z</time></trkpt><trkpt lat="44.5870155" lon="8.9411782"><ele>406.0</ele><time>2026-04-03T09:18:19.834Z</time></trkpt><trkpt lat="44.5869046" lon="8.9412147"><ele>406.0</ele><time>2026-04-03T09:18:20.835Z</time></trkpt><trkpt lat="44.5867965" lon="8.9412523"><ele>402.20000000000005</ele><time>2026-04-03T09:18:21.834Z</time></trkpt><trkpt lat="44.5866939" lon="8.9412901"><ele>398.40000000000003</ele><time>2026-04-03T09:18:22.835Z</time></trkpt><trkpt lat="44.5866001" lon="8.941326"><ele>394.6</ele><time>2026-04-03T09:18:23.834Z</time></trkpt><trkpt lat="44.5865033" lon="8.9413605"><ele>390.8</ele><time>2026-04-03T09:18:24.835Z</time></trkpt><trkpt lat="44.5864142" lon="8.9413903"><ele>387.0</ele><time>2026-04-03T09:18:25.834Z</time></trkpt><trkpt lat="44.5863307" lon="8.9414179"><ele>387.0</ele><time>2026-04-03T09:18:26.835Z</time></trkpt><trkpt lat="44.5862495" lon="8.9414461"><ele>387.0</ele><time>2026-04-03T09:18:27.835Z</time></trkpt><trkpt lat="44.5861647" lon="8.9414754"><ele>387.0</ele><time>2026-04-03T09:18:28.835Z</time></trkpt><trkpt lat="44.5860762" lon="8.9415055"><ele>387.0</ele><time>2026-04-03T09:18:29.834Z</time></trkpt><trkpt lat="44.5859842" lon="8.9415372"><ele>387.0</ele><time>2026-04-03T09:18:30.834Z</time></trkpt><trkpt lat="44.5858945" lon="8.9415675"><ele>387.0</ele><time>2026-04-03T09:18:31.835Z</time></trkpt><trkpt lat="44.5858033" lon="8.9415977"><ele>387.8333333333333</ele><time>2026-04-03T09:18:32.834Z</time></trkpt><trkpt lat="44.5857183" lon="8.9416255"><ele>388.66666666666663</ele><time>2026-04-03T09:18:33.835Z</time></trkpt><trkpt lat="44.5856355" lon="8.9416521"><ele>389.5</ele><time>2026-04-03T09:18:34.835Z</time></trkpt><trkpt lat="44.5855508" lon="8.9416787"><ele>390.3333333333333</ele><time>2026-04-03T09:18:35.835Z</time></trkpt><trkpt lat="44.5854608" lon="8.9417025"><ele>391.16666666666663</ele><time>2026-04-03T09:18:36.835Z</time></trkpt><trkpt lat="44.5853648" lon="8.941724"><ele>392.0</ele><time>2026-04-03T09:18:37.835Z</time></trkpt><trkpt lat="44.5852623" lon="8.9417451"><ele>392.0</ele><time>2026-04-03T09:18:38.835Z</time></trkpt><trkpt lat="44.5851606" lon="8.9417636"><ele>392.0</ele><time>2026-04-03T09:18:39.835Z</time></trkpt><trkpt lat="44.5850522" lon="8.9417805"><ele>392.0</ele><time>2026-04-03T09:18:40.835Z</time></trkpt><trkpt lat="44.5849481" lon="8.9417954"><ele>392.0</ele><time>2026-04-03T09:18:41.835Z</time></trkpt><trkpt lat="44.5848443" lon="8.9418083"><ele>392.0</ele><time>2026-04-03T09:18:42.835Z</time></trkpt><trkpt lat="44.5847409" lon="8.9418213"><ele>392.0</ele><time>2026-04-03T09:18:43.835Z</time></trkpt><trkpt lat="44.5846408" lon="8.941836"><ele>392.0</ele><time>2026-04-03T09:18:44.835Z</time></trkpt><trkpt lat="44.5845436" lon="8.9418501"><ele>392.0</ele><time>2026-04-03T09:18:45.835Z</time></trkpt><trkpt lat="44.5844527" lon="8.9418618"><ele>392.0</ele><time>2026-04-03T09:18:46.834Z</time></trkpt><trkpt lat="44.5843595" lon="8.9418726"><ele>392.0</ele><time>2026-04-03T09:18:47.835Z</time></trkpt><trkpt lat="44.5842573" lon="8.9418852"><ele>389.40000000000003</ele><time>2026-04-03T09:18:48.834Z</time></trkpt><trkpt lat="44.5841506" lon="8.9419003"><ele>386.8</ele><time>2026-04-03T09:18:49.835Z</time></trkpt><trkpt lat="44.5840378" lon="8.9419165"><ele>384.2</ele><time>2026-04-03T09:18:50.834Z</time></trkpt><trkpt lat="44.5839259" lon="8.9419325"><ele>381.6</ele><time>2026-04-03T09:18:51.835Z</time></trkpt><trkpt lat="44.5838118" lon="8.941947"><ele>379.0</ele><time>2026-04-03T09:18:52.834Z</time></trkpt><trkpt lat="44.5836973" lon="8.9419619"><ele>376.75</ele><time>2026-04-03T09:18:53.835Z</time></trkpt><trkpt lat="44.5835847" lon="8.9419776"><ele>374.5</ele><time>2026-04-03T09:18:54.834Z</time></trkpt><trkpt lat="44.5834674" lon="8.9419912"><ele>372.25</ele><time>2026-04-03T09:18:55.834Z</time></trkpt><trkpt lat="44.583343" lon="8.9420055"><ele>370.0</ele><time>2026-04-03T09:18:56.834Z</time></trkpt><trkpt lat="44.5832201" lon="8.9420263"><ele>370.0</ele><time>2026-04-03T09:18:57.835Z</time></trkpt><trkpt lat="44.5831049" lon="8.9420435"><ele>370.0</ele><time>2026-04-03T09:18:58.834Z</time></trkpt><trkpt lat="44.5829927" lon="8.942057"><ele>370.0</ele><time>2026-04-03T09:18:59.834Z</time></trkpt><trkpt lat="44.5828866" lon="8.9420708"><ele>370.0</ele><time>2026-04-03T09:19:00.835Z</time></trkpt><trkpt lat="44.5827838" lon="8.9420841"><ele>370.0</ele><time>2026-04-03T09:19:01.835Z</time></trkpt><trkpt lat="44.5826813" lon="8.9420956"><ele>369.0</ele><time>2026-04-03T09:19:02.835Z</time></trkpt><trkpt lat="44.5825861" lon="8.9421064"><ele>368.0</ele><time>2026-04-03T09:19:03.835Z</time></trkpt><trkpt lat="44.5824906" lon="8.9421162"><ele>367.0</ele><time>2026-04-03T09:19:04.834Z</time></trkpt><trkpt lat="44.5823986" lon="8.9421254"><ele>366.0</ele><time>2026-04-03T09:19:05.834Z</time></trkpt><trkpt lat="44.5823069" lon="8.9421387"><ele>365.0</ele><time>2026-04-03T09:19:06.835Z</time></trkpt><trkpt lat="44.582204" lon="8.9421547"><ele>365.0</ele><time>2026-04-03T09:19:07.835Z</time></trkpt><trkpt lat="44.5821003" lon="8.9421684"><ele>365.0</ele><time>2026-04-03T09:19:08.835Z</time></trkpt><trkpt lat="44.5819962" lon="8.9421809"><ele>365.0</ele><time>2026-04-03T09:19:09.835Z</time></trkpt><trkpt lat="44.5819016" lon="8.9421905"><ele>365.0</ele><time>2026-04-03T09:19:10.835Z</time></trkpt><trkpt lat="44.5818123" lon="8.942199"><ele>365.0</ele><time>2026-04-03T09:19:11.835Z</time></trkpt><trkpt lat="44.5817356" lon="8.9422066"><ele>364.1666666666667</ele><time>2026-04-03T09:19:12.834Z</time></trkpt><trkpt lat="44.5816333" lon="8.9422185"><ele>363.33333333333337</ele><time>2026-04-03T09:19:14.835Z</time></trkpt><trkpt lat="44.5815489" lon="8.9422356"><ele>362.5</ele><time>2026-04-03T09:19:16.834Z</time></trkpt><trkpt lat="44.5814446" lon="8.9422747"><ele>361.6666666666667</ele><time>2026-04-03T09:19:18.835Z</time></trkpt><trkpt lat="44.581381" lon="8.9422854"><ele>360.8333333333333</ele><time>2026-04-03T09:19:19.835Z</time></trkpt><trkpt lat="44.5813071" lon="8.9422935"><ele>360.0</ele><time>2026-04-03T09:19:20.835Z</time></trkpt><trkpt lat="44.5812294" lon="8.9423006"><ele>360.3333333333333</ele><time>2026-04-03T09:19:21.835Z</time></trkpt><trkpt lat="44.5811489" lon="8.9423079"><ele>360.6666666666667</ele><time>2026-04-03T09:19:22.834Z</time></trkpt><trkpt lat="44.5810626" lon="8.9423154"><ele>361.0</ele><time>2026-04-03T09:19:23.835Z</time></trkpt><trkpt lat="44.5809787" lon="8.9423213"><ele>361.33333333333337</ele><time>2026-04-03T09:19:24.835Z</time></trkpt><trkpt lat="44.5808892" lon="8.9423278"><ele>361.6666666666667</ele><time>2026-04-03T09:19:25.834Z</time></trkpt><trkpt lat="44.5808001" lon="8.9423349"><ele>362.0</ele><time>2026-04-03T09:19:26.835Z</time></trkpt><trkpt lat="44.5807245" lon="8.9423419"><ele>362.0</ele><time>2026-04-03T09:19:27.835Z</time></trkpt><trkpt lat="44.5806507" lon="8.9423487"><ele>362.0</ele><time>2026-04-03T09:19:28.834Z</time></trkpt><trkpt lat="44.5805683" lon="8.942357"><ele>362.0</ele><time>2026-04-03T09:19:29.834Z</time></trkpt><trkpt lat="44.5804714" lon="8.9423674"><ele>362.0</ele><time>2026-04-03T09:19:30.834Z</time></trkpt><trkpt lat="44.5803601" lon="8.9423777"><ele>362.0</ele><time>2026-04-03T09:19:31.834Z</time></trkpt><trkpt lat="44.5802464" lon="8.9423841"><ele>361.0</ele><time>2026-04-03T09:19:32.835Z</time></trkpt><trkpt lat="44.5801416" lon="8.9423905"><ele>360.0</ele><time>2026-04-03T09:19:33.835Z</time></trkpt><trkpt lat="44.5800442" lon="8.9423983"><ele>359.0</ele><time>2026-04-03T09:19:34.834Z</time></trkpt><trkpt lat="44.5799515" lon="8.9424104"><ele>358.0</ele><time>2026-04-03T09:19:35.835Z</time></trkpt><trkpt lat="44.5798546" lon="8.9424271"><ele>357.0</ele><time>2026-04-03T09:19:36.835Z</time></trkpt><trkpt lat="44.5797528" lon="8.9424482"><ele>357.0</ele><time>2026-04-03T09:19:37.835Z</time></trkpt><trkpt lat="44.5796453" lon="8.9424722"><ele>357.0</ele><time>2026-04-03T09:19:38.834Z</time></trkpt><trkpt lat="44.5795353" lon="8.9424981"><ele>357.0</ele><time>2026-04-03T09:19:39.835Z</time></trkpt><trkpt lat="44.5794262" lon="8.9425263"><ele>357.0</ele><time>2026-04-03T09:19:40.835Z</time></trkpt><trkpt lat="44.5793195" lon="8.9425574"><ele>357.0</ele><time>2026-04-03T09:19:41.835Z</time></trkpt><trkpt lat="44.5792151" lon="8.9425921"><ele>358.8</ele><time>2026-04-03T09:19:42.835Z</time></trkpt><trkpt lat="44.5791135" lon="8.9426302"><ele>360.6</ele><time>2026-04-03T09:19:43.835Z</time></trkpt><trkpt lat="44.5790068" lon="8.9426747"><ele>362.40000000000003</ele><time>2026-04-03T09:19:44.835Z</time></trkpt><trkpt lat="44.5789025" lon="8.9427221"><ele>364.20000000000005</ele><time>2026-04-03T09:19:45.835Z</time></trkpt><trkpt lat="44.5788022" lon="8.9427747"><ele>366.0</ele><time>2026-04-03T09:19:46.835Z</time></trkpt><trkpt lat="44.5786991" lon="8.9428355"><ele>365.0</ele><time>2026-04-03T09:19:47.834Z</time></trkpt><trkpt lat="44.5786016" lon="8.9428978"><ele>364.0</ele><time>2026-04-03T09:19:48.834Z</time></trkpt><trkpt lat="44.5785041" lon="8.9429627"><ele>363.0</ele><time>2026-04-03T09:19:49.834Z</time></trkpt><trkpt lat="44.578412" lon="8.9430283"><ele>362.0</ele><time>2026-04-03T09:19:50.835Z</time></trkpt><trkpt lat="44.5783193" lon="8.9431006"><ele>361.0</ele><time>2026-04-03T09:19:51.834Z</time></trkpt><trkpt lat="44.5782253" lon="8.943181"><ele>361.0</ele><time>2026-04-03T09:19:52.835Z</time></trkpt><trkpt lat="44.5781361" lon="8.9432592"><ele>361.0</ele><time>2026-04-03T09:19:53.834Z</time></trkpt><trkpt lat="44.5780526" lon="8.9433316"><ele>361.0</ele><time>2026-04-03T09:19:54.835Z</time></trkpt><trkpt lat="44.5779657" lon="8.9434091"><ele>361.0</ele><time>2026-04-03T09:19:55.835Z</time></trkpt><trkpt lat="44.5778831" lon="8.9434894"><ele>361.0</ele><time>2026-04-03T09:19:56.834Z</time></trkpt><trkpt lat="44.5778011" lon="8.943576"><ele>360.8</ele><time>2026-04-03T09:19:57.834Z</time></trkpt><trkpt lat="44.5777232" lon="8.943666"><ele>360.6</ele><time>2026-04-03T09:19:58.835Z</time></trkpt><trkpt lat="44.5776482" lon="8.9437638"><ele>360.4</ele><time>2026-04-03T09:19:59.835Z</time></trkpt><trkpt lat="44.577577" lon="8.9438617"><ele>360.2</ele><time>2026-04-03T09:20:00.835Z</time></trkpt><trkpt lat="44.5775122" lon="8.9439537"><ele>360.0</ele><time>2026-04-03T09:20:01.835Z</time></trkpt><trkpt lat="44.5774537" lon="8.9440389"><ele>360.0</ele><time>2026-04-03T09:20:02.835Z</time></trkpt><trkpt lat="44.5773941" lon="8.9441268"><ele>360.0</ele><time>2026-04-03T09:20:03.834Z</time></trkpt><trkpt lat="44.5773362" lon="8.9442127"><ele>360.0</ele><time>2026-04-03T09:20:04.834Z</time></trkpt><trkpt lat="44.577279" lon="8.9443015"><ele>360.0</ele><time>2026-04-03T09:20:05.834Z</time></trkpt><trkpt lat="44.5772248" lon="8.9443915"><ele>360.0</ele><time>2026-04-03T09:20:06.835Z</time></trkpt><trkpt lat="44.5771699" lon="8.9444886"><ele>360.0</ele><time>2026-04-03T09:20:07.834Z</time></trkpt><trkpt lat="44.5771134" lon="8.9445951"><ele>359.4</ele><time>2026-04-03T09:20:08.834Z</time></trkpt><trkpt lat="44.5770584" lon="8.9447059"><ele>358.8</ele><time>2026-04-03T09:20:09.834Z</time></trkpt><trkpt lat="44.5770074" lon="8.9448168"><ele>358.20000000000005</ele><time>2026-04-03T09:20:10.835Z</time></trkpt><trkpt lat="44.5769572" lon="8.9449347"><ele>357.6</ele><time>2026-04-03T09:20:11.835Z</time></trkpt><trkpt lat="44.576913" lon="8.9450466"><ele>357.0</ele><time>2026-04-03T09:20:12.834Z</time></trkpt><trkpt lat="44.5768731" lon="8.9451586"><ele>357.0</ele><time>2026-04-03T09:20:13.835Z</time></trkpt><trkpt lat="44.5768384" lon="8.9452685"><ele>357.0</ele><time>2026-04-03T09:20:14.834Z</time></trkpt><trkpt lat="44.5768072" lon="8.9453819"><ele>357.0</ele><time>2026-04-03T09:20:15.835Z</time></trkpt><trkpt lat="44.5767808" lon="8.945493"><ele>357.0</ele><time>2026-04-03T09:20:16.835Z</time></trkpt><trkpt lat="44.5767607" lon="8.9455893"><ele>357.0</ele><time>2026-04-03T09:20:17.834Z</time></trkpt><trkpt lat="44.5767264" lon="8.945755"><ele>358.25</ele><time>2026-04-03T09:20:19.835Z</time></trkpt><trkpt lat="44.5766923" lon="8.945913"><ele>359.5</ele><time>2026-04-03T09:20:21.834Z</time></trkpt><trkpt lat="44.5766553" lon="8.9460693"><ele>360.75</ele><time>2026-04-03T09:20:23.835Z</time></trkpt><trkpt lat="44.5766175" lon="8.9462186"><ele>362.0</ele><time>2026-04-03T09:20:25.834Z</time></trkpt><trkpt lat="44.5765746" lon="8.9463594"><ele>362.0</ele><time>2026-04-03T09:20:27.835Z</time></trkpt><trkpt lat="44.5765257" lon="8.9465096"><ele>362.0</ele><time>2026-04-03T09:20:29.835Z</time></trkpt><trkpt lat="44.5764701" lon="8.9466728"><ele>362.0</ele><time>2026-04-03T09:20:31.835Z</time></trkpt><trkpt lat="44.5764357" lon="8.9467628"><ele>362.0</ele><time>2026-04-03T09:20:32.834Z</time></trkpt><trkpt lat="44.5763991" lon="8.9468538"><ele>362.0</ele><time>2026-04-03T09:20:33.835Z</time></trkpt><trkpt lat="44.5763602" lon="8.9469443"><ele>362.0</ele><time>2026-04-03T09:20:34.835Z</time></trkpt><trkpt lat="44.5763161" lon="8.9470409"><ele>362.0</ele><time>2026-04-03T09:20:35.835Z</time></trkpt><trkpt lat="44.5762688" lon="8.9471338"><ele>362.0</ele><time>2026-04-03T09:20:36.835Z</time></trkpt><trkpt lat="44.5762191" lon="8.9472251"><ele>362.0</ele><time>2026-04-03T09:20:37.834Z</time></trkpt><trkpt lat="44.5761705" lon="8.9473107"><ele>362.0</ele><time>2026-04-03T09:20:38.835Z</time></trkpt><trkpt lat="44.5761199" lon="8.9473945"><ele>362.0</ele><time>2026-04-03T09:20:39.834Z</time></trkpt><trkpt lat="44.576067" lon="8.947477"><ele>363.5</ele><time>2026-04-03T09:20:40.835Z</time></trkpt><trkpt lat="44.5760172" lon="8.9475505"><ele>365.0</ele><time>2026-04-03T09:20:41.834Z</time></trkpt><trkpt lat="44.5759676" lon="8.9476209"><ele>366.5</ele><time>2026-04-03T09:20:42.834Z</time></trkpt><trkpt lat="44.575912" lon="8.9476965"><ele>368.0</ele><time>2026-04-03T09:20:43.834Z</time></trkpt><trkpt lat="44.5758488" lon="8.947777"><ele>369.5</ele><time>2026-04-03T09:20:44.835Z</time></trkpt><trkpt lat="44.575773" lon="8.9478652"><ele>371.0</ele><time>2026-04-03T09:20:45.834Z</time></trkpt><trkpt lat="44.5756897" lon="8.9479551"><ele>371.0</ele><time>2026-04-03T09:20:46.835Z</time></trkpt><trkpt lat="44.5755919" lon="8.9480499"><ele>371.0</ele><time>2026-04-03T09:20:47.835Z</time></trkpt><trkpt lat="44.5754814" lon="8.9481475"><ele>371.0</ele><time>2026-04-03T09:20:48.835Z</time></trkpt><trkpt lat="44.5753773" lon="8.9482364"><ele>371.0</ele><time>2026-04-03T09:20:49.834Z</time></trkpt><trkpt lat="44.5752833" lon="8.9483163"><ele>369.5</ele><time>2026-04-03T09:20:50.835Z</time></trkpt><trkpt lat="44.5751804" lon="8.9483962"><ele>368.0</ele><time>2026-04-03T09:20:51.835Z</time></trkpt><trkpt lat="44.5750715" lon="8.9484804"><ele>366.5</ele><time>2026-04-03T09:20:52.835Z</time></trkpt><trkpt lat="44.5749683" lon="8.9485642"><ele>365.0</ele><time>2026-04-03T09:20:53.835Z</time></trkpt><trkpt lat="44.5748781" lon="8.9486408"><ele>365.0</ele><time>2026-04-03T09:20:54.834Z</time></trkpt><trkpt lat="44.5747794" lon="8.9487201"><ele>365.0</ele><time>2026-04-03T09:20:55.835Z</time></trkpt><trkpt lat="44.5746712" lon="8.9488088"><ele>365.0</ele><time>2026-04-03T09:20:56.834Z</time></trkpt><trkpt lat="44.5745577" lon="8.9489058"><ele>365.0</ele><time>2026-04-03T09:20:57.834Z</time></trkpt><trkpt lat="44.5744432" lon="8.9490115"><ele>363.6666666666667</ele><time>2026-04-03T09:20:58.835Z</time></trkpt><trkpt lat="44.5743139" lon="8.9491288"><ele>362.3333333333333</ele><time>2026-04-03T09:20:59.834Z</time></trkpt><trkpt lat="44.5741836" lon="8.9492431"><ele>361.0</ele><time>2026-04-03T09:21:00.835Z</time></trkpt><trkpt lat="44.574053" lon="8.9493566"><ele>361.0</ele><time>2026-04-03T09:21:01.834Z</time></trkpt><trkpt lat="44.5739299" lon="8.9494627"><ele>361.0</ele><time>2026-04-03T09:21:02.835Z</time></trkpt><trkpt lat="44.5738084" lon="8.9495653"><ele>361.0</ele><time>2026-04-03T09:21:03.835Z</time></trkpt><trkpt lat="44.5736896" lon="8.9496625"><ele>361.0</ele><time>2026-04-03T09:21:04.834Z</time></trkpt><trkpt lat="44.5735821" lon="8.9497489"><ele>360.75</ele><time>2026-04-03T09:21:05.834Z</time></trkpt><trkpt lat="44.573481" lon="8.9498296"><ele>360.5</ele><time>2026-04-03T09:21:06.835Z</time></trkpt><trkpt lat="44.5733722" lon="8.9499163"><ele>360.25</ele><time>2026-04-03T09:21:07.835Z</time></trkpt><trkpt lat="44.5732648" lon="8.9500022"><ele>360.0</ele><time>2026-04-03T09:21:08.835Z</time></trkpt><trkpt lat="44.5731547" lon="8.9500904"><ele>359.75</ele><time>2026-04-03T09:21:09.835Z</time></trkpt><trkpt lat="44.5730479" lon="8.9501785"><ele>359.5</ele><time>2026-04-03T09:21:10.834Z</time></trkpt><trkpt lat="44.5729387" lon="8.9502671"><ele>359.25</ele><time>2026-04-03T09:21:11.834Z</time></trkpt><trkpt lat="44.5728281" lon="8.9503564"><ele>359.0</ele><time>2026-04-03T09:21:12.835Z</time></trkpt><trkpt lat="44.572723" lon="8.9504404"><ele>359.0</ele><time>2026-04-03T09:21:13.835Z</time></trkpt><trkpt lat="44.572625" lon="8.9505183"><ele>359.0</ele><time>2026-04-03T09:21:14.835Z</time></trkpt><trkpt lat="44.572526" lon="8.9505981"><ele>359.0</ele><time>2026-04-03T09:21:15.834Z</time></trkpt><trkpt lat="44.5724342" lon="8.9506718"><ele>359.0</ele><time>2026-04-03T09:21:16.834Z</time></trkpt><trkpt lat="44.5723438" lon="8.9507438"><ele>359.0</ele><time>2026-04-03T09:21:17.835Z</time></trkpt><trkpt lat="44.5722565" lon="8.9508145"><ele>359.2</ele><time>2026-04-03T09:21:18.835Z</time></trkpt><trkpt lat="44.5721677" lon="8.9508872"><ele>359.4</ele><time>2026-04-03T09:21:19.834Z</time></trkpt><trkpt lat="44.5720788" lon="8.9509605"><ele>359.6</ele><time>2026-04-03T09:21:20.834Z</time></trkpt><trkpt lat="44.5719932" lon="8.9510297"><ele>359.8</ele><time>2026-04-03T09:21:21.835Z</time></trkpt><trkpt lat="44.5719078" lon="8.9510984"><ele>360.0</ele><time>2026-04-03T09:21:22.835Z</time></trkpt><trkpt lat="44.5718133" lon="8.9511772"><ele>360.25</ele><time>2026-04-03T09:21:23.834Z</time></trkpt><trkpt lat="44.5717162" lon="8.9512577"><ele>360.5</ele><time>2026-04-03T09:21:24.834Z</time></trkpt><trkpt lat="44.5716157" lon="8.9513401"><ele>360.75</ele><time>2026-04-03T09:21:25.834Z</time></trkpt><trkpt lat="44.5715154" lon="8.9514208"><ele>361.0</ele><time>2026-04-03T09:21:26.835Z</time></trkpt><trkpt lat="44.5714109" lon="8.9515036"><ele>361.0</ele><time>2026-04-03T09:21:27.835Z</time></trkpt><trkpt lat="44.5713045" lon="8.9515849"><ele>361.0</ele><time>2026-04-03T09:21:28.835Z</time></trkpt><trkpt lat="44.5712042" lon="8.9516564"><ele>361.0</ele><time>2026-04-03T09:21:29.834Z</time></trkpt><trkpt lat="44.5711099" lon="8.9517165"><ele>361.0</ele><time>2026-04-03T09:21:30.834Z</time></trkpt><trkpt lat="44.571012" lon="8.9517704"><ele>361.0</ele><time>2026-04-03T09:21:31.834Z</time></trkpt><trkpt lat="44.5709185" lon="8.9518144"><ele>361.20000000000005</ele><time>2026-04-03T09:21:32.835Z</time></trkpt><trkpt lat="44.5708238" lon="8.9518493"><ele>361.40000000000003</ele><time>2026-04-03T09:21:33.834Z</time></trkpt><trkpt lat="44.5707296" lon="8.9518742"><ele>361.6</ele><time>2026-04-03T09:21:34.835Z</time></trkpt><trkpt lat="44.5706284" lon="8.9518923"><ele>361.8</ele><time>2026-04-03T09:21:35.834Z</time></trkpt><trkpt lat="44.5705181" lon="8.9519028"><ele>362.0</ele><time>2026-04-03T09:21:36.834Z</time></trkpt><trkpt lat="44.5704074" lon="8.9519038"><ele>361.75</ele><time>2026-04-03T09:21:37.835Z</time></trkpt><trkpt lat="44.5702984" lon="8.9518943"><ele>361.5</ele><time>2026-04-03T09:21:38.834Z</time></trkpt><trkpt lat="44.5701767" lon="8.9518737"><ele>361.25</ele><time>2026-04-03T09:21:39.835Z</time></trkpt><trkpt lat="44.5700537" lon="8.9518425"><ele>361.0</ele><time>2026-04-03T09:21:40.834Z</time></trkpt><trkpt lat="44.5699254" lon="8.9517962"><ele>361.0</ele><time>2026-04-03T09:21:41.834Z</time></trkpt><trkpt lat="44.569801" lon="8.9517378"><ele>361.0</ele><time>2026-04-03T09:21:42.834Z</time></trkpt><trkpt lat="44.5696763" lon="8.951666"><ele>361.0</ele><time>2026-04-03T09:21:43.835Z</time></trkpt><trkpt lat="44.5695508" lon="8.9515834"><ele>361.0</ele><time>2026-04-03T09:21:44.835Z</time></trkpt><trkpt lat="44.5694333" lon="8.9514966"><ele>359.5</ele><time>2026-04-03T09:21:45.835Z</time></trkpt><trkpt lat="44.5693248" lon="8.9514112"><ele>358.0</ele><time>2026-04-03T09:21:46.834Z</time></trkpt><trkpt lat="44.569216" lon="8.9513237"><ele>356.5</ele><time>2026-04-03T09:21:47.834Z</time></trkpt><trkpt lat="44.5691154" lon="8.9512417"><ele>355.0</ele><time>2026-04-03T09:21:48.835Z</time></trkpt><trkpt lat="44.569017" lon="8.9511623"><ele>355.0</ele><time>2026-04-03T09:21:49.834Z</time></trkpt><trkpt lat="44.5689227" lon="8.9510877"><ele>355.0</ele><time>2026-04-03T09:21:50.835Z</time></trkpt><trkpt lat="44.5688255" lon="8.9510115"><ele>355.0</ele><time>2026-04-03T09:21:51.834Z</time></trkpt><trkpt lat="44.5687264" lon="8.9509333"><ele>355.0</ele><time>2026-04-03T09:21:52.834Z</time></trkpt><trkpt lat="44.5686326" lon="8.9508592"><ele>355.0</ele><time>2026-04-03T09:21:53.835Z</time></trkpt><trkpt lat="44.5685453" lon="8.9507902"><ele>356.6</ele><time>2026-04-03T09:21:54.834Z</time></trkpt><trkpt lat="44.568455" lon="8.9507205"><ele>358.2</ele><time>2026-04-03T09:21:55.835Z</time></trkpt><trkpt lat="44.568369" lon="8.9506546"><ele>359.79999999999995</ele><time>2026-04-03T09:21:56.835Z</time></trkpt><trkpt lat="44.5682849" lon="8.95059"><ele>361.4</ele><time>2026-04-03T09:21:57.835Z</time></trkpt><trkpt lat="44.5682065" lon="8.9505278"><ele>363.0</ele><time>2026-04-03T09:21:58.835Z</time></trkpt><trkpt lat="44.5681267" lon="8.9504595"><ele>363.0</ele><time>2026-04-03T09:21:59.835Z</time></trkpt><trkpt lat="44.5680381" lon="8.950387"><ele>363.0</ele><time>2026-04-03T09:22:00.835Z</time></trkpt><trkpt lat="44.5679444" lon="8.9503162"><ele>363.0</ele><time>2026-04-03T09:22:01.834Z</time></trkpt><trkpt lat="44.5678573" lon="8.9502477"><ele>363.0</ele><time>2026-04-03T09:22:02.835Z</time></trkpt><trkpt lat="44.5677724" lon="8.9501775"><ele>363.0</ele><time>2026-04-03T09:22:03.835Z</time></trkpt><trkpt lat="44.567696" lon="8.9501146"><ele>364.2</ele><time>2026-04-03T09:22:04.835Z</time></trkpt><trkpt lat="44.5676174" lon="8.9500513"><ele>365.4</ele><time>2026-04-03T09:22:05.835Z</time></trkpt><trkpt lat="44.567539" lon="8.9499863"><ele>366.59999999999997</ele><time>2026-04-03T09:22:06.835Z</time></trkpt><trkpt lat="44.5674568" lon="8.9499119"><ele>367.79999999999995</ele><time>2026-04-03T09:22:07.835Z</time></trkpt><trkpt lat="44.5673737" lon="8.9498208"><ele>369.0</ele><time>2026-04-03T09:22:08.835Z</time></trkpt><trkpt lat="44.567299" lon="8.949713"><ele>369.0</ele><time>2026-04-03T09:22:09.835Z</time></trkpt><trkpt lat="44.5672341" lon="8.9495918"><ele>369.0</ele><time>2026-04-03T09:22:10.834Z</time></trkpt><trkpt lat="44.5671743" lon="8.9494473"><ele>369.0</ele><time>2026-04-03T09:22:11.835Z</time></trkpt><trkpt lat="44.5671261" lon="8.9492958"><ele>369.0</ele><time>2026-04-03T09:22:12.835Z</time></trkpt><trkpt lat="44.5670899" lon="8.9491341"><ele>369.5</ele><time>2026-04-03T09:22:13.835Z</time></trkpt><trkpt lat="44.5670717" lon="8.948971"><ele>370.0</ele><time>2026-04-03T09:22:14.834Z</time></trkpt><trkpt lat="44.5670724" lon="8.9488027"><ele>370.5</ele><time>2026-04-03T09:22:15.835Z</time></trkpt><trkpt lat="44.5670905" lon="8.9486309"><ele>371.0</ele><time>2026-04-03T09:22:16.835Z</time></trkpt><trkpt lat="44.5671201" lon="8.9484644"><ele>372.25</ele><time>2026-04-03T09:22:17.834Z</time></trkpt><trkpt lat="44.5671562" lon="8.9483036"><ele>373.5</ele><time>2026-04-03T09:22:18.834Z</time></trkpt><trkpt lat="44.5672" lon="8.9481321"><ele>374.75</ele><time>2026-04-03T09:22:19.835Z</time></trkpt><trkpt lat="44.5672455" lon="8.9479674"><ele>376.0</ele><time>2026-04-03T09:22:20.835Z</time></trkpt><trkpt lat="44.5672805" lon="8.9477958"><ele>376.0</ele><time>2026-04-03T09:22:21.835Z</time></trkpt><trkpt lat="44.567297" lon="8.9476255"><ele>376.0</ele><time>2026-04-03T09:22:22.835Z</time></trkpt><trkpt lat="44.5672912" lon="8.9474502"><ele>376.0</ele><time>2026-04-03T09:22:23.835Z</time></trkpt><trkpt lat="44.5672601" lon="8.947278"><ele>376.0</ele><time>2026-04-03T09:22:24.835Z</time></trkpt><trkpt lat="44.5672071" lon="8.9471244"><ele>377.0</ele><time>2026-04-03T09:22:25.834Z</time></trkpt><trkpt lat="44.5671388" lon="8.9469866"><ele>378.0</ele><time>2026-04-03T09:22:26.834Z</time></trkpt><trkpt lat="44.5670543" lon="8.9468563"><ele>379.0</ele><time>2026-04-03T09:22:27.834Z</time></trkpt><trkpt lat="44.5669597" lon="8.9467516"><ele>380.0</ele><time>2026-04-03T09:22:28.834Z</time></trkpt><trkpt lat="44.5668561" lon="8.9466669"><ele>382.25</ele><time>2026-04-03T09:22:29.835Z</time></trkpt><trkpt lat="44.5667527" lon="8.9465952"><ele>384.5</ele><time>2026-04-03T09:22:30.835Z</time></trkpt><trkpt lat="44.5666477" lon="8.9465247"><ele>386.75</ele><time>2026-04-03T09:22:31.835Z</time></trkpt><trkpt lat="44.5665439" lon="8.946453"><ele>389.0</ele><time>2026-04-03T09:22:32.835Z</time></trkpt><trkpt lat="44.5664491" lon="8.9463831"><ele>389.0</ele><time>2026-04-03T09:22:33.835Z</time></trkpt><trkpt lat="44.566363" lon="8.946313"><ele>389.0</ele><time>2026-04-03T09:22:34.835Z</time></trkpt><trkpt lat="44.5662764" lon="8.9462336"><ele>389.0</ele><time>2026-04-03T09:22:35.834Z</time></trkpt><trkpt lat="44.5661949" lon="8.9461507"><ele>389.0</ele><time>2026-04-03T09:22:36.835Z</time></trkpt><trkpt lat="44.5661118" lon="8.9460608"><ele>389.0</ele><time>2026-04-03T09:22:37.835Z</time></trkpt><trkpt lat="44.5660286" lon="8.9459653"><ele>389.6</ele><time>2026-04-03T09:22:38.835Z</time></trkpt><trkpt lat="44.5659409" lon="8.9458658"><ele>390.2</ele><time>2026-04-03T09:22:39.834Z</time></trkpt><trkpt lat="44.5658549" lon="8.9457662"><ele>390.8</ele><time>2026-04-03T09:22:40.835Z</time></trkpt><trkpt lat="44.5657768" lon="8.9456766"><ele>391.40000000000003</ele><time>2026-04-03T09:22:41.835Z</time></trkpt><trkpt lat="44.5657022" lon="8.9455928"><ele>392.0</ele><time>2026-04-03T09:22:42.835Z</time></trkpt><trkpt lat="44.5656223" lon="8.9455055"><ele>392.0</ele><time>2026-04-03T09:22:43.834Z</time></trkpt><trkpt lat="44.5655443" lon="8.9454261"><ele>392.0</ele><time>2026-04-03T09:22:44.835Z</time></trkpt><trkpt lat="44.5654663" lon="8.945354"><ele>392.0</ele><time>2026-04-03T09:22:45.834Z</time></trkpt><trkpt lat="44.5653873" lon="8.9452843"><ele>392.0</ele><time>2026-04-03T09:22:46.835Z</time></trkpt><trkpt lat="44.5653086" lon="8.9452171"><ele>392.0</ele><time>2026-04-03T09:22:47.834Z</time></trkpt><trkpt lat="44.5652264" lon="8.9451501"><ele>392.6</ele><time>2026-04-03T09:22:48.835Z</time></trkpt><trkpt lat="44.565146" lon="8.9450875"><ele>393.20000000000005</ele><time>2026-04-03T09:22:49.834Z</time></trkpt><trkpt lat="44.5650614" lon="8.9450298"><ele>393.8</ele><time>2026-04-03T09:22:50.835Z</time></trkpt><trkpt lat="44.5649645" lon="8.9449758"><ele>394.4</ele><time>2026-04-03T09:22:51.834Z</time></trkpt><trkpt lat="44.5648674" lon="8.9449316"><ele>395.0</ele><time>2026-04-03T09:22:52.835Z</time></trkpt><trkpt lat="44.5647626" lon="8.9448994"><ele>395.0</ele><time>2026-04-03T09:22:53.834Z</time></trkpt><trkpt lat="44.5646599" lon="8.944895"><ele>395.0</ele><time>2026-04-03T09:22:54.835Z</time></trkpt><trkpt lat="44.5645582" lon="8.9449166"><ele>395.0</ele><time>2026-04-03T09:22:55.834Z</time></trkpt><trkpt lat="44.5644571" lon="8.9449552"><ele>395.0</ele><time>2026-04-03T09:22:56.835Z</time></trkpt><trkpt lat="44.5643642" lon="8.9450003"><ele>395.0</ele><time>2026-04-03T09:22:57.835Z</time></trkpt><trkpt lat="44.56428" lon="8.9450635"><ele>399.2</ele><time>2026-04-03T09:22:58.835Z</time></trkpt><trkpt lat="44.564203" lon="8.9451467"><ele>403.4</ele><time>2026-04-03T09:22:59.835Z</time></trkpt><trkpt lat="44.5641355" lon="8.9452399"><ele>407.6</ele><time>2026-04-03T09:23:00.834Z</time></trkpt><trkpt lat="44.5640686" lon="8.945339"><ele>411.8</ele><time>2026-04-03T09:23:01.835Z</time></trkpt><trkpt lat="44.5640036" lon="8.9454322"><ele>416.0</ele><time>2026-04-03T09:23:02.834Z</time></trkpt><trkpt lat="44.5639419" lon="8.9455235"><ele>415.99999999999994</ele><time>2026-04-03T09:23:03.835Z</time></trkpt><trkpt lat="44.5638838" lon="8.9456088"><ele>416.0</ele><time>2026-04-03T09:23:04.835Z</time></trkpt><trkpt lat="44.5638272" lon="8.9456901"><ele>416.0</ele><time>2026-04-03T09:23:05.834Z</time></trkpt><trkpt lat="44.5637676" lon="8.9457748"><ele>416.0</ele><time>2026-04-03T09:23:06.835Z</time></trkpt><trkpt lat="44.5636996" lon="8.9458709"><ele>415.99999999999994</ele><time>2026-04-03T09:23:07.834Z</time></trkpt><trkpt lat="44.5636302" lon="8.9459663"><ele>416.0</ele><time>2026-04-03T09:23:08.835Z</time></trkpt><trkpt lat="44.563564" lon="8.9460537"><ele>416.3333333333333</ele><time>2026-04-03T09:23:09.835Z</time></trkpt><trkpt lat="44.5634954" lon="8.9461342"><ele>416.66666666666663</ele><time>2026-04-03T09:23:10.834Z</time></trkpt><trkpt lat="44.5634229" lon="8.9462113"><ele>417.0</ele><time>2026-04-03T09:23:11.835Z</time></trkpt><trkpt lat="44.5633574" lon="8.9462772"><ele>417.33333333333337</ele><time>2026-04-03T09:23:12.835Z</time></trkpt><trkpt lat="44.5632772" lon="8.946354"><ele>417.6666666666667</ele><time>2026-04-03T09:23:14.835Z</time></trkpt><trkpt lat="44.5632046" lon="8.9464256"><ele>418.0</ele><time>2026-04-03T09:23:16.835Z</time></trkpt><trkpt lat="44.5630926" lon="8.9465202"><ele>418.0</ele><time>2026-04-03T09:23:18.835Z</time></trkpt><trkpt lat="44.5630127" lon="8.9465657"><ele>418.0</ele><time>2026-04-03T09:23:19.835Z</time></trkpt><trkpt lat="44.5629152" lon="8.9466058"><ele>418.0</ele><time>2026-04-03T09:23:20.835Z</time></trkpt><trkpt lat="44.5628111" lon="8.9466397"><ele>418.0</ele><time>2026-04-03T09:23:21.835Z</time></trkpt><trkpt lat="44.5627039" lon="8.9466757"><ele>418.0</ele><time>2026-04-03T09:23:22.834Z</time></trkpt><trkpt lat="44.5625861" lon="8.9467215"><ele>420.25</ele><time>2026-04-03T09:23:23.835Z</time></trkpt><trkpt lat="44.5624691" lon="8.9467748"><ele>422.5</ele><time>2026-04-03T09:23:24.835Z</time></trkpt><trkpt lat="44.5623489" lon="8.9468369"><ele>424.75</ele><time>2026-04-03T09:23:25.835Z</time></trkpt><trkpt lat="44.5622328" lon="8.9469083"><ele>427.0</ele><time>2026-04-03T09:23:26.835Z</time></trkpt><trkpt lat="44.5621173" lon="8.9469893"><ele>424.0</ele><time>2026-04-03T09:23:27.835Z</time></trkpt><trkpt lat="44.5619985" lon="8.9470707"><ele>421.0</ele><time>2026-04-03T09:23:28.835Z</time></trkpt><trkpt lat="44.5618832" lon="8.9471444"><ele>418.0</ele><time>2026-04-03T09:23:29.835Z</time></trkpt><trkpt lat="44.5617715" lon="8.947211"><ele>415.0</ele><time>2026-04-03T09:23:30.835Z</time></trkpt><trkpt lat="44.5616498" lon="8.9472718"><ele>415.0</ele><time>2026-04-03T09:23:31.834Z</time></trkpt><trkpt lat="44.5615334" lon="8.9473118"><ele>415.0</ele><time>2026-04-03T09:23:32.835Z</time></trkpt><trkpt lat="44.5614154" lon="8.9473344"><ele>415.0</ele><time>2026-04-03T09:23:33.834Z</time></trkpt><trkpt lat="44.5612977" lon="8.947337"><ele>415.0</ele><time>2026-04-03T09:23:34.834Z</time></trkpt><trkpt lat="44.5611766" lon="8.9473164"><ele>415.0</ele><time>2026-04-03T09:23:35.834Z</time></trkpt><trkpt lat="44.561054" lon="8.9472711"><ele>415.0</ele><time>2026-04-03T09:23:36.835Z</time></trkpt><trkpt lat="44.5609392" lon="8.9472142"><ele>415.0</ele><time>2026-04-03T09:23:37.835Z</time></trkpt><trkpt lat="44.5608212" lon="8.9471536"><ele>415.0</ele><time>2026-04-03T09:23:38.834Z</time></trkpt><trkpt lat="44.5606972" lon="8.9470886"><ele>415.0</ele><time>2026-04-03T09:23:39.834Z</time></trkpt><trkpt lat="44.5605839" lon="8.9470288"><ele>415.0</ele><time>2026-04-03T09:23:40.835Z</time></trkpt><trkpt lat="44.560479" lon="8.9469762"><ele>415.0</ele><time>2026-04-03T09:23:41.834Z</time></trkpt><trkpt lat="44.5603876" lon="8.9469367"><ele>415.0</ele><time>2026-04-03T09:23:42.835Z</time></trkpt><trkpt lat="44.5603004" lon="8.9469025"><ele>415.0</ele><time>2026-04-03T09:23:43.835Z</time></trkpt><trkpt lat="44.5602122" lon="8.9468711"><ele>416.83333333333337</ele><time>2026-04-03T09:23:44.834Z</time></trkpt><trkpt lat="44.5601312" lon="8.9468456"><ele>418.6666666666667</ele><time>2026-04-03T09:23:45.835Z</time></trkpt><trkpt lat="44.5600514" lon="8.9468221"><ele>420.5</ele><time>2026-04-03T09:23:46.835Z</time></trkpt><trkpt lat="44.5599701" lon="8.9467986"><ele>422.33333333333337</ele><time>2026-04-03T09:23:47.835Z</time></trkpt><trkpt lat="44.5598888" lon="8.9467739"><ele>424.1666666666667</ele><time>2026-04-03T09:23:48.835Z</time></trkpt><trkpt lat="44.5598065" lon="8.9467491"><ele>426.0</ele><time>2026-04-03T09:23:49.835Z</time></trkpt><trkpt lat="44.5597136" lon="8.9467233"><ele>426.8</ele><time>2026-04-03T09:23:50.835Z</time></trkpt><trkpt lat="44.5596154" lon="8.9466986"><ele>427.6</ele><time>2026-04-03T09:23:51.835Z</time></trkpt><trkpt lat="44.5595095" lon="8.9466738"><ele>428.4</ele><time>2026-04-03T09:23:52.835Z</time></trkpt><trkpt lat="44.5594069" lon="8.9466494"><ele>429.2</ele><time>2026-04-03T09:23:53.835Z</time></trkpt><trkpt lat="44.5592967" lon="8.9466242"><ele>430.0</ele><time>2026-04-03T09:23:54.834Z</time></trkpt><trkpt lat="44.5591813" lon="8.9465966"><ele>430.5</ele><time>2026-04-03T09:23:55.835Z</time></trkpt><trkpt lat="44.5590605" lon="8.9465688"><ele>431.0</ele><time>2026-04-03T09:23:56.835Z</time></trkpt><trkpt lat="44.558942" lon="8.9465427"><ele>431.5</ele><time>2026-04-03T09:23:57.835Z</time></trkpt><trkpt lat="44.5588241" lon="8.946517"><ele>432.0</ele><time>2026-04-03T09:23:58.835Z</time></trkpt><trkpt lat="44.5587185" lon="8.9464956"><ele>433.1428571428571</ele><time>2026-04-03T09:23:59.835Z</time></trkpt><trkpt lat="44.5586278" lon="8.9464788"><ele>434.2857142857143</ele><time>2026-04-03T09:24:00.835Z</time></trkpt><trkpt lat="44.558564" lon="8.9464686"><ele>435.42857142857144</ele><time>2026-04-03T09:24:01.834Z</time></trkpt><trkpt lat="44.5584891" lon="8.9464679"><ele>436.57142857142856</ele><time>2026-04-03T09:24:03.835Z</time></trkpt><trkpt lat="44.5584258" lon="8.9465135"><ele>437.7142857142857</ele><time>2026-04-03T09:24:08.835Z</time></trkpt><trkpt lat="44.5584111" lon="8.9466175"><ele>438.85714285714283</ele><time>2026-04-03T09:24:14.834Z</time></trkpt><trkpt lat="44.558354" lon="8.9466724"><ele>440.0</ele><time>2026-04-03T09:24:17.835Z</time></trkpt><trkpt lat="44.5582773" lon="8.9467053"><ele>440.5</ele><time>2026-04-03T09:24:19.835Z</time></trkpt><trkpt lat="44.5581837" lon="8.9467334"><ele>441.0</ele><time>2026-04-03T09:24:21.835Z</time></trkpt><trkpt lat="44.550956" lon="8.9445796"><ele>429.33333333333337</ele><time>2026-04-03T09:25:19.83Z</time></trkpt><trkpt lat="44.5507788" lon="8.9445433"><ele>417.6666666666667</ele><time>2026-04-03T09:25:20.831Z</time></trkpt><trkpt lat="44.550607" lon="8.9445126"><ele>406.0</ele><time>2026-04-03T09:25:21.83Z</time></trkpt><trkpt lat="44.550428" lon="8.9444841"><ele>404.33333333333337</ele><time>2026-04-03T09:25:22.831Z</time></trkpt><trkpt lat="44.5502453" lon="8.9444659"><ele>402.66666666666663</ele><time>2026-04-03T09:25:23.827Z</time></trkpt><trkpt lat="44.5500699" lon="8.9444648"><ele>401.0</ele><time>2026-04-03T09:25:24.829Z</time></trkpt><trkpt lat="44.5499016" lon="8.9444757"><ele>401.0</ele><time>2026-04-03T09:25:25.828Z</time></trkpt><trkpt lat="44.5497332" lon="8.9445023"><ele>401.0</ele><time>2026-04-03T09:25:26.829Z</time></trkpt><trkpt lat="44.5495701" lon="8.9445389"><ele>401.0</ele><time>2026-04-03T09:25:27.829Z</time></trkpt><trkpt lat="44.549407" lon="8.944585"><ele>398.5</ele><time>2026-04-03T09:25:28.829Z</time></trkpt><trkpt lat="44.5492629" lon="8.9446293"><ele>396.0</ele><time>2026-04-03T09:25:29.829Z</time></trkpt><trkpt lat="44.5491183" lon="8.9446769"><ele>393.5</ele><time>2026-04-03T09:25:30.829Z</time></trkpt><trkpt lat="44.5489766" lon="8.9447238"><ele>391.0</ele><time>2026-04-03T09:25:31.828Z</time></trkpt><trkpt lat="44.5488478" lon="8.9447627"><ele>391.0</ele><time>2026-04-03T09:25:32.829Z</time></trkpt><trkpt lat="44.5487301" lon="8.9447945"><ele>391.0</ele><time>2026-04-03T09:25:33.828Z</time></trkpt><trkpt lat="44.54861" lon="8.9448181"><ele>391.0</ele><time>2026-04-03T09:25:34.828Z</time></trkpt><trkpt lat="44.5484902" lon="8.9448318"><ele>391.0</ele><time>2026-04-03T09:25:35.829Z</time></trkpt><trkpt lat="44.5483651" lon="8.9448327"><ele>388.5</ele><time>2026-04-03T09:25:36.829Z</time></trkpt><trkpt lat="44.5482501" lon="8.9448176"><ele>386.0</ele><time>2026-04-03T09:25:37.829Z</time></trkpt><trkpt lat="44.5481314" lon="8.944781"><ele>383.5</ele><time>2026-04-03T09:25:38.828Z</time></trkpt><trkpt lat="44.5480144" lon="8.9447215"><ele>381.0</ele><time>2026-04-03T09:25:39.828Z</time></trkpt><trkpt lat="44.5479075" lon="8.9446451"><ele>384.75</ele><time>2026-04-03T09:25:40.829Z</time></trkpt><trkpt lat="44.5478099" lon="8.944555"><ele>388.5</ele><time>2026-04-03T09:25:41.829Z</time></trkpt><trkpt lat="44.5477127" lon="8.9444467"><ele>392.25</ele><time>2026-04-03T09:25:42.828Z</time></trkpt><trkpt lat="44.5476172" lon="8.9443314"><ele>396.0</ele><time>2026-04-03T09:25:43.829Z</time></trkpt><trkpt lat="44.5475186" lon="8.9442133"><ele>393.25</ele><time>2026-04-03T09:25:44.829Z</time></trkpt><trkpt lat="44.5474157" lon="8.9441084"><ele>390.5</ele><time>2026-04-03T09:25:45.829Z</time></trkpt><trkpt lat="44.5472932" lon="8.9440196"><ele>387.75</ele><time>2026-04-03T09:25:46.828Z</time></trkpt><trkpt lat="44.5471531" lon="8.9439665"><ele>385.0</ele><time>2026-04-03T09:25:47.829Z</time></trkpt><trkpt lat="44.5470095" lon="8.9439515"><ele>385.0</ele><time>2026-04-03T09:25:48.829Z</time></trkpt><trkpt lat="44.5468673" lon="8.9439515"><ele>385.0</ele><time>2026-04-03T09:25:49.829Z</time></trkpt><trkpt lat="44.5467202" lon="8.943943"><ele>385.0</ele><time>2026-04-03T09:25:50.828Z</time></trkpt><trkpt lat="44.5465777" lon="8.9439017"><ele>385.0</ele><time>2026-04-03T09:25:51.829Z</time></trkpt><trkpt lat="44.5464298" lon="8.9438174"><ele>385.0</ele><time>2026-04-03T09:25:52.829Z</time></trkpt><trkpt lat="44.5462862" lon="8.9437115"><ele>385.0</ele><time>2026-04-03T09:25:53.828Z</time></trkpt><trkpt lat="44.5461299" lon="8.9435895"><ele>385.0</ele><time>2026-04-03T09:25:54.828Z</time></trkpt><trkpt lat="44.5459592" lon="8.9434584"><ele>380.33333333333337</ele><time>2026-04-03T09:25:55.829Z</time></trkpt><trkpt lat="44.5457921" lon="8.9433313"><ele>375.6666666666667</ele><time>2026-04-03T09:25:56.828Z</time></trkpt><trkpt lat="44.5456352" lon="8.9432029"><ele>371.0</ele><time>2026-04-03T09:25:57.829Z</time></trkpt><trkpt lat="44.5454836" lon="8.9430579"><ele>380.33333333333337</ele><time>2026-04-03T09:25:58.829Z</time></trkpt><trkpt lat="44.5453416" lon="8.9428991"><ele>389.6666666666667</ele><time>2026-04-03T09:25:59.829Z</time></trkpt><trkpt lat="44.5452055" lon="8.9427274"><ele>399.0</ele><time>2026-04-03T09:26:00.828Z</time></trkpt><trkpt lat="44.5450848" lon="8.9425635"><ele>388.0</ele><time>2026-04-03T09:26:01.829Z</time></trkpt><trkpt lat="44.5449593" lon="8.9423985"><ele>377.0</ele><time>2026-04-03T09:26:02.829Z</time></trkpt><trkpt lat="44.5448184" lon="8.9422464"><ele>366.0</ele><time>2026-04-03T09:26:03.829Z</time></trkpt><trkpt lat="44.5446689" lon="8.9421323"><ele>372.0</ele><time>2026-04-03T09:26:04.828Z</time></trkpt><trkpt lat="44.5445063" lon="8.942059"><ele>378.0</ele><time>2026-04-03T09:26:05.829Z</time></trkpt><trkpt lat="44.544339" lon="8.942013"><ele>384.0</ele><time>2026-04-03T09:26:06.829Z</time></trkpt><trkpt lat="44.5441765" lon="8.9419676"><ele>384.0</ele><time>2026-04-03T09:26:07.829Z</time></trkpt><trkpt lat="44.5440147" lon="8.941898"><ele>384.0</ele><time>2026-04-03T09:26:08.829Z</time></trkpt><trkpt lat="44.5438681" lon="8.9418089"><ele>384.0</ele><time>2026-04-03T09:26:09.829Z</time></trkpt><trkpt lat="44.5437251" lon="8.9416985"><ele>379.3333333333333</ele><time>2026-04-03T09:26:10.829Z</time></trkpt><trkpt lat="44.543578" lon="8.9415677"><ele>374.66666666666663</ele><time>2026-04-03T09:26:11.829Z</time></trkpt><trkpt lat="44.5434365" lon="8.9414331"><ele>370.0</ele><time>2026-04-03T09:26:12.829Z</time></trkpt><trkpt lat="44.5432986" lon="8.9413004"><ele>370.0</ele><time>2026-04-03T09:26:13.828Z</time></trkpt><trkpt lat="44.5431523" lon="8.9411647"><ele>370.0</ele><time>2026-04-03T09:26:14.828Z</time></trkpt><trkpt lat="44.5430021" lon="8.941032"><ele>370.0</ele><time>2026-04-03T09:26:15.829Z</time></trkpt><trkpt lat="44.5428413" lon="8.9409088"><ele>365.66666666666663</ele><time>2026-04-03T09:26:16.829Z</time></trkpt><trkpt lat="44.542685" lon="8.9408166"><ele>361.3333333333333</ele><time>2026-04-03T09:26:17.829Z</time></trkpt><trkpt lat="44.5425227" lon="8.9407308"><ele>357.0</ele><time>2026-04-03T09:26:18.829Z</time></trkpt><trkpt lat="44.5423599" lon="8.9406318"><ele>357.0</ele><time>2026-04-03T09:26:19.829Z</time></trkpt><trkpt lat="44.5422169" lon="8.9405196"><ele>357.0</ele><time>2026-04-03T09:26:20.828Z</time></trkpt><trkpt lat="44.5420813" lon="8.9404004"><ele>357.0</ele><time>2026-04-03T09:26:21.829Z</time></trkpt><trkpt lat="44.541941" lon="8.9402975"><ele>361.3333333333333</ele><time>2026-04-03T09:26:22.829Z</time></trkpt><trkpt lat="44.54179" lon="8.9402231"><ele>365.66666666666663</ele><time>2026-04-03T09:26:23.829Z</time></trkpt><trkpt lat="44.5416276" lon="8.9401659"><ele>370.0</ele><time>2026-04-03T09:26:24.829Z</time></trkpt><trkpt lat="44.5414707" lon="8.9401309"><ele>370.0</ele><time>2026-04-03T09:26:25.828Z</time></trkpt><trkpt lat="44.5413061" lon="8.9401247"><ele>370.0</ele><time>2026-04-03T09:26:26.828Z</time></trkpt><trkpt lat="44.5411377" lon="8.9401547"><ele>370.0</ele><time>2026-04-03T09:26:27.828Z</time></trkpt><trkpt lat="44.5409777" lon="8.940218"><ele>363.3333333333333</ele><time>2026-04-03T09:26:28.828Z</time></trkpt><trkpt lat="44.54083" lon="8.9403097"><ele>356.6666666666667</ele><time>2026-04-03T09:26:29.829Z</time></trkpt><trkpt lat="44.5406872" lon="8.9404355"><ele>350.0</ele><time>2026-04-03T09:26:30.829Z</time></trkpt><trkpt lat="44.5405573" lon="8.9405928"><ele>350.0</ele><time>2026-04-03T09:26:31.828Z</time></trkpt><trkpt lat="44.5404469" lon="8.9407853"><ele>350.0</ele><time>2026-04-03T09:26:32.829Z</time></trkpt><trkpt lat="44.5403691" lon="8.9409855"><ele>350.0</ele><time>2026-04-03T09:26:33.829Z</time></trkpt><trkpt lat="44.540324" lon="8.9412052"><ele>340.33333333333337</ele><time>2026-04-03T09:26:34.829Z</time></trkpt><trkpt lat="44.5403174" lon="8.9414466"><ele>330.6666666666667</ele><time>2026-04-03T09:26:35.829Z</time></trkpt><trkpt lat="44.540337" lon="8.9416694"><ele>321.0</ele><time>2026-04-03T09:26:36.828Z</time></trkpt><trkpt lat="44.5403797" lon="8.9418889"><ele>331.3333333333333</ele><time>2026-04-03T09:26:37.829Z</time></trkpt><trkpt lat="44.540437" lon="8.9421037"><ele>341.66666666666663</ele><time>2026-04-03T09:26:38.829Z</time></trkpt><trkpt lat="44.5404994" lon="8.9423136"><ele>352.0</ele><time>2026-04-03T09:26:39.829Z</time></trkpt><trkpt lat="44.5405609" lon="8.9425181"><ele>346.3333333333333</ele><time>2026-04-03T09:26:40.829Z</time></trkpt><trkpt lat="44.5406248" lon="8.942713"><ele>340.6666666666667</ele><time>2026-04-03T09:26:41.828Z</time></trkpt><trkpt lat="44.5407037" lon="8.9428947"><ele>335.0</ele><time>2026-04-03T09:26:42.829Z</time></trkpt><trkpt lat="44.5408088" lon="8.9430824"><ele>335.0</ele><time>2026-04-03T09:26:43.829Z</time></trkpt><trkpt lat="44.5409258" lon="8.9432774"><ele>335.0</ele><time>2026-04-03T09:26:44.828Z</time></trkpt><trkpt lat="44.5410453" lon="8.9434832"><ele>335.0</ele><time>2026-04-03T09:26:45.829Z</time></trkpt><trkpt lat="44.5411657" lon="8.9437046"><ele>338.0</ele><time>2026-04-03T09:26:46.828Z</time></trkpt><trkpt lat="44.5412748" lon="8.943928"><ele>341.0</ele><time>2026-04-03T09:26:47.829Z</time></trkpt><trkpt lat="44.5413746" lon="8.9441762"><ele>344.0</ele><time>2026-04-03T09:26:48.828Z</time></trkpt><trkpt lat="44.5414438" lon="8.9444299"><ele>344.0</ele><time>2026-04-03T09:26:49.828Z</time></trkpt><trkpt lat="44.5414792" lon="8.9447006"><ele>344.0</ele><time>2026-04-03T09:26:50.829Z</time></trkpt><trkpt lat="44.5414742" lon="8.9449813"><ele>344.0</ele><time>2026-04-03T09:26:51.828Z</time></trkpt><trkpt lat="44.5414272" lon="8.9452353"><ele>342.0</ele><time>2026-04-03T09:26:52.829Z</time></trkpt><trkpt lat="44.5413397" lon="8.9454777"><ele>340.0</ele><time>2026-04-03T09:26:53.829Z</time></trkpt><trkpt lat="44.5412129" lon="8.9456969"><ele>338.0</ele><time>2026-04-03T09:26:54.829Z</time></trkpt><trkpt lat="44.5410587" lon="8.9458676"><ele>330.0</ele><time>2026-04-03T09:26:55.829Z</time></trkpt><trkpt lat="44.5408668" lon="8.9459918"><ele>322.0</ele><time>2026-04-03T09:26:56.828Z</time></trkpt><trkpt lat="44.5406622" lon="8.9460487"><ele>314.0</ele><time>2026-04-03T09:26:57.828Z</time></trkpt><trkpt lat="44.5404462" lon="8.9460454"><ele>307.5</ele><time>2026-04-03T09:26:58.828Z</time></trkpt><trkpt lat="44.5402032" lon="8.946009"><ele>301.0</ele><time>2026-04-03T09:26:59.828Z</time></trkpt><trkpt lat="44.5399627" lon="8.9459722"><ele>301.0</ele><time>2026-04-03T09:27:00.829Z</time></trkpt><trkpt lat="44.5397264" lon="8.9459387"><ele>301.0</ele><time>2026-04-03T09:27:01.829Z</time></trkpt><trkpt lat="44.5394903" lon="8.9459023"><ele>302.66666666666663</ele><time>2026-04-03T09:27:02.829Z</time></trkpt><trkpt lat="44.5392719" lon="8.9458656"><ele>304.3333333333333</ele><time>2026-04-03T09:27:03.829Z</time></trkpt><trkpt lat="44.539046" lon="8.9458235"><ele>306.0</ele><time>2026-04-03T09:27:04.829Z</time></trkpt><trkpt lat="44.5388523" lon="8.9457598"><ele>316.0</ele><time>2026-04-03T09:27:05.829Z</time></trkpt><trkpt lat="44.5386747" lon="8.9456433"><ele>326.0</ele><time>2026-04-03T09:27:06.828Z</time></trkpt><trkpt lat="44.5385254" lon="8.9454599"><ele>336.0</ele><time>2026-04-03T09:27:07.829Z</time></trkpt><trkpt lat="44.5384238" lon="8.9452425"><ele>336.6666666666667</ele><time>2026-04-03T09:27:08.829Z</time></trkpt><trkpt lat="44.5383538" lon="8.9449955"><ele>337.33333333333337</ele><time>2026-04-03T09:27:09.829Z</time></trkpt><trkpt lat="44.5383077" lon="8.9447319"><ele>338.0</ele><time>2026-04-03T09:27:10.829Z</time></trkpt><trkpt lat="44.5382796" lon="8.944481"><ele>338.0</ele><time>2026-04-03T09:27:11.828Z</time></trkpt><trkpt lat="44.5382646" lon="8.9442256"><ele>338.0</ele><time>2026-04-03T09:27:12.829Z</time></trkpt><trkpt lat="44.5382593" lon="8.9439914"><ele>338.0</ele><time>2026-04-03T09:27:13.829Z</time></trkpt><trkpt lat="44.5382465" lon="8.9437674"><ele>337.0</ele><time>2026-04-03T09:27:14.828Z</time></trkpt><trkpt lat="44.538203" lon="8.9435435"><ele>336.0</ele><time>2026-04-03T09:27:15.829Z</time></trkpt><trkpt lat="44.5381289" lon="8.9433558"><ele>335.0</ele><time>2026-04-03T09:27:16.829Z</time></trkpt><trkpt lat="44.5380241" lon="8.9431903"><ele>332.6666666666667</ele><time>2026-04-03T09:27:17.829Z</time></trkpt><trkpt lat="44.5378978" lon="8.9430622"><ele>330.3333333333333</ele><time>2026-04-03T09:27:18.828Z</time></trkpt><trkpt lat="44.5377581" lon="8.9429809"><ele>328.0</ele><time>2026-04-03T09:27:19.828Z</time></trkpt><trkpt lat="44.5375942" lon="8.9429315"><ele>337.3333333333333</ele><time>2026-04-03T09:27:20.828Z</time></trkpt><trkpt lat="44.5374391" lon="8.942905"><ele>346.6666666666667</ele><time>2026-04-03T09:27:21.829Z</time></trkpt><trkpt lat="44.5372779" lon="8.9428675"><ele>356.0</ele><time>2026-04-03T09:27:22.828Z</time></trkpt><trkpt lat="44.5371231" lon="8.9428028"><ele>351.33333333333337</ele><time>2026-04-03T09:27:23.829Z</time></trkpt><trkpt lat="44.5369843" lon="8.9427156"><ele>346.6666666666667</ele><time>2026-04-03T09:27:24.828Z</time></trkpt><trkpt lat="44.5368432" lon="8.9426124"><ele>342.0</ele><time>2026-04-03T09:27:25.829Z</time></trkpt><trkpt lat="44.536696" lon="8.9425072"><ele>342.0</ele><time>2026-04-03T09:27:26.829Z</time></trkpt><trkpt lat="44.5365518" lon="8.9424044"><ele>342.0</ele><time>2026-04-03T09:27:27.829Z</time></trkpt><trkpt lat="44.5363965" lon="8.9422893"><ele>342.0</ele><time>2026-04-03T09:27:28.829Z</time></trkpt><trkpt lat="44.5362443" lon="8.942177"><ele>350.0</ele><time>2026-04-03T09:27:29.829Z</time></trkpt><trkpt lat="44.5360915" lon="8.9420767"><ele>358.0</ele><time>2026-04-03T09:27:30.829Z</time></trkpt><trkpt lat="44.535935" lon="8.9419908"><ele>366.0</ele><time>2026-04-03T09:27:31.829Z</time></trkpt><trkpt lat="44.5357838" lon="8.9419267"><ele>366.0</ele><time>2026-04-03T09:27:32.829Z</time></trkpt><trkpt lat="44.535623" lon="8.941866"><ele>366.0</ele><time>2026-04-03T09:27:33.829Z</time></trkpt><trkpt lat="44.5354625" lon="8.9417897"><ele>366.0</ele><time>2026-04-03T09:27:34.829Z</time></trkpt><trkpt lat="44.5353093" lon="8.941698"><ele>365.3333333333333</ele><time>2026-04-03T09:27:35.829Z</time></trkpt><trkpt lat="44.5351394" lon="8.9415906"><ele>364.66666666666663</ele><time>2026-04-03T09:27:36.829Z</time></trkpt><trkpt lat="44.5349747" lon="8.9415004"><ele>364.0</ele><time>2026-04-03T09:27:37.828Z</time></trkpt><trkpt lat="44.5347937" lon="8.9414211"><ele>364.0</ele><time>2026-04-03T09:27:38.828Z</time></trkpt><trkpt lat="44.5345999" lon="8.9413467"><ele>364.0</ele><time>2026-04-03T09:27:39.829Z</time></trkpt><trkpt lat="44.5344125" lon="8.9412752"><ele>364.0</ele><time>2026-04-03T09:27:40.828Z</time></trkpt><trkpt lat="44.5342202" lon="8.9411958"><ele>366.3333333333333</ele><time>2026-04-03T09:27:41.828Z</time></trkpt><trkpt lat="44.5340213" lon="8.9411141"><ele>368.6666666666667</ele><time>2026-04-03T09:27:42.829Z</time></trkpt><trkpt lat="44.5338274" lon="8.9410387"><ele>371.0</ele><time>2026-04-03T09:27:43.828Z</time></trkpt><trkpt lat="44.5336176" lon="8.9409589"><ele>379.6666666666667</ele><time>2026-04-03T09:27:44.829Z</time></trkpt><trkpt lat="44.5334142" lon="8.9408752"><ele>388.33333333333337</ele><time>2026-04-03T09:27:45.829Z</time></trkpt><trkpt lat="44.5332089" lon="8.9407868"><ele>397.0</ele><time>2026-04-03T09:27:46.828Z</time></trkpt><trkpt lat="44.5329945" lon="8.9406975"><ele>397.33333333333337</ele><time>2026-04-03T09:27:47.829Z</time></trkpt><trkpt lat="44.5327883" lon="8.9406185"><ele>397.66666666666663</ele><time>2026-04-03T09:27:48.829Z</time></trkpt><trkpt lat="44.5325695" lon="8.9405402"><ele>398.0</ele><time>2026-04-03T09:27:49.828Z</time></trkpt><trkpt lat="44.5323485" lon="8.9404603"><ele>398.0</ele><time>2026-04-03T09:27:50.828Z</time></trkpt><trkpt lat="44.5321359" lon="8.9403788"><ele>398.0</ele><time>2026-04-03T09:27:51.829Z</time></trkpt><trkpt lat="44.5319127" lon="8.9402904"><ele>392.66666666666663</ele><time>2026-04-03T09:27:52.829Z</time></trkpt><trkpt lat="44.5316994" lon="8.9402046"><ele>387.3333333333333</ele><time>2026-04-03T09:27:53.828Z</time></trkpt><trkpt lat="44.5314901" lon="8.9401205"><ele>382.0</ele><time>2026-04-03T09:27:54.829Z</time></trkpt><trkpt lat="44.5312809" lon="8.9400374"><ele>370.3333333333333</ele><time>2026-04-03T09:27:55.828Z</time></trkpt><trkpt lat="44.5310911" lon="8.9399618"><ele>358.6666666666667</ele><time>2026-04-03T09:27:56.828Z</time></trkpt><trkpt lat="44.5309014" lon="8.9398824"><ele>347.0</ele><time>2026-04-03T09:27:57.829Z</time></trkpt><trkpt lat="44.5307168" lon="8.9397997"><ele>332.0</ele><time>2026-04-03T09:27:58.829Z</time></trkpt><trkpt lat="44.530267" lon="8.9397514"><ele>332.0</ele><time>2026-04-03T09:27:59.829Z</time></trkpt><trkpt lat="44.5300359" lon="8.9396685"><ele>332.0</ele><time>2026-04-03T09:28:00.828Z</time></trkpt><trkpt lat="44.5298215" lon="8.9396021"><ele>332.0</ele><time>2026-04-03T09:28:01.829Z</time></trkpt><trkpt lat="44.52961" lon="8.9395453"><ele>332.0</ele><time>2026-04-03T09:28:02.829Z</time></trkpt><trkpt lat="44.5294034" lon="8.9394926"><ele>332.0</ele><time>2026-04-03T09:28:03.829Z</time></trkpt><trkpt lat="44.5292089" lon="8.9394503"><ele>329.0</ele><time>2026-04-03T09:28:04.828Z</time></trkpt><trkpt lat="44.5290058" lon="8.9394071"><ele>326.0</ele><time>2026-04-03T09:28:05.829Z</time></trkpt><trkpt lat="44.5288118" lon="8.9393337"><ele>323.0</ele><time>2026-04-03T09:28:06.828Z</time></trkpt><trkpt lat="44.5286333" lon="8.9392149"><ele>319.0</ele><time>2026-04-03T09:28:07.829Z</time></trkpt><trkpt lat="44.5284672" lon="8.9390348"><ele>315.0</ele><time>2026-04-03T09:28:08.829Z</time></trkpt><trkpt lat="44.5283378" lon="8.9388121"><ele>311.0</ele><time>2026-04-03T09:28:09.829Z</time></trkpt><trkpt lat="44.5282307" lon="8.9385693"><ele>311.6666666666667</ele><time>2026-04-03T09:28:10.828Z</time></trkpt><trkpt lat="44.5281149" lon="8.9383277"><ele>312.3333333333333</ele><time>2026-04-03T09:28:11.829Z</time></trkpt><trkpt lat="44.5279839" lon="8.938135"><ele>313.0</ele><time>2026-04-03T09:28:12.829Z</time></trkpt><trkpt lat="44.5278201" lon="8.9379892"><ele>313.0</ele><time>2026-04-03T09:28:13.828Z</time></trkpt><trkpt lat="44.5276364" lon="8.9378995"><ele>313.0</ele><time>2026-04-03T09:28:14.829Z</time></trkpt><trkpt lat="44.5274502" lon="8.9378667"><ele>313.0</ele><time>2026-04-03T09:28:15.829Z</time></trkpt><trkpt lat="44.5272448" lon="8.9378944"><ele>312.3333333333333</ele><time>2026-04-03T09:28:16.828Z</time></trkpt><trkpt lat="44.5270427" lon="8.9379666"><ele>311.6666666666667</ele><time>2026-04-03T09:28:17.829Z</time></trkpt><trkpt lat="44.5268351" lon="8.9380502"><ele>311.0</ele><time>2026-04-03T09:28:18.829Z</time></trkpt><trkpt lat="44.5266125" lon="8.9381275"><ele>311.0</ele><time>2026-04-03T09:28:19.829Z</time></trkpt><trkpt lat="44.5264068" lon="8.9381979"><ele>311.0</ele><time>2026-04-03T09:28:20.829Z</time></trkpt><trkpt lat="44.5262006" lon="8.9382627"><ele>311.0</ele><time>2026-04-03T09:28:21.829Z</time></trkpt><trkpt lat="44.5259875" lon="8.9382837"><ele>309.0</ele><time>2026-04-03T09:28:22.829Z</time></trkpt><trkpt lat="44.5257852" lon="8.9382504"><ele>307.0</ele><time>2026-04-03T09:28:23.829Z</time></trkpt><trkpt lat="44.5255803" lon="8.9381438"><ele>305.0</ele><time>2026-04-03T09:28:24.829Z</time></trkpt><trkpt lat="44.5253969" lon="8.9379862"><ele>306.0</ele><time>2026-04-03T09:28:25.828Z</time></trkpt><trkpt lat="44.525224" lon="8.9378147"><ele>307.0</ele><time>2026-04-03T09:28:26.829Z</time></trkpt><trkpt lat="44.5250466" lon="8.9376475"><ele>308.0</ele><time>2026-04-03T09:28:27.829Z</time></trkpt><trkpt lat="44.5248726" lon="8.9375123"><ele>308.0</ele><time>2026-04-03T09:28:28.829Z</time></trkpt><trkpt lat="44.5246829" lon="8.9374069"><ele>308.0</ele><time>2026-04-03T09:28:29.828Z</time></trkpt><trkpt lat="44.5244804" lon="8.9373424"><ele>308.0</ele><time>2026-04-03T09:28:30.829Z</time></trkpt><trkpt lat="44.5242777" lon="8.9373268"><ele>304.33333333333337</ele><time>2026-04-03T09:28:31.829Z</time></trkpt><trkpt lat="44.5240602" lon="8.9373528"><ele>300.6666666666667</ele><time>2026-04-03T09:28:32.829Z</time></trkpt><trkpt lat="44.5238528" lon="8.9374091"><ele>297.0</ele><time>2026-04-03T09:28:33.829Z</time></trkpt><trkpt lat="44.5236552" lon="8.9374593"><ele>296.3333333333333</ele><time>2026-04-03T09:28:34.828Z</time></trkpt><trkpt lat="44.5234547" lon="8.9374727"><ele>295.66666666666663</ele><time>2026-04-03T09:28:35.829Z</time></trkpt><trkpt lat="44.5232742" lon="8.9374205"><ele>295.0</ele><time>2026-04-03T09:28:36.829Z</time></trkpt><trkpt lat="44.5230992" lon="8.9373085"><ele>295.0</ele><time>2026-04-03T09:28:37.829Z</time></trkpt><trkpt lat="44.5229343" lon="8.9371616"><ele>295.0</ele><time>2026-04-03T09:28:38.829Z</time></trkpt><trkpt lat="44.5227728" lon="8.9370179"><ele>295.0</ele><time>2026-04-03T09:28:39.829Z</time></trkpt><trkpt lat="44.5225885" lon="8.9368891"><ele>294.66666666666663</ele><time>2026-04-03T09:28:40.828Z</time></trkpt><trkpt lat="44.5223956" lon="8.9368055"><ele>294.3333333333333</ele><time>2026-04-03T09:28:41.828Z</time></trkpt><trkpt lat="44.5222009" lon="8.9367406"><ele>294.0</ele><time>2026-04-03T09:28:42.828Z</time></trkpt><trkpt lat="44.5220037" lon="8.9366717"><ele>294.0</ele><time>2026-04-03T09:28:43.829Z</time></trkpt><trkpt lat="44.5218232" lon="8.9366294"><ele>294.0</ele><time>2026-04-03T09:28:44.829Z</time></trkpt><trkpt lat="44.5216379" lon="8.9366347"><ele>294.0</ele><time>2026-04-03T09:28:45.829Z</time></trkpt><trkpt lat="44.5214603" lon="8.9366952"><ele>285.0</ele><time>2026-04-03T09:28:46.828Z</time></trkpt><trkpt lat="44.5212935" lon="8.9367804"><ele>276.0</ele><time>2026-04-03T09:28:47.829Z</time></trkpt><trkpt lat="44.5211165" lon="8.9368727"><ele>267.0</ele><time>2026-04-03T09:28:48.829Z</time></trkpt><trkpt lat="44.5209441" lon="8.9369543"><ele>266.6666666666667</ele><time>2026-04-03T09:28:49.828Z</time></trkpt><trkpt lat="44.520769" lon="8.9370194"><ele>266.33333333333337</ele><time>2026-04-03T09:28:50.829Z</time></trkpt><trkpt lat="44.5205819" lon="8.9370459"><ele>266.0</ele><time>2026-04-03T09:28:51.828Z</time></trkpt><trkpt lat="44.5204003" lon="8.9370297"><ele>265.33333333333337</ele><time>2026-04-03T09:28:52.828Z</time></trkpt><trkpt lat="44.5202076" lon="8.9369892"><ele>264.6666666666667</ele><time>2026-04-03T09:28:53.829Z</time></trkpt><trkpt lat="44.5200098" lon="8.9369351"><ele>264.0</ele><time>2026-04-03T09:28:54.829Z</time></trkpt><trkpt lat="44.5198214" lon="8.9368786"><ele>264.0</ele><time>2026-04-03T09:28:55.829Z</time></trkpt><trkpt lat="44.5196269" lon="8.9368145"><ele>264.0</ele><time>2026-04-03T09:28:56.829Z</time></trkpt><trkpt lat="44.5194489" lon="8.9367344"><ele>264.0</ele><time>2026-04-03T09:28:57.829Z</time></trkpt><trkpt lat="44.5192861" lon="8.9366229"><ele>265.3333333333333</ele><time>2026-04-03T09:28:58.829Z</time></trkpt><trkpt lat="44.5191397" lon="8.9364635"><ele>266.66666666666663</ele><time>2026-04-03T09:28:59.828Z</time></trkpt><trkpt lat="44.5190293" lon="8.9362753"><ele>268.0</ele><time>2026-04-03T09:29:00.828Z</time></trkpt><trkpt lat="44.5189504" lon="8.9360502"><ele>273.0</ele><time>2026-04-03T09:29:01.829Z</time></trkpt><trkpt lat="44.5189108" lon="8.9358068"><ele>278.0</ele><time>2026-04-03T09:29:02.829Z</time></trkpt><trkpt lat="44.5189101" lon="8.9355655"><ele>283.0</ele><time>2026-04-03T09:29:03.828Z</time></trkpt><trkpt lat="44.5189358" lon="8.9353115"><ele>283.0</ele><time>2026-04-03T09:29:04.828Z</time></trkpt><trkpt lat="44.5189665" lon="8.9350701"><ele>283.0</ele><time>2026-04-03T09:29:05.829Z</time></trkpt><trkpt lat="44.5189801" lon="8.9348351"><ele>283.0</ele><time>2026-04-03T09:29:06.829Z</time></trkpt><trkpt lat="44.5189642" lon="8.9345992"><ele>282.66666666666663</ele><time>2026-04-03T09:29:07.829Z</time></trkpt><trkpt lat="44.5189152" lon="8.9343926"><ele>282.3333333333333</ele><time>2026-04-03T09:29:08.828Z</time></trkpt><trkpt lat="44.5188296" lon="8.9342028"><ele>282.0</ele><time>2026-04-03T09:29:09.829Z</time></trkpt><trkpt lat="44.5187134" lon="8.9340477"><ele>278.3333333333333</ele><time>2026-04-03T09:29:10.829Z</time></trkpt><trkpt lat="44.5185757" lon="8.9339396"><ele>274.66666666666663</ele><time>2026-04-03T09:29:11.828Z</time></trkpt><trkpt lat="44.5184092" lon="8.933867"><ele>271.0</ele><time>2026-04-03T09:29:12.829Z</time></trkpt><trkpt lat="44.5182387" lon="8.933812"><ele>271.0</ele><time>2026-04-03T09:29:13.829Z</time></trkpt><trkpt lat="44.518068" lon="8.9337598"><ele>271.0</ele><time>2026-04-03T09:29:14.829Z</time></trkpt><trkpt lat="44.51789" lon="8.933709"><ele>271.0</ele><time>2026-04-03T09:29:15.829Z</time></trkpt><trkpt lat="44.5177209" lon="8.9336635"><ele>273.0</ele><time>2026-04-03T09:29:16.828Z</time></trkpt><trkpt lat="44.5175484" lon="8.9336169"><ele>275.0</ele><time>2026-04-03T09:29:17.829Z</time></trkpt><trkpt lat="44.5173802" lon="8.9335763"><ele>277.0</ele><time>2026-04-03T09:29:18.829Z</time></trkpt><trkpt lat="44.5172199" lon="8.9335586"><ele>273.66666666666663</ele><time>2026-04-03T09:29:19.829Z</time></trkpt><trkpt lat="44.5170523" lon="8.9335827"><ele>270.3333333333333</ele><time>2026-04-03T09:29:20.828Z</time></trkpt><trkpt lat="44.516872" lon="8.9336498"><ele>267.0</ele><time>2026-04-03T09:29:21.829Z</time></trkpt><trkpt lat="44.5167202" lon="8.9337635"><ele>267.0</ele><time>2026-04-03T09:29:22.829Z</time></trkpt><trkpt lat="44.516585" lon="8.9339249"><ele>267.0</ele><time>2026-04-03T09:29:23.829Z</time></trkpt><trkpt lat="44.5164845" lon="8.9341185"><ele>267.0</ele><time>2026-04-03T09:29:24.828Z</time></trkpt><trkpt lat="44.5163992" lon="8.9343386"><ele>270.3333333333333</ele><time>2026-04-03T09:29:25.829Z</time></trkpt><trkpt lat="44.5163175" lon="8.9345659"><ele>273.66666666666663</ele><time>2026-04-03T09:29:26.829Z</time></trkpt><trkpt lat="44.5162392" lon="8.9347828"><ele>277.0</ele><time>2026-04-03T09:29:27.829Z</time></trkpt><trkpt lat="44.5161497" lon="8.9350062"><ele>268.0</ele><time>2026-04-03T09:29:28.828Z</time></trkpt><trkpt lat="44.516045" lon="8.9352052"><ele>259.0</ele><time>2026-04-03T09:29:29.829Z</time></trkpt><trkpt lat="44.5159191" lon="8.9353789"><ele>250.0</ele><time>2026-04-03T09:29:30.829Z</time></trkpt><trkpt lat="44.5157663" lon="8.9355308"><ele>250.0</ele><time>2026-04-03T09:29:31.829Z</time></trkpt><trkpt lat="44.5156075" lon="8.9356566"><ele>250.0</ele><time>2026-04-03T09:29:32.829Z</time></trkpt><trkpt lat="44.5154362" lon="8.9357744"><ele>250.0</ele><time>2026-04-03T09:29:33.828Z</time></trkpt><trkpt lat="44.5152606" lon="8.9358806"><ele>245.0</ele><time>2026-04-03T09:29:34.829Z</time></trkpt><trkpt lat="44.5150886" lon="8.9359739"><ele>240.0</ele><time>2026-04-03T09:29:35.829Z</time></trkpt><trkpt lat="44.5149049" lon="8.9360676"><ele>235.0</ele><time>2026-04-03T09:29:36.828Z</time></trkpt><trkpt lat="44.5147271" lon="8.9361547"><ele>237.33333333333331</ele><time>2026-04-03T09:29:37.829Z</time></trkpt><trkpt lat="44.514548" lon="8.9362389"><ele>239.66666666666669</ele><time>2026-04-03T09:29:38.829Z</time></trkpt><trkpt lat="44.5143609" lon="8.9363224"><ele>242.0</ele><time>2026-04-03T09:29:39.829Z</time></trkpt><trkpt lat="44.5141818" lon="8.9363895"><ele>242.0</ele><time>2026-04-03T09:29:40.829Z</time></trkpt><trkpt lat="44.5139897" lon="8.9364304"><ele>242.0</ele><time>2026-04-03T09:29:41.829Z</time></trkpt><trkpt lat="44.5137948" lon="8.9364372"><ele>242.0</ele><time>2026-04-03T09:29:42.829Z</time></trkpt><trkpt lat="44.5136075" lon="8.9364231"><ele>240.0</ele><time>2026-04-03T09:29:43.829Z</time></trkpt><trkpt lat="44.5134133" lon="8.9363889"><ele>238.0</ele><time>2026-04-03T09:29:44.829Z</time></trkpt><trkpt lat="44.5132343" lon="8.9363213"><ele>236.0</ele><time>2026-04-03T09:29:45.829Z</time></trkpt><trkpt lat="44.5130688" lon="8.9362168"><ele>236.0</ele><time>2026-04-03T09:29:46.829Z</time></trkpt><trkpt lat="44.5129159" lon="8.9360703"><ele>236.0</ele><time>2026-04-03T09:29:47.828Z</time></trkpt><trkpt lat="44.5127909" lon="8.9359056"><ele>236.0</ele><time>2026-04-03T09:29:48.829Z</time></trkpt><trkpt lat="44.5126821" lon="8.9357222"><ele>234.33333333333334</ele><time>2026-04-03T09:29:49.829Z</time></trkpt><trkpt lat="44.5125857" lon="8.935537"><ele>232.66666666666669</ele><time>2026-04-03T09:29:50.829Z</time></trkpt><trkpt lat="44.5124966" lon="8.9353638"><ele>231.0</ele><time>2026-04-03T09:29:51.829Z</time></trkpt><trkpt lat="44.5124021" lon="8.9351811"><ele>233.0</ele><time>2026-04-03T09:29:52.829Z</time></trkpt><trkpt lat="44.5123172" lon="8.9350028"><ele>235.0</ele><time>2026-04-03T09:29:53.829Z</time></trkpt><trkpt lat="44.5122442" lon="8.9348126"><ele>237.0</ele><time>2026-04-03T09:29:54.828Z</time></trkpt><trkpt lat="44.5121927" lon="8.9346039"><ele>237.0</ele><time>2026-04-03T09:29:55.829Z</time></trkpt><trkpt lat="44.5121661" lon="8.9344038"><ele>237.0</ele><time>2026-04-03T09:29:56.829Z</time></trkpt><trkpt lat="44.5121596" lon="8.9341954"><ele>237.0</ele><time>2026-04-03T09:29:57.829Z</time></trkpt><trkpt lat="44.5121768" lon="8.9339888"><ele>237.0</ele><time>2026-04-03T09:29:58.828Z</time></trkpt><trkpt lat="44.5122159" lon="8.9337977"><ele>237.66666666666669</ele><time>2026-04-03T09:29:59.829Z</time></trkpt><trkpt lat="44.5122785" lon="8.9336033"><ele>238.33333333333334</ele><time>2026-04-03T09:30:00.829Z</time></trkpt><trkpt lat="44.5123526" lon="8.9334219"><ele>239.0</ele><time>2026-04-03T09:30:01.829Z</time></trkpt><trkpt lat="44.5124267" lon="8.933236"><ele>236.0</ele><time>2026-04-03T09:30:02.829Z</time></trkpt><trkpt lat="44.5124903" lon="8.9330321"><ele>233.0</ele><time>2026-04-03T09:30:03.829Z</time></trkpt><trkpt lat="44.5125296" lon="8.9328273"><ele>230.0</ele><time>2026-04-03T09:30:04.829Z</time></trkpt><trkpt lat="44.512544" lon="8.9326044"><ele>227.66666666666669</ele><time>2026-04-03T09:30:05.828Z</time></trkpt><trkpt lat="44.512536" lon="8.9323745"><ele>225.33333333333331</ele><time>2026-04-03T09:30:06.829Z</time></trkpt><trkpt lat="44.5125205" lon="8.9321417"><ele>223.0</ele><time>2026-04-03T09:30:07.829Z</time></trkpt><trkpt lat="44.5124998" lon="8.9318862"><ele>228.0</ele><time>2026-04-03T09:30:08.828Z</time></trkpt><trkpt lat="44.5124782" lon="8.9316336"><ele>233.0</ele><time>2026-04-03T09:30:09.829Z</time></trkpt><trkpt lat="44.5124561" lon="8.9313764"><ele>238.0</ele><time>2026-04-03T09:30:10.829Z</time></trkpt><trkpt lat="44.5124326" lon="8.9311066"><ele>243.66666666666666</ele><time>2026-04-03T09:30:11.828Z</time></trkpt><trkpt lat="44.512409" lon="8.9308516"><ele>249.33333333333331</ele><time>2026-04-03T09:30:12.829Z</time></trkpt><trkpt lat="44.512383" lon="8.9305856"><ele>255.0</ele><time>2026-04-03T09:30:13.829Z</time></trkpt><trkpt lat="44.5123574" lon="8.930326"><ele>255.0</ele><time>2026-04-03T09:30:14.829Z</time></trkpt><trkpt lat="44.5123315" lon="8.9300677"><ele>255.0</ele><time>2026-04-03T09:30:15.829Z</time></trkpt><trkpt lat="44.5123036" lon="8.929801"><ele>255.0</ele><time>2026-04-03T09:30:16.829Z</time></trkpt><trkpt lat="44.512277" lon="8.9295535"><ele>257.3333333333333</ele><time>2026-04-03T09:30:17.829Z</time></trkpt><trkpt lat="44.5122509" lon="8.929315"><ele>259.66666666666663</ele><time>2026-04-03T09:30:18.829Z</time></trkpt><trkpt lat="44.5122086" lon="8.9290651"><ele>262.0</ele><time>2026-04-03T09:30:19.829Z</time></trkpt><trkpt lat="44.5122037" lon="8.9287247"><ele>255.33333333333331</ele><time>2026-04-03T09:30:20.829Z</time></trkpt><trkpt lat="44.5121064" lon="8.9284895"><ele>248.66666666666669</ele><time>2026-04-03T09:30:21.829Z</time></trkpt><trkpt lat="44.511977" lon="8.9282936"><ele>242.0</ele><time>2026-04-03T09:30:22.829Z</time></trkpt><trkpt lat="44.5118211" lon="8.9281429"><ele>232.66666666666669</ele><time>2026-04-03T09:30:23.829Z</time></trkpt><trkpt lat="44.5116257" lon="8.9280214"><ele>223.33333333333331</ele><time>2026-04-03T09:30:24.829Z</time></trkpt><trkpt lat="44.5114211" lon="8.9279192"><ele>214.0</ele><time>2026-04-03T09:30:25.829Z</time></trkpt><trkpt lat="44.5112051" lon="8.9278189"><ele>208.5</ele><time>2026-04-03T09:30:26.828Z</time></trkpt><trkpt lat="44.5109804" lon="8.9277079"><ele>203.0</ele><time>2026-04-03T09:30:27.829Z</time></trkpt><trkpt lat="44.5107674" lon="8.9276026"><ele>203.5</ele><time>2026-04-03T09:30:28.829Z</time></trkpt><trkpt lat="44.5105435" lon="8.9274948"><ele>204.0</ele><time>2026-04-03T09:30:29.828Z</time></trkpt><trkpt lat="44.5103172" lon="8.9273889"><ele>204.0</ele><time>2026-04-03T09:30:30.829Z</time></trkpt><trkpt lat="44.5100954" lon="8.9272874"><ele>204.0</ele><time>2026-04-03T09:30:31.829Z</time></trkpt><trkpt lat="44.5098568" lon="8.9271754"><ele>204.0</ele><time>2026-04-03T09:30:32.828Z</time></trkpt><trkpt lat="44.5096264" lon="8.9270625"><ele>204.0</ele><time>2026-04-03T09:30:33.829Z</time></trkpt><trkpt lat="44.5093957" lon="8.9269468"><ele>206.0</ele><time>2026-04-03T09:30:34.829Z</time></trkpt><trkpt lat="44.5091617" lon="8.9268272"><ele>208.0</ele><time>2026-04-03T09:30:35.829Z</time></trkpt><trkpt lat="44.5089318" lon="8.9267108"><ele>208.0</ele><time>2026-04-03T09:30:36.829Z</time></trkpt><trkpt lat="44.5086987" lon="8.9265962"><ele>208.0</ele><time>2026-04-03T09:30:37.829Z</time></trkpt><trkpt lat="44.5084644" lon="8.9264817"><ele>208.0</ele><time>2026-04-03T09:30:38.828Z</time></trkpt><trkpt lat="44.5082432" lon="8.9263698"><ele>208.0</ele><time>2026-04-03T09:30:39.829Z</time></trkpt><trkpt lat="44.5080146" lon="8.926241"><ele>202.0</ele><time>2026-04-03T09:30:40.829Z</time></trkpt><trkpt lat="44.507801" lon="8.9261102"><ele>196.0</ele><time>2026-04-03T09:30:41.829Z</time></trkpt><trkpt lat="44.5075903" lon="8.9259813"><ele>199.0</ele><time>2026-04-03T09:30:42.829Z</time></trkpt><trkpt lat="44.5073705" lon="8.9258623"><ele>202.0</ele><time>2026-04-03T09:30:43.829Z</time></trkpt><trkpt lat="44.507155" lon="8.9257741"><ele>198.0</ele><time>2026-04-03T09:30:44.828Z</time></trkpt><trkpt lat="44.5069286" lon="8.9257215"><ele>194.0</ele><time>2026-04-03T09:30:45.829Z</time></trkpt><trkpt lat="44.5067112" lon="8.9256991"><ele>190.0</ele><time>2026-04-03T09:30:46.828Z</time></trkpt><trkpt lat="44.5064953" lon="8.9256775"><ele>190.0</ele><time>2026-04-03T09:30:47.829Z</time></trkpt><trkpt lat="44.5062777" lon="8.9256226"><ele>190.0</ele><time>2026-04-03T09:30:48.829Z</time></trkpt><trkpt lat="44.5060754" lon="8.9255161"><ele>190.0</ele><time>2026-04-03T09:30:49.828Z</time></trkpt><trkpt lat="44.5058964" lon="8.9253636"><ele>191.5</ele><time>2026-04-03T09:30:50.828Z</time></trkpt><trkpt lat="44.5057147" lon="8.9251584"><ele>193.0</ele><time>2026-04-03T09:30:51.828Z</time></trkpt><trkpt lat="44.5055431" lon="8.9249494"><ele>186.33333333333331</ele><time>2026-04-03T09:30:52.828Z</time></trkpt><trkpt lat="44.5053753" lon="8.9247421"><ele>179.66666666666666</ele><time>2026-04-03T09:30:53.828Z</time></trkpt><trkpt lat="44.5052125" lon="8.9245369"><ele>173.0</ele><time>2026-04-03T09:30:54.829Z</time></trkpt><trkpt lat="44.5050501" lon="8.9243234"><ele>180.0</ele><time>2026-04-03T09:30:55.828Z</time></trkpt><trkpt lat="44.5048919" lon="8.9240844"><ele>187.0</ele><time>2026-04-03T09:30:56.829Z</time></trkpt><trkpt lat="44.5047546" lon="8.9238251"><ele>187.0</ele><time>2026-04-03T09:30:57.828Z</time></trkpt><trkpt lat="44.5046301" lon="8.9235633"><ele>187.0</ele><time>2026-04-03T09:30:58.829Z</time></trkpt><trkpt lat="44.5044977" lon="8.9232895"><ele>187.0</ele><time>2026-04-03T09:30:59.829Z</time></trkpt><trkpt lat="44.5043952" lon="8.9230371"><ele>187.0</ele><time>2026-04-03T09:31:00.828Z</time></trkpt><trkpt lat="44.5043245" lon="8.9227681"><ele>187.0</ele><time>2026-04-03T09:31:01.829Z</time></trkpt><trkpt lat="44.5042834" lon="8.9224882"><ele>182.66666666666669</ele><time>2026-04-03T09:31:02.829Z</time></trkpt><trkpt lat="44.5042668" lon="8.922189"><ele>178.33333333333334</ele><time>2026-04-03T09:31:03.829Z</time></trkpt><trkpt lat="44.504255" lon="8.9219006"><ele>174.0</ele><time>2026-04-03T09:31:04.828Z</time></trkpt><trkpt lat="44.5042135" lon="8.9216386"><ele>174.0</ele><time>2026-04-03T09:31:05.829Z</time></trkpt><trkpt lat="44.5041352" lon="8.9214095"><ele>174.0</ele><time>2026-04-03T09:31:06.829Z</time></trkpt><trkpt lat="44.5040227" lon="8.9212084"><ele>174.0</ele><time>2026-04-03T09:31:07.829Z</time></trkpt><trkpt lat="44.5038858" lon="8.9210395"><ele>173.0</ele><time>2026-04-03T09:31:08.828Z</time></trkpt><trkpt lat="44.5037342" lon="8.920896"><ele>172.0</ele><time>2026-04-03T09:31:09.829Z</time></trkpt><trkpt lat="44.5035742" lon="8.9207836"><ele>171.0</ele><time>2026-04-03T09:31:10.829Z</time></trkpt><trkpt lat="44.503408" lon="8.9207202"><ele>171.0</ele><time>2026-04-03T09:31:11.829Z</time></trkpt><trkpt lat="44.5032277" lon="8.9207062"><ele>171.0</ele><time>2026-04-03T09:31:12.829Z</time></trkpt><trkpt lat="44.5030551" lon="8.9207386"><ele>171.0</ele><time>2026-04-03T09:31:13.829Z</time></trkpt><trkpt lat="44.5028973" lon="8.9208201"><ele>169.33333333333334</ele><time>2026-04-03T09:31:14.828Z</time></trkpt><trkpt lat="44.5027418" lon="8.920958"><ele>167.66666666666669</ele><time>2026-04-03T09:31:15.828Z</time></trkpt><trkpt lat="44.502616" lon="8.9211225"><ele>166.0</ele><time>2026-04-03T09:31:16.829Z</time></trkpt><trkpt lat="44.5025019" lon="8.9213111"><ele>166.0</ele><time>2026-04-03T09:31:17.828Z</time></trkpt><trkpt lat="44.502392" lon="8.9214941"><ele>166.0</ele><time>2026-04-03T09:31:18.829Z</time></trkpt><trkpt lat="44.5022673" lon="8.9216554"><ele>166.0</ele><time>2026-04-03T09:31:19.829Z</time></trkpt><trkpt lat="44.5021192" lon="8.9217856"><ele>160.33333333333334</ele><time>2026-04-03T09:31:20.829Z</time></trkpt><trkpt lat="44.5019616" lon="8.9218675"><ele>154.66666666666666</ele><time>2026-04-03T09:31:21.829Z</time></trkpt><trkpt lat="44.5017901" lon="8.9218948"><ele>149.0</ele><time>2026-04-03T09:31:22.829Z</time></trkpt><trkpt lat="44.5016128" lon="8.9218596"><ele>149.0</ele><time>2026-04-03T09:31:23.829Z</time></trkpt><trkpt lat="44.501447" lon="8.9217634"><ele>149.0</ele><time>2026-04-03T09:31:24.829Z</time></trkpt><trkpt lat="44.5012993" lon="8.9216131"><ele>149.0</ele><time>2026-04-03T09:31:25.829Z</time></trkpt><trkpt lat="44.5011691" lon="8.9214349"><ele>150.0</ele><time>2026-04-03T09:31:26.829Z</time></trkpt><trkpt lat="44.5010436" lon="8.9212546"><ele>151.0</ele><time>2026-04-03T09:31:27.829Z</time></trkpt><trkpt lat="44.5009111" lon="8.9210681"><ele>152.0</ele><time>2026-04-03T09:31:28.829Z</time></trkpt><trkpt lat="44.5007845" lon="8.9208887"><ele>154.33333333333331</ele><time>2026-04-03T09:31:29.828Z</time></trkpt><trkpt lat="44.5006752" lon="8.920703"><ele>156.66666666666666</ele><time>2026-04-03T09:31:30.829Z</time></trkpt><trkpt lat="44.5005849" lon="8.9204824"><ele>159.0</ele><time>2026-04-03T09:31:31.829Z</time></trkpt><trkpt lat="44.5005282" lon="8.9202514"><ele>161.0</ele><time>2026-04-03T09:31:32.828Z</time></trkpt><trkpt lat="44.5004947" lon="8.9200051"><ele>163.0</ele><time>2026-04-03T09:31:33.829Z</time></trkpt><trkpt lat="44.5004748" lon="8.9197701"><ele>165.0</ele><time>2026-04-03T09:31:34.829Z</time></trkpt><trkpt lat="44.5004511" lon="8.9195299"><ele>158.66666666666666</ele><time>2026-04-03T09:31:35.828Z</time></trkpt><trkpt lat="44.5004039" lon="8.9192892"><ele>152.33333333333331</ele><time>2026-04-03T09:31:36.829Z</time></trkpt><trkpt lat="44.5003249" lon="8.9190728"><ele>146.0</ele><time>2026-04-03T09:31:37.828Z</time></trkpt><trkpt lat="44.500214" lon="8.9188875"><ele>146.0</ele><time>2026-04-03T09:31:38.828Z</time></trkpt><trkpt lat="44.5000729" lon="8.9187327"><ele>146.0</ele><time>2026-04-03T09:31:39.828Z</time></trkpt><trkpt lat="44.4999096" lon="8.9186253"><ele>146.0</ele><time>2026-04-03T09:31:40.828Z</time></trkpt><trkpt lat="44.4997346" lon="8.9185766"><ele>146.33333333333331</ele><time>2026-04-03T09:31:41.829Z</time></trkpt><trkpt lat="44.4995642" lon="8.9185917"><ele>146.66666666666666</ele><time>2026-04-03T09:31:42.829Z</time></trkpt><trkpt lat="44.4993952" lon="8.9186628"><ele>147.0</ele><time>2026-04-03T09:31:43.829Z</time></trkpt><trkpt lat="44.4992197" lon="8.918767"><ele>147.0</ele><time>2026-04-03T09:31:44.829Z</time></trkpt><trkpt lat="44.4990477" lon="8.9188828"><ele>147.0</ele><time>2026-04-03T09:31:45.828Z</time></trkpt><trkpt lat="44.4988773" lon="8.9189954"><ele>147.0</ele><time>2026-04-03T09:31:46.829Z</time></trkpt><trkpt lat="44.4986905" lon="8.919085"><ele>145.66666666666666</ele><time>2026-04-03T09:31:47.828Z</time></trkpt><trkpt lat="44.4985003" lon="8.9191164"><ele>144.33333333333331</ele><time>2026-04-03T09:31:48.829Z</time></trkpt><trkpt lat="44.4983037" lon="8.9190914"><ele>143.0</ele><time>2026-04-03T09:31:49.828Z</time></trkpt><trkpt lat="44.4981158" lon="8.919013"><ele>140.33333333333331</ele><time>2026-04-03T09:31:50.828Z</time></trkpt><trkpt lat="44.4979174" lon="8.9188986"><ele>137.66666666666666</ele><time>2026-04-03T09:31:51.829Z</time></trkpt><trkpt lat="44.4977081" lon="8.9187729"><ele>135.0</ele><time>2026-04-03T09:31:52.829Z</time></trkpt><trkpt lat="44.4975055" lon="8.9186487"><ele>135.0</ele><time>2026-04-03T09:31:53.829Z</time></trkpt><trkpt lat="44.4973138" lon="8.9185242"><ele>135.0</ele><time>2026-04-03T09:31:54.828Z</time></trkpt><trkpt lat="44.4971118" lon="8.9183931"><ele>135.0</ele><time>2026-04-03T09:31:55.829Z</time></trkpt><trkpt lat="44.4969169" lon="8.9182715"><ele>136.33333333333334</ele><time>2026-04-03T09:31:56.828Z</time></trkpt><trkpt lat="44.4967258" lon="8.9181556"><ele>137.66666666666669</ele><time>2026-04-03T09:31:57.829Z</time></trkpt><trkpt lat="44.4965407" lon="8.9180638"><ele>139.0</ele><time>2026-04-03T09:31:58.829Z</time></trkpt><trkpt lat="44.4963434" lon="8.9180178"><ele>137.0</ele><time>2026-04-03T09:31:59.829Z</time></trkpt><trkpt lat="44.4961358" lon="8.9180283"><ele>135.0</ele><time>2026-04-03T09:32:00.828Z</time></trkpt><trkpt lat="44.4959296" lon="8.9180641"><ele>133.0</ele><time>2026-04-03T09:32:01.829Z</time></trkpt><trkpt lat="44.4957292" lon="8.9180991"><ele>133.0</ele><time>2026-04-03T09:32:02.829Z</time></trkpt><trkpt lat="44.495515" lon="8.918134"><ele>133.0</ele><time>2026-04-03T09:32:03.828Z</time></trkpt><trkpt lat="44.4953097" lon="8.9181679"><ele>133.0</ele><time>2026-04-03T09:32:04.828Z</time></trkpt><trkpt lat="44.4951076" lon="8.918202"><ele>132.66666666666669</ele><time>2026-04-03T09:32:05.828Z</time></trkpt><trkpt lat="44.494919" lon="8.9182383"><ele>132.33333333333334</ele><time>2026-04-03T09:32:06.829Z</time></trkpt><trkpt lat="44.4947329" lon="8.9182978"><ele>132.0</ele><time>2026-04-03T09:32:07.828Z</time></trkpt><trkpt lat="44.4945544" lon="8.9184023"><ele>130.0</ele><time>2026-04-03T09:32:08.829Z</time></trkpt><trkpt lat="44.4943995" lon="8.9185526"><ele>128.0</ele><time>2026-04-03T09:32:09.829Z</time></trkpt><trkpt lat="44.4942677" lon="8.9187279"><ele>126.0</ele><time>2026-04-03T09:32:10.828Z</time></trkpt><trkpt lat="44.4941366" lon="8.9189272"><ele>126.0</ele><time>2026-04-03T09:32:11.828Z</time></trkpt><trkpt lat="44.4940024" lon="8.9191064"><ele>126.0</ele><time>2026-04-03T09:32:12.829Z</time></trkpt><trkpt lat="44.4938511" lon="8.9192579"><ele>126.0</ele><time>2026-04-03T09:32:13.829Z</time></trkpt><trkpt lat="44.4936853" lon="8.9193706"><ele>122.33333333333334</ele><time>2026-04-03T09:32:14.829Z</time></trkpt><trkpt lat="44.493499" lon="8.919453"><ele>118.66666666666667</ele><time>2026-04-03T09:32:15.829Z</time></trkpt><trkpt lat="44.4933027" lon="8.9195159"><ele>115.0</ele><time>2026-04-03T09:32:16.829Z</time></trkpt><trkpt lat="44.4931181" lon="8.9195927"><ele>115.0</ele><time>2026-04-03T09:32:17.829Z</time></trkpt><trkpt lat="44.4929478" lon="8.9197041"><ele>115.0</ele><time>2026-04-03T09:32:18.828Z</time></trkpt><trkpt lat="44.4927651" lon="8.9198437"><ele>115.0</ele><time>2026-04-03T09:32:19.829Z</time></trkpt><trkpt lat="44.4925821" lon="8.9199541"><ele>115.0</ele><time>2026-04-03T09:32:20.829Z</time></trkpt><trkpt lat="44.4923893" lon="8.9200161"><ele>115.0</ele><time>2026-04-03T09:32:21.829Z</time></trkpt><trkpt lat="44.4921954" lon="8.9200302"><ele>115.0</ele><time>2026-04-03T09:32:22.829Z</time></trkpt><trkpt lat="44.4920009" lon="8.9199808"><ele>115.0</ele><time>2026-04-03T09:32:23.829Z</time></trkpt><trkpt lat="44.491816" lon="8.919868"><ele>115.0</ele><time>2026-04-03T09:32:24.829Z</time></trkpt><trkpt lat="44.4916553" lon="8.9197145"><ele>115.0</ele><time>2026-04-03T09:32:25.829Z</time></trkpt><trkpt lat="44.4915109" lon="8.9195488"><ele>115.0</ele><time>2026-04-03T09:32:26.829Z</time></trkpt><trkpt lat="44.4913504" lon="8.9193893"><ele>115.0</ele><time>2026-04-03T09:32:27.828Z</time></trkpt><trkpt lat="44.4911765" lon="8.9192724"><ele>115.0</ele><time>2026-04-03T09:32:28.828Z</time></trkpt><trkpt lat="44.4909892" lon="8.919207"><ele>113.66666666666667</ele><time>2026-04-03T09:32:29.828Z</time></trkpt><trkpt lat="44.4908004" lon="8.9191833"><ele>112.33333333333334</ele><time>2026-04-03T09:32:30.828Z</time></trkpt><trkpt lat="44.4906039" lon="8.9191776"><ele>111.0</ele><time>2026-04-03T09:32:31.829Z</time></trkpt><trkpt lat="44.4904022" lon="8.9191754"><ele>111.0</ele><time>2026-04-03T09:32:32.829Z</time></trkpt><trkpt lat="44.4902093" lon="8.91917"><ele>111.0</ele><time>2026-04-03T09:32:33.829Z</time></trkpt><trkpt lat="44.4900282" lon="8.9191551"><ele>111.0</ele><time>2026-04-03T09:32:34.828Z</time></trkpt><trkpt lat="44.4898428" lon="8.9191245"><ele>111.0</ele><time>2026-04-03T09:32:35.829Z</time></trkpt><trkpt lat="44.4896717" lon="8.919083"><ele>111.0</ele><time>2026-04-03T09:32:36.829Z</time></trkpt><trkpt lat="44.4895078" lon="8.9190321"><ele>111.0</ele><time>2026-04-03T09:32:37.829Z</time></trkpt><trkpt lat="44.4893535" lon="8.9189766"><ele>109.0</ele><time>2026-04-03T09:32:38.828Z</time></trkpt><trkpt lat="44.4891941" lon="8.9189201"><ele>107.0</ele><time>2026-04-03T09:32:39.829Z</time></trkpt><trkpt lat="44.489029" lon="8.9188707"><ele>105.0</ele><time>2026-04-03T09:32:40.829Z</time></trkpt><trkpt lat="44.4888636" lon="8.918846"><ele>106.66666666666666</ele><time>2026-04-03T09:32:41.829Z</time></trkpt><trkpt lat="44.4886976" lon="8.918858"><ele>108.33333333333333</ele><time>2026-04-03T09:32:42.828Z</time></trkpt><trkpt lat="44.4885189" lon="8.918912"><ele>110.0</ele><time>2026-04-03T09:32:43.829Z</time></trkpt><trkpt lat="44.488351" lon="8.9190013"><ele>110.0</ele><time>2026-04-03T09:32:44.828Z</time></trkpt><trkpt lat="44.4881931" lon="8.9191243"><ele>110.0</ele><time>2026-04-03T09:32:45.829Z</time></trkpt><trkpt lat="44.4880474" lon="8.9192678"><ele>110.0</ele><time>2026-04-03T09:32:46.829Z</time></trkpt><trkpt lat="44.4879004" lon="8.9194223"><ele>107.66666666666666</ele><time>2026-04-03T09:32:47.829Z</time></trkpt><trkpt lat="44.4877539" lon="8.9195758"><ele>105.33333333333334</ele><time>2026-04-03T09:32:48.829Z</time></trkpt><trkpt lat="44.4876163" lon="8.9197189"><ele>103.0</ele><time>2026-04-03T09:32:49.828Z</time></trkpt><trkpt lat="44.4874868" lon="8.9198494"><ele>103.0</ele><time>2026-04-03T09:32:50.829Z</time></trkpt><trkpt lat="44.487349" lon="8.9199748"><ele>103.0</ele><time>2026-04-03T09:32:51.829Z</time></trkpt><trkpt lat="44.4872126" lon="8.9200717"><ele>103.0</ele><time>2026-04-03T09:32:52.828Z</time></trkpt><trkpt lat="44.4870672" lon="8.9201353"><ele>97.66666666666667</ele><time>2026-04-03T09:32:53.829Z</time></trkpt><trkpt lat="44.4869201" lon="8.9201633"><ele>92.33333333333334</ele><time>2026-04-03T09:32:54.829Z</time></trkpt><trkpt lat="44.4867625" lon="8.9201574"><ele>87.0</ele><time>2026-04-03T09:32:55.829Z</time></trkpt><trkpt lat="44.4865992" lon="8.9201096"><ele>88.33333333333333</ele><time>2026-04-03T09:32:56.828Z</time></trkpt><trkpt lat="44.486446" lon="8.9200217"><ele>89.66666666666666</ele><time>2026-04-03T09:32:57.829Z</time></trkpt><trkpt lat="44.4863068" lon="8.9199071"><ele>91.0</ele><time>2026-04-03T09:32:58.829Z</time></trkpt><trkpt lat="44.4861621" lon="8.919783"><ele>91.0</ele><time>2026-04-03T09:32:59.829Z</time></trkpt><trkpt lat="44.4860157" lon="8.9196879"><ele>91.0</ele><time>2026-04-03T09:33:00.828Z</time></trkpt><trkpt lat="44.4858674" lon="8.9196094"><ele>91.0</ele><time>2026-04-03T09:33:01.828Z</time></trkpt><trkpt lat="44.4857245" lon="8.9195371"><ele>91.0</ele><time>2026-04-03T09:33:02.829Z</time></trkpt><trkpt lat="44.4855762" lon="8.9194656"><ele>91.0</ele><time>2026-04-03T09:33:03.828Z</time></trkpt><trkpt lat="44.4854194" lon="8.9193908"><ele>91.0</ele><time>2026-04-03T09:33:04.829Z</time></trkpt><trkpt lat="44.4852644" lon="8.9193337"><ele>88.33333333333333</ele><time>2026-04-03T09:33:05.828Z</time></trkpt><trkpt lat="44.4851137" lon="8.9193152"><ele>85.66666666666667</ele><time>2026-04-03T09:33:06.828Z</time></trkpt><trkpt lat="44.4849531" lon="8.9193419"><ele>83.0</ele><time>2026-04-03T09:33:07.829Z</time></trkpt><trkpt lat="44.4847976" lon="8.9194128"><ele>83.0</ele><time>2026-04-03T09:33:08.828Z</time></trkpt><trkpt lat="44.484648" lon="8.9195154"><ele>83.0</ele><time>2026-04-03T09:33:09.829Z</time></trkpt><trkpt lat="44.4845066" lon="8.9196355"><ele>83.0</ele><time>2026-04-03T09:33:10.829Z</time></trkpt><trkpt lat="44.4843589" lon="8.9197583"><ele>85.33333333333334</ele><time>2026-04-03T09:33:11.829Z</time></trkpt><trkpt lat="44.4841948" lon="8.9198599"><ele>87.66666666666667</ele><time>2026-04-03T09:33:12.829Z</time></trkpt><trkpt lat="44.4840242" lon="8.9199207"><ele>90.0</ele><time>2026-04-03T09:33:13.829Z</time></trkpt><trkpt lat="44.4838512" lon="8.9199365"><ele>89.66666666666667</ele><time>2026-04-03T09:33:14.828Z</time></trkpt><trkpt lat="44.483663" lon="8.9199021"><ele>89.33333333333334</ele><time>2026-04-03T09:33:15.829Z</time></trkpt><trkpt lat="44.4834828" lon="8.9198265"><ele>89.0</ele><time>2026-04-03T09:33:16.829Z</time></trkpt><trkpt lat="44.4833024" lon="8.9197426"><ele>89.0</ele><time>2026-04-03T09:33:17.828Z</time></trkpt><trkpt lat="44.4831236" lon="8.9196958"><ele>89.0</ele><time>2026-04-03T09:33:18.829Z</time></trkpt><trkpt lat="44.4829363" lon="8.9196989"><ele>89.0</ele><time>2026-04-03T09:33:19.828Z</time></trkpt><trkpt lat="44.4827466" lon="8.9197445"><ele>89.66666666666667</ele><time>2026-04-03T09:33:20.829Z</time></trkpt><trkpt lat="44.4825698" lon="8.9198109"><ele>90.33333333333333</ele><time>2026-04-03T09:33:21.829Z</time></trkpt><trkpt lat="44.4824008" lon="8.9198539"><ele>91.0</ele><time>2026-04-03T09:33:22.829Z</time></trkpt><trkpt lat="44.482222" lon="8.9198534"><ele>88.0</ele><time>2026-04-03T09:33:23.829Z</time></trkpt><trkpt lat="44.4820455" lon="8.9198078"><ele>85.0</ele><time>2026-04-03T09:33:24.829Z</time></trkpt><trkpt lat="44.481878" lon="8.919715"><ele>82.0</ele><time>2026-04-03T09:33:25.829Z</time></trkpt><trkpt lat="44.4817253" lon="8.9195885"><ele>82.0</ele><time>2026-04-03T09:33:26.828Z</time></trkpt><trkpt lat="44.4815748" lon="8.9194369"><ele>82.0</ele><time>2026-04-03T09:33:27.829Z</time></trkpt><trkpt lat="44.4814164" lon="8.9192846"><ele>82.0</ele><time>2026-04-03T09:33:28.828Z</time></trkpt><trkpt lat="44.4812552" lon="8.9191538"><ele>82.0</ele><time>2026-04-03T09:33:29.829Z</time></trkpt><trkpt lat="44.4810925" lon="8.9190475"><ele>82.0</ele><time>2026-04-03T09:33:30.828Z</time></trkpt><trkpt lat="44.4809156" lon="8.91895"><ele>82.0</ele><time>2026-04-03T09:33:31.828Z</time></trkpt><trkpt lat="44.4807491" lon="8.9188638"><ele>82.0</ele><time>2026-04-03T09:33:32.828Z</time></trkpt><trkpt lat="44.4805853" lon="8.9187999"><ele>82.0</ele><time>2026-04-03T09:33:33.828Z</time></trkpt><trkpt lat="44.4804265" lon="8.9187692"><ele>82.0</ele><time>2026-04-03T09:33:34.828Z</time></trkpt><trkpt lat="44.4802595" lon="8.9187446"><ele>79.33333333333333</ele><time>2026-04-03T09:33:35.828Z</time></trkpt><trkpt lat="44.4800884" lon="8.9186934"><ele>76.66666666666667</ele><time>2026-04-03T09:33:36.829Z</time></trkpt><trkpt lat="44.479928" lon="8.9186028"><ele>74.0</ele><time>2026-04-03T09:33:37.829Z</time></trkpt><trkpt lat="44.4797877" lon="8.9184742"><ele>74.33333333333334</ele><time>2026-04-03T09:33:38.828Z</time></trkpt><trkpt lat="44.4796604" lon="8.9183005"><ele>74.66666666666667</ele><time>2026-04-03T09:33:39.829Z</time></trkpt><trkpt lat="44.4795652" lon="8.9181052"><ele>75.0</ele><time>2026-04-03T09:33:40.829Z</time></trkpt><trkpt lat="44.4794919" lon="8.9178993"><ele>75.0</ele><time>2026-04-03T09:33:41.829Z</time></trkpt><trkpt lat="44.4794268" lon="8.9177051"><ele>75.0</ele><time>2026-04-03T09:33:42.828Z</time></trkpt><trkpt lat="44.4793485" lon="8.9175154"><ele>75.0</ele><time>2026-04-03T09:33:43.829Z</time></trkpt><trkpt lat="44.4792497" lon="8.9173289"><ele>77.0</ele><time>2026-04-03T09:33:44.829Z</time></trkpt><trkpt lat="44.4791479" lon="8.9171546"><ele>79.0</ele><time>2026-04-03T09:33:45.828Z</time></trkpt><trkpt lat="44.4790433" lon="8.9169737"><ele>81.0</ele><time>2026-04-03T09:33:46.829Z</time></trkpt><trkpt lat="44.478936" lon="8.91679"><ele>83.33333333333333</ele><time>2026-04-03T09:33:47.828Z</time></trkpt><trkpt lat="44.4788401" lon="8.9166211"><ele>85.66666666666666</ele><time>2026-04-03T09:33:48.829Z</time></trkpt><trkpt lat="44.4787517" lon="8.9164399"><ele>88.0</ele><time>2026-04-03T09:33:49.829Z</time></trkpt><trkpt lat="44.4786789" lon="8.9162447"><ele>83.0</ele><time>2026-04-03T09:33:50.829Z</time></trkpt><trkpt lat="44.4786149" lon="8.916039"><ele>78.0</ele><time>2026-04-03T09:33:51.829Z</time></trkpt><trkpt lat="44.4785576" lon="8.9158354"><ele>73.0</ele><time>2026-04-03T09:33:52.829Z</time></trkpt><trkpt lat="44.4785029" lon="8.9156333"><ele>73.0</ele><time>2026-04-03T09:33:53.829Z</time></trkpt><trkpt lat="44.4784557" lon="8.915427"><ele>73.0</ele><time>2026-04-03T09:33:54.829Z</time></trkpt><trkpt lat="44.478425" lon="8.9152049"><ele>73.0</ele><time>2026-04-03T09:33:55.829Z</time></trkpt><trkpt lat="44.4784107" lon="8.9149751"><ele>75.33333333333333</ele><time>2026-04-03T09:33:56.829Z</time></trkpt><trkpt lat="44.4784016" lon="8.914747"><ele>77.66666666666667</ele><time>2026-04-03T09:33:57.829Z</time></trkpt><trkpt lat="44.4783814" lon="8.9145141"><ele>80.0</ele><time>2026-04-03T09:33:58.829Z</time></trkpt><trkpt lat="44.4783371" lon="8.9142905"><ele>80.0</ele><time>2026-04-03T09:33:59.829Z</time></trkpt><trkpt lat="44.4782683" lon="8.9140759"><ele>80.0</ele><time>2026-04-03T09:34:00.828Z</time></trkpt><trkpt lat="44.4781822" lon="8.9138933"><ele>80.0</ele><time>2026-04-03T09:34:01.829Z</time></trkpt><trkpt lat="44.4780752" lon="8.9137313"><ele>80.0</ele><time>2026-04-03T09:34:02.828Z</time></trkpt><trkpt lat="44.4779502" lon="8.9135854"><ele>80.0</ele><time>2026-04-03T09:34:03.829Z</time></trkpt><trkpt lat="44.4778327" lon="8.9134594"><ele>80.0</ele><time>2026-04-03T09:34:04.829Z</time></trkpt><trkpt lat="44.4777162" lon="8.9133327"><ele>79.5</ele><time>2026-04-03T09:34:05.828Z</time></trkpt><trkpt lat="44.477606" lon="8.9132099"><ele>79.0</ele><time>2026-04-03T09:34:06.829Z</time></trkpt><trkpt lat="44.4774951" lon="8.9130833"><ele>78.5</ele><time>2026-04-03T09:34:07.828Z</time></trkpt><trkpt lat="44.4773844" lon="8.9129447"><ele>78.0</ele><time>2026-04-03T09:34:08.829Z</time></trkpt><trkpt lat="44.4772789" lon="8.9127964"><ele>78.0</ele><time>2026-04-03T09:34:09.829Z</time></trkpt><trkpt lat="44.477179" lon="8.9126446"><ele>78.0</ele><time>2026-04-03T09:34:10.829Z</time></trkpt><trkpt lat="44.4770744" lon="8.9124968"><ele>78.0</ele><time>2026-04-03T09:34:11.828Z</time></trkpt><trkpt lat="44.4769631" lon="8.9123706"><ele>78.0</ele><time>2026-04-03T09:34:12.829Z</time></trkpt><trkpt lat="44.4768359" lon="8.9122728"><ele>76.33333333333333</ele><time>2026-04-03T09:34:13.829Z</time></trkpt><trkpt lat="44.4766842" lon="8.9122044"><ele>74.66666666666666</ele><time>2026-04-03T09:34:14.828Z</time></trkpt><trkpt lat="44.4765209" lon="8.9121608"><ele>73.0</ele><time>2026-04-03T09:34:15.829Z</time></trkpt><trkpt lat="44.4763505" lon="8.9121188"><ele>71.33333333333333</ele><time>2026-04-03T09:34:16.829Z</time></trkpt><trkpt lat="44.4761769" lon="8.9120672"><ele>69.66666666666667</ele><time>2026-04-03T09:34:17.828Z</time></trkpt><trkpt lat="44.4760046" lon="8.9120037"><ele>68.0</ele><time>2026-04-03T09:34:18.828Z</time></trkpt><trkpt lat="44.4758259" lon="8.911917"><ele>68.0</ele><time>2026-04-03T09:34:19.829Z</time></trkpt><trkpt lat="44.4756565" lon="8.9118138"><ele>68.0</ele><time>2026-04-03T09:34:20.829Z</time></trkpt><trkpt lat="44.4754831" lon="8.9116975"><ele>68.0</ele><time>2026-04-03T09:34:21.829Z</time></trkpt><trkpt lat="44.4753124" lon="8.9115772"><ele>67.0</ele><time>2026-04-03T09:34:22.829Z</time></trkpt><trkpt lat="44.4751405" lon="8.9114524"><ele>66.0</ele><time>2026-04-03T09:34:23.828Z</time></trkpt><trkpt lat="44.4749695" lon="8.9113248"><ele>65.0</ele><time>2026-04-03T09:34:24.829Z</time></trkpt><trkpt lat="44.4748062" lon="8.9111987"><ele>65.0</ele><time>2026-04-03T09:34:25.829Z</time></trkpt><trkpt lat="44.4746479" lon="8.9110726"><ele>65.0</ele><time>2026-04-03T09:34:26.828Z</time></trkpt><trkpt lat="44.4744867" lon="8.9109419"><ele>65.0</ele><time>2026-04-03T09:34:27.828Z</time></trkpt><trkpt lat="44.4743408" lon="8.9108273"><ele>65.33333333333334</ele><time>2026-04-03T09:34:28.829Z</time></trkpt><trkpt lat="44.4741959" lon="8.9107177"><ele>65.66666666666667</ele><time>2026-04-03T09:34:29.829Z</time></trkpt><trkpt lat="44.474053" lon="8.9106297"><ele>66.0</ele><time>2026-04-03T09:34:30.828Z</time></trkpt><trkpt lat="44.4739092" lon="8.9105749"><ele>63.66666666666667</ele><time>2026-04-03T09:34:31.829Z</time></trkpt><trkpt lat="44.4737615" lon="8.9105498"><ele>61.333333333333336</ele><time>2026-04-03T09:34:32.828Z</time></trkpt><trkpt lat="44.4736114" lon="8.9105588"><ele>59.0</ele><time>2026-04-03T09:34:33.828Z</time></trkpt><trkpt lat="44.4734574" lon="8.9105803"><ele>59.0</ele><time>2026-04-03T09:34:34.829Z</time></trkpt><trkpt lat="44.4732986" lon="8.9106018"><ele>59.0</ele><time>2026-04-03T09:34:35.829Z</time></trkpt><trkpt lat="44.4731474" lon="8.9106195"><ele>59.0</ele><time>2026-04-03T09:34:36.829Z</time></trkpt><trkpt lat="44.4730027" lon="8.9106349"><ele>59.25</ele><time>2026-04-03T09:34:37.829Z</time></trkpt><trkpt lat="44.4728565" lon="8.91065"><ele>59.5</ele><time>2026-04-03T09:34:38.828Z</time></trkpt><trkpt lat="44.4727107" lon="8.910665"><ele>59.75</ele><time>2026-04-03T09:34:39.828Z</time></trkpt><trkpt lat="44.4725662" lon="8.9106805"><ele>60.0</ele><time>2026-04-03T09:34:40.829Z</time></trkpt><trkpt lat="44.4724224" lon="8.910695"><ele>60.0</ele><time>2026-04-03T09:34:41.829Z</time></trkpt><trkpt lat="44.4722797" lon="8.9107085"><ele>60.0</ele><time>2026-04-03T09:34:42.828Z</time></trkpt><trkpt lat="44.4721338" lon="8.9107195"><ele>60.0</ele><time>2026-04-03T09:34:43.828Z</time></trkpt><trkpt lat="44.4719912" lon="8.9107253"><ele>60.0</ele><time>2026-04-03T09:34:44.829Z</time></trkpt><trkpt lat="44.4718462" lon="8.9107232"><ele>60.66666666666667</ele><time>2026-04-03T09:34:45.829Z</time></trkpt><trkpt lat="44.4716977" lon="8.9107055"><ele>61.333333333333336</ele><time>2026-04-03T09:34:46.828Z</time></trkpt><trkpt lat="44.4715457" lon="8.9106697"><ele>62.0</ele><time>2026-04-03T09:34:47.829Z</time></trkpt><trkpt lat="44.471391" lon="8.9106183"><ele>66.33333333333334</ele><time>2026-04-03T09:34:48.829Z</time></trkpt><trkpt lat="44.4712382" lon="8.9105542"><ele>70.66666666666667</ele><time>2026-04-03T09:34:49.829Z</time></trkpt><trkpt lat="44.471084" lon="8.9104795"><ele>75.0</ele><time>2026-04-03T09:34:50.829Z</time></trkpt><trkpt lat="44.4709196" lon="8.9103874"><ele>75.0</ele><time>2026-04-03T09:34:51.829Z</time></trkpt><trkpt lat="44.4707603" lon="8.9102718"><ele>75.0</ele><time>2026-04-03T09:34:52.829Z</time></trkpt><trkpt lat="44.4705969" lon="8.9101188"><ele>75.0</ele><time>2026-04-03T09:34:53.829Z</time></trkpt><trkpt lat="44.4704417" lon="8.9099445"><ele>75.33333333333333</ele><time>2026-04-03T09:34:54.829Z</time></trkpt><trkpt lat="44.4702935" lon="8.9097523"><ele>75.66666666666666</ele><time>2026-04-03T09:34:55.828Z</time></trkpt><trkpt lat="44.4701515" lon="8.9095528"><ele>76.0</ele><time>2026-04-03T09:34:56.829Z</time></trkpt><trkpt lat="44.4700092" lon="8.9093554"><ele>73.66666666666666</ele><time>2026-04-03T09:34:57.828Z</time></trkpt><trkpt lat="44.4698648" lon="8.9091573"><ele>71.33333333333333</ele><time>2026-04-03T09:34:58.828Z</time></trkpt><trkpt lat="44.4697062" lon="8.9089418"><ele>69.0</ele><time>2026-04-03T09:34:59.829Z</time></trkpt><trkpt lat="44.4695568" lon="8.9087385"><ele>71.33333333333333</ele><time>2026-04-03T09:35:00.828Z</time></trkpt><trkpt lat="44.4694077" lon="8.9085344"><ele>73.66666666666666</ele><time>2026-04-03T09:35:01.828Z</time></trkpt><trkpt lat="44.4692622" lon="8.9083427"><ele>76.0</ele><time>2026-04-03T09:35:02.829Z</time></trkpt><trkpt lat="44.4691081" lon="8.9081655"><ele>76.0</ele><time>2026-04-03T09:35:03.829Z</time></trkpt><trkpt lat="44.4689409" lon="8.9080064"><ele>76.0</ele><time>2026-04-03T09:35:04.829Z</time></trkpt><trkpt lat="44.4687606" lon="8.9078681"><ele>76.0</ele><time>2026-04-03T09:35:05.829Z</time></trkpt><trkpt lat="44.468568" lon="8.9077524"><ele>75.0</ele><time>2026-04-03T09:35:06.829Z</time></trkpt><trkpt lat="44.4683623" lon="8.9076492"><ele>74.0</ele><time>2026-04-03T09:35:07.828Z</time></trkpt><trkpt lat="44.4681653" lon="8.9075606"><ele>73.0</ele><time>2026-04-03T09:35:08.829Z</time></trkpt><trkpt lat="44.4679604" lon="8.9074688"><ele>73.33333333333333</ele><time>2026-04-03T09:35:09.829Z</time></trkpt><trkpt lat="44.4677548" lon="8.9073729"><ele>73.66666666666667</ele><time>2026-04-03T09:35:10.829Z</time></trkpt><trkpt lat="44.4675453" lon="8.907278"><ele>74.0</ele><time>2026-04-03T09:35:11.829Z</time></trkpt><trkpt lat="44.4673302" lon="8.907183"><ele>74.0</ele><time>2026-04-03T09:35:12.829Z</time></trkpt><trkpt lat="44.4671119" lon="8.9070876"><ele>74.0</ele><time>2026-04-03T09:35:13.829Z</time></trkpt><trkpt lat="44.4668931" lon="8.9069905"><ele>75.66666666666667</ele><time>2026-04-03T09:35:14.829Z</time></trkpt><trkpt lat="44.466671" lon="8.9068911"><ele>77.33333333333333</ele><time>2026-04-03T09:35:15.829Z</time></trkpt><trkpt lat="44.4664691" lon="8.9067993"><ele>79.0</ele><time>2026-04-03T09:35:16.828Z</time></trkpt><trkpt lat="44.4662648" lon="8.9067055"><ele>79.0</ele><time>2026-04-03T09:35:17.828Z</time></trkpt><trkpt lat="44.4660626" lon="8.9066126"><ele>79.0</ele><time>2026-04-03T09:35:18.829Z</time></trkpt><trkpt lat="44.4658676" lon="8.9065218"><ele>79.0</ele><time>2026-04-03T09:35:19.828Z</time></trkpt><trkpt lat="44.4656802" lon="8.9064289"><ele>79.0</ele><time>2026-04-03T09:35:20.829Z</time></trkpt><trkpt lat="44.4655004" lon="8.9063336"><ele>79.0</ele><time>2026-04-03T09:35:21.829Z</time></trkpt><trkpt lat="44.4653251" lon="8.9062304"><ele>79.0</ele><time>2026-04-03T09:35:22.829Z</time></trkpt><trkpt lat="44.4651477" lon="8.9061055"><ele>75.0</ele><time>2026-04-03T09:35:23.829Z</time></trkpt><trkpt lat="44.4649861" lon="8.9059619"><ele>71.0</ele><time>2026-04-03T09:35:24.828Z</time></trkpt><trkpt lat="44.4648309" lon="8.9057956"><ele>67.0</ele><time>2026-04-03T09:35:25.829Z</time></trkpt><trkpt lat="44.4646885" lon="8.9056211"><ele>75.0</ele><time>2026-04-03T09:35:26.829Z</time></trkpt><trkpt lat="44.4645561" lon="8.9054505"><ele>83.0</ele><time>2026-04-03T09:35:27.829Z</time></trkpt><trkpt lat="44.4644245" lon="8.9052965"><ele>91.0</ele><time>2026-04-03T09:35:28.829Z</time></trkpt><trkpt lat="44.4642924" lon="8.9051679"><ele>84.33333333333333</ele><time>2026-04-03T09:35:29.829Z</time></trkpt><trkpt lat="44.4641606" lon="8.9050559"><ele>77.66666666666667</ele><time>2026-04-03T09:35:30.828Z</time></trkpt><trkpt lat="44.4640314" lon="8.9049301"><ele>71.0</ele><time>2026-04-03T09:35:31.828Z</time></trkpt><trkpt lat="44.4639222" lon="8.9047867"><ele>71.0</ele><time>2026-04-03T09:35:32.829Z</time></trkpt><trkpt lat="44.4638272" lon="8.9046207"><ele>71.0</ele><time>2026-04-03T09:35:33.828Z</time></trkpt><trkpt lat="44.4637512" lon="8.9044431"><ele>71.0</ele><time>2026-04-03T09:35:34.828Z</time></trkpt><trkpt lat="44.4636888" lon="8.904252"><ele>76.0</ele><time>2026-04-03T09:35:35.829Z</time></trkpt><trkpt lat="44.4636277" lon="8.9040433"><ele>81.0</ele><time>2026-04-03T09:35:36.829Z</time></trkpt><trkpt lat="44.4635637" lon="8.9038335"><ele>86.0</ele><time>2026-04-03T09:35:37.829Z</time></trkpt><trkpt lat="44.4634898" lon="8.9036359"><ele>86.0</ele><time>2026-04-03T09:35:38.828Z</time></trkpt><trkpt lat="44.4633966" lon="8.9034597"><ele>86.0</ele><time>2026-04-03T09:35:39.829Z</time></trkpt><trkpt lat="44.463291" lon="8.9033267"><ele>86.0</ele><time>2026-04-03T09:35:40.828Z</time></trkpt><trkpt lat="44.4631692" lon="8.9032081"><ele>86.0</ele><time>2026-04-03T09:35:41.829Z</time></trkpt><trkpt lat="44.4630407" lon="8.9031128"><ele>88.0</ele><time>2026-04-03T09:35:42.828Z</time></trkpt><trkpt lat="44.462916" lon="8.9030236"><ele>90.0</ele><time>2026-04-03T09:35:43.829Z</time></trkpt><trkpt lat="44.4627922" lon="8.902927"><ele>92.0</ele><time>2026-04-03T09:35:44.829Z</time></trkpt><trkpt lat="44.4626591" lon="8.9028555"><ele>94.0</ele><time>2026-04-03T09:35:45.829Z</time></trkpt><trkpt lat="44.462513" lon="8.9028022"><ele>94.0</ele><time>2026-04-03T09:35:46.829Z</time></trkpt><trkpt lat="44.4623585" lon="8.9027666"><ele>94.0</ele><time>2026-04-03T09:35:47.829Z</time></trkpt><trkpt lat="44.4621388" lon="8.9028644"><ele>94.0</ele><time>2026-04-03T09:35:48.828Z</time></trkpt><trkpt lat="44.4619933" lon="8.902898"><ele>92.0</ele><time>2026-04-03T09:35:49.829Z</time></trkpt><trkpt lat="44.4618547" lon="8.9029652"><ele>90.0</ele><time>2026-04-03T09:35:50.828Z</time></trkpt><trkpt lat="44.4617012" lon="8.9030729"><ele>88.0</ele><time>2026-04-03T09:35:51.829Z</time></trkpt><trkpt lat="44.4616247" lon="8.9031958"><ele>86.0</ele><time>2026-04-03T09:35:52.829Z</time></trkpt><trkpt lat="44.4615051" lon="8.9032707"><ele>86.0</ele><time>2026-04-03T09:35:53.829Z</time></trkpt><trkpt lat="44.4613748" lon="8.903363"><ele>86.0</ele><time>2026-04-03T09:35:54.828Z</time></trkpt><trkpt lat="44.4612308" lon="8.9034036"><ele>86.0</ele><time>2026-04-03T09:35:55.828Z</time></trkpt><trkpt lat="44.4610815" lon="8.9034066"><ele>86.0</ele><time>2026-04-03T09:35:56.829Z</time></trkpt><trkpt lat="44.4609272" lon="8.9033708"><ele>83.5</ele><time>2026-04-03T09:35:57.829Z</time></trkpt><trkpt lat="44.4607876" lon="8.9033068"><ele>81.0</ele><time>2026-04-03T09:35:58.829Z</time></trkpt><trkpt lat="44.4606509" lon="8.9032146"><ele>78.5</ele><time>2026-04-03T09:35:59.828Z</time></trkpt><trkpt lat="44.4605189" lon="8.9031269"><ele>76.0</ele><time>2026-04-03T09:36:00.828Z</time></trkpt><trkpt lat="44.460383" lon="8.9030601"><ele>76.0</ele><time>2026-04-03T09:36:01.829Z</time></trkpt><trkpt lat="44.4602376" lon="8.9030295"><ele>76.0</ele><time>2026-04-03T09:36:02.829Z</time></trkpt><trkpt lat="44.4600862" lon="8.9030407"><ele>76.0</ele><time>2026-04-03T09:36:03.829Z</time></trkpt><trkpt lat="44.4599413" lon="8.9030921"><ele>76.0</ele><time>2026-04-03T09:36:04.829Z</time></trkpt><trkpt lat="44.4597853" lon="8.9031828"><ele>76.0</ele><time>2026-04-03T09:36:05.829Z</time></trkpt><trkpt lat="44.4596272" lon="8.9032851"><ele>76.0</ele><time>2026-04-03T09:36:06.829Z</time></trkpt><trkpt lat="44.4594712" lon="8.9033876"><ele>76.0</ele><time>2026-04-03T09:36:07.829Z</time></trkpt><trkpt lat="44.4593143" lon="8.9034878"><ele>80.33333333333333</ele><time>2026-04-03T09:36:08.829Z</time></trkpt><trkpt lat="44.4591572" lon="8.9035902"><ele>84.66666666666667</ele><time>2026-04-03T09:36:09.829Z</time></trkpt><trkpt lat="44.4589955" lon="8.903682"><ele>89.0</ele><time>2026-04-03T09:36:10.829Z</time></trkpt><trkpt lat="44.4588232" lon="8.9037583"><ele>82.0</ele><time>2026-04-03T09:36:11.828Z</time></trkpt><trkpt lat="44.4586509" lon="8.9038178"><ele>75.0</ele><time>2026-04-03T09:36:12.829Z</time></trkpt><trkpt lat="44.4584677" lon="8.9038827"><ele>68.0</ele><time>2026-04-03T09:36:13.829Z</time></trkpt><trkpt lat="44.458282" lon="8.9039564"><ele>68.0</ele><time>2026-04-03T09:36:14.829Z</time></trkpt><trkpt lat="44.4580985" lon="8.9040282"><ele>68.0</ele><time>2026-04-03T09:36:15.829Z</time></trkpt><trkpt lat="44.4579168" lon="8.9040932"><ele>68.0</ele><time>2026-04-03T09:36:16.829Z</time></trkpt><trkpt lat="44.4577376" lon="8.9041562"><ele>65.0</ele><time>2026-04-03T09:36:17.829Z</time></trkpt><trkpt lat="44.4575598" lon="8.9042078"><ele>62.0</ele><time>2026-04-03T09:36:18.829Z</time></trkpt><trkpt lat="44.4573749" lon="8.9042224"><ele>59.0</ele><time>2026-04-03T09:36:19.829Z</time></trkpt><trkpt lat="44.4571956" lon="8.9041846"><ele>57.333333333333336</ele><time>2026-04-03T09:36:20.829Z</time></trkpt><trkpt lat="44.4569929" lon="8.9041235"><ele>55.66666666666667</ele><time>2026-04-03T09:36:21.828Z</time></trkpt><trkpt lat="44.4567664" lon="8.9040582"><ele>54.0</ele><time>2026-04-03T09:36:22.829Z</time></trkpt><trkpt lat="44.4565373" lon="8.9039926"><ele>54.0</ele><time>2026-04-03T09:36:23.829Z</time></trkpt><trkpt lat="44.456319" lon="8.9039339"><ele>54.0</ele><time>2026-04-03T09:36:24.828Z</time></trkpt><trkpt lat="44.4561143" lon="8.9038737"><ele>54.0</ele><time>2026-04-03T09:36:25.829Z</time></trkpt><trkpt lat="44.4559268" lon="8.9038216"><ele>54.66666666666667</ele><time>2026-04-03T09:36:26.829Z</time></trkpt><trkpt lat="44.4557548" lon="8.90376"><ele>55.333333333333336</ele><time>2026-04-03T09:36:27.829Z</time></trkpt><trkpt lat="44.4556084" lon="8.9036704"><ele>56.0</ele><time>2026-04-03T09:36:28.829Z</time></trkpt><trkpt lat="44.4554738" lon="8.9035645"><ele>63.0</ele><time>2026-04-03T09:36:29.828Z</time></trkpt><trkpt lat="44.4553537" lon="8.9034295"><ele>70.0</ele><time>2026-04-03T09:36:30.829Z</time></trkpt><trkpt lat="44.4552501" lon="8.9032691"><ele>77.0</ele><time>2026-04-03T09:36:31.829Z</time></trkpt><trkpt lat="44.455168" lon="8.9030908"><ele>77.0</ele><time>2026-04-03T09:36:32.829Z</time></trkpt><trkpt lat="44.4551088" lon="8.9028932"><ele>77.0</ele><time>2026-04-03T09:36:33.829Z</time></trkpt><trkpt lat="44.4550616" lon="8.9026833"><ele>77.0</ele><time>2026-04-03T09:36:34.828Z</time></trkpt><trkpt lat="44.4550151" lon="8.9024612"><ele>73.33333333333334</ele><time>2026-04-03T09:36:35.829Z</time></trkpt><trkpt lat="44.4549713" lon="8.9022457"><ele>69.66666666666667</ele><time>2026-04-03T09:36:36.829Z</time></trkpt><trkpt lat="44.4549266" lon="8.9020198"><ele>66.0</ele><time>2026-04-03T09:36:37.828Z</time></trkpt><trkpt lat="44.4548835" lon="8.9017923"><ele>62.66666666666667</ele><time>2026-04-03T09:36:38.829Z</time></trkpt><trkpt lat="44.4548391" lon="8.9015641"><ele>59.333333333333336</ele><time>2026-04-03T09:36:39.828Z</time></trkpt><trkpt lat="44.4547964" lon="8.9013392"><ele>56.0</ele><time>2026-04-03T09:36:40.828Z</time></trkpt><trkpt lat="44.4547601" lon="8.9011151"><ele>53.66666666666667</ele><time>2026-04-03T09:36:41.829Z</time></trkpt><trkpt lat="44.4547386" lon="8.9008887"><ele>51.33333333333333</ele><time>2026-04-03T09:36:42.829Z</time></trkpt><trkpt lat="44.4547344" lon="8.9006538"><ele>49.0</ele><time>2026-04-03T09:36:43.828Z</time></trkpt><trkpt lat="44.4547454" lon="8.9004175"><ele>49.0</ele><time>2026-04-03T09:36:44.829Z</time></trkpt><trkpt lat="44.4547612" lon="8.9001723"><ele>49.0</ele><time>2026-04-03T09:36:45.828Z</time></trkpt><trkpt lat="44.4547751" lon="8.8999259"><ele>49.0</ele><time>2026-04-03T09:36:46.829Z</time></trkpt><trkpt lat="44.4547784" lon="8.8996916"><ele>49.0</ele><time>2026-04-03T09:36:47.829Z</time></trkpt><trkpt lat="44.4547592" lon="8.8994479"><ele>49.0</ele><time>2026-04-03T09:36:48.829Z</time></trkpt><trkpt lat="44.4547119" lon="8.8992209"><ele>49.0</ele><time>2026-04-03T09:36:49.829Z</time></trkpt><trkpt lat="44.4546366" lon="8.8990099"><ele>54.666666666666664</ele><time>2026-04-03T09:36:50.828Z</time></trkpt><trkpt lat="44.4545345" lon="8.898805"><ele>60.33333333333333</ele><time>2026-04-03T09:36:51.829Z</time></trkpt><trkpt lat="44.4544252" lon="8.8986169"><ele>66.0</ele><time>2026-04-03T09:36:52.829Z</time></trkpt><trkpt lat="44.4543062" lon="8.8984219"><ele>62.0</ele><time>2026-04-03T09:36:53.829Z</time></trkpt><trkpt lat="44.4541875" lon="8.8982338"><ele>58.0</ele><time>2026-04-03T09:36:54.829Z</time></trkpt><trkpt lat="44.4540728" lon="8.8980445"><ele>54.0</ele><time>2026-04-03T09:36:55.828Z</time></trkpt><trkpt lat="44.4539592" lon="8.8978557"><ele>54.0</ele><time>2026-04-03T09:36:56.828Z</time></trkpt><trkpt lat="44.4538427" lon="8.8976674"><ele>54.0</ele><time>2026-04-03T09:36:57.828Z</time></trkpt><trkpt lat="44.4537284" lon="8.8974851"><ele>54.0</ele><time>2026-04-03T09:36:58.829Z</time></trkpt><trkpt lat="44.4536112" lon="8.8973029"><ele>51.666666666666664</ele><time>2026-04-03T09:36:59.828Z</time></trkpt><trkpt lat="44.453496" lon="8.8971237"><ele>49.33333333333333</ele><time>2026-04-03T09:37:00.828Z</time></trkpt><trkpt lat="44.4533802" lon="8.8969413"><ele>47.0</ele><time>2026-04-03T09:37:01.828Z</time></trkpt><trkpt lat="44.4532622" lon="8.8967595"><ele>47.666666666666664</ele><time>2026-04-03T09:37:02.829Z</time></trkpt><trkpt lat="44.4531424" lon="8.8965813"><ele>48.33333333333333</ele><time>2026-04-03T09:37:03.829Z</time></trkpt><trkpt lat="44.4530191" lon="8.8964124"><ele>49.0</ele><time>2026-04-03T09:37:04.829Z</time></trkpt><trkpt lat="44.45289" lon="8.8962575"><ele>51.666666666666664</ele><time>2026-04-03T09:37:05.829Z</time></trkpt><trkpt lat="44.4527524" lon="8.8961225"><ele>54.33333333333333</ele><time>2026-04-03T09:37:06.828Z</time></trkpt><trkpt lat="44.4525982" lon="8.8960007"><ele>57.0</ele><time>2026-04-03T09:37:07.829Z</time></trkpt><trkpt lat="44.4524499" lon="8.8958868"><ele>57.0</ele><time>2026-04-03T09:37:08.829Z</time></trkpt><trkpt lat="44.4522989" lon="8.8957756"><ele>57.0</ele><time>2026-04-03T09:37:09.829Z</time></trkpt><trkpt lat="44.4521371" lon="8.8956896"><ele>57.0</ele><time>2026-04-03T09:37:10.829Z</time></trkpt><trkpt lat="44.4519686" lon="8.8956469"><ele>60.5</ele><time>2026-04-03T09:37:11.829Z</time></trkpt><trkpt lat="44.4517953" lon="8.8956467"><ele>64.0</ele><time>2026-04-03T09:37:12.828Z</time></trkpt><trkpt lat="44.4514395" lon="8.8957717"><ele>64.66666666666666</ele><time>2026-04-03T09:37:14.828Z</time></trkpt><trkpt lat="44.4512612" lon="8.8958359"><ele>65.33333333333333</ele><time>2026-04-03T09:37:15.828Z</time></trkpt><trkpt lat="44.4510955" lon="8.895907"><ele>66.0</ele><time>2026-04-03T09:37:16.828Z</time></trkpt><trkpt lat="44.4509301" lon="8.8959775"><ele>66.0</ele><time>2026-04-03T09:37:17.829Z</time></trkpt><trkpt lat="44.4507635" lon="8.8960247"><ele>66.0</ele><time>2026-04-03T09:37:18.829Z</time></trkpt><trkpt lat="44.4505821" lon="8.8960486"><ele>66.0</ele><time>2026-04-03T09:37:19.828Z</time></trkpt><trkpt lat="44.4504061" lon="8.8960413"><ele>67.33333333333333</ele><time>2026-04-03T09:37:20.829Z</time></trkpt><trkpt lat="44.4502277" lon="8.8960372"><ele>68.66666666666666</ele><time>2026-04-03T09:37:21.829Z</time></trkpt><trkpt lat="44.4500533" lon="8.8960557"><ele>70.0</ele><time>2026-04-03T09:37:22.829Z</time></trkpt><trkpt lat="44.4498985" lon="8.8961053"><ele>70.0</ele><time>2026-04-03T09:37:23.829Z</time></trkpt><trkpt lat="44.4497782" lon="8.8961554"><ele>70.0</ele><time>2026-04-03T09:37:24.829Z</time></trkpt><trkpt lat="44.4496717" lon="8.8962121"><ele>70.0</ele><time>2026-04-03T09:37:25.829Z</time></trkpt><trkpt lat="44.4495705" lon="8.8962669"><ele>70.0</ele><time>2026-04-03T09:37:26.829Z</time></trkpt><trkpt lat="44.4494738" lon="8.8963252"><ele>68.5</ele><time>2026-04-03T09:37:27.829Z</time></trkpt><trkpt lat="44.4493738" lon="8.8963914"><ele>67.0</ele><time>2026-04-03T09:37:28.828Z</time></trkpt><trkpt lat="44.4492707" lon="8.896468"><ele>65.5</ele><time>2026-04-03T09:37:29.829Z</time></trkpt><trkpt lat="44.4491629" lon="8.8965486"><ele>64.0</ele><time>2026-04-03T09:37:30.828Z</time></trkpt><trkpt lat="44.4490405" lon="8.8966403"><ele>64.0</ele><time>2026-04-03T09:37:31.829Z</time></trkpt><trkpt lat="44.4489182" lon="8.896731"><ele>64.0</ele><time>2026-04-03T09:37:32.829Z</time></trkpt><trkpt lat="44.4487847" lon="8.8968341"><ele>64.0</ele><time>2026-04-03T09:37:33.829Z</time></trkpt><trkpt lat="44.4486471" lon="8.896943"><ele>64.0</ele><time>2026-04-03T09:37:34.828Z</time></trkpt><trkpt lat="44.4485008" lon="8.897063"><ele>70.33333333333333</ele><time>2026-04-03T09:37:35.829Z</time></trkpt><trkpt lat="44.4483484" lon="8.8971895"><ele>76.66666666666667</ele><time>2026-04-03T09:37:36.829Z</time></trkpt><trkpt lat="44.4481836" lon="8.8973214"><ele>83.0</ele><time>2026-04-03T09:37:37.828Z</time></trkpt><trkpt lat="44.4479986" lon="8.8974672"><ele>87.0</ele><time>2026-04-03T09:37:38.829Z</time></trkpt><trkpt lat="44.4477935" lon="8.8976342"><ele>91.0</ele><time>2026-04-03T09:37:39.829Z</time></trkpt><trkpt lat="44.4475602" lon="8.8978301"><ele>91.0</ele><time>2026-04-03T09:37:40.828Z</time></trkpt><trkpt lat="44.4473427" lon="8.8980126"><ele>91.0</ele><time>2026-04-03T09:37:41.829Z</time></trkpt><trkpt lat="44.4471323" lon="8.8981901"><ele>93.0</ele><time>2026-04-03T09:37:42.828Z</time></trkpt><trkpt lat="44.4469311" lon="8.8983584"><ele>95.0</ele><time>2026-04-03T09:37:43.828Z</time></trkpt><trkpt lat="44.4467238" lon="8.8985314"><ele>105.0</ele><time>2026-04-03T09:37:44.829Z</time></trkpt><trkpt lat="44.4465188" lon="8.8987038"><ele>115.0</ele><time>2026-04-03T09:37:45.829Z</time></trkpt><trkpt lat="44.4463063" lon="8.8988854"><ele>116.0</ele><time>2026-04-03T09:37:46.829Z</time></trkpt><trkpt lat="44.446101" lon="8.8990672"><ele>117.0</ele><time>2026-04-03T09:37:47.828Z</time></trkpt><trkpt lat="44.4459053" lon="8.8992611"><ele>127.5</ele><time>2026-04-03T09:37:48.828Z</time></trkpt><trkpt lat="44.4457243" lon="8.8994755"><ele>138.0</ele><time>2026-04-03T09:37:49.829Z</time></trkpt><trkpt lat="44.4455568" lon="8.8997106"><ele>128.5</ele><time>2026-04-03T09:37:50.829Z</time></trkpt><trkpt lat="44.4454049" lon="8.8999572"><ele>119.0</ele><time>2026-04-03T09:37:51.828Z</time></trkpt><trkpt lat="44.4452662" lon="8.9002208"><ele>115.0</ele><time>2026-04-03T09:37:52.829Z</time></trkpt><trkpt lat="44.4451451" lon="8.9004987"><ele>111.0</ele><time>2026-04-03T09:37:53.828Z</time></trkpt><trkpt lat="44.4450387" lon="8.9007946"><ele>103.0</ele><time>2026-04-03T09:37:54.829Z</time></trkpt><trkpt lat="44.444948" lon="8.9011068"><ele>95.0</ele><time>2026-04-03T09:37:55.828Z</time></trkpt><trkpt lat="44.4448782" lon="8.9014054"><ele>95.0</ele><time>2026-04-03T09:37:56.829Z</time></trkpt><trkpt lat="44.4448235" lon="8.9017157"><ele>95.0</ele><time>2026-04-03T09:37:57.829Z</time></trkpt><trkpt lat="44.444792" lon="8.9020278"><ele>93.5</ele><time>2026-04-03T09:37:58.828Z</time></trkpt><trkpt lat="44.4447783" lon="8.9023406"><ele>92.0</ele><time>2026-04-03T09:37:59.828Z</time></trkpt><trkpt lat="44.4447721" lon="8.9026678"><ele>92.0</ele><time>2026-04-03T09:38:00.829Z</time></trkpt><trkpt lat="44.444771" lon="8.9029554"><ele>92.0</ele><time>2026-04-03T09:38:02.828Z</time></trkpt><trkpt lat="44.4448161" lon="8.9032374"><ele>92.0</ele><time>2026-04-03T09:38:03.829Z</time></trkpt><trkpt lat="44.4448859" lon="8.9035489"><ele>85.0</ele><time>2026-04-03T09:38:04.829Z</time></trkpt><trkpt lat="44.444984" lon="8.9038863"><ele>78.0</ele><time>2026-04-03T09:38:05.829Z</time></trkpt><trkpt lat="44.4450942" lon="8.9041985"><ele>73.5</ele><time>2026-04-03T09:38:06.829Z</time></trkpt><trkpt lat="44.4451805" lon="8.9045008"><ele>69.0</ele><time>2026-04-03T09:38:07.829Z</time></trkpt><trkpt lat="44.445234" lon="8.9048142"><ele>66.0</ele><time>2026-04-03T09:38:08.829Z</time></trkpt><trkpt lat="44.44528" lon="8.9051147"><ele>63.0</ele><time>2026-04-03T09:38:09.828Z</time></trkpt><trkpt lat="44.4453271" lon="8.9054111"><ele>60.0</ele><time>2026-04-03T09:38:10.829Z</time></trkpt><trkpt lat="44.4453759" lon="8.9057036"><ele>58.66666666666667</ele><time>2026-04-03T09:38:11.829Z</time></trkpt><trkpt lat="44.4454213" lon="8.905996"><ele>57.333333333333336</ele><time>2026-04-03T09:38:12.829Z</time></trkpt><trkpt lat="44.4454648" lon="8.9062802"><ele>56.0</ele><time>2026-04-03T09:38:13.829Z</time></trkpt><trkpt lat="44.445506" lon="8.9065632"><ele>66.33333333333334</ele><time>2026-04-03T09:38:14.829Z</time></trkpt><trkpt lat="44.445542" lon="8.9068475"><ele>76.66666666666667</ele><time>2026-04-03T09:38:15.829Z</time></trkpt><trkpt lat="44.4455716" lon="8.9071219"><ele>87.0</ele><time>2026-04-03T09:38:16.829Z</time></trkpt><trkpt lat="44.4455963" lon="8.9073935"><ele>85.66666666666667</ele><time>2026-04-03T09:38:17.829Z</time></trkpt><trkpt lat="44.4456178" lon="8.9076663"><ele>84.33333333333334</ele><time>2026-04-03T09:38:18.829Z</time></trkpt><trkpt lat="44.44564" lon="8.9079433"><ele>83.0</ele><time>2026-04-03T09:38:19.828Z</time></trkpt><trkpt lat="44.4456593" lon="8.9082073"><ele>81.0</ele><time>2026-04-03T09:38:20.829Z</time></trkpt><trkpt lat="44.4456787" lon="8.9084876"><ele>79.0</ele><time>2026-04-03T09:38:21.829Z</time></trkpt><trkpt lat="44.4456993" lon="8.908776"><ele>77.0</ele><time>2026-04-03T09:38:22.828Z</time></trkpt><trkpt lat="44.4457068" lon="8.9090571"><ele>80.66666666666667</ele><time>2026-04-03T09:38:23.829Z</time></trkpt><trkpt lat="44.445706" lon="8.9093579"><ele>84.33333333333333</ele><time>2026-04-03T09:38:24.828Z</time></trkpt><trkpt lat="44.445697" lon="8.9096457"><ele>88.0</ele><time>2026-04-03T09:38:25.828Z</time></trkpt><trkpt lat="44.4456831" lon="8.9099347"><ele>89.0</ele><time>2026-04-03T09:38:26.829Z</time></trkpt><trkpt lat="44.4456664" lon="8.9102315"><ele>90.0</ele><time>2026-04-03T09:38:27.829Z</time></trkpt><trkpt lat="44.4456492" lon="8.9105131"><ele>91.0</ele><time>2026-04-03T09:38:28.828Z</time></trkpt><trkpt lat="44.4456346" lon="8.9108056"><ele>92.33333333333333</ele><time>2026-04-03T09:38:29.828Z</time></trkpt><trkpt lat="44.4456205" lon="8.9110878"><ele>93.66666666666667</ele><time>2026-04-03T09:38:30.828Z</time></trkpt><trkpt lat="44.4456039" lon="8.9113657"><ele>95.0</ele><time>2026-04-03T09:38:31.829Z</time></trkpt><trkpt lat="44.4455869" lon="8.9116448"><ele>95.66666666666667</ele><time>2026-04-03T09:38:32.828Z</time></trkpt><trkpt lat="44.4455701" lon="8.9119201"><ele>96.33333333333334</ele><time>2026-04-03T09:38:33.828Z</time></trkpt><trkpt lat="44.4455545" lon="8.912197"><ele>97.0</ele><time>2026-04-03T09:38:34.828Z</time></trkpt><trkpt lat="44.4455389" lon="8.9124735"><ele>99.66666666666667</ele><time>2026-04-03T09:38:35.829Z</time></trkpt><trkpt lat="44.4455245" lon="8.912745"><ele>102.33333333333334</ele><time>2026-04-03T09:38:36.829Z</time></trkpt><trkpt lat="44.4455136" lon="8.9130126"><ele>105.0</ele><time>2026-04-03T09:38:37.828Z</time></trkpt><trkpt lat="44.445506" lon="8.9132832"><ele>106.0</ele><time>2026-04-03T09:38:38.829Z</time></trkpt><trkpt lat="44.4455043" lon="8.9135502"><ele>107.0</ele><time>2026-04-03T09:38:39.829Z</time></trkpt><trkpt lat="44.4455068" lon="8.9138335"><ele>108.0</ele><time>2026-04-03T09:38:40.828Z</time></trkpt><trkpt lat="44.4455131" lon="8.9141113"><ele>106.0</ele><time>2026-04-03T09:38:41.829Z</time></trkpt><trkpt lat="44.4455227" lon="8.9143916"><ele>104.0</ele><time>2026-04-03T09:38:42.828Z</time></trkpt><trkpt lat="44.4455389" lon="8.9146725"><ele>102.0</ele><time>2026-04-03T09:38:43.828Z</time></trkpt><trkpt lat="44.4455643" lon="8.9149544"><ele>103.0</ele><time>2026-04-03T09:38:44.829Z</time></trkpt><trkpt lat="44.4456003" lon="8.9152359"><ele>104.0</ele><time>2026-04-03T09:38:45.828Z</time></trkpt><trkpt lat="44.4456366" lon="8.9155182"><ele>105.0</ele><time>2026-04-03T09:38:46.829Z</time></trkpt><trkpt lat="44.4456698" lon="8.9157935"><ele>106.33333333333334</ele><time>2026-04-03T09:38:47.829Z</time></trkpt><trkpt lat="44.4457128" lon="8.9160803"><ele>107.66666666666667</ele><time>2026-04-03T09:38:48.829Z</time></trkpt><trkpt lat="44.4457646" lon="8.9163514"><ele>109.0</ele><time>2026-04-03T09:38:49.828Z</time></trkpt><trkpt lat="44.4458181" lon="8.9166289"><ele>108.66666666666667</ele><time>2026-04-03T09:38:50.829Z</time></trkpt><trkpt lat="44.4458678" lon="8.9169031"><ele>108.33333333333334</ele><time>2026-04-03T09:38:51.829Z</time></trkpt><trkpt lat="44.4459178" lon="8.9171855"><ele>108.0</ele><time>2026-04-03T09:38:52.828Z</time></trkpt><trkpt lat="44.4459746" lon="8.9174734"><ele>109.33333333333334</ele><time>2026-04-03T09:38:53.828Z</time></trkpt><trkpt lat="44.4460343" lon="8.9177653"><ele>110.66666666666667</ele><time>2026-04-03T09:38:54.829Z</time></trkpt><trkpt lat="44.4460854" lon="8.9180517"><ele>112.0</ele><time>2026-04-03T09:38:55.829Z</time></trkpt><trkpt lat="44.4461278" lon="8.9183609"><ele>112.33333333333334</ele><time>2026-04-03T09:38:56.829Z</time></trkpt><trkpt lat="44.4461541" lon="8.9186583"><ele>112.66666666666666</ele><time>2026-04-03T09:38:57.829Z</time></trkpt><trkpt lat="44.4461637" lon="8.9189476"><ele>113.0</ele><time>2026-04-03T09:38:58.829Z</time></trkpt><trkpt lat="44.4461588" lon="8.9192202"><ele>114.66666666666666</ele><time>2026-04-03T09:38:59.828Z</time></trkpt><trkpt lat="44.446142" lon="8.9194766"><ele>116.33333333333334</ele><time>2026-04-03T09:39:00.829Z</time></trkpt><trkpt lat="44.4461137" lon="8.9197259"><ele>118.0</ele><time>2026-04-03T09:39:01.828Z</time></trkpt><trkpt lat="44.4460738" lon="8.9199723"><ele>121.33333333333334</ele><time>2026-04-03T09:39:02.829Z</time></trkpt><trkpt lat="44.4460235" lon="8.9202083"><ele>124.66666666666666</ele><time>2026-04-03T09:39:03.829Z</time></trkpt><trkpt lat="44.4459582" lon="8.9204558"><ele>128.0</ele><time>2026-04-03T09:39:04.829Z</time></trkpt><trkpt lat="44.4458851" lon="8.9206894"><ele>132.66666666666666</ele><time>2026-04-03T09:39:05.829Z</time></trkpt><trkpt lat="44.4458037" lon="8.9209154"><ele>137.33333333333334</ele><time>2026-04-03T09:39:06.829Z</time></trkpt><trkpt lat="44.4457132" lon="8.921134"><ele>142.0</ele><time>2026-04-03T09:39:07.829Z</time></trkpt><trkpt lat="44.445617" lon="8.9213556"><ele>142.0</ele><time>2026-04-03T09:39:08.829Z</time></trkpt><trkpt lat="44.4455205" lon="8.9215809"><ele>142.0</ele><time>2026-04-03T09:39:09.829Z</time></trkpt><trkpt lat="44.4454218" lon="8.9218072"><ele>142.0</ele><time>2026-04-03T09:39:10.829Z</time></trkpt><trkpt lat="44.445325" lon="8.9220259"><ele>157.33333333333334</ele><time>2026-04-03T09:39:11.828Z</time></trkpt><trkpt lat="44.4452223" lon="8.9222586"><ele>172.66666666666666</ele><time>2026-04-03T09:39:12.829Z</time></trkpt><trkpt lat="44.4451223" lon="8.9224856"><ele>188.0</ele><time>2026-04-03T09:39:13.828Z</time></trkpt><trkpt lat="44.4450218" lon="8.9227135"><ele>191.0</ele><time>2026-04-03T09:39:14.829Z</time></trkpt><trkpt lat="44.4449195" lon="8.9229441"><ele>194.0</ele><time>2026-04-03T09:39:15.828Z</time></trkpt><trkpt lat="44.4448161" lon="8.9231757"><ele>197.0</ele><time>2026-04-03T09:39:16.828Z</time></trkpt><trkpt lat="44.444711" lon="8.9234075"><ele>208.33333333333334</ele><time>2026-04-03T09:39:17.829Z</time></trkpt><trkpt lat="44.4446041" lon="8.9236404"><ele>219.66666666666669</ele><time>2026-04-03T09:39:18.829Z</time></trkpt><trkpt lat="44.444499" lon="8.9238666"><ele>231.0</ele><time>2026-04-03T09:39:19.829Z</time></trkpt><trkpt lat="44.4443857" lon="8.9241118"><ele>234.0</ele><time>2026-04-03T09:39:20.828Z</time></trkpt><trkpt lat="44.4442734" lon="8.9243554"><ele>237.0</ele><time>2026-04-03T09:39:21.829Z</time></trkpt><trkpt lat="44.4441608" lon="8.9246012"><ele>240.0</ele><time>2026-04-03T09:39:22.829Z</time></trkpt><trkpt lat="44.4440448" lon="8.9248493"><ele>243.33333333333331</ele><time>2026-04-03T09:39:23.829Z</time></trkpt><trkpt lat="44.4439265" lon="8.9250988"><ele>246.66666666666666</ele><time>2026-04-03T09:39:24.829Z</time></trkpt><trkpt lat="44.4438072" lon="8.9253479"><ele>250.0</ele><time>2026-04-03T09:39:25.829Z</time></trkpt><trkpt lat="44.4436914" lon="8.9255865"><ele>254.0</ele><time>2026-04-03T09:39:26.829Z</time></trkpt><trkpt lat="44.4435839" lon="8.9258072"><ele>258.0</ele><time>2026-04-03T09:39:27.829Z</time></trkpt><trkpt lat="44.4434725" lon="8.9260338"><ele>262.0</ele><time>2026-04-03T09:39:28.829Z</time></trkpt><trkpt lat="44.4433662" lon="8.9262475"><ele>266.0</ele><time>2026-04-03T09:39:29.828Z</time></trkpt><trkpt lat="44.4432607" lon="8.9264568"><ele>270.0</ele><time>2026-04-03T09:39:30.829Z</time></trkpt><trkpt lat="44.4431541" lon="8.926666"><ele>274.0</ele><time>2026-04-03T09:39:31.829Z</time></trkpt><trkpt lat="44.4430462" lon="8.9268754"><ele>290.3333333333333</ele><time>2026-04-03T09:39:32.829Z</time></trkpt><trkpt lat="44.4429385" lon="8.9270856"><ele>306.6666666666667</ele><time>2026-04-03T09:39:33.829Z</time></trkpt><trkpt lat="44.4428333" lon="8.927292"><ele>323.0</ele><time>2026-04-03T09:39:34.829Z</time></trkpt><trkpt lat="44.4427313" lon="8.9274908"><ele>147.0</ele><time>2026-04-03T09:39:35.828Z</time></trkpt><trkpt lat="44.4378884" lon="8.9396906"><ele>147.0</ele><time>2026-04-03T09:40:29.608Z</time></trkpt><trkpt lat="44.4377866" lon="8.9395511"><ele>147.0</ele><time>2026-04-03T09:40:33.829Z</time></trkpt><trkpt lat="44.4376981" lon="8.9396924"><ele>147.0</ele><time>2026-04-03T09:40:34.83Z</time></trkpt><trkpt lat="44.4376213" lon="8.9398581"><ele>147.0</ele><time>2026-04-03T09:40:35.829Z</time></trkpt><trkpt lat="44.4375437" lon="8.9400169"><ele>146.5</ele><time>2026-04-03T09:40:36.829Z</time></trkpt><trkpt lat="44.4374623" lon="8.9401633"><ele>146.0</ele><time>2026-04-03T09:40:37.829Z</time></trkpt><trkpt lat="44.4373818" lon="8.9403011"><ele>145.5</ele><time>2026-04-03T09:40:38.829Z</time></trkpt><trkpt lat="44.4373056" lon="8.9404281"><ele>145.0</ele><time>2026-04-03T09:40:39.829Z</time></trkpt><trkpt lat="44.4372304" lon="8.9405682"><ele>145.0</ele><time>2026-04-03T09:40:40.83Z</time></trkpt><trkpt lat="44.4371628" lon="8.9407095"><ele>145.0</ele><time>2026-04-03T09:40:41.829Z</time></trkpt><trkpt lat="44.4370964" lon="8.9408682"><ele>145.0</ele><time>2026-04-03T09:40:42.83Z</time></trkpt><trkpt lat="44.4370307" lon="8.9410432"><ele>145.0</ele><time>2026-04-03T09:40:43.83Z</time></trkpt><trkpt lat="44.4369716" lon="8.941224"><ele>143.25</ele><time>2026-04-03T09:40:44.83Z</time></trkpt><trkpt lat="44.4369192" lon="8.9414128"><ele>141.5</ele><time>2026-04-03T09:40:45.83Z</time></trkpt><trkpt lat="44.4368682" lon="8.9416042"><ele>139.75</ele><time>2026-04-03T09:40:46.83Z</time></trkpt><trkpt lat="44.436817" lon="8.9417798"><ele>138.0</ele><time>2026-04-03T09:40:47.83Z</time></trkpt><trkpt lat="44.4367444" lon="8.9419435"><ele>136.75</ele><time>2026-04-03T09:40:48.829Z</time></trkpt><trkpt lat="44.4366485" lon="8.9420549"><ele>135.5</ele><time>2026-04-03T09:40:49.829Z</time></trkpt><trkpt lat="44.4365309" lon="8.9421143"><ele>134.25</ele><time>2026-04-03T09:40:50.83Z</time></trkpt><trkpt lat="44.436394" lon="8.9421263"><ele>133.0</ele><time>2026-04-03T09:40:51.829Z</time></trkpt><trkpt lat="44.4362573" lon="8.942105"><ele>131.75</ele><time>2026-04-03T09:40:52.83Z</time></trkpt><trkpt lat="44.4361159" lon="8.9420674"><ele>130.5</ele><time>2026-04-03T09:40:53.83Z</time></trkpt><trkpt lat="44.4359712" lon="8.9420228"><ele>129.25</ele><time>2026-04-03T09:40:54.83Z</time></trkpt><trkpt lat="44.4358265" lon="8.9419771"><ele>128.0</ele><time>2026-04-03T09:40:55.83Z</time></trkpt><trkpt lat="44.4356712" lon="8.9419289"><ele>128.0</ele><time>2026-04-03T09:40:56.83Z</time></trkpt><trkpt lat="44.4355179" lon="8.9418795"><ele>128.0</ele><time>2026-04-03T09:40:57.83Z</time></trkpt><trkpt lat="44.4353586" lon="8.941826"><ele>128.0</ele><time>2026-04-03T09:40:58.83Z</time></trkpt><trkpt lat="44.435193" lon="8.9417698"><ele>115.0</ele><time>2026-04-03T09:40:59.83Z</time></trkpt><trkpt lat="44.4343652" lon="8.9414912"><ele>115.0</ele><time>2026-04-03T09:41:04.858Z</time></trkpt><trkpt lat="44.4341905" lon="8.9414452"><ele>115.0</ele><time>2026-04-03T09:41:05.856Z</time></trkpt><trkpt lat="44.4340163" lon="8.9414309"><ele>115.0</ele><time>2026-04-03T09:41:06.829Z</time></trkpt><trkpt lat="44.433835" lon="8.9414434"><ele>119.66666666666667</ele><time>2026-04-03T09:41:07.828Z</time></trkpt><trkpt lat="44.4336544" lon="8.9414858"><ele>124.33333333333334</ele><time>2026-04-03T09:41:08.828Z</time></trkpt><trkpt lat="44.4334769" lon="8.9415632"><ele>129.0</ele><time>2026-04-03T09:41:09.828Z</time></trkpt><trkpt lat="44.4333064" lon="8.9416751"><ele>129.0</ele><time>2026-04-03T09:41:10.83Z</time></trkpt><trkpt lat="44.4331536" lon="8.9418172"><ele>129.0</ele><time>2026-04-03T09:41:11.829Z</time></trkpt><trkpt lat="44.433009" lon="8.9419941"><ele>129.0</ele><time>2026-04-03T09:41:12.829Z</time></trkpt><trkpt lat="44.4328876" lon="8.9421906"><ele>129.0</ele><time>2026-04-03T09:41:13.829Z</time></trkpt><trkpt lat="44.4327872" lon="8.9424087"><ele>129.0</ele><time>2026-04-03T09:41:14.829Z</time></trkpt><trkpt lat="44.4327078" lon="8.9426479"><ele>129.0</ele><time>2026-04-03T09:41:15.829Z</time></trkpt><trkpt lat="44.4326514" lon="8.9429039"><ele>122.66666666666666</ele><time>2026-04-03T09:41:16.829Z</time></trkpt><trkpt lat="44.4326177" lon="8.9431711"><ele>116.33333333333333</ele><time>2026-04-03T09:41:17.829Z</time></trkpt><trkpt lat="44.4326056" lon="8.9434425"><ele>110.0</ele><time>2026-04-03T09:41:18.829Z</time></trkpt><trkpt lat="44.4326123" lon="8.9437094"><ele>102.33333333333333</ele><time>2026-04-03T09:41:19.828Z</time></trkpt><trkpt lat="44.4326325" lon="8.9439921"><ele>94.66666666666666</ele><time>2026-04-03T09:41:20.829Z</time></trkpt><trkpt lat="44.4326661" lon="8.9442599"><ele>87.0</ele><time>2026-04-03T09:41:21.829Z</time></trkpt><trkpt lat="44.4327163" lon="8.9445105"><ele>85.0</ele><time>2026-04-03T09:41:22.829Z</time></trkpt><trkpt lat="44.4327843" lon="8.9447578"><ele>83.0</ele><time>2026-04-03T09:41:23.829Z</time></trkpt><trkpt lat="44.4328645" lon="8.944988"><ele>81.0</ele><time>2026-04-03T09:41:24.829Z</time></trkpt><trkpt lat="44.4329548" lon="8.9452056"><ele>85.33333333333333</ele><time>2026-04-03T09:41:25.829Z</time></trkpt><trkpt lat="44.4330568" lon="8.9454056"><ele>89.66666666666666</ele><time>2026-04-03T09:41:26.828Z</time></trkpt><trkpt lat="44.4331721" lon="8.9455719"><ele>94.0</ele><time>2026-04-03T09:41:27.828Z</time></trkpt><trkpt lat="44.4333047" lon="8.945705"><ele>94.0</ele><time>2026-04-03T09:41:28.829Z</time></trkpt><trkpt lat="44.4334409" lon="8.9457919"><ele>94.0</ele><time>2026-04-03T09:41:29.828Z</time></trkpt><trkpt lat="44.4335767" lon="8.9458449"><ele>94.0</ele><time>2026-04-03T09:41:30.829Z</time></trkpt><trkpt lat="44.4337092" lon="8.9458692"><ele>94.0</ele><time>2026-04-03T09:41:31.828Z</time></trkpt><trkpt lat="44.4338393" lon="8.9458735"><ele>93.75</ele><time>2026-04-03T09:41:32.829Z</time></trkpt><trkpt lat="44.4339676" lon="8.945868"><ele>93.5</ele><time>2026-04-03T09:41:33.829Z</time></trkpt><trkpt lat="44.434094" lon="8.9458607"><ele>93.25</ele><time>2026-04-03T09:41:34.829Z</time></trkpt><trkpt lat="44.4342229" lon="8.9458548"><ele>93.0</ele><time>2026-04-03T09:41:35.828Z</time></trkpt><trkpt lat="44.4343634" lon="8.9458485"><ele>93.0</ele><time>2026-04-03T09:41:36.828Z</time></trkpt><trkpt lat="44.4345015" lon="8.9458424"><ele>93.0</ele><time>2026-04-03T09:41:37.829Z</time></trkpt><trkpt lat="44.4346379" lon="8.9458378"><ele>93.0</ele><time>2026-04-03T09:41:38.829Z</time></trkpt><trkpt lat="44.4347816" lon="8.9458328"><ele>93.0</ele><time>2026-04-03T09:41:39.829Z</time></trkpt><trkpt lat="44.4349198" lon="8.9458267"><ele>92.0</ele><time>2026-04-03T09:41:40.829Z</time></trkpt><trkpt lat="44.4350598" lon="8.9458184"><ele>91.0</ele><time>2026-04-03T09:41:41.829Z</time></trkpt><trkpt lat="44.4351964" lon="8.9458095"><ele>90.0</ele><time>2026-04-03T09:41:42.829Z</time></trkpt><trkpt lat="44.4353214" lon="8.9457908"><ele>89.0</ele><time>2026-04-03T09:41:43.829Z</time></trkpt><trkpt lat="44.4354408" lon="8.9457521"><ele>86.5</ele><time>2026-04-03T09:41:44.829Z</time></trkpt><trkpt lat="44.4355495" lon="8.9456959"><ele>84.0</ele><time>2026-04-03T09:41:45.829Z</time></trkpt><trkpt lat="44.4356532" lon="8.9456204"><ele>81.5</ele><time>2026-04-03T09:41:46.829Z</time></trkpt><trkpt lat="44.4357504" lon="8.9455243"><ele>79.0</ele><time>2026-04-03T09:41:47.829Z</time></trkpt><trkpt lat="44.4358369" lon="8.9454097"><ele>79.0</ele><time>2026-04-03T09:41:48.829Z</time></trkpt><trkpt lat="44.4359214" lon="8.9452811"><ele>79.0</ele><time>2026-04-03T09:41:49.829Z</time></trkpt><trkpt lat="44.4359903" lon="8.945133"><ele>79.0</ele><time>2026-04-03T09:41:50.829Z</time></trkpt><trkpt lat="44.4360456" lon="8.9449585"><ele>79.0</ele><time>2026-04-03T09:41:51.829Z</time></trkpt><trkpt lat="44.4360825" lon="8.9447638"><ele>80.0</ele><time>2026-04-03T09:41:52.828Z</time></trkpt><trkpt lat="44.4360938" lon="8.9445749"><ele>81.0</ele><time>2026-04-03T09:41:53.829Z</time></trkpt><trkpt lat="44.436083" lon="8.9443789"><ele>82.0</ele><time>2026-04-03T09:41:54.828Z</time></trkpt><trkpt lat="44.436051" lon="8.9441802"><ele>83.0</ele><time>2026-04-03T09:41:55.828Z</time></trkpt><trkpt lat="44.4360026" lon="8.9439961"><ele>85.0</ele><time>2026-04-03T09:41:56.829Z</time></trkpt><trkpt lat="44.4359368" lon="8.9438213"><ele>87.0</ele><time>2026-04-03T09:41:57.829Z</time></trkpt><trkpt lat="44.4358535" lon="8.9436643"><ele>89.0</ele><time>2026-04-03T09:41:58.829Z</time></trkpt><trkpt lat="44.4357485" lon="8.9435194"><ele>91.0</ele><time>2026-04-03T09:41:59.828Z</time></trkpt><trkpt lat="44.4356243" lon="8.9433977"><ele>89.66666666666666</ele><time>2026-04-03T09:42:00.828Z</time></trkpt><trkpt lat="44.4354176" lon="8.9431626"><ele>88.33333333333333</ele><time>2026-04-03T09:42:02.829Z</time></trkpt><trkpt lat="44.4353138" lon="8.9430401"><ele>87.0</ele><time>2026-04-03T09:42:03.828Z</time></trkpt><trkpt lat="44.4329367" lon="8.9441145"><ele>85.25</ele><time>2026-04-03T09:42:21.858Z</time></trkpt><trkpt lat="44.4328317" lon="8.9442369"><ele>83.5</ele><time>2026-04-03T09:42:22.829Z</time></trkpt><trkpt lat="44.4327447" lon="8.9443554"><ele>81.75</ele><time>2026-04-03T09:42:23.828Z</time></trkpt><trkpt lat="44.4326495" lon="8.9444826"><ele>80.0</ele><time>2026-04-03T09:42:24.83Z</time></trkpt><trkpt lat="44.4325627" lon="8.9445971"><ele>80.0</ele><time>2026-04-03T09:42:25.83Z</time></trkpt><trkpt lat="44.4324661" lon="8.9447054"><ele>80.0</ele><time>2026-04-03T09:42:26.828Z</time></trkpt><trkpt lat="44.4323634" lon="8.9447996"><ele>80.0</ele><time>2026-04-03T09:42:27.828Z</time></trkpt><trkpt lat="44.4322582" lon="8.9448783"><ele>80.0</ele><time>2026-04-03T09:42:28.829Z</time></trkpt><trkpt lat="44.4321494" lon="8.9449558"><ele>77.75</ele><time>2026-04-03T09:42:29.829Z</time></trkpt><trkpt lat="44.4320497" lon="8.9450315"><ele>75.5</ele><time>2026-04-03T09:42:30.829Z</time></trkpt><trkpt lat="44.4319479" lon="8.9451115"><ele>73.25</ele><time>2026-04-03T09:42:31.829Z</time></trkpt><trkpt lat="44.4318451" lon="8.9451984"><ele>71.0</ele><time>2026-04-03T09:42:32.829Z</time></trkpt><trkpt lat="44.4317461" lon="8.9452759"><ele>69.8</ele><time>2026-04-03T09:42:33.829Z</time></trkpt><trkpt lat="44.4316457" lon="8.9453497"><ele>68.6</ele><time>2026-04-03T09:42:34.828Z</time></trkpt><trkpt lat="44.4315442" lon="8.9454142"><ele>67.4</ele><time>2026-04-03T09:42:35.829Z</time></trkpt><trkpt lat="44.4314549" lon="8.9454658"><ele>66.2</ele><time>2026-04-03T09:42:36.829Z</time></trkpt><trkpt lat="44.4313815" lon="8.9455075"><ele>65.0</ele><time>2026-04-03T09:42:37.829Z</time></trkpt><trkpt lat="44.4313212" lon="8.9455398"><ele>62.66666666666667</ele><time>2026-04-03T09:42:38.829Z</time></trkpt><trkpt lat="44.4312366" lon="8.9455836"><ele>60.333333333333336</ele><time>2026-04-03T09:42:40.828Z</time></trkpt><trkpt lat="44.431178" lon="8.9456233"><ele>58.0</ele><time>2026-04-03T09:43:24.829Z</time></trkpt><trkpt lat="44.431076" lon="8.9456631"><ele>55.66666666666667</ele><time>2026-04-03T09:43:26.828Z</time></trkpt><trkpt lat="44.4310016" lon="8.9456922"><ele>53.333333333333336</ele><time>2026-04-03T09:43:27.829Z</time></trkpt><trkpt lat="44.4309112" lon="8.9457224"><ele>51.0</ele><time>2026-04-03T09:43:28.829Z</time></trkpt><trkpt lat="44.4308051" lon="8.9457474"><ele>51.0</ele><time>2026-04-03T09:43:29.829Z</time></trkpt><trkpt lat="44.4306896" lon="8.9457659"><ele>51.0</ele><time>2026-04-03T09:43:30.829Z</time></trkpt><trkpt lat="44.4305662" lon="8.9457762"><ele>51.0</ele><time>2026-04-03T09:43:31.829Z</time></trkpt><trkpt lat="44.430446" lon="8.9457755"><ele>51.0</ele><time>2026-04-03T09:43:32.828Z</time></trkpt><trkpt lat="44.4303191" lon="8.9457682"><ele>49.5</ele><time>2026-04-03T09:43:33.829Z</time></trkpt><trkpt lat="44.4301896" lon="8.9457539"><ele>48.0</ele><time>2026-04-03T09:43:34.829Z</time></trkpt><trkpt lat="44.4300565" lon="8.9457369"><ele>46.5</ele><time>2026-04-03T09:43:35.829Z</time></trkpt><trkpt lat="44.4299221" lon="8.9457189"><ele>45.0</ele><time>2026-04-03T09:43:36.829Z</time></trkpt><trkpt lat="44.4297863" lon="8.9457005"><ele>45.0</ele><time>2026-04-03T09:43:37.828Z</time></trkpt><trkpt lat="44.4296492" lon="8.9456845"><ele>45.0</ele><time>2026-04-03T09:43:38.828Z</time></trkpt><trkpt lat="44.4295023" lon="8.9456721"><ele>45.0</ele><time>2026-04-03T09:43:39.829Z</time></trkpt><trkpt lat="44.4293625" lon="8.9456717"><ele>45.0</ele><time>2026-04-03T09:43:40.829Z</time></trkpt><trkpt lat="44.429216" lon="8.9456918"><ele>51.0</ele><time>2026-04-03T09:43:41.829Z</time></trkpt><trkpt lat="44.4290705" lon="8.9457424"><ele>57.0</ele><time>2026-04-03T09:43:42.829Z</time></trkpt><trkpt lat="44.4289271" lon="8.9458195"><ele>63.0</ele><time>2026-04-03T09:43:43.829Z</time></trkpt><trkpt lat="44.4287894" lon="8.9459068"><ele>63.0</ele><time>2026-04-03T09:43:44.828Z</time></trkpt><trkpt lat="44.4286658" lon="8.9460253"><ele>63.0</ele><time>2026-04-03T09:43:45.828Z</time></trkpt><trkpt lat="44.4285572" lon="8.9461485"><ele>63.0</ele><time>2026-04-03T09:43:46.829Z</time></trkpt><trkpt lat="44.4284566" lon="8.9462885"><ele>63.0</ele><time>2026-04-03T09:43:47.829Z</time></trkpt><trkpt lat="44.4283678" lon="8.9464304"><ele>63.0</ele><time>2026-04-03T09:43:48.828Z</time></trkpt><trkpt lat="44.4282798" lon="8.946583"><ele>63.0</ele><time>2026-04-03T09:43:49.828Z</time></trkpt><trkpt lat="44.428194" lon="8.9467376"><ele>63.0</ele><time>2026-04-03T09:43:50.828Z</time></trkpt><trkpt lat="44.4281085" lon="8.9468951"><ele>63.0</ele><time>2026-04-03T09:43:51.829Z</time></trkpt><trkpt lat="44.4280243" lon="8.9470533"><ele>55.25</ele><time>2026-04-03T09:43:52.829Z</time></trkpt><trkpt lat="44.4279428" lon="8.9472082"><ele>47.5</ele><time>2026-04-03T09:43:53.829Z</time></trkpt><trkpt lat="44.4278606" lon="8.947357"><ele>39.75</ele><time>2026-04-03T09:43:54.829Z</time></trkpt><trkpt lat="44.4277693" lon="8.9474938"><ele>32.0</ele><time>2026-04-03T09:43:55.828Z</time></trkpt><trkpt lat="44.4276813" lon="8.9475706"><ele>30.0</ele><time>2026-04-03T09:43:56.829Z</time></trkpt><trkpt lat="44.4275767" lon="8.9476569"><ele>28.0</ele><time>2026-04-03T09:43:57.829Z</time></trkpt><trkpt lat="44.4274652" lon="8.9477319"><ele>26.0</ele><time>2026-04-03T09:43:58.829Z</time></trkpt><trkpt lat="44.4273579" lon="8.9477765"><ele>24.0</ele><time>2026-04-03T09:43:59.828Z</time></trkpt><trkpt lat="44.4272411" lon="8.9478051"><ele>23.6</ele><time>2026-04-03T09:44:00.828Z</time></trkpt><trkpt lat="44.4271332" lon="8.9478122"><ele>23.2</ele><time>2026-04-03T09:44:01.829Z</time></trkpt><trkpt lat="44.4270229" lon="8.9478047"><ele>22.8</ele><time>2026-04-03T09:44:02.828Z</time></trkpt><trkpt lat="44.4269183" lon="8.9477955"><ele>22.400000000000002</ele><time>2026-04-03T09:44:03.829Z</time></trkpt><trkpt lat="44.4268245" lon="8.9477847"><ele>22.0</ele><time>2026-04-03T09:44:04.829Z</time></trkpt><trkpt lat="44.426734" lon="8.947777"><ele>22.0</ele><time>2026-04-03T09:44:05.829Z</time></trkpt><trkpt lat="44.4266437" lon="8.9477704"><ele>22.0</ele><time>2026-04-03T09:44:06.828Z</time></trkpt><trkpt lat="44.4265508" lon="8.9477718"><ele>22.0</ele><time>2026-04-03T09:44:07.829Z</time></trkpt><trkpt lat="44.4264581" lon="8.9477897"><ele>22.0</ele><time>2026-04-03T09:44:08.829Z</time></trkpt><trkpt lat="44.4263667" lon="8.9478232"><ele>22.0</ele><time>2026-04-03T09:44:09.829Z</time></trkpt><trkpt lat="44.426278" lon="8.9478637"><ele>22.6</ele><time>2026-04-03T09:44:10.829Z</time></trkpt><trkpt lat="44.4261935" lon="8.9479095"><ele>23.200000000000003</ele><time>2026-04-03T09:44:11.829Z</time></trkpt><trkpt lat="44.426126" lon="8.9479503"><ele>23.8</ele><time>2026-04-03T09:44:12.829Z</time></trkpt><trkpt lat="44.4260548" lon="8.9479961"><ele>24.4</ele><time>2026-04-03T09:44:14.829Z</time></trkpt><trkpt lat="44.4259549" lon="8.9480562"><ele>25.0</ele><time>2026-04-03T09:44:23.828Z</time></trkpt><trkpt lat="44.4258469" lon="8.9481161"><ele>25.000000000000004</ele><time>2026-04-03T09:44:25.828Z</time></trkpt><trkpt lat="44.4257596" lon="8.9481677"><ele>25.0</ele><time>2026-04-03T09:44:27.828Z</time></trkpt><trkpt lat="44.4256979" lon="8.9482035"><ele>25.0</ele><time>2026-04-03T09:44:29.829Z</time></trkpt><trkpt lat="44.4256437" lon="8.9482621"><ele>25.0</ele><time>2026-04-03T09:44:32.829Z</time></trkpt><trkpt lat="44.4256038" lon="8.9483527"><ele>25.000000000000004</ele><time>2026-04-03T09:44:49.828Z</time></trkpt><trkpt lat="44.4255903" lon="8.9484935"><ele>25.0</ele><time>2026-04-03T09:44:51.829Z</time></trkpt><trkpt lat="44.42563" lon="8.9486227"><ele>25.333333333333336</ele><time>2026-04-03T09:44:53.829Z</time></trkpt><trkpt lat="44.4257248" lon="8.9487303"><ele>25.666666666666668</ele><time>2026-04-03T09:44:55.829Z</time></trkpt><trkpt lat="44.4257858" lon="8.948773"><ele>26.0</ele><time>2026-04-03T09:44:56.828Z</time></trkpt><trkpt lat="44.4258529" lon="8.948814"><ele>26.333333333333336</ele><time>2026-04-03T09:44:57.829Z</time></trkpt><trkpt lat="44.4259259" lon="8.9488583"><ele>26.666666666666668</ele><time>2026-04-03T09:44:58.829Z</time></trkpt><trkpt lat="44.4260039" lon="8.9489068"><ele>27.0</ele><time>2026-04-03T09:44:59.829Z</time></trkpt><trkpt lat="44.4260773" lon="8.9489561"><ele>27.0</ele><time>2026-04-03T09:45:00.829Z</time></trkpt><trkpt lat="44.4261458" lon="8.9490045"><ele>27.0</ele><time>2026-04-03T09:45:01.829Z</time></trkpt><trkpt lat="44.4262041" lon="8.9490496"><ele>27.0</ele><time>2026-04-03T09:45:02.829Z</time></trkpt><trkpt lat="44.4262958" lon="8.9491391"><ele>27.0</ele><time>2026-04-03T09:45:04.829Z</time></trkpt><trkpt lat="44.4263537" lon="8.9492283"><ele>27.0</ele><time>2026-04-03T09:45:06.829Z</time></trkpt><trkpt lat="44.426411" lon="8.9493041"><ele>27.0</ele><time>2026-04-03T09:46:20.852Z</time></trkpt><trkpt lat="44.4264899" lon="8.9493835"><ele>27.833333333333332</ele><time>2026-04-03T09:46:22.851Z</time></trkpt><trkpt lat="44.4265738" lon="8.9494686"><ele>28.666666666666664</ele><time>2026-04-03T09:46:24.851Z</time></trkpt><trkpt lat="44.4266238" lon="8.9495356"><ele>29.5</ele><time>2026-04-03T09:46:27.852Z</time></trkpt><trkpt lat="44.4266808" lon="8.949611"><ele>30.333333333333332</ele><time>2026-04-03T09:46:29.852Z</time></trkpt><trkpt lat="44.4267306" lon="8.9496839"><ele>31.166666666666664</ele><time>2026-04-03T09:46:30.851Z</time></trkpt><trkpt lat="44.4267844" lon="8.9497658"><ele>32.0</ele><time>2026-04-03T09:46:31.851Z</time></trkpt><trkpt lat="44.4268406" lon="8.9498608"><ele>31.999999999999996</ele><time>2026-04-03T09:46:32.852Z</time></trkpt><trkpt lat="44.4269009" lon="8.9499582"><ele>32.0</ele><time>2026-04-03T09:46:33.852Z</time></trkpt><trkpt lat="44.426955" lon="8.9500614"><ele>32.0</ele><time>2026-04-03T09:46:34.851Z</time></trkpt><trkpt lat="44.4270007" lon="8.9501617"><ele>32.0</ele><time>2026-04-03T09:46:35.852Z</time></trkpt><trkpt lat="44.4270408" lon="8.9502575"><ele>31.999999999999996</ele><time>2026-04-03T09:46:36.851Z</time></trkpt><trkpt lat="44.4270711" lon="8.9503415"><ele>32.0</ele><time>2026-04-03T09:46:37.852Z</time></trkpt><trkpt lat="44.4270985" lon="8.950424"><ele>31.333333333333332</ele><time>2026-04-03T09:46:38.852Z</time></trkpt><trkpt lat="44.4271235" lon="8.950507"><ele>30.666666666666664</ele><time>2026-04-03T09:46:39.852Z</time></trkpt><trkpt lat="44.4271468" lon="8.9505913"><ele>30.0</ele><time>2026-04-03T09:46:40.852Z</time></trkpt><trkpt lat="44.4271861" lon="8.9507288"><ele>29.333333333333336</ele><time>2026-04-03T09:46:42.851Z</time></trkpt><trkpt lat="44.4272163" lon="8.9508485"><ele>28.666666666666668</ele><time>2026-04-03T09:46:44.852Z</time></trkpt><trkpt lat="44.4272501" lon="8.9509646"><ele>28.0</ele><time>2026-04-03T09:46:47.851Z</time></trkpt><trkpt lat="44.4272876" lon="8.9510612"><ele>28.0</ele><time>2026-04-03T09:47:03.852Z</time></trkpt><trkpt lat="44.427307" lon="8.9511558"><ele>27.999999999999996</ele><time>2026-04-03T09:47:05.851Z</time></trkpt><trkpt lat="44.4273308" lon="8.9512786"><ele>27.999999999999996</ele><time>2026-04-03T09:47:07.851Z</time></trkpt><trkpt lat="44.4273628" lon="8.9514307"><ele>28.0</ele><time>2026-04-03T09:47:09.851Z</time></trkpt><trkpt lat="44.4273986" lon="8.9515843"><ele>28.0</ele><time>2026-04-03T09:47:11.852Z</time></trkpt><trkpt lat="44.4274437" lon="8.9517558"><ele>30.166666666666668</ele><time>2026-04-03T09:47:13.851Z</time></trkpt><trkpt lat="44.4274694" lon="8.9518533"><ele>32.333333333333336</ele><time>2026-04-03T09:47:14.851Z</time></trkpt><trkpt lat="44.4274949" lon="8.9519517"><ele>34.5</ele><time>2026-04-03T09:47:15.851Z</time></trkpt><trkpt lat="44.4275336" lon="8.952098"><ele>36.666666666666664</ele><time>2026-04-03T09:47:17.851Z</time></trkpt><trkpt lat="44.4275556" lon="8.952198"><ele>38.83333333333333</ele><time>2026-04-03T09:47:19.851Z</time></trkpt><trkpt lat="44.4275724" lon="8.9522846"><ele>41.0</ele><time>2026-04-03T09:47:21.852Z</time></trkpt><trkpt lat="44.4275913" lon="8.9524009"><ele>41.0</ele><time>2026-04-03T09:47:24.852Z</time></trkpt><trkpt lat="44.4276128" lon="8.9525251"><ele>41.0</ele><time>2026-04-03T09:47:27.851Z</time></trkpt><trkpt lat="44.4276313" lon="8.9526118"><ele>41.0</ele><time>2026-04-03T09:47:30.852Z</time></trkpt><trkpt lat="44.4276533" lon="8.952732"><ele>41.0</ele><time>2026-04-03T09:47:42.851Z</time></trkpt><trkpt lat="44.4276751" lon="8.9528513"><ele>41.0</ele><time>2026-04-03T09:47:44.852Z</time></trkpt><trkpt lat="44.4277053" lon="8.9529885"><ele>41.0</ele><time>2026-04-03T09:47:46.851Z</time></trkpt><trkpt lat="44.4277244" lon="8.9530777"><ele>43.166666666666664</ele><time>2026-04-03T09:47:47.851Z</time></trkpt><trkpt lat="44.4277442" lon="8.9531692"><ele>45.33333333333333</ele><time>2026-04-03T09:47:48.852Z</time></trkpt><trkpt lat="44.427765" lon="8.9532661"><ele>47.5</ele><time>2026-04-03T09:47:49.852Z</time></trkpt><trkpt lat="44.4277869" lon="8.9533706"><ele>49.666666666666664</ele><time>2026-04-03T09:47:50.852Z</time></trkpt><trkpt lat="44.4278124" lon="8.9534863"><ele>51.833333333333336</ele><time>2026-04-03T09:47:51.852Z</time></trkpt><trkpt lat="44.4278385" lon="8.9536072"><ele>54.0</ele><time>2026-04-03T09:47:52.851Z</time></trkpt><trkpt lat="44.4278652" lon="8.9537296"><ele>56.400000000000006</ele><time>2026-04-03T09:47:53.852Z</time></trkpt><trkpt lat="44.4278938" lon="8.9538592"><ele>58.800000000000004</ele><time>2026-04-03T09:47:54.852Z</time></trkpt><trkpt lat="44.4279259" lon="8.9539907"><ele>61.199999999999996</ele><time>2026-04-03T09:47:55.851Z</time></trkpt><trkpt lat="44.4279614" lon="8.9541243"><ele>63.599999999999994</ele><time>2026-04-03T09:47:56.851Z</time></trkpt><trkpt lat="44.427999" lon="8.954259"><ele>66.0</ele><time>2026-04-03T09:47:57.851Z</time></trkpt><trkpt lat="44.4280385" lon="8.9543869"><ele>59.0</ele><time>2026-04-03T09:47:58.852Z</time></trkpt><trkpt lat="44.4280774" lon="8.9545092"><ele>51.99999999999999</ele><time>2026-04-03T09:47:59.851Z</time></trkpt><trkpt lat="44.4281178" lon="8.954636"><ele>45.0</ele><time>2026-04-03T09:48:00.851Z</time></trkpt><trkpt lat="44.4281585" lon="8.9547534"><ele>38.0</ele><time>2026-04-03T09:48:01.852Z</time></trkpt><trkpt lat="44.4281986" lon="8.954862"><ele>31.0</ele><time>2026-04-03T09:48:02.852Z</time></trkpt><trkpt lat="44.4282365" lon="8.9549615"><ele>32.0</ele><time>2026-04-03T09:48:03.852Z</time></trkpt><trkpt lat="44.4282754" lon="8.955055"><ele>33.0</ele><time>2026-04-03T09:48:04.852Z</time></trkpt><trkpt lat="44.4283136" lon="8.9551429"><ele>34.0</ele><time>2026-04-03T09:48:05.851Z</time></trkpt><trkpt lat="44.4283475" lon="8.9552296"><ele>35.0</ele><time>2026-04-03T09:48:06.851Z</time></trkpt><trkpt lat="44.4283806" lon="8.9553195"><ele>36.0</ele><time>2026-04-03T09:48:07.852Z</time></trkpt><trkpt lat="44.4284185" lon="8.955414"><ele>37.0</ele><time>2026-04-03T09:48:08.852Z</time></trkpt><trkpt lat="44.4284565" lon="8.9555108"><ele>37.0</ele><time>2026-04-03T09:48:09.852Z</time></trkpt><trkpt lat="44.4285021" lon="8.9555998"><ele>37.0</ele><time>2026-04-03T09:48:10.851Z</time></trkpt><trkpt lat="44.4285385" lon="8.9556804"><ele>37.0</ele><time>2026-04-03T09:48:11.851Z</time></trkpt><trkpt lat="44.428561" lon="8.955805"><ele>37.0</ele><time>2026-04-03T09:48:13.851Z</time></trkpt><trkpt lat="44.4285627" lon="8.9559043"><ele>37.0</ele><time>2026-04-03T09:48:16.852Z</time></trkpt><trkpt lat="44.4285567" lon="8.9560271"><ele>37.0</ele><time>2026-04-03T09:48:21.851Z</time></trkpt><trkpt lat="44.4285276" lon="8.9561184"><ele>38.285714285714285</ele><time>2026-04-03T09:48:24.852Z</time></trkpt><trkpt lat="44.4285531" lon="8.9562182"><ele>39.57142857142857</ele><time>2026-04-03T09:51:51.852Z</time></trkpt><trkpt lat="44.428592" lon="8.9562881"><ele>40.85714285714286</ele><time>2026-04-03T09:53:11.852Z</time></trkpt><trkpt lat="44.4286633" lon="8.9562777"><ele>42.14285714285714</ele><time>2026-04-03T09:53:18.852Z</time></trkpt><trkpt lat="44.4287206" lon="8.956241"><ele>43.42857142857142</ele><time>2026-04-03T10:00:13.85Z</time></trkpt><trkpt lat="44.4287923" lon="8.9562514"><ele>44.714285714285715</ele><time>2026-04-03T10:00:20.851Z</time></trkpt><trkpt lat="44.4288667" lon="8.9562564"><ele>46.0</ele><time>2026-04-03T10:00:29.851Z</time></trkpt><trkpt lat="44.4289569" lon="8.9563737"><ele>43.66666666666667</ele><time>2026-04-03T10:00:31.85Z</time></trkpt><trkpt lat="44.4290014" lon="8.956454"><ele>41.333333333333336</ele><time>2026-04-03T10:00:32.851Z</time></trkpt><trkpt lat="44.4290424" lon="8.9565315"><ele>39.0</ele><time>2026-04-03T10:00:33.85Z</time></trkpt><trkpt lat="44.4291247" lon="8.9566528"><ele>36.666666666666664</ele><time>2026-04-03T10:00:35.851Z</time></trkpt><trkpt lat="44.4291781" lon="8.9567156"><ele>34.33333333333333</ele><time>2026-04-03T10:00:36.851Z</time></trkpt><trkpt lat="44.4292362" lon="8.9567904"><ele>32.0</ele><time>2026-04-03T10:00:37.851Z</time></trkpt><trkpt lat="44.4292891" lon="8.9568642"><ele>31.999999999999996</ele><time>2026-04-03T10:00:38.851Z</time></trkpt><trkpt lat="44.4293473" lon="8.9569441"><ele>32.0</ele><time>2026-04-03T10:00:39.85Z</time></trkpt><trkpt lat="44.4294093" lon="8.9570281"><ele>32.0</ele><time>2026-04-03T10:00:40.851Z</time></trkpt><trkpt lat="44.4294648" lon="8.9571034"><ele>32.0</ele><time>2026-04-03T10:00:41.85Z</time></trkpt><trkpt lat="44.4295429" lon="8.957215"><ele>31.999999999999996</ele><time>2026-04-03T10:00:43.851Z</time></trkpt><trkpt lat="44.4295875" lon="8.9572774"><ele>32.0</ele><time>2026-04-03T10:00:44.851Z</time></trkpt><trkpt lat="44.4296422" lon="8.9573512"><ele>31.200000000000003</ele><time>2026-04-03T10:00:45.851Z</time></trkpt><trkpt lat="44.4297089" lon="8.9574322"><ele>30.400000000000002</ele><time>2026-04-03T10:00:46.851Z</time></trkpt><trkpt lat="44.4297824" lon="8.9575166"><ele>29.599999999999998</ele><time>2026-04-03T10:00:47.85Z</time></trkpt><trkpt lat="44.4298521" lon="8.9576029"><ele>28.799999999999997</ele><time>2026-04-03T10:00:48.851Z</time></trkpt><trkpt lat="44.429921" lon="8.9576878"><ele>28.0</ele><time>2026-04-03T10:00:49.85Z</time></trkpt><trkpt lat="44.4299875" lon="8.957766"><ele>28.000000000000004</ele><time>2026-04-03T10:00:50.851Z</time></trkpt><trkpt lat="44.4300477" lon="8.9578349"><ele>28.0</ele><time>2026-04-03T10:00:51.851Z</time></trkpt><trkpt lat="44.4300984" lon="8.9578997"><ele>28.0</ele><time>2026-04-03T10:00:52.851Z</time></trkpt><trkpt lat="44.4301614" lon="8.9579771"><ele>28.0</ele><time>2026-04-03T10:00:54.851Z</time></trkpt><trkpt lat="44.4302431" lon="8.9580775"><ele>28.000000000000004</ele><time>2026-04-03T10:01:07.851Z</time></trkpt><trkpt lat="44.4303022" lon="8.9581416"><ele>28.0</ele><time>2026-04-03T10:01:08.851Z</time></trkpt><trkpt lat="44.4303695" lon="8.9582144"><ele>28.000000000000004</ele><time>2026-04-03T10:01:09.851Z</time></trkpt><trkpt lat="44.4304435" lon="8.9582993"><ele>28.0</ele><time>2026-04-03T10:01:10.851Z</time></trkpt><trkpt lat="44.4305155" lon="8.9583862"><ele>28.0</ele><time>2026-04-03T10:01:11.85Z</time></trkpt><trkpt lat="44.4305822" lon="8.9584687"><ele>28.0</ele><time>2026-04-03T10:01:12.85Z</time></trkpt><trkpt lat="44.4306447" lon="8.9585436"><ele>28.000000000000004</ele><time>2026-04-03T10:01:13.851Z</time></trkpt><trkpt lat="44.4306971" lon="8.9586116"><ele>28.0</ele><time>2026-04-03T10:01:14.851Z</time></trkpt><trkpt lat="44.4307744" lon="8.9587083"><ele>28.799999999999997</ele><time>2026-04-03T10:01:16.851Z</time></trkpt><trkpt lat="44.4308251" lon="8.9587679"><ele>29.599999999999998</ele><time>2026-04-03T10:01:19.851Z</time></trkpt><trkpt lat="44.4309002" lon="8.9588423"><ele>30.400000000000002</ele><time>2026-04-03T10:01:21.85Z</time></trkpt><trkpt lat="44.4309676" lon="8.9589138"><ele>31.200000000000003</ele><time>2026-04-03T10:01:22.85Z</time></trkpt><trkpt lat="44.4310471" lon="8.9590093"><ele>32.0</ele><time>2026-04-03T10:01:23.851Z</time></trkpt><trkpt lat="44.4311312" lon="8.9591067"><ele>31.75</ele><time>2026-04-03T10:01:24.851Z</time></trkpt><trkpt lat="44.4312219" lon="8.9592054"><ele>31.5</ele><time>2026-04-03T10:01:25.851Z</time></trkpt><trkpt lat="44.4313169" lon="8.9593062"><ele>31.25</ele><time>2026-04-03T10:01:26.85Z</time></trkpt><trkpt lat="44.4314056" lon="8.9594093"><ele>31.0</ele><time>2026-04-03T10:01:27.851Z</time></trkpt><trkpt lat="44.4314896" lon="8.9595074"><ele>31.0</ele><time>2026-04-03T10:01:28.851Z</time></trkpt><trkpt lat="44.4315709" lon="8.9596031"><ele>31.0</ele><time>2026-04-03T10:01:29.851Z</time></trkpt><trkpt lat="44.4316511" lon="8.9596978"><ele>31.0</ele><time>2026-04-03T10:01:30.851Z</time></trkpt><trkpt lat="44.4317313" lon="8.9597961"><ele>31.0</ele><time>2026-04-03T10:01:31.85Z</time></trkpt><trkpt lat="44.431818" lon="8.959893"><ele>31.0</ele><time>2026-04-03T10:01:32.851Z</time></trkpt><trkpt lat="44.431903" lon="8.9600001"><ele>31.5</ele><time>2026-04-03T10:01:33.85Z</time></trkpt><trkpt lat="44.4319924" lon="8.9601197"><ele>32.0</ele><time>2026-04-03T10:01:34.851Z</time></trkpt><trkpt lat="44.4320923" lon="8.9602432"><ele>32.5</ele><time>2026-04-03T10:01:35.851Z</time></trkpt><trkpt lat="44.4321977" lon="8.9603621"><ele>33.0</ele><time>2026-04-03T10:01:36.85Z</time></trkpt><trkpt lat="44.4323014" lon="8.960475"><ele>33.0</ele><time>2026-04-03T10:01:37.851Z</time></trkpt><trkpt lat="44.4323979" lon="8.9605814"><ele>33.0</ele><time>2026-04-03T10:01:38.851Z</time></trkpt><trkpt lat="44.4324898" lon="8.9606833"><ele>33.0</ele><time>2026-04-03T10:01:39.851Z</time></trkpt><trkpt lat="44.4325856" lon="8.9607799"><ele>33.0</ele><time>2026-04-03T10:01:40.851Z</time></trkpt><trkpt lat="44.4326923" lon="8.9608795"><ele>32.5</ele><time>2026-04-03T10:01:41.85Z</time></trkpt><trkpt lat="44.4328063" lon="8.9609997"><ele>32.0</ele><time>2026-04-03T10:01:42.85Z</time></trkpt><trkpt lat="44.432922" lon="8.9611332"><ele>31.5</ele><time>2026-04-03T10:01:43.851Z</time></trkpt><trkpt lat="44.4330377" lon="8.961264"><ele>31.0</ele><time>2026-04-03T10:01:44.851Z</time></trkpt><trkpt lat="44.4331518" lon="8.9613895"><ele>31.0</ele><time>2026-04-03T10:01:45.851Z</time></trkpt><trkpt lat="44.4332655" lon="8.9615028"><ele>31.0</ele><time>2026-04-03T10:01:46.85Z</time></trkpt><trkpt lat="44.4333758" lon="8.9616045"><ele>31.0</ele><time>2026-04-03T10:01:47.851Z</time></trkpt><trkpt lat="44.4334831" lon="8.9617014"><ele>31.0</ele><time>2026-04-03T10:01:48.85Z</time></trkpt><trkpt lat="44.4335845" lon="8.9617897"><ele>31.0</ele><time>2026-04-03T10:01:49.851Z</time></trkpt><trkpt lat="44.4336788" lon="8.9618697"><ele>31.0</ele><time>2026-04-03T10:01:50.85Z</time></trkpt><trkpt lat="44.4337713" lon="8.9619433"><ele>31.0</ele><time>2026-04-03T10:01:51.851Z</time></trkpt><trkpt lat="44.4338604" lon="8.9620189"><ele>31.0</ele><time>2026-04-03T10:01:52.851Z</time></trkpt><trkpt lat="44.433952" lon="8.9621181"><ele>31.0</ele><time>2026-04-03T10:01:53.85Z</time></trkpt><trkpt lat="44.4340641" lon="8.9622038"><ele>31.0</ele><time>2026-04-03T10:01:54.85Z</time></trkpt><trkpt lat="44.4341861" lon="8.9622807"><ele>31.0</ele><time>2026-04-03T10:01:55.851Z</time></trkpt><trkpt lat="44.4343021" lon="8.9623479"><ele>31.0</ele><time>2026-04-03T10:01:56.851Z</time></trkpt><trkpt lat="44.4344041" lon="8.9624037"><ele>31.0</ele><time>2026-04-03T10:01:57.85Z</time></trkpt><trkpt lat="44.4344938" lon="8.9624529"><ele>31.000000000000004</ele><time>2026-04-03T10:01:58.851Z</time></trkpt><trkpt lat="44.4345745" lon="8.9625016"><ele>31.0</ele><time>2026-04-03T10:01:59.85Z</time></trkpt><trkpt lat="44.4346499" lon="8.962549"><ele>31.0</ele><time>2026-04-03T10:02:00.851Z</time></trkpt><trkpt lat="44.4347234" lon="8.9625918"><ele>31.0</ele><time>2026-04-03T10:02:01.851Z</time></trkpt><trkpt lat="44.4347934" lon="8.9626302"><ele>31.000000000000004</ele><time>2026-04-03T10:02:02.851Z</time></trkpt><trkpt lat="44.4348666" lon="8.9626678"><ele>31.0</ele><time>2026-04-03T10:02:03.85Z</time></trkpt><trkpt lat="44.4349452" lon="8.9627084"><ele>32.16666666666667</ele><time>2026-04-03T10:02:04.851Z</time></trkpt><trkpt lat="44.4350256" lon="8.9627494"><ele>33.333333333333336</ele><time>2026-04-03T10:02:05.851Z</time></trkpt><trkpt lat="44.4351066" lon="8.962791"><ele>34.5</ele><time>2026-04-03T10:02:06.851Z</time></trkpt><trkpt lat="44.4351854" lon="8.9628306"><ele>35.666666666666664</ele><time>2026-04-03T10:02:07.85Z</time></trkpt><trkpt lat="44.4352611" lon="8.9628682"><ele>36.83333333333333</ele><time>2026-04-03T10:02:08.85Z</time></trkpt><trkpt lat="44.4353259" lon="8.9628961"><ele>38.0</ele><time>2026-04-03T10:02:09.85Z</time></trkpt><trkpt lat="44.4354198" lon="8.9629369"><ele>37.166666666666664</ele><time>2026-04-03T10:02:11.85Z</time></trkpt><trkpt lat="44.435501" lon="8.9629732"><ele>36.33333333333333</ele><time>2026-04-03T10:02:13.85Z</time></trkpt><trkpt lat="44.4355595" lon="8.96301"><ele>35.5</ele><time>2026-04-03T10:02:15.851Z</time></trkpt><trkpt lat="44.435617" lon="8.9630769"><ele>34.666666666666664</ele><time>2026-04-03T10:02:17.85Z</time></trkpt><trkpt lat="44.4356821" lon="8.9631964"><ele>33.833333333333336</ele><time>2026-04-03T10:02:19.851Z</time></trkpt><trkpt lat="44.4357259" lon="8.963263"><ele>33.0</ele><time>2026-04-03T10:02:20.851Z</time></trkpt><trkpt lat="44.4357928" lon="8.9632862"><ele>33.0</ele><time>2026-04-03T10:02:21.851Z</time></trkpt><trkpt lat="44.4358841" lon="8.963182"><ele>33.0</ele><time>2026-04-03T10:02:23.851Z</time></trkpt><trkpt lat="44.4358496" lon="8.9630228"><ele>33.0</ele><time>2026-04-03T10:02:25.85Z</time></trkpt><trkpt lat="44.4357887" lon="8.9629797"><ele>33.0</ele><time>2026-04-03T10:02:26.851Z</time></trkpt><trkpt lat="44.4357089" lon="8.9629618"><ele>33.0</ele><time>2026-04-03T10:02:27.851Z</time></trkpt><trkpt lat="44.4356139" lon="8.962929"><ele>33.0</ele><time>2026-04-03T10:02:28.851Z</time></trkpt><trkpt lat="44.4355098" lon="8.962887"><ele>33.0</ele><time>2026-04-03T10:02:29.851Z</time></trkpt><trkpt lat="44.4353919" lon="8.9628424"><ele>33.0</ele><time>2026-04-03T10:02:30.851Z</time></trkpt><trkpt lat="44.4352699" lon="8.9627918"><ele>33.0</ele><time>2026-04-03T10:02:31.851Z</time></trkpt><trkpt lat="44.4351415" lon="8.9627345"><ele>32.5</ele><time>2026-04-03T10:02:32.85Z</time></trkpt><trkpt lat="44.4350054" lon="8.9626732"><ele>32.0</ele><time>2026-04-03T10:02:33.85Z</time></trkpt><trkpt lat="44.4348705" lon="8.9626076"><ele>31.5</ele><time>2026-04-03T10:02:34.851Z</time></trkpt><trkpt lat="44.4347367" lon="8.9625396"><ele>31.0</ele><time>2026-04-03T10:02:35.851Z</time></trkpt><trkpt lat="44.4346034" lon="8.9624683"><ele>31.0</ele><time>2026-04-03T10:02:36.851Z</time></trkpt><trkpt lat="44.4344777" lon="8.9623914"><ele>31.0</ele><time>2026-04-03T10:02:37.851Z</time></trkpt><trkpt lat="44.4343579" lon="8.9623176"><ele>31.0</ele><time>2026-04-03T10:02:38.851Z</time></trkpt><trkpt lat="44.4342504" lon="8.9622457"><ele>31.0</ele><time>2026-04-03T10:02:39.851Z</time></trkpt><trkpt lat="44.4341564" lon="8.9621798"><ele>31.000000000000004</ele><time>2026-04-03T10:02:40.85Z</time></trkpt><trkpt lat="44.4340759" lon="8.9621229"><ele>31.0</ele><time>2026-04-03T10:02:41.85Z</time></trkpt><trkpt lat="44.434012" lon="8.9620768"><ele>31.0</ele><time>2026-04-03T10:02:42.851Z</time></trkpt><trkpt lat="44.433941" lon="8.9620249"><ele>31.0</ele><time>2026-04-03T10:02:44.85Z</time></trkpt><trkpt lat="44.4338645" lon="8.9619799"><ele>31.000000000000004</ele><time>2026-04-03T10:02:59.851Z</time></trkpt><trkpt lat="44.4337761" lon="8.9618973"><ele>31.0</ele><time>2026-04-03T10:03:01.851Z</time></trkpt><trkpt lat="44.4337225" lon="8.9618507"><ele>31.000000000000004</ele><time>2026-04-03T10:03:02.851Z</time></trkpt><trkpt lat="44.4336615" lon="8.9618006"><ele>31.0</ele><time>2026-04-03T10:03:03.851Z</time></trkpt><trkpt lat="44.4336026" lon="8.9617448"><ele>31.0</ele><time>2026-04-03T10:03:04.851Z</time></trkpt><trkpt lat="44.4335263" lon="8.9616791"><ele>31.0</ele><time>2026-04-03T10:03:05.85Z</time></trkpt><trkpt lat="44.4334525" lon="8.9616105"><ele>31.000000000000004</ele><time>2026-04-03T10:03:06.851Z</time></trkpt><trkpt lat="44.4333823" lon="8.9615415"><ele>31.0</ele><time>2026-04-03T10:03:07.851Z</time></trkpt><trkpt lat="44.4333138" lon="8.9614746"><ele>31.0</ele><time>2026-04-03T10:03:08.85Z</time></trkpt><trkpt lat="44.4332484" lon="8.9614096"><ele>31.0</ele><time>2026-04-03T10:03:09.85Z</time></trkpt><trkpt lat="44.4331797" lon="8.961337"><ele>31.0</ele><time>2026-04-03T10:03:10.851Z</time></trkpt><trkpt lat="44.433105" lon="8.9612596"><ele>31.0</ele><time>2026-04-03T10:03:11.851Z</time></trkpt><trkpt lat="44.4330231" lon="8.9611778"><ele>31.0</ele><time>2026-04-03T10:03:12.85Z</time></trkpt><trkpt lat="44.4329408" lon="8.9610909"><ele>31.4</ele><time>2026-04-03T10:03:13.85Z</time></trkpt><trkpt lat="44.4328598" lon="8.960999"><ele>31.8</ele><time>2026-04-03T10:03:14.85Z</time></trkpt><trkpt lat="44.432781" lon="8.9609058"><ele>32.199999999999996</ele><time>2026-04-03T10:03:15.85Z</time></trkpt><trkpt lat="44.4327028" lon="8.9608105"><ele>32.6</ele><time>2026-04-03T10:03:16.85Z</time></trkpt><trkpt lat="44.4326211" lon="8.9607119"><ele>33.0</ele><time>2026-04-03T10:03:17.851Z</time></trkpt><trkpt lat="44.4325362" lon="8.9606131"><ele>33.0</ele><time>2026-04-03T10:03:18.85Z</time></trkpt><trkpt lat="44.4324513" lon="8.9605166"><ele>33.0</ele><time>2026-04-03T10:03:19.851Z</time></trkpt><trkpt lat="44.4323668" lon="8.9604207"><ele>33.0</ele><time>2026-04-03T10:03:20.851Z</time></trkpt><trkpt lat="44.4322821" lon="8.9603263"><ele>33.0</ele><time>2026-04-03T10:03:21.851Z</time></trkpt><trkpt lat="44.4321981" lon="8.96023"><ele>33.0</ele><time>2026-04-03T10:03:22.85Z</time></trkpt><trkpt lat="44.4321135" lon="8.9601338"><ele>32.5</ele><time>2026-04-03T10:03:23.85Z</time></trkpt><trkpt lat="44.4320253" lon="8.9600294"><ele>32.0</ele><time>2026-04-03T10:03:24.85Z</time></trkpt><trkpt lat="44.4319291" lon="8.9599185"><ele>31.5</ele><time>2026-04-03T10:03:25.851Z</time></trkpt><trkpt lat="44.4318326" lon="8.9598061"><ele>31.0</ele><time>2026-04-03T10:03:26.85Z</time></trkpt><trkpt lat="44.4317338" lon="8.9596975"><ele>31.0</ele><time>2026-04-03T10:03:27.85Z</time></trkpt><trkpt lat="44.431633" lon="8.9595908"><ele>31.0</ele><time>2026-04-03T10:03:28.85Z</time></trkpt><trkpt lat="44.4315357" lon="8.9594815"><ele>31.0</ele><time>2026-04-03T10:03:29.851Z</time></trkpt><trkpt lat="44.4314372" lon="8.9593733"><ele>31.0</ele><time>2026-04-03T10:03:30.851Z</time></trkpt><trkpt lat="44.4313404" lon="8.9592682"><ele>31.25</ele><time>2026-04-03T10:03:31.85Z</time></trkpt><trkpt lat="44.4312524" lon="8.9591652"><ele>31.5</ele><time>2026-04-03T10:03:32.851Z</time></trkpt><trkpt lat="44.4311668" lon="8.959062"><ele>31.75</ele><time>2026-04-03T10:03:33.851Z</time></trkpt><trkpt lat="44.4310807" lon="8.9589655"><ele>32.0</ele><time>2026-04-03T10:03:34.85Z</time></trkpt><trkpt lat="44.430994" lon="8.9588634"><ele>32.0</ele><time>2026-04-03T10:03:35.85Z</time></trkpt><trkpt lat="44.4309031" lon="8.9587561"><ele>32.0</ele><time>2026-04-03T10:03:36.851Z</time></trkpt><trkpt lat="44.4308033" lon="8.9586297"><ele>32.0</ele><time>2026-04-03T10:03:37.851Z</time></trkpt><trkpt lat="44.4306839" lon="8.9584809"><ele>32.0</ele><time>2026-04-03T10:03:38.85Z</time></trkpt><trkpt lat="44.4305657" lon="8.9583381"><ele>31.0</ele><time>2026-04-03T10:03:39.851Z</time></trkpt><trkpt lat="44.4304516" lon="8.9582086"><ele>30.0</ele><time>2026-04-03T10:03:40.85Z</time></trkpt><trkpt lat="44.4303411" lon="8.9580865"><ele>29.0</ele><time>2026-04-03T10:03:41.85Z</time></trkpt><trkpt lat="44.4302326" lon="8.9579661"><ele>28.0</ele><time>2026-04-03T10:03:42.851Z</time></trkpt><trkpt lat="44.4301301" lon="8.9578499"><ele>28.000000000000004</ele><time>2026-04-03T10:03:43.851Z</time></trkpt><trkpt lat="44.4300443" lon="8.9577471"><ele>28.0</ele><time>2026-04-03T10:03:44.85Z</time></trkpt><trkpt lat="44.4299701" lon="8.9576636"><ele>28.0</ele><time>2026-04-03T10:03:45.85Z</time></trkpt><trkpt lat="44.4299093" lon="8.9575942"><ele>28.0</ele><time>2026-04-03T10:03:46.851Z</time></trkpt><trkpt lat="44.4298567" lon="8.9575287"><ele>28.000000000000004</ele><time>2026-04-03T10:03:47.851Z</time></trkpt><trkpt lat="44.429806" lon="8.9574627"><ele>28.0</ele><time>2026-04-03T10:03:48.85Z</time></trkpt><trkpt lat="44.4297538" lon="8.9573976"><ele>27.599999999999998</ele><time>2026-04-03T10:03:49.851Z</time></trkpt><trkpt lat="44.4296955" lon="8.9573334"><ele>27.199999999999996</ele><time>2026-04-03T10:03:50.851Z</time></trkpt><trkpt lat="44.429638" lon="8.957253"><ele>26.8</ele><time>2026-04-03T10:03:51.851Z</time></trkpt><trkpt lat="44.4295735" lon="8.9571671"><ele>26.4</ele><time>2026-04-03T10:03:52.85Z</time></trkpt><trkpt lat="44.4295052" lon="8.9570744"><ele>26.0</ele><time>2026-04-03T10:03:53.851Z</time></trkpt><trkpt lat="44.429422" lon="8.9569699"><ele>26.25</ele><time>2026-04-03T10:03:54.851Z</time></trkpt><trkpt lat="44.4293431" lon="8.9568455"><ele>26.5</ele><time>2026-04-03T10:03:55.85Z</time></trkpt><trkpt lat="44.4292677" lon="8.9567262"><ele>26.75</ele><time>2026-04-03T10:03:56.851Z</time></trkpt><trkpt lat="44.4291835" lon="8.9566148"><ele>27.0</ele><time>2026-04-03T10:03:57.851Z</time></trkpt><trkpt lat="44.4291055" lon="8.9565012"><ele>27.0</ele><time>2026-04-03T10:03:58.851Z</time></trkpt><trkpt lat="44.4290416" lon="8.9563977"><ele>27.0</ele><time>2026-04-03T10:03:59.851Z</time></trkpt><trkpt lat="44.4289849" lon="8.9563083"><ele>27.0</ele><time>2026-04-03T10:04:00.851Z</time></trkpt><trkpt lat="44.4289315" lon="8.9562233"><ele>27.0</ele><time>2026-04-03T10:04:01.851Z</time></trkpt><trkpt lat="44.4288809" lon="8.9561373"><ele>27.0</ele><time>2026-04-03T10:04:02.851Z</time></trkpt><trkpt lat="44.428831" lon="8.9560482"><ele>27.0</ele><time>2026-04-03T10:04:03.851Z</time></trkpt><trkpt lat="44.4287794" lon="8.9559533"><ele>28.666666666666668</ele><time>2026-04-03T10:04:04.851Z</time></trkpt><trkpt lat="44.4287318" lon="8.9558609"><ele>30.333333333333336</ele><time>2026-04-03T10:04:05.851Z</time></trkpt><trkpt lat="44.4286872" lon="8.9557715"><ele>32.0</ele><time>2026-04-03T10:04:06.851Z</time></trkpt><trkpt lat="44.4286449" lon="8.9556825"><ele>33.66666666666667</ele><time>2026-04-03T10:04:07.851Z</time></trkpt><trkpt lat="44.428602" lon="8.9555875"><ele>35.333333333333336</ele><time>2026-04-03T10:04:08.851Z</time></trkpt><trkpt lat="44.4285567" lon="8.9554856"><ele>37.0</ele><time>2026-04-03T10:04:09.851Z</time></trkpt><trkpt lat="44.4285089" lon="8.9553758"><ele>37.0</ele><time>2026-04-03T10:04:10.851Z</time></trkpt><trkpt lat="44.4284582" lon="8.9552633"><ele>37.0</ele><time>2026-04-03T10:04:11.851Z</time></trkpt><trkpt lat="44.4284085" lon="8.9551489"><ele>37.0</ele><time>2026-04-03T10:04:12.851Z</time></trkpt><trkpt lat="44.4283628" lon="8.9550341"><ele>37.0</ele><time>2026-04-03T10:04:13.85Z</time></trkpt><trkpt lat="44.4283145" lon="8.9549221"><ele>37.0</ele><time>2026-04-03T10:04:14.851Z</time></trkpt><trkpt lat="44.4282696" lon="8.9548088"><ele>35.800000000000004</ele><time>2026-04-03T10:04:15.85Z</time></trkpt><trkpt lat="44.4282267" lon="8.9546944"><ele>34.6</ele><time>2026-04-03T10:04:16.851Z</time></trkpt><trkpt lat="44.4281868" lon="8.9545832"><ele>33.400000000000006</ele><time>2026-04-03T10:04:17.851Z</time></trkpt><trkpt lat="44.4281502" lon="8.954466"><ele>32.2</ele><time>2026-04-03T10:04:18.851Z</time></trkpt><trkpt lat="44.4281121" lon="8.9543444"><ele>31.0</ele><time>2026-04-03T10:04:19.85Z</time></trkpt><trkpt lat="44.4280743" lon="8.9542222"><ele>29.6</ele><time>2026-04-03T10:04:20.851Z</time></trkpt><trkpt lat="44.4280378" lon="8.9540966"><ele>28.200000000000003</ele><time>2026-04-03T10:04:21.851Z</time></trkpt><trkpt lat="44.428006" lon="8.9539726"><ele>26.799999999999997</ele><time>2026-04-03T10:04:22.851Z</time></trkpt><trkpt lat="44.4279747" lon="8.9538483"><ele>25.4</ele><time>2026-04-03T10:04:23.851Z</time></trkpt><trkpt lat="44.4279413" lon="8.953715"><ele>24.0</ele><time>2026-04-03T10:04:24.851Z</time></trkpt><trkpt lat="44.4279125" lon="8.95358"><ele>29.0</ele><time>2026-04-03T10:04:25.851Z</time></trkpt><trkpt lat="44.4278819" lon="8.9534505"><ele>34.0</ele><time>2026-04-03T10:04:26.85Z</time></trkpt><trkpt lat="44.4278548" lon="8.9533178"><ele>39.0</ele><time>2026-04-03T10:04:27.851Z</time></trkpt><trkpt lat="44.4278306" lon="8.9531899"><ele>44.0</ele><time>2026-04-03T10:04:28.851Z</time></trkpt><trkpt lat="44.4278094" lon="8.9530761"><ele>49.0</ele><time>2026-04-03T10:04:29.851Z</time></trkpt><trkpt lat="44.4277872" lon="8.9529824"><ele>54.0</ele><time>2026-04-03T10:04:30.851Z</time></trkpt><trkpt lat="44.4277509" lon="8.9528315"><ele>54.0</ele><time>2026-04-03T10:04:32.851Z</time></trkpt><trkpt lat="44.4277178" lon="8.9527034"><ele>54.0</ele><time>2026-04-03T10:04:34.85Z</time></trkpt><trkpt lat="44.4276907" lon="8.9525818"><ele>54.0</ele><time>2026-04-03T10:04:36.851Z</time></trkpt><trkpt lat="44.4276686" lon="8.9524715"><ele>54.0</ele><time>2026-04-03T10:04:38.85Z</time></trkpt><trkpt lat="44.4276477" lon="8.9523818"><ele>54.0</ele><time>2026-04-03T10:04:41.85Z</time></trkpt><trkpt lat="44.4276273" lon="8.9522961"><ele>54.0</ele><time>2026-04-03T10:04:46.851Z</time></trkpt><trkpt lat="44.4276115" lon="8.9522055"><ele>51.400000000000006</ele><time>2026-04-03T10:04:56.851Z</time></trkpt><trkpt lat="44.4275831" lon="8.9520483"><ele>48.800000000000004</ele><time>2026-04-03T10:04:58.851Z</time></trkpt><trkpt lat="44.4275446" lon="8.9518816"><ele>46.2</ele><time>2026-04-03T10:05:00.85Z</time></trkpt><trkpt lat="44.4275271" lon="8.951793"><ele>43.599999999999994</ele><time>2026-04-03T10:05:01.851Z</time></trkpt><trkpt lat="44.4275055" lon="8.9516957"><ele>41.0</ele><time>2026-04-03T10:05:02.851Z</time></trkpt><trkpt lat="44.4274833" lon="8.9515918"><ele>38.4</ele><time>2026-04-03T10:05:03.851Z</time></trkpt><trkpt lat="44.4274579" lon="8.9514779"><ele>35.8</ele><time>2026-04-03T10:05:04.851Z</time></trkpt><trkpt lat="44.4274351" lon="8.9513579"><ele>33.199999999999996</ele><time>2026-04-03T10:05:05.851Z</time></trkpt><trkpt lat="44.4274079" lon="8.9512292"><ele>30.599999999999998</ele><time>2026-04-03T10:05:06.851Z</time></trkpt><trkpt lat="44.4273778" lon="8.9510936"><ele>28.0</ele><time>2026-04-03T10:05:07.85Z</time></trkpt><trkpt lat="44.4273479" lon="8.9509555"><ele>26.25</ele><time>2026-04-03T10:05:08.85Z</time></trkpt><trkpt lat="44.4273146" lon="8.9508165"><ele>24.5</ele><time>2026-04-03T10:05:09.851Z</time></trkpt><trkpt lat="44.4272863" lon="8.9506628"><ele>22.75</ele><time>2026-04-03T10:05:10.85Z</time></trkpt><trkpt lat="44.4272547" lon="8.9505062"><ele>21.0</ele><time>2026-04-03T10:05:11.851Z</time></trkpt><trkpt lat="44.4272101" lon="8.9503558"><ele>21.0</ele><time>2026-04-03T10:05:12.851Z</time></trkpt><trkpt lat="44.4271598" lon="8.9502133"><ele>21.0</ele><time>2026-04-03T10:05:13.851Z</time></trkpt><trkpt lat="44.4271058" lon="8.9500768"><ele>21.0</ele><time>2026-04-03T10:05:14.851Z</time></trkpt><trkpt lat="44.4270462" lon="8.9499437"><ele>21.0</ele><time>2026-04-03T10:05:15.85Z</time></trkpt><trkpt lat="44.4269833" lon="8.9498181"><ele>21.0</ele><time>2026-04-03T10:05:16.851Z</time></trkpt><trkpt lat="44.4269223" lon="8.9497003"><ele>21.4</ele><time>2026-04-03T10:05:17.85Z</time></trkpt><trkpt lat="44.4268658" lon="8.9495889"><ele>21.8</ele><time>2026-04-03T10:05:18.851Z</time></trkpt><trkpt lat="44.4268105" lon="8.9494824"><ele>22.2</ele><time>2026-04-03T10:05:19.851Z</time></trkpt><trkpt lat="44.4267501" lon="8.9493809"><ele>22.599999999999998</ele><time>2026-04-03T10:05:20.85Z</time></trkpt><trkpt lat="44.4266831" lon="8.9492865"><ele>23.0</ele><time>2026-04-03T10:05:21.85Z</time></trkpt><trkpt lat="44.4266126" lon="8.9491971"><ele>23.0</ele><time>2026-04-03T10:05:22.85Z</time></trkpt><trkpt lat="44.4265449" lon="8.9491142"><ele>23.0</ele><time>2026-04-03T10:05:23.851Z</time></trkpt><trkpt lat="44.426481" lon="8.9490407"><ele>23.0</ele><time>2026-04-03T10:05:24.851Z</time></trkpt><trkpt lat="44.4264228" lon="8.9489689"><ele>23.0</ele><time>2026-04-03T10:05:25.851Z</time></trkpt><trkpt lat="44.4263802" lon="8.9488847"><ele>23.0</ele><time>2026-04-03T10:05:26.85Z</time></trkpt><trkpt lat="44.4263578" lon="8.9487865"><ele>23.0</ele><time>2026-04-03T10:05:27.85Z</time></trkpt><trkpt lat="44.4263592" lon="8.948681"><ele>23.0</ele><time>2026-04-03T10:05:28.851Z</time></trkpt><trkpt lat="44.4263827" lon="8.9485816"><ele>23.0</ele><time>2026-04-03T10:05:29.851Z</time></trkpt><trkpt lat="44.426421" lon="8.9485035"><ele>23.0</ele><time>2026-04-03T10:05:30.851Z</time></trkpt><trkpt lat="44.4264755" lon="8.9484092"><ele>23.0</ele><time>2026-04-03T10:05:32.85Z</time></trkpt><trkpt lat="44.4265182" lon="8.9483261"><ele>23.0</ele><time>2026-04-03T10:05:36.85Z</time></trkpt><trkpt lat="44.4265764" lon="8.9482326"><ele>23.0</ele><time>2026-04-03T10:05:38.851Z</time></trkpt><trkpt lat="44.4266283" lon="8.9481535"><ele>22.833333333333336</ele><time>2026-04-03T10:05:39.851Z</time></trkpt><trkpt lat="44.4266866" lon="8.948058"><ele>22.666666666666668</ele><time>2026-04-03T10:05:40.851Z</time></trkpt><trkpt lat="44.4267537" lon="8.9479742"><ele>22.5</ele><time>2026-04-03T10:05:41.851Z</time></trkpt><trkpt lat="44.4268335" lon="8.9479137"><ele>22.333333333333332</ele><time>2026-04-03T10:05:42.851Z</time></trkpt><trkpt lat="44.4269185" lon="8.9478891"><ele>22.166666666666664</ele><time>2026-04-03T10:05:43.85Z</time></trkpt><trkpt lat="44.4270088" lon="8.9478768"><ele>22.0</ele><time>2026-04-03T10:05:44.85Z</time></trkpt><trkpt lat="44.4271035" lon="8.9478697"><ele>22.400000000000002</ele><time>2026-04-03T10:05:45.85Z</time></trkpt><trkpt lat="44.4271996" lon="8.9478707"><ele>22.8</ele><time>2026-04-03T10:05:46.85Z</time></trkpt><trkpt lat="44.4272986" lon="8.9478625"><ele>23.2</ele><time>2026-04-03T10:05:47.851Z</time></trkpt><trkpt lat="44.427397" lon="8.9478367"><ele>23.6</ele><time>2026-04-03T10:05:48.851Z</time></trkpt><trkpt lat="44.427494" lon="8.9477966"><ele>24.0</ele><time>2026-04-03T10:05:49.851Z</time></trkpt><trkpt lat="44.4275899" lon="8.94774"><ele>24.0</ele><time>2026-04-03T10:05:50.851Z</time></trkpt><trkpt lat="44.4276831" lon="8.9476635"><ele>24.0</ele><time>2026-04-03T10:05:51.851Z</time></trkpt><trkpt lat="44.4277734" lon="8.947568"><ele>24.0</ele><time>2026-04-03T10:05:52.851Z</time></trkpt><trkpt lat="44.4278594" lon="8.9474546"><ele>24.0</ele><time>2026-04-03T10:05:53.851Z</time></trkpt><trkpt lat="44.427935" lon="8.9473356"><ele>29.0</ele><time>2026-04-03T10:05:54.851Z</time></trkpt><trkpt lat="44.4280096" lon="8.9472143"><ele>34.0</ele><time>2026-04-03T10:05:55.851Z</time></trkpt><trkpt lat="44.4280832" lon="8.9470916"><ele>39.0</ele><time>2026-04-03T10:05:56.851Z</time></trkpt><trkpt lat="44.429604" lon="8.9457661"><ele>40.5</ele><time>2026-04-03T10:06:10.85Z</time></trkpt><trkpt lat="44.4297423" lon="8.9457707"><ele>42.0</ele><time>2026-04-03T10:06:11.851Z</time></trkpt><trkpt lat="44.4298602" lon="8.9458"><ele>43.5</ele><time>2026-04-03T10:06:12.851Z</time></trkpt><trkpt lat="44.4299817" lon="8.9458222"><ele>45.0</ele><time>2026-04-03T10:06:13.851Z</time></trkpt><trkpt lat="44.4301018" lon="8.9458432"><ele>45.0</ele><time>2026-04-03T10:06:14.851Z</time></trkpt><trkpt lat="44.4302191" lon="8.9458693"><ele>45.0</ele><time>2026-04-03T10:06:15.851Z</time></trkpt><trkpt lat="44.4303363" lon="8.9458949"><ele>45.0</ele><time>2026-04-03T10:06:16.851Z</time></trkpt><trkpt lat="44.4304537" lon="8.9459203"><ele>45.0</ele><time>2026-04-03T10:06:17.85Z</time></trkpt><trkpt lat="44.4305621" lon="8.9459417"><ele>45.333333333333336</ele><time>2026-04-03T10:06:18.851Z</time></trkpt><trkpt lat="44.4306668" lon="8.9459568"><ele>45.666666666666664</ele><time>2026-04-03T10:06:19.85Z</time></trkpt><trkpt lat="44.4307622" lon="8.94597"><ele>46.0</ele><time>2026-04-03T10:06:20.851Z</time></trkpt><trkpt lat="44.4308448" lon="8.9459848"><ele>46.33333333333333</ele><time>2026-04-03T10:06:21.851Z</time></trkpt><trkpt lat="44.4309197" lon="8.945985"><ele>46.666666666666664</ele><time>2026-04-03T10:06:22.851Z</time></trkpt><trkpt lat="44.4309935" lon="8.9459778"><ele>47.0</ele><time>2026-04-03T10:06:23.851Z</time></trkpt><trkpt lat="44.431098" lon="8.9459457"><ele>47.0</ele><time>2026-04-03T10:06:25.851Z</time></trkpt><trkpt lat="44.4311672" lon="8.9459215"><ele>47.0</ele><time>2026-04-03T10:06:27.85Z</time></trkpt><trkpt lat="44.4312312" lon="8.9458994"><ele>47.0</ele><time>2026-04-03T10:06:30.851Z</time></trkpt><trkpt lat="44.4312906" lon="8.9458608"><ele>47.0</ele><time>2026-04-03T10:06:47.85Z</time></trkpt><trkpt lat="44.4313579" lon="8.9458168"><ele>47.0</ele><time>2026-04-03T10:07:04.851Z</time></trkpt><trkpt lat="44.4314881" lon="8.9457601"><ele>47.0</ele><time>2026-04-03T10:07:06.851Z</time></trkpt><trkpt lat="44.4315628" lon="8.945719"><ele>51.5</ele><time>2026-04-03T10:07:07.851Z</time></trkpt><trkpt lat="44.4316387" lon="8.9456703"><ele>56.0</ele><time>2026-04-03T10:07:08.851Z</time></trkpt><trkpt lat="44.4317248" lon="8.9456057"><ele>60.5</ele><time>2026-04-03T10:07:09.85Z</time></trkpt><trkpt lat="44.4318462" lon="8.9455042"><ele>65.0</ele><time>2026-04-03T10:07:10.85Z</time></trkpt><trkpt lat="44.4319909" lon="8.9453738"><ele>70.0</ele><time>2026-04-03T10:07:11.851Z</time></trkpt><trkpt lat="44.4321506" lon="8.9452201"><ele>75.0</ele><time>2026-04-03T10:07:12.851Z</time></trkpt><trkpt lat="44.4323054" lon="8.9450478"><ele>80.0</ele><time>2026-04-03T10:07:13.85Z</time></trkpt><trkpt lat="44.4324363" lon="8.9448747"><ele>80.0</ele><time>2026-04-03T10:07:14.85Z</time></trkpt><trkpt lat="44.4325552" lon="8.9447144"><ele>80.0</ele><time>2026-04-03T10:07:15.85Z</time></trkpt><trkpt lat="44.4326654" lon="8.9445655"><ele>80.0</ele><time>2026-04-03T10:07:16.851Z</time></trkpt><trkpt lat="44.4327714" lon="8.9444247"><ele>80.0</ele><time>2026-04-03T10:07:17.851Z</time></trkpt><trkpt lat="44.4328679" lon="8.9442928"><ele>80.0</ele><time>2026-04-03T10:07:18.85Z</time></trkpt><trkpt lat="44.4329615" lon="8.9441635"><ele>80.0</ele><time>2026-04-03T10:07:19.85Z</time></trkpt><trkpt lat="44.4330533" lon="8.9440376"><ele>80.0</ele><time>2026-04-03T10:07:20.851Z</time></trkpt><trkpt lat="44.4331456" lon="8.9439165"><ele>83.25</ele><time>2026-04-03T10:07:21.851Z</time></trkpt><trkpt lat="44.4332339" lon="8.9438028"><ele>86.5</ele><time>2026-04-03T10:07:22.851Z</time></trkpt><trkpt lat="44.4333271" lon="8.9436848"><ele>89.75</ele><time>2026-04-03T10:07:23.85Z</time></trkpt><trkpt lat="44.4334232" lon="8.9435773"><ele>93.0</ele><time>2026-04-03T10:07:24.851Z</time></trkpt><trkpt lat="44.4335241" lon="8.9434851"><ele>91.0</ele><time>2026-04-03T10:07:25.851Z</time></trkpt><trkpt lat="44.4358893" lon="8.9438641"><ele>91.0</ele><time>2026-04-03T10:07:45.85Z</time></trkpt><trkpt lat="44.4359577" lon="8.9440407"><ele>91.0</ele><time>2026-04-03T10:07:46.851Z</time></trkpt><trkpt lat="44.4360143" lon="8.9442147"><ele>91.0</ele><time>2026-04-03T10:07:47.85Z</time></trkpt><trkpt lat="44.4360447" lon="8.9443841"><ele>91.0</ele><time>2026-04-03T10:07:48.851Z</time></trkpt><trkpt lat="44.4360551" lon="8.9445586"><ele>89.0</ele><time>2026-04-03T10:07:49.85Z</time></trkpt><trkpt lat="44.4360561" lon="8.9447316"><ele>87.0</ele><time>2026-04-03T10:07:50.85Z</time></trkpt><trkpt lat="44.4360353" lon="8.9448943"><ele>85.0</ele><time>2026-04-03T10:07:51.851Z</time></trkpt><trkpt lat="44.4359948" lon="8.9450504"><ele>83.0</ele><time>2026-04-03T10:07:52.85Z</time></trkpt><trkpt lat="44.4359381" lon="8.9451969"><ele>82.0</ele><time>2026-04-03T10:07:53.851Z</time></trkpt><trkpt lat="44.4358693" lon="8.9453347"><ele>81.0</ele><time>2026-04-03T10:07:54.851Z</time></trkpt><trkpt lat="44.4357933" lon="8.9454586"><ele>80.0</ele><time>2026-04-03T10:07:55.851Z</time></trkpt><trkpt lat="44.4357005" lon="8.9455659"><ele>79.0</ele><time>2026-04-03T10:07:56.851Z</time></trkpt><trkpt lat="44.435594" lon="8.9456494"><ele>79.0</ele><time>2026-04-03T10:07:57.851Z</time></trkpt><trkpt lat="44.4354822" lon="8.9457088"><ele>79.0</ele><time>2026-04-03T10:07:58.851Z</time></trkpt><trkpt lat="44.4353663" lon="8.9457491"><ele>79.0</ele><time>2026-04-03T10:07:59.85Z</time></trkpt><trkpt lat="44.4352484" lon="8.9457714"><ele>79.0</ele><time>2026-04-03T10:08:00.851Z</time></trkpt><trkpt lat="44.4351301" lon="8.9457767"><ele>81.5</ele><time>2026-04-03T10:08:01.851Z</time></trkpt><trkpt lat="44.4350107" lon="8.9457774"><ele>84.0</ele><time>2026-04-03T10:08:02.851Z</time></trkpt><trkpt lat="44.4348924" lon="8.9457749"><ele>86.5</ele><time>2026-04-03T10:08:03.851Z</time></trkpt><trkpt lat="44.434775" lon="8.9457782"><ele>89.0</ele><time>2026-04-03T10:08:04.85Z</time></trkpt><trkpt lat="44.4346579" lon="8.945778"><ele>89.80000000000001</ele><time>2026-04-03T10:08:05.851Z</time></trkpt><trkpt lat="44.4345448" lon="8.9457803"><ele>90.60000000000001</ele><time>2026-04-03T10:08:06.851Z</time></trkpt><trkpt lat="44.4344356" lon="8.945781"><ele>91.4</ele><time>2026-04-03T10:08:07.851Z</time></trkpt><trkpt lat="44.4343304" lon="8.9457874"><ele>92.2</ele><time>2026-04-03T10:08:08.85Z</time></trkpt><trkpt lat="44.4342254" lon="8.9457943"><ele>93.0</ele><time>2026-04-03T10:08:09.85Z</time></trkpt><trkpt lat="44.4341194" lon="8.9457988"><ele>93.0</ele><time>2026-04-03T10:08:10.851Z</time></trkpt><trkpt lat="44.4340135" lon="8.9458004"><ele>93.0</ele><time>2026-04-03T10:08:11.851Z</time></trkpt><trkpt lat="44.4339056" lon="8.9458032"><ele>93.0</ele><time>2026-04-03T10:08:12.851Z</time></trkpt><trkpt lat="44.4337978" lon="8.9458057"><ele>93.0</ele><time>2026-04-03T10:08:13.85Z</time></trkpt><trkpt lat="44.4336905" lon="8.9458048"><ele>93.0</ele><time>2026-04-03T10:08:14.85Z</time></trkpt><trkpt lat="44.4335844" lon="8.945787"><ele>93.16666666666667</ele><time>2026-04-03T10:08:15.851Z</time></trkpt><trkpt lat="44.4334903" lon="8.9457538"><ele>93.33333333333333</ele><time>2026-04-03T10:08:16.851Z</time></trkpt><trkpt lat="44.4334057" lon="8.9457115"><ele>93.5</ele><time>2026-04-03T10:08:17.851Z</time></trkpt><trkpt lat="44.4333274" lon="8.9456581"><ele>93.66666666666666</ele><time>2026-04-03T10:08:18.851Z</time></trkpt><trkpt lat="44.4332596" lon="8.9455983"><ele>93.83333333333333</ele><time>2026-04-03T10:08:19.851Z</time></trkpt><trkpt lat="44.4332012" lon="8.9455404"><ele>94.0</ele><time>2026-04-03T10:08:20.851Z</time></trkpt><trkpt lat="44.4331499" lon="8.9454826"><ele>94.0</ele><time>2026-04-03T10:08:21.851Z</time></trkpt><trkpt lat="44.4330786" lon="8.9453801"><ele>94.0</ele><time>2026-04-03T10:08:23.851Z</time></trkpt><trkpt lat="44.4330174" lon="8.9452628"><ele>94.0</ele><time>2026-04-03T10:08:25.851Z</time></trkpt><trkpt lat="44.4329502" lon="8.9451031"><ele>94.0</ele><time>2026-04-03T10:08:27.851Z</time></trkpt><trkpt lat="44.4329156" lon="8.9450077"><ele>94.0</ele><time>2026-04-03T10:08:28.851Z</time></trkpt><trkpt lat="44.4328771" lon="8.9449044"><ele>91.66666666666666</ele><time>2026-04-03T10:08:29.851Z</time></trkpt><trkpt lat="44.4328399" lon="8.9447983"><ele>89.33333333333333</ele><time>2026-04-03T10:08:30.85Z</time></trkpt><trkpt lat="44.4328056" lon="8.9446891"><ele>87.0</ele><time>2026-04-03T10:08:31.85Z</time></trkpt><trkpt lat="44.4327768" lon="8.9445755"><ele>84.66666666666667</ele><time>2026-04-03T10:08:32.851Z</time></trkpt><trkpt lat="44.4327495" lon="8.9444621"><ele>82.33333333333334</ele><time>2026-04-03T10:08:33.851Z</time></trkpt><trkpt lat="44.4327254" lon="8.94435"><ele>80.0</ele><time>2026-04-03T10:08:34.851Z</time></trkpt><trkpt lat="44.4327044" lon="8.944245"><ele>81.16666666666667</ele><time>2026-04-03T10:08:35.85Z</time></trkpt><trkpt lat="44.432686" lon="8.9441346"><ele>82.33333333333334</ele><time>2026-04-03T10:08:36.851Z</time></trkpt><trkpt lat="44.4326721" lon="8.9440222"><ele>83.5</ele><time>2026-04-03T10:08:37.85Z</time></trkpt><trkpt lat="44.4326648" lon="8.9439051"><ele>84.66666666666667</ele><time>2026-04-03T10:08:38.851Z</time></trkpt><trkpt lat="44.4326578" lon="8.9437904"><ele>85.83333333333333</ele><time>2026-04-03T10:08:39.85Z</time></trkpt><trkpt lat="44.4326501" lon="8.9436761"><ele>87.0</ele><time>2026-04-03T10:08:40.851Z</time></trkpt><trkpt lat="44.4326439" lon="8.9435617"><ele>87.0</ele><time>2026-04-03T10:08:41.85Z</time></trkpt><trkpt lat="44.4326433" lon="8.9434455"><ele>87.0</ele><time>2026-04-03T10:08:42.85Z</time></trkpt><trkpt lat="44.4326499" lon="8.9433231"><ele>87.0</ele><time>2026-04-03T10:08:43.851Z</time></trkpt><trkpt lat="44.4326591" lon="8.9431939"><ele>87.0</ele><time>2026-04-03T10:08:44.851Z</time></trkpt><trkpt lat="44.4326739" lon="8.9430677"><ele>87.0</ele><time>2026-04-03T10:08:45.851Z</time></trkpt><trkpt lat="44.4326919" lon="8.9429464"><ele>87.0</ele><time>2026-04-03T10:08:46.851Z</time></trkpt><trkpt lat="44.4327183" lon="8.9428208"><ele>91.6</ele><time>2026-04-03T10:08:47.851Z</time></trkpt><trkpt lat="44.4327546" lon="8.9426972"><ele>96.19999999999999</ele><time>2026-04-03T10:08:48.851Z</time></trkpt><trkpt lat="44.4327945" lon="8.9425752"><ele>100.8</ele><time>2026-04-03T10:08:49.851Z</time></trkpt><trkpt lat="44.4328409" lon="8.9424531"><ele>105.4</ele><time>2026-04-03T10:08:50.85Z</time></trkpt><trkpt lat="44.4328894" lon="8.9423352"><ele>110.0</ele><time>2026-04-03T10:08:51.85Z</time></trkpt><trkpt lat="44.4329442" lon="8.9422218"><ele>109.2</ele><time>2026-04-03T10:08:52.85Z</time></trkpt><trkpt lat="44.4330075" lon="8.9421157"><ele>108.4</ele><time>2026-04-03T10:08:53.851Z</time></trkpt><trkpt lat="44.4330745" lon="8.9420137"><ele>107.6</ele><time>2026-04-03T10:08:54.851Z</time></trkpt><trkpt lat="44.4331442" lon="8.9419178"><ele>106.8</ele><time>2026-04-03T10:08:55.851Z</time></trkpt><trkpt lat="44.4332163" lon="8.9418297"><ele>106.0</ele><time>2026-04-03T10:08:56.851Z</time></trkpt><trkpt lat="44.4332975" lon="8.941749"><ele>110.6</ele><time>2026-04-03T10:08:57.85Z</time></trkpt><trkpt lat="44.4333812" lon="8.9416808"><ele>115.19999999999999</ele><time>2026-04-03T10:08:58.851Z</time></trkpt><trkpt lat="44.4334707" lon="8.9416273"><ele>119.80000000000001</ele><time>2026-04-03T10:08:59.85Z</time></trkpt><trkpt lat="44.4335655" lon="8.9415843"><ele>124.4</ele><time>2026-04-03T10:09:00.851Z</time></trkpt><trkpt lat="44.4336628" lon="8.9415483"><ele>129.0</ele><time>2026-04-03T10:09:01.85Z</time></trkpt><trkpt lat="44.433762" lon="8.9415241"><ele>126.2</ele><time>2026-04-03T10:09:02.85Z</time></trkpt><trkpt lat="44.4338632" lon="8.9415079"><ele>123.4</ele><time>2026-04-03T10:09:03.851Z</time></trkpt><trkpt lat="44.4339659" lon="8.9415019"><ele>120.6</ele><time>2026-04-03T10:09:04.851Z</time></trkpt><trkpt lat="44.4340701" lon="8.9415048"><ele>117.8</ele><time>2026-04-03T10:09:05.851Z</time></trkpt><trkpt lat="44.4341744" lon="8.9415164"><ele>115.0</ele><time>2026-04-03T10:09:06.851Z</time></trkpt><trkpt lat="44.4342793" lon="8.9415368"><ele>115.0</ele><time>2026-04-03T10:09:07.85Z</time></trkpt><trkpt lat="44.4343842" lon="8.9415614"><ele>115.0</ele><time>2026-04-03T10:09:08.851Z</time></trkpt><trkpt lat="44.4344862" lon="8.9415885"><ele>115.0</ele><time>2026-04-03T10:09:09.85Z</time></trkpt><trkpt lat="44.434581" lon="8.941612"><ele>115.0</ele><time>2026-04-03T10:09:10.851Z</time></trkpt><trkpt lat="44.4346637" lon="8.9416327"><ele>115.0</ele><time>2026-04-03T10:09:11.85Z</time></trkpt><trkpt lat="44.4347486" lon="8.9416596"><ele>119.33333333333334</ele><time>2026-04-03T10:09:12.85Z</time></trkpt><trkpt lat="44.43483" lon="8.941689"><ele>123.66666666666666</ele><time>2026-04-03T10:09:13.851Z</time></trkpt><trkpt lat="44.4349116" lon="8.9417165"><ele>128.0</ele><time>2026-04-03T10:09:14.851Z</time></trkpt><trkpt lat="44.4358767" lon="8.9420536"><ele>128.0</ele><time>2026-04-03T10:09:24.85Z</time></trkpt><trkpt lat="44.4359773" lon="8.9420878"><ele>128.0</ele><time>2026-04-03T10:09:25.851Z</time></trkpt><trkpt lat="44.4360942" lon="8.9421334"><ele>128.0</ele><time>2026-04-03T10:09:26.851Z</time></trkpt><trkpt lat="44.4362132" lon="8.9421833"><ele>128.0</ele><time>2026-04-03T10:09:27.851Z</time></trkpt><trkpt lat="44.4363341" lon="8.9422386"><ele>128.0</ele><time>2026-04-03T10:09:28.851Z</time></trkpt><trkpt lat="44.4364507" lon="8.9422947"><ele>128.0</ele><time>2026-04-03T10:09:29.851Z</time></trkpt><trkpt lat="44.4365597" lon="8.9423694"><ele>128.0</ele><time>2026-04-03T10:09:30.85Z</time></trkpt><trkpt lat="44.4366596" lon="8.9424766"><ele>128.0</ele><time>2026-04-03T10:09:31.85Z</time></trkpt><trkpt lat="44.436731" lon="8.9426205"><ele>128.0</ele><time>2026-04-03T10:09:32.85Z</time></trkpt><trkpt lat="44.4367746" lon="8.9427947"><ele>128.0</ele><time>2026-04-03T10:09:33.851Z</time></trkpt><trkpt lat="44.4368045" lon="8.9429855"><ele>128.0</ele><time>2026-04-03T10:09:34.85Z</time></trkpt><trkpt lat="44.4368272" lon="8.9431835"><ele>128.0</ele><time>2026-04-03T10:09:35.85Z</time></trkpt><trkpt lat="44.4368485" lon="8.9433785"><ele>127.0</ele><time>2026-04-03T10:09:36.851Z</time></trkpt><trkpt lat="44.436868" lon="8.9435721"><ele>126.0</ele><time>2026-04-03T10:09:37.851Z</time></trkpt><trkpt lat="44.4368877" lon="8.9437677"><ele>125.0</ele><time>2026-04-03T10:09:38.851Z</time></trkpt><trkpt lat="44.4369099" lon="8.9439653"><ele>124.0</ele><time>2026-04-03T10:09:39.85Z</time></trkpt><trkpt lat="44.4369309" lon="8.9441669"><ele>122.33333333333334</ele><time>2026-04-03T10:09:40.85Z</time></trkpt><trkpt lat="44.4369492" lon="8.944376"><ele>120.66666666666666</ele><time>2026-04-03T10:09:41.851Z</time></trkpt><trkpt lat="44.4369666" lon="8.9445943"><ele>119.0</ele><time>2026-04-03T10:09:42.851Z</time></trkpt><trkpt lat="44.4369825" lon="8.9448217"><ele>116.0</ele><time>2026-04-03T10:09:43.85Z</time></trkpt><trkpt lat="44.4369981" lon="8.9450585"><ele>113.0</ele><time>2026-04-03T10:09:44.851Z</time></trkpt><trkpt lat="44.4370125" lon="8.9453008"><ele>110.0</ele><time>2026-04-03T10:09:45.85Z</time></trkpt><trkpt lat="44.4370253" lon="8.9455516"><ele>110.0</ele><time>2026-04-03T10:09:46.851Z</time></trkpt><trkpt lat="44.4370367" lon="8.9458095"><ele>110.0</ele><time>2026-04-03T10:09:47.851Z</time></trkpt><trkpt lat="44.4370485" lon="8.946075"><ele>110.0</ele><time>2026-04-03T10:09:48.851Z</time></trkpt><trkpt lat="44.43706" lon="8.9463452"><ele>104.33333333333333</ele><time>2026-04-03T10:09:49.85Z</time></trkpt><trkpt lat="44.437071" lon="8.9466239"><ele>98.66666666666666</ele><time>2026-04-03T10:09:50.851Z</time></trkpt><trkpt lat="44.4370831" lon="8.9469053"><ele>93.0</ele><time>2026-04-03T10:09:51.851Z</time></trkpt><trkpt lat="44.4370939" lon="8.9471885"><ele>96.0</ele><time>2026-04-03T10:09:52.851Z</time></trkpt><trkpt lat="44.4371094" lon="8.9474836"><ele>99.0</ele><time>2026-04-03T10:09:53.851Z</time></trkpt><trkpt lat="44.4371307" lon="8.9477908"><ele>102.0</ele><time>2026-04-03T10:09:54.85Z</time></trkpt><trkpt lat="44.4371473" lon="8.9481095"><ele>114.0</ele><time>2026-04-03T10:09:55.851Z</time></trkpt><trkpt lat="44.4371596" lon="8.9484377"><ele>126.0</ele><time>2026-04-03T10:09:56.851Z</time></trkpt><trkpt lat="44.4371629" lon="8.9487665"><ele>126.0</ele><time>2026-04-03T10:09:57.851Z</time></trkpt><trkpt lat="44.4371468" lon="8.9490967"><ele>126.0</ele><time>2026-04-03T10:09:58.851Z</time></trkpt><trkpt lat="44.4371142" lon="8.9494274"><ele>153.0</ele><time>2026-04-03T10:09:59.851Z</time></trkpt><trkpt lat="44.437066" lon="8.9497541"><ele>180.0</ele><time>2026-04-03T10:10:00.85Z</time></trkpt><trkpt lat="44.4369996" lon="8.9500676"><ele>96.0</ele><time>2026-04-03T10:10:01.85Z</time></trkpt><trkpt lat="44.4347929" lon="8.9566818"><ele>91.5</ele><time>2026-04-03T10:10:21.85Z</time></trkpt><trkpt lat="44.4346772" lon="8.9570032"><ele>87.0</ele><time>2026-04-03T10:10:22.851Z</time></trkpt><trkpt lat="44.4345473" lon="8.9573078"><ele>70.0</ele><time>2026-04-03T10:10:23.851Z</time></trkpt><trkpt lat="44.4344022" lon="8.9575973"><ele>53.0</ele><time>2026-04-03T10:10:24.85Z</time></trkpt><trkpt lat="44.4342487" lon="8.9578759"><ele>53.0</ele><time>2026-04-03T10:10:25.851Z</time></trkpt><trkpt lat="44.4340964" lon="8.9581507"><ele>53.0</ele><time>2026-04-03T10:10:26.851Z</time></trkpt><trkpt lat="44.4339477" lon="8.9584268"><ele>48.5</ele><time>2026-04-03T10:10:27.851Z</time></trkpt><trkpt lat="44.4337958" lon="8.9587013"><ele>44.0</ele><time>2026-04-03T10:10:28.851Z</time></trkpt><trkpt lat="44.4336437" lon="8.9589741"><ele>39.5</ele><time>2026-04-03T10:10:29.851Z</time></trkpt><trkpt lat="44.433497" lon="8.9592454"><ele>35.0</ele><time>2026-04-03T10:10:30.85Z</time></trkpt><trkpt lat="44.4333484" lon="8.9595153"><ele>35.0</ele><time>2026-04-03T10:10:31.851Z</time></trkpt><trkpt lat="44.4331996" lon="8.9597841"><ele>35.0</ele><time>2026-04-03T10:10:32.85Z</time></trkpt><trkpt lat="44.4330508" lon="8.9600499"><ele>34.0</ele><time>2026-04-03T10:10:33.851Z</time></trkpt><trkpt lat="44.4329018" lon="8.9603178"><ele>33.0</ele><time>2026-04-03T10:10:34.85Z</time></trkpt><trkpt lat="44.4327555" lon="8.960585"><ele>33.0</ele><time>2026-04-03T10:10:35.85Z</time></trkpt><trkpt lat="44.4326077" lon="8.9608503"><ele>33.0</ele><time>2026-04-03T10:10:36.851Z</time></trkpt><trkpt lat="44.4324607" lon="8.9611156"><ele>38.5</ele><time>2026-04-03T10:10:37.85Z</time></trkpt><trkpt lat="44.4323155" lon="8.9613819"><ele>44.0</ele><time>2026-04-03T10:10:38.851Z</time></trkpt><trkpt lat="44.4321691" lon="8.9616463"><ele>65.5</ele><time>2026-04-03T10:10:39.851Z</time></trkpt><trkpt lat="44.4320243" lon="8.9619101"><ele>87.0</ele><time>2026-04-03T10:10:40.851Z</time></trkpt><trkpt lat="44.4318785" lon="8.9621733"><ele>87.0</ele><time>2026-04-03T10:10:41.85Z</time></trkpt><trkpt lat="44.4317345" lon="8.9624347"><ele>87.0</ele><time>2026-04-03T10:10:42.851Z</time></trkpt><trkpt lat="44.431587" lon="8.9626913"><ele>96.0</ele><time>2026-04-03T10:10:43.85Z</time></trkpt><trkpt lat="44.4314355" lon="8.9629424"><ele>105.0</ele><time>2026-04-03T10:10:44.851Z</time></trkpt><trkpt lat="44.4312792" lon="8.9631903"><ele>132.0</ele><time>2026-04-03T10:10:45.851Z</time></trkpt><trkpt lat="44.4311194" lon="8.9634379"><ele>159.0</ele><time>2026-04-03T10:10:46.851Z</time></trkpt><trkpt lat="44.4309648" lon="8.9636872"><ele>98.0</ele><time>2026-04-03T10:10:47.85Z</time></trkpt><trkpt lat="44.4231663" lon="8.9762616"><ele>98.0</ele><time>2026-04-03T10:11:43.851Z</time></trkpt><trkpt lat="44.4230259" lon="8.9764397"><ele>98.0</ele><time>2026-04-03T10:11:44.85Z</time></trkpt><trkpt lat="44.422891" lon="8.9766293"><ele>98.0</ele><time>2026-04-03T10:11:45.851Z</time></trkpt><trkpt lat="44.4227566" lon="8.976816"><ele>103.66666666666666</ele><time>2026-04-03T10:11:46.85Z</time></trkpt><trkpt lat="44.422622" lon="8.9769994"><ele>109.33333333333334</ele><time>2026-04-03T10:11:47.851Z</time></trkpt><trkpt lat="44.4224852" lon="8.9771842"><ele>115.0</ele><time>2026-04-03T10:11:48.851Z</time></trkpt><trkpt lat="44.4223487" lon="8.9773689"><ele>121.66666666666667</ele><time>2026-04-03T10:11:49.85Z</time></trkpt><trkpt lat="44.4222124" lon="8.9775549"><ele>128.33333333333334</ele><time>2026-04-03T10:11:50.85Z</time></trkpt><trkpt lat="44.4220696" lon="8.9777385"><ele>135.0</ele><time>2026-04-03T10:11:51.85Z</time></trkpt><trkpt lat="44.4219247" lon="8.9779144"><ele>138.66666666666666</ele><time>2026-04-03T10:11:52.851Z</time></trkpt><trkpt lat="44.4217792" lon="8.9780876"><ele>142.33333333333331</ele><time>2026-04-03T10:11:53.851Z</time></trkpt><trkpt lat="44.4216358" lon="8.9782616"><ele>146.0</ele><time>2026-04-03T10:11:54.85Z</time></trkpt><trkpt lat="44.4214921" lon="8.9784373"><ele>97.0</ele><time>2026-04-03T10:11:55.851Z</time></trkpt><trkpt lat="44.4128947" lon="8.9897969"><ele>91.5</ele><time>2026-04-03T10:12:43.85Z</time></trkpt><trkpt lat="44.4127084" lon="8.9900368"><ele>86.0</ele><time>2026-04-03T10:12:44.85Z</time></trkpt><trkpt lat="44.4125277" lon="8.9902726"><ele>86.0</ele><time>2026-04-03T10:12:45.85Z</time></trkpt><trkpt lat="44.412338" lon="8.9904996"><ele>86.0</ele><time>2026-04-03T10:12:46.851Z</time></trkpt><trkpt lat="44.4121524" lon="8.9907288"><ele>68.5</ele><time>2026-04-03T10:12:47.85Z</time></trkpt><trkpt lat="44.4119666" lon="8.9909546"><ele>51.0</ele><time>2026-04-03T10:12:48.851Z</time></trkpt><trkpt lat="44.4117815" lon="8.9911793"><ele>51.0</ele><time>2026-04-03T10:12:49.85Z</time></trkpt><trkpt lat="44.4115995" lon="8.9913996"><ele>51.0</ele><time>2026-04-03T10:12:50.851Z</time></trkpt><trkpt lat="44.4114199" lon="8.9916179"><ele>78.0</ele><time>2026-04-03T10:12:51.85Z</time></trkpt><trkpt lat="44.4112411" lon="8.991836"><ele>105.0</ele><time>2026-04-03T10:12:52.85Z</time></trkpt><trkpt lat="44.4110664" lon="8.9920495"><ele>105.0</ele><time>2026-04-03T10:12:53.851Z</time></trkpt><trkpt lat="44.4108898" lon="8.992255"><ele>105.0</ele><time>2026-04-03T10:12:54.851Z</time></trkpt><trkpt lat="44.4107066" lon="8.9924566"><ele>114.0</ele><time>2026-04-03T10:12:55.851Z</time></trkpt><trkpt lat="44.4105207" lon="8.9926575"><ele>123.0</ele><time>2026-04-03T10:12:56.851Z</time></trkpt><trkpt lat="44.4103351" lon="8.9928612"><ele>140.0</ele><time>2026-04-03T10:12:57.85Z</time></trkpt><trkpt lat="44.41015" lon="8.9930661"><ele>157.0</ele><time>2026-04-03T10:12:58.851Z</time></trkpt><trkpt lat="44.4099664" lon="8.9932734"><ele>112.0</ele><time>2026-04-03T10:12:59.85Z</time></trkpt><trkpt lat="44.4028353" lon="9.0017051"><ele>112.0</ele><time>2026-04-03T10:13:38.851Z</time></trkpt><trkpt lat="44.4026407" lon="9.0018888"><ele>112.0</ele><time>2026-04-03T10:13:39.851Z</time></trkpt><trkpt lat="44.4024436" lon="9.0020833"><ele>112.0</ele><time>2026-04-03T10:13:40.85Z</time></trkpt><trkpt lat="44.4022528" lon="9.0022772"><ele>112.0</ele><time>2026-04-03T10:13:41.851Z</time></trkpt><trkpt lat="44.4020621" lon="9.00247"><ele>117.5</ele><time>2026-04-03T10:13:42.85Z</time></trkpt><trkpt lat="44.4018714" lon="9.0026603"><ele>123.0</ele><time>2026-04-03T10:13:43.85Z</time></trkpt><trkpt lat="44.4016802" lon="9.0028517"><ele>123.0</ele><time>2026-04-03T10:13:44.851Z</time></trkpt><trkpt lat="44.4014866" lon="9.0030434"><ele>123.0</ele><time>2026-04-03T10:13:45.851Z</time></trkpt><trkpt lat="44.4012901" lon="9.0032376"><ele>117.5</ele><time>2026-04-03T10:13:46.85Z</time></trkpt><trkpt lat="44.401095" lon="9.0034297"><ele>112.0</ele><time>2026-04-03T10:13:47.851Z</time></trkpt><trkpt lat="44.4026789" lon="9.0020934"><ele>145.0</ele><time>2026-04-03T10:13:55.995Z</time></trkpt><trkpt lat="44.3990232" lon="9.0054924"><ele>145.0</ele><time>2026-04-03T10:13:58.851Z</time></trkpt><trkpt lat="44.3988514" lon="9.0056695"><ele>145.0</ele><time>2026-04-03T10:13:59.85Z</time></trkpt><trkpt lat="44.3986805" lon="9.005842"><ele>145.0</ele><time>2026-04-03T10:14:00.851Z</time></trkpt><trkpt lat="44.3985052" lon="9.0060161"><ele>129.33333333333334</ele><time>2026-04-03T10:14:01.85Z</time></trkpt><trkpt lat="44.3983319" lon="9.0061874"><ele>113.66666666666666</ele><time>2026-04-03T10:14:02.851Z</time></trkpt><trkpt lat="44.398161" lon="9.0063511"><ele>98.0</ele><time>2026-04-03T10:14:03.851Z</time></trkpt><trkpt lat="44.3979921" lon="9.0065114"><ele>96.33333333333333</ele><time>2026-04-03T10:14:04.851Z</time></trkpt><trkpt lat="44.3978252" lon="9.0066768"><ele>94.66666666666666</ele><time>2026-04-03T10:14:05.851Z</time></trkpt><trkpt lat="44.397664" lon="9.0068386"><ele>93.0</ele><time>2026-04-03T10:14:06.851Z</time></trkpt><trkpt lat="44.3975053" lon="9.006998"><ele>93.0</ele><time>2026-04-03T10:14:07.851Z</time></trkpt><trkpt lat="44.3973464" lon="9.0071554"><ele>93.0</ele><time>2026-04-03T10:14:08.851Z</time></trkpt><trkpt lat="44.3971886" lon="9.0073081"><ele>93.0</ele><time>2026-04-03T10:14:09.851Z</time></trkpt><trkpt lat="44.3970317" lon="9.0074599"><ele>104.33333333333334</ele><time>2026-04-03T10:14:10.851Z</time></trkpt><trkpt lat="44.3968806" lon="9.0076139"><ele>115.66666666666667</ele><time>2026-04-03T10:14:11.851Z</time></trkpt><trkpt lat="44.3967358" lon="9.007772"><ele>127.0</ele><time>2026-04-03T10:14:12.851Z</time></trkpt><trkpt lat="44.3965923" lon="9.0079414"><ele>127.0</ele><time>2026-04-03T10:14:13.851Z</time></trkpt><trkpt lat="44.3964561" lon="9.0081209"><ele>127.0</ele><time>2026-04-03T10:14:14.851Z</time></trkpt><trkpt lat="44.3963196" lon="9.0083177"><ele>127.0</ele><time>2026-04-03T10:14:15.85Z</time></trkpt><trkpt lat="44.3961919" lon="9.0085302"><ele>128.0</ele><time>2026-04-03T10:14:16.85Z</time></trkpt><trkpt lat="44.3960693" lon="9.0087557"><ele>129.0</ele><time>2026-04-03T10:14:17.851Z</time></trkpt><trkpt lat="44.39595" lon="9.0089917"><ele>130.0</ele><time>2026-04-03T10:14:18.851Z</time></trkpt><trkpt lat="44.3958378" lon="9.0092373"><ele>132.0</ele><time>2026-04-03T10:14:19.85Z</time></trkpt><trkpt lat="44.3957335" lon="9.0094936"><ele>134.0</ele><time>2026-04-03T10:14:20.85Z</time></trkpt><trkpt lat="44.3956399" lon="9.0097642"><ele>136.0</ele><time>2026-04-03T10:14:21.851Z</time></trkpt><trkpt lat="44.39556" lon="9.0100488"><ele>130.33333333333334</ele><time>2026-04-03T10:14:22.851Z</time></trkpt><trkpt lat="44.3954968" lon="9.0103447"><ele>124.66666666666666</ele><time>2026-04-03T10:14:23.851Z</time></trkpt><trkpt lat="44.3954433" lon="9.0106456"><ele>119.0</ele><time>2026-04-03T10:14:24.85Z</time></trkpt><trkpt lat="44.3954028" lon="9.0109548"><ele>118.66666666666666</ele><time>2026-04-03T10:14:25.851Z</time></trkpt><trkpt lat="44.3953794" lon="9.0112711"><ele>118.33333333333334</ele><time>2026-04-03T10:14:26.851Z</time></trkpt><trkpt lat="44.3953622" lon="9.0115805"><ele>118.0</ele><time>2026-04-03T10:14:27.851Z</time></trkpt><trkpt lat="44.3953434" lon="9.0118799"><ele>114.66666666666667</ele><time>2026-04-03T10:14:28.851Z</time></trkpt><trkpt lat="44.3953257" lon="9.0121747"><ele>111.33333333333334</ele><time>2026-04-03T10:14:29.85Z</time></trkpt><trkpt lat="44.3953119" lon="9.012466"><ele>108.0</ele><time>2026-04-03T10:14:30.851Z</time></trkpt><trkpt lat="44.3952984" lon="9.0127593"><ele>102.66666666666667</ele><time>2026-04-03T10:14:31.85Z</time></trkpt><trkpt lat="44.3952832" lon="9.0130538"><ele>97.33333333333334</ele><time>2026-04-03T10:14:32.85Z</time></trkpt><trkpt lat="44.3952683" lon="9.0133504"><ele>92.0</ele><time>2026-04-03T10:14:33.851Z</time></trkpt><trkpt lat="44.3952503" lon="9.0136469"><ele>91.66666666666667</ele><time>2026-04-03T10:14:34.851Z</time></trkpt><trkpt lat="44.3952319" lon="9.0139475"><ele>91.33333333333333</ele><time>2026-04-03T10:14:35.851Z</time></trkpt><trkpt lat="44.3952139" lon="9.0142488"><ele>91.0</ele><time>2026-04-03T10:14:36.851Z</time></trkpt><trkpt lat="44.3951934" lon="9.0145504"><ele>102.0</ele><time>2026-04-03T10:14:37.851Z</time></trkpt><trkpt lat="44.3951704" lon="9.0148523"><ele>113.0</ele><time>2026-04-03T10:14:38.85Z</time></trkpt><trkpt lat="44.3951439" lon="9.0151529"><ele>124.0</ele><time>2026-04-03T10:14:39.85Z</time></trkpt><trkpt lat="44.3951159" lon="9.0154541"><ele>130.33333333333334</ele><time>2026-04-03T10:14:40.851Z</time></trkpt><trkpt lat="44.3950854" lon="9.0157613"><ele>136.66666666666666</ele><time>2026-04-03T10:14:41.851Z</time></trkpt><trkpt lat="44.3950552" lon="9.0160653"><ele>143.0</ele><time>2026-04-03T10:14:42.85Z</time></trkpt><trkpt lat="44.3945212" lon="9.0197968"><ele>138.5</ele><time>2026-04-03T10:14:54.851Z</time></trkpt><trkpt lat="44.3944583" lon="9.0201169"><ele>134.0</ele><time>2026-04-03T10:14:55.85Z</time></trkpt><trkpt lat="44.3944017" lon="9.0204286"><ele>134.0</ele><time>2026-04-03T10:14:56.85Z</time></trkpt><trkpt lat="44.3943446" lon="9.0207414"><ele>134.0</ele><time>2026-04-03T10:14:57.851Z</time></trkpt><trkpt lat="44.3942892" lon="9.0210575"><ele>139.0</ele><time>2026-04-03T10:14:58.851Z</time></trkpt><trkpt lat="44.3942332" lon="9.0213716"><ele>144.0</ele><time>2026-04-03T10:14:59.85Z</time></trkpt><trkpt lat="44.39418" lon="9.021686"><ele>154.0</ele><time>2026-04-03T10:15:00.85Z</time></trkpt><trkpt lat="44.3941247" lon="9.0220044"><ele>164.0</ele><time>2026-04-03T10:15:01.851Z</time></trkpt><trkpt lat="44.3940683" lon="9.0223258"><ele>178.0</ele><time>2026-04-03T10:15:02.85Z</time></trkpt><trkpt lat="44.3940109" lon="9.0226425"><ele>192.0</ele><time>2026-04-03T10:15:03.851Z</time></trkpt><trkpt lat="44.3921687" lon="9.0346184"><ele>179.0</ele><time>2026-04-03T10:15:42.851Z</time></trkpt><trkpt lat="44.3921714" lon="9.0349226"><ele>166.0</ele><time>2026-04-03T10:15:43.851Z</time></trkpt><trkpt lat="44.3921771" lon="9.0352272"><ele>153.0</ele><time>2026-04-03T10:15:44.85Z</time></trkpt><trkpt lat="44.3921871" lon="9.0355316"><ele>161.0</ele><time>2026-04-03T10:15:45.85Z</time></trkpt><trkpt lat="44.3922034" lon="9.0358412"><ele>169.0</ele><time>2026-04-03T10:15:46.851Z</time></trkpt><trkpt lat="44.3922171" lon="9.036146"><ele>177.0</ele><time>2026-04-03T10:15:47.851Z</time></trkpt><trkpt lat="44.3922293" lon="9.0364508"><ele>190.0</ele><time>2026-04-03T10:15:48.851Z</time></trkpt><trkpt lat="44.392322" lon="9.0379973"><ele>179.0</ele><time>2026-04-03T10:15:53.85Z</time></trkpt><trkpt lat="44.3923377" lon="9.0383147"><ele>168.0</ele><time>2026-04-03T10:15:54.851Z</time></trkpt><trkpt lat="44.3923566" lon="9.0386231"><ele>157.0</ele><time>2026-04-03T10:15:55.85Z</time></trkpt><trkpt lat="44.3923704" lon="9.0389244"><ele>152.0</ele><time>2026-04-03T10:15:56.851Z</time></trkpt><trkpt lat="44.3923842" lon="9.039227"><ele>147.0</ele><time>2026-04-03T10:15:57.85Z</time></trkpt><trkpt lat="44.3924009" lon="9.039526"><ele>142.0</ele><time>2026-04-03T10:15:58.851Z</time></trkpt><trkpt lat="44.3924147" lon="9.0398221"><ele>134.66666666666669</ele><time>2026-04-03T10:15:59.851Z</time></trkpt><trkpt lat="44.3924273" lon="9.040114"><ele>127.33333333333334</ele><time>2026-04-03T10:16:00.851Z</time></trkpt><trkpt lat="44.3924393" lon="9.0404046"><ele>120.0</ele><time>2026-04-03T10:16:01.85Z</time></trkpt><trkpt lat="44.3924495" lon="9.0406932"><ele>103.66666666666667</ele><time>2026-04-03T10:16:02.851Z</time></trkpt><trkpt lat="44.3924624" lon="9.0409772"><ele>87.33333333333334</ele><time>2026-04-03T10:16:03.851Z</time></trkpt><trkpt lat="44.3924798" lon="9.0412579"><ele>71.0</ele><time>2026-04-03T10:16:04.85Z</time></trkpt><trkpt lat="44.392499" lon="9.0415399"><ele>67.0</ele><time>2026-04-03T10:16:05.85Z</time></trkpt><trkpt lat="44.3925146" lon="9.0418217"><ele>63.0</ele><time>2026-04-03T10:16:06.851Z</time></trkpt><trkpt lat="44.3925276" lon="9.0421081"><ele>59.0</ele><time>2026-04-03T10:16:07.85Z</time></trkpt><trkpt lat="44.3925431" lon="9.0423905"><ele>61.333333333333336</ele><time>2026-04-03T10:16:08.85Z</time></trkpt><trkpt lat="44.3925565" lon="9.0426767"><ele>63.66666666666667</ele><time>2026-04-03T10:16:09.851Z</time></trkpt><trkpt lat="44.3925708" lon="9.0429616"><ele>66.0</ele><time>2026-04-03T10:16:10.851Z</time></trkpt><trkpt lat="44.3925864" lon="9.0432464"><ele>73.0</ele><time>2026-04-03T10:16:11.851Z</time></trkpt><trkpt lat="44.3926009" lon="9.0435323"><ele>80.0</ele><time>2026-04-03T10:16:12.851Z</time></trkpt><trkpt lat="44.3926191" lon="9.0438178"><ele>87.0</ele><time>2026-04-03T10:16:13.851Z</time></trkpt><trkpt lat="44.3926366" lon="9.0441029"><ele>98.0</ele><time>2026-04-03T10:16:14.851Z</time></trkpt><trkpt lat="44.3926534" lon="9.0443845"><ele>109.0</ele><time>2026-04-03T10:16:15.85Z</time></trkpt><trkpt lat="44.3926685" lon="9.0446644"><ele>120.0</ele><time>2026-04-03T10:16:16.85Z</time></trkpt><trkpt lat="44.3926832" lon="9.0449452"><ele>129.66666666666666</ele><time>2026-04-03T10:16:17.85Z</time></trkpt><trkpt lat="44.3926948" lon="9.0452271"><ele>139.33333333333331</ele><time>2026-04-03T10:16:18.851Z</time></trkpt><trkpt lat="44.3927072" lon="9.0455134"><ele>149.0</ele><time>2026-04-03T10:16:19.851Z</time></trkpt><trkpt lat="44.3927184" lon="9.0458021"><ele>150.66666666666666</ele><time>2026-04-03T10:16:20.851Z</time></trkpt><trkpt lat="44.3927266" lon="9.0460952"><ele>152.33333333333334</ele><time>2026-04-03T10:16:21.851Z</time></trkpt><trkpt lat="44.3927301" lon="9.0463881"><ele>154.0</ele><time>2026-04-03T10:16:22.851Z</time></trkpt><trkpt lat="44.3927293" lon="9.046684"><ele>157.33333333333334</ele><time>2026-04-03T10:16:23.851Z</time></trkpt><trkpt lat="44.3927223" lon="9.0469785"><ele>160.66666666666666</ele><time>2026-04-03T10:16:24.851Z</time></trkpt><trkpt lat="44.3927106" lon="9.0472732"><ele>164.0</ele><time>2026-04-03T10:16:25.85Z</time></trkpt><trkpt lat="44.3926951" lon="9.0475656"><ele>167.5</ele><time>2026-04-03T10:16:26.851Z</time></trkpt><trkpt lat="44.3926756" lon="9.047857"><ele>171.0</ele><time>2026-04-03T10:16:27.851Z</time></trkpt><trkpt lat="44.3887152" lon="9.0711629"><ele>167.0</ele><time>2026-04-03T10:17:29.592Z</time></trkpt><trkpt lat="44.388684" lon="9.0677285"><ele>167.0</ele><time>2026-04-03T10:17:37.851Z</time></trkpt><trkpt lat="44.388654" lon="9.0679759"><ele>167.0</ele><time>2026-04-03T10:17:38.851Z</time></trkpt><trkpt lat="44.3886452" lon="9.0682651"><ele>167.0</ele><time>2026-04-03T10:17:39.851Z</time></trkpt><trkpt lat="44.3886517" lon="9.0685606"><ele>161.33333333333331</ele><time>2026-04-03T10:17:40.851Z</time></trkpt><trkpt lat="44.3886623" lon="9.0688542"><ele>155.66666666666666</ele><time>2026-04-03T10:17:41.851Z</time></trkpt><trkpt lat="44.3886776" lon="9.0691488"><ele>150.0</ele><time>2026-04-03T10:17:42.851Z</time></trkpt><trkpt lat="44.3886914" lon="9.0694437"><ele>146.0</ele><time>2026-04-03T10:17:43.85Z</time></trkpt><trkpt lat="44.3887033" lon="9.0697374"><ele>142.0</ele><time>2026-04-03T10:17:44.851Z</time></trkpt><trkpt lat="44.3887182" lon="9.0700347"><ele>138.0</ele><time>2026-04-03T10:17:45.85Z</time></trkpt><trkpt lat="44.388731" lon="9.0703328"><ele>138.0</ele><time>2026-04-03T10:17:46.851Z</time></trkpt><trkpt lat="44.3887429" lon="9.0706336"><ele>138.0</ele><time>2026-04-03T10:17:47.851Z</time></trkpt><trkpt lat="44.3887477" lon="9.0709337"><ele>138.0</ele><time>2026-04-03T10:17:48.851Z</time></trkpt><trkpt lat="44.3887565" lon="9.0712319"><ele>154.5</ele><time>2026-04-03T10:17:49.85Z</time></trkpt><trkpt lat="44.3887658" lon="9.07153"><ele>171.0</ele><time>2026-04-03T10:17:50.851Z</time></trkpt><trkpt lat="44.3890906" lon="9.0780733"><ele>167.66666666666666</ele><time>2026-04-03T10:18:12.85Z</time></trkpt><trkpt lat="44.3891112" lon="9.0783609"><ele>164.33333333333331</ele><time>2026-04-03T10:18:13.851Z</time></trkpt><trkpt lat="44.3891278" lon="9.0786559"><ele>161.0</ele><time>2026-04-03T10:18:14.851Z</time></trkpt><trkpt lat="44.3891412" lon="9.0789542"><ele>158.66666666666666</ele><time>2026-04-03T10:18:15.85Z</time></trkpt><trkpt lat="44.389157" lon="9.0792515"><ele>156.33333333333334</ele><time>2026-04-03T10:18:16.85Z</time></trkpt><trkpt lat="44.3891677" lon="9.0795483"><ele>154.0</ele><time>2026-04-03T10:18:17.85Z</time></trkpt><trkpt lat="44.3891842" lon="9.0798421"><ele>151.33333333333334</ele><time>2026-04-03T10:18:18.851Z</time></trkpt><trkpt lat="44.3892013" lon="9.0801414"><ele>148.66666666666666</ele><time>2026-04-03T10:18:19.851Z</time></trkpt><trkpt lat="44.3892184" lon="9.0804394"><ele>146.0</ele><time>2026-04-03T10:18:20.85Z</time></trkpt><trkpt lat="44.3892344" lon="9.0807367"><ele>144.0</ele><time>2026-04-03T10:18:21.851Z</time></trkpt><trkpt lat="44.389248" lon="9.0810329"><ele>142.0</ele><time>2026-04-03T10:18:22.851Z</time></trkpt><trkpt lat="44.3892629" lon="9.0813278"><ele>140.0</ele><time>2026-04-03T10:18:23.851Z</time></trkpt><trkpt lat="44.3892743" lon="9.0816247"><ele>140.0</ele><time>2026-04-03T10:18:24.85Z</time></trkpt><trkpt lat="44.3892841" lon="9.0819228"><ele>140.0</ele><time>2026-04-03T10:18:25.85Z</time></trkpt><trkpt lat="44.3892921" lon="9.0822207"><ele>140.0</ele><time>2026-04-03T10:18:26.851Z</time></trkpt><trkpt lat="44.3892978" lon="9.0825182"><ele>149.0</ele><time>2026-04-03T10:18:27.85Z</time></trkpt><trkpt lat="44.3893052" lon="9.0828109"><ele>158.0</ele><time>2026-04-03T10:18:28.851Z</time></trkpt><trkpt lat="44.3893028" lon="9.0831021"><ele>167.0</ele><time>2026-04-03T10:18:29.85Z</time></trkpt><trkpt lat="44.3892946" lon="9.0833922"><ele>138.0</ele><time>2026-04-03T10:18:30.851Z</time></trkpt><trkpt lat="44.3855554" lon="9.0993663"><ele>147.33333333333334</ele><time>2026-04-03T10:19:26.85Z</time></trkpt><trkpt lat="44.3854196" lon="9.0996023"><ele>156.66666666666669</ele><time>2026-04-03T10:19:27.851Z</time></trkpt><trkpt lat="44.3852843" lon="9.0998339"><ele>166.0</ele><time>2026-04-03T10:19:28.85Z</time></trkpt><trkpt lat="44.3851398" lon="9.1000607"><ele>166.0</ele><time>2026-04-03T10:19:29.851Z</time></trkpt><trkpt lat="44.384994" lon="9.1002844"><ele>166.0</ele><time>2026-04-03T10:19:30.851Z</time></trkpt><trkpt lat="44.3848505" lon="9.100512"><ele>166.0</ele><time>2026-04-03T10:19:31.851Z</time></trkpt><trkpt lat="44.3847069" lon="9.1007422"><ele>168.0</ele><time>2026-04-03T10:19:32.851Z</time></trkpt><trkpt lat="44.3845666" lon="9.1009728"><ele>170.0</ele><time>2026-04-03T10:19:33.851Z</time></trkpt><trkpt lat="44.3844258" lon="9.1012"><ele>172.0</ele><time>2026-04-03T10:19:34.85Z</time></trkpt><trkpt lat="44.3842846" lon="9.1014246"><ele>174.33333333333334</ele><time>2026-04-03T10:19:35.851Z</time></trkpt><trkpt lat="44.3841429" lon="9.1016504"><ele>176.66666666666666</ele><time>2026-04-03T10:19:36.851Z</time></trkpt><trkpt lat="44.3839987" lon="9.1018705"><ele>179.0</ele><time>2026-04-03T10:19:37.851Z</time></trkpt><trkpt lat="44.383846" lon="9.1020833"><ele>179.0</ele><time>2026-04-03T10:19:38.85Z</time></trkpt><trkpt lat="44.3836874" lon="9.1022854"><ele>179.0</ele><time>2026-04-03T10:19:39.85Z</time></trkpt><trkpt lat="44.383521" lon="9.1024747"><ele>179.0</ele><time>2026-04-03T10:19:40.85Z</time></trkpt><trkpt lat="44.3833505" lon="9.1026578"><ele>177.0</ele><time>2026-04-03T10:19:41.851Z</time></trkpt><trkpt lat="44.3831778" lon="9.1028313"><ele>175.0</ele><time>2026-04-03T10:19:42.85Z</time></trkpt><trkpt lat="44.382997" lon="9.1029991"><ele>173.0</ele><time>2026-04-03T10:19:43.85Z</time></trkpt><trkpt lat="44.3828141" lon="9.1031552"><ele>164.66666666666666</ele><time>2026-04-03T10:19:44.851Z</time></trkpt><trkpt lat="44.3826276" lon="9.1033071"><ele>156.33333333333334</ele><time>2026-04-03T10:19:45.851Z</time></trkpt><trkpt lat="44.3824393" lon="9.1034571"><ele>148.0</ele><time>2026-04-03T10:19:46.851Z</time></trkpt><trkpt lat="44.3822514" lon="9.1036093"><ele>143.66666666666669</ele><time>2026-04-03T10:19:47.85Z</time></trkpt><trkpt lat="44.3820636" lon="9.1037619"><ele>139.33333333333334</ele><time>2026-04-03T10:19:48.851Z</time></trkpt><trkpt lat="44.3818764" lon="9.1039234"><ele>135.0</ele><time>2026-04-03T10:19:49.85Z</time></trkpt><trkpt lat="44.3816954" lon="9.1040954"><ele>135.0</ele><time>2026-04-03T10:19:50.851Z</time></trkpt><trkpt lat="44.3815223" lon="9.104285"><ele>135.0</ele><time>2026-04-03T10:19:51.851Z</time></trkpt><trkpt lat="44.3813617" lon="9.1044893"><ele>135.0</ele><time>2026-04-03T10:19:52.851Z</time></trkpt><trkpt lat="44.3812104" lon="9.1047086"><ele>137.33333333333334</ele><time>2026-04-03T10:19:53.85Z</time></trkpt><trkpt lat="44.3810613" lon="9.1049216"><ele>139.66666666666669</ele><time>2026-04-03T10:19:54.85Z</time></trkpt><trkpt lat="44.3809233" lon="9.1051514"><ele>142.0</ele><time>2026-04-03T10:19:55.851Z</time></trkpt><trkpt lat="44.3808002" lon="9.1053949"><ele>142.0</ele><time>2026-04-03T10:19:56.851Z</time></trkpt><trkpt lat="44.3806875" lon="9.1056476"><ele>142.0</ele><time>2026-04-03T10:19:57.851Z</time></trkpt><trkpt lat="44.380586" lon="9.1059084"><ele>142.0</ele><time>2026-04-03T10:19:58.851Z</time></trkpt><trkpt lat="44.380495" lon="9.1061771"><ele>136.33333333333334</ele><time>2026-04-03T10:19:59.85Z</time></trkpt><trkpt lat="44.380411" lon="9.1064512"><ele>130.66666666666666</ele><time>2026-04-03T10:20:00.851Z</time></trkpt><trkpt lat="44.380341" lon="9.1067335"><ele>125.0</ele><time>2026-04-03T10:20:01.85Z</time></trkpt><trkpt lat="44.3802836" lon="9.1070212"><ele>117.33333333333333</ele><time>2026-04-03T10:20:02.85Z</time></trkpt><trkpt lat="44.380237" lon="9.1073129"><ele>109.66666666666666</ele><time>2026-04-03T10:20:03.851Z</time></trkpt><trkpt lat="44.3801992" lon="9.1076061"><ele>102.0</ele><time>2026-04-03T10:20:04.851Z</time></trkpt><trkpt lat="44.3801707" lon="9.107904"><ele>91.66666666666667</ele><time>2026-04-03T10:20:05.851Z</time></trkpt><trkpt lat="44.3801439" lon="9.1082019"><ele>81.33333333333334</ele><time>2026-04-03T10:20:06.85Z</time></trkpt><trkpt lat="44.3801185" lon="9.1085015"><ele>71.0</ele><time>2026-04-03T10:20:07.851Z</time></trkpt><trkpt lat="44.3800913" lon="9.1088011"><ele>59.66666666666667</ele><time>2026-04-03T10:20:08.851Z</time></trkpt><trkpt lat="44.3800641" lon="9.1091009"><ele>48.333333333333336</ele><time>2026-04-03T10:20:09.85Z</time></trkpt><trkpt lat="44.3800348" lon="9.1093997"><ele>37.0</ele><time>2026-04-03T10:20:10.85Z</time></trkpt><trkpt lat="44.3800073" lon="9.1096988"><ele>45.0</ele><time>2026-04-03T10:20:11.851Z</time></trkpt><trkpt lat="44.3799807" lon="9.1099966"><ele>53.0</ele><time>2026-04-03T10:20:12.851Z</time></trkpt><trkpt lat="44.379956" lon="9.1102983"><ele>61.0</ele><time>2026-04-03T10:20:13.851Z</time></trkpt><trkpt lat="44.3799298" lon="9.1105969"><ele>72.66666666666666</ele><time>2026-04-03T10:20:14.85Z</time></trkpt><trkpt lat="44.3799047" lon="9.1108977"><ele>84.33333333333333</ele><time>2026-04-03T10:20:15.851Z</time></trkpt><trkpt lat="44.3798798" lon="9.111197"><ele>96.0</ele><time>2026-04-03T10:20:16.851Z</time></trkpt><trkpt lat="44.3798557" lon="9.1114988"><ele>105.33333333333334</ele><time>2026-04-03T10:20:17.851Z</time></trkpt><trkpt lat="44.3798305" lon="9.1117969"><ele>114.66666666666667</ele><time>2026-04-03T10:20:18.851Z</time></trkpt><trkpt lat="44.3798044" lon="9.1120949"><ele>124.0</ele><time>2026-04-03T10:20:19.851Z</time></trkpt><trkpt lat="44.379778" lon="9.1123932"><ele>124.0</ele><time>2026-04-03T10:20:20.851Z</time></trkpt><trkpt lat="44.3797528" lon="9.1126904"><ele>124.0</ele><time>2026-04-03T10:20:21.851Z</time></trkpt><trkpt lat="44.379728" lon="9.1129866"><ele>124.0</ele><time>2026-04-03T10:20:22.851Z</time></trkpt><trkpt lat="44.3797048" lon="9.113281"><ele>135.66666666666669</ele><time>2026-04-03T10:20:23.851Z</time></trkpt><trkpt lat="44.3796811" lon="9.1135742"><ele>147.33333333333334</ele><time>2026-04-03T10:20:24.851Z</time></trkpt><trkpt lat="44.379656" lon="9.1138626"><ele>159.0</ele><time>2026-04-03T10:20:25.851Z</time></trkpt><trkpt lat="44.3796325" lon="9.1141527"><ele>160.0</ele><time>2026-04-03T10:20:26.851Z</time></trkpt><trkpt lat="44.3796063" lon="9.1144421"><ele>161.0</ele><time>2026-04-03T10:20:27.85Z</time></trkpt><trkpt lat="44.3795801" lon="9.1147343"><ele>162.0</ele><time>2026-04-03T10:20:28.85Z</time></trkpt><trkpt lat="44.3795524" lon="9.1150292"><ele>161.66666666666666</ele><time>2026-04-03T10:20:29.851Z</time></trkpt><trkpt lat="44.3795244" lon="9.1153243"><ele>161.33333333333331</ele><time>2026-04-03T10:20:30.85Z</time></trkpt><trkpt lat="44.3794985" lon="9.1156246"><ele>161.0</ele><time>2026-04-03T10:20:31.851Z</time></trkpt><trkpt lat="44.3794717" lon="9.1159269"><ele>161.0</ele><time>2026-04-03T10:20:32.851Z</time></trkpt><trkpt lat="44.3794447" lon="9.1162302"><ele>161.0</ele><time>2026-04-03T10:20:33.85Z</time></trkpt><trkpt lat="44.3794147" lon="9.1165356"><ele>161.0</ele><time>2026-04-03T10:20:34.851Z</time></trkpt><trkpt lat="44.3793788" lon="9.1168415"><ele>161.0</ele><time>2026-04-03T10:20:35.851Z</time></trkpt><trkpt lat="44.3793396" lon="9.1171508"><ele>161.0</ele><time>2026-04-03T10:20:36.85Z</time></trkpt><trkpt lat="44.3792977" lon="9.1174566"><ele>161.0</ele><time>2026-04-03T10:20:37.851Z</time></trkpt><trkpt lat="44.3792559" lon="9.1177624"><ele>138.0</ele><time>2026-04-03T10:20:38.851Z</time></trkpt><trkpt lat="44.3771418" lon="9.1425881"><ele>138.0</ele><time>2026-04-03T10:22:03.85Z</time></trkpt><trkpt lat="44.377095" lon="9.1428801"><ele>138.0</ele><time>2026-04-03T10:22:04.851Z</time></trkpt><trkpt lat="44.3770603" lon="9.1431762"><ele>138.0</ele><time>2026-04-03T10:22:05.851Z</time></trkpt><trkpt lat="44.3770292" lon="9.1434673"><ele>133.0</ele><time>2026-04-03T10:22:06.851Z</time></trkpt><trkpt lat="44.3769908" lon="9.1437566"><ele>128.0</ele><time>2026-04-03T10:22:07.851Z</time></trkpt><trkpt lat="44.3769428" lon="9.1440444"><ele>123.0</ele><time>2026-04-03T10:22:08.851Z</time></trkpt><trkpt lat="44.3768866" lon="9.1443271"><ele>121.33333333333334</ele><time>2026-04-03T10:22:09.85Z</time></trkpt><trkpt lat="44.376819" lon="9.1446149"><ele>119.66666666666667</ele><time>2026-04-03T10:22:10.851Z</time></trkpt><trkpt lat="44.3767366" lon="9.1449001"><ele>118.0</ele><time>2026-04-03T10:22:11.851Z</time></trkpt><trkpt lat="44.3766434" lon="9.1451847"><ele>115.0</ele><time>2026-04-03T10:22:12.851Z</time></trkpt><trkpt lat="44.3765364" lon="9.1454639"><ele>112.0</ele><time>2026-04-03T10:22:13.851Z</time></trkpt><trkpt lat="44.3764149" lon="9.1457367"><ele>122.0</ele><time>2026-04-03T10:22:14.851Z</time></trkpt><trkpt lat="44.3762788" lon="9.1459997"><ele>132.0</ele><time>2026-04-03T10:22:15.85Z</time></trkpt><trkpt lat="44.3761347" lon="9.1462591"><ele>132.0</ele><time>2026-04-03T10:22:16.851Z</time></trkpt><trkpt lat="44.3759859" lon="9.1465175"><ele>132.0</ele><time>2026-04-03T10:22:17.85Z</time></trkpt><trkpt lat="44.3758374" lon="9.1467798"><ele>115.5</ele><time>2026-04-03T10:22:18.851Z</time></trkpt><trkpt lat="44.3756905" lon="9.1470423"><ele>99.0</ele><time>2026-04-03T10:22:19.851Z</time></trkpt><trkpt lat="44.3755485" lon="9.1473068"><ele>104.5</ele><time>2026-04-03T10:22:20.851Z</time></trkpt><trkpt lat="44.375407" lon="9.1475722"><ele>110.0</ele><time>2026-04-03T10:22:21.85Z</time></trkpt><trkpt lat="44.3752667" lon="9.1478413"><ele>110.0</ele><time>2026-04-03T10:22:22.851Z</time></trkpt><trkpt lat="44.3751324" lon="9.1481148"><ele>110.0</ele><time>2026-04-03T10:22:23.851Z</time></trkpt><trkpt lat="44.3750029" lon="9.1483927"><ele>100.5</ele><time>2026-04-03T10:22:24.851Z</time></trkpt><trkpt lat="44.3748784" lon="9.1486744"><ele>91.0</ele><time>2026-04-03T10:22:25.85Z</time></trkpt><trkpt lat="44.3747553" lon="9.1489585"><ele>71.5</ele><time>2026-04-03T10:22:26.851Z</time></trkpt><trkpt lat="44.3746354" lon="9.1492428"><ele>52.0</ele><time>2026-04-03T10:22:27.851Z</time></trkpt><trkpt lat="44.3745164" lon="9.1495261"><ele>52.0</ele><time>2026-04-03T10:22:28.85Z</time></trkpt><trkpt lat="44.3743958" lon="9.1498063"><ele>52.0</ele><time>2026-04-03T10:22:29.85Z</time></trkpt><trkpt lat="44.3742715" lon="9.1500833"><ele>42.0</ele><time>2026-04-03T10:22:30.851Z</time></trkpt><trkpt lat="44.3741442" lon="9.1503519"><ele>32.0</ele><time>2026-04-03T10:22:31.85Z</time></trkpt><trkpt lat="44.3740075" lon="9.1506079"><ele>29.666666666666664</ele><time>2026-04-03T10:22:32.851Z</time></trkpt><trkpt lat="44.373864" lon="9.1508527"><ele>27.333333333333336</ele><time>2026-04-03T10:22:33.851Z</time></trkpt><trkpt lat="44.3737129" lon="9.1510808"><ele>25.0</ele><time>2026-04-03T10:22:34.851Z</time></trkpt><trkpt lat="44.3735577" lon="9.1513026"><ele>25.0</ele><time>2026-04-03T10:22:35.85Z</time></trkpt><trkpt lat="44.3734027" lon="9.1515185"><ele>25.0</ele><time>2026-04-03T10:22:36.851Z</time></trkpt><trkpt lat="44.3732467" lon="9.1517244"><ele>25.0</ele><time>2026-04-03T10:22:37.85Z</time></trkpt><trkpt lat="44.3730863" lon="9.1519232"><ele>26.333333333333336</ele><time>2026-04-03T10:22:38.85Z</time></trkpt><trkpt lat="44.3729222" lon="9.152111"><ele>27.666666666666664</ele><time>2026-04-03T10:22:39.85Z</time></trkpt><trkpt lat="44.3727542" lon="9.1522879"><ele>29.0</ele><time>2026-04-03T10:22:40.851Z</time></trkpt><trkpt lat="44.3725844" lon="9.1524528"><ele>35.0</ele><time>2026-04-03T10:22:41.851Z</time></trkpt><trkpt lat="44.3724109" lon="9.1526128"><ele>41.0</ele><time>2026-04-03T10:22:42.851Z</time></trkpt><trkpt lat="44.3722362" lon="9.1527625"><ele>47.0</ele><time>2026-04-03T10:22:43.851Z</time></trkpt><trkpt lat="44.3720609" lon="9.152903"><ele>47.0</ele><time>2026-04-03T10:22:44.851Z</time></trkpt><trkpt lat="44.3718834" lon="9.1530351"><ele>47.0</ele><time>2026-04-03T10:22:45.851Z</time></trkpt><trkpt lat="44.3717042" lon="9.1531653"><ele>47.0</ele><time>2026-04-03T10:22:46.851Z</time></trkpt><trkpt lat="44.371525" lon="9.153295"><ele>58.0</ele><time>2026-04-03T10:22:47.85Z</time></trkpt><trkpt lat="44.3713462" lon="9.1534265"><ele>69.0</ele><time>2026-04-03T10:22:48.851Z</time></trkpt><trkpt lat="44.3711735" lon="9.1535662"><ele>80.0</ele><time>2026-04-03T10:22:49.851Z</time></trkpt><trkpt lat="44.3710026" lon="9.1537117"><ele>80.0</ele><time>2026-04-03T10:22:50.851Z</time></trkpt><trkpt lat="44.3708369" lon="9.1538673"><ele>80.0</ele><time>2026-04-03T10:22:51.851Z</time></trkpt><trkpt lat="44.3706774" lon="9.1540341"><ele>80.0</ele><time>2026-04-03T10:22:52.851Z</time></trkpt><trkpt lat="44.3705241" lon="9.154212"><ele>84.66666666666667</ele><time>2026-04-03T10:22:53.851Z</time></trkpt><trkpt lat="44.3703774" lon="9.1544011"><ele>89.33333333333333</ele><time>2026-04-03T10:22:54.851Z</time></trkpt><trkpt lat="44.3702404" lon="9.1546004"><ele>94.0</ele><time>2026-04-03T10:22:55.851Z</time></trkpt><trkpt lat="44.3701083" lon="9.1548103"><ele>98.33333333333333</ele><time>2026-04-03T10:22:56.851Z</time></trkpt><trkpt lat="44.3699844" lon="9.1550274"><ele>102.66666666666666</ele><time>2026-04-03T10:22:57.851Z</time></trkpt><trkpt lat="44.3698701" lon="9.1552535"><ele>107.0</ele><time>2026-04-03T10:22:58.851Z</time></trkpt><trkpt lat="44.3697673" lon="9.1554903"><ele>96.33333333333333</ele><time>2026-04-03T10:22:59.851Z</time></trkpt><trkpt lat="44.3696758" lon="9.1557377"><ele>85.66666666666666</ele><time>2026-04-03T10:23:00.851Z</time></trkpt><trkpt lat="44.3695916" lon="9.1559938"><ele>75.0</ele><time>2026-04-03T10:23:01.851Z</time></trkpt><trkpt lat="44.3695146" lon="9.1562583"><ele>75.0</ele><time>2026-04-03T10:23:02.851Z</time></trkpt><trkpt lat="44.3694469" lon="9.1565322"><ele>75.0</ele><time>2026-04-03T10:23:03.85Z</time></trkpt><trkpt lat="44.3693875" lon="9.1568135"><ele>75.0</ele><time>2026-04-03T10:23:04.851Z</time></trkpt><trkpt lat="44.3693373" lon="9.1570998"><ele>84.33333333333334</ele><time>2026-04-03T10:23:05.85Z</time></trkpt><trkpt lat="44.3692925" lon="9.1573902"><ele>93.66666666666667</ele><time>2026-04-03T10:23:06.851Z</time></trkpt><trkpt lat="44.3692531" lon="9.1576836"><ele>103.0</ele><time>2026-04-03T10:23:07.851Z</time></trkpt><trkpt lat="44.3692154" lon="9.1579788"><ele>107.0</ele><time>2026-04-03T10:23:08.851Z</time></trkpt><trkpt lat="44.3691756" lon="9.1582754"><ele>111.0</ele><time>2026-04-03T10:23:09.85Z</time></trkpt><trkpt lat="44.3691299" lon="9.1585677"><ele>115.0</ele><time>2026-04-03T10:23:10.851Z</time></trkpt><trkpt lat="44.3690808" lon="9.1588609"><ele>116.66666666666667</ele><time>2026-04-03T10:23:11.851Z</time></trkpt><trkpt lat="44.3690255" lon="9.1591473"><ele>118.33333333333334</ele><time>2026-04-03T10:23:12.851Z</time></trkpt><trkpt lat="44.3689688" lon="9.1594326"><ele>120.0</ele><time>2026-04-03T10:23:13.85Z</time></trkpt><trkpt lat="44.3689098" lon="9.1597181"><ele>119.33333333333334</ele><time>2026-04-03T10:23:14.851Z</time></trkpt><trkpt lat="44.3688501" lon="9.1600011"><ele>118.66666666666667</ele><time>2026-04-03T10:23:15.851Z</time></trkpt><trkpt lat="44.3687914" lon="9.1602869"><ele>118.0</ele><time>2026-04-03T10:23:16.851Z</time></trkpt><trkpt lat="44.3687338" lon="9.1605746"><ele>121.66666666666667</ele><time>2026-04-03T10:23:17.851Z</time></trkpt><trkpt lat="44.368676" lon="9.1608622"><ele>125.33333333333334</ele><time>2026-04-03T10:23:18.851Z</time></trkpt><trkpt lat="44.3686169" lon="9.1611498"><ele>129.0</ele><time>2026-04-03T10:23:19.851Z</time></trkpt><trkpt lat="44.3685597" lon="9.1614409"><ele>130.33333333333334</ele><time>2026-04-03T10:23:20.851Z</time></trkpt><trkpt lat="44.3684983" lon="9.1617298"><ele>131.66666666666669</ele><time>2026-04-03T10:23:21.851Z</time></trkpt><trkpt lat="44.3684364" lon="9.1620184"><ele>133.0</ele><time>2026-04-03T10:23:22.851Z</time></trkpt><trkpt lat="44.3638943" lon="9.1836653"><ele>128.0</ele><time>2026-04-03T10:24:36.85Z</time></trkpt><trkpt lat="44.3637866" lon="9.1839636"><ele>123.0</ele><time>2026-04-03T10:24:37.851Z</time></trkpt><trkpt lat="44.3636675" lon="9.1842284"><ele>123.0</ele><time>2026-04-03T10:24:38.85Z</time></trkpt><trkpt lat="44.3635354" lon="9.1844843"><ele>123.0</ele><time>2026-04-03T10:24:39.851Z</time></trkpt><trkpt lat="44.3634028" lon="9.1847375"><ele>122.0</ele><time>2026-04-03T10:24:40.851Z</time></trkpt><trkpt lat="44.3632694" lon="9.1849899"><ele>121.0</ele><time>2026-04-03T10:24:41.85Z</time></trkpt><trkpt lat="44.3631434" lon="9.1852441"><ele>120.0</ele><time>2026-04-03T10:24:42.851Z</time></trkpt><trkpt lat="44.363024" lon="9.1855059"><ele>115.66666666666666</ele><time>2026-04-03T10:24:43.851Z</time></trkpt><trkpt lat="44.3629151" lon="9.1857756"><ele>111.33333333333333</ele><time>2026-04-03T10:24:44.851Z</time></trkpt><trkpt lat="44.3628208" lon="9.1860545"><ele>107.0</ele><time>2026-04-03T10:24:45.851Z</time></trkpt><trkpt lat="44.362741" lon="9.1863407"><ele>105.33333333333333</ele><time>2026-04-03T10:24:46.851Z</time></trkpt><trkpt lat="44.3626709" lon="9.1866331"><ele>103.66666666666666</ele><time>2026-04-03T10:24:47.851Z</time></trkpt><trkpt lat="44.3626073" lon="9.1869331"><ele>102.0</ele><time>2026-04-03T10:24:48.85Z</time></trkpt><trkpt lat="44.3625482" lon="9.1872403"><ele>102.5</ele><time>2026-04-03T10:24:49.851Z</time></trkpt><trkpt lat="44.3624901" lon="9.1875533"><ele>103.0</ele><time>2026-04-03T10:24:50.85Z</time></trkpt><trkpt lat="44.3624318" lon="9.1878694"><ele>104.0</ele><time>2026-04-03T10:24:51.851Z</time></trkpt><trkpt lat="44.3623743" lon="9.1881897"><ele>105.0</ele><time>2026-04-03T10:24:52.851Z</time></trkpt><trkpt lat="44.3623156" lon="9.1885099"><ele>105.0</ele><time>2026-04-03T10:24:53.851Z</time></trkpt><trkpt lat="44.3622555" lon="9.1888297"><ele>105.0</ele><time>2026-04-03T10:24:54.85Z</time></trkpt><trkpt lat="44.3621947" lon="9.1891528"><ele>89.0</ele><time>2026-04-03T10:24:55.851Z</time></trkpt><trkpt lat="44.362134" lon="9.189475"><ele>73.0</ele><time>2026-04-03T10:24:56.851Z</time></trkpt><trkpt lat="44.3620754" lon="9.1897961"><ele>74.0</ele><time>2026-04-03T10:24:57.85Z</time></trkpt><trkpt lat="44.3620158" lon="9.1901186"><ele>75.0</ele><time>2026-04-03T10:24:58.85Z</time></trkpt><trkpt lat="44.3619582" lon="9.1904415"><ele>76.0</ele><time>2026-04-03T10:24:59.85Z</time></trkpt><trkpt lat="44.3619003" lon="9.1907654"><ele>77.0</ele><time>2026-04-03T10:25:00.851Z</time></trkpt><trkpt lat="44.3618415" lon="9.191091"><ele>77.0</ele><time>2026-04-03T10:25:01.851Z</time></trkpt><trkpt lat="44.3617835" lon="9.191414"><ele>77.0</ele><time>2026-04-03T10:25:02.851Z</time></trkpt><trkpt lat="44.3617229" lon="9.1917364"><ele>78.5</ele><time>2026-04-03T10:25:03.851Z</time></trkpt><trkpt lat="44.3616628" lon="9.1920598"><ele>80.0</ele><time>2026-04-03T10:25:04.851Z</time></trkpt><trkpt lat="44.3616061" lon="9.1923824"><ele>80.0</ele><time>2026-04-03T10:25:05.851Z</time></trkpt><trkpt lat="44.3615511" lon="9.1927017"><ele>80.0</ele><time>2026-04-03T10:25:06.85Z</time></trkpt><trkpt lat="44.361497" lon="9.193021"><ele>92.5</ele><time>2026-04-03T10:25:07.851Z</time></trkpt><trkpt lat="44.36145" lon="9.1933409"><ele>105.0</ele><time>2026-04-03T10:25:08.85Z</time></trkpt><trkpt lat="44.3614077" lon="9.1936553"><ele>105.0</ele><time>2026-04-03T10:25:09.85Z</time></trkpt><trkpt lat="44.3613663" lon="9.1939705"><ele>105.0</ele><time>2026-04-03T10:25:10.85Z</time></trkpt><trkpt lat="44.3613288" lon="9.1942864"><ele>83.0</ele><time>2026-04-03T10:25:11.851Z</time></trkpt><trkpt lat="44.3612354" lon="9.1952459"><ele>83.0</ele><time>2026-04-03T10:25:14.851Z</time></trkpt><trkpt lat="44.3612087" lon="9.1955495"><ele>83.0</ele><time>2026-04-03T10:25:15.851Z</time></trkpt><trkpt lat="44.3611764" lon="9.1958587"><ele>83.0</ele><time>2026-04-03T10:25:16.85Z</time></trkpt><trkpt lat="44.3611405" lon="9.1961693"><ele>77.66666666666667</ele><time>2026-04-03T10:25:17.851Z</time></trkpt><trkpt lat="44.3610962" lon="9.1964741"><ele>72.33333333333333</ele><time>2026-04-03T10:25:18.851Z</time></trkpt><trkpt lat="44.3610401" lon="9.1967729"><ele>67.0</ele><time>2026-04-03T10:25:19.85Z</time></trkpt><trkpt lat="44.3609765" lon="9.1970663"><ele>67.66666666666666</ele><time>2026-04-03T10:25:20.851Z</time></trkpt><trkpt lat="44.3609066" lon="9.1973541"><ele>68.33333333333333</ele><time>2026-04-03T10:25:21.851Z</time></trkpt><trkpt lat="44.3608382" lon="9.1976391"><ele>69.0</ele><time>2026-04-03T10:25:22.85Z</time></trkpt><trkpt lat="44.3607694" lon="9.197922"><ele>71.66666666666667</ele><time>2026-04-03T10:25:23.85Z</time></trkpt><trkpt lat="44.3607001" lon="9.198201"><ele>74.33333333333334</ele><time>2026-04-03T10:25:24.851Z</time></trkpt><trkpt lat="44.3606368" lon="9.1984798"><ele>77.0</ele><time>2026-04-03T10:25:25.851Z</time></trkpt><trkpt lat="44.3605841" lon="9.1987628"><ele>79.0</ele><time>2026-04-03T10:25:26.851Z</time></trkpt><trkpt lat="44.3605415" lon="9.1990517"><ele>81.0</ele><time>2026-04-03T10:25:27.851Z</time></trkpt><trkpt lat="44.360511" lon="9.1993411"><ele>83.0</ele><time>2026-04-03T10:25:28.851Z</time></trkpt><trkpt lat="44.3604841" lon="9.1996314"><ele>72.66666666666667</ele><time>2026-04-03T10:25:29.851Z</time></trkpt><trkpt lat="44.3604653" lon="9.1999271"><ele>62.33333333333333</ele><time>2026-04-03T10:25:30.851Z</time></trkpt><trkpt lat="44.360449" lon="9.2002275"><ele>52.0</ele><time>2026-04-03T10:25:31.851Z</time></trkpt><trkpt lat="44.3604319" lon="9.200532"><ele>50.0</ele><time>2026-04-03T10:25:32.851Z</time></trkpt><trkpt lat="44.3604137" lon="9.2008398"><ele>48.0</ele><time>2026-04-03T10:25:33.851Z</time></trkpt><trkpt lat="44.3603959" lon="9.2011506"><ele>46.0</ele><time>2026-04-03T10:25:34.851Z</time></trkpt><trkpt lat="44.3603775" lon="9.2014625"><ele>47.0</ele><time>2026-04-03T10:25:35.851Z</time></trkpt><trkpt lat="44.3603624" lon="9.2017755"><ele>48.0</ele><time>2026-04-03T10:25:36.851Z</time></trkpt><trkpt lat="44.360345" lon="9.2020873"><ele>49.0</ele><time>2026-04-03T10:25:37.851Z</time></trkpt><trkpt lat="44.3603296" lon="9.2023957"><ele>49.0</ele><time>2026-04-03T10:25:38.85Z</time></trkpt><trkpt lat="44.360319" lon="9.2027049"><ele>49.0</ele><time>2026-04-03T10:25:39.85Z</time></trkpt><trkpt lat="44.3603004" lon="9.2030116"><ele>49.0</ele><time>2026-04-03T10:25:40.851Z</time></trkpt><trkpt lat="44.3602806" lon="9.203318"><ele>48.0</ele><time>2026-04-03T10:25:41.851Z</time></trkpt><trkpt lat="44.3602576" lon="9.2036242"><ele>47.0</ele><time>2026-04-03T10:25:42.851Z</time></trkpt><trkpt lat="44.3602278" lon="9.2039316"><ele>46.0</ele><time>2026-04-03T10:25:43.851Z</time></trkpt><trkpt lat="44.3601873" lon="9.2042406"><ele>46.0</ele><time>2026-04-03T10:25:44.85Z</time></trkpt><trkpt lat="44.3601362" lon="9.204547"><ele>46.0</ele><time>2026-04-03T10:25:45.85Z</time></trkpt><trkpt lat="44.3600731" lon="9.2048509"><ele>47.5</ele><time>2026-04-03T10:25:46.85Z</time></trkpt><trkpt lat="44.3600033" lon="9.2051528"><ele>49.0</ele><time>2026-04-03T10:25:47.851Z</time></trkpt><trkpt lat="44.3599267" lon="9.2054512"><ele>46.5</ele><time>2026-04-03T10:25:48.85Z</time></trkpt><trkpt lat="44.3598423" lon="9.205743"><ele>44.0</ele><time>2026-04-03T10:25:49.851Z</time></trkpt><trkpt lat="44.3597533" lon="9.2060331"><ele>43.5</ele><time>2026-04-03T10:25:50.85Z</time></trkpt><trkpt lat="44.3596652" lon="9.2063235"><ele>43.0</ele><time>2026-04-03T10:25:51.85Z</time></trkpt><trkpt lat="44.3595775" lon="9.2066211"><ele>40.0</ele><time>2026-04-03T10:25:52.85Z</time></trkpt><trkpt lat="44.3594894" lon="9.2069173"><ele>37.0</ele><time>2026-04-03T10:25:53.851Z</time></trkpt><trkpt lat="44.359401" lon="9.2072161"><ele>37.0</ele><time>2026-04-03T10:25:54.851Z</time></trkpt><trkpt lat="44.3593116" lon="9.2075138"><ele>37.0</ele><time>2026-04-03T10:25:55.85Z</time></trkpt><trkpt lat="44.3592192" lon="9.2078156"><ele>37.0</ele><time>2026-04-03T10:25:56.851Z</time></trkpt><trkpt lat="44.3591285" lon="9.2081175"><ele>37.0</ele><time>2026-04-03T10:25:57.851Z</time></trkpt><trkpt lat="44.3590361" lon="9.2084211"><ele>33.0</ele><time>2026-04-03T10:25:58.851Z</time></trkpt><trkpt lat="44.358943" lon="9.2087263"><ele>29.0</ele><time>2026-04-03T10:25:59.851Z</time></trkpt><trkpt lat="44.3588517" lon="9.209032"><ele>26.5</ele><time>2026-04-03T10:26:00.851Z</time></trkpt><trkpt lat="44.3587595" lon="9.2093371"><ele>24.0</ele><time>2026-04-03T10:26:01.851Z</time></trkpt><trkpt lat="44.3586681" lon="9.2096422"><ele>23.0</ele><time>2026-04-03T10:26:02.85Z</time></trkpt><trkpt lat="44.3585781" lon="9.2099453"><ele>22.0</ele><time>2026-04-03T10:26:03.851Z</time></trkpt><trkpt lat="44.3584874" lon="9.2102478"><ele>22.0</ele><time>2026-04-03T10:26:04.85Z</time></trkpt><trkpt lat="44.3583994" lon="9.2105515"><ele>22.0</ele><time>2026-04-03T10:26:05.85Z</time></trkpt><trkpt lat="44.3583177" lon="9.210854"><ele>25.0</ele><time>2026-04-03T10:26:06.85Z</time></trkpt><trkpt lat="44.3582387" lon="9.2111535"><ele>28.0</ele><time>2026-04-03T10:26:07.851Z</time></trkpt><trkpt lat="44.3581639" lon="9.2114494"><ele>26.0</ele><time>2026-04-03T10:26:08.851Z</time></trkpt><trkpt lat="44.3580935" lon="9.2117463"><ele>24.0</ele><time>2026-04-03T10:26:09.851Z</time></trkpt><trkpt lat="44.3580262" lon="9.2120413"><ele>22.0</ele><time>2026-04-03T10:26:10.85Z</time></trkpt><trkpt lat="44.3579648" lon="9.2123355"><ele>19.0</ele><time>2026-04-03T10:26:11.851Z</time></trkpt><trkpt lat="44.3579111" lon="9.2126247"><ele>16.0</ele><time>2026-04-03T10:26:12.85Z</time></trkpt><trkpt lat="44.3578609" lon="9.2129127"><ele>13.0</ele><time>2026-04-03T10:26:13.851Z</time></trkpt><trkpt lat="44.357816" lon="9.2131983"><ele>12.666666666666666</ele><time>2026-04-03T10:26:14.851Z</time></trkpt><trkpt lat="44.3577727" lon="9.2134822"><ele>12.333333333333332</ele><time>2026-04-03T10:26:15.851Z</time></trkpt><trkpt lat="44.3577302" lon="9.2137589"><ele>12.0</ele><time>2026-04-03T10:26:16.851Z</time></trkpt><trkpt lat="44.3576925" lon="9.2140258"><ele>14.666666666666668</ele><time>2026-04-03T10:26:17.85Z</time></trkpt><trkpt lat="44.3576582" lon="9.2143054"><ele>17.333333333333336</ele><time>2026-04-03T10:26:18.851Z</time></trkpt><trkpt lat="44.3576256" lon="9.2145893"><ele>20.0</ele><time>2026-04-03T10:26:19.851Z</time></trkpt><trkpt lat="44.3575987" lon="9.2148371"><ele>28.333333333333336</ele><time>2026-04-03T10:26:20.851Z</time></trkpt><trkpt lat="44.3575761" lon="9.2151197"><ele>36.666666666666664</ele><time>2026-04-03T10:26:21.851Z</time></trkpt><trkpt lat="44.3575562" lon="9.2153936"><ele>45.0</ele><time>2026-04-03T10:26:22.851Z</time></trkpt><trkpt lat="44.3575366" lon="9.2156676"><ele>40.0</ele><time>2026-04-03T10:26:23.851Z</time></trkpt><trkpt lat="44.3573668" lon="9.217746"><ele>40.0</ele><time>2026-04-03T10:26:31.851Z</time></trkpt><trkpt lat="44.3573469" lon="9.2180011"><ele>40.0</ele><time>2026-04-03T10:26:32.851Z</time></trkpt><trkpt lat="44.3573388" lon="9.2182506"><ele>40.0</ele><time>2026-04-03T10:26:33.85Z</time></trkpt><trkpt lat="44.357337" lon="9.2185018"><ele>38.0</ele><time>2026-04-03T10:26:34.851Z</time></trkpt><trkpt lat="44.3573435" lon="9.2187541"><ele>36.0</ele><time>2026-04-03T10:26:35.85Z</time></trkpt><trkpt lat="44.357357" lon="9.219004"><ele>34.0</ele><time>2026-04-03T10:26:36.851Z</time></trkpt><trkpt lat="44.3573741" lon="9.2192547"><ele>34.0</ele><time>2026-04-03T10:26:37.851Z</time></trkpt><trkpt lat="44.3573917" lon="9.2195066"><ele>34.0</ele><time>2026-04-03T10:26:38.851Z</time></trkpt><trkpt lat="44.3574194" lon="9.2197548"><ele>34.0</ele><time>2026-04-03T10:26:39.851Z</time></trkpt><trkpt lat="44.3574533" lon="9.2200086"><ele>36.66666666666667</ele><time>2026-04-03T10:26:40.851Z</time></trkpt><trkpt lat="44.3574895" lon="9.2202586"><ele>39.333333333333336</ele><time>2026-04-03T10:26:41.851Z</time></trkpt><trkpt lat="44.3575266" lon="9.2205081"><ele>42.0</ele><time>2026-04-03T10:26:42.851Z</time></trkpt><trkpt lat="44.3575666" lon="9.2207556"><ele>43.666666666666664</ele><time>2026-04-03T10:26:43.85Z</time></trkpt><trkpt lat="44.3576069" lon="9.2210018"><ele>45.33333333333333</ele><time>2026-04-03T10:26:44.851Z</time></trkpt><trkpt lat="44.357649" lon="9.2212479"><ele>47.0</ele><time>2026-04-03T10:26:45.85Z</time></trkpt><trkpt lat="44.3576937" lon="9.2214927"><ele>48.33333333333333</ele><time>2026-04-03T10:26:46.85Z</time></trkpt><trkpt lat="44.3577387" lon="9.2217365"><ele>49.666666666666664</ele><time>2026-04-03T10:26:47.851Z</time></trkpt><trkpt lat="44.3577815" lon="9.2219859"><ele>51.0</ele><time>2026-04-03T10:26:48.85Z</time></trkpt><trkpt lat="44.3578257" lon="9.2222435"><ele>51.33333333333333</ele><time>2026-04-03T10:26:49.85Z</time></trkpt><trkpt lat="44.357871" lon="9.2225049"><ele>51.666666666666664</ele><time>2026-04-03T10:26:50.851Z</time></trkpt><trkpt lat="44.3579184" lon="9.222768"><ele>52.0</ele><time>2026-04-03T10:26:51.851Z</time></trkpt><trkpt lat="44.3579649" lon="9.2230343"><ele>48.0</ele><time>2026-04-03T10:26:52.851Z</time></trkpt><trkpt lat="44.3580107" lon="9.2233007"><ele>44.0</ele><time>2026-04-03T10:26:53.851Z</time></trkpt><trkpt lat="44.3580542" lon="9.223568"><ele>40.0</ele><time>2026-04-03T10:26:54.851Z</time></trkpt><trkpt lat="44.3581021" lon="9.2238343"><ele>41.0</ele><time>2026-04-03T10:26:55.851Z</time></trkpt><trkpt lat="44.3581477" lon="9.2241023"><ele>42.0</ele><time>2026-04-03T10:26:56.85Z</time></trkpt><trkpt lat="44.3581925" lon="9.2243611"><ele>43.0</ele><time>2026-04-03T10:26:57.85Z</time></trkpt><trkpt lat="44.3582349" lon="9.2246169"><ele>47.0</ele><time>2026-04-03T10:26:58.851Z</time></trkpt><trkpt lat="44.3582771" lon="9.2248645"><ele>51.0</ele><time>2026-04-03T10:26:59.851Z</time></trkpt><trkpt lat="44.3583131" lon="9.2251088"><ele>55.0</ele><time>2026-04-03T10:27:00.851Z</time></trkpt><trkpt lat="44.3583509" lon="9.2253439"><ele>55.0</ele><time>2026-04-03T10:27:01.851Z</time></trkpt><trkpt lat="44.3583867" lon="9.2255809"><ele>55.0</ele><time>2026-04-03T10:27:02.85Z</time></trkpt><trkpt lat="44.358424" lon="9.2258178"><ele>55.0</ele><time>2026-04-03T10:27:03.851Z</time></trkpt><trkpt lat="44.3586353" lon="9.2290437"><ele>57.0</ele><time>2026-04-03T10:27:11.985Z</time></trkpt><trkpt lat="44.3587924" lon="9.2281024"><ele>58.66666666666667</ele><time>2026-04-03T10:27:13.851Z</time></trkpt><trkpt lat="44.3588403" lon="9.228385"><ele>60.333333333333336</ele><time>2026-04-03T10:27:14.85Z</time></trkpt><trkpt lat="44.3588747" lon="9.2286099"><ele>62.0</ele><time>2026-04-03T10:27:15.851Z</time></trkpt><trkpt lat="44.3589139" lon="9.2288495"><ele>69.66666666666667</ele><time>2026-04-03T10:27:16.851Z</time></trkpt><trkpt lat="44.3589527" lon="9.2290926"><ele>77.33333333333333</ele><time>2026-04-03T10:27:17.85Z</time></trkpt><trkpt lat="44.3589912" lon="9.2293327"><ele>85.0</ele><time>2026-04-03T10:27:18.851Z</time></trkpt><trkpt lat="44.3590288" lon="9.2295731"><ele>75.0</ele><time>2026-04-03T10:27:19.851Z</time></trkpt><trkpt lat="44.3592873" lon="9.2336395"><ele>75.0</ele><time>2026-04-03T10:27:34.851Z</time></trkpt><trkpt lat="44.3592493" lon="9.2339261"><ele>75.0</ele><time>2026-04-03T10:27:35.851Z</time></trkpt><trkpt lat="44.3592022" lon="9.2342115"><ele>75.0</ele><time>2026-04-03T10:27:36.851Z</time></trkpt><trkpt lat="44.3591403" lon="9.2344946"><ele>64.0</ele><time>2026-04-03T10:27:37.85Z</time></trkpt><trkpt lat="44.3590703" lon="9.2347765"><ele>53.0</ele><time>2026-04-03T10:27:38.851Z</time></trkpt><trkpt lat="44.3589886" lon="9.235046"><ele>42.0</ele><time>2026-04-03T10:27:39.851Z</time></trkpt><trkpt lat="44.3589014" lon="9.2353063"><ele>45.0</ele><time>2026-04-03T10:27:40.851Z</time></trkpt><trkpt lat="44.3588087" lon="9.2355547"><ele>48.0</ele><time>2026-04-03T10:27:41.851Z</time></trkpt><trkpt lat="44.3587083" lon="9.2357971"><ele>51.0</ele><time>2026-04-03T10:27:42.85Z</time></trkpt><trkpt lat="44.3586003" lon="9.2360294"><ele>51.0</ele><time>2026-04-03T10:27:43.85Z</time></trkpt><trkpt lat="44.358484" lon="9.2362521"><ele>51.0</ele><time>2026-04-03T10:27:44.851Z</time></trkpt><trkpt lat="44.358361" lon="9.2364716"><ele>51.0</ele><time>2026-04-03T10:27:45.85Z</time></trkpt><trkpt lat="44.3582337" lon="9.236685"><ele>60.66666666666667</ele><time>2026-04-03T10:27:46.851Z</time></trkpt><trkpt lat="44.3580978" lon="9.2368878"><ele>70.33333333333334</ele><time>2026-04-03T10:27:47.851Z</time></trkpt><trkpt lat="44.3579665" lon="9.2370779"><ele>80.0</ele><time>2026-04-03T10:27:48.851Z</time></trkpt><trkpt lat="44.3578283" lon="9.2372566"><ele>92.5</ele><time>2026-04-03T10:27:49.851Z</time></trkpt><trkpt lat="44.3576878" lon="9.2374316"><ele>105.0</ele><time>2026-04-03T10:27:50.851Z</time></trkpt><trkpt lat="44.3538636" lon="9.2424249"><ele>88.0</ele><time>2026-04-03T10:28:16.851Z</time></trkpt><trkpt lat="44.3537159" lon="9.2426198"><ele>71.0</ele><time>2026-04-03T10:28:17.851Z</time></trkpt><trkpt lat="44.3535726" lon="9.2428117"><ele>54.0</ele><time>2026-04-03T10:28:18.851Z</time></trkpt><trkpt lat="44.3534286" lon="9.2430059"><ele>51.333333333333336</ele><time>2026-04-03T10:28:19.851Z</time></trkpt><trkpt lat="44.3532849" lon="9.2431967"><ele>48.66666666666667</ele><time>2026-04-03T10:28:20.851Z</time></trkpt><trkpt lat="44.3531409" lon="9.2433896"><ele>46.0</ele><time>2026-04-03T10:28:21.85Z</time></trkpt><trkpt lat="44.3529972" lon="9.2435839"><ele>46.0</ele><time>2026-04-03T10:28:22.851Z</time></trkpt><trkpt lat="44.3528547" lon="9.2437757"><ele>46.0</ele><time>2026-04-03T10:28:23.851Z</time></trkpt><trkpt lat="44.3527081" lon="9.2439678"><ele>46.0</ele><time>2026-04-03T10:28:24.851Z</time></trkpt><trkpt lat="44.3525627" lon="9.2441532"><ele>55.0</ele><time>2026-04-03T10:28:25.85Z</time></trkpt><trkpt lat="44.3524187" lon="9.2443408"><ele>64.0</ele><time>2026-04-03T10:28:26.85Z</time></trkpt><trkpt lat="44.3522737" lon="9.2445297"><ele>73.0</ele><time>2026-04-03T10:28:27.85Z</time></trkpt><trkpt lat="44.3521309" lon="9.2447201"><ele>82.0</ele><time>2026-04-03T10:28:28.851Z</time></trkpt><trkpt lat="44.3519867" lon="9.2449128"><ele>91.0</ele><time>2026-04-03T10:28:29.85Z</time></trkpt><trkpt lat="44.3518427" lon="9.2451008"><ele>100.0</ele><time>2026-04-03T10:28:30.851Z</time></trkpt><trkpt lat="44.3516983" lon="9.2452926"><ele>100.0</ele><time>2026-04-03T10:28:31.851Z</time></trkpt><trkpt lat="44.3515553" lon="9.2454834"><ele>100.0</ele><time>2026-04-03T10:28:32.851Z</time></trkpt><trkpt lat="44.3514123" lon="9.2456709"><ele>100.0</ele><time>2026-04-03T10:28:33.851Z</time></trkpt><trkpt lat="44.3504187" lon="9.2469964"><ele>99.33333333333334</ele><time>2026-04-03T10:28:40.85Z</time></trkpt><trkpt lat="44.3502438" lon="9.2471779"><ele>98.66666666666666</ele><time>2026-04-03T10:28:41.851Z</time></trkpt><trkpt lat="44.3501039" lon="9.2473691"><ele>98.0</ele><time>2026-04-03T10:28:42.851Z</time></trkpt><trkpt lat="44.3499554" lon="9.2475595"><ele>98.0</ele><time>2026-04-03T10:28:43.851Z</time></trkpt><trkpt lat="44.3498193" lon="9.2477456"><ele>98.0</ele><time>2026-04-03T10:28:44.851Z</time></trkpt><trkpt lat="44.3496861" lon="9.2479384"><ele>98.0</ele><time>2026-04-03T10:28:45.851Z</time></trkpt><trkpt lat="44.3495644" lon="9.2481348"><ele>99.0</ele><time>2026-04-03T10:28:46.85Z</time></trkpt><trkpt lat="44.3494522" lon="9.2483471"><ele>100.0</ele><time>2026-04-03T10:28:47.851Z</time></trkpt><trkpt lat="44.3493518" lon="9.2485644"><ele>101.0</ele><time>2026-04-03T10:28:48.85Z</time></trkpt><trkpt lat="44.3492534" lon="9.2487778"><ele>103.66666666666666</ele><time>2026-04-03T10:28:49.85Z</time></trkpt><trkpt lat="44.3491653" lon="9.2490051"><ele>106.33333333333334</ele><time>2026-04-03T10:28:50.851Z</time></trkpt><trkpt lat="44.3490861" lon="9.2492423"><ele>109.0</ele><time>2026-04-03T10:28:51.851Z</time></trkpt><trkpt lat="44.3490173" lon="9.249487"><ele>109.0</ele><time>2026-04-03T10:28:52.851Z</time></trkpt><trkpt lat="44.3489571" lon="9.2497367"><ele>109.0</ele><time>2026-04-03T10:28:53.851Z</time></trkpt><trkpt lat="44.3489044" lon="9.2499907"><ele>109.0</ele><time>2026-04-03T10:28:54.851Z</time></trkpt><trkpt lat="44.3488593" lon="9.2502505"><ele>103.66666666666667</ele><time>2026-04-03T10:28:55.851Z</time></trkpt><trkpt lat="44.3488223" lon="9.2505157"><ele>98.33333333333334</ele><time>2026-04-03T10:28:56.851Z</time></trkpt><trkpt lat="44.3487954" lon="9.2507859"><ele>93.0</ele><time>2026-04-03T10:28:57.851Z</time></trkpt><trkpt lat="44.348778" lon="9.2510612"><ele>93.0</ele><time>2026-04-03T10:28:58.851Z</time></trkpt><trkpt lat="44.3487606" lon="9.2513383"><ele>93.0</ele><time>2026-04-03T10:28:59.85Z</time></trkpt><trkpt lat="44.3487396" lon="9.2516147"><ele>93.0</ele><time>2026-04-03T10:29:00.851Z</time></trkpt><trkpt lat="44.3487144" lon="9.251889"><ele>93.33333333333333</ele><time>2026-04-03T10:29:01.85Z</time></trkpt><trkpt lat="44.3486878" lon="9.2521633"><ele>93.66666666666666</ele><time>2026-04-03T10:29:02.851Z</time></trkpt><trkpt lat="44.3486529" lon="9.252442"><ele>94.0</ele><time>2026-04-03T10:29:03.851Z</time></trkpt><trkpt lat="44.3486109" lon="9.2527238"><ele>95.33333333333333</ele><time>2026-04-03T10:29:04.851Z</time></trkpt><trkpt lat="44.3485585" lon="9.2530033"><ele>96.66666666666666</ele><time>2026-04-03T10:29:05.85Z</time></trkpt><trkpt lat="44.3485033" lon="9.2532831"><ele>98.0</ele><time>2026-04-03T10:29:06.851Z</time></trkpt><trkpt lat="44.3484446" lon="9.2535629"><ele>101.33333333333333</ele><time>2026-04-03T10:29:07.851Z</time></trkpt><trkpt lat="44.3483897" lon="9.2538408"><ele>104.66666666666666</ele><time>2026-04-03T10:29:08.85Z</time></trkpt><trkpt lat="44.348334" lon="9.2541194"><ele>108.0</ele><time>2026-04-03T10:29:09.85Z</time></trkpt><trkpt lat="44.3482764" lon="9.2544007"><ele>114.33333333333334</ele><time>2026-04-03T10:29:10.851Z</time></trkpt><trkpt lat="44.348217" lon="9.254685"><ele>120.66666666666667</ele><time>2026-04-03T10:29:11.851Z</time></trkpt><trkpt lat="44.3481577" lon="9.2549711"><ele>127.0</ele><time>2026-04-03T10:29:12.851Z</time></trkpt><trkpt lat="44.348097" lon="9.2552555"><ele>108.0</ele><time>2026-04-03T10:29:13.85Z</time></trkpt><trkpt lat="44.3487281" lon="9.2534415"><ele>88.0</ele><time>2026-04-03T10:29:54.483Z</time></trkpt><trkpt lat="44.3442489" lon="9.2725527"><ele>88.0</ele><time>2026-04-03T10:30:08.851Z</time></trkpt><trkpt lat="44.3441489" lon="9.2728136"><ele>88.0</ele><time>2026-04-03T10:30:09.851Z</time></trkpt><trkpt lat="44.3440487" lon="9.2730776"><ele>88.0</ele><time>2026-04-03T10:30:10.851Z</time></trkpt><trkpt lat="44.3439474" lon="9.2733401"><ele>93.0</ele><time>2026-04-03T10:30:11.851Z</time></trkpt><trkpt lat="44.3438478" lon="9.2736016"><ele>98.0</ele><time>2026-04-03T10:30:12.85Z</time></trkpt><trkpt lat="44.3437498" lon="9.2738625"><ele>103.0</ele><time>2026-04-03T10:30:13.851Z</time></trkpt><trkpt lat="44.3436532" lon="9.274123"><ele>103.0</ele><time>2026-04-03T10:30:14.85Z</time></trkpt><trkpt lat="44.3435561" lon="9.2743835"><ele>103.0</ele><time>2026-04-03T10:30:15.85Z</time></trkpt><trkpt lat="44.3434576" lon="9.2746443"><ele>103.0</ele><time>2026-04-03T10:30:16.851Z</time></trkpt><trkpt lat="44.3433594" lon="9.2749054"><ele>111.0</ele><time>2026-04-03T10:30:17.851Z</time></trkpt><trkpt lat="44.3432573" lon="9.2751668"><ele>119.0</ele><time>2026-04-03T10:30:18.85Z</time></trkpt><trkpt lat="44.3431475" lon="9.275423"><ele>127.0</ele><time>2026-04-03T10:30:19.85Z</time></trkpt><trkpt lat="44.3430303" lon="9.275673"><ele>131.33333333333334</ele><time>2026-04-03T10:30:20.851Z</time></trkpt><trkpt lat="44.3429077" lon="9.2759121"><ele>135.66666666666666</ele><time>2026-04-03T10:30:21.851Z</time></trkpt><trkpt lat="44.3427868" lon="9.2761387"><ele>140.0</ele><time>2026-04-03T10:30:22.85Z</time></trkpt><trkpt lat="44.3426648" lon="9.2763641"><ele>145.0</ele><time>2026-04-03T10:30:23.851Z</time></trkpt><trkpt lat="44.3425455" lon="9.2765845"><ele>150.0</ele><time>2026-04-03T10:30:24.85Z</time></trkpt><trkpt lat="44.3424238" lon="9.2768021"><ele>155.0</ele><time>2026-04-03T10:30:25.851Z</time></trkpt><trkpt lat="44.3423002" lon="9.2770158"><ele>192.0</ele><time>2026-04-03T10:30:26.851Z</time></trkpt><trkpt lat="44.3347107" lon="9.2913388"><ele>174.5</ele><time>2026-04-03T10:31:26.85Z</time></trkpt><trkpt lat="44.3344934" lon="9.291611"><ele>157.0</ele><time>2026-04-03T10:31:27.851Z</time></trkpt><trkpt lat="44.3342861" lon="9.2918442"><ele>157.0</ele><time>2026-04-03T10:31:28.85Z</time></trkpt><trkpt lat="44.3340979" lon="9.2920353"><ele>157.0</ele><time>2026-04-03T10:31:29.851Z</time></trkpt><trkpt lat="44.3339091" lon="9.2922196"><ele>149.5</ele><time>2026-04-03T10:31:30.851Z</time></trkpt><trkpt lat="44.3337135" lon="9.2923964"><ele>142.0</ele><time>2026-04-03T10:31:31.851Z</time></trkpt><trkpt lat="44.333518" lon="9.2925706"><ele>142.0</ele><time>2026-04-03T10:31:32.85Z</time></trkpt><trkpt lat="44.333322" lon="9.2927486"><ele>142.0</ele><time>2026-04-03T10:31:33.851Z</time></trkpt><trkpt lat="44.3331317" lon="9.292936"><ele>143.0</ele><time>2026-04-03T10:31:34.851Z</time></trkpt><trkpt lat="44.3329417" lon="9.2931373"><ele>144.0</ele><time>2026-04-03T10:31:35.851Z</time></trkpt><trkpt lat="44.3327571" lon="9.2933499"><ele>144.0</ele><time>2026-04-03T10:31:36.85Z</time></trkpt><trkpt lat="44.3325797" lon="9.2935757"><ele>144.0</ele><time>2026-04-03T10:31:37.85Z</time></trkpt><trkpt lat="44.332409" lon="9.2938194"><ele>151.0</ele><time>2026-04-03T10:31:38.851Z</time></trkpt><trkpt lat="44.3322486" lon="9.2940683"><ele>158.0</ele><time>2026-04-03T10:31:39.851Z</time></trkpt><trkpt lat="44.3320998" lon="9.2943271"><ele>158.0</ele><time>2026-04-03T10:31:40.85Z</time></trkpt><trkpt lat="44.3319608" lon="9.2945972"><ele>158.0</ele><time>2026-04-03T10:31:41.851Z</time></trkpt><trkpt lat="44.3318365" lon="9.2948749"><ele>145.5</ele><time>2026-04-03T10:31:42.851Z</time></trkpt><trkpt lat="44.3317228" lon="9.2951597"><ele>133.0</ele><time>2026-04-03T10:31:43.85Z</time></trkpt><trkpt lat="44.3316178" lon="9.2954512"><ele>123.5</ele><time>2026-04-03T10:31:44.851Z</time></trkpt><trkpt lat="44.3315216" lon="9.2957479"><ele>114.0</ele><time>2026-04-03T10:31:45.851Z</time></trkpt><trkpt lat="44.3314304" lon="9.2960473"><ele>129.5</ele><time>2026-04-03T10:31:46.851Z</time></trkpt><trkpt lat="44.3313448" lon="9.2963474"><ele>145.0</ele><time>2026-04-03T10:31:47.85Z</time></trkpt><trkpt lat="44.3312602" lon="9.296649"><ele>145.0</ele><time>2026-04-03T10:31:48.851Z</time></trkpt><trkpt lat="44.3311734" lon="9.2969485"><ele>145.0</ele><time>2026-04-03T10:31:49.851Z</time></trkpt><trkpt lat="44.3310858" lon="9.2972438"><ele>141.0</ele><time>2026-04-03T10:31:50.85Z</time></trkpt><trkpt lat="44.3310108" lon="9.297544"><ele>137.0</ele><time>2026-04-03T10:31:51.851Z</time></trkpt><trkpt lat="44.330955" lon="9.2978479"><ele>134.33333333333331</ele><time>2026-04-03T10:31:52.851Z</time></trkpt><trkpt lat="44.3309105" lon="9.2981463"><ele>131.66666666666666</ele><time>2026-04-03T10:31:53.851Z</time></trkpt><trkpt lat="44.3308742" lon="9.2984406"><ele>129.0</ele><time>2026-04-03T10:31:54.85Z</time></trkpt><trkpt lat="44.3308476" lon="9.298726"><ele>123.33333333333334</ele><time>2026-04-03T10:31:55.851Z</time></trkpt><trkpt lat="44.3308326" lon="9.2990056"><ele>117.66666666666667</ele><time>2026-04-03T10:31:56.851Z</time></trkpt><trkpt lat="44.3308243" lon="9.2992804"><ele>112.0</ele><time>2026-04-03T10:31:57.851Z</time></trkpt><trkpt lat="44.3308267" lon="9.2995543"><ele>109.66666666666667</ele><time>2026-04-03T10:31:58.85Z</time></trkpt><trkpt lat="44.3308387" lon="9.29983"><ele>107.33333333333334</ele><time>2026-04-03T10:31:59.851Z</time></trkpt><trkpt lat="44.3308564" lon="9.3001067"><ele>105.0</ele><time>2026-04-03T10:32:00.851Z</time></trkpt><trkpt lat="44.3308827" lon="9.3003788"><ele>105.0</ele><time>2026-04-03T10:32:01.851Z</time></trkpt><trkpt lat="44.3309122" lon="9.3006506"><ele>105.0</ele><time>2026-04-03T10:32:02.851Z</time></trkpt><trkpt lat="44.3309431" lon="9.3009208"><ele>105.0</ele><time>2026-04-03T10:32:03.85Z</time></trkpt><trkpt lat="44.3309706" lon="9.3011865"><ele>106.66666666666666</ele><time>2026-04-03T10:32:04.85Z</time></trkpt><trkpt lat="44.3309872" lon="9.3014541"><ele>108.33333333333333</ele><time>2026-04-03T10:32:05.85Z</time></trkpt><trkpt lat="44.3309954" lon="9.3017189"><ele>110.0</ele><time>2026-04-03T10:32:06.85Z</time></trkpt><trkpt lat="44.3309959" lon="9.3019847"><ele>110.66666666666666</ele><time>2026-04-03T10:32:07.851Z</time></trkpt><trkpt lat="44.3309894" lon="9.3022555"><ele>111.33333333333334</ele><time>2026-04-03T10:32:08.851Z</time></trkpt><trkpt lat="44.3309765" lon="9.3025274"><ele>112.0</ele><time>2026-04-03T10:32:09.85Z</time></trkpt><trkpt lat="44.3309613" lon="9.3027993"><ele>112.0</ele><time>2026-04-03T10:32:10.85Z</time></trkpt><trkpt lat="44.3309452" lon="9.3030737"><ele>112.0</ele><time>2026-04-03T10:32:11.85Z</time></trkpt><trkpt lat="44.330929" lon="9.3033487"><ele>112.0</ele><time>2026-04-03T10:32:12.85Z</time></trkpt><trkpt lat="44.330914" lon="9.3036293"><ele>110.66666666666667</ele><time>2026-04-03T10:32:13.851Z</time></trkpt><trkpt lat="44.3309039" lon="9.3039099"><ele>109.33333333333334</ele><time>2026-04-03T10:32:14.85Z</time></trkpt><trkpt lat="44.3309015" lon="9.3041887"><ele>108.0</ele><time>2026-04-03T10:32:15.85Z</time></trkpt><trkpt lat="44.3309078" lon="9.3044672"><ele>106.66666666666666</ele><time>2026-04-03T10:32:16.851Z</time></trkpt><trkpt lat="44.3309244" lon="9.3047473"><ele>105.33333333333333</ele><time>2026-04-03T10:32:17.85Z</time></trkpt><trkpt lat="44.3309481" lon="9.3050265"><ele>104.0</ele><time>2026-04-03T10:32:18.85Z</time></trkpt><trkpt lat="44.3309774" lon="9.3053057"><ele>106.0</ele><time>2026-04-03T10:32:19.851Z</time></trkpt><trkpt lat="44.3310093" lon="9.3055807"><ele>108.0</ele><time>2026-04-03T10:32:20.85Z</time></trkpt><trkpt lat="44.3310404" lon="9.3058569"><ele>110.0</ele><time>2026-04-03T10:32:21.851Z</time></trkpt><trkpt lat="44.331067" lon="9.3061311"><ele>110.0</ele><time>2026-04-03T10:32:22.851Z</time></trkpt><trkpt lat="44.3310842" lon="9.3064081"><ele>110.0</ele><time>2026-04-03T10:32:23.85Z</time></trkpt><trkpt lat="44.3310896" lon="9.3066858"><ele>110.0</ele><time>2026-04-03T10:32:24.851Z</time></trkpt><trkpt lat="44.3310839" lon="9.306964"><ele>110.0</ele><time>2026-04-03T10:32:25.851Z</time></trkpt><trkpt lat="44.3310684" lon="9.3072419"><ele>110.0</ele><time>2026-04-03T10:32:26.85Z</time></trkpt><trkpt lat="44.3310458" lon="9.3075187"><ele>110.0</ele><time>2026-04-03T10:32:27.851Z</time></trkpt><trkpt lat="44.3310137" lon="9.3077932"><ele>107.33333333333333</ele><time>2026-04-03T10:32:28.85Z</time></trkpt><trkpt lat="44.3309729" lon="9.3080614"><ele>104.66666666666666</ele><time>2026-04-03T10:32:29.85Z</time></trkpt><trkpt lat="44.3309248" lon="9.3083228"><ele>102.0</ele><time>2026-04-03T10:32:30.851Z</time></trkpt><trkpt lat="44.3308768" lon="9.3085794"><ele>99.0</ele><time>2026-04-03T10:32:31.851Z</time></trkpt><trkpt lat="44.3308256" lon="9.3088334"><ele>96.0</ele><time>2026-04-03T10:32:32.851Z</time></trkpt><trkpt lat="44.3307777" lon="9.309084"><ele>93.0</ele><time>2026-04-03T10:32:33.851Z</time></trkpt><trkpt lat="44.3307262" lon="9.3093327"><ele>86.66666666666667</ele><time>2026-04-03T10:32:34.851Z</time></trkpt><trkpt lat="44.3306775" lon="9.3095812"><ele>80.33333333333334</ele><time>2026-04-03T10:32:35.85Z</time></trkpt><trkpt lat="44.33063" lon="9.3098272"><ele>74.0</ele><time>2026-04-03T10:32:36.851Z</time></trkpt><trkpt lat="44.3305813" lon="9.3100728"><ele>75.33333333333334</ele><time>2026-04-03T10:32:37.851Z</time></trkpt><trkpt lat="44.3305301" lon="9.3103214"><ele>76.66666666666667</ele><time>2026-04-03T10:32:38.851Z</time></trkpt><trkpt lat="44.3304784" lon="9.3105736"><ele>78.0</ele><time>2026-04-03T10:32:39.85Z</time></trkpt><trkpt lat="44.3304263" lon="9.3108258"><ele>78.0</ele><time>2026-04-03T10:32:40.851Z</time></trkpt><trkpt lat="44.3303704" lon="9.3110795"><ele>78.0</ele><time>2026-04-03T10:32:41.851Z</time></trkpt><trkpt lat="44.330311" lon="9.3113329"><ele>78.0</ele><time>2026-04-03T10:32:42.85Z</time></trkpt><trkpt lat="44.3302488" lon="9.3115875"><ele>78.33333333333333</ele><time>2026-04-03T10:32:43.851Z</time></trkpt><trkpt lat="44.3301823" lon="9.3118442"><ele>78.66666666666666</ele><time>2026-04-03T10:32:44.851Z</time></trkpt><trkpt lat="44.3301135" lon="9.3121048"><ele>79.0</ele><time>2026-04-03T10:32:45.851Z</time></trkpt><trkpt lat="44.3300407" lon="9.3123693"><ele>74.66666666666666</ele><time>2026-04-03T10:32:46.851Z</time></trkpt><trkpt lat="44.3299711" lon="9.3126376"><ele>70.33333333333333</ele><time>2026-04-03T10:32:47.85Z</time></trkpt><trkpt lat="44.3298984" lon="9.3129095"><ele>66.0</ele><time>2026-04-03T10:32:48.85Z</time></trkpt><trkpt lat="44.3298247" lon="9.3131729"><ele>69.33333333333333</ele><time>2026-04-03T10:32:49.851Z</time></trkpt><trkpt lat="44.3297506" lon="9.313429"><ele>72.66666666666666</ele><time>2026-04-03T10:32:50.851Z</time></trkpt><trkpt lat="44.3296741" lon="9.3136807"><ele>76.0</ele><time>2026-04-03T10:32:51.851Z</time></trkpt><trkpt lat="44.3295977" lon="9.313927"><ele>76.0</ele><time>2026-04-03T10:32:52.85Z</time></trkpt><trkpt lat="44.3295198" lon="9.3141719"><ele>76.0</ele><time>2026-04-03T10:32:53.85Z</time></trkpt><trkpt lat="44.3294418" lon="9.3144112"><ele>76.0</ele><time>2026-04-03T10:32:54.85Z</time></trkpt><trkpt lat="44.329363" lon="9.3146469"><ele>74.33333333333333</ele><time>2026-04-03T10:32:55.85Z</time></trkpt><trkpt lat="44.329282" lon="9.31488"><ele>72.66666666666667</ele><time>2026-04-03T10:32:56.85Z</time></trkpt><trkpt lat="44.3292013" lon="9.3151134"><ele>71.0</ele><time>2026-04-03T10:32:57.85Z</time></trkpt><trkpt lat="44.3291185" lon="9.3153468"><ele>74.5</ele><time>2026-04-03T10:32:58.851Z</time></trkpt><trkpt lat="44.3290346" lon="9.3155783"><ele>78.0</ele><time>2026-04-03T10:32:59.851Z</time></trkpt><trkpt lat="44.3283278" lon="9.3178186"><ele>71.0</ele><time>2026-04-03T10:33:08.851Z</time></trkpt><trkpt lat="44.3282663" lon="9.3180269"><ele>64.0</ele><time>2026-04-03T10:33:09.851Z</time></trkpt><trkpt lat="44.3281876" lon="9.3182648"><ele>57.0</ele><time>2026-04-03T10:33:10.851Z</time></trkpt><trkpt lat="44.3281086" lon="9.3184973"><ele>48.333333333333336</ele><time>2026-04-03T10:33:11.851Z</time></trkpt><trkpt lat="44.3280256" lon="9.318716"><ele>39.66666666666667</ele><time>2026-04-03T10:33:12.851Z</time></trkpt><trkpt lat="44.3279334" lon="9.3189304"><ele>31.0</ele><time>2026-04-03T10:33:13.851Z</time></trkpt><trkpt lat="44.3278368" lon="9.3191435"><ele>27.333333333333336</ele><time>2026-04-03T10:33:14.851Z</time></trkpt><trkpt lat="44.3277358" lon="9.3193502"><ele>23.666666666666668</ele><time>2026-04-03T10:33:15.851Z</time></trkpt><trkpt lat="44.327639" lon="9.319559"><ele>20.0</ele><time>2026-04-03T10:33:16.851Z</time></trkpt><trkpt lat="44.3275464" lon="9.3197688"><ele>18.666666666666668</ele><time>2026-04-03T10:33:17.851Z</time></trkpt><trkpt lat="44.3274563" lon="9.3199776"><ele>17.333333333333332</ele><time>2026-04-03T10:33:18.851Z</time></trkpt><trkpt lat="44.3273645" lon="9.3201878"><ele>16.0</ele><time>2026-04-03T10:33:19.851Z</time></trkpt><trkpt lat="44.3272727" lon="9.3203993"><ele>13.333333333333332</ele><time>2026-04-03T10:33:20.851Z</time></trkpt><trkpt lat="44.3271815" lon="9.3206084"><ele>10.666666666666666</ele><time>2026-04-03T10:33:21.85Z</time></trkpt><trkpt lat="44.3270902" lon="9.3208159"><ele>8.0</ele><time>2026-04-03T10:33:22.851Z</time></trkpt><trkpt lat="44.3270067" lon="9.3210293"><ele>8.0</ele><time>2026-04-03T10:33:23.851Z</time></trkpt><trkpt lat="44.3269277" lon="9.321246"><ele>8.0</ele><time>2026-04-03T10:33:24.851Z</time></trkpt><trkpt lat="44.3268522" lon="9.3214661"><ele>8.0</ele><time>2026-04-03T10:33:25.851Z</time></trkpt><trkpt lat="44.326781" lon="9.3216873"><ele>10.666666666666666</ele><time>2026-04-03T10:33:26.851Z</time></trkpt><trkpt lat="44.326715" lon="9.3219123"><ele>13.333333333333332</ele><time>2026-04-03T10:33:27.851Z</time></trkpt><trkpt lat="44.3266522" lon="9.3221386"><ele>16.0</ele><time>2026-04-03T10:33:28.851Z</time></trkpt><trkpt lat="44.3265963" lon="9.3223694"><ele>20.0</ele><time>2026-04-03T10:33:29.85Z</time></trkpt><trkpt lat="44.3265462" lon="9.3226038"><ele>24.0</ele><time>2026-04-03T10:33:30.851Z</time></trkpt><trkpt lat="44.3264966" lon="9.3228395"><ele>28.0</ele><time>2026-04-03T10:33:31.851Z</time></trkpt><trkpt lat="44.3264489" lon="9.3230768"><ele>31.0</ele><time>2026-04-03T10:33:32.851Z</time></trkpt><trkpt lat="44.3264071" lon="9.3233118"><ele>34.0</ele><time>2026-04-03T10:33:33.851Z</time></trkpt><trkpt lat="44.3263654" lon="9.3235474"><ele>37.0</ele><time>2026-04-03T10:33:34.851Z</time></trkpt><trkpt lat="44.3263244" lon="9.3237784"><ele>37.0</ele><time>2026-04-03T10:33:35.851Z</time></trkpt><trkpt lat="44.3262851" lon="9.3240075"><ele>37.0</ele><time>2026-04-03T10:33:36.851Z</time></trkpt><trkpt lat="44.3262431" lon="9.3242318"><ele>37.0</ele><time>2026-04-03T10:33:37.851Z</time></trkpt><trkpt lat="44.3262039" lon="9.3244545"><ele>37.0</ele><time>2026-04-03T10:33:38.851Z</time></trkpt><trkpt lat="44.3261637" lon="9.3246777"><ele>37.0</ele><time>2026-04-03T10:33:39.851Z</time></trkpt><trkpt lat="44.3261226" lon="9.3249014"><ele>37.0</ele><time>2026-04-03T10:33:40.85Z</time></trkpt><trkpt lat="44.3260808" lon="9.3251247"><ele>39.333333333333336</ele><time>2026-04-03T10:33:41.851Z</time></trkpt><trkpt lat="44.3260423" lon="9.3253457"><ele>41.666666666666664</ele><time>2026-04-03T10:33:42.851Z</time></trkpt><trkpt lat="44.3260073" lon="9.3255627"><ele>44.0</ele><time>2026-04-03T10:33:43.85Z</time></trkpt><trkpt lat="44.3259703" lon="9.3257773"><ele>44.0</ele><time>2026-04-03T10:33:44.851Z</time></trkpt><trkpt lat="44.3259328" lon="9.3259892"><ele>44.0</ele><time>2026-04-03T10:33:45.851Z</time></trkpt><trkpt lat="44.3258957" lon="9.3261965"><ele>44.0</ele><time>2026-04-03T10:33:46.851Z</time></trkpt><trkpt lat="44.3258582" lon="9.3264038"><ele>42.0</ele><time>2026-04-03T10:33:47.85Z</time></trkpt><trkpt lat="44.3258194" lon="9.3266138"><ele>40.0</ele><time>2026-04-03T10:33:48.85Z</time></trkpt><trkpt lat="44.325778" lon="9.3268222"><ele>38.0</ele><time>2026-04-03T10:33:49.85Z</time></trkpt><trkpt lat="44.3257364" lon="9.327034"><ele>37.666666666666664</ele><time>2026-04-03T10:33:50.851Z</time></trkpt><trkpt lat="44.3256939" lon="9.3272466"><ele>37.333333333333336</ele><time>2026-04-03T10:33:51.85Z</time></trkpt><trkpt lat="44.3256481" lon="9.3274583"><ele>37.0</ele><time>2026-04-03T10:33:52.851Z</time></trkpt><trkpt lat="44.3256001" lon="9.3276746"><ele>35.66666666666667</ele><time>2026-04-03T10:33:53.851Z</time></trkpt><trkpt lat="44.3255542" lon="9.3278961"><ele>34.333333333333336</ele><time>2026-04-03T10:33:54.85Z</time></trkpt><trkpt lat="44.3255056" lon="9.3281204"><ele>33.0</ele><time>2026-04-03T10:33:55.85Z</time></trkpt><trkpt lat="44.325457" lon="9.3283424"><ele>37.666666666666664</ele><time>2026-04-03T10:33:56.851Z</time></trkpt><trkpt lat="44.3254055" lon="9.3285649"><ele>42.33333333333333</ele><time>2026-04-03T10:33:57.851Z</time></trkpt><trkpt lat="44.3253542" lon="9.3287831"><ele>47.0</ele><time>2026-04-03T10:33:58.851Z</time></trkpt><trkpt lat="44.3253013" lon="9.3289962"><ele>47.666666666666664</ele><time>2026-04-03T10:33:59.85Z</time></trkpt><trkpt lat="44.3252481" lon="9.3292058"><ele>48.33333333333333</ele><time>2026-04-03T10:34:00.851Z</time></trkpt><trkpt lat="44.3251941" lon="9.3294152"><ele>49.0</ele><time>2026-04-03T10:34:01.851Z</time></trkpt><trkpt lat="44.3236051" lon="9.3341337"><ele>49.0</ele><time>2026-04-03T10:34:22.851Z</time></trkpt><trkpt lat="44.3235068" lon="9.3343482"><ele>49.0</ele><time>2026-04-03T10:34:23.851Z</time></trkpt><trkpt lat="44.3234151" lon="9.3345639"><ele>49.0</ele><time>2026-04-03T10:34:24.851Z</time></trkpt><trkpt lat="44.3233261" lon="9.3347759"><ele>48.33333333333333</ele><time>2026-04-03T10:34:25.851Z</time></trkpt><trkpt lat="44.3232361" lon="9.334984"><ele>47.666666666666664</ele><time>2026-04-03T10:34:26.85Z</time></trkpt><trkpt lat="44.3231432" lon="9.335188"><ele>47.0</ele><time>2026-04-03T10:34:27.85Z</time></trkpt><trkpt lat="44.3230547" lon="9.3353922"><ele>44.33333333333333</ele><time>2026-04-03T10:34:28.851Z</time></trkpt><trkpt lat="44.3229673" lon="9.3355927"><ele>41.666666666666664</ele><time>2026-04-03T10:34:29.851Z</time></trkpt><trkpt lat="44.3228792" lon="9.3357978"><ele>39.0</ele><time>2026-04-03T10:34:30.851Z</time></trkpt><trkpt lat="44.3227916" lon="9.3360025"><ele>39.0</ele><time>2026-04-03T10:34:31.85Z</time></trkpt><trkpt lat="44.3227054" lon="9.3362086"><ele>39.0</ele><time>2026-04-03T10:34:32.851Z</time></trkpt><trkpt lat="44.3226197" lon="9.3364122"><ele>39.0</ele><time>2026-04-03T10:34:33.851Z</time></trkpt><trkpt lat="44.3225323" lon="9.3366189"><ele>40.333333333333336</ele><time>2026-04-03T10:34:34.851Z</time></trkpt><trkpt lat="44.3224443" lon="9.3368271"><ele>41.66666666666667</ele><time>2026-04-03T10:34:35.85Z</time></trkpt><trkpt lat="44.3223601" lon="9.3370326"><ele>43.0</ele><time>2026-04-03T10:34:36.851Z</time></trkpt><trkpt lat="44.3216748" lon="9.3389066"><ele>43.0</ele><time>2026-04-03T10:34:44.851Z</time></trkpt><trkpt lat="44.3215828" lon="9.3391686"><ele>43.0</ele><time>2026-04-03T10:34:45.85Z</time></trkpt><trkpt lat="44.3215013" lon="9.3394165"><ele>43.0</ele><time>2026-04-03T10:34:46.851Z</time></trkpt><trkpt lat="44.3214201" lon="9.3396585"><ele>37.66666666666667</ele><time>2026-04-03T10:34:47.851Z</time></trkpt><trkpt lat="44.3213363" lon="9.3398977"><ele>32.333333333333336</ele><time>2026-04-03T10:34:48.851Z</time></trkpt><trkpt lat="44.3212496" lon="9.3401336"><ele>27.0</ele><time>2026-04-03T10:34:49.851Z</time></trkpt><trkpt lat="44.3211645" lon="9.3403662"><ele>24.666666666666668</ele><time>2026-04-03T10:34:50.851Z</time></trkpt><trkpt lat="44.3210812" lon="9.3405962"><ele>22.333333333333336</ele><time>2026-04-03T10:34:51.851Z</time></trkpt><trkpt lat="44.3209998" lon="9.3408229"><ele>20.0</ele><time>2026-04-03T10:34:52.851Z</time></trkpt><trkpt lat="44.3209229" lon="9.3410465"><ele>20.0</ele><time>2026-04-03T10:34:53.851Z</time></trkpt><trkpt lat="44.3208458" lon="9.3412663"><ele>20.0</ele><time>2026-04-03T10:34:54.851Z</time></trkpt><trkpt lat="44.3207701" lon="9.3414817"><ele>20.0</ele><time>2026-04-03T10:34:55.851Z</time></trkpt><trkpt lat="44.3206907" lon="9.3417015"><ele>16.666666666666668</ele><time>2026-04-03T10:34:56.851Z</time></trkpt><trkpt lat="44.3206105" lon="9.34192"><ele>13.333333333333334</ele><time>2026-04-03T10:34:57.851Z</time></trkpt><trkpt lat="44.3205283" lon="9.3421387"><ele>10.0</ele><time>2026-04-03T10:34:58.851Z</time></trkpt><trkpt lat="44.3204471" lon="9.3423562"><ele>9.333333333333334</ele><time>2026-04-03T10:34:59.851Z</time></trkpt><trkpt lat="44.3203638" lon="9.3425739"><ele>8.666666666666666</ele><time>2026-04-03T10:35:00.851Z</time></trkpt><trkpt lat="44.3202813" lon="9.342795"><ele>8.0</ele><time>2026-04-03T10:35:01.851Z</time></trkpt><trkpt lat="44.3202002" lon="9.3430172"><ele>8.666666666666666</ele><time>2026-04-03T10:35:02.851Z</time></trkpt><trkpt lat="44.3201208" lon="9.3432427"><ele>9.333333333333334</ele><time>2026-04-03T10:35:03.85Z</time></trkpt><trkpt lat="44.3200422" lon="9.3434658"><ele>10.0</ele><time>2026-04-03T10:35:04.851Z</time></trkpt><trkpt lat="44.3199637" lon="9.3436846"><ele>9.333333333333334</ele><time>2026-04-03T10:35:05.85Z</time></trkpt><trkpt lat="44.3198829" lon="9.3439039"><ele>8.666666666666666</ele><time>2026-04-03T10:35:06.85Z</time></trkpt><trkpt lat="44.3198049" lon="9.344121"><ele>8.0</ele><time>2026-04-03T10:35:07.851Z</time></trkpt><trkpt lat="44.3197271" lon="9.3443397"><ele>7.666666666666666</ele><time>2026-04-03T10:35:08.851Z</time></trkpt><trkpt lat="44.3196462" lon="9.3445557"><ele>7.333333333333334</ele><time>2026-04-03T10:35:09.851Z</time></trkpt><trkpt lat="44.319567" lon="9.3447691"><ele>7.0</ele><time>2026-04-03T10:35:10.85Z</time></trkpt><trkpt lat="44.3194884" lon="9.3449811"><ele>7.0</ele><time>2026-04-03T10:35:11.851Z</time></trkpt><trkpt lat="44.3194108" lon="9.3451925"><ele>7.0</ele><time>2026-04-03T10:35:12.851Z</time></trkpt><trkpt lat="44.3193321" lon="9.3454078"><ele>7.0</ele><time>2026-04-03T10:35:13.851Z</time></trkpt><trkpt lat="44.3192543" lon="9.3456185"><ele>7.0</ele><time>2026-04-03T10:35:14.849Z</time></trkpt><trkpt lat="44.3191769" lon="9.3458313"><ele>7.0</ele><time>2026-04-03T10:35:15.851Z</time></trkpt><trkpt lat="44.3190996" lon="9.3460472"><ele>7.0</ele><time>2026-04-03T10:35:16.851Z</time></trkpt><trkpt lat="44.3190221" lon="9.346263"><ele>7.0</ele><time>2026-04-03T10:35:17.851Z</time></trkpt><trkpt lat="44.3189437" lon="9.3464807"><ele>7.0</ele><time>2026-04-03T10:35:18.85Z</time></trkpt><trkpt lat="44.3188644" lon="9.3466966"><ele>7.0</ele><time>2026-04-03T10:35:19.851Z</time></trkpt><trkpt lat="44.3187842" lon="9.3469145"><ele>7.666666666666667</ele><time>2026-04-03T10:35:20.851Z</time></trkpt><trkpt lat="44.3187035" lon="9.347133"><ele>8.333333333333334</ele><time>2026-04-03T10:35:21.85Z</time></trkpt><trkpt lat="44.3186222" lon="9.3473523"><ele>9.0</ele><time>2026-04-03T10:35:22.85Z</time></trkpt><trkpt lat="44.3185405" lon="9.3475738"><ele>15.0</ele><time>2026-04-03T10:35:23.851Z</time></trkpt><trkpt lat="44.3184585" lon="9.3477967"><ele>21.0</ele><time>2026-04-03T10:35:24.85Z</time></trkpt><trkpt lat="44.3183789" lon="9.3480203"><ele>27.0</ele><time>2026-04-03T10:35:25.85Z</time></trkpt><trkpt lat="44.3182971" lon="9.3482421"><ele>29.666666666666664</ele><time>2026-04-03T10:35:26.851Z</time></trkpt><trkpt lat="44.3182154" lon="9.3484636"><ele>32.33333333333333</ele><time>2026-04-03T10:35:27.85Z</time></trkpt><trkpt lat="44.3181268" lon="9.3486794"><ele>35.0</ele><time>2026-04-03T10:35:28.851Z</time></trkpt><trkpt lat="44.3180325" lon="9.3488903"><ele>38.0</ele><time>2026-04-03T10:35:29.85Z</time></trkpt><trkpt lat="44.3179392" lon="9.3491009"><ele>41.0</ele><time>2026-04-03T10:35:30.851Z</time></trkpt><trkpt lat="44.3178481" lon="9.3493145"><ele>44.0</ele><time>2026-04-03T10:35:31.851Z</time></trkpt><trkpt lat="44.3177558" lon="9.3495231"><ele>44.0</ele><time>2026-04-03T10:35:32.851Z</time></trkpt><trkpt lat="44.3176634" lon="9.3497297"><ele>44.0</ele><time>2026-04-03T10:35:33.85Z</time></trkpt><trkpt lat="44.3175726" lon="9.3499259"><ele>44.0</ele><time>2026-04-03T10:35:34.85Z</time></trkpt><trkpt lat="44.3174639" lon="9.3501072"><ele>44.0</ele><time>2026-04-03T10:35:35.85Z</time></trkpt><trkpt lat="44.3173295" lon="9.3502282"><ele>44.0</ele><time>2026-04-03T10:35:36.85Z</time></trkpt><trkpt lat="44.3171894" lon="9.3502918"><ele>44.0</ele><time>2026-04-03T10:35:37.851Z</time></trkpt><trkpt lat="44.3170504" lon="9.3502887"><ele>44.0</ele><time>2026-04-03T10:35:38.851Z</time></trkpt><trkpt lat="44.3169284" lon="9.3502018"><ele>42.0</ele><time>2026-04-03T10:35:39.851Z</time></trkpt><trkpt lat="44.3168395" lon="9.3500657"><ele>40.0</ele><time>2026-04-03T10:35:40.85Z</time></trkpt><trkpt lat="44.3167901" lon="9.3498938"><ele>38.0</ele><time>2026-04-03T10:35:41.851Z</time></trkpt><trkpt lat="44.316787" lon="9.3497099"><ele>36.0</ele><time>2026-04-03T10:35:42.851Z</time></trkpt><trkpt lat="44.3168203" lon="9.3495319"><ele>35.75</ele><time>2026-04-03T10:35:43.85Z</time></trkpt><trkpt lat="44.3168994" lon="9.3493891"><ele>35.5</ele><time>2026-04-03T10:35:44.851Z</time></trkpt><trkpt lat="44.3170141" lon="9.3493069"><ele>35.25</ele><time>2026-04-03T10:35:45.851Z</time></trkpt><trkpt lat="44.3171406" lon="9.3492804"><ele>35.0</ele><time>2026-04-03T10:35:46.85Z</time></trkpt><trkpt lat="44.3172671" lon="9.3493071"><ele>37.25</ele><time>2026-04-03T10:35:47.85Z</time></trkpt><trkpt lat="44.3173838" lon="9.3493866"><ele>39.5</ele><time>2026-04-03T10:35:48.851Z</time></trkpt><trkpt lat="44.3174953" lon="9.3494872"><ele>41.75</ele><time>2026-04-03T10:35:49.85Z</time></trkpt><trkpt lat="44.3176106" lon="9.3495895"><ele>44.0</ele><time>2026-04-03T10:35:50.851Z</time></trkpt><trkpt lat="44.3177305" lon="9.3496907"><ele>44.0</ele><time>2026-04-03T10:35:51.851Z</time></trkpt><trkpt lat="44.3178532" lon="9.3497932"><ele>44.0</ele><time>2026-04-03T10:35:52.851Z</time></trkpt><trkpt lat="44.3179734" lon="9.3498942"><ele>44.0</ele><time>2026-04-03T10:35:53.85Z</time></trkpt><trkpt lat="44.318088" lon="9.349995"><ele>44.0</ele><time>2026-04-03T10:35:54.851Z</time></trkpt><trkpt lat="44.3181981" lon="9.3500885"><ele>43.400000000000006</ele><time>2026-04-03T10:35:55.85Z</time></trkpt><trkpt lat="44.3183028" lon="9.350163"><ele>42.8</ele><time>2026-04-03T10:35:56.851Z</time></trkpt><trkpt lat="44.3184057" lon="9.3502009"><ele>42.2</ele><time>2026-04-03T10:35:57.851Z</time></trkpt><trkpt lat="44.3185095" lon="9.3502005"><ele>41.599999999999994</ele><time>2026-04-03T10:35:58.85Z</time></trkpt><trkpt lat="44.3186068" lon="9.3501631"><ele>41.0</ele><time>2026-04-03T10:35:59.85Z</time></trkpt><trkpt lat="44.3186905" lon="9.3500978"><ele>41.0</ele><time>2026-04-03T10:36:00.851Z</time></trkpt><trkpt lat="44.3187603" lon="9.3500114"><ele>41.0</ele><time>2026-04-03T10:36:01.85Z</time></trkpt><trkpt lat="44.3188131" lon="9.3499066"><ele>41.0</ele><time>2026-04-03T10:36:02.85Z</time></trkpt><trkpt lat="44.3188466" lon="9.3497892"><ele>41.0</ele><time>2026-04-03T10:36:03.851Z</time></trkpt><trkpt lat="44.3188618" lon="9.3496669"><ele>41.0</ele><time>2026-04-03T10:36:04.85Z</time></trkpt><trkpt lat="44.3188583" lon="9.3495452"><ele>40.0</ele><time>2026-04-03T10:36:05.85Z</time></trkpt><trkpt lat="44.3188421" lon="9.3494297"><ele>39.0</ele><time>2026-04-03T10:36:06.851Z</time></trkpt><trkpt lat="44.3188217" lon="9.3493208"><ele>38.0</ele><time>2026-04-03T10:36:07.851Z</time></trkpt><trkpt lat="44.3187983" lon="9.3492182"><ele>37.0</ele><time>2026-04-03T10:36:08.851Z</time></trkpt><trkpt lat="44.3187801" lon="9.3491258"><ele>36.0</ele><time>2026-04-03T10:36:09.851Z</time></trkpt><trkpt lat="44.3187608" lon="9.3490402"><ele>35.0</ele><time>2026-04-03T10:36:10.851Z</time></trkpt><trkpt lat="44.318729" lon="9.3489054"><ele>35.0</ele><time>2026-04-03T10:36:12.851Z</time></trkpt><trkpt lat="44.3187098" lon="9.3488146"><ele>35.0</ele><time>2026-04-03T10:37:02.851Z</time></trkpt><trkpt lat="44.3186871" lon="9.3486517"><ele>35.0</ele><time>2026-04-03T10:37:04.851Z</time></trkpt><trkpt lat="44.3186743" lon="9.348557"><ele>35.0</ele><time>2026-04-03T10:37:05.851Z</time></trkpt><trkpt lat="44.3186641" lon="9.348456"><ele>35.0</ele><time>2026-04-03T10:37:06.85Z</time></trkpt><trkpt lat="44.3186635" lon="9.3483448"><ele>35.0</ele><time>2026-04-03T10:37:07.851Z</time></trkpt><trkpt lat="44.3186781" lon="9.3482373"><ele>35.0</ele><time>2026-04-03T10:37:08.851Z</time></trkpt><trkpt lat="44.3187092" lon="9.348135"><ele>35.0</ele><time>2026-04-03T10:37:09.851Z</time></trkpt><trkpt lat="44.3187685" lon="9.3480363"><ele>35.0</ele><time>2026-04-03T10:37:10.85Z</time></trkpt><trkpt lat="44.3188473" lon="9.3479601"><ele>35.0</ele><time>2026-04-03T10:37:11.851Z</time></trkpt><trkpt lat="44.3189385" lon="9.3479096"><ele>35.0</ele><time>2026-04-03T10:37:12.851Z</time></trkpt><trkpt lat="44.3190413" lon="9.3478831"><ele>35.0</ele><time>2026-04-03T10:37:13.851Z</time></trkpt><trkpt lat="44.3191531" lon="9.3478996"><ele>35.0</ele><time>2026-04-03T10:37:14.851Z</time></trkpt><trkpt lat="44.319259" lon="9.3479578"><ele>35.0</ele><time>2026-04-03T10:37:15.85Z</time></trkpt><trkpt lat="44.319359" lon="9.348035"><ele>35.0</ele><time>2026-04-03T10:37:16.851Z</time></trkpt><trkpt lat="44.3194595" lon="9.3481084"><ele>35.0</ele><time>2026-04-03T10:37:17.85Z</time></trkpt><trkpt lat="44.3195621" lon="9.3481674"><ele>35.0</ele><time>2026-04-03T10:37:18.851Z</time></trkpt><trkpt lat="44.3196654" lon="9.3482139"><ele>35.0</ele><time>2026-04-03T10:37:19.85Z</time></trkpt><trkpt lat="44.3197683" lon="9.3482418"><ele>35.0</ele><time>2026-04-03T10:37:20.851Z</time></trkpt><trkpt lat="44.3198709" lon="9.3482563"><ele>35.0</ele><time>2026-04-03T10:37:21.851Z</time></trkpt><trkpt lat="44.3199721" lon="9.3482699"><ele>32.0</ele><time>2026-04-03T10:37:22.851Z</time></trkpt><trkpt lat="44.3200688" lon="9.3482956"><ele>29.0</ele><time>2026-04-03T10:37:23.85Z</time></trkpt><trkpt lat="44.3201597" lon="9.348344"><ele>26.0</ele><time>2026-04-03T10:37:24.851Z</time></trkpt><trkpt lat="44.3202374" lon="9.348411"><ele>23.0</ele><time>2026-04-03T10:37:25.85Z</time></trkpt><trkpt lat="44.3202965" lon="9.3485041"><ele>20.0</ele><time>2026-04-03T10:37:26.85Z</time></trkpt><trkpt lat="44.320336" lon="9.3486115"><ele>20.0</ele><time>2026-04-03T10:37:27.85Z</time></trkpt><trkpt lat="44.320362" lon="9.3487212"><ele>20.0</ele><time>2026-04-03T10:37:28.851Z</time></trkpt><trkpt lat="44.3203813" lon="9.3488294"><ele>20.0</ele><time>2026-04-03T10:37:29.851Z</time></trkpt><trkpt lat="44.3204065" lon="9.348934"><ele>20.0</ele><time>2026-04-03T10:37:30.851Z</time></trkpt><trkpt lat="44.3204311" lon="9.3490405"><ele>20.0</ele><time>2026-04-03T10:37:31.851Z</time></trkpt><trkpt lat="44.320451" lon="9.3491547"><ele>20.0</ele><time>2026-04-03T10:37:32.851Z</time></trkpt><trkpt lat="44.3204869" lon="9.3492639"><ele>19.166666666666668</ele><time>2026-04-03T10:37:33.85Z</time></trkpt><trkpt lat="44.3205438" lon="9.3493554"><ele>18.333333333333336</ele><time>2026-04-03T10:37:34.85Z</time></trkpt><trkpt lat="44.3206228" lon="9.3494048"><ele>17.5</ele><time>2026-04-03T10:37:35.85Z</time></trkpt><trkpt lat="44.3207038" lon="9.3493989"><ele>16.666666666666668</ele><time>2026-04-03T10:37:36.851Z</time></trkpt><trkpt lat="44.3207746" lon="9.349352"><ele>15.833333333333334</ele><time>2026-04-03T10:37:37.851Z</time></trkpt><trkpt lat="44.3208293" lon="9.3492744"><ele>15.0</ele><time>2026-04-03T10:37:38.85Z</time></trkpt><trkpt lat="44.3208622" lon="9.3491762"><ele>15.0</ele><time>2026-04-03T10:37:39.85Z</time></trkpt><trkpt lat="44.3208653" lon="9.3490614"><ele>15.0</ele><time>2026-04-03T10:37:40.851Z</time></trkpt><trkpt lat="44.3208417" lon="9.3489506"><ele>15.0</ele><time>2026-04-03T10:37:41.85Z</time></trkpt><trkpt lat="44.3208038" lon="9.3488484"><ele>15.0</ele><time>2026-04-03T10:37:42.851Z</time></trkpt><trkpt lat="44.3207735" lon="9.3487622"><ele>15.0</ele><time>2026-04-03T10:37:43.851Z</time></trkpt><trkpt lat="44.3207445" lon="9.3486518"><ele>15.0</ele><time>2026-04-03T10:37:45.851Z</time></trkpt><trkpt lat="44.3207488" lon="9.3485307"><ele>15.833333333333334</ele><time>2026-04-03T10:37:49.85Z</time></trkpt><trkpt lat="44.3208028" lon="9.3483687"><ele>16.666666666666668</ele><time>2026-04-03T10:37:51.85Z</time></trkpt><trkpt lat="44.3207806" lon="9.3482848"><ele>17.5</ele><time>2026-04-03T10:37:52.851Z</time></trkpt><trkpt lat="44.3207291" lon="9.3482281"><ele>18.333333333333336</ele><time>2026-04-03T10:37:53.85Z</time></trkpt><trkpt lat="44.3206636" lon="9.3481978"><ele>19.166666666666668</ele><time>2026-04-03T10:37:54.851Z</time></trkpt><trkpt lat="44.3205943" lon="9.3481799"><ele>20.0</ele><time>2026-04-03T10:37:55.851Z</time></trkpt><trkpt lat="44.3205221" lon="9.3481464"><ele>20.0</ele><time>2026-04-03T10:37:56.85Z</time></trkpt><trkpt lat="44.3204468" lon="9.3480864"><ele>20.0</ele><time>2026-04-03T10:37:57.85Z</time></trkpt><trkpt lat="44.3203691" lon="9.3480192"><ele>20.0</ele><time>2026-04-03T10:37:58.851Z</time></trkpt><trkpt lat="44.3202878" lon="9.3479487"><ele>20.0</ele><time>2026-04-03T10:37:59.85Z</time></trkpt><trkpt lat="44.3202008" lon="9.3478805"><ele>20.0</ele><time>2026-04-03T10:38:00.851Z</time></trkpt><trkpt lat="44.3201095" lon="9.3478063"><ele>19.2</ele><time>2026-04-03T10:38:01.851Z</time></trkpt><trkpt lat="44.3200167" lon="9.3477339"><ele>18.4</ele><time>2026-04-03T10:38:02.85Z</time></trkpt><trkpt lat="44.319923" lon="9.3476608"><ele>17.6</ele><time>2026-04-03T10:38:03.85Z</time></trkpt><trkpt lat="44.3198304" lon="9.3475891"><ele>16.8</ele><time>2026-04-03T10:38:04.85Z</time></trkpt><trkpt lat="44.3197393" lon="9.3475138"><ele>16.0</ele><time>2026-04-03T10:38:05.85Z</time></trkpt><trkpt lat="44.3196506" lon="9.3474407"><ele>16.0</ele><time>2026-04-03T10:38:06.85Z</time></trkpt><trkpt lat="44.3195645" lon="9.3473653"><ele>16.0</ele><time>2026-04-03T10:38:07.851Z</time></trkpt><trkpt lat="44.3194767" lon="9.3472913"><ele>16.0</ele><time>2026-04-03T10:38:08.85Z</time></trkpt><trkpt lat="44.3193893" lon="9.3472191"><ele>16.0</ele><time>2026-04-03T10:38:09.85Z</time></trkpt><trkpt lat="44.3193023" lon="9.347148"><ele>16.0</ele><time>2026-04-03T10:38:10.851Z</time></trkpt><trkpt lat="44.3192167" lon="9.3470798"><ele>14.600000000000001</ele><time>2026-04-03T10:38:11.851Z</time></trkpt><trkpt lat="44.3191335" lon="9.3470121"><ele>13.200000000000001</ele><time>2026-04-03T10:38:12.851Z</time></trkpt><trkpt lat="44.3190484" lon="9.3469528"><ele>11.8</ele><time>2026-04-03T10:38:13.851Z</time></trkpt><trkpt lat="44.3189626" lon="9.3469071"><ele>10.4</ele><time>2026-04-03T10:38:14.851Z</time></trkpt><trkpt lat="44.3188735" lon="9.346872"><ele>9.0</ele><time>2026-04-03T10:38:15.851Z</time></trkpt><trkpt lat="44.3187845" lon="9.3468455"><ele>9.0</ele><time>2026-04-03T10:38:16.85Z</time></trkpt><trkpt lat="44.3187019" lon="9.3468324"><ele>9.0</ele><time>2026-04-03T10:38:17.851Z</time></trkpt><trkpt lat="44.3186124" lon="9.3468175"><ele>9.0</ele><time>2026-04-03T10:38:18.851Z</time></trkpt><trkpt lat="44.3185209" lon="9.3468029"><ele>9.0</ele><time>2026-04-03T10:38:19.85Z</time></trkpt><trkpt lat="44.3184277" lon="9.3467833"><ele>9.0</ele><time>2026-04-03T10:38:20.85Z</time></trkpt><trkpt lat="44.3183317" lon="9.3467664"><ele>9.0</ele><time>2026-04-03T10:38:21.851Z</time></trkpt><trkpt lat="44.3182315" lon="9.3467475"><ele>9.0</ele><time>2026-04-03T10:38:22.851Z</time></trkpt><trkpt lat="44.3181361" lon="9.3467173"><ele>9.0</ele><time>2026-04-03T10:38:23.851Z</time></trkpt><trkpt lat="44.3180417" lon="9.3466706"><ele>9.0</ele><time>2026-04-03T10:38:24.851Z</time></trkpt><trkpt lat="44.3179508" lon="9.3466138"><ele>9.0</ele><time>2026-04-03T10:38:25.85Z</time></trkpt><trkpt lat="44.3178586" lon="9.3465584"><ele>8.6</ele><time>2026-04-03T10:38:26.851Z</time></trkpt><trkpt lat="44.3177681" lon="9.3465018"><ele>8.2</ele><time>2026-04-03T10:38:27.851Z</time></trkpt><trkpt lat="44.317676" lon="9.3464485"><ele>7.799999999999999</ele><time>2026-04-03T10:38:28.851Z</time></trkpt><trkpt lat="44.3175866" lon="9.3463967"><ele>7.3999999999999995</ele><time>2026-04-03T10:38:29.851Z</time></trkpt><trkpt lat="44.317498" lon="9.3463458"><ele>7.0</ele><time>2026-04-03T10:38:30.851Z</time></trkpt><trkpt lat="44.3174089" lon="9.3462952"><ele>7.000000000000001</ele><time>2026-04-03T10:38:31.851Z</time></trkpt><trkpt lat="44.3173249" lon="9.3462472"><ele>7.0</ele><time>2026-04-03T10:38:32.851Z</time></trkpt><trkpt lat="44.3172527" lon="9.3461982"><ele>7.0</ele><time>2026-04-03T10:38:33.851Z</time></trkpt><trkpt lat="44.3171943" lon="9.3461416"><ele>7.0</ele><time>2026-04-03T10:38:34.851Z</time></trkpt><trkpt lat="44.3171526" lon="9.3460667"><ele>7.000000000000001</ele><time>2026-04-03T10:38:35.85Z</time></trkpt><trkpt lat="44.3171147" lon="9.345985"><ele>7.0</ele><time>2026-04-03T10:38:36.851Z</time></trkpt><trkpt lat="44.3170526" lon="9.3459263"><ele>7.500000000000001</ele><time>2026-04-03T10:38:37.851Z</time></trkpt><trkpt lat="44.3169788" lon="9.345898"><ele>8.0</ele><time>2026-04-03T10:38:38.85Z</time></trkpt><trkpt lat="44.3168943" lon="9.3458782"><ele>8.5</ele><time>2026-04-03T10:38:39.85Z</time></trkpt><trkpt lat="44.316815" lon="9.3458494"><ele>9.0</ele><time>2026-04-03T10:38:40.85Z</time></trkpt><trkpt lat="44.3167326" lon="9.3458015"><ele>9.5</ele><time>2026-04-03T10:38:41.851Z</time></trkpt><trkpt lat="44.3166598" lon="9.3457507"><ele>10.0</ele><time>2026-04-03T10:38:42.851Z</time></trkpt><trkpt lat="44.3165909" lon="9.3456998"><ele>10.0</ele><time>2026-04-03T10:38:43.851Z</time></trkpt><trkpt lat="44.3165181" lon="9.3456402"><ele>10.0</ele><time>2026-04-03T10:38:44.85Z</time></trkpt><trkpt lat="44.3164421" lon="9.345572"><ele>10.0</ele><time>2026-04-03T10:38:45.851Z</time></trkpt><trkpt lat="44.3163631" lon="9.3455011"><ele>10.0</ele><time>2026-04-03T10:38:46.851Z</time></trkpt><trkpt lat="44.3162843" lon="9.3454365"><ele>10.0</ele><time>2026-04-03T10:38:47.85Z</time></trkpt><trkpt lat="44.3162053" lon="9.345371"><ele>8.8</ele><time>2026-04-03T10:38:48.851Z</time></trkpt><trkpt lat="44.316122" lon="9.3453109"><ele>7.6</ele><time>2026-04-03T10:38:49.851Z</time></trkpt><trkpt lat="44.3160305" lon="9.3452712"><ele>6.4</ele><time>2026-04-03T10:38:50.851Z</time></trkpt><trkpt lat="44.3159337" lon="9.3452462"><ele>5.2</ele><time>2026-04-03T10:38:51.851Z</time></trkpt><trkpt lat="44.3158297" lon="9.3452398"><ele>4.0</ele><time>2026-04-03T10:38:52.85Z</time></trkpt><trkpt lat="44.3157209" lon="9.3452468"><ele>4.0</ele><time>2026-04-03T10:38:53.851Z</time></trkpt><trkpt lat="44.3156105" lon="9.345261"><ele>4.0</ele><time>2026-04-03T10:38:54.851Z</time></trkpt><trkpt lat="44.3154985" lon="9.3452817"><ele>4.0</ele><time>2026-04-03T10:38:55.851Z</time></trkpt><trkpt lat="44.3153855" lon="9.3453042"><ele>4.0</ele><time>2026-04-03T10:38:56.851Z</time></trkpt><trkpt lat="44.3152697" lon="9.3453288"><ele>3.5</ele><time>2026-04-03T10:38:57.85Z</time></trkpt><trkpt lat="44.3151557" lon="9.3453532"><ele>3.0</ele><time>2026-04-03T10:38:58.851Z</time></trkpt><trkpt lat="44.3150417" lon="9.3453783"><ele>2.5</ele><time>2026-04-03T10:38:59.851Z</time></trkpt><trkpt lat="44.3149239" lon="9.3454005"><ele>2.0</ele><time>2026-04-03T10:39:00.85Z</time></trkpt><trkpt lat="44.3148111" lon="9.345422"><ele>1.75</ele><time>2026-04-03T10:39:01.851Z</time></trkpt><trkpt lat="44.3146966" lon="9.3454448"><ele>1.5</ele><time>2026-04-03T10:39:02.851Z</time></trkpt><trkpt lat="44.3145822" lon="9.345465"><ele>1.25</ele><time>2026-04-03T10:39:03.85Z</time></trkpt><trkpt lat="44.3144672" lon="9.3454854"><ele>1.0</ele><time>2026-04-03T10:39:04.85Z</time></trkpt><trkpt lat="44.3143553" lon="9.345504"><ele>1.0</ele><time>2026-04-03T10:39:05.851Z</time></trkpt><trkpt lat="44.314242" lon="9.3455302"><ele>1.0</ele><time>2026-04-03T10:39:06.85Z</time></trkpt><trkpt lat="44.3141298" lon="9.3455574"><ele>1.0</ele><time>2026-04-03T10:39:07.85Z</time></trkpt><trkpt lat="44.3140207" lon="9.3455888"><ele>1.0</ele><time>2026-04-03T10:39:08.851Z</time></trkpt><trkpt lat="44.3139088" lon="9.3456156"><ele>2.0</ele><time>2026-04-03T10:39:09.851Z</time></trkpt><trkpt lat="44.3137959" lon="9.3456446"><ele>3.0</ele><time>2026-04-03T10:39:10.851Z</time></trkpt><trkpt lat="44.3136826" lon="9.3456732"><ele>4.0</ele><time>2026-04-03T10:39:11.851Z</time></trkpt><trkpt lat="44.3135712" lon="9.3456965"><ele>5.0</ele><time>2026-04-03T10:39:12.85Z</time></trkpt><trkpt lat="44.3134595" lon="9.3457183"><ele>5.0</ele><time>2026-04-03T10:39:13.851Z</time></trkpt><trkpt lat="44.3133464" lon="9.3457434"><ele>5.0</ele><time>2026-04-03T10:39:14.851Z</time></trkpt><trkpt lat="44.3132331" lon="9.3457648"><ele>5.0</ele><time>2026-04-03T10:39:15.851Z</time></trkpt><trkpt lat="44.3131185" lon="9.3457865"><ele>5.0</ele><time>2026-04-03T10:39:16.851Z</time></trkpt><trkpt lat="44.3130051" lon="9.3458082"><ele>4.8</ele><time>2026-04-03T10:39:17.851Z</time></trkpt><trkpt lat="44.312892" lon="9.345829"><ele>4.6</ele><time>2026-04-03T10:39:18.85Z</time></trkpt><trkpt lat="44.3127813" lon="9.345856"><ele>4.4</ele><time>2026-04-03T10:39:19.85Z</time></trkpt><trkpt lat="44.3126725" lon="9.3458796"><ele>4.2</ele><time>2026-04-03T10:39:20.849Z</time></trkpt><trkpt lat="44.3125616" lon="9.3459037"><ele>4.0</ele><time>2026-04-03T10:39:21.85Z</time></trkpt><trkpt lat="44.3124514" lon="9.3459295"><ele>4.0</ele><time>2026-04-03T10:39:22.85Z</time></trkpt><trkpt lat="44.3123428" lon="9.3459516"><ele>4.0</ele><time>2026-04-03T10:39:23.85Z</time></trkpt><trkpt lat="44.3122342" lon="9.3459736"><ele>4.0</ele><time>2026-04-03T10:39:24.851Z</time></trkpt><trkpt lat="44.3121328" lon="9.3459963"><ele>4.0</ele><time>2026-04-03T10:39:25.851Z</time></trkpt><trkpt lat="44.3120437" lon="9.3460181"><ele>4.0</ele><time>2026-04-03T10:39:26.85Z</time></trkpt><trkpt lat="44.3119602" lon="9.346044"><ele>4.333333333333333</ele><time>2026-04-03T10:39:27.851Z</time></trkpt><trkpt lat="44.3118779" lon="9.346065"><ele>4.666666666666666</ele><time>2026-04-03T10:39:28.851Z</time></trkpt><trkpt lat="44.3117875" lon="9.3460822"><ele>5.0</ele><time>2026-04-03T10:39:29.849Z</time></trkpt><trkpt lat="44.3116961" lon="9.3460993"><ele>5.333333333333333</ele><time>2026-04-03T10:39:30.851Z</time></trkpt><trkpt lat="44.3116055" lon="9.3461154"><ele>5.666666666666667</ele><time>2026-04-03T10:39:31.85Z</time></trkpt><trkpt lat="44.3115155" lon="9.3461297"><ele>6.0</ele><time>2026-04-03T10:39:32.85Z</time></trkpt><trkpt lat="44.311428" lon="9.3461448"><ele>6.333333333333333</ele><time>2026-04-03T10:39:33.85Z</time></trkpt><trkpt lat="44.311342" lon="9.3461561"><ele>6.666666666666666</ele><time>2026-04-03T10:39:34.85Z</time></trkpt><trkpt lat="44.3112596" lon="9.3461653"><ele>7.0</ele><time>2026-04-03T10:39:35.849Z</time></trkpt><trkpt lat="44.3111818" lon="9.3461543"><ele>7.333333333333333</ele><time>2026-04-03T10:39:36.85Z</time></trkpt><trkpt lat="44.3111164" lon="9.3461283"><ele>7.666666666666666</ele><time>2026-04-03T10:39:37.85Z</time></trkpt><trkpt lat="44.3110493" lon="9.346087"><ele>8.0</ele><time>2026-04-03T10:39:38.851Z</time></trkpt><trkpt lat="44.3109855" lon="9.3460297"><ele>7.999999999999999</ele><time>2026-04-03T10:39:39.85Z</time></trkpt><trkpt lat="44.3109225" lon="9.3459654"><ele>8.0</ele><time>2026-04-03T10:39:40.85Z</time></trkpt><trkpt lat="44.3108604" lon="9.3459009"><ele>8.0</ele><time>2026-04-03T10:39:41.85Z</time></trkpt><trkpt lat="44.3107918" lon="9.345833"><ele>8.0</ele><time>2026-04-03T10:39:42.85Z</time></trkpt><trkpt lat="44.3107247" lon="9.3457682"><ele>7.999999999999999</ele><time>2026-04-03T10:39:43.85Z</time></trkpt><trkpt lat="44.3106638" lon="9.3457065"><ele>8.0</ele><time>2026-04-03T10:39:44.85Z</time></trkpt><trkpt lat="44.310611" lon="9.3456492"><ele>7.999999999999999</ele><time>2026-04-03T10:39:45.85Z</time></trkpt><trkpt lat="44.3105279" lon="9.3455721"><ele>8.0</ele><time>2026-04-03T10:39:47.851Z</time></trkpt><trkpt lat="44.3104659" lon="9.3455159"><ele>8.0</ele><time>2026-04-03T10:39:50.85Z</time></trkpt><trkpt lat="44.3103961" lon="9.345449"><ele>8.0</ele><time>2026-04-03T10:39:53.85Z</time></trkpt><trkpt lat="44.3103189" lon="9.345374"><ele>7.999999999999999</ele><time>2026-04-03T10:39:55.85Z</time></trkpt><trkpt lat="44.3102393" lon="9.3453007"><ele>8.0</ele><time>2026-04-03T10:39:57.851Z</time></trkpt><trkpt lat="44.3101542" lon="9.3452332"><ele>8.333333333333332</ele><time>2026-04-03T10:39:59.851Z</time></trkpt><trkpt lat="44.3100696" lon="9.3451513"><ele>8.666666666666666</ele><time>2026-04-03T10:40:01.851Z</time></trkpt><trkpt lat="44.3099946" lon="9.3450757"><ele>9.0</ele><time>2026-04-03T10:40:03.851Z</time></trkpt><trkpt lat="44.3099419" lon="9.345024"><ele>9.333333333333334</ele><time>2026-04-03T10:40:05.85Z</time></trkpt><trkpt lat="44.3098711" lon="9.3449609"><ele>9.666666666666668</ele><time>2026-04-03T10:40:09.851Z</time></trkpt><trkpt lat="44.3097973" lon="9.3448994"><ele>10.0</ele><time>2026-04-03T10:40:12.851Z</time></trkpt><trkpt lat="44.3097148" lon="9.3448194"><ele>10.0</ele><time>2026-04-03T10:40:15.849Z</time></trkpt><trkpt lat="44.3096337" lon="9.3447474"><ele>10.0</ele><time>2026-04-03T10:40:17.851Z</time></trkpt><trkpt lat="44.3095588" lon="9.3446369"><ele>10.0</ele><time>2026-04-03T10:40:19.851Z</time></trkpt><trkpt lat="44.3095165" lon="9.3445615"><ele>10.0</ele><time>2026-04-03T10:40:20.849Z</time></trkpt><trkpt lat="44.309463" lon="9.3444945"><ele>10.0</ele><time>2026-04-03T10:40:21.85Z</time></trkpt><trkpt lat="44.3094022" lon="9.3444434"><ele>10.0</ele><time>2026-04-03T10:40:22.851Z</time></trkpt><trkpt lat="44.3093454" lon="9.3444001"><ele>9.333333333333334</ele><time>2026-04-03T10:40:23.851Z</time></trkpt><trkpt lat="44.3092875" lon="9.3443648"><ele>8.666666666666668</ele><time>2026-04-03T10:40:24.849Z</time></trkpt><trkpt lat="44.3091695" lon="9.3442891"><ele>8.0</ele><time>2026-04-03T10:40:26.85Z</time></trkpt><trkpt lat="44.3091109" lon="9.3442386"><ele>7.333333333333334</ele><time>2026-04-03T10:40:27.851Z</time></trkpt><trkpt lat="44.3090544" lon="9.3441876"><ele>6.666666666666667</ele><time>2026-04-03T10:40:28.851Z</time></trkpt><trkpt lat="44.3089999" lon="9.3441393"><ele>6.0</ele><time>2026-04-03T10:40:29.85Z</time></trkpt><trkpt lat="44.3089462" lon="9.3440902"><ele>6.0</ele><time>2026-04-03T10:40:30.849Z</time></trkpt><trkpt lat="44.3088953" lon="9.3440383"><ele>6.0</ele><time>2026-04-03T10:40:31.851Z</time></trkpt><trkpt lat="44.3088425" lon="9.3439862"><ele>6.0</ele><time>2026-04-03T10:40:32.851Z</time></trkpt><trkpt lat="44.3087886" lon="9.3439378"><ele>6.0</ele><time>2026-04-03T10:40:33.85Z</time></trkpt><trkpt lat="44.3087356" lon="9.3438885"><ele>6.0</ele><time>2026-04-03T10:40:34.851Z</time></trkpt><trkpt lat="44.3086811" lon="9.3438396"><ele>6.0</ele><time>2026-04-03T10:40:35.851Z</time></trkpt><trkpt lat="44.3086276" lon="9.3437902"><ele>6.0</ele><time>2026-04-03T10:40:36.85Z</time></trkpt><trkpt lat="44.3085734" lon="9.3437397"><ele>6.0</ele><time>2026-04-03T10:40:37.85Z</time></trkpt><trkpt lat="44.3085202" lon="9.3436886"><ele>6.0</ele><time>2026-04-03T10:40:38.851Z</time></trkpt><trkpt lat="44.3084654" lon="9.3436422"><ele>6.0</ele><time>2026-04-03T10:40:39.851Z</time></trkpt><trkpt lat="44.3083755" lon="9.3435676"><ele>6.0</ele><time>2026-04-03T10:40:41.85Z</time></trkpt><trkpt lat="44.3083062" lon="9.3435167"><ele>6.0</ele><time>2026-04-03T10:40:47.849Z</time></trkpt><trkpt lat="44.3082495" lon="9.3434473"><ele>6.0</ele><time>2026-04-03T10:40:49.85Z</time></trkpt><trkpt lat="44.3081834" lon="9.3433662"><ele>6.0</ele><time>2026-04-03T10:40:51.849Z</time></trkpt><trkpt lat="44.3081199" lon="9.3433234"><ele>6.0</ele><time>2026-04-03T10:41:02.851Z</time></trkpt><trkpt lat="44.3080716" lon="9.3432667"><ele>6.0</ele><time>2026-04-03T10:41:17.85Z</time></trkpt><trkpt lat="44.3079988" lon="9.3431965"><ele>6.0</ele><time>2026-04-03T10:41:20.85Z</time></trkpt><trkpt lat="44.3079458" lon="9.3431418"><ele>6.0</ele><time>2026-04-03T10:41:22.85Z</time></trkpt><trkpt lat="44.3078786" lon="9.343079"><ele>6.0</ele><time>2026-04-03T10:41:24.85Z</time></trkpt><trkpt lat="44.3078109" lon="9.343015"><ele>6.0</ele><time>2026-04-03T10:41:26.85Z</time></trkpt><trkpt lat="44.3077322" lon="9.3429921"><ele>6.0</ele><time>2026-04-03T10:41:28.85Z</time></trkpt><trkpt lat="44.3076433" lon="9.3430877"><ele>6.0</ele><time>2026-04-03T10:41:30.85Z</time></trkpt><trkpt lat="44.3075991" lon="9.3431536"><ele>6.0</ele><time>2026-04-03T10:41:31.85Z</time></trkpt><trkpt lat="44.3075143" lon="9.3432704"><ele>6.0</ele><time>2026-04-03T10:41:33.851Z</time></trkpt><trkpt lat="44.3074335" lon="9.3433807"><ele>6.0</ele><time>2026-04-03T10:41:35.85Z</time></trkpt><trkpt lat="44.3073502" lon="9.3434933"><ele>6.0</ele><time>2026-04-03T10:41:37.85Z</time></trkpt><trkpt lat="44.3072651" lon="9.3436185"><ele>6.0</ele><time>2026-04-03T10:41:39.851Z</time></trkpt><trkpt lat="44.3072188" lon="9.3436837"><ele>6.0</ele><time>2026-04-03T10:41:40.851Z</time></trkpt><trkpt lat="44.3071716" lon="9.3437513"><ele>6.0</ele><time>2026-04-03T10:41:41.851Z</time></trkpt><trkpt lat="44.3071218" lon="9.3438211"><ele>6.0</ele><time>2026-04-03T10:41:42.851Z</time></trkpt><trkpt lat="44.3070716" lon="9.3438923"><ele>6.0</ele><time>2026-04-03T10:41:43.851Z</time></trkpt><trkpt lat="44.3070204" lon="9.3439658"><ele>5.666666666666667</ele><time>2026-04-03T10:41:44.851Z</time></trkpt><trkpt lat="44.3069676" lon="9.3440415"><ele>5.333333333333333</ele><time>2026-04-03T10:41:45.848Z</time></trkpt><trkpt lat="44.3069112" lon="9.3441227"><ele>5.0</ele><time>2026-04-03T10:41:46.851Z</time></trkpt><trkpt lat="44.3068536" lon="9.3442081"><ele>4.666666666666666</ele><time>2026-04-03T10:41:47.851Z</time></trkpt><trkpt lat="44.306796" lon="9.3442926"><ele>4.333333333333333</ele><time>2026-04-03T10:41:48.851Z</time></trkpt><trkpt lat="44.3067394" lon="9.3443777"><ele>4.0</ele><time>2026-04-03T10:41:49.85Z</time></trkpt><trkpt lat="44.3066854" lon="9.3444613"><ele>3.9999999999999996</ele><time>2026-04-03T10:41:50.85Z</time></trkpt><trkpt lat="44.3066351" lon="9.3445451"><ele>4.0</ele><time>2026-04-03T10:41:51.85Z</time></trkpt><trkpt lat="44.3065887" lon="9.3446251"><ele>4.0</ele><time>2026-04-03T10:41:52.85Z</time></trkpt><trkpt lat="44.3065462" lon="9.344704"><ele>4.0</ele><time>2026-04-03T10:41:53.85Z</time></trkpt><trkpt lat="44.3065086" lon="9.3447759"><ele>3.9999999999999996</ele><time>2026-04-03T10:41:54.851Z</time></trkpt><trkpt lat="44.3064461" lon="9.3449031"><ele>4.0</ele><time>2026-04-03T10:41:56.851Z</time></trkpt><trkpt lat="44.3064123" lon="9.3449928"><ele>3.6666666666666665</ele><time>2026-04-03T10:41:58.851Z</time></trkpt><trkpt lat="44.3063581" lon="9.3450723"><ele>3.333333333333333</ele><time>2026-04-03T10:42:01.851Z</time></trkpt><trkpt lat="44.3063383" lon="9.3451591"><ele>3.0</ele><time>2026-04-03T10:42:18.851Z</time></trkpt><trkpt lat="44.3063276" lon="9.345303"><ele>2.6666666666666665</ele><time>2026-04-03T10:42:21.851Z</time></trkpt><trkpt lat="44.3062996" lon="9.3454011"><ele>2.333333333333333</ele><time>2026-04-03T10:42:23.851Z</time></trkpt><trkpt lat="44.3063029" lon="9.3454896"><ele>2.0</ele><time>2026-04-03T10:42:28.851Z</time></trkpt><trkpt lat="44.306358" lon="9.3454245"><ele>2.0</ele><time>2026-04-03T10:42:31.851Z</time></trkpt><trkpt lat="44.3063603" lon="9.3453354"><ele>1.9999999999999998</ele><time>2026-04-03T10:42:32.85Z</time></trkpt><trkpt lat="44.3063795" lon="9.3452407"><ele>2.0</ele><time>2026-04-03T10:42:33.851Z</time></trkpt><trkpt lat="44.306407" lon="9.3451494"><ele>2.0</ele><time>2026-04-03T10:42:34.85Z</time></trkpt><trkpt lat="44.3064406" lon="9.3450536"><ele>1.9999999999999998</ele><time>2026-04-03T10:42:35.85Z</time></trkpt><trkpt lat="44.3064814" lon="9.3449614"><ele>2.0</ele><time>2026-04-03T10:42:36.851Z</time></trkpt><trkpt lat="44.3065238" lon="9.3448761"><ele>2.0</ele><time>2026-04-03T10:42:37.851Z</time></trkpt><trkpt lat="44.3065954" lon="9.344757"><ele>2.2857142857142856</ele><time>2026-04-03T10:42:39.851Z</time></trkpt><trkpt lat="44.3066439" lon="9.3446937"><ele>2.571428571428571</ele><time>2026-04-03T10:42:42.85Z</time></trkpt><trkpt lat="44.3066993" lon="9.3446354"><ele>2.8571428571428568</ele><time>2026-04-03T10:43:05.85Z</time></trkpt><trkpt lat="44.3067671" lon="9.3446837"><ele>3.142857142857143</ele><time>2026-04-03T10:43:10.85Z</time></trkpt><trkpt lat="44.3067012" lon="9.3446807"><ele>3.428571428571428</ele><time>2026-04-03T10:48:24.851Z</time></trkpt><trkpt lat="44.3066528" lon="9.3447421"><ele>3.714285714285714</ele><time>2026-04-03T10:48:32.841Z</time></trkpt><trkpt lat="44.3066848" lon="9.3446392"><ele>4.0</ele><time>2026-04-03T10:49:00.842Z</time></trkpt><trkpt lat="44.3067388" lon="9.344688"><ele>4.0</ele><time>2026-04-03T10:49:07.836Z</time></trkpt><trkpt lat="44.3067882" lon="9.3447478"><ele>5.0</ele><time>2026-04-03T10:49:13.844Z</time></trkpt></trkseg><trkseg><trkpt lat="44.3053762" lon="9.3478354"><ele>47.3</ele><time>2026-04-03T11:39:06.833Z</time></trkpt></trkseg></trk></gpx>